<?xml version='1.0' encoding='UTF-8'?><gpx version="1.1" creator="JPX - https://github.com/jenetics/jpx" xmlns="http://www.topografix.com/GPX/1/1"><trk><trkseg><trkpt lat="45.50807885364516" lon="10.463463774808826"><ele>188.0</ele><time>2026-03-29T07:13:20Z</time></trkpt><trkpt lat="45.508115528804105" lon="10.46354674503115"><ele>188.0</ele><time>2026-03-29T07:13:23Z</time></trkpt><trkpt lat="45.50821069845675" lon="10.463554853744872"><ele>188.0</ele><time>2026-03-29T07:14:16Z</time></trkpt><trkpt lat="45.50827266673194" lon="10.463731834603141"><ele>188.0</ele><time>2026-03-29T07:14:17Z</time></trkpt><trkpt lat="45.50834032042221" lon="10.463715906217178"><ele>188.0</ele><time>2026-03-29T07:14:18Z</time></trkpt><trkpt lat="45.50845198021548" lon="10.463687610522502"><ele>188.0</ele><time>2026-03-29T07:14:24Z</time></trkpt><trkpt lat="45.50855916201179" lon="10.463651564006152"><ele>188.0</ele><time>2026-03-29T07:14:25Z</time></trkpt><trkpt lat="45.508678363091676" lon="10.46360394469137"><ele>188.0</ele><time>2026-03-29T07:14:26Z</time></trkpt><trkpt lat="45.50880306727594" lon="10.46355817985753"><ele>188.0</ele><time>2026-03-29T07:14:27Z</time></trkpt><trkpt lat="45.50896126475036" lon="10.46350564376094"><ele>187.5</ele><time>2026-03-29T07:14:28Z</time></trkpt><trkpt lat="45.50912784676976" lon="10.463441088732187"><ele>187.0</ele><time>2026-03-29T07:14:29Z</time></trkpt><trkpt lat="45.509272574500386" lon="10.463404565170187"><ele>186.5</ele><time>2026-03-29T07:14:30Z</time></trkpt><trkpt lat="45.50939285826561" lon="10.463362630068673"><ele>186.0</ele><time>2026-03-29T07:14:31Z</time></trkpt><trkpt lat="45.50951991960355" lon="10.463318332084839"><ele>186.66666666666666</ele><time>2026-03-29T07:14:32Z</time></trkpt><trkpt lat="45.50967091682786" lon="10.463265689228697"><ele>187.33333333333331</ele><time>2026-03-29T07:14:33Z</time></trkpt><trkpt lat="45.509829904993445" lon="10.463210260450873"><ele>188.0</ele><time>2026-03-29T07:14:34Z</time></trkpt><trkpt lat="45.50999336843546" lon="10.46313120737635"><ele>188.0</ele><time>2026-03-29T07:14:35Z</time></trkpt><trkpt lat="45.51017194301175" lon="10.46307929194535"><ele>188.0</ele><time>2026-03-29T07:14:36Z</time></trkpt><trkpt lat="45.51035242868683" lon="10.463014579904442"><ele>188.0</ele><time>2026-03-29T07:14:37Z</time></trkpt><trkpt lat="45.51053237272959" lon="10.462952349967484"><ele>188.0</ele><time>2026-03-29T07:14:38Z</time></trkpt><trkpt lat="45.510711326528835" lon="10.462891034101498"><ele>188.0</ele><time>2026-03-29T07:14:39Z</time></trkpt><trkpt lat="45.51089380876936" lon="10.462829901840523"><ele>188.0</ele><time>2026-03-29T07:14:40Z</time></trkpt><trkpt lat="45.511087712415595" lon="10.462765070573422"><ele>188.5</ele><time>2026-03-29T07:14:41Z</time></trkpt><trkpt lat="45.51132364113057" lon="10.46268739292373"><ele>189.0</ele><time>2026-03-29T07:14:42Z</time></trkpt><trkpt lat="45.511579665903724" lon="10.462596441227104"><ele>189.0</ele><time>2026-03-29T07:14:43Z</time></trkpt><trkpt lat="45.51180590667941" lon="10.462518109861708"><ele>189.0</ele><time>2026-03-29T07:14:44Z</time></trkpt><trkpt lat="45.51200895444617" lon="10.462457449745608"><ele>189.0</ele><time>2026-03-29T07:14:45Z</time></trkpt><trkpt lat="45.512205552938745" lon="10.462410439160047"><ele>189.66666666666666</ele><time>2026-03-29T07:14:46Z</time></trkpt><trkpt lat="45.512404250569325" lon="10.46237763184778"><ele>190.33333333333331</ele><time>2026-03-29T07:14:47Z</time></trkpt><trkpt lat="45.51260792197912" lon="10.46235883038892"><ele>191.0</ele><time>2026-03-29T07:14:48Z</time></trkpt><trkpt lat="45.512815852389636" lon="10.462348798133037"><ele>191.66666666666666</ele><time>2026-03-29T07:14:49Z</time></trkpt><trkpt lat="45.513007067822606" lon="10.46234486089189"><ele>192.33333333333331</ele><time>2026-03-29T07:14:50Z</time></trkpt><trkpt lat="45.51319078631229" lon="10.462336204385167"><ele>193.0</ele><time>2026-03-29T07:14:51Z</time></trkpt><trkpt lat="45.51337300250482" lon="10.462324293725368"><ele>193.0</ele><time>2026-03-29T07:14:52Z</time></trkpt><trkpt lat="45.513547951591015" lon="10.462317468200617"><ele>193.0</ele><time>2026-03-29T07:14:53Z</time></trkpt><trkpt lat="45.51369617066262" lon="10.46230960232986"><ele>193.0</ele><time>2026-03-29T07:14:54Z</time></trkpt><trkpt lat="45.51382650439214" lon="10.462299143786439"><ele>193.16666666666666</ele><time>2026-03-29T07:14:55Z</time></trkpt><trkpt lat="45.513936893081784" lon="10.462296030476228"><ele>193.33333333333331</ele><time>2026-03-29T07:14:56Z</time></trkpt><trkpt lat="45.514033313084255" lon="10.462294117061411"><ele>193.5</ele><time>2026-03-29T07:14:57Z</time></trkpt><trkpt lat="45.51411920060798" lon="10.462291033654315"><ele>193.66666666666669</ele><time>2026-03-29T07:14:58Z</time></trkpt><trkpt lat="45.51419162125406" lon="10.462293344976757"><ele>193.83333333333334</ele><time>2026-03-29T07:14:59Z</time></trkpt><trkpt lat="45.51425627580267" lon="10.462291003974157"><ele>194.0</ele><time>2026-03-29T07:15:00Z</time></trkpt><trkpt lat="45.514331472959526" lon="10.462341999177953"><ele>194.0</ele><time>2026-03-29T07:15:02Z</time></trkpt><trkpt lat="45.51434179354952" lon="10.462512407585379"><ele>194.0</ele><time>2026-03-29T07:15:04Z</time></trkpt><trkpt lat="45.514329071533965" lon="10.462639892868536"><ele>194.0</ele><time>2026-03-29T07:15:05Z</time></trkpt><trkpt lat="45.51431794065969" lon="10.46280136608426"><ele>194.0</ele><time>2026-03-29T07:15:06Z</time></trkpt><trkpt lat="45.51431225549439" lon="10.462973586406916"><ele>194.0</ele><time>2026-03-29T07:15:07Z</time></trkpt><trkpt lat="45.51430413626168" lon="10.463119558910936"><ele>194.0</ele><time>2026-03-29T07:15:08Z</time></trkpt><trkpt lat="45.514294732077154" lon="10.463271863129233"><ele>194.0</ele><time>2026-03-29T07:15:09Z</time></trkpt><trkpt lat="45.5142921690999" lon="10.463416770974263"><ele>194.0</ele><time>2026-03-29T07:15:10Z</time></trkpt><trkpt lat="45.514283057808406" lon="10.463577384233966"><ele>194.0</ele><time>2026-03-29T07:15:11Z</time></trkpt><trkpt lat="45.51427668808269" lon="10.463734557310508"><ele>194.0</ele><time>2026-03-29T07:15:12Z</time></trkpt><trkpt lat="45.51426939161246" lon="10.46386777130977"><ele>193.79999999999998</ele><time>2026-03-29T07:15:13Z</time></trkpt><trkpt lat="45.514267672185326" lon="10.4639900140763"><ele>193.6</ele><time>2026-03-29T07:15:14Z</time></trkpt><trkpt lat="45.514262578084455" lon="10.464111393099223"><ele>193.4</ele><time>2026-03-29T07:15:15Z</time></trkpt><trkpt lat="45.51425759671179" lon="10.464257338430489"><ele>193.2</ele><time>2026-03-29T07:15:16Z</time></trkpt><trkpt lat="45.51425037275137" lon="10.464392442125943"><ele>193.0</ele><time>2026-03-29T07:15:17Z</time></trkpt><trkpt lat="45.51424567383458" lon="10.464547583266173"><ele>193.0</ele><time>2026-03-29T07:15:18Z</time></trkpt><trkpt lat="45.51423884331528" lon="10.464721839409282"><ele>193.0</ele><time>2026-03-29T07:15:19Z</time></trkpt><trkpt lat="45.51423116209202" lon="10.46490775197494"><ele>193.0</ele><time>2026-03-29T07:15:20Z</time></trkpt><trkpt lat="45.514224698066215" lon="10.465100363062517"><ele>193.0</ele><time>2026-03-29T07:15:21Z</time></trkpt><trkpt lat="45.51421669962408" lon="10.465308773504773"><ele>193.66666666666666</ele><time>2026-03-29T07:15:22Z</time></trkpt><trkpt lat="45.514201461529446" lon="10.465536155942244"><ele>194.33333333333331</ele><time>2026-03-29T07:15:23Z</time></trkpt><trkpt lat="45.51419376226555" lon="10.465756060552064"><ele>195.0</ele><time>2026-03-29T07:15:24Z</time></trkpt><trkpt lat="45.5141836559961" lon="10.465988960644435"><ele>195.0</ele><time>2026-03-29T07:15:25Z</time></trkpt><trkpt lat="45.514170123050114" lon="10.466221367602218"><ele>195.0</ele><time>2026-03-29T07:15:26Z</time></trkpt><trkpt lat="45.514169053559826" lon="10.466441920569027"><ele>195.0</ele><time>2026-03-29T07:15:27Z</time></trkpt><trkpt lat="45.514157321146094" lon="10.466663493188708"><ele>195.33333333333331</ele><time>2026-03-29T07:15:28Z</time></trkpt><trkpt lat="45.51414359846176" lon="10.466891942421203"><ele>195.66666666666666</ele><time>2026-03-29T07:15:29Z</time></trkpt><trkpt lat="45.5141386927002" lon="10.467100933153349"><ele>196.0</ele><time>2026-03-29T07:15:30Z</time></trkpt><trkpt lat="45.51413983906973" lon="10.467310199386647"><ele>197.0</ele><time>2026-03-29T07:15:31Z</time></trkpt><trkpt lat="45.51412912420677" lon="10.467534634762028"><ele>198.0</ele><time>2026-03-29T07:15:32Z</time></trkpt><trkpt lat="45.51411862843207" lon="10.467747195434919"><ele>199.0</ele><time>2026-03-29T07:15:33Z</time></trkpt><trkpt lat="45.51410247865213" lon="10.467983468003109"><ele>199.33333333333331</ele><time>2026-03-29T07:15:34Z</time></trkpt><trkpt lat="45.514091492059066" lon="10.468186921934898"><ele>199.66666666666669</ele><time>2026-03-29T07:15:35Z</time></trkpt><trkpt lat="45.51409750100741" lon="10.468422471956162"><ele>200.0</ele><time>2026-03-29T07:15:36Z</time></trkpt><trkpt lat="45.51409092970691" lon="10.468634305442377"><ele>200.0</ele><time>2026-03-29T07:15:37Z</time></trkpt><trkpt lat="45.51407759440632" lon="10.468805541434852"><ele>200.0</ele><time>2026-03-29T07:15:38Z</time></trkpt><trkpt lat="45.514075676665286" lon="10.468929302206904"><ele>200.0</ele><time>2026-03-29T07:15:39Z</time></trkpt><trkpt lat="45.51407424049824" lon="10.469058977197863"><ele>200.0</ele><time>2026-03-29T07:15:40Z</time></trkpt><trkpt lat="45.5140716024686" lon="10.46916884599226"><ele>200.0</ele><time>2026-03-29T07:15:41Z</time></trkpt><trkpt lat="45.51413700046316" lon="10.469225889624663"><ele>200.0</ele><time>2026-03-29T07:15:44Z</time></trkpt><trkpt lat="45.514209962408046" lon="10.469251643229237"><ele>200.0</ele><time>2026-03-29T07:15:45Z</time></trkpt><trkpt lat="45.51430701844978" lon="10.469259375154879"><ele>200.0</ele><time>2026-03-29T07:15:46Z</time></trkpt><trkpt lat="45.514388017593625" lon="10.469255553043316"><ele>200.0</ele><time>2026-03-29T07:15:47Z</time></trkpt><trkpt lat="45.514465273473675" lon="10.469250172346111"><ele>200.0</ele><time>2026-03-29T07:15:49Z</time></trkpt><trkpt lat="45.51461138554967" lon="10.469237512024362"><ele>200.0</ele><time>2026-03-29T07:15:51Z</time></trkpt><trkpt lat="45.51471440968598" lon="10.469231178030206"><ele>200.0</ele><time>2026-03-29T07:15:52Z</time></trkpt><trkpt lat="45.514816195081195" lon="10.469240236554848"><ele>200.0</ele><time>2026-03-29T07:15:53Z</time></trkpt><trkpt lat="45.51494565555519" lon="10.469252857009542"><ele>200.0</ele><time>2026-03-29T07:15:54Z</time></trkpt><trkpt lat="45.51507902580335" lon="10.469267641782155"><ele>200.0</ele><time>2026-03-29T07:15:55Z</time></trkpt><trkpt lat="45.51522145509092" lon="10.469280774712104"><ele>200.0</ele><time>2026-03-29T07:15:56Z</time></trkpt><trkpt lat="45.51537455807913" lon="10.469296417380463"><ele>200.0</ele><time>2026-03-29T07:15:57Z</time></trkpt><trkpt lat="45.51553815153885" lon="10.46931700653421"><ele>200.66666666666669</ele><time>2026-03-29T07:15:58Z</time></trkpt><trkpt lat="45.515692630397034" lon="10.469333429397222"><ele>201.33333333333331</ele><time>2026-03-29T07:15:59Z</time></trkpt><trkpt lat="45.515855249514864" lon="10.469355034397237"><ele>202.0</ele><time>2026-03-29T07:16:00Z</time></trkpt><trkpt lat="45.51602118424524" lon="10.469378148540262"><ele>202.0</ele><time>2026-03-29T07:16:01Z</time></trkpt><trkpt lat="45.51617132911418" lon="10.469396145966789"><ele>202.0</ele><time>2026-03-29T07:16:02Z</time></trkpt><trkpt lat="45.516321591787644" lon="10.469421060220814"><ele>202.0</ele><time>2026-03-29T07:16:03Z</time></trkpt><trkpt lat="45.51647981898537" lon="10.469431755970017"><ele>203.0</ele><time>2026-03-29T07:16:04Z</time></trkpt><trkpt lat="45.51664800492678" lon="10.469422518339844"><ele>204.0</ele><time>2026-03-29T07:16:05Z</time></trkpt><trkpt lat="45.516808783573765" lon="10.469442172684504"><ele>205.0</ele><time>2026-03-29T07:16:06Z</time></trkpt><trkpt lat="45.51693912305579" lon="10.469419785395575"><ele>205.0</ele><time>2026-03-29T07:16:07Z</time></trkpt><trkpt lat="45.517045507263184" lon="10.469422855599893"><ele>205.0</ele><time>2026-03-29T07:16:08Z</time></trkpt><trkpt lat="45.51714443848993" lon="10.469412441375928"><ele>205.0</ele><time>2026-03-29T07:16:09Z</time></trkpt><trkpt lat="45.51721924257292" lon="10.469409821770252"><ele>205.0</ele><time>2026-03-29T07:16:10Z</time></trkpt><trkpt lat="45.51728596341714" lon="10.469455901639298"><ele>205.0</ele><time>2026-03-29T07:16:12Z</time></trkpt><trkpt lat="45.517250801504176" lon="10.46965932167458"><ele>205.33333333333331</ele><time>2026-03-29T07:16:15Z</time></trkpt><trkpt lat="45.517197975247164" lon="10.469772951595873"><ele>205.66666666666666</ele><time>2026-03-29T07:16:16Z</time></trkpt><trkpt lat="45.51718715176572" lon="10.469866018086575"><ele>206.0</ele><time>2026-03-29T07:16:17Z</time></trkpt><trkpt lat="45.5171464168307" lon="10.469980635775594"><ele>206.33333333333331</ele><time>2026-03-29T07:16:19Z</time></trkpt><trkpt lat="45.51713189983049" lon="10.470081987994833"><ele>206.66666666666666</ele><time>2026-03-29T07:16:20Z</time></trkpt><trkpt lat="45.51711253377797" lon="10.470170065788663"><ele>207.0</ele><time>2026-03-29T07:16:21Z</time></trkpt><trkpt lat="45.51708924860296" lon="10.470299577872991"><ele>207.2</ele><time>2026-03-29T07:16:22Z</time></trkpt><trkpt lat="45.51705711320188" lon="10.470444814074463"><ele>207.39999999999998</ele><time>2026-03-29T07:16:23Z</time></trkpt><trkpt lat="45.51702158349337" lon="10.470588625297319"><ele>207.60000000000002</ele><time>2026-03-29T07:16:24Z</time></trkpt><trkpt lat="45.51698273612526" lon="10.47072712863485"><ele>207.8</ele><time>2026-03-29T07:16:25Z</time></trkpt><trkpt lat="45.516926439633934" lon="10.470854367954454"><ele>208.0</ele><time>2026-03-29T07:16:26Z</time></trkpt><trkpt lat="45.5168501658396" lon="10.47097541430137"><ele>208.0</ele><time>2026-03-29T07:16:27Z</time></trkpt><trkpt lat="45.51675294734852" lon="10.471113235668358"><ele>208.0</ele><time>2026-03-29T07:16:28Z</time></trkpt><trkpt lat="45.51665577846947" lon="10.471257392161455"><ele>208.0</ele><time>2026-03-29T07:16:29Z</time></trkpt><trkpt lat="45.516575179392525" lon="10.471380209001603"><ele>208.0</ele><time>2026-03-29T07:16:30Z</time></trkpt><trkpt lat="45.51651303844784" lon="10.471486408273833"><ele>208.75</ele><time>2026-03-29T07:16:31Z</time></trkpt><trkpt lat="45.516455152677814" lon="10.471625486811627"><ele>209.5</ele><time>2026-03-29T07:16:32Z</time></trkpt><trkpt lat="45.51639893357192" lon="10.471778515972487"><ele>210.25</ele><time>2026-03-29T07:16:33Z</time></trkpt><trkpt lat="45.51634804396616" lon="10.47194244078758"><ele>211.0</ele><time>2026-03-29T07:16:34Z</time></trkpt><trkpt lat="45.51631119464683" lon="10.472117412668881"><ele>212.0</ele><time>2026-03-29T07:16:35Z</time></trkpt><trkpt lat="45.516290534702236" lon="10.472306727616509"><ele>213.0</ele><time>2026-03-29T07:16:36Z</time></trkpt><trkpt lat="45.51628317476855" lon="10.472497247552703"><ele>214.0</ele><time>2026-03-29T07:16:37Z</time></trkpt><trkpt lat="45.51626347894899" lon="10.472643806003076"><ele>215.0</ele><time>2026-03-29T07:16:38Z</time></trkpt><trkpt lat="45.51622947543483" lon="10.472771080719774"><ele>216.0</ele><time>2026-03-29T07:16:39Z</time></trkpt><trkpt lat="45.51619887116604" lon="10.472859063961787"><ele>217.0</ele><time>2026-03-29T07:16:40Z</time></trkpt><trkpt lat="45.51615942218823" lon="10.472968781287562"><ele>218.0</ele><time>2026-03-29T07:16:42Z</time></trkpt><trkpt lat="45.51624983831545" lon="10.473065444506313"><ele>219.0</ele><time>2026-03-29T07:16:43Z</time></trkpt><trkpt lat="45.51631640812511" lon="10.473166880531505"><ele>220.0</ele><time>2026-03-29T07:16:44Z</time></trkpt><trkpt lat="45.51645309063517" lon="10.473262340311553"><ele>220.0</ele><time>2026-03-29T07:16:45Z</time></trkpt><trkpt lat="45.516610710928646" lon="10.473303438418299"><ele>220.0</ele><time>2026-03-29T07:16:46Z</time></trkpt><trkpt lat="45.516776756910595" lon="10.473356226913829"><ele>220.0</ele><time>2026-03-29T07:16:47Z</time></trkpt><trkpt lat="45.51697856670695" lon="10.473356105088477"><ele>220.0</ele><time>2026-03-29T07:16:48Z</time></trkpt><trkpt lat="45.51718817464316" lon="10.473343374262319"><ele>220.0</ele><time>2026-03-29T07:16:49Z</time></trkpt><trkpt lat="45.5173846861177" lon="10.473323626286076"><ele>220.0</ele><time>2026-03-29T07:16:50Z</time></trkpt><trkpt lat="45.51756114554403" lon="10.473290146560082"><ele>220.0</ele><time>2026-03-29T07:16:51Z</time></trkpt><trkpt lat="45.51772068336692" lon="10.473224188615433"><ele>220.0</ele><time>2026-03-29T07:16:52Z</time></trkpt><trkpt lat="45.51787136772264" lon="10.473171576724441"><ele>220.0</ele><time>2026-03-29T07:16:53Z</time></trkpt><trkpt lat="45.51800890731858" lon="10.473142615611204"><ele>219.5</ele><time>2026-03-29T07:16:54Z</time></trkpt><trkpt lat="45.51813643164999" lon="10.473068691685901"><ele>219.0</ele><time>2026-03-29T07:16:55Z</time></trkpt><trkpt lat="45.51824628187652" lon="10.472982683367796"><ele>218.5</ele><time>2026-03-29T07:16:56Z</time></trkpt><trkpt lat="45.518356924355665" lon="10.472886775844573"><ele>218.0</ele><time>2026-03-29T07:16:57Z</time></trkpt><trkpt lat="45.518492282929344" lon="10.472764634155613"><ele>218.0</ele><time>2026-03-29T07:16:58Z</time></trkpt><trkpt lat="45.518651331092954" lon="10.47262146996854"><ele>218.0</ele><time>2026-03-29T07:16:59Z</time></trkpt><trkpt lat="45.518835820814054" lon="10.472464965770683"><ele>218.0</ele><time>2026-03-29T07:17:00Z</time></trkpt><trkpt lat="45.5190267495745" lon="10.472303101240877"><ele>218.66666666666669</ele><time>2026-03-29T07:17:01Z</time></trkpt><trkpt lat="45.5191981217717" lon="10.472160635850273"><ele>219.33333333333331</ele><time>2026-03-29T07:17:02Z</time></trkpt><trkpt lat="45.51935799606544" lon="10.472035453064152"><ele>220.0</ele><time>2026-03-29T07:17:03Z</time></trkpt><trkpt lat="45.519499565309516" lon="10.471926335416802"><ele>219.66666666666666</ele><time>2026-03-29T07:17:04Z</time></trkpt><trkpt lat="45.51964983153693" lon="10.471796398879665"><ele>219.33333333333331</ele><time>2026-03-29T07:17:05Z</time></trkpt><trkpt lat="45.51979298925686" lon="10.471644349377748"><ele>219.0</ele><time>2026-03-29T07:17:06Z</time></trkpt><trkpt lat="45.51990454758267" lon="10.471535306839154"><ele>219.0</ele><time>2026-03-29T07:17:07Z</time></trkpt><trkpt lat="45.52000805314111" lon="10.471464798626645"><ele>219.0</ele><time>2026-03-29T07:17:08Z</time></trkpt><trkpt lat="45.52011160047961" lon="10.471410752302447"><ele>219.0</ele><time>2026-03-29T07:17:09Z</time></trkpt><trkpt lat="45.52022984676851" lon="10.471356397894029"><ele>219.0</ele><time>2026-03-29T07:17:10Z</time></trkpt><trkpt lat="45.520359024660166" lon="10.47131336857368"><ele>219.25</ele><time>2026-03-29T07:17:11Z</time></trkpt><trkpt lat="45.52048998668454" lon="10.471278625908974"><ele>219.5</ele><time>2026-03-29T07:17:12Z</time></trkpt><trkpt lat="45.52057011341856" lon="10.471265765407646"><ele>219.75</ele><time>2026-03-29T07:17:13Z</time></trkpt><trkpt lat="45.52064364692347" lon="10.471399310513082"><ele>220.0</ele><time>2026-03-29T07:17:18Z</time></trkpt><trkpt lat="45.520625779014296" lon="10.471576847184458"><ele>220.0</ele><time>2026-03-29T07:17:19Z</time></trkpt><trkpt lat="45.520641178939535" lon="10.471795496520118"><ele>220.0</ele><time>2026-03-29T07:17:20Z</time></trkpt><trkpt lat="45.520634682687195" lon="10.472025635529654"><ele>220.0</ele><time>2026-03-29T07:17:21Z</time></trkpt><trkpt lat="45.52063641887906" lon="10.472258147059632"><ele>222.0</ele><time>2026-03-29T07:17:22Z</time></trkpt><trkpt lat="45.52063568340148" lon="10.472469682750777"><ele>224.0</ele><time>2026-03-29T07:17:23Z</time></trkpt><trkpt lat="45.52060895276924" lon="10.472673453804877"><ele>226.0</ele><time>2026-03-29T07:17:24Z</time></trkpt><trkpt lat="45.520524245411075" lon="10.472896059079535"><ele>231.0</ele><time>2026-03-29T07:17:25Z</time></trkpt><trkpt lat="45.52044288575388" lon="10.473200795536107"><ele>236.0</ele><time>2026-03-29T07:17:26Z</time></trkpt><trkpt lat="45.5203306312602" lon="10.473516638873033"><ele>238.0</ele><time>2026-03-29T07:17:27Z</time></trkpt><trkpt lat="45.52024051282013" lon="10.4738350703738"><ele>240.0</ele><time>2026-03-29T07:17:28Z</time></trkpt><trkpt lat="45.520168157437176" lon="10.474193218039813"><ele>240.0</ele><time>2026-03-29T07:17:29Z</time></trkpt><trkpt lat="45.52010605686054" lon="10.474579873685473"><ele>240.0</ele><time>2026-03-29T07:17:30Z</time></trkpt><trkpt lat="45.520046638604235" lon="10.474983398436455"><ele>239.5</ele><time>2026-03-29T07:17:31Z</time></trkpt><trkpt lat="45.51997932409698" lon="10.475402031246045"><ele>239.0</ele><time>2026-03-29T07:17:32Z</time></trkpt><trkpt lat="45.51991426335005" lon="10.475822987768254"><ele>239.0</ele><time>2026-03-29T07:17:33Z</time></trkpt><trkpt lat="45.5198474539561" lon="10.47624058289303"><ele>239.0</ele><time>2026-03-29T07:17:34Z</time></trkpt><trkpt lat="45.51978420848829" lon="10.476624797722135"><ele>238.66666666666669</ele><time>2026-03-29T07:17:35Z</time></trkpt><trkpt lat="45.51973336035327" lon="10.47695873904946"><ele>238.33333333333331</ele><time>2026-03-29T07:17:36Z</time></trkpt><trkpt lat="45.51969036511912" lon="10.4772340834531"><ele>238.0</ele><time>2026-03-29T07:17:37Z</time></trkpt><trkpt lat="45.51965929807081" lon="10.477475771878995"><ele>239.75</ele><time>2026-03-29T07:17:38Z</time></trkpt><trkpt lat="45.51963784942671" lon="10.477706762782184"><ele>241.5</ele><time>2026-03-29T07:17:39Z</time></trkpt><trkpt lat="45.51963609545157" lon="10.47792237224446"><ele>243.25</ele><time>2026-03-29T07:17:40Z</time></trkpt><trkpt lat="45.51965417309645" lon="10.478100966864634"><ele>245.0</ele><time>2026-03-29T07:17:41Z</time></trkpt><trkpt lat="45.51966723880728" lon="10.478253841000292"><ele>245.83333333333334</ele><time>2026-03-29T07:17:42Z</time></trkpt><trkpt lat="45.51966469913632" lon="10.47837176632144"><ele>246.66666666666669</ele><time>2026-03-29T07:17:43Z</time></trkpt><trkpt lat="45.519621961323665" lon="10.478464429087945"><ele>247.5</ele><time>2026-03-29T07:17:44Z</time></trkpt><trkpt lat="45.519640691784616" lon="10.478366811032492"><ele>248.33333333333331</ele><time>2026-03-29T07:18:00Z</time></trkpt><trkpt lat="45.5197093784584" lon="10.47843945139397"><ele>249.16666666666666</ele><time>2026-03-29T07:18:04Z</time></trkpt><trkpt lat="45.51976481761007" lon="10.478587945619754"><ele>250.0</ele><time>2026-03-29T07:18:06Z</time></trkpt><trkpt lat="45.51978635616696" lon="10.478754988901494"><ele>251.25</ele><time>2026-03-29T07:18:07Z</time></trkpt><trkpt lat="45.51978374291222" lon="10.478914931279713"><ele>252.5</ele><time>2026-03-29T07:18:08Z</time></trkpt><trkpt lat="45.51977595576339" lon="10.479061901204817"><ele>253.75</ele><time>2026-03-29T07:18:09Z</time></trkpt><trkpt lat="45.51973337970398" lon="10.47921470969388"><ele>255.0</ele><time>2026-03-29T07:18:10Z</time></trkpt><trkpt lat="45.51964142229908" lon="10.479361371750187"><ele>255.33333333333331</ele><time>2026-03-29T07:18:11Z</time></trkpt><trkpt lat="45.519536014086455" lon="10.479548239620053"><ele>255.66666666666666</ele><time>2026-03-29T07:18:12Z</time></trkpt><trkpt lat="45.51943392847279" lon="10.479755534884141"><ele>256.0</ele><time>2026-03-29T07:18:13Z</time></trkpt><trkpt lat="45.519323248292054" lon="10.479938089237196"><ele>254.75</ele><time>2026-03-29T07:18:14Z</time></trkpt><trkpt lat="45.51923479095554" lon="10.480100362119336"><ele>253.5</ele><time>2026-03-29T07:18:15Z</time></trkpt><trkpt lat="45.51917247153925" lon="10.480267652561244"><ele>252.25</ele><time>2026-03-29T07:18:16Z</time></trkpt><trkpt lat="45.51913724156757" lon="10.480468997878697"><ele>251.0</ele><time>2026-03-29T07:18:17Z</time></trkpt><trkpt lat="45.51912109091322" lon="10.480702662694947"><ele>250.0</ele><time>2026-03-29T07:18:18Z</time></trkpt><trkpt lat="45.51911368678091" lon="10.480952674473842"><ele>249.0</ele><time>2026-03-29T07:18:19Z</time></trkpt><trkpt lat="45.51909641433216" lon="10.481186045145796"><ele>248.0</ele><time>2026-03-29T07:18:20Z</time></trkpt><trkpt lat="45.5190851982801" lon="10.48137265782443"><ele>246.25</ele><time>2026-03-29T07:18:21Z</time></trkpt><trkpt lat="45.51910057179206" lon="10.481548902502565"><ele>244.5</ele><time>2026-03-29T07:18:22Z</time></trkpt><trkpt lat="45.51915941184356" lon="10.48171340433692"><ele>242.75</ele><time>2026-03-29T07:18:23Z</time></trkpt><trkpt lat="45.51925186984093" lon="10.481894361658028"><ele>241.0</ele><time>2026-03-29T07:18:24Z</time></trkpt><trkpt lat="45.519357945463966" lon="10.482101209503314"><ele>240.66666666666666</ele><time>2026-03-29T07:18:25Z</time></trkpt><trkpt lat="45.519473692150655" lon="10.482330563816936"><ele>240.33333333333331</ele><time>2026-03-29T07:18:26Z</time></trkpt><trkpt lat="45.519598399269476" lon="10.482572813471194"><ele>240.0</ele><time>2026-03-29T07:18:27Z</time></trkpt><trkpt lat="45.51972675139563" lon="10.482818081117825"><ele>240.0</ele><time>2026-03-29T07:18:28Z</time></trkpt><trkpt lat="45.519850932330485" lon="10.483058353289717"><ele>240.0</ele><time>2026-03-29T07:18:29Z</time></trkpt><trkpt lat="45.519963637139114" lon="10.483268942958837"><ele>240.0</ele><time>2026-03-29T07:18:30Z</time></trkpt><trkpt lat="45.52009105375679" lon="10.483470873002407"><ele>240.0</ele><time>2026-03-29T07:18:31Z</time></trkpt><trkpt lat="45.52023626172053" lon="10.483666885804434"><ele>240.0</ele><time>2026-03-29T07:18:32Z</time></trkpt><trkpt lat="45.52039815359559" lon="10.483864591976776"><ele>240.0</ele><time>2026-03-29T07:18:33Z</time></trkpt><trkpt lat="45.52056590427172" lon="10.484068216780845"><ele>241.0</ele><time>2026-03-29T07:18:34Z</time></trkpt><trkpt lat="45.520748470561365" lon="10.484293109286382"><ele>242.0</ele><time>2026-03-29T07:18:35Z</time></trkpt><trkpt lat="45.5209225917305" lon="10.484516772774189"><ele>242.0</ele><time>2026-03-29T07:18:36Z</time></trkpt><trkpt lat="45.52107881560421" lon="10.484717857092992"><ele>242.0</ele><time>2026-03-29T07:18:37Z</time></trkpt><trkpt lat="45.52121015358066" lon="10.484894665969911"><ele>242.0</ele><time>2026-03-29T07:18:38Z</time></trkpt><trkpt lat="45.52131646954223" lon="10.485064203166907"><ele>242.0</ele><time>2026-03-29T07:18:39Z</time></trkpt><trkpt lat="45.52138289769984" lon="10.485227975150053"><ele>242.0</ele><time>2026-03-29T07:18:40Z</time></trkpt><trkpt lat="45.52141412787945" lon="10.485410985229503"><ele>242.0</ele><time>2026-03-29T07:18:41Z</time></trkpt><trkpt lat="45.52143580530904" lon="10.48563601508944"><ele>242.0</ele><time>2026-03-29T07:18:42Z</time></trkpt><trkpt lat="45.52144790414816" lon="10.485890978097993"><ele>239.0</ele><time>2026-03-29T07:18:43Z</time></trkpt><trkpt lat="45.52146448867653" lon="10.486151163803704"><ele>236.0</ele><time>2026-03-29T07:18:44Z</time></trkpt><trkpt lat="45.52147057762033" lon="10.486377680540546"><ele>233.0</ele><time>2026-03-29T07:18:45Z</time></trkpt><trkpt lat="45.52145829915646" lon="10.486596564510132"><ele>231.33333333333334</ele><time>2026-03-29T07:18:46Z</time></trkpt><trkpt lat="45.52141214370737" lon="10.486833519571327"><ele>229.66666666666669</ele><time>2026-03-29T07:18:47Z</time></trkpt><trkpt lat="45.52134907458908" lon="10.487082064825756"><ele>228.0</ele><time>2026-03-29T07:18:48Z</time></trkpt><trkpt lat="45.521272390453156" lon="10.487352353425965"><ele>226.33333333333331</ele><time>2026-03-29T07:18:49Z</time></trkpt><trkpt lat="45.52119526880425" lon="10.487632932834039"><ele>224.66666666666666</ele><time>2026-03-29T07:18:50Z</time></trkpt><trkpt lat="45.52112472234888" lon="10.48789504654369"><ele>223.0</ele><time>2026-03-29T07:18:51Z</time></trkpt><trkpt lat="45.52105914739863" lon="10.488139459221596"><ele>222.33333333333331</ele><time>2026-03-29T07:18:52Z</time></trkpt><trkpt lat="45.5209963265647" lon="10.488363077830277"><ele>221.66666666666669</ele><time>2026-03-29T07:18:53Z</time></trkpt><trkpt lat="45.52093924425112" lon="10.488567904288189"><ele>221.0</ele><time>2026-03-29T07:18:54Z</time></trkpt><trkpt lat="45.52089249966094" lon="10.488745223276082"><ele>220.75</ele><time>2026-03-29T07:18:55Z</time></trkpt><trkpt lat="45.52085705775138" lon="10.488901887624674"><ele>220.5</ele><time>2026-03-29T07:18:56Z</time></trkpt><trkpt lat="45.520834206245645" lon="10.489057192457981"><ele>220.25</ele><time>2026-03-29T07:18:57Z</time></trkpt><trkpt lat="45.52083594590166" lon="10.48921543987122"><ele>220.0</ele><time>2026-03-29T07:18:58Z</time></trkpt><trkpt lat="45.52086926530262" lon="10.48938523847831"><ele>220.0</ele><time>2026-03-29T07:18:59Z</time></trkpt><trkpt lat="45.520942002661116" lon="10.489577521158095"><ele>220.0</ele><time>2026-03-29T07:19:00Z</time></trkpt><trkpt lat="45.5210327491728" lon="10.489777033230425"><ele>220.0</ele><time>2026-03-29T07:19:01Z</time></trkpt><trkpt lat="45.521122595388285" lon="10.489993070320294"><ele>219.66666666666666</ele><time>2026-03-29T07:19:02Z</time></trkpt><trkpt lat="45.521217597003194" lon="10.490222048758714"><ele>219.33333333333331</ele><time>2026-03-29T07:19:03Z</time></trkpt><trkpt lat="45.521314343820805" lon="10.490459930078732"><ele>219.0</ele><time>2026-03-29T07:19:04Z</time></trkpt><trkpt lat="45.521407394672465" lon="10.490694720226287"><ele>217.66666666666669</ele><time>2026-03-29T07:19:05Z</time></trkpt><trkpt lat="45.521493155923665" lon="10.490912408799158"><ele>216.33333333333334</ele><time>2026-03-29T07:19:06Z</time></trkpt><trkpt lat="45.52157329873605" lon="10.49111795751592"><ele>215.0</ele><time>2026-03-29T07:19:07Z</time></trkpt><trkpt lat="45.521633322366995" lon="10.491273142700063"><ele>214.0</ele><time>2026-03-29T07:19:08Z</time></trkpt><trkpt lat="45.52168853416626" lon="10.491423001073567"><ele>213.0</ele><time>2026-03-29T07:19:09Z</time></trkpt><trkpt lat="45.52174352998906" lon="10.491567755499805"><ele>212.0</ele><time>2026-03-29T07:19:10Z</time></trkpt><trkpt lat="45.52178399564387" lon="10.491679625350464"><ele>211.0</ele><time>2026-03-29T07:19:11Z</time></trkpt><trkpt lat="45.52183668005483" lon="10.491813602378883"><ele>210.0</ele><time>2026-03-29T07:19:13Z</time></trkpt><trkpt lat="45.521917602231234" lon="10.49176206788797"><ele>210.0</ele><time>2026-03-29T07:19:16Z</time></trkpt><trkpt lat="45.521829767946606" lon="10.491650795931156"><ele>210.0</ele><time>2026-03-29T07:19:20Z</time></trkpt><trkpt lat="45.52177322437197" lon="10.491605051356773"><ele>210.0</ele><time>2026-03-29T07:19:21Z</time></trkpt><trkpt lat="45.52172247463458" lon="10.491498313753437"><ele>210.0</ele><time>2026-03-29T07:19:22Z</time></trkpt><trkpt lat="45.52166843410324" lon="10.491327428809223"><ele>210.0</ele><time>2026-03-29T07:19:23Z</time></trkpt><trkpt lat="45.52160353661992" lon="10.49112637247143"><ele>211.66666666666669</ele><time>2026-03-29T07:19:24Z</time></trkpt><trkpt lat="45.52151015445317" lon="10.49088602487156"><ele>213.33333333333334</ele><time>2026-03-29T07:19:25Z</time></trkpt><trkpt lat="45.52140539128478" lon="10.49062877627448"><ele>215.0</ele><time>2026-03-29T07:19:26Z</time></trkpt><trkpt lat="45.52129439139041" lon="10.490349474835423"><ele>217.0</ele><time>2026-03-29T07:19:27Z</time></trkpt><trkpt lat="45.521179230710295" lon="10.490043845704434"><ele>219.0</ele><time>2026-03-29T07:19:28Z</time></trkpt><trkpt lat="45.52107888607016" lon="10.489781431600546"><ele>219.25</ele><time>2026-03-29T07:19:29Z</time></trkpt><trkpt lat="45.52099319846378" lon="10.489553573151616"><ele>219.5</ele><time>2026-03-29T07:19:30Z</time></trkpt><trkpt lat="45.52092411977104" lon="10.489373989360962"><ele>219.75</ele><time>2026-03-29T07:19:31Z</time></trkpt><trkpt lat="45.52087651377002" lon="10.489235354213491"><ele>220.0</ele><time>2026-03-29T07:19:32Z</time></trkpt><trkpt lat="45.520854346411966" lon="10.489142794820744"><ele>220.0</ele><time>2026-03-29T07:19:33Z</time></trkpt><trkpt lat="45.5208867825665" lon="10.489017324449517"><ele>220.0</ele><time>2026-03-29T07:19:35Z</time></trkpt><trkpt lat="45.520823755468534" lon="10.48896965304863"><ele>220.0</ele><time>2026-03-29T07:19:38Z</time></trkpt><trkpt lat="45.52069209060539" lon="10.488836259278402"><ele>220.0</ele><time>2026-03-29T07:19:39Z</time></trkpt><trkpt lat="45.52075330041599" lon="10.489313054871408"><ele>220.0</ele><time>2026-03-29T07:19:40Z</time></trkpt><trkpt lat="45.520818310418235" lon="10.489510876072197"><ele>220.0</ele><time>2026-03-29T07:19:42Z</time></trkpt><trkpt lat="45.52086049401408" lon="10.489603352356271"><ele>220.0</ele><time>2026-03-29T07:19:43Z</time></trkpt><trkpt lat="45.52090920825723" lon="10.489699970969301"><ele>220.0</ele><time>2026-03-29T07:19:44Z</time></trkpt><trkpt lat="45.52096265408243" lon="10.489809135126437"><ele>220.0</ele><time>2026-03-29T07:19:45Z</time></trkpt><trkpt lat="45.52107625096534" lon="10.489832902564972"><ele>219.8</ele><time>2026-03-29T07:19:46Z</time></trkpt><trkpt lat="45.52112290478675" lon="10.489952724350811"><ele>219.6</ele><time>2026-03-29T07:19:47Z</time></trkpt><trkpt lat="45.52116174138277" lon="10.490052471825294"><ele>219.39999999999998</ele><time>2026-03-29T07:19:48Z</time></trkpt><trkpt lat="45.52122543610892" lon="10.490215614205365"><ele>219.2</ele><time>2026-03-29T07:19:50Z</time></trkpt><trkpt lat="45.52127347138003" lon="10.49030412055566"><ele>219.0</ele><time>2026-03-29T07:19:51Z</time></trkpt><trkpt lat="45.5213236495073" lon="10.490386262306938"><ele>218.0</ele><time>2026-03-29T07:19:52Z</time></trkpt><trkpt lat="45.52137923461184" lon="10.490471592177837"><ele>217.0</ele><time>2026-03-29T07:19:53Z</time></trkpt><trkpt lat="45.52197082149579" lon="10.490127032053632"><ele>217.0</ele><time>2026-03-29T07:19:54Z</time></trkpt><trkpt lat="45.52205939216818" lon="10.490185436902447"><ele>217.0</ele><time>2026-03-29T07:19:55Z</time></trkpt><trkpt lat="45.52214828512749" lon="10.490264006856204"><ele>217.0</ele><time>2026-03-29T07:19:56Z</time></trkpt><trkpt lat="45.522230417327165" lon="10.490343948838357"><ele>217.0</ele><time>2026-03-29T07:19:57Z</time></trkpt><trkpt lat="45.522316854613166" lon="10.490393036328935"><ele>217.0</ele><time>2026-03-29T07:19:58Z</time></trkpt><trkpt lat="45.52241135595136" lon="10.49040671145977"><ele>217.0</ele><time>2026-03-29T07:19:59Z</time></trkpt><trkpt lat="45.52251001997193" lon="10.490415330412693"><ele>217.0</ele><time>2026-03-29T07:20:00Z</time></trkpt><trkpt lat="45.52261141608896" lon="10.490433879801131"><ele>217.0</ele><time>2026-03-29T07:20:01Z</time></trkpt><trkpt lat="45.52268242575771" lon="10.490474211679441"><ele>217.0</ele><time>2026-03-29T07:20:02Z</time></trkpt><trkpt lat="45.52275651399329" lon="10.490493829068727"><ele>217.0</ele><time>2026-03-29T07:20:04Z</time></trkpt><trkpt lat="45.522856838442635" lon="10.490381059981708"><ele>217.75</ele><time>2026-03-29T07:20:06Z</time></trkpt><trkpt lat="45.52288780509445" lon="10.490261354050494"><ele>218.5</ele><time>2026-03-29T07:20:07Z</time></trkpt><trkpt lat="45.52292057841156" lon="10.490101065407732"><ele>219.25</ele><time>2026-03-29T07:20:08Z</time></trkpt><trkpt lat="45.52298383571173" lon="10.48992236109354"><ele>220.0</ele><time>2026-03-29T07:20:09Z</time></trkpt><trkpt lat="45.52304638821471" lon="10.489725597467285"><ele>222.66666666666666</ele><time>2026-03-29T07:20:10Z</time></trkpt><trkpt lat="45.52310982640896" lon="10.489530599508818"><ele>225.33333333333331</ele><time>2026-03-29T07:20:11Z</time></trkpt><trkpt lat="45.52317448130959" lon="10.48932524510652"><ele>228.0</ele><time>2026-03-29T07:20:12Z</time></trkpt><trkpt lat="45.523228926705485" lon="10.489101993191792"><ele>228.0</ele><time>2026-03-29T07:20:13Z</time></trkpt><trkpt lat="45.52326959893135" lon="10.488927768398414"><ele>228.0</ele><time>2026-03-29T07:20:14Z</time></trkpt><trkpt lat="45.523315972064225" lon="10.488798859335608"><ele>228.0</ele><time>2026-03-29T07:20:15Z</time></trkpt><trkpt lat="45.523359197408986" lon="10.488712167723868"><ele>228.0</ele><time>2026-03-29T07:20:16Z</time></trkpt><trkpt lat="45.523441117885845" lon="10.488640313167561"><ele>228.0</ele><time>2026-03-29T07:20:18Z</time></trkpt><trkpt lat="45.52351739602355" lon="10.488595852309015"><ele>228.0</ele><time>2026-03-29T07:20:19Z</time></trkpt><trkpt lat="45.523628581422365" lon="10.48854069325831"><ele>228.0</ele><time>2026-03-29T07:20:20Z</time></trkpt><trkpt lat="45.52373498795934" lon="10.488508059255622"><ele>228.0</ele><time>2026-03-29T07:20:21Z</time></trkpt><trkpt lat="45.52384525039444" lon="10.4884889483921"><ele>228.0</ele><time>2026-03-29T07:20:22Z</time></trkpt><trkpt lat="45.52397385141316" lon="10.488458421008371"><ele>229.2</ele><time>2026-03-29T07:20:23Z</time></trkpt><trkpt lat="45.52412169981675" lon="10.488438379983315"><ele>230.4</ele><time>2026-03-29T07:20:24Z</time></trkpt><trkpt lat="45.524248623778114" lon="10.488433080464556"><ele>231.59999999999997</ele><time>2026-03-29T07:20:25Z</time></trkpt><trkpt lat="45.52434815292891" lon="10.488431912265725"><ele>232.79999999999998</ele><time>2026-03-29T07:20:26Z</time></trkpt><trkpt lat="45.52441276156344" lon="10.488421270777156"><ele>234.0</ele><time>2026-03-29T07:20:27Z</time></trkpt><trkpt lat="45.524529438608575" lon="10.488530977092447"><ele>234.39999999999998</ele><time>2026-03-29T07:20:29Z</time></trkpt><trkpt lat="45.52462202290172" lon="10.488588952012533"><ele>234.79999999999998</ele><time>2026-03-29T07:20:30Z</time></trkpt><trkpt lat="45.52472411449186" lon="10.48861583738649"><ele>235.20000000000002</ele><time>2026-03-29T07:20:31Z</time></trkpt><trkpt lat="45.524826019342186" lon="10.48865044601463"><ele>235.60000000000002</ele><time>2026-03-29T07:20:32Z</time></trkpt><trkpt lat="45.52494747927572" lon="10.488680464852928"><ele>236.0</ele><time>2026-03-29T07:20:33Z</time></trkpt><trkpt lat="45.52508626946187" lon="10.488722616191179"><ele>237.0</ele><time>2026-03-29T07:20:34Z</time></trkpt><trkpt lat="45.525225508019375" lon="10.488768399637058"><ele>238.0</ele><time>2026-03-29T07:20:35Z</time></trkpt><trkpt lat="45.52533712141456" lon="10.48880709483978"><ele>239.0</ele><time>2026-03-29T07:20:36Z</time></trkpt><trkpt lat="45.52543785969436" lon="10.488809294447373"><ele>240.0</ele><time>2026-03-29T07:20:37Z</time></trkpt><trkpt lat="45.52556289182351" lon="10.488835245525994"><ele>240.0</ele><time>2026-03-29T07:20:38Z</time></trkpt><trkpt lat="45.52570227434848" lon="10.488855258202962"><ele>240.0</ele><time>2026-03-29T07:20:39Z</time></trkpt><trkpt lat="45.5258297861985" lon="10.488895545112246"><ele>240.0</ele><time>2026-03-29T07:20:40Z</time></trkpt><trkpt lat="45.52595062397831" lon="10.488883145700347"><ele>240.0</ele><time>2026-03-29T07:20:41Z</time></trkpt><trkpt lat="45.526060767028234" lon="10.48889129138085"><ele>240.0</ele><time>2026-03-29T07:20:42Z</time></trkpt><trkpt lat="45.526151846328" lon="10.488872702419513"><ele>240.0</ele><time>2026-03-29T07:20:43Z</time></trkpt><trkpt lat="45.52622391999812" lon="10.488850425613016"><ele>240.0</ele><time>2026-03-29T07:20:44Z</time></trkpt><trkpt lat="45.5263042443668" lon="10.488838412821567"><ele>240.0</ele><time>2026-03-29T07:20:45Z</time></trkpt><trkpt lat="45.526384730421135" lon="10.48880594055805"><ele>240.0</ele><time>2026-03-29T07:20:46Z</time></trkpt><trkpt lat="45.526458679494525" lon="10.488827180273827"><ele>240.0</ele><time>2026-03-29T07:20:47Z</time></trkpt><trkpt lat="45.52653140685647" lon="10.488841601831785"><ele>240.2</ele><time>2026-03-29T07:20:48Z</time></trkpt><trkpt lat="45.52666956746015" lon="10.488830619108397"><ele>240.4</ele><time>2026-03-29T07:20:50Z</time></trkpt><trkpt lat="45.52675242081711" lon="10.488831643183781"><ele>240.60000000000002</ele><time>2026-03-29T07:20:51Z</time></trkpt><trkpt lat="45.52681585004414" lon="10.488831502134705"><ele>240.8</ele><time>2026-03-29T07:20:52Z</time></trkpt><trkpt lat="45.52690725058286" lon="10.488910131524824"><ele>241.0</ele><time>2026-03-29T07:20:54Z</time></trkpt><trkpt lat="45.52700333263237" lon="10.488971281779541"><ele>241.4</ele><time>2026-03-29T07:20:56Z</time></trkpt><trkpt lat="45.52710156686765" lon="10.489039769929203"><ele>241.8</ele><time>2026-03-29T07:20:57Z</time></trkpt><trkpt lat="45.527173514656646" lon="10.489121760906315"><ele>242.20000000000002</ele><time>2026-03-29T07:20:58Z</time></trkpt><trkpt lat="45.527254054900546" lon="10.489132928020739"><ele>242.60000000000002</ele><time>2026-03-29T07:20:59Z</time></trkpt><trkpt lat="45.52733887535018" lon="10.489149504011547"><ele>243.0</ele><time>2026-03-29T07:21:00Z</time></trkpt><trkpt lat="45.52743838859939" lon="10.48915001850212"><ele>243.0</ele><time>2026-03-29T07:21:01Z</time></trkpt><trkpt lat="45.52754419293709" lon="10.489133280602829"><ele>243.0</ele><time>2026-03-29T07:21:02Z</time></trkpt><trkpt lat="45.52766822321332" lon="10.48912523980662"><ele>243.0</ele><time>2026-03-29T07:21:03Z</time></trkpt><trkpt lat="45.52779030307495" lon="10.489086333345849"><ele>243.0</ele><time>2026-03-29T07:21:04Z</time></trkpt><trkpt lat="45.5278883027802" lon="10.489069135106583"><ele>244.0</ele><time>2026-03-29T07:21:05Z</time></trkpt><trkpt lat="45.527962578607706" lon="10.489088592919705"><ele>245.0</ele><time>2026-03-29T07:21:06Z</time></trkpt><trkpt lat="45.52802533159492" lon="10.489073619640815"><ele>246.0</ele><time>2026-03-29T07:21:07Z</time></trkpt><trkpt lat="45.528090948836336" lon="10.489107858931986"><ele>247.0</ele><time>2026-03-29T07:21:08Z</time></trkpt><trkpt lat="45.52816435764063" lon="10.489168583910754"><ele>248.0</ele><time>2026-03-29T07:21:09Z</time></trkpt><trkpt lat="45.52822264927712" lon="10.48924589085273"><ele>249.0</ele><time>2026-03-29T07:21:10Z</time></trkpt><trkpt lat="45.52825820028994" lon="10.489399347139091"><ele>249.0</ele><time>2026-03-29T07:21:12Z</time></trkpt><trkpt lat="45.528244040812666" lon="10.489497910794073"><ele>248.99999999999997</ele><time>2026-03-29T07:21:13Z</time></trkpt><trkpt lat="45.528232194677464" lon="10.489598743256918"><ele>248.99999999999997</ele><time>2026-03-29T07:21:14Z</time></trkpt><trkpt lat="45.52825380558395" lon="10.489712656548786"><ele>249.0</ele><time>2026-03-29T07:21:16Z</time></trkpt><trkpt lat="45.52833899524979" lon="10.489727039509033"><ele>249.0</ele><time>2026-03-29T07:21:17Z</time></trkpt><trkpt lat="45.52847278435806" lon="10.489809235626312"><ele>249.79999999999998</ele><time>2026-03-29T07:21:19Z</time></trkpt><trkpt lat="45.52855682912605" lon="10.489853889855977"><ele>250.59999999999997</ele><time>2026-03-29T07:21:20Z</time></trkpt><trkpt lat="45.52866962855139" lon="10.489914868793363"><ele>251.4</ele><time>2026-03-29T07:21:21Z</time></trkpt><trkpt lat="45.528780837227494" lon="10.489974950739425"><ele>252.2</ele><time>2026-03-29T07:21:22Z</time></trkpt><trkpt lat="45.528891800593335" lon="10.490031981332464"><ele>253.0</ele><time>2026-03-29T07:21:23Z</time></trkpt><trkpt lat="45.52898334469379" lon="10.490070169383005"><ele>253.60000000000002</ele><time>2026-03-29T07:21:24Z</time></trkpt><trkpt lat="45.529069903419135" lon="10.490116072880058"><ele>254.20000000000002</ele><time>2026-03-29T07:21:25Z</time></trkpt><trkpt lat="45.529171908538274" lon="10.49015318977531"><ele>254.8</ele><time>2026-03-29T07:21:27Z</time></trkpt><trkpt lat="45.52928399909959" lon="10.490120658412078"><ele>255.4</ele><time>2026-03-29T07:21:29Z</time></trkpt><trkpt lat="45.52933787529612" lon="10.490023769462827"><ele>256.0</ele><time>2026-03-29T07:21:30Z</time></trkpt><trkpt lat="45.52943930952702" lon="10.489998901615587"><ele>256.0</ele><time>2026-03-29T07:21:32Z</time></trkpt><trkpt lat="45.529507601213155" lon="10.490031822119171"><ele>256.0</ele><time>2026-03-29T07:21:33Z</time></trkpt><trkpt lat="45.52958021411101" lon="10.490066031814884"><ele>256.0</ele><time>2026-03-29T07:21:34Z</time></trkpt><trkpt lat="45.52968358072288" lon="10.49013583670112"><ele>256.0</ele><time>2026-03-29T07:21:35Z</time></trkpt><trkpt lat="45.52977741601426" lon="10.49021373216302"><ele>256.0</ele><time>2026-03-29T07:21:36Z</time></trkpt><trkpt lat="45.529876173589365" lon="10.490313023806602"><ele>255.99999999999997</ele><time>2026-03-29T07:21:37Z</time></trkpt><trkpt lat="45.52997179420568" lon="10.49038781673402"><ele>256.0</ele><time>2026-03-29T07:21:38Z</time></trkpt><trkpt lat="45.5300267758681" lon="10.490453862785186"><ele>256.0</ele><time>2026-03-29T07:21:39Z</time></trkpt><trkpt lat="45.530081808279085" lon="10.49050892876973"><ele>256.0</ele><time>2026-03-29T07:21:40Z</time></trkpt><trkpt lat="45.5301312104134" lon="10.490579886396665"><ele>255.99999999999997</ele><time>2026-03-29T07:21:41Z</time></trkpt><trkpt lat="45.53018924412357" lon="10.490651421924351"><ele>256.0</ele><time>2026-03-29T07:21:42Z</time></trkpt><trkpt lat="45.53026460737657" lon="10.490741686692715"><ele>256.0</ele><time>2026-03-29T07:21:43Z</time></trkpt><trkpt lat="45.530317094709346" lon="10.490845532254498"><ele>256.0</ele><time>2026-03-29T07:21:44Z</time></trkpt><trkpt lat="45.53035882848632" lon="10.490973815312577"><ele>256.0</ele><time>2026-03-29T07:21:45Z</time></trkpt><trkpt lat="45.53039958145746" lon="10.491093066352514"><ele>256.0</ele><time>2026-03-29T07:21:46Z</time></trkpt><trkpt lat="45.5304496487832" lon="10.49118617453507"><ele>256.0</ele><time>2026-03-29T07:21:47Z</time></trkpt><trkpt lat="45.53052627994004" lon="10.491275643819156"><ele>255.8</ele><time>2026-03-29T07:21:48Z</time></trkpt><trkpt lat="45.530604972698846" lon="10.491366446611446"><ele>255.60000000000002</ele><time>2026-03-29T07:21:49Z</time></trkpt><trkpt lat="45.53067992513399" lon="10.491488640008148"><ele>255.4</ele><time>2026-03-29T07:21:50Z</time></trkpt><trkpt lat="45.53074339650753" lon="10.491606544632232"><ele>255.2</ele><time>2026-03-29T07:21:51Z</time></trkpt><trkpt lat="45.530805425279326" lon="10.49170607605694"><ele>255.0</ele><time>2026-03-29T07:21:52Z</time></trkpt><trkpt lat="45.530856877555564" lon="10.491806137913992"><ele>255.0</ele><time>2026-03-29T07:21:53Z</time></trkpt><trkpt lat="45.530896367342066" lon="10.491923649570511"><ele>255.0</ele><time>2026-03-29T07:21:54Z</time></trkpt><trkpt lat="45.53093023386667" lon="10.49202745582763"><ele>255.0</ele><time>2026-03-29T07:21:55Z</time></trkpt><trkpt lat="45.530955835575014" lon="10.49213291150517"><ele>255.0</ele><time>2026-03-29T07:21:56Z</time></trkpt><trkpt lat="45.530961559091146" lon="10.492250787294251"><ele>255.0</ele><time>2026-03-29T07:21:57Z</time></trkpt><trkpt lat="45.53096609340575" lon="10.492362842905655"><ele>255.0</ele><time>2026-03-29T07:21:58Z</time></trkpt><trkpt lat="45.53098186448225" lon="10.492467035460978"><ele>255.66666666666666</ele><time>2026-03-29T07:21:59Z</time></trkpt><trkpt lat="45.53101633455649" lon="10.492559308272444"><ele>256.3333333333333</ele><time>2026-03-29T07:22:00Z</time></trkpt><trkpt lat="45.53105363699739" lon="10.492662295636002"><ele>257.0</ele><time>2026-03-29T07:22:01Z</time></trkpt><trkpt lat="45.53111120497407" lon="10.492736309837305"><ele>257.66666666666663</ele><time>2026-03-29T07:22:02Z</time></trkpt><trkpt lat="45.53118248093744" lon="10.492807364110654"><ele>258.3333333333333</ele><time>2026-03-29T07:22:03Z</time></trkpt><trkpt lat="45.53125726568802" lon="10.492894141709249"><ele>259.0</ele><time>2026-03-29T07:22:04Z</time></trkpt><trkpt lat="45.53133904813955" lon="10.492940008731733"><ele>256.2</ele><time>2026-03-29T07:22:05Z</time></trkpt><trkpt lat="45.53141597283781" lon="10.493019644603685"><ele>253.39999999999998</ele><time>2026-03-29T07:22:06Z</time></trkpt><trkpt lat="45.531492448580124" lon="10.493123562773754"><ele>250.6</ele><time>2026-03-29T07:22:07Z</time></trkpt><trkpt lat="45.531593373193516" lon="10.493192325638425"><ele>247.8</ele><time>2026-03-29T07:22:08Z</time></trkpt><trkpt lat="45.53167871115561" lon="10.493297319776307"><ele>245.0</ele><time>2026-03-29T07:22:09Z</time></trkpt><trkpt lat="45.53176600578316" lon="10.493364860655452"><ele>245.00000000000003</ele><time>2026-03-29T07:22:10Z</time></trkpt><trkpt lat="45.53185942899417" lon="10.493418894477696"><ele>245.0</ele><time>2026-03-29T07:22:11Z</time></trkpt><trkpt lat="45.53194634287803" lon="10.493451322095995"><ele>245.0</ele><time>2026-03-29T07:22:12Z</time></trkpt><trkpt lat="45.53202799518545" lon="10.493472415111306"><ele>245.0</ele><time>2026-03-29T07:22:13Z</time></trkpt><trkpt lat="45.53210296261453" lon="10.493523440813934"><ele>245.00000000000003</ele><time>2026-03-29T07:22:14Z</time></trkpt><trkpt lat="45.53217856934086" lon="10.493579464527146"><ele>245.0</ele><time>2026-03-29T07:22:15Z</time></trkpt><trkpt lat="45.53223643868894" lon="10.49364392130846"><ele>245.0</ele><time>2026-03-29T07:22:16Z</time></trkpt><trkpt lat="45.53228983452259" lon="10.493721789904777"><ele>245.0</ele><time>2026-03-29T07:22:17Z</time></trkpt><trkpt lat="45.53235485526515" lon="10.493808861657373"><ele>245.0</ele><time>2026-03-29T07:22:18Z</time></trkpt><trkpt lat="45.53244284432267" lon="10.493869472781784"><ele>245.0</ele><time>2026-03-29T07:22:19Z</time></trkpt><trkpt lat="45.53252935033547" lon="10.493934241742387"><ele>245.0</ele><time>2026-03-29T07:22:20Z</time></trkpt><trkpt lat="45.53261981822484" lon="10.493986922323234"><ele>245.0</ele><time>2026-03-29T07:22:21Z</time></trkpt><trkpt lat="45.53270454590501" lon="10.494064017698129"><ele>245.0</ele><time>2026-03-29T07:22:22Z</time></trkpt><trkpt lat="45.532781188771274" lon="10.494096726364534"><ele>245.0</ele><time>2026-03-29T07:22:23Z</time></trkpt><trkpt lat="45.53284845653794" lon="10.494115112966323"><ele>245.0</ele><time>2026-03-29T07:22:24Z</time></trkpt><trkpt lat="45.53294622904232" lon="10.494091272575636"><ele>245.0</ele><time>2026-03-29T07:22:25Z</time></trkpt><trkpt lat="45.53305243965672" lon="10.494085837044075"><ele>244.8</ele><time>2026-03-29T07:22:26Z</time></trkpt><trkpt lat="45.533127460491045" lon="10.494078529322694"><ele>244.6</ele><time>2026-03-29T07:22:27Z</time></trkpt><trkpt lat="45.5332125564152" lon="10.494224964899844"><ele>244.39999999999998</ele><time>2026-03-29T07:22:29Z</time></trkpt><trkpt lat="45.533290766684615" lon="10.494329070077072"><ele>244.2</ele><time>2026-03-29T07:22:30Z</time></trkpt><trkpt lat="45.53338333547412" lon="10.494399702514638"><ele>244.0</ele><time>2026-03-29T07:22:31Z</time></trkpt><trkpt lat="45.53345860891321" lon="10.494460745915095"><ele>244.0</ele><time>2026-03-29T07:22:32Z</time></trkpt><trkpt lat="45.53354757101395" lon="10.494510661992415"><ele>243.99999999999997</ele><time>2026-03-29T07:22:33Z</time></trkpt><trkpt lat="45.53364928722546" lon="10.494559882496931"><ele>243.99999999999997</ele><time>2026-03-29T07:22:34Z</time></trkpt><trkpt lat="45.53377062959346" lon="10.494559048424534"><ele>244.0</ele><time>2026-03-29T07:22:35Z</time></trkpt><trkpt lat="45.53387733127347" lon="10.494611592872662"><ele>244.0</ele><time>2026-03-29T07:22:36Z</time></trkpt><trkpt lat="45.53395795715126" lon="10.494640159519212"><ele>242.39999999999998</ele><time>2026-03-29T07:22:37Z</time></trkpt><trkpt lat="45.534042828308834" lon="10.494672477061975"><ele>240.79999999999998</ele><time>2026-03-29T07:22:38Z</time></trkpt><trkpt lat="45.534140985598356" lon="10.494711214989925"><ele>239.20000000000002</ele><time>2026-03-29T07:22:39Z</time></trkpt><trkpt lat="45.534248132688546" lon="10.494754134373803"><ele>237.60000000000002</ele><time>2026-03-29T07:22:40Z</time></trkpt><trkpt lat="45.534355107736594" lon="10.49478208643936"><ele>236.0</ele><time>2026-03-29T07:22:41Z</time></trkpt><trkpt lat="45.53444331284202" lon="10.49482246522383"><ele>236.0</ele><time>2026-03-29T07:22:42Z</time></trkpt><trkpt lat="45.534502100847476" lon="10.494866353308952"><ele>236.00000000000003</ele><time>2026-03-29T07:22:43Z</time></trkpt><trkpt lat="45.53456563090348" lon="10.494896842824016"><ele>236.00000000000003</ele><time>2026-03-29T07:22:44Z</time></trkpt><trkpt lat="45.53464672373924" lon="10.494935761111503"><ele>236.0</ele><time>2026-03-29T07:22:45Z</time></trkpt><trkpt lat="45.5347689325861" lon="10.49497418475336"><ele>236.0</ele><time>2026-03-29T07:22:46Z</time></trkpt><trkpt lat="45.53487345791172" lon="10.495043333807361"><ele>235.75</ele><time>2026-03-29T07:22:47Z</time></trkpt><trkpt lat="45.53497360533938" lon="10.495092590295837"><ele>235.5</ele><time>2026-03-29T07:22:48Z</time></trkpt><trkpt lat="45.53507061593412" lon="10.495131420669912"><ele>235.25</ele><time>2026-03-29T07:22:49Z</time></trkpt><trkpt lat="45.535190237155646" lon="10.495148860333453"><ele>235.0</ele><time>2026-03-29T07:22:50Z</time></trkpt><trkpt lat="45.53531684518768" lon="10.495162951780229"><ele>234.83333333333331</ele><time>2026-03-29T07:22:51Z</time></trkpt><trkpt lat="45.535418187932876" lon="10.495181116042263"><ele>234.66666666666666</ele><time>2026-03-29T07:22:52Z</time></trkpt><trkpt lat="45.53550870724433" lon="10.495185060227701"><ele>234.5</ele><time>2026-03-29T07:22:53Z</time></trkpt><trkpt lat="45.535584553470585" lon="10.495198145031454"><ele>234.33333333333331</ele><time>2026-03-29T07:22:54Z</time></trkpt><trkpt lat="45.53566519073989" lon="10.495243671761473"><ele>234.16666666666666</ele><time>2026-03-29T07:22:55Z</time></trkpt><trkpt lat="45.53574278026572" lon="10.495300748166388"><ele>234.0</ele><time>2026-03-29T07:22:56Z</time></trkpt><trkpt lat="45.53583652864966" lon="10.495374312272997"><ele>235.0</ele><time>2026-03-29T07:22:57Z</time></trkpt><trkpt lat="45.535948605906555" lon="10.495454593416618"><ele>236.0</ele><time>2026-03-29T07:22:58Z</time></trkpt><trkpt lat="45.53605463459211" lon="10.495562231566396"><ele>237.0</ele><time>2026-03-29T07:22:59Z</time></trkpt><trkpt lat="45.536151048807874" lon="10.495663656331072"><ele>238.0</ele><time>2026-03-29T07:23:00Z</time></trkpt><trkpt lat="45.536241443338845" lon="10.495756233859414"><ele>238.0</ele><time>2026-03-29T07:23:01Z</time></trkpt><trkpt lat="45.53631135904278" lon="10.495826644606732"><ele>238.0</ele><time>2026-03-29T07:23:02Z</time></trkpt><trkpt lat="45.53637323403437" lon="10.49593608093436"><ele>238.0</ele><time>2026-03-29T07:23:03Z</time></trkpt><trkpt lat="45.5364343020664" lon="10.496072358539827"><ele>238.0</ele><time>2026-03-29T07:23:04Z</time></trkpt><trkpt lat="45.53648076456438" lon="10.49617406662999"><ele>238.0</ele><time>2026-03-29T07:23:05Z</time></trkpt><trkpt lat="45.536596114167935" lon="10.496277844508844"><ele>236.2</ele><time>2026-03-29T07:23:07Z</time></trkpt><trkpt lat="45.53668306777878" lon="10.496317193896427"><ele>234.4</ele><time>2026-03-29T07:23:08Z</time></trkpt><trkpt lat="45.53677201343979" lon="10.496331701846435"><ele>232.59999999999997</ele><time>2026-03-29T07:23:09Z</time></trkpt><trkpt lat="45.53685992590585" lon="10.496325474286802"><ele>230.79999999999998</ele><time>2026-03-29T07:23:10Z</time></trkpt><trkpt lat="45.53694120607179" lon="10.49633940840765"><ele>229.0</ele><time>2026-03-29T07:23:11Z</time></trkpt><trkpt lat="45.53704440773462" lon="10.496386506554371"><ele>231.0</ele><time>2026-03-29T07:23:12Z</time></trkpt><trkpt lat="45.53718117517842" lon="10.496430883526253"><ele>233.0</ele><time>2026-03-29T07:23:13Z</time></trkpt><trkpt lat="45.53734574007726" lon="10.496445154296222"><ele>235.0</ele><time>2026-03-29T07:23:14Z</time></trkpt><trkpt lat="45.537519977434066" lon="10.49640812132659"><ele>235.0</ele><time>2026-03-29T07:23:15Z</time></trkpt><trkpt lat="45.53771658667122" lon="10.496335307378628"><ele>235.0</ele><time>2026-03-29T07:23:16Z</time></trkpt><trkpt lat="45.53793956098223" lon="10.496288355904822"><ele>235.0</ele><time>2026-03-29T07:23:17Z</time></trkpt><trkpt lat="45.538123188691294" lon="10.496233601685569"><ele>236.0</ele><time>2026-03-29T07:23:18Z</time></trkpt><trkpt lat="45.53827641874212" lon="10.49616374079315"><ele>237.0</ele><time>2026-03-29T07:23:19Z</time></trkpt><trkpt lat="45.5384218965209" lon="10.496131704132843"><ele>238.0</ele><time>2026-03-29T07:23:20Z</time></trkpt><trkpt lat="45.53857051243366" lon="10.496102557006365"><ele>237.66666666666666</ele><time>2026-03-29T07:23:21Z</time></trkpt><trkpt lat="45.53872985316114" lon="10.496108530977086"><ele>237.33333333333331</ele><time>2026-03-29T07:23:22Z</time></trkpt><trkpt lat="45.53889028455096" lon="10.496103067642501"><ele>237.0</ele><time>2026-03-29T07:23:23Z</time></trkpt><trkpt lat="45.53904183272268" lon="10.496091300443279"><ele>237.0</ele><time>2026-03-29T07:23:24Z</time></trkpt><trkpt lat="45.53918832206536" lon="10.49606957292289"><ele>237.0</ele><time>2026-03-29T07:23:25Z</time></trkpt><trkpt lat="45.539329125925065" lon="10.496022984986894"><ele>237.0</ele><time>2026-03-29T07:23:26Z</time></trkpt><trkpt lat="45.53948594920053" lon="10.495964394053711"><ele>238.33333333333331</ele><time>2026-03-29T07:23:27Z</time></trkpt><trkpt lat="45.539669312519855" lon="10.495877806858287"><ele>239.66666666666666</ele><time>2026-03-29T07:23:28Z</time></trkpt><trkpt lat="45.539866826480605" lon="10.495813926074677"><ele>241.0</ele><time>2026-03-29T07:23:29Z</time></trkpt><trkpt lat="45.54004220566124" lon="10.49574999146288"><ele>241.0</ele><time>2026-03-29T07:23:30Z</time></trkpt><trkpt lat="45.54017987925649" lon="10.495725791949948"><ele>241.0</ele><time>2026-03-29T07:23:31Z</time></trkpt><trkpt lat="45.540290790978155" lon="10.495731184584471"><ele>241.0</ele><time>2026-03-29T07:23:32Z</time></trkpt><trkpt lat="45.54039615046142" lon="10.49574146977201"><ele>241.0</ele><time>2026-03-29T07:23:33Z</time></trkpt><trkpt lat="45.54052143324033" lon="10.495755030400936"><ele>241.25</ele><time>2026-03-29T07:23:34Z</time></trkpt><trkpt lat="45.54064703625218" lon="10.495749752876337"><ele>241.5</ele><time>2026-03-29T07:23:35Z</time></trkpt><trkpt lat="45.54076085251292" lon="10.49575299100129"><ele>241.75</ele><time>2026-03-29T07:23:36Z</time></trkpt><trkpt lat="45.5408636963377" lon="10.495762486894387"><ele>242.0</ele><time>2026-03-29T07:23:37Z</time></trkpt><trkpt lat="45.54097173737007" lon="10.495776952422343"><ele>242.0</ele><time>2026-03-29T07:23:38Z</time></trkpt><trkpt lat="45.54107447638906" lon="10.49579722332907"><ele>242.0</ele><time>2026-03-29T07:23:39Z</time></trkpt><trkpt lat="45.54117937527253" lon="10.495818902552095"><ele>242.0</ele><time>2026-03-29T07:23:40Z</time></trkpt><trkpt lat="45.54129368871555" lon="10.4958416106238"><ele>242.0</ele><time>2026-03-29T07:23:41Z</time></trkpt><trkpt lat="45.54141680302625" lon="10.49585967062487"><ele>242.0</ele><time>2026-03-29T07:23:42Z</time></trkpt><trkpt lat="45.54153247546714" lon="10.49585683620429"><ele>242.0</ele><time>2026-03-29T07:23:43Z</time></trkpt><trkpt lat="45.54161821756769" lon="10.495903255384814"><ele>242.0</ele><time>2026-03-29T07:23:44Z</time></trkpt><trkpt lat="45.54168779378912" lon="10.49597140722716"><ele>242.0</ele><time>2026-03-29T07:23:45Z</time></trkpt><trkpt lat="45.54173384434647" lon="10.496075752525318"><ele>242.0</ele><time>2026-03-29T07:23:46Z</time></trkpt><trkpt lat="45.54175634580706" lon="10.49620883964654"><ele>242.0</ele><time>2026-03-29T07:23:47Z</time></trkpt><trkpt lat="45.541798006065434" lon="10.496345121964332"><ele>241.25</ele><time>2026-03-29T07:23:48Z</time></trkpt><trkpt lat="45.5418751227558" lon="10.496440137445944"><ele>240.5</ele><time>2026-03-29T07:23:49Z</time></trkpt><trkpt lat="45.54198024893628" lon="10.496486858355143"><ele>239.75</ele><time>2026-03-29T07:23:50Z</time></trkpt><trkpt lat="45.5421188822835" lon="10.49650771739752"><ele>239.0</ele><time>2026-03-29T07:23:51Z</time></trkpt><trkpt lat="45.542302350442505" lon="10.496541350681014"><ele>239.0</ele><time>2026-03-29T07:23:52Z</time></trkpt><trkpt lat="45.54251034490768" lon="10.49661268320902"><ele>239.0</ele><time>2026-03-29T07:23:53Z</time></trkpt><trkpt lat="45.54272023842658" lon="10.496626500917275"><ele>239.0</ele><time>2026-03-29T07:23:54Z</time></trkpt><trkpt lat="45.54292348194895" lon="10.496657480884592"><ele>240.66666666666669</ele><time>2026-03-29T07:23:55Z</time></trkpt><trkpt lat="45.54311800230732" lon="10.496632664134776"><ele>242.33333333333331</ele><time>2026-03-29T07:23:56Z</time></trkpt><trkpt lat="45.54331663968112" lon="10.496628439031637"><ele>244.0</ele><time>2026-03-29T07:23:57Z</time></trkpt><trkpt lat="45.543516133684356" lon="10.49663059790053"><ele>243.66666666666666</ele><time>2026-03-29T07:23:58Z</time></trkpt><trkpt lat="45.54372128938299" lon="10.496647660977326"><ele>243.33333333333331</ele><time>2026-03-29T07:23:59Z</time></trkpt><trkpt lat="45.54393475443315" lon="10.496678705349547"><ele>243.0</ele><time>2026-03-29T07:24:00Z</time></trkpt><trkpt lat="45.54416081010135" lon="10.496725273625385"><ele>243.0</ele><time>2026-03-29T07:24:01Z</time></trkpt><trkpt lat="45.54438117629964" lon="10.496826334302279"><ele>243.0</ele><time>2026-03-29T07:24:02Z</time></trkpt><trkpt lat="45.54458735411335" lon="10.496911340235565"><ele>243.0</ele><time>2026-03-29T07:24:03Z</time></trkpt><trkpt lat="45.54477086400642" lon="10.496972116703908"><ele>243.5</ele><time>2026-03-29T07:24:04Z</time></trkpt><trkpt lat="45.54493217200847" lon="10.497043366239664"><ele>244.0</ele><time>2026-03-29T07:24:05Z</time></trkpt><trkpt lat="45.54506679177801" lon="10.497096431005238"><ele>244.5</ele><time>2026-03-29T07:24:06Z</time></trkpt><trkpt lat="45.5451814191728" lon="10.497143320363794"><ele>245.0</ele><time>2026-03-29T07:24:07Z</time></trkpt><trkpt lat="45.545299750914836" lon="10.497212003879088"><ele>247.5</ele><time>2026-03-29T07:24:08Z</time></trkpt><trkpt lat="45.545412543038395" lon="10.497324832112396"><ele>250.0</ele><time>2026-03-29T07:24:09Z</time></trkpt><trkpt lat="45.545531312177836" lon="10.497433678880794"><ele>252.5</ele><time>2026-03-29T07:24:10Z</time></trkpt><trkpt lat="45.54562586363579" lon="10.497578240807995"><ele>255.0</ele><time>2026-03-29T07:24:11Z</time></trkpt><trkpt lat="45.5457123339549" lon="10.49773361741877"><ele>255.0</ele><time>2026-03-29T07:24:12Z</time></trkpt><trkpt lat="45.54580293495231" lon="10.49787781804167"><ele>255.0</ele><time>2026-03-29T07:24:13Z</time></trkpt><trkpt lat="45.54589595135841" lon="10.49801404286163"><ele>255.0</ele><time>2026-03-29T07:24:14Z</time></trkpt><trkpt lat="45.545978617877026" lon="10.49812805473334"><ele>255.0</ele><time>2026-03-29T07:24:15Z</time></trkpt><trkpt lat="45.54602907222174" lon="10.498202207697597"><ele>255.0</ele><time>2026-03-29T07:24:16Z</time></trkpt><trkpt lat="45.54609537955167" lon="10.498243611647899"><ele>255.0</ele><time>2026-03-29T07:24:18Z</time></trkpt><trkpt lat="45.546094765314976" lon="10.498005914534764"><ele>255.0</ele><time>2026-03-29T07:24:25Z</time></trkpt><trkpt lat="45.54602773839588" lon="10.49785942087338"><ele>255.0</ele><time>2026-03-29T07:24:26Z</time></trkpt><trkpt lat="45.545986312165574" lon="10.497689179659785"><ele>255.0</ele><time>2026-03-29T07:24:27Z</time></trkpt><trkpt lat="45.5459207497833" lon="10.497500588098882"><ele>255.0</ele><time>2026-03-29T07:24:28Z</time></trkpt><trkpt lat="45.54584720831252" lon="10.497292040482838"><ele>255.0</ele><time>2026-03-29T07:24:29Z</time></trkpt><trkpt lat="45.545772888426406" lon="10.497085543993856"><ele>255.5</ele><time>2026-03-29T07:24:30Z</time></trkpt><trkpt lat="45.54570624133449" lon="10.496900366461508"><ele>256.0</ele><time>2026-03-29T07:24:31Z</time></trkpt><trkpt lat="45.54565322208828" lon="10.496742532764632"><ele>256.5</ele><time>2026-03-29T07:24:32Z</time></trkpt><trkpt lat="45.545587435014696" lon="10.496562750252146"><ele>257.0</ele><time>2026-03-29T07:24:33Z</time></trkpt><trkpt lat="45.54556491876071" lon="10.496351106963946"><ele>257.0</ele><time>2026-03-29T07:24:34Z</time></trkpt><trkpt lat="45.545554140573124" lon="10.496197984391147"><ele>257.0</ele><time>2026-03-29T07:24:35Z</time></trkpt><trkpt lat="45.545550637211946" lon="10.496076737038514"><ele>257.0</ele><time>2026-03-29T07:24:37Z</time></trkpt><trkpt lat="45.54555496662042" lon="10.496184347893678"><ele>257.0</ele><time>2026-03-29T07:24:41Z</time></trkpt><trkpt lat="45.545500279784704" lon="10.496418446725624"><ele>257.0</ele><time>2026-03-29T07:24:42Z</time></trkpt><trkpt lat="45.54558878819094" lon="10.496467060708465"><ele>257.0</ele><time>2026-03-29T07:24:44Z</time></trkpt><trkpt lat="45.5456478043524" lon="10.496418700867293"><ele>257.0</ele><time>2026-03-29T07:24:46Z</time></trkpt><trkpt lat="45.54575259725638" lon="10.496434788329566"><ele>257.0</ele><time>2026-03-29T07:24:48Z</time></trkpt><trkpt lat="45.54586060679739" lon="10.49643876077974"><ele>257.0</ele><time>2026-03-29T07:24:50Z</time></trkpt><trkpt lat="45.5459738534153" lon="10.496441417295626"><ele>257.0</ele><time>2026-03-29T07:24:52Z</time></trkpt><trkpt lat="45.54603921775227" lon="10.496443073339485"><ele>257.0</ele><time>2026-03-29T07:24:54Z</time></trkpt><trkpt lat="45.546153054798495" lon="10.496454326174774"><ele>257.0</ele><time>2026-03-29T07:24:57Z</time></trkpt><trkpt lat="45.54625356675834" lon="10.496462330419433"><ele>257.0</ele><time>2026-03-29T07:24:59Z</time></trkpt><trkpt lat="45.54638237346452" lon="10.496442256459385"><ele>257.0</ele><time>2026-03-29T07:25:01Z</time></trkpt><trkpt lat="45.54644868290361" lon="10.496415147459347"><ele>257.0</ele><time>2026-03-29T07:25:03Z</time></trkpt><trkpt lat="45.54651374550975" lon="10.496356491188497"><ele>256.8</ele><time>2026-03-29T07:25:05Z</time></trkpt><trkpt lat="45.54663656727668" lon="10.49625661886145"><ele>256.6</ele><time>2026-03-29T07:25:07Z</time></trkpt><trkpt lat="45.54670692941311" lon="10.496164714915249"><ele>256.40000000000003</ele><time>2026-03-29T07:25:08Z</time></trkpt><trkpt lat="45.546767955797364" lon="10.496060136315435"><ele>256.2</ele><time>2026-03-29T07:25:09Z</time></trkpt><trkpt lat="45.54682287500893" lon="10.49594710733175"><ele>256.0</ele><time>2026-03-29T07:25:10Z</time></trkpt><trkpt lat="45.54686703677708" lon="10.495831113372285"><ele>256.0</ele><time>2026-03-29T07:25:11Z</time></trkpt><trkpt lat="45.54689484648625" lon="10.495714121677004"><ele>256.0</ele><time>2026-03-29T07:25:12Z</time></trkpt><trkpt lat="45.54691333891178" lon="10.495582108057512"><ele>256.0</ele><time>2026-03-29T07:25:13Z</time></trkpt><trkpt lat="45.54692044055207" lon="10.495469604884725"><ele>256.0</ele><time>2026-03-29T07:25:14Z</time></trkpt><trkpt lat="45.54689832434356" lon="10.495371665882876"><ele>256.0</ele><time>2026-03-29T07:25:15Z</time></trkpt><trkpt lat="45.546803935285745" lon="10.495200069142316"><ele>255.60000000000002</ele><time>2026-03-29T07:25:17Z</time></trkpt><trkpt lat="45.54673959012218" lon="10.495090172982103"><ele>255.20000000000002</ele><time>2026-03-29T07:25:18Z</time></trkpt><trkpt lat="45.54666441356846" lon="10.494978675903905"><ele>254.79999999999998</ele><time>2026-03-29T07:25:19Z</time></trkpt><trkpt lat="45.54660734072886" lon="10.494877194292604"><ele>254.39999999999998</ele><time>2026-03-29T07:25:20Z</time></trkpt><trkpt lat="45.546572835986744" lon="10.494766785591644"><ele>254.0</ele><time>2026-03-29T07:25:21Z</time></trkpt><trkpt lat="45.546552395242564" lon="10.494658910894186"><ele>253.2</ele><time>2026-03-29T07:25:22Z</time></trkpt><trkpt lat="45.54655019595429" lon="10.494551681709494"><ele>252.39999999999998</ele><time>2026-03-29T07:25:23Z</time></trkpt><trkpt lat="45.546561736953315" lon="10.494455950613606"><ele>251.6</ele><time>2026-03-29T07:25:24Z</time></trkpt><trkpt lat="45.54658347316846" lon="10.494368419799596"><ele>250.8</ele><time>2026-03-29T07:25:25Z</time></trkpt><trkpt lat="45.54662101640668" lon="10.494222136160943"><ele>250.0</ele><time>2026-03-29T07:25:26Z</time></trkpt><trkpt lat="45.54667061128768" lon="10.494046412353367"><ele>250.0</ele><time>2026-03-29T07:25:27Z</time></trkpt><trkpt lat="45.5467173502003" lon="10.49388150742069"><ele>250.0</ele><time>2026-03-29T07:25:28Z</time></trkpt><trkpt lat="45.54676402271105" lon="10.493716837164499"><ele>250.0</ele><time>2026-03-29T07:25:29Z</time></trkpt><trkpt lat="45.5468095611758" lon="10.493574475111478"><ele>250.0</ele><time>2026-03-29T07:25:30Z</time></trkpt><trkpt lat="45.546861985814964" lon="10.493429163919405"><ele>250.0</ele><time>2026-03-29T07:25:31Z</time></trkpt><trkpt lat="45.54694070972788" lon="10.493286388168274"><ele>250.0</ele><time>2026-03-29T07:25:32Z</time></trkpt><trkpt lat="45.54703035595826" lon="10.493166674894272"><ele>250.0</ele><time>2026-03-29T07:25:33Z</time></trkpt><trkpt lat="45.547113964880744" lon="10.493047754557557"><ele>250.0</ele><time>2026-03-29T07:25:34Z</time></trkpt><trkpt lat="45.54717952000649" lon="10.492924532228512"><ele>250.33333333333331</ele><time>2026-03-29T07:25:35Z</time></trkpt><trkpt lat="45.54723448013762" lon="10.492801990691298"><ele>250.66666666666666</ele><time>2026-03-29T07:25:36Z</time></trkpt><trkpt lat="45.54728127379149" lon="10.492681798624758"><ele>251.0</ele><time>2026-03-29T07:25:37Z</time></trkpt><trkpt lat="45.54731870222959" lon="10.49257493128331"><ele>251.33333333333331</ele><time>2026-03-29T07:25:38Z</time></trkpt><trkpt lat="45.54734787079968" lon="10.492478496535947"><ele>251.66666666666666</ele><time>2026-03-29T07:25:39Z</time></trkpt><trkpt lat="45.54737214400048" lon="10.492384791582134"><ele>252.0</ele><time>2026-03-29T07:25:40Z</time></trkpt><trkpt lat="45.54739831200923" lon="10.492278143364102"><ele>252.0</ele><time>2026-03-29T07:25:41Z</time></trkpt><trkpt lat="45.54743164005351" lon="10.49212971237622"><ele>252.0</ele><time>2026-03-29T07:25:43Z</time></trkpt><trkpt lat="45.54745875120677" lon="10.492008969122097"><ele>252.0</ele><time>2026-03-29T07:25:45Z</time></trkpt><trkpt lat="45.54748851866153" lon="10.491880063389345"><ele>252.0</ele><time>2026-03-29T07:25:48Z</time></trkpt><trkpt lat="45.547509952365914" lon="10.491782857025838"><ele>252.0</ele><time>2026-03-29T07:25:51Z</time></trkpt><trkpt lat="45.54753667311854" lon="10.491652237992291"><ele>251.83333333333334</ele><time>2026-03-29T07:26:03Z</time></trkpt><trkpt lat="45.54755703000942" lon="10.491565673681034"><ele>251.66666666666669</ele><time>2026-03-29T07:26:04Z</time></trkpt><trkpt lat="45.5475843683098" lon="10.491477902259538"><ele>251.5</ele><time>2026-03-29T07:26:05Z</time></trkpt><trkpt lat="45.54763224631122" lon="10.491371877320026"><ele>251.33333333333334</ele><time>2026-03-29T07:26:06Z</time></trkpt><trkpt lat="45.547693273018915" lon="10.491267650833844"><ele>251.16666666666669</ele><time>2026-03-29T07:26:07Z</time></trkpt><trkpt lat="45.54775734022581" lon="10.491172194629035"><ele>251.0</ele><time>2026-03-29T07:26:08Z</time></trkpt><trkpt lat="45.547817109735895" lon="10.49108354391593"><ele>250.8</ele><time>2026-03-29T07:26:09Z</time></trkpt><trkpt lat="45.54788796864281" lon="10.490970999327722"><ele>250.60000000000002</ele><time>2026-03-29T07:26:10Z</time></trkpt><trkpt lat="45.547952311980794" lon="10.490860352847015"><ele>250.4</ele><time>2026-03-29T07:26:11Z</time></trkpt><trkpt lat="45.54800773320829" lon="10.490751339460562"><ele>250.2</ele><time>2026-03-29T07:26:12Z</time></trkpt><trkpt lat="45.54804573177643" lon="10.490649823003052"><ele>250.0</ele><time>2026-03-29T07:26:13Z</time></trkpt><trkpt lat="45.54808527116868" lon="10.49051698907565"><ele>250.0</ele><time>2026-03-29T07:26:14Z</time></trkpt><trkpt lat="45.548119015408574" lon="10.490374224815671"><ele>250.0</ele><time>2026-03-29T07:26:15Z</time></trkpt><trkpt lat="45.54814929920593" lon="10.490251322599432"><ele>250.0</ele><time>2026-03-29T07:26:16Z</time></trkpt><trkpt lat="45.54818145033119" lon="10.490140774837299"><ele>250.0</ele><time>2026-03-29T07:26:17Z</time></trkpt><trkpt lat="45.548215140237076" lon="10.490024936458852"><ele>250.0</ele><time>2026-03-29T07:26:18Z</time></trkpt><trkpt lat="45.548254839009594" lon="10.489899031072316"><ele>249.99999999999997</ele><time>2026-03-29T07:26:19Z</time></trkpt><trkpt lat="45.548306488443316" lon="10.489798306124724"><ele>250.0</ele><time>2026-03-29T07:26:20Z</time></trkpt><trkpt lat="45.54836743312628" lon="10.48970978487861"><ele>250.0</ele><time>2026-03-29T07:26:21Z</time></trkpt><trkpt lat="45.54842187969644" lon="10.489644536149846"><ele>250.0</ele><time>2026-03-29T07:26:22Z</time></trkpt><trkpt lat="45.548490725001" lon="10.489566054802944"><ele>249.99999999999997</ele><time>2026-03-29T07:26:23Z</time></trkpt><trkpt lat="45.54857627482159" lon="10.489470028418738"><ele>250.0</ele><time>2026-03-29T07:26:24Z</time></trkpt><trkpt lat="45.548662876817616" lon="10.48936598611609"><ele>250.0</ele><time>2026-03-29T07:26:25Z</time></trkpt><trkpt lat="45.54872227696593" lon="10.489292915567356"><ele>250.0</ele><time>2026-03-29T07:26:26Z</time></trkpt><trkpt lat="45.54877881852005" lon="10.489205318128716"><ele>250.0</ele><time>2026-03-29T07:26:27Z</time></trkpt><trkpt lat="45.548826983621765" lon="10.48909962086021"><ele>250.0</ele><time>2026-03-29T07:26:28Z</time></trkpt><trkpt lat="45.54886914152973" lon="10.488970681419298"><ele>250.0</ele><time>2026-03-29T07:26:29Z</time></trkpt><trkpt lat="45.54891268627409" lon="10.488814423617798"><ele>249.75</ele><time>2026-03-29T07:26:30Z</time></trkpt><trkpt lat="45.548960966227774" lon="10.48864198198514"><ele>249.5</ele><time>2026-03-29T07:26:31Z</time></trkpt><trkpt lat="45.54900949963731" lon="10.488468889724173"><ele>249.25</ele><time>2026-03-29T07:26:32Z</time></trkpt><trkpt lat="45.54904746032688" lon="10.488298260531074"><ele>249.0</ele><time>2026-03-29T07:26:33Z</time></trkpt><trkpt lat="45.549067825683174" lon="10.48815862755752"><ele>249.0</ele><time>2026-03-29T07:26:34Z</time></trkpt><trkpt lat="45.54908337112374" lon="10.488007912564846"><ele>248.99999999999997</ele><time>2026-03-29T07:26:35Z</time></trkpt><trkpt lat="45.549096276599116" lon="10.48786533796074"><ele>248.99999999999997</ele><time>2026-03-29T07:26:36Z</time></trkpt><trkpt lat="45.54911077522536" lon="10.487705162333386"><ele>249.0</ele><time>2026-03-29T07:26:37Z</time></trkpt><trkpt lat="45.54910988603354" lon="10.487536429791964"><ele>249.0</ele><time>2026-03-29T07:26:38Z</time></trkpt><trkpt lat="45.54912337178392" lon="10.487405688553112"><ele>249.0</ele><time>2026-03-29T07:26:39Z</time></trkpt><trkpt lat="45.549148993711405" lon="10.487262155197422"><ele>248.99999999999997</ele><time>2026-03-29T07:26:40Z</time></trkpt><trkpt lat="45.549151396781944" lon="10.487142394080399"><ele>248.99999999999997</ele><time>2026-03-29T07:26:41Z</time></trkpt><trkpt lat="45.549187799171996" lon="10.487000114437977"><ele>249.0</ele><time>2026-03-29T07:26:42Z</time></trkpt><trkpt lat="45.54923079720079" lon="10.486852002589304"><ele>249.0</ele><time>2026-03-29T07:26:43Z</time></trkpt><trkpt lat="45.54928318091581" lon="10.486725053460933"><ele>249.0</ele><time>2026-03-29T07:26:44Z</time></trkpt><trkpt lat="45.549345221071235" lon="10.486622339158025"><ele>248.99999999999997</ele><time>2026-03-29T07:26:45Z</time></trkpt><trkpt lat="45.54941877299901" lon="10.486526939792745"><ele>248.99999999999997</ele><time>2026-03-29T07:26:46Z</time></trkpt><trkpt lat="45.549498034195906" lon="10.4864298065566"><ele>249.0</ele><time>2026-03-29T07:26:47Z</time></trkpt><trkpt lat="45.54955837105129" lon="10.48636319514598"><ele>249.0</ele><time>2026-03-29T07:26:48Z</time></trkpt><trkpt lat="45.549646350299234" lon="10.486272690561517"><ele>249.0</ele><time>2026-03-29T07:26:50Z</time></trkpt><trkpt lat="45.549649856876044" lon="10.486085866174912"><ele>249.0</ele><time>2026-03-29T07:26:52Z</time></trkpt><trkpt lat="45.54957457438244" lon="10.485990384260163"><ele>249.0</ele><time>2026-03-29T07:26:53Z</time></trkpt><trkpt lat="45.549489358816395" lon="10.485876678221608"><ele>249.0</ele><time>2026-03-29T07:26:54Z</time></trkpt><trkpt lat="45.549417483391665" lon="10.485743357769074"><ele>250.39999999999998</ele><time>2026-03-29T07:26:55Z</time></trkpt><trkpt lat="45.54935982228982" lon="10.485645827635176"><ele>251.79999999999998</ele><time>2026-03-29T07:26:56Z</time></trkpt><trkpt lat="45.54930893014061" lon="10.485511114971601"><ele>253.20000000000002</ele><time>2026-03-29T07:26:58Z</time></trkpt><trkpt lat="45.549362717764836" lon="10.485412472151765"><ele>254.60000000000002</ele><time>2026-03-29T07:27:00Z</time></trkpt><trkpt lat="45.54943743143415" lon="10.485266754683234"><ele>256.0</ele><time>2026-03-29T07:27:02Z</time></trkpt><trkpt lat="45.54948276877671" lon="10.485196007808227"><ele>255.20000000000002</ele><time>2026-03-29T07:27:03Z</time></trkpt><trkpt lat="45.54955117594735" lon="10.485117659253069"><ele>254.40000000000003</ele><time>2026-03-29T07:27:05Z</time></trkpt><trkpt lat="45.54962085808962" lon="10.48504543531961"><ele>253.6</ele><time>2026-03-29T07:27:06Z</time></trkpt><trkpt lat="45.549724452213184" lon="10.484948437462023"><ele>252.8</ele><time>2026-03-29T07:27:07Z</time></trkpt><trkpt lat="45.5498228741634" lon="10.48486812806648"><ele>252.0</ele><time>2026-03-29T07:27:08Z</time></trkpt><trkpt lat="45.549922211268544" lon="10.484769712957304"><ele>252.0</ele><time>2026-03-29T07:27:09Z</time></trkpt><trkpt lat="45.5500236781777" lon="10.484633673467926"><ele>252.0</ele><time>2026-03-29T07:27:10Z</time></trkpt><trkpt lat="45.55012063866898" lon="10.484516378651852"><ele>252.0</ele><time>2026-03-29T07:27:11Z</time></trkpt><trkpt lat="45.55022967654897" lon="10.484427172392778"><ele>252.0</ele><time>2026-03-29T07:27:12Z</time></trkpt><trkpt lat="45.55034193996684" lon="10.484355519287742"><ele>253.0</ele><time>2026-03-29T07:27:13Z</time></trkpt><trkpt lat="45.550472401342155" lon="10.484280652184605"><ele>254.0</ele><time>2026-03-29T07:27:14Z</time></trkpt><trkpt lat="45.550598338202406" lon="10.48420837608161"><ele>255.0</ele><time>2026-03-29T07:27:15Z</time></trkpt><trkpt lat="45.55068610609466" lon="10.484156914015845"><ele>256.0</ele><time>2026-03-29T07:27:16Z</time></trkpt><trkpt lat="45.55074813818185" lon="10.484110443936233"><ele>257.0</ele><time>2026-03-29T07:27:17Z</time></trkpt><trkpt lat="45.5508120048151" lon="10.484112056153505"><ele>257.0</ele><time>2026-03-29T07:27:18Z</time></trkpt><trkpt lat="45.55090501336312" lon="10.484157579187883"><ele>257.0</ele><time>2026-03-29T07:27:19Z</time></trkpt><trkpt lat="45.551023065919104" lon="10.484258711525468"><ele>257.0</ele><time>2026-03-29T07:27:20Z</time></trkpt><trkpt lat="45.551152317741916" lon="10.484318918054354"><ele>257.0</ele><time>2026-03-29T07:27:21Z</time></trkpt><trkpt lat="45.551268818173256" lon="10.484358002504901"><ele>259.0</ele><time>2026-03-29T07:27:22Z</time></trkpt><trkpt lat="45.55140916597656" lon="10.484402331605322"><ele>261.0</ele><time>2026-03-29T07:27:23Z</time></trkpt><trkpt lat="45.55153406052812" lon="10.484462764262181"><ele>263.0</ele><time>2026-03-29T07:27:24Z</time></trkpt><trkpt lat="45.55165331253406" lon="10.484496712214492"><ele>265.0</ele><time>2026-03-29T07:27:25Z</time></trkpt><trkpt lat="45.55173802935695" lon="10.484529317663803"><ele>265.0</ele><time>2026-03-29T07:27:26Z</time></trkpt><trkpt lat="45.55183073270571" lon="10.484559948216189"><ele>265.0</ele><time>2026-03-29T07:27:27Z</time></trkpt><trkpt lat="45.55193156035625" lon="10.484630563814633"><ele>265.0</ele><time>2026-03-29T07:27:28Z</time></trkpt><trkpt lat="45.55204236531009" lon="10.484703512923424"><ele>265.0</ele><time>2026-03-29T07:27:29Z</time></trkpt><trkpt lat="45.55216101441939" lon="10.484779028840352"><ele>264.4</ele><time>2026-03-29T07:27:30Z</time></trkpt><trkpt lat="45.55228082351908" lon="10.484843616130691"><ele>263.8</ele><time>2026-03-29T07:27:31Z</time></trkpt><trkpt lat="45.5523766233404" lon="10.484908908505526"><ele>263.2</ele><time>2026-03-29T07:27:32Z</time></trkpt><trkpt lat="45.552457792892056" lon="10.484958404537533"><ele>262.6</ele><time>2026-03-29T07:27:33Z</time></trkpt><trkpt lat="45.552520201047095" lon="10.484971430011635"><ele>262.0</ele><time>2026-03-29T07:27:34Z</time></trkpt><trkpt lat="45.55263880289198" lon="10.484996627431697"><ele>262.0</ele><time>2026-03-29T07:27:36Z</time></trkpt><trkpt lat="45.55272198475532" lon="10.484942016739659"><ele>262.0</ele><time>2026-03-29T07:27:38Z</time></trkpt><trkpt lat="45.55277345646494" lon="10.484842630169275"><ele>262.0</ele><time>2026-03-29T07:27:40Z</time></trkpt><trkpt lat="45.552594167998414" lon="10.484646815406025"><ele>262.0</ele><time>2026-03-29T07:27:45Z</time></trkpt><trkpt lat="45.55252562570852" lon="10.484625544695175"><ele>262.0</ele><time>2026-03-29T07:27:46Z</time></trkpt><trkpt lat="45.5524573613696" lon="10.4846089204171"><ele>262.0</ele><time>2026-03-29T07:27:47Z</time></trkpt><trkpt lat="45.55238449132214" lon="10.48461485194567"><ele>262.0</ele><time>2026-03-29T07:27:48Z</time></trkpt><trkpt lat="45.55229989466951" lon="10.48454093485671"><ele>262.0</ele><time>2026-03-29T07:27:49Z</time></trkpt><trkpt lat="45.552241504147524" lon="10.48448384417725"><ele>262.0</ele><time>2026-03-29T07:27:50Z</time></trkpt><trkpt lat="45.55216569771297" lon="10.484383018216745"><ele>262.0</ele><time>2026-03-29T07:27:52Z</time></trkpt><trkpt lat="45.55210025913788" lon="10.484308866451766"><ele>262.6</ele><time>2026-03-29T07:27:53Z</time></trkpt><trkpt lat="45.55200313694386" lon="10.484219793247314"><ele>263.2</ele><time>2026-03-29T07:27:54Z</time></trkpt><trkpt lat="45.551927455808006" lon="10.484099003567538"><ele>263.8</ele><time>2026-03-29T07:27:55Z</time></trkpt><trkpt lat="45.55185053114163" lon="10.484002638507805"><ele>264.4</ele><time>2026-03-29T07:27:56Z</time></trkpt><trkpt lat="45.551798796410814" lon="10.483932998137071"><ele>265.0</ele><time>2026-03-29T07:27:57Z</time></trkpt><trkpt lat="45.55175440863351" lon="10.483867307108689"><ele>265.0</ele><time>2026-03-29T07:27:58Z</time></trkpt><trkpt lat="45.5517110631586" lon="10.483778553704333"><ele>265.0</ele><time>2026-03-29T07:27:59Z</time></trkpt><trkpt lat="45.55166504454242" lon="10.483644410234911"><ele>265.0</ele><time>2026-03-29T07:28:00Z</time></trkpt><trkpt lat="45.551615128501226" lon="10.483485097829371"><ele>265.0</ele><time>2026-03-29T07:28:01Z</time></trkpt><trkpt lat="45.551570535987274" lon="10.483366747256836"><ele>265.0</ele><time>2026-03-29T07:28:02Z</time></trkpt><trkpt lat="45.55150098065374" lon="10.483228494176998"><ele>266.5</ele><time>2026-03-29T07:28:03Z</time></trkpt><trkpt lat="45.55144391000307" lon="10.483022353130796"><ele>268.0</ele><time>2026-03-29T07:28:04Z</time></trkpt><trkpt lat="45.551417113221575" lon="10.482874089137237"><ele>269.5</ele><time>2026-03-29T07:28:05Z</time></trkpt><trkpt lat="45.55137488723995" lon="10.482719975673103"><ele>271.0</ele><time>2026-03-29T07:28:06Z</time></trkpt><trkpt lat="45.55132245956086" lon="10.48260919352175"><ele>271.5</ele><time>2026-03-29T07:28:07Z</time></trkpt><trkpt lat="45.55127600250817" lon="10.482500663972594"><ele>272.0</ele><time>2026-03-29T07:28:08Z</time></trkpt><trkpt lat="45.551208526061" lon="10.482378606065708"><ele>272.5</ele><time>2026-03-29T07:28:09Z</time></trkpt><trkpt lat="45.551123383908305" lon="10.482240236093352"><ele>273.0</ele><time>2026-03-29T07:28:10Z</time></trkpt><trkpt lat="45.55103022868846" lon="10.482101736446504"><ele>272.25</ele><time>2026-03-29T07:28:11Z</time></trkpt><trkpt lat="45.550918903769244" lon="10.481971192347524"><ele>271.5</ele><time>2026-03-29T07:28:12Z</time></trkpt><trkpt lat="45.55080059019733" lon="10.481851249284912"><ele>270.75</ele><time>2026-03-29T07:28:13Z</time></trkpt><trkpt lat="45.55068171834512" lon="10.481735329846058"><ele>270.0</ele><time>2026-03-29T07:28:14Z</time></trkpt><trkpt lat="45.55058218149882" lon="10.481612264253977"><ele>270.0</ele><time>2026-03-29T07:28:15Z</time></trkpt><trkpt lat="45.55049633676143" lon="10.48152698549356"><ele>270.0</ele><time>2026-03-29T07:28:16Z</time></trkpt><trkpt lat="45.55041163427597" lon="10.481443722485515"><ele>270.0</ele><time>2026-03-29T07:28:17Z</time></trkpt><trkpt lat="45.55031631298329" lon="10.481350021158669"><ele>270.0</ele><time>2026-03-29T07:28:18Z</time></trkpt><trkpt lat="45.55020926291899" lon="10.481244790135031"><ele>270.0</ele><time>2026-03-29T07:28:19Z</time></trkpt><trkpt lat="45.55010229780181" lon="10.481167295743383"><ele>270.0</ele><time>2026-03-29T07:28:20Z</time></trkpt><trkpt lat="45.550003401234974" lon="10.48107779801353"><ele>270.0</ele><time>2026-03-29T07:28:21Z</time></trkpt><trkpt lat="45.54990652406899" lon="10.480995959645837"><ele>270.0</ele><time>2026-03-29T07:28:22Z</time></trkpt><trkpt lat="45.549788161185965" lon="10.480939771463724"><ele>270.0</ele><time>2026-03-29T07:28:23Z</time></trkpt><trkpt lat="45.54965875542518" lon="10.480887525075483"><ele>270.0</ele><time>2026-03-29T07:28:24Z</time></trkpt><trkpt lat="45.54953020975597" lon="10.480829770911159"><ele>270.0</ele><time>2026-03-29T07:28:25Z</time></trkpt><trkpt lat="45.54940938565152" lon="10.480775960441338"><ele>270.0</ele><time>2026-03-29T07:28:26Z</time></trkpt><trkpt lat="45.549285759940354" lon="10.480725014509813"><ele>270.1666666666667</ele><time>2026-03-29T07:28:27Z</time></trkpt><trkpt lat="45.549193835456165" lon="10.480676796234542"><ele>270.3333333333333</ele><time>2026-03-29T07:28:28Z</time></trkpt><trkpt lat="45.5491234038494" lon="10.480642090859554"><ele>270.5</ele><time>2026-03-29T07:28:29Z</time></trkpt><trkpt lat="45.54905509829746" lon="10.480608481023783"><ele>270.66666666666663</ele><time>2026-03-29T07:28:30Z</time></trkpt><trkpt lat="45.54899362354021" lon="10.480578330092667"><ele>270.8333333333333</ele><time>2026-03-29T07:28:31Z</time></trkpt><trkpt lat="45.548934288519995" lon="10.480534340442654"><ele>271.0</ele><time>2026-03-29T07:28:33Z</time></trkpt><trkpt lat="45.548938815435" lon="10.480243005476574"><ele>271.0</ele><time>2026-03-29T07:28:36Z</time></trkpt><trkpt lat="45.5489119384297" lon="10.480155469913283"><ele>271.0</ele><time>2026-03-29T07:28:37Z</time></trkpt><trkpt lat="45.54886710142673" lon="10.48007864463124"><ele>271.0</ele><time>2026-03-29T07:28:38Z</time></trkpt><trkpt lat="45.54881053967339" lon="10.480006390922737"><ele>271.0</ele><time>2026-03-29T07:28:39Z</time></trkpt><trkpt lat="45.54873883221151" lon="10.479907872988198"><ele>271.0</ele><time>2026-03-29T07:28:40Z</time></trkpt><trkpt lat="45.54867007671714" lon="10.479784200298715"><ele>271.0</ele><time>2026-03-29T07:28:41Z</time></trkpt><trkpt lat="45.54861875127558" lon="10.479675679610237"><ele>270.0</ele><time>2026-03-29T07:28:42Z</time></trkpt><trkpt lat="45.5485771370075" lon="10.479548734599062"><ele>269.0</ele><time>2026-03-29T07:28:43Z</time></trkpt><trkpt lat="45.54853297469526" lon="10.479402730369499"><ele>268.0</ele><time>2026-03-29T07:28:44Z</time></trkpt><trkpt lat="45.548478595986076" lon="10.479232701975713"><ele>267.0</ele><time>2026-03-29T07:28:45Z</time></trkpt><trkpt lat="45.548426870683976" lon="10.47904965580995"><ele>267.0</ele><time>2026-03-29T07:28:46Z</time></trkpt><trkpt lat="45.54838743545142" lon="10.47887070253181"><ele>267.0</ele><time>2026-03-29T07:28:47Z</time></trkpt><trkpt lat="45.54833347138301" lon="10.478696350548622"><ele>267.0</ele><time>2026-03-29T07:28:48Z</time></trkpt><trkpt lat="45.54828291160868" lon="10.47854790188327"><ele>267.0</ele><time>2026-03-29T07:28:49Z</time></trkpt><trkpt lat="45.54822372818009" lon="10.478380625604554"><ele>267.25</ele><time>2026-03-29T07:28:50Z</time></trkpt><trkpt lat="45.54815310142126" lon="10.478233998084956"><ele>267.5</ele><time>2026-03-29T07:28:51Z</time></trkpt><trkpt lat="45.548076081522964" lon="10.478096161814786"><ele>267.75</ele><time>2026-03-29T07:28:52Z</time></trkpt><trkpt lat="45.54800075206052" lon="10.477942473059004"><ele>268.0</ele><time>2026-03-29T07:28:53Z</time></trkpt><trkpt lat="45.54792776007922" lon="10.47779130870984"><ele>270.25</ele><time>2026-03-29T07:28:54Z</time></trkpt><trkpt lat="45.5478541436657" lon="10.477624719974497"><ele>272.5</ele><time>2026-03-29T07:28:55Z</time></trkpt><trkpt lat="45.5477943186524" lon="10.477432324659302"><ele>274.75</ele><time>2026-03-29T07:28:56Z</time></trkpt><trkpt lat="45.54773281655522" lon="10.477256444298833"><ele>277.0</ele><time>2026-03-29T07:28:57Z</time></trkpt><trkpt lat="45.54766280142902" lon="10.477071468151857"><ele>277.8</ele><time>2026-03-29T07:28:58Z</time></trkpt><trkpt lat="45.547603015509594" lon="10.47691690703361"><ele>278.6</ele><time>2026-03-29T07:28:59Z</time></trkpt><trkpt lat="45.54754980472607" lon="10.476787564748859"><ele>279.40000000000003</ele><time>2026-03-29T07:29:00Z</time></trkpt><trkpt lat="45.547492643610006" lon="10.476671007404402"><ele>280.2</ele><time>2026-03-29T07:29:01Z</time></trkpt><trkpt lat="45.54744564520486" lon="10.476569382628611"><ele>281.0</ele><time>2026-03-29T07:29:02Z</time></trkpt><trkpt lat="45.54739491820634" lon="10.476506990849161"><ele>281.0</ele><time>2026-03-29T07:29:03Z</time></trkpt><trkpt lat="45.54723401028454" lon="10.476449106548415"><ele>281.0</ele><time>2026-03-29T07:29:05Z</time></trkpt><trkpt lat="45.547186490692006" lon="10.476355331177766"><ele>281.0</ele><time>2026-03-29T07:29:06Z</time></trkpt><trkpt lat="45.54713065144328" lon="10.4762402577639"><ele>281.0</ele><time>2026-03-29T07:29:07Z</time></trkpt><trkpt lat="45.547082750592494" lon="10.47611622460535"><ele>281.0</ele><time>2026-03-29T07:29:08Z</time></trkpt><trkpt lat="45.547006721911664" lon="10.476020393765337"><ele>279.8</ele><time>2026-03-29T07:29:09Z</time></trkpt><trkpt lat="45.546940462393856" lon="10.475924931215628"><ele>278.6</ele><time>2026-03-29T07:29:10Z</time></trkpt><trkpt lat="45.546883346222025" lon="10.47584353801938"><ele>277.4</ele><time>2026-03-29T07:29:11Z</time></trkpt><trkpt lat="45.546816428626194" lon="10.475748177234559"><ele>276.2</ele><time>2026-03-29T07:29:12Z</time></trkpt><trkpt lat="45.546729846871145" lon="10.47573041707157"><ele>275.0</ele><time>2026-03-29T07:29:13Z</time></trkpt><trkpt lat="45.54667622605064" lon="10.475533006264676"><ele>275.0</ele><time>2026-03-29T07:29:14Z</time></trkpt><trkpt lat="45.54663406393463" lon="10.475445954010146"><ele>275.0</ele><time>2026-03-29T07:29:15Z</time></trkpt><trkpt lat="45.54657747858116" lon="10.475333632924213"><ele>275.0</ele><time>2026-03-29T07:29:16Z</time></trkpt><trkpt lat="45.54651783205948" lon="10.475215253523425"><ele>275.0</ele><time>2026-03-29T07:29:17Z</time></trkpt><trkpt lat="45.54644812379881" lon="10.475147360120603"><ele>275.0</ele><time>2026-03-29T07:29:18Z</time></trkpt><trkpt lat="45.54639343258443" lon="10.475067683466992"><ele>275.0</ele><time>2026-03-29T07:29:19Z</time></trkpt><trkpt lat="45.54632811831203" lon="10.474961471181722"><ele>274.0</ele><time>2026-03-29T07:29:20Z</time></trkpt><trkpt lat="45.54626765234904" lon="10.474870878602664"><ele>273.0</ele><time>2026-03-29T07:29:21Z</time></trkpt><trkpt lat="45.546222208416104" lon="10.474796549901415"><ele>272.0</ele><time>2026-03-29T07:29:22Z</time></trkpt><trkpt lat="45.546180340224446" lon="10.47471892514616"><ele>271.0</ele><time>2026-03-29T07:29:23Z</time></trkpt><trkpt lat="45.5461318451087" lon="10.474563257718403"><ele>270.0</ele><time>2026-03-29T07:29:25Z</time></trkpt><trkpt lat="45.546172917720135" lon="10.474470210018993"><ele>269.0</ele><time>2026-03-29T07:29:26Z</time></trkpt><trkpt lat="45.54620782379718" lon="10.474352636590051"><ele>271.0</ele><time>2026-03-29T07:29:27Z</time></trkpt><trkpt lat="45.54627397446642" lon="10.474178240961445"><ele>273.0</ele><time>2026-03-29T07:29:28Z</time></trkpt><trkpt lat="45.54635102698496" lon="10.473968770272007"><ele>275.0</ele><time>2026-03-29T07:29:29Z</time></trkpt><trkpt lat="45.54643912174215" lon="10.473760987615583"><ele>275.0</ele><time>2026-03-29T07:29:30Z</time></trkpt><trkpt lat="45.546531438878354" lon="10.473548312616494"><ele>275.0</ele><time>2026-03-29T07:29:31Z</time></trkpt><trkpt lat="45.546642860222946" lon="10.473337451297787"><ele>275.0</ele><time>2026-03-29T07:29:32Z</time></trkpt><trkpt lat="45.5467156053804" lon="10.473128504321853"><ele>275.0</ele><time>2026-03-29T07:29:33Z</time></trkpt><trkpt lat="45.546791351667636" lon="10.472958352324122"><ele>275.0</ele><time>2026-03-29T07:29:34Z</time></trkpt><trkpt lat="45.546847424859074" lon="10.472814045554774"><ele>275.0</ele><time>2026-03-29T07:29:35Z</time></trkpt><trkpt lat="45.54689077234491" lon="10.4727068026386"><ele>275.0</ele><time>2026-03-29T07:29:36Z</time></trkpt><trkpt lat="45.546994926856854" lon="10.472556504002995"><ele>274.2</ele><time>2026-03-29T07:29:38Z</time></trkpt><trkpt lat="45.54708416721219" lon="10.472481466785387"><ele>273.4</ele><time>2026-03-29T07:29:39Z</time></trkpt><trkpt lat="45.54716943409819" lon="10.472425815925122"><ele>272.6</ele><time>2026-03-29T07:29:40Z</time></trkpt><trkpt lat="45.547239404866666" lon="10.472388718066876"><ele>271.8</ele><time>2026-03-29T07:29:41Z</time></trkpt><trkpt lat="45.547350799086644" lon="10.472490319976945"><ele>271.0</ele><time>2026-03-29T07:29:43Z</time></trkpt><trkpt lat="45.54745829891357" lon="10.47257146565495"><ele>271.0</ele><time>2026-03-29T07:29:44Z</time></trkpt><trkpt lat="45.547597088948834" lon="10.472663308958172"><ele>271.0</ele><time>2026-03-29T07:29:45Z</time></trkpt><trkpt lat="45.54778325301986" lon="10.472762494889912"><ele>271.0</ele><time>2026-03-29T07:29:46Z</time></trkpt><trkpt lat="45.54795615638289" lon="10.47287939568755"><ele>274.66666666666663</ele><time>2026-03-29T07:29:47Z</time></trkpt><trkpt lat="45.54812915505516" lon="10.47298647544501"><ele>278.3333333333333</ele><time>2026-03-29T07:29:48Z</time></trkpt><trkpt lat="45.54829162826842" lon="10.473097110554217"><ele>282.0</ele><time>2026-03-29T07:29:49Z</time></trkpt><trkpt lat="45.54844682326704" lon="10.473217355765184"><ele>282.0</ele><time>2026-03-29T07:29:50Z</time></trkpt><trkpt lat="45.54859480774438" lon="10.473343786939825"><ele>282.0</ele><time>2026-03-29T07:29:51Z</time></trkpt><trkpt lat="45.548743390263425" lon="10.473472898967668"><ele>282.0</ele><time>2026-03-29T07:29:52Z</time></trkpt><trkpt lat="45.54889503205813" lon="10.473609591114334"><ele>282.0</ele><time>2026-03-29T07:29:53Z</time></trkpt><trkpt lat="45.549039461652235" lon="10.4737352181791"><ele>282.0</ele><time>2026-03-29T07:29:54Z</time></trkpt><trkpt lat="45.54918793733553" lon="10.473845653987441"><ele>282.0</ele><time>2026-03-29T07:29:55Z</time></trkpt><trkpt lat="45.549329653434334" lon="10.473981696060699"><ele>283.3333333333333</ele><time>2026-03-29T07:29:56Z</time></trkpt><trkpt lat="45.54946101061053" lon="10.474136876422747"><ele>284.66666666666663</ele><time>2026-03-29T07:29:57Z</time></trkpt><trkpt lat="45.54957347831411" lon="10.474326823206138"><ele>286.0</ele><time>2026-03-29T07:29:58Z</time></trkpt><trkpt lat="45.54972678727788" lon="10.474477706218936"><ele>289.3333333333333</ele><time>2026-03-29T07:29:59Z</time></trkpt><trkpt lat="45.549894377474864" lon="10.474630028367113"><ele>292.6666666666667</ele><time>2026-03-29T07:30:00Z</time></trkpt><trkpt lat="45.55006358911025" lon="10.47477385609322"><ele>296.0</ele><time>2026-03-29T07:30:01Z</time></trkpt><trkpt lat="45.550202616135294" lon="10.474906998382117"><ele>296.0</ele><time>2026-03-29T07:30:02Z</time></trkpt><trkpt lat="45.55033195132554" lon="10.475032477448261"><ele>296.0</ele><time>2026-03-29T07:30:03Z</time></trkpt><trkpt lat="45.550461124428715" lon="10.475175212232891"><ele>296.0</ele><time>2026-03-29T07:30:04Z</time></trkpt><trkpt lat="45.55059002397588" lon="10.47535719920828"><ele>296.6666666666667</ele><time>2026-03-29T07:30:05Z</time></trkpt><trkpt lat="45.550727473625855" lon="10.475542476408584"><ele>297.3333333333333</ele><time>2026-03-29T07:30:06Z</time></trkpt><trkpt lat="45.550876113486225" lon="10.475726099488135"><ele>298.0</ele><time>2026-03-29T07:30:07Z</time></trkpt><trkpt lat="45.551045001430936" lon="10.475915527981748"><ele>299.0</ele><time>2026-03-29T07:30:08Z</time></trkpt><trkpt lat="45.55124034233" lon="10.476070430286153"><ele>300.0</ele><time>2026-03-29T07:30:09Z</time></trkpt><trkpt lat="45.55145069408611" lon="10.476188508061318"><ele>301.0</ele><time>2026-03-29T07:30:10Z</time></trkpt><trkpt lat="45.55165752164456" lon="10.476327932541905"><ele>301.0</ele><time>2026-03-29T07:30:11Z</time></trkpt><trkpt lat="45.55185946930263" lon="10.476467487993371"><ele>301.0</ele><time>2026-03-29T07:30:12Z</time></trkpt><trkpt lat="45.55203920646341" lon="10.476605568167567"><ele>301.0</ele><time>2026-03-29T07:30:13Z</time></trkpt><trkpt lat="45.55220186437486" lon="10.47674328811342"><ele>300.66666666666663</ele><time>2026-03-29T07:30:14Z</time></trkpt><trkpt lat="45.55233438346499" lon="10.476875694803173"><ele>300.3333333333333</ele><time>2026-03-29T07:30:15Z</time></trkpt><trkpt lat="45.55246371363893" lon="10.477029031236574"><ele>300.0</ele><time>2026-03-29T07:30:16Z</time></trkpt><trkpt lat="45.55260017342377" lon="10.477194261005144"><ele>301.6666666666667</ele><time>2026-03-29T07:30:17Z</time></trkpt><trkpt lat="45.55274981753261" lon="10.477350866012522"><ele>303.33333333333337</ele><time>2026-03-29T07:30:18Z</time></trkpt><trkpt lat="45.55289791213798" lon="10.477499966601627"><ele>305.0</ele><time>2026-03-29T07:30:19Z</time></trkpt><trkpt lat="45.553022201239315" lon="10.477636330229563"><ele>305.0</ele><time>2026-03-29T07:30:20Z</time></trkpt><trkpt lat="45.55314111945446" lon="10.477762217788706"><ele>305.0</ele><time>2026-03-29T07:30:21Z</time></trkpt><trkpt lat="45.5532591581691" lon="10.477918165836437"><ele>305.0</ele><time>2026-03-29T07:30:22Z</time></trkpt><trkpt lat="45.5533932044194" lon="10.478106999467647"><ele>307.25</ele><time>2026-03-29T07:30:23Z</time></trkpt><trkpt lat="45.55349477594406" lon="10.478299357853953"><ele>309.5</ele><time>2026-03-29T07:30:24Z</time></trkpt><trkpt lat="45.553565688207755" lon="10.478436868314239"><ele>311.75</ele><time>2026-03-29T07:30:25Z</time></trkpt><trkpt lat="45.55363289916751" lon="10.478562136279578"><ele>314.0</ele><time>2026-03-29T07:30:26Z</time></trkpt><trkpt lat="45.55370493512031" lon="10.47870693609979"><ele>313.8</ele><time>2026-03-29T07:30:27Z</time></trkpt><trkpt lat="45.553774382914604" lon="10.478859958342884"><ele>313.59999999999997</ele><time>2026-03-29T07:30:28Z</time></trkpt><trkpt lat="45.55382809082743" lon="10.479007695336179"><ele>313.4</ele><time>2026-03-29T07:30:29Z</time></trkpt><trkpt lat="45.55386282965403" lon="10.479139678211773"><ele>313.2</ele><time>2026-03-29T07:30:30Z</time></trkpt><trkpt lat="45.553886393998326" lon="10.479281181887325"><ele>313.0</ele><time>2026-03-29T07:30:31Z</time></trkpt><trkpt lat="45.55390214929741" lon="10.479462778833827"><ele>314.3333333333333</ele><time>2026-03-29T07:30:32Z</time></trkpt><trkpt lat="45.55390948301812" lon="10.479675082245993"><ele>315.6666666666667</ele><time>2026-03-29T07:30:33Z</time></trkpt><trkpt lat="45.55393486271467" lon="10.479902907404947"><ele>317.0</ele><time>2026-03-29T07:30:34Z</time></trkpt><trkpt lat="45.55398257429777" lon="10.480135325885998"><ele>317.0</ele><time>2026-03-29T07:30:35Z</time></trkpt><trkpt lat="45.554056042125666" lon="10.480346176249347"><ele>317.0</ele><time>2026-03-29T07:30:36Z</time></trkpt><trkpt lat="45.55413257248418" lon="10.480527845077422"><ele>317.0</ele><time>2026-03-29T07:30:37Z</time></trkpt><trkpt lat="45.55418809806465" lon="10.48070407645398"><ele>317.0</ele><time>2026-03-29T07:30:38Z</time></trkpt><trkpt lat="45.55423177414552" lon="10.480891287018457"><ele>317.8</ele><time>2026-03-29T07:30:39Z</time></trkpt><trkpt lat="45.55425370206375" lon="10.48104931327927"><ele>318.6</ele><time>2026-03-29T07:30:40Z</time></trkpt><trkpt lat="45.55425621737262" lon="10.481159808362257"><ele>319.40000000000003</ele><time>2026-03-29T07:30:41Z</time></trkpt><trkpt lat="45.554296866408436" lon="10.481294481114928"><ele>320.2</ele><time>2026-03-29T07:30:43Z</time></trkpt><trkpt lat="45.554421370298144" lon="10.481390803557392"><ele>321.0</ele><time>2026-03-29T07:30:45Z</time></trkpt><trkpt lat="45.554509239431646" lon="10.4814867386267"><ele>320.8333333333333</ele><time>2026-03-29T07:30:46Z</time></trkpt><trkpt lat="45.554595005940065" lon="10.481571231429594"><ele>320.6666666666667</ele><time>2026-03-29T07:30:47Z</time></trkpt><trkpt lat="45.55466000028495" lon="10.481634617940978"><ele>320.5</ele><time>2026-03-29T07:30:48Z</time></trkpt><trkpt lat="45.55473422688571" lon="10.481690617691566"><ele>320.33333333333337</ele><time>2026-03-29T07:30:49Z</time></trkpt><trkpt lat="45.55479714668939" lon="10.481737607555084"><ele>320.1666666666667</ele><time>2026-03-29T07:30:50Z</time></trkpt><trkpt lat="45.55488231958317" lon="10.481801225691461"><ele>320.0</ele><time>2026-03-29T07:30:52Z</time></trkpt><trkpt lat="45.55493785421737" lon="10.481868247314729"><ele>320.0</ele><time>2026-03-29T07:30:54Z</time></trkpt><trkpt lat="45.55499104291642" lon="10.481930865083532"><ele>320.0</ele><time>2026-03-29T07:31:01Z</time></trkpt><trkpt lat="45.555053125067815" lon="10.481995386618882"><ele>320.0</ele><time>2026-03-29T07:31:03Z</time></trkpt><trkpt lat="45.55515776229274" lon="10.482122203594153"><ele>320.0</ele><time>2026-03-29T07:31:05Z</time></trkpt><trkpt lat="45.555224860203225" lon="10.482194129976179"><ele>320.0</ele><time>2026-03-29T07:31:06Z</time></trkpt><trkpt lat="45.55531589633556" lon="10.482276235822725"><ele>320.83333333333337</ele><time>2026-03-29T07:31:07Z</time></trkpt><trkpt lat="45.55539954940508" lon="10.48234547472392"><ele>321.6666666666667</ele><time>2026-03-29T07:31:08Z</time></trkpt><trkpt lat="45.55547814710354" lon="10.482412651937048"><ele>322.5</ele><time>2026-03-29T07:31:09Z</time></trkpt><trkpt lat="45.55555513323158" lon="10.48245582514905"><ele>323.3333333333333</ele><time>2026-03-29T07:31:10Z</time></trkpt><trkpt lat="45.55561756115209" lon="10.482487989684092"><ele>324.16666666666663</ele><time>2026-03-29T07:31:11Z</time></trkpt><trkpt lat="45.55568775783417" lon="10.482560246330632"><ele>325.0</ele><time>2026-03-29T07:31:12Z</time></trkpt><trkpt lat="45.55575444518649" lon="10.482599893428883"><ele>325.0</ele><time>2026-03-29T07:31:13Z</time></trkpt><trkpt lat="45.55581780676699" lon="10.482635069184488"><ele>325.0</ele><time>2026-03-29T07:31:14Z</time></trkpt><trkpt lat="45.55587979678754" lon="10.482666023061439"><ele>325.0</ele><time>2026-03-29T07:31:15Z</time></trkpt><trkpt lat="45.5559464447325" lon="10.482698208798183"><ele>325.0</ele><time>2026-03-29T07:31:16Z</time></trkpt><trkpt lat="45.55602665628073" lon="10.482736105639395"><ele>325.0</ele><time>2026-03-29T07:31:17Z</time></trkpt><trkpt lat="45.556101153746226" lon="10.482769715973323"><ele>325.0</ele><time>2026-03-29T07:31:18Z</time></trkpt><trkpt lat="45.55620326515516" lon="10.482807652324423"><ele>326.0</ele><time>2026-03-29T07:31:19Z</time></trkpt><trkpt lat="45.556315666988795" lon="10.48286085172532"><ele>327.0</ele><time>2026-03-29T07:31:20Z</time></trkpt><trkpt lat="45.556427654315776" lon="10.482917945453988"><ele>328.0</ele><time>2026-03-29T07:31:21Z</time></trkpt><trkpt lat="45.55653470851435" lon="10.482980423174471"><ele>329.0</ele><time>2026-03-29T07:31:22Z</time></trkpt><trkpt lat="45.556628499233604" lon="10.48303306802356"><ele>329.75</ele><time>2026-03-29T07:31:23Z</time></trkpt><trkpt lat="45.55673476728238" lon="10.483072655801825"><ele>330.5</ele><time>2026-03-29T07:31:24Z</time></trkpt><trkpt lat="45.55685915611824" lon="10.483088799675913"><ele>331.25</ele><time>2026-03-29T07:31:25Z</time></trkpt><trkpt lat="45.55698987426395" lon="10.483099827595575"><ele>332.0</ele><time>2026-03-29T07:31:26Z</time></trkpt><trkpt lat="45.55708927036514" lon="10.483110259507248"><ele>332.0</ele><time>2026-03-29T07:31:27Z</time></trkpt><trkpt lat="45.55719476214792" lon="10.483133881243072"><ele>332.0</ele><time>2026-03-29T07:31:28Z</time></trkpt><trkpt lat="45.55732674729086" lon="10.483152614120511"><ele>332.0</ele><time>2026-03-29T07:31:29Z</time></trkpt><trkpt lat="45.55745649735563" lon="10.483164488435254"><ele>332.0</ele><time>2026-03-29T07:31:30Z</time></trkpt><trkpt lat="45.557619709968904" lon="10.483187203979412"><ele>332.0</ele><time>2026-03-29T07:31:31Z</time></trkpt><trkpt lat="45.557777639006375" lon="10.483202851900382"><ele>332.0</ele><time>2026-03-29T07:31:32Z</time></trkpt><trkpt lat="45.55797565791704" lon="10.483227492884952"><ele>332.0</ele><time>2026-03-29T07:31:33Z</time></trkpt><trkpt lat="45.558199038984625" lon="10.48325371225931"><ele>331.33333333333337</ele><time>2026-03-29T07:31:34Z</time></trkpt><trkpt lat="45.558419539751824" lon="10.483281202794974"><ele>330.6666666666667</ele><time>2026-03-29T07:31:35Z</time></trkpt><trkpt lat="45.558609023143866" lon="10.48331136097022"><ele>330.0</ele><time>2026-03-29T07:31:36Z</time></trkpt><trkpt lat="45.55877919425546" lon="10.483335969954924"><ele>329.6666666666667</ele><time>2026-03-29T07:31:37Z</time></trkpt><trkpt lat="45.55891568834113" lon="10.483357950085095"><ele>329.33333333333337</ele><time>2026-03-29T07:31:38Z</time></trkpt><trkpt lat="45.55907610903646" lon="10.483389680038712"><ele>329.0</ele><time>2026-03-29T07:31:39Z</time></trkpt><trkpt lat="45.559245279121015" lon="10.483429373491726"><ele>329.0</ele><time>2026-03-29T07:31:40Z</time></trkpt><trkpt lat="45.55941466189074" lon="10.483469247709227"><ele>329.0</ele><time>2026-03-29T07:31:41Z</time></trkpt><trkpt lat="45.55955824998292" lon="10.48349647629669"><ele>329.0</ele><time>2026-03-29T07:31:42Z</time></trkpt><trkpt lat="45.5596883728166" lon="10.483507955247104"><ele>329.0</ele><time>2026-03-29T07:31:43Z</time></trkpt><trkpt lat="45.559821064345535" lon="10.483518754247763"><ele>328.25</ele><time>2026-03-29T07:31:44Z</time></trkpt><trkpt lat="45.55992518844676" lon="10.48352855342986"><ele>327.5</ele><time>2026-03-29T07:31:45Z</time></trkpt><trkpt lat="45.56005569825387" lon="10.48352140378741"><ele>326.75</ele><time>2026-03-29T07:31:46Z</time></trkpt><trkpt lat="45.560177634285886" lon="10.483504206582255"><ele>326.0</ele><time>2026-03-29T07:31:47Z</time></trkpt><trkpt lat="45.560295412468" lon="10.48347187730665"><ele>325.5</ele><time>2026-03-29T07:31:48Z</time></trkpt><trkpt lat="45.560417760372154" lon="10.483426724571569"><ele>325.0</ele><time>2026-03-29T07:31:49Z</time></trkpt><trkpt lat="45.56054829146556" lon="10.483357372661825"><ele>324.5</ele><time>2026-03-29T07:31:50Z</time></trkpt><trkpt lat="45.560666317765055" lon="10.483287602050058"><ele>324.0</ele><time>2026-03-29T07:31:51Z</time></trkpt><trkpt lat="45.56077548944696" lon="10.483215372975348"><ele>324.0</ele><time>2026-03-29T07:31:52Z</time></trkpt><trkpt lat="45.56087826741098" lon="10.483176650861461"><ele>324.0</ele><time>2026-03-29T07:31:53Z</time></trkpt><trkpt lat="45.560979321856976" lon="10.483125213349078"><ele>324.0</ele><time>2026-03-29T07:31:54Z</time></trkpt><trkpt lat="45.56107064160427" lon="10.483081078645366"><ele>324.0</ele><time>2026-03-29T07:31:55Z</time></trkpt><trkpt lat="45.56116528291536" lon="10.483032871667941"><ele>324.0</ele><time>2026-03-29T07:31:56Z</time></trkpt><trkpt lat="45.5612415903426" lon="10.48296969056567"><ele>324.0</ele><time>2026-03-29T07:31:57Z</time></trkpt><trkpt lat="45.561311333207286" lon="10.48293511839887"><ele>324.0</ele><time>2026-03-29T07:31:58Z</time></trkpt><trkpt lat="45.56138525310208" lon="10.482876659243427"><ele>324.0</ele><time>2026-03-29T07:32:00Z</time></trkpt><trkpt lat="45.56130328535587" lon="10.482708203646764"><ele>324.0</ele><time>2026-03-29T07:32:06Z</time></trkpt><trkpt lat="45.561243214596196" lon="10.482560150698854"><ele>324.0</ele><time>2026-03-29T07:32:07Z</time></trkpt><trkpt lat="45.56117631859357" lon="10.482377821741393"><ele>323.6666666666667</ele><time>2026-03-29T07:32:08Z</time></trkpt><trkpt lat="45.56109901478237" lon="10.48215622944007"><ele>323.33333333333337</ele><time>2026-03-29T07:32:09Z</time></trkpt><trkpt lat="45.56101667841058" lon="10.481928067617817"><ele>323.0</ele><time>2026-03-29T07:32:10Z</time></trkpt><trkpt lat="45.56092228943452" lon="10.48172412623908"><ele>323.0</ele><time>2026-03-29T07:32:11Z</time></trkpt><trkpt lat="45.56083235949515" lon="10.481522549267346"><ele>323.0</ele><time>2026-03-29T07:32:12Z</time></trkpt><trkpt lat="45.560715546849764" lon="10.481367519480099"><ele>323.0</ele><time>2026-03-29T07:32:13Z</time></trkpt><trkpt lat="45.56058962710178" lon="10.481249250516504"><ele>325.6666666666667</ele><time>2026-03-29T07:32:14Z</time></trkpt><trkpt lat="45.56043761685823" lon="10.481153952614152"><ele>328.3333333333333</ele><time>2026-03-29T07:32:15Z</time></trkpt><trkpt lat="45.5602464616413" lon="10.4810663669043"><ele>331.0</ele><time>2026-03-29T07:32:16Z</time></trkpt><trkpt lat="45.560060404334415" lon="10.480987270614012"><ele>332.20000000000005</ele><time>2026-03-29T07:32:17Z</time></trkpt><trkpt lat="45.55993119520555" lon="10.480922559117884"><ele>333.40000000000003</ele><time>2026-03-29T07:32:18Z</time></trkpt><trkpt lat="45.55983889564585" lon="10.480858040471002"><ele>334.6</ele><time>2026-03-29T07:32:19Z</time></trkpt><trkpt lat="45.559762118649175" lon="10.48076528476611"><ele>335.8</ele><time>2026-03-29T07:32:20Z</time></trkpt><trkpt lat="45.559715739872786" lon="10.480636113397493"><ele>337.0</ele><time>2026-03-29T07:32:21Z</time></trkpt><trkpt lat="45.55972200769361" lon="10.480459738262155"><ele>339.25</ele><time>2026-03-29T07:32:22Z</time></trkpt><trkpt lat="45.55971092742802" lon="10.48026943071603"><ele>341.5</ele><time>2026-03-29T07:32:23Z</time></trkpt><trkpt lat="45.559696158453555" lon="10.480048506890851"><ele>343.75</ele><time>2026-03-29T07:32:24Z</time></trkpt><trkpt lat="45.55968431137827" lon="10.479842427428924"><ele>346.0</ele><time>2026-03-29T07:32:25Z</time></trkpt><trkpt lat="45.559666101369075" lon="10.479650616057713"><ele>345.0</ele><time>2026-03-29T07:32:26Z</time></trkpt><trkpt lat="45.55968683629409" lon="10.479486335586355"><ele>344.0</ele><time>2026-03-29T07:32:27Z</time></trkpt><trkpt lat="45.559725304011614" lon="10.47932484187645"><ele>343.0</ele><time>2026-03-29T07:32:28Z</time></trkpt><trkpt lat="45.559790755957" lon="10.479119250560096"><ele>342.0</ele><time>2026-03-29T07:32:29Z</time></trkpt><trkpt lat="45.55986350639573" lon="10.478876072247397"><ele>340.6666666666667</ele><time>2026-03-29T07:32:30Z</time></trkpt><trkpt lat="45.55991996576081" lon="10.478622880692063"><ele>339.33333333333337</ele><time>2026-03-29T07:32:31Z</time></trkpt><trkpt lat="45.559975249584255" lon="10.478418894375451"><ele>338.0</ele><time>2026-03-29T07:32:32Z</time></trkpt><trkpt lat="45.56000890310205" lon="10.478259568230486"><ele>338.0</ele><time>2026-03-29T07:32:33Z</time></trkpt><trkpt lat="45.560021027171906" lon="10.478099463821659"><ele>338.0</ele><time>2026-03-29T07:32:34Z</time></trkpt><trkpt lat="45.5600146061957" lon="10.477898460707799"><ele>338.0</ele><time>2026-03-29T07:32:35Z</time></trkpt><trkpt lat="45.560010651269145" lon="10.477674804706279"><ele>338.0</ele><time>2026-03-29T07:32:36Z</time></trkpt><trkpt lat="45.56002015694926" lon="10.477436776738164"><ele>337.5</ele><time>2026-03-29T07:32:37Z</time></trkpt><trkpt lat="45.55999845898315" lon="10.477233722886682"><ele>337.0</ele><time>2026-03-29T07:32:38Z</time></trkpt><trkpt lat="45.55999438833191" lon="10.477055798911874"><ele>336.5</ele><time>2026-03-29T07:32:39Z</time></trkpt><trkpt lat="45.559997263875104" lon="10.476912079588564"><ele>336.0</ele><time>2026-03-29T07:32:40Z</time></trkpt><trkpt lat="45.56000493129863" lon="10.476788688454059"><ele>334.25</ele><time>2026-03-29T07:32:41Z</time></trkpt><trkpt lat="45.56003204021872" lon="10.476662737575094"><ele>332.5</ele><time>2026-03-29T07:32:42Z</time></trkpt><trkpt lat="45.56007863165566" lon="10.47651671762324"><ele>330.75</ele><time>2026-03-29T07:32:43Z</time></trkpt><trkpt lat="45.56016355914508" lon="10.476356429638795"><ele>329.0</ele><time>2026-03-29T07:32:44Z</time></trkpt><trkpt lat="45.56024545100921" lon="10.476180080356094"><ele>327.2</ele><time>2026-03-29T07:32:45Z</time></trkpt><trkpt lat="45.560324358711966" lon="10.476002073639625"><ele>325.4</ele><time>2026-03-29T07:32:46Z</time></trkpt><trkpt lat="45.56040070072024" lon="10.475861143551436"><ele>323.6</ele><time>2026-03-29T07:32:47Z</time></trkpt><trkpt lat="45.56046088406526" lon="10.475742593124222"><ele>321.8</ele><time>2026-03-29T07:32:48Z</time></trkpt><trkpt lat="45.56050453852279" lon="10.475665774744789"><ele>320.0</ele><time>2026-03-29T07:32:49Z</time></trkpt><trkpt lat="45.56057335567008" lon="10.475603205570103"><ele>320.0</ele><time>2026-03-29T07:32:51Z</time></trkpt><trkpt lat="45.56061596216869" lon="10.475726787182081"><ele>320.0</ele><time>2026-03-29T07:32:54Z</time></trkpt><trkpt lat="45.560695800981065" lon="10.475776331060912"><ele>320.0</ele><time>2026-03-29T07:32:55Z</time></trkpt><trkpt lat="45.56077669486596" lon="10.475811298349468"><ele>320.0</ele><time>2026-03-29T07:32:56Z</time></trkpt><trkpt lat="45.56087761331701" lon="10.475848067139138"><ele>320.0</ele><time>2026-03-29T07:32:57Z</time></trkpt><trkpt lat="45.561010974907" lon="10.475893523077156"><ele>320.0</ele><time>2026-03-29T07:32:58Z</time></trkpt><trkpt lat="45.561116389839356" lon="10.475956199047465"><ele>320.0</ele><time>2026-03-29T07:32:59Z</time></trkpt><trkpt lat="45.56124960004233" lon="10.476047449349336"><ele>320.0</ele><time>2026-03-29T07:33:00Z</time></trkpt><trkpt lat="45.561386260027895" lon="10.476103291785668"><ele>320.0</ele><time>2026-03-29T07:33:01Z</time></trkpt><trkpt lat="45.561486960966946" lon="10.47617727052978"><ele>319.5</ele><time>2026-03-29T07:33:02Z</time></trkpt><trkpt lat="45.56156158103495" lon="10.476239146717319"><ele>319.0</ele><time>2026-03-29T07:33:03Z</time></trkpt><trkpt lat="45.561629968229646" lon="10.47633191487612"><ele>318.5</ele><time>2026-03-29T07:33:04Z</time></trkpt><trkpt lat="45.56168679916696" lon="10.476501711476761"><ele>318.0</ele><time>2026-03-29T07:33:05Z</time></trkpt><trkpt lat="45.56178145761068" lon="10.476643739642151"><ele>322.75</ele><time>2026-03-29T07:33:06Z</time></trkpt><trkpt lat="45.56187666878706" lon="10.476748293674047"><ele>327.5</ele><time>2026-03-29T07:33:07Z</time></trkpt><trkpt lat="45.561995938084024" lon="10.476817651904273"><ele>332.25</ele><time>2026-03-29T07:33:08Z</time></trkpt><trkpt lat="45.56211213127363" lon="10.476908071270294"><ele>337.0</ele><time>2026-03-29T07:33:09Z</time></trkpt><trkpt lat="45.56221726293263" lon="10.476935788721049"><ele>337.75</ele><time>2026-03-29T07:33:10Z</time></trkpt><trkpt lat="45.56230564505419" lon="10.476964207284757"><ele>338.5</ele><time>2026-03-29T07:33:11Z</time></trkpt><trkpt lat="45.562391633533686" lon="10.4769115504587"><ele>339.25</ele><time>2026-03-29T07:33:12Z</time></trkpt><trkpt lat="45.56249084661558" lon="10.476806477831277"><ele>340.0</ele><time>2026-03-29T07:33:13Z</time></trkpt><trkpt lat="45.56261784554507" lon="10.47667967592426"><ele>340.0</ele><time>2026-03-29T07:33:14Z</time></trkpt><trkpt lat="45.562759813815475" lon="10.476551941724981"><ele>340.0</ele><time>2026-03-29T07:33:15Z</time></trkpt><trkpt lat="45.56289696824856" lon="10.476431879454069"><ele>340.0</ele><time>2026-03-29T07:33:16Z</time></trkpt><trkpt lat="45.56304052314072" lon="10.476317789189398"><ele>338.75</ele><time>2026-03-29T07:33:17Z</time></trkpt><trkpt lat="45.56317401332527" lon="10.476211697861235"><ele>337.5</ele><time>2026-03-29T07:33:18Z</time></trkpt><trkpt lat="45.563300056736246" lon="10.476111275153166"><ele>336.25</ele><time>2026-03-29T07:33:19Z</time></trkpt><trkpt lat="45.563409396016766" lon="10.475995211897958"><ele>335.0</ele><time>2026-03-29T07:33:20Z</time></trkpt><trkpt lat="45.5635240406188" lon="10.475900871987122"><ele>335.0</ele><time>2026-03-29T07:33:21Z</time></trkpt><trkpt lat="45.56364306208703" lon="10.475831494154352"><ele>335.0</ele><time>2026-03-29T07:33:22Z</time></trkpt><trkpt lat="45.56373820452855" lon="10.475755325614125"><ele>335.0</ele><time>2026-03-29T07:33:23Z</time></trkpt><trkpt lat="45.5638014382705" lon="10.475676661818026"><ele>335.0</ele><time>2026-03-29T07:33:24Z</time></trkpt><trkpt lat="45.56386096016815" lon="10.475634770845081"><ele>335.0</ele><time>2026-03-29T07:33:25Z</time></trkpt><trkpt lat="45.563911375513364" lon="10.475576621432515"><ele>335.0</ele><time>2026-03-29T07:33:26Z</time></trkpt><trkpt lat="45.5639796586166" lon="10.47547813299109"><ele>335.0</ele><time>2026-03-29T07:33:28Z</time></trkpt><trkpt lat="45.56410186307824" lon="10.475598786770718"><ele>335.0</ele><time>2026-03-29T07:33:31Z</time></trkpt><trkpt lat="45.564143299783076" lon="10.475694774707664"><ele>335.0</ele><time>2026-03-29T07:33:32Z</time></trkpt><trkpt lat="45.564192818081466" lon="10.475810010100895"><ele>335.0</ele><time>2026-03-29T07:33:33Z</time></trkpt><trkpt lat="45.564254955548144" lon="10.475962417469285"><ele>335.0</ele><time>2026-03-29T07:33:34Z</time></trkpt><trkpt lat="45.56431431814815" lon="10.476107806394225"><ele>335.0</ele><time>2026-03-29T07:33:35Z</time></trkpt><trkpt lat="45.56438111509322" lon="10.476240881436325"><ele>335.0</ele><time>2026-03-29T07:33:36Z</time></trkpt><trkpt lat="45.564445623310164" lon="10.476379338200234"><ele>335.0</ele><time>2026-03-29T07:33:37Z</time></trkpt><trkpt lat="45.564500498875425" lon="10.476537608041523"><ele>335.2</ele><time>2026-03-29T07:33:38Z</time></trkpt><trkpt lat="45.564571133184245" lon="10.476665917788646"><ele>335.4</ele><time>2026-03-29T07:33:39Z</time></trkpt><trkpt lat="45.56462388761343" lon="10.476811033449888"><ele>335.6</ele><time>2026-03-29T07:33:40Z</time></trkpt><trkpt lat="45.564645300793984" lon="10.476937451167586"><ele>335.8</ele><time>2026-03-29T07:33:41Z</time></trkpt><trkpt lat="45.56466744126748" lon="10.477050001715787"><ele>336.0</ele><time>2026-03-29T07:33:42Z</time></trkpt><trkpt lat="45.56470017204732" lon="10.477201665187595"><ele>336.0</ele><time>2026-03-29T07:33:43Z</time></trkpt><trkpt lat="45.56469831328624" lon="10.477364438217245"><ele>336.0</ele><time>2026-03-29T07:33:44Z</time></trkpt><trkpt lat="45.564696612104484" lon="10.477474929404506"><ele>336.0</ele><time>2026-03-29T07:33:45Z</time></trkpt><trkpt lat="45.56468772792389" lon="10.477564584765073"><ele>336.0</ele><time>2026-03-29T07:33:46Z</time></trkpt><trkpt lat="45.56465629786421" lon="10.477709421313975"><ele>336.0</ele><time>2026-03-29T07:33:48Z</time></trkpt><trkpt lat="45.56461295340798" lon="10.477799844270685"><ele>336.0</ele><time>2026-03-29T07:33:49Z</time></trkpt><trkpt lat="45.56454487429786" lon="10.477910938016798"><ele>337.20000000000005</ele><time>2026-03-29T07:33:50Z</time></trkpt><trkpt lat="45.56446493047754" lon="10.47801489491006"><ele>338.40000000000003</ele><time>2026-03-29T07:33:51Z</time></trkpt><trkpt lat="45.56439900033483" lon="10.478108270697152"><ele>339.6</ele><time>2026-03-29T07:33:52Z</time></trkpt><trkpt lat="45.56435321857876" lon="10.478190459059878"><ele>340.8</ele><time>2026-03-29T07:33:53Z</time></trkpt><trkpt lat="45.564316012952645" lon="10.478335241399462"><ele>342.0</ele><time>2026-03-29T07:33:55Z</time></trkpt><trkpt lat="45.564354187885314" lon="10.478460752067644"><ele>342.0</ele><time>2026-03-29T07:33:57Z</time></trkpt><trkpt lat="45.56442383122968" lon="10.478535643079006"><ele>342.0</ele><time>2026-03-29T07:33:58Z</time></trkpt><trkpt lat="45.564507055812015" lon="10.478596504263521"><ele>342.0</ele><time>2026-03-29T07:33:59Z</time></trkpt><trkpt lat="45.564613301369846" lon="10.47868051364489"><ele>342.0</ele><time>2026-03-29T07:34:00Z</time></trkpt><trkpt lat="45.56473558064641" lon="10.478773573379993"><ele>342.0</ele><time>2026-03-29T07:34:01Z</time></trkpt><trkpt lat="45.56485561001994" lon="10.478861437783321"><ele>342.40000000000003</ele><time>2026-03-29T07:34:02Z</time></trkpt><trkpt lat="45.56497374933634" lon="10.478941792172515"><ele>342.8</ele><time>2026-03-29T07:34:03Z</time></trkpt><trkpt lat="45.56505533112792" lon="10.478993061546563"><ele>343.2</ele><time>2026-03-29T07:34:04Z</time></trkpt><trkpt lat="45.56511707473331" lon="10.479026017582958"><ele>343.6</ele><time>2026-03-29T07:34:05Z</time></trkpt><trkpt lat="45.565189989285244" lon="10.479083167584935"><ele>344.0</ele><time>2026-03-29T07:34:06Z</time></trkpt><trkpt lat="45.565294006345006" lon="10.479107391805057"><ele>344.5</ele><time>2026-03-29T07:34:07Z</time></trkpt><trkpt lat="45.56541772503557" lon="10.47912444929944"><ele>345.0</ele><time>2026-03-29T07:34:08Z</time></trkpt><trkpt lat="45.56553283994413" lon="10.479116728244906"><ele>345.5</ele><time>2026-03-29T07:34:09Z</time></trkpt><trkpt lat="45.56564739310417" lon="10.479095737611193"><ele>346.0</ele><time>2026-03-29T07:34:10Z</time></trkpt><trkpt lat="45.565774653355156" lon="10.47906546381375"><ele>346.0</ele><time>2026-03-29T07:34:11Z</time></trkpt><trkpt lat="45.56587798059506" lon="10.479022295893877"><ele>346.0</ele><time>2026-03-29T07:34:12Z</time></trkpt><trkpt lat="45.565990484048974" lon="10.47899583590078"><ele>346.0</ele><time>2026-03-29T07:34:13Z</time></trkpt><trkpt lat="45.566124907227696" lon="10.47896789562231"><ele>346.0</ele><time>2026-03-29T07:34:14Z</time></trkpt><trkpt lat="45.56626809678475" lon="10.478926995462658"><ele>346.8</ele><time>2026-03-29T07:34:15Z</time></trkpt><trkpt lat="45.56639119459435" lon="10.478893679267774"><ele>347.6</ele><time>2026-03-29T07:34:16Z</time></trkpt><trkpt lat="45.56649798725356" lon="10.47886537114934"><ele>348.4</ele><time>2026-03-29T07:34:17Z</time></trkpt><trkpt lat="45.56660108006083" lon="10.47883804373661"><ele>349.2</ele><time>2026-03-29T07:34:18Z</time></trkpt><trkpt lat="45.566705478317914" lon="10.478791338488787"><ele>350.0</ele><time>2026-03-29T07:34:19Z</time></trkpt><trkpt lat="45.566805541699395" lon="10.478775921904703"><ele>349.5</ele><time>2026-03-29T07:34:20Z</time></trkpt><trkpt lat="45.56691305324677" lon="10.478747656234969"><ele>349.0</ele><time>2026-03-29T07:34:21Z</time></trkpt><trkpt lat="45.56704238165004" lon="10.478713723714074"><ele>348.5</ele><time>2026-03-29T07:34:22Z</time></trkpt><trkpt lat="45.56717892233043" lon="10.478696416137499"><ele>348.0</ele><time>2026-03-29T07:34:23Z</time></trkpt><trkpt lat="45.56730225546466" lon="10.478671229911475"><ele>348.0</ele><time>2026-03-29T07:34:24Z</time></trkpt><trkpt lat="45.5674057123578" lon="10.478643484265408"><ele>348.0</ele><time>2026-03-29T07:34:25Z</time></trkpt><trkpt lat="45.567498249634845" lon="10.478628816991819"><ele>348.0</ele><time>2026-03-29T07:34:26Z</time></trkpt><trkpt lat="45.567582502573906" lon="10.478633465321511"><ele>348.0</ele><time>2026-03-29T07:34:27Z</time></trkpt><trkpt lat="45.56766280239651" lon="10.478634896119384"><ele>348.0</ele><time>2026-03-29T07:34:28Z</time></trkpt><trkpt lat="45.56777222094235" lon="10.478620030656742"><ele>348.59999999999997</ele><time>2026-03-29T07:34:29Z</time></trkpt><trkpt lat="45.567867262384446" lon="10.478637400350154"><ele>349.2</ele><time>2026-03-29T07:34:30Z</time></trkpt><trkpt lat="45.5679756584895" lon="10.478642132722072"><ele>349.8</ele><time>2026-03-29T07:34:31Z</time></trkpt><trkpt lat="45.568064247747955" lon="10.478648455639046"><ele>350.4</ele><time>2026-03-29T07:34:32Z</time></trkpt><trkpt lat="45.56817100668724" lon="10.478658891414"><ele>351.0</ele><time>2026-03-29T07:34:34Z</time></trkpt><trkpt lat="45.56823425888155" lon="10.478690146228573"><ele>351.0</ele><time>2026-03-29T07:34:35Z</time></trkpt><trkpt lat="45.56831783707744" lon="10.47868557964637"><ele>351.0</ele><time>2026-03-29T07:34:37Z</time></trkpt><trkpt lat="45.568387693770575" lon="10.478689080718121"><ele>351.0</ele><time>2026-03-29T07:34:47Z</time></trkpt><trkpt lat="45.56846097500838" lon="10.478701665313833"><ele>351.0</ele><time>2026-03-29T07:34:48Z</time></trkpt><trkpt lat="45.56854055326828" lon="10.478712883169354"><ele>351.0</ele><time>2026-03-29T07:34:49Z</time></trkpt><trkpt lat="45.568621694627986" lon="10.478703684112306"><ele>351.0</ele><time>2026-03-29T07:34:50Z</time></trkpt><trkpt lat="45.56869851626198" lon="10.478704812828116"><ele>351.25</ele><time>2026-03-29T07:34:51Z</time></trkpt><trkpt lat="45.56877605488362" lon="10.478762039720705"><ele>351.5</ele><time>2026-03-29T07:34:53Z</time></trkpt><trkpt lat="45.56886083114796" lon="10.478798907054749"><ele>351.75</ele><time>2026-03-29T07:34:56Z</time></trkpt><trkpt lat="45.569103875135795" lon="10.478873973705495"><ele>352.0</ele><time>2026-03-29T07:35:00Z</time></trkpt><trkpt lat="45.56915688453593" lon="10.478947435883477"><ele>352.0</ele><time>2026-03-29T07:35:01Z</time></trkpt><trkpt lat="45.569213312574284" lon="10.47907807989574"><ele>352.0</ele><time>2026-03-29T07:35:03Z</time></trkpt><trkpt lat="45.56925000876695" lon="10.479172759051869"><ele>352.0</ele><time>2026-03-29T07:35:04Z</time></trkpt><trkpt lat="45.56928416709043" lon="10.479270190750576"><ele>352.0</ele><time>2026-03-29T07:35:05Z</time></trkpt><trkpt lat="45.56931245273454" lon="10.479359992230028"><ele>352.0</ele><time>2026-03-29T07:35:06Z</time></trkpt><trkpt lat="45.56925322205774" lon="10.479397693397015"><ele>352.0</ele><time>2026-03-29T07:35:07Z</time></trkpt><trkpt lat="45.569319981061334" lon="10.479497180387865"><ele>349.75</ele><time>2026-03-29T07:35:09Z</time></trkpt><trkpt lat="45.5693946565568" lon="10.479608448476364"><ele>347.5</ele><time>2026-03-29T07:35:11Z</time></trkpt><trkpt lat="45.56935835436203" lon="10.47985713621555"><ele>345.25</ele><time>2026-03-29T07:35:13Z</time></trkpt><trkpt lat="45.56939482471204" lon="10.479936935600573"><ele>343.0</ele><time>2026-03-29T07:35:14Z</time></trkpt><trkpt lat="45.56947075622817" lon="10.48005140837566"><ele>343.0</ele><time>2026-03-29T07:35:16Z</time></trkpt><trkpt lat="45.56952384985285" lon="10.480112213170713"><ele>343.0</ele><time>2026-03-29T07:35:17Z</time></trkpt><trkpt lat="45.56959644475951" lon="10.480155739886625"><ele>343.0</ele><time>2026-03-29T07:35:18Z</time></trkpt><trkpt lat="45.56965736015744" lon="10.480212721170727"><ele>343.0</ele><time>2026-03-29T07:35:19Z</time></trkpt><trkpt lat="45.56976666856596" lon="10.480256755751924"><ele>343.0</ele><time>2026-03-29T07:35:21Z</time></trkpt><trkpt lat="45.569873561035784" lon="10.48032357679452"><ele>342.4</ele><time>2026-03-29T07:35:23Z</time></trkpt><trkpt lat="45.56999259810685" lon="10.480375464464972"><ele>341.79999999999995</ele><time>2026-03-29T07:35:25Z</time></trkpt><trkpt lat="45.570114514421746" lon="10.48042238989628"><ele>341.2</ele><time>2026-03-29T07:35:27Z</time></trkpt><trkpt lat="45.570181302117575" lon="10.48047332520724"><ele>340.6</ele><time>2026-03-29T07:35:28Z</time></trkpt><trkpt lat="45.57025486471423" lon="10.480501082572985"><ele>340.0</ele><time>2026-03-29T07:35:29Z</time></trkpt><trkpt lat="45.57034579963498" lon="10.480535395037563"><ele>335.0</ele><time>2026-03-29T07:35:31Z</time></trkpt><trkpt lat="45.57044364526297" lon="10.480554813150013"><ele>330.0</ele><time>2026-03-29T07:35:33Z</time></trkpt><trkpt lat="45.57057725883439" lon="10.48063236888079"><ele>325.0</ele><time>2026-03-29T07:35:35Z</time></trkpt><trkpt lat="45.57064592321494" lon="10.480649130653351"><ele>320.0</ele><time>2026-03-29T07:35:36Z</time></trkpt><trkpt lat="45.570765756980634" lon="10.480753834222632"><ele>320.0</ele><time>2026-03-29T07:35:38Z</time></trkpt><trkpt lat="45.57083020197032" lon="10.480778539782252"><ele>320.0</ele><time>2026-03-29T07:35:39Z</time></trkpt><trkpt lat="45.57088882400951" lon="10.480822220510397"><ele>320.0</ele><time>2026-03-29T07:35:40Z</time></trkpt><trkpt lat="45.570970064859466" lon="10.48090626417985"><ele>320.0</ele><time>2026-03-29T07:35:42Z</time></trkpt><trkpt lat="45.571026805844085" lon="10.481024123110048"><ele>320.0</ele><time>2026-03-29T07:35:44Z</time></trkpt><trkpt lat="45.57099156220664" lon="10.48116344939718"><ele>320.0</ele><time>2026-03-29T07:35:46Z</time></trkpt><trkpt lat="45.570923550227306" lon="10.481256526139193"><ele>317.4</ele><time>2026-03-29T07:35:48Z</time></trkpt><trkpt lat="45.5708010493023" lon="10.481337828893095"><ele>314.8</ele><time>2026-03-29T07:35:50Z</time></trkpt><trkpt lat="45.57070861545298" lon="10.481368047884217"><ele>312.2</ele><time>2026-03-29T07:35:51Z</time></trkpt><trkpt lat="45.57064062560027" lon="10.481403367555348"><ele>309.6</ele><time>2026-03-29T07:35:52Z</time></trkpt><trkpt lat="45.5705866472872" lon="10.481540156146039"><ele>307.0</ele><time>2026-03-29T07:35:54Z</time></trkpt><trkpt lat="45.57057274062929" lon="10.481649816458205"><ele>307.0</ele><time>2026-03-29T07:35:55Z</time></trkpt><trkpt lat="45.57053809984376" lon="10.481782062490783"><ele>307.0</ele><time>2026-03-29T07:35:56Z</time></trkpt><trkpt lat="45.57052233449073" lon="10.481954271323042"><ele>307.0</ele><time>2026-03-29T07:35:57Z</time></trkpt><trkpt lat="45.57051440324959" lon="10.482100182871873"><ele>307.0</ele><time>2026-03-29T07:35:58Z</time></trkpt><trkpt lat="45.57049772977269" lon="10.482220417584642"><ele>307.0</ele><time>2026-03-29T07:35:59Z</time></trkpt><trkpt lat="45.57048501865332" lon="10.482313471965698"><ele>306.5</ele><time>2026-03-29T07:36:00Z</time></trkpt><trkpt lat="45.570488775364744" lon="10.482421992388751"><ele>306.0</ele><time>2026-03-29T07:36:02Z</time></trkpt><trkpt lat="45.57061686239921" lon="10.48248452478301"><ele>305.5</ele><time>2026-03-29T07:36:04Z</time></trkpt><trkpt lat="45.570731989520894" lon="10.482503095734423"><ele>305.0</ele><time>2026-03-29T07:36:05Z</time></trkpt><trkpt lat="45.57089163758858" lon="10.482510333817876"><ele>305.0</ele><time>2026-03-29T07:36:06Z</time></trkpt><trkpt lat="45.57107305312669" lon="10.482515418410864"><ele>305.0</ele><time>2026-03-29T07:36:07Z</time></trkpt><trkpt lat="45.57126512184982" lon="10.48252448441977"><ele>305.0</ele><time>2026-03-29T07:36:08Z</time></trkpt><trkpt lat="45.5714633831527" lon="10.482537763109118"><ele>303.33333333333337</ele><time>2026-03-29T07:36:09Z</time></trkpt><trkpt lat="45.57166451544784" lon="10.482549212246603"><ele>301.6666666666667</ele><time>2026-03-29T07:36:10Z</time></trkpt><trkpt lat="45.571838944969635" lon="10.482555745602657"><ele>300.0</ele><time>2026-03-29T07:36:11Z</time></trkpt><trkpt lat="45.57197445558436" lon="10.482550426327657"><ele>299.5</ele><time>2026-03-29T07:36:12Z</time></trkpt><trkpt lat="45.57210228423184" lon="10.482546694120657"><ele>299.0</ele><time>2026-03-29T07:36:13Z</time></trkpt><trkpt lat="45.57223235586911" lon="10.482559193050278"><ele>298.5</ele><time>2026-03-29T07:36:14Z</time></trkpt><trkpt lat="45.57235421275401" lon="10.482573074454493"><ele>298.0</ele><time>2026-03-29T07:36:15Z</time></trkpt><trkpt lat="45.57246987217235" lon="10.482559268309437"><ele>298.0</ele><time>2026-03-29T07:36:16Z</time></trkpt><trkpt lat="45.57261421896261" lon="10.482591329748923"><ele>298.0</ele><time>2026-03-29T07:36:17Z</time></trkpt><trkpt lat="45.572766377936595" lon="10.482582932525078"><ele>298.0</ele><time>2026-03-29T07:36:18Z</time></trkpt><trkpt lat="45.57293697599977" lon="10.482597379426062"><ele>296.0</ele><time>2026-03-29T07:36:19Z</time></trkpt><trkpt lat="45.57312405140456" lon="10.482609899359941"><ele>294.0</ele><time>2026-03-29T07:36:20Z</time></trkpt><trkpt lat="45.57333207715253" lon="10.482621711294271"><ele>292.0</ele><time>2026-03-29T07:36:21Z</time></trkpt><trkpt lat="45.573544108450356" lon="10.482631176653092"><ele>290.0</ele><time>2026-03-29T07:36:22Z</time></trkpt><trkpt lat="45.57377465132667" lon="10.482646415557511"><ele>288.0</ele><time>2026-03-29T07:36:23Z</time></trkpt><trkpt lat="45.573998012971764" lon="10.48265353843176"><ele>288.0</ele><time>2026-03-29T07:36:24Z</time></trkpt><trkpt lat="45.57421579050294" lon="10.482668168987272"><ele>288.0</ele><time>2026-03-29T07:36:25Z</time></trkpt><trkpt lat="45.574414165848886" lon="10.482674007413168"><ele>288.0</ele><time>2026-03-29T07:36:26Z</time></trkpt><trkpt lat="45.574610892006184" lon="10.482680204062179"><ele>288.6666666666667</ele><time>2026-03-29T07:36:27Z</time></trkpt><trkpt lat="45.57479262089937" lon="10.482680808318207"><ele>289.33333333333337</ele><time>2026-03-29T07:36:28Z</time></trkpt><trkpt lat="45.574966184174" lon="10.482667708198184"><ele>290.0</ele><time>2026-03-29T07:36:29Z</time></trkpt><trkpt lat="45.57514114701412" lon="10.4826374401041"><ele>290.0</ele><time>2026-03-29T07:36:30Z</time></trkpt><trkpt lat="45.5753179876447" lon="10.482594325809428"><ele>290.0</ele><time>2026-03-29T07:36:31Z</time></trkpt><trkpt lat="45.57550050162655" lon="10.482550902265478"><ele>290.0</ele><time>2026-03-29T07:36:32Z</time></trkpt><trkpt lat="45.57569238530067" lon="10.482505393230495"><ele>288.6666666666667</ele><time>2026-03-29T07:36:33Z</time></trkpt><trkpt lat="45.575880496027374" lon="10.482467151792644"><ele>287.3333333333333</ele><time>2026-03-29T07:36:34Z</time></trkpt><trkpt lat="45.576068711674345" lon="10.482436171549011"><ele>286.0</ele><time>2026-03-29T07:36:35Z</time></trkpt><trkpt lat="45.576270626973006" lon="10.48240829880532"><ele>285.3333333333333</ele><time>2026-03-29T07:36:36Z</time></trkpt><trkpt lat="45.576467046169235" lon="10.482389609833206"><ele>284.6666666666667</ele><time>2026-03-29T07:36:37Z</time></trkpt><trkpt lat="45.57665907606447" lon="10.48237054623378"><ele>284.0</ele><time>2026-03-29T07:36:38Z</time></trkpt><trkpt lat="45.57683678736187" lon="10.482345403658877"><ele>284.0</ele><time>2026-03-29T07:36:39Z</time></trkpt><trkpt lat="45.57700542428879" lon="10.482330055583887"><ele>284.0</ele><time>2026-03-29T07:36:40Z</time></trkpt><trkpt lat="45.577164026977385" lon="10.482309670158036"><ele>284.0</ele><time>2026-03-29T07:36:41Z</time></trkpt><trkpt lat="45.57734658490542" lon="10.482292152451492"><ele>283.0</ele><time>2026-03-29T07:36:42Z</time></trkpt><trkpt lat="45.57756731454445" lon="10.482297478010482"><ele>282.0</ele><time>2026-03-29T07:36:43Z</time></trkpt><trkpt lat="45.57780512060208" lon="10.482297850957663"><ele>280.0</ele><time>2026-03-29T07:36:44Z</time></trkpt><trkpt lat="45.57805970719147" lon="10.482294907578527"><ele>278.0</ele><time>2026-03-29T07:36:45Z</time></trkpt><trkpt lat="45.57831343878124" lon="10.482295231176929"><ele>278.0</ele><time>2026-03-29T07:36:46Z</time></trkpt><trkpt lat="45.578542964609206" lon="10.48229906070491"><ele>278.0</ele><time>2026-03-29T07:36:47Z</time></trkpt><trkpt lat="45.5787496744268" lon="10.482306637797196"><ele>278.0</ele><time>2026-03-29T07:36:48Z</time></trkpt><trkpt lat="45.578940838557564" lon="10.482309444431547"><ele>277.0</ele><time>2026-03-29T07:36:49Z</time></trkpt><trkpt lat="45.57911709711847" lon="10.482313436924278"><ele>276.0</ele><time>2026-03-29T07:36:50Z</time></trkpt><trkpt lat="45.57929445197477" lon="10.482326204782206"><ele>275.0</ele><time>2026-03-29T07:36:51Z</time></trkpt><trkpt lat="45.579500405755816" lon="10.482364245415413"><ele>273.5</ele><time>2026-03-29T07:36:52Z</time></trkpt><trkpt lat="45.579721549440265" lon="10.482436187150336"><ele>272.0</ele><time>2026-03-29T07:36:53Z</time></trkpt><trkpt lat="45.579944361510414" lon="10.482529536996001"><ele>272.0</ele><time>2026-03-29T07:36:54Z</time></trkpt><trkpt lat="45.58018821193112" lon="10.482644568939584"><ele>272.0</ele><time>2026-03-29T07:36:55Z</time></trkpt><trkpt lat="45.58040799641156" lon="10.482752930995959"><ele>272.0</ele><time>2026-03-29T07:36:56Z</time></trkpt><trkpt lat="45.58059991869812" lon="10.482845467121802"><ele>272.0</ele><time>2026-03-29T07:36:57Z</time></trkpt><trkpt lat="45.58076815107421" lon="10.482928025790253"><ele>272.0</ele><time>2026-03-29T07:36:58Z</time></trkpt><trkpt lat="45.58092510909149" lon="10.48300583220436"><ele>272.5</ele><time>2026-03-29T07:36:59Z</time></trkpt><trkpt lat="45.58106954599048" lon="10.483070012563518"><ele>273.0</ele><time>2026-03-29T07:37:00Z</time></trkpt><trkpt lat="45.58120593399976" lon="10.483131908824433"><ele>273.5</ele><time>2026-03-29T07:37:01Z</time></trkpt><trkpt lat="45.58130736127975" lon="10.4831772145393"><ele>274.0</ele><time>2026-03-29T07:37:02Z</time></trkpt><trkpt lat="45.581376026632114" lon="10.48320317992216"><ele>274.25</ele><time>2026-03-29T07:37:03Z</time></trkpt><trkpt lat="45.58144833447558" lon="10.483166470656826"><ele>274.5</ele><time>2026-03-29T07:37:05Z</time></trkpt><trkpt lat="45.58149848667323" lon="10.482995477246828"><ele>274.75</ele><time>2026-03-29T07:37:07Z</time></trkpt><trkpt lat="45.58152160754423" lon="10.482821957329485"><ele>275.0</ele><time>2026-03-29T07:37:08Z</time></trkpt><trkpt lat="45.581571177427165" lon="10.482586322815411"><ele>274.33333333333337</ele><time>2026-03-29T07:37:09Z</time></trkpt><trkpt lat="45.581646476858296" lon="10.48232691513329"><ele>273.6666666666667</ele><time>2026-03-29T07:37:10Z</time></trkpt><trkpt lat="45.58174058525685" lon="10.482030273138054"><ele>273.0</ele><time>2026-03-29T07:37:11Z</time></trkpt><trkpt lat="45.581824073697774" lon="10.481735049873862"><ele>273.0</ele><time>2026-03-29T07:37:12Z</time></trkpt><trkpt lat="45.5819263767747" lon="10.481445387426708"><ele>273.0</ele><time>2026-03-29T07:37:13Z</time></trkpt><trkpt lat="45.58201212682687" lon="10.481158769721095"><ele>273.0</ele><time>2026-03-29T07:37:14Z</time></trkpt><trkpt lat="45.582091447097675" lon="10.480894526938837"><ele>274.3333333333333</ele><time>2026-03-29T07:37:15Z</time></trkpt><trkpt lat="45.582170215121096" lon="10.480634446233955"><ele>275.66666666666663</ele><time>2026-03-29T07:37:16Z</time></trkpt><trkpt lat="45.58224520202562" lon="10.48038333182206"><ele>277.0</ele><time>2026-03-29T07:37:17Z</time></trkpt><trkpt lat="45.5823152357034" lon="10.48014731479631"><ele>277.0</ele><time>2026-03-29T07:37:18Z</time></trkpt><trkpt lat="45.58236465933604" lon="10.47993682026074"><ele>277.0</ele><time>2026-03-29T07:37:19Z</time></trkpt><trkpt lat="45.58241657882037" lon="10.479754597887943"><ele>277.0</ele><time>2026-03-29T07:37:20Z</time></trkpt><trkpt lat="45.582398406209876" lon="10.479542018639323"><ele>277.0</ele><time>2026-03-29T07:37:21Z</time></trkpt><trkpt lat="45.58237153336198" lon="10.479320011999546"><ele>277.0</ele><time>2026-03-29T07:37:22Z</time></trkpt><trkpt lat="45.5823162157236" lon="10.479088965788224"><ele>277.0</ele><time>2026-03-29T07:37:23Z</time></trkpt><trkpt lat="45.58225632998332" lon="10.478855006686953"><ele>277.0</ele><time>2026-03-29T07:37:24Z</time></trkpt><trkpt lat="45.5822032145791" lon="10.478648116601482"><ele>278.25</ele><time>2026-03-29T07:37:25Z</time></trkpt><trkpt lat="45.58215150521228" lon="10.478467624362636"><ele>279.5</ele><time>2026-03-29T07:37:26Z</time></trkpt><trkpt lat="45.58207808695839" lon="10.47829153248313"><ele>280.75</ele><time>2026-03-29T07:37:27Z</time></trkpt><trkpt lat="45.581988878194004" lon="10.478126403650364"><ele>282.0</ele><time>2026-03-29T07:37:28Z</time></trkpt><trkpt lat="45.58189530693917" lon="10.47797595187275"><ele>280.25</ele><time>2026-03-29T07:37:29Z</time></trkpt><trkpt lat="45.58179601412299" lon="10.477853675475986"><ele>278.5</ele><time>2026-03-29T07:37:30Z</time></trkpt><trkpt lat="45.58169239151321" lon="10.477753686627581"><ele>276.75</ele><time>2026-03-29T07:37:31Z</time></trkpt><trkpt lat="45.58158695294722" lon="10.47766695917505"><ele>275.0</ele><time>2026-03-29T07:37:32Z</time></trkpt><trkpt lat="45.58149577315984" lon="10.477588123716034"><ele>275.0</ele><time>2026-03-29T07:37:33Z</time></trkpt><trkpt lat="45.58142050842479" lon="10.477529175711286"><ele>275.0</ele><time>2026-03-29T07:37:34Z</time></trkpt><trkpt lat="45.58134383274166" lon="10.47745724952169"><ele>275.0</ele><time>2026-03-29T07:37:35Z</time></trkpt><trkpt lat="45.581273559315065" lon="10.477385608746365"><ele>275.0</ele><time>2026-03-29T07:37:36Z</time></trkpt><trkpt lat="45.58121286838035" lon="10.477299714388977"><ele>275.0</ele><time>2026-03-29T07:37:37Z</time></trkpt><trkpt lat="45.58117828029698" lon="10.477179978713542"><ele>275.0</ele><time>2026-03-29T07:37:38Z</time></trkpt><trkpt lat="45.58114603402264" lon="10.477062273653502"><ele>272.75</ele><time>2026-03-29T07:37:39Z</time></trkpt><trkpt lat="45.581151728289555" lon="10.476931312728503"><ele>270.5</ele><time>2026-03-29T07:37:40Z</time></trkpt><trkpt lat="45.581157740516474" lon="10.476781145450646"><ele>268.25</ele><time>2026-03-29T07:37:41Z</time></trkpt><trkpt lat="45.58116265553401" lon="10.47659329913411"><ele>266.0</ele><time>2026-03-29T07:37:42Z</time></trkpt><trkpt lat="45.58114947158822" lon="10.476387892481343"><ele>266.2</ele><time>2026-03-29T07:37:43Z</time></trkpt><trkpt lat="45.58112663599448" lon="10.47622632307892"><ele>266.40000000000003</ele><time>2026-03-29T07:37:44Z</time></trkpt><trkpt lat="45.58113405451605" lon="10.476083199023973"><ele>266.6</ele><time>2026-03-29T07:37:45Z</time></trkpt><trkpt lat="45.58114125129934" lon="10.475942470728425"><ele>266.8</ele><time>2026-03-29T07:37:46Z</time></trkpt><trkpt lat="45.58114990470919" lon="10.475801109995736"><ele>267.0</ele><time>2026-03-29T07:37:47Z</time></trkpt><trkpt lat="45.581158682426334" lon="10.475663742482904"><ele>267.0</ele><time>2026-03-29T07:37:48Z</time></trkpt><trkpt lat="45.58116745591732" lon="10.475526441111258"><ele>267.0</ele><time>2026-03-29T07:37:49Z</time></trkpt><trkpt lat="45.58116731080203" lon="10.475362801746037"><ele>267.0</ele><time>2026-03-29T07:37:50Z</time></trkpt><trkpt lat="45.58120387046507" lon="10.47522243026408"><ele>267.0</ele><time>2026-03-29T07:37:51Z</time></trkpt><trkpt lat="45.581225451026455" lon="10.475086089518769"><ele>267.0</ele><time>2026-03-29T07:37:52Z</time></trkpt><trkpt lat="45.58123138408108" lon="10.47494884972297"><ele>267.0</ele><time>2026-03-29T07:37:53Z</time></trkpt><trkpt lat="45.581256256924384" lon="10.474804330194793"><ele>267.0</ele><time>2026-03-29T07:37:54Z</time></trkpt><trkpt lat="45.58126478626855" lon="10.47462347614481"><ele>267.0</ele><time>2026-03-29T07:37:55Z</time></trkpt><trkpt lat="45.58128890478054" lon="10.474424972840335"><ele>267.0</ele><time>2026-03-29T07:37:56Z</time></trkpt><trkpt lat="45.581278821160026" lon="10.474228239921125"><ele>267.0</ele><time>2026-03-29T07:37:57Z</time></trkpt><trkpt lat="45.58127729081821" lon="10.474052201949759"><ele>267.0</ele><time>2026-03-29T07:37:58Z</time></trkpt><trkpt lat="45.58127599947739" lon="10.473883186251218"><ele>267.0</ele><time>2026-03-29T07:37:59Z</time></trkpt><trkpt lat="45.58129527798784" lon="10.473717668077795"><ele>267.0</ele><time>2026-03-29T07:38:00Z</time></trkpt><trkpt lat="45.581331500918814" lon="10.473565745462922"><ele>265.5</ele><time>2026-03-29T07:38:01Z</time></trkpt><trkpt lat="45.581390147951275" lon="10.473396234870453"><ele>264.0</ele><time>2026-03-29T07:38:02Z</time></trkpt><trkpt lat="45.58146799739341" lon="10.473254730721317"><ele>262.5</ele><time>2026-03-29T07:38:03Z</time></trkpt><trkpt lat="45.58152651679714" lon="10.473109185841723"><ele>261.0</ele><time>2026-03-29T07:38:04Z</time></trkpt><trkpt lat="45.581605179141995" lon="10.472979854107198"><ele>261.5</ele><time>2026-03-29T07:38:05Z</time></trkpt><trkpt lat="45.58169039924839" lon="10.472877555045375"><ele>262.0</ele><time>2026-03-29T07:38:06Z</time></trkpt><trkpt lat="45.581801291474726" lon="10.472799609665312"><ele>262.5</ele><time>2026-03-29T07:38:07Z</time></trkpt><trkpt lat="45.58191487635103" lon="10.472680945271945"><ele>263.0</ele><time>2026-03-29T07:38:08Z</time></trkpt><trkpt lat="45.58203709666662" lon="10.472573301400978"><ele>263.0</ele><time>2026-03-29T07:38:09Z</time></trkpt><trkpt lat="45.5821777314998" lon="10.472452429412302"><ele>263.0</ele><time>2026-03-29T07:38:10Z</time></trkpt><trkpt lat="45.58232695090777" lon="10.472323565315294"><ele>263.0</ele><time>2026-03-29T07:38:11Z</time></trkpt><trkpt lat="45.58247536671818" lon="10.472190762834572"><ele>261.5</ele><time>2026-03-29T07:38:12Z</time></trkpt><trkpt lat="45.58260687898519" lon="10.472095832971396"><ele>260.0</ele><time>2026-03-29T07:38:13Z</time></trkpt><trkpt lat="45.582720928173515" lon="10.47200280550899"><ele>258.5</ele><time>2026-03-29T07:38:14Z</time></trkpt><trkpt lat="45.58282264507574" lon="10.471903389730839"><ele>257.0</ele><time>2026-03-29T07:38:15Z</time></trkpt><trkpt lat="45.58291715589068" lon="10.471774676189646"><ele>257.75</ele><time>2026-03-29T07:38:16Z</time></trkpt><trkpt lat="45.58300406536562" lon="10.471603066591506"><ele>258.5</ele><time>2026-03-29T07:38:17Z</time></trkpt><trkpt lat="45.58310332536856" lon="10.471416986800794"><ele>259.25</ele><time>2026-03-29T07:38:18Z</time></trkpt><trkpt lat="45.58318890693259" lon="10.47127264510809"><ele>260.0</ele><time>2026-03-29T07:38:19Z</time></trkpt><trkpt lat="45.58325740030311" lon="10.471142472006894"><ele>260.0</ele><time>2026-03-29T07:38:20Z</time></trkpt><trkpt lat="45.58333776257003" lon="10.471023307618534"><ele>260.0</ele><time>2026-03-29T07:38:21Z</time></trkpt><trkpt lat="45.58342140985609" lon="10.470894039011762"><ele>260.0</ele><time>2026-03-29T07:38:22Z</time></trkpt><trkpt lat="45.583499681850746" lon="10.47077333540638"><ele>260.0</ele><time>2026-03-29T07:38:23Z</time></trkpt><trkpt lat="45.583581318268955" lon="10.470658429406658"><ele>260.25</ele><time>2026-03-29T07:38:24Z</time></trkpt><trkpt lat="45.58369085774082" lon="10.470538988110508"><ele>260.5</ele><time>2026-03-29T07:38:25Z</time></trkpt><trkpt lat="45.58381314449561" lon="10.470435595558621"><ele>260.75</ele><time>2026-03-29T07:38:26Z</time></trkpt><trkpt lat="45.58393416714382" lon="10.470346301765735"><ele>261.0</ele><time>2026-03-29T07:38:27Z</time></trkpt><trkpt lat="45.58405549843813" lon="10.47025641003929"><ele>260.0</ele><time>2026-03-29T07:38:28Z</time></trkpt><trkpt lat="45.584177823135185" lon="10.470173834860534"><ele>259.0</ele><time>2026-03-29T07:38:29Z</time></trkpt><trkpt lat="45.58428844906066" lon="10.470097290732454"><ele>258.0</ele><time>2026-03-29T07:38:30Z</time></trkpt><trkpt lat="45.58439608620534" lon="10.470020041006634"><ele>257.0</ele><time>2026-03-29T07:38:31Z</time></trkpt><trkpt lat="45.58451088618082" lon="10.469935356538453"><ele>257.25</ele><time>2026-03-29T07:38:32Z</time></trkpt><trkpt lat="45.58463043958084" lon="10.469831582313171"><ele>257.5</ele><time>2026-03-29T07:38:33Z</time></trkpt><trkpt lat="45.584741687000864" lon="10.469721593500696"><ele>257.75</ele><time>2026-03-29T07:38:34Z</time></trkpt><trkpt lat="45.584849574285045" lon="10.469592319975304"><ele>258.0</ele><time>2026-03-29T07:38:35Z</time></trkpt><trkpt lat="45.584954211927574" lon="10.46945864675248"><ele>257.25</ele><time>2026-03-29T07:38:36Z</time></trkpt><trkpt lat="45.585048836208415" lon="10.46931849918848"><ele>256.5</ele><time>2026-03-29T07:38:37Z</time></trkpt><trkpt lat="45.585137784791144" lon="10.46916605632487"><ele>255.75</ele><time>2026-03-29T07:38:38Z</time></trkpt><trkpt lat="45.585232394962915" lon="10.468988642618614"><ele>255.0</ele><time>2026-03-29T07:38:39Z</time></trkpt><trkpt lat="45.58531965831466" lon="10.468801172928599"><ele>252.66666666666669</ele><time>2026-03-29T07:38:40Z</time></trkpt><trkpt lat="45.58540351210035" lon="10.468597807725939"><ele>250.33333333333334</ele><time>2026-03-29T07:38:41Z</time></trkpt><trkpt lat="45.58549887920634" lon="10.468425623651166"><ele>248.0</ele><time>2026-03-29T07:38:42Z</time></trkpt><trkpt lat="45.58557690788014" lon="10.46825371158829"><ele>248.0</ele><time>2026-03-29T07:38:43Z</time></trkpt><trkpt lat="45.585644754102624" lon="10.468100161484609"><ele>248.0</ele><time>2026-03-29T07:38:44Z</time></trkpt><trkpt lat="45.585690157198925" lon="10.467959291214429"><ele>248.0</ele><time>2026-03-29T07:38:45Z</time></trkpt><trkpt lat="45.585758645240034" lon="10.467820090659274"><ele>248.0</ele><time>2026-03-29T07:38:46Z</time></trkpt><trkpt lat="45.58583034254515" lon="10.467652359951558"><ele>248.0</ele><time>2026-03-29T07:38:47Z</time></trkpt><trkpt lat="45.58590574212959" lon="10.46749197106158"><ele>248.0</ele><time>2026-03-29T07:38:48Z</time></trkpt><trkpt lat="45.58598229518576" lon="10.467346311755692"><ele>248.0</ele><time>2026-03-29T07:38:49Z</time></trkpt><trkpt lat="45.586061983825836" lon="10.467211076820186"><ele>248.0</ele><time>2026-03-29T07:38:50Z</time></trkpt><trkpt lat="45.58615019846252" lon="10.467081222799383"><ele>249.75</ele><time>2026-03-29T07:38:51Z</time></trkpt><trkpt lat="45.58623947752926" lon="10.466957399338957"><ele>251.5</ele><time>2026-03-29T07:38:52Z</time></trkpt><trkpt lat="45.586329602011276" lon="10.466828545415316"><ele>253.25</ele><time>2026-03-29T07:38:53Z</time></trkpt><trkpt lat="45.586415717359046" lon="10.466715934897021"><ele>255.0</ele><time>2026-03-29T07:38:54Z</time></trkpt><trkpt lat="45.58648349015757" lon="10.46661470388365"><ele>255.0</ele><time>2026-03-29T07:38:55Z</time></trkpt><trkpt lat="45.58655977339358" lon="10.466508675374362"><ele>255.0</ele><time>2026-03-29T07:38:56Z</time></trkpt><trkpt lat="45.58664457526308" lon="10.46639453781896"><ele>255.0</ele><time>2026-03-29T07:38:57Z</time></trkpt><trkpt lat="45.586732516452436" lon="10.466272349883326"><ele>255.0</ele><time>2026-03-29T07:38:58Z</time></trkpt><trkpt lat="45.58681041940833" lon="10.466152607562588"><ele>255.75</ele><time>2026-03-29T07:38:59Z</time></trkpt><trkpt lat="45.5868927755416" lon="10.466035334014254"><ele>256.5</ele><time>2026-03-29T07:39:00Z</time></trkpt><trkpt lat="45.586978464691924" lon="10.465920287767766"><ele>257.25</ele><time>2026-03-29T07:39:01Z</time></trkpt><trkpt lat="45.587060783834204" lon="10.465798100011748"><ele>258.0</ele><time>2026-03-29T07:39:02Z</time></trkpt><trkpt lat="45.587144541270185" lon="10.465681172039385"><ele>258.5</ele><time>2026-03-29T07:39:03Z</time></trkpt><trkpt lat="45.58723031261131" lon="10.4655646939308"><ele>259.0</ele><time>2026-03-29T07:39:04Z</time></trkpt><trkpt lat="45.58731992466065" lon="10.465446623078124"><ele>259.5</ele><time>2026-03-29T07:39:05Z</time></trkpt><trkpt lat="45.587410244322975" lon="10.465325043549525"><ele>260.0</ele><time>2026-03-29T07:39:06Z</time></trkpt><trkpt lat="45.587486688468054" lon="10.465222793546443"><ele>260.1666666666667</ele><time>2026-03-29T07:39:07Z</time></trkpt><trkpt lat="45.58755724103333" lon="10.465125590612008"><ele>260.33333333333337</ele><time>2026-03-29T07:39:08Z</time></trkpt><trkpt lat="45.58763248902369" lon="10.465026948695881"><ele>260.5</ele><time>2026-03-29T07:39:09Z</time></trkpt><trkpt lat="45.5876926324413" lon="10.464948685868556"><ele>260.6666666666667</ele><time>2026-03-29T07:39:10Z</time></trkpt><trkpt lat="45.587738057234425" lon="10.46488619355965"><ele>260.8333333333333</ele><time>2026-03-29T07:39:11Z</time></trkpt><trkpt lat="45.58780463919624" lon="10.464879026849516"><ele>261.0</ele><time>2026-03-29T07:39:13Z</time></trkpt><trkpt lat="45.587859950797196" lon="10.46502468805021"><ele>262.25</ele><time>2026-03-29T07:39:15Z</time></trkpt><trkpt lat="45.58793657531525" lon="10.465177539214356"><ele>263.5</ele><time>2026-03-29T07:39:16Z</time></trkpt><trkpt lat="45.58803262803067" lon="10.46533500668745"><ele>264.75</ele><time>2026-03-29T07:39:17Z</time></trkpt><trkpt lat="45.58810490004304" lon="10.465431481212708"><ele>266.0</ele><time>2026-03-29T07:39:18Z</time></trkpt><trkpt lat="45.58815287112048" lon="10.465514023070913"><ele>266.6666666666667</ele><time>2026-03-29T07:39:20Z</time></trkpt><trkpt lat="45.58801212830066" lon="10.465676748328548"><ele>267.3333333333333</ele><time>2026-03-29T07:39:22Z</time></trkpt><trkpt lat="45.58792629962094" lon="10.46583790724687"><ele>268.0</ele><time>2026-03-29T07:39:23Z</time></trkpt><trkpt lat="45.587813170566484" lon="10.466044507758"><ele>266.3333333333333</ele><time>2026-03-29T07:39:24Z</time></trkpt><trkpt lat="45.58771020061888" lon="10.466282095989852"><ele>264.6666666666667</ele><time>2026-03-29T07:39:25Z</time></trkpt><trkpt lat="45.58762886766014" lon="10.466466623331508"><ele>263.0</ele><time>2026-03-29T07:39:26Z</time></trkpt><trkpt lat="45.5875622363474" lon="10.46662198792988"><ele>263.0</ele><time>2026-03-29T07:39:27Z</time></trkpt><trkpt lat="45.58750670670383" lon="10.466782085936607"><ele>263.0</ele><time>2026-03-29T07:39:28Z</time></trkpt><trkpt lat="45.58747889902283" lon="10.466935924078028"><ele>263.0</ele><time>2026-03-29T07:39:29Z</time></trkpt><trkpt lat="45.587470790371825" lon="10.467105421247545"><ele>263.0</ele><time>2026-03-29T07:39:30Z</time></trkpt><trkpt lat="45.587460667442656" lon="10.467270046214114"><ele>263.4</ele><time>2026-03-29T07:39:31Z</time></trkpt><trkpt lat="45.58745930476567" lon="10.46741059915682"><ele>263.8</ele><time>2026-03-29T07:39:32Z</time></trkpt><trkpt lat="45.587468884359225" lon="10.467545582357166"><ele>264.2</ele><time>2026-03-29T07:39:33Z</time></trkpt><trkpt lat="45.587503652054934" lon="10.467688509323567"><ele>264.6</ele><time>2026-03-29T07:39:34Z</time></trkpt><trkpt lat="45.58756122421027" lon="10.4678367327012"><ele>265.0</ele><time>2026-03-29T07:39:35Z</time></trkpt><trkpt lat="45.587630660821496" lon="10.46796020001418"><ele>265.0</ele><time>2026-03-29T07:39:36Z</time></trkpt><trkpt lat="45.58770429922601" lon="10.46805252888814"><ele>265.0</ele><time>2026-03-29T07:39:37Z</time></trkpt><trkpt lat="45.58779619570463" lon="10.46813756049521"><ele>265.0</ele><time>2026-03-29T07:39:38Z</time></trkpt><trkpt lat="45.58788726356354" lon="10.468195927519833"><ele>265.0</ele><time>2026-03-29T07:39:39Z</time></trkpt><trkpt lat="45.587958649267506" lon="10.468229897672693"><ele>265.0</ele><time>2026-03-29T07:39:40Z</time></trkpt><trkpt lat="45.58804862210527" lon="10.468246968751243"><ele>265.0</ele><time>2026-03-29T07:39:42Z</time></trkpt><trkpt lat="45.588096983198554" lon="10.468433323235017"><ele>265.0</ele><time>2026-03-29T07:39:43Z</time></trkpt><trkpt lat="45.58816361336419" lon="10.46858475073642"><ele>265.0</ele><time>2026-03-29T07:39:44Z</time></trkpt><trkpt lat="45.588225812429364" lon="10.468762596730388"><ele>265.0</ele><time>2026-03-29T07:39:45Z</time></trkpt><trkpt lat="45.58829015008074" lon="10.468919856145526"><ele>263.5</ele><time>2026-03-29T07:39:46Z</time></trkpt><trkpt lat="45.58834842697564" lon="10.469090377730936"><ele>262.0</ele><time>2026-03-29T07:39:47Z</time></trkpt><trkpt lat="45.58839770632703" lon="10.469272173155428"><ele>260.5</ele><time>2026-03-29T07:39:48Z</time></trkpt><trkpt lat="45.58843818850933" lon="10.469454243641666"><ele>259.0</ele><time>2026-03-29T07:39:49Z</time></trkpt><trkpt lat="45.588494995638754" lon="10.469600705606176"><ele>258.5</ele><time>2026-03-29T07:39:50Z</time></trkpt><trkpt lat="45.58853408797996" lon="10.469777920783319"><ele>258.0</ele><time>2026-03-29T07:39:51Z</time></trkpt><trkpt lat="45.5886108998918" lon="10.469908869765217"><ele>257.5</ele><time>2026-03-29T07:39:52Z</time></trkpt><trkpt lat="45.58864119755313" lon="10.47003576037908"><ele>257.0</ele><time>2026-03-29T07:39:53Z</time></trkpt><trkpt lat="45.58868136025729" lon="10.470186963065808"><ele>258.0</ele><time>2026-03-29T07:39:55Z</time></trkpt><trkpt lat="45.588709483067426" lon="10.470273339740423"><ele>259.0</ele><time>2026-03-29T07:39:56Z</time></trkpt><trkpt lat="45.588707608602355" lon="10.47039119383469"><ele>260.0</ele><time>2026-03-29T07:39:57Z</time></trkpt><trkpt lat="45.58871492687486" lon="10.470522215524433"><ele>261.0</ele><time>2026-03-29T07:39:58Z</time></trkpt><trkpt lat="45.58873416346911" lon="10.470630143020186"><ele>262.0</ele><time>2026-03-29T07:39:59Z</time></trkpt><trkpt lat="45.58873807021854" lon="10.470725054369813"><ele>263.0</ele><time>2026-03-29T07:40:00Z</time></trkpt><trkpt lat="45.58872884460419" lon="10.470830281134429"><ele>263.0</ele><time>2026-03-29T07:40:01Z</time></trkpt><trkpt lat="45.58873248720405" lon="10.471022988297769"><ele>263.0</ele><time>2026-03-29T07:40:03Z</time></trkpt><trkpt lat="45.588731958946454" lon="10.471186051653866"><ele>263.0</ele><time>2026-03-29T07:40:05Z</time></trkpt><trkpt lat="45.58874142370656" lon="10.471389973924047"><ele>263.0</ele><time>2026-03-29T07:40:07Z</time></trkpt><trkpt lat="45.58874479510972" lon="10.47156092967054"><ele>263.25</ele><time>2026-03-29T07:40:08Z</time></trkpt><trkpt lat="45.58874795184221" lon="10.471723440842116"><ele>263.5</ele><time>2026-03-29T07:40:09Z</time></trkpt><trkpt lat="45.58875004624148" lon="10.471876943487581"><ele>263.75</ele><time>2026-03-29T07:40:10Z</time></trkpt><trkpt lat="45.5887586278237" lon="10.472042816264144"><ele>264.0</ele><time>2026-03-29T07:40:11Z</time></trkpt><trkpt lat="45.588767472556725" lon="10.472231633739893"><ele>264.5</ele><time>2026-03-29T07:40:12Z</time></trkpt><trkpt lat="45.588786465030175" lon="10.47241671312194"><ele>265.0</ele><time>2026-03-29T07:40:13Z</time></trkpt><trkpt lat="45.58880152624978" lon="10.472593345604967"><ele>265.5</ele><time>2026-03-29T07:40:14Z</time></trkpt><trkpt lat="45.588828346001506" lon="10.47277399604441"><ele>266.0</ele><time>2026-03-29T07:40:15Z</time></trkpt><trkpt lat="45.58886552882164" lon="10.47295886802228"><ele>266.2</ele><time>2026-03-29T07:40:16Z</time></trkpt><trkpt lat="45.58889699859158" lon="10.473155202349922"><ele>266.40000000000003</ele><time>2026-03-29T07:40:17Z</time></trkpt><trkpt lat="45.58891996610871" lon="10.473287258849101"><ele>266.6</ele><time>2026-03-29T07:40:18Z</time></trkpt><trkpt lat="45.58892984758692" lon="10.473419404752997"><ele>266.8</ele><time>2026-03-29T07:40:19Z</time></trkpt><trkpt lat="45.58894609529389" lon="10.473566036172803"><ele>267.0</ele><time>2026-03-29T07:40:20Z</time></trkpt><trkpt lat="45.588941480908666" lon="10.473723188415532"><ele>266.8</ele><time>2026-03-29T07:40:21Z</time></trkpt><trkpt lat="45.58893317547713" lon="10.473833810463343"><ele>266.6</ele><time>2026-03-29T07:40:22Z</time></trkpt><trkpt lat="45.58892279444045" lon="10.473956589825894"><ele>266.40000000000003</ele><time>2026-03-29T07:40:23Z</time></trkpt><trkpt lat="45.58890533746901" lon="10.474130036726294"><ele>266.2</ele><time>2026-03-29T07:40:24Z</time></trkpt><trkpt lat="45.588900322948724" lon="10.47427187129206"><ele>266.0</ele><time>2026-03-29T07:40:25Z</time></trkpt><trkpt lat="45.588867438850166" lon="10.474419553953732"><ele>266.0</ele><time>2026-03-29T07:40:26Z</time></trkpt><trkpt lat="45.588870238050106" lon="10.474566018012624"><ele>266.0</ele><time>2026-03-29T07:40:27Z</time></trkpt><trkpt lat="45.588873196447416" lon="10.474734256997994"><ele>266.0</ele><time>2026-03-29T07:40:28Z</time></trkpt><trkpt lat="45.58888576351294" lon="10.474895848680541"><ele>266.0</ele><time>2026-03-29T07:40:29Z</time></trkpt><trkpt lat="45.588897746780454" lon="10.475052782678125"><ele>266.0</ele><time>2026-03-29T07:40:30Z</time></trkpt><trkpt lat="45.58889005141972" lon="10.475197225562795"><ele>265.83333333333337</ele><time>2026-03-29T07:40:31Z</time></trkpt><trkpt lat="45.5888794977247" lon="10.47530557975134"><ele>265.6666666666667</ele><time>2026-03-29T07:40:32Z</time></trkpt><trkpt lat="45.58886313532183" lon="10.475403025213605"><ele>265.5</ele><time>2026-03-29T07:40:33Z</time></trkpt><trkpt lat="45.58884082978505" lon="10.475526089044864"><ele>265.3333333333333</ele><time>2026-03-29T07:40:34Z</time></trkpt><trkpt lat="45.58881497495658" lon="10.475660048625764"><ele>265.16666666666663</ele><time>2026-03-29T07:40:35Z</time></trkpt><trkpt lat="45.588801532236715" lon="10.475777915309004"><ele>265.0</ele><time>2026-03-29T07:40:36Z</time></trkpt><trkpt lat="45.58881707525135" lon="10.475868382121071"><ele>265.0</ele><time>2026-03-29T07:40:37Z</time></trkpt><trkpt lat="45.588847851597336" lon="10.476074880273993"><ele>265.0</ele><time>2026-03-29T07:40:39Z</time></trkpt><trkpt lat="45.588891583917835" lon="10.476218470021115"><ele>265.0</ele><time>2026-03-29T07:40:40Z</time></trkpt><trkpt lat="45.588924054422165" lon="10.476372621163982"><ele>265.0</ele><time>2026-03-29T07:40:41Z</time></trkpt><trkpt lat="45.588938891684684" lon="10.476537619075984"><ele>265.2</ele><time>2026-03-29T07:40:42Z</time></trkpt><trkpt lat="45.5889305479341" lon="10.476729468818382"><ele>265.4</ele><time>2026-03-29T07:40:43Z</time></trkpt><trkpt lat="45.588946411328365" lon="10.476891646457261"><ele>265.6</ele><time>2026-03-29T07:40:44Z</time></trkpt><trkpt lat="45.58894688519234" lon="10.477019127959531"><ele>265.8</ele><time>2026-03-29T07:40:45Z</time></trkpt><trkpt lat="45.588963414473284" lon="10.477170180321393"><ele>266.0</ele><time>2026-03-29T07:40:46Z</time></trkpt><trkpt lat="45.58895907952345" lon="10.477346034704686"><ele>267.2</ele><time>2026-03-29T07:40:47Z</time></trkpt><trkpt lat="45.58898420242332" lon="10.477511401307556"><ele>268.40000000000003</ele><time>2026-03-29T07:40:48Z</time></trkpt><trkpt lat="45.58897937701411" lon="10.477656657595958"><ele>269.6</ele><time>2026-03-29T07:40:49Z</time></trkpt><trkpt lat="45.58899241841236" lon="10.477764147482873"><ele>270.8</ele><time>2026-03-29T07:40:50Z</time></trkpt><trkpt lat="45.588997827640455" lon="10.477917447125458"><ele>272.0</ele><time>2026-03-29T07:40:52Z</time></trkpt><trkpt lat="45.58899619188716" lon="10.478088604781531"><ele>272.6</ele><time>2026-03-29T07:40:54Z</time></trkpt><trkpt lat="45.58905651841643" lon="10.47817081264635"><ele>273.2</ele><time>2026-03-29T07:40:56Z</time></trkpt><trkpt lat="45.58912358598371" lon="10.478181713237928"><ele>273.8</ele><time>2026-03-29T07:40:57Z</time></trkpt><trkpt lat="45.589221655900765" lon="10.478180477707713"><ele>274.4</ele><time>2026-03-29T07:40:58Z</time></trkpt><trkpt lat="45.58932619145608" lon="10.478224190154796"><ele>275.0</ele><time>2026-03-29T07:40:59Z</time></trkpt><trkpt lat="45.58943671185439" lon="10.47824575974648"><ele>275.5</ele><time>2026-03-29T07:41:00Z</time></trkpt><trkpt lat="45.58955472090631" lon="10.478297015409312"><ele>276.0</ele><time>2026-03-29T07:41:01Z</time></trkpt><trkpt lat="45.589668214371216" lon="10.478351999361022"><ele>276.5</ele><time>2026-03-29T07:41:02Z</time></trkpt><trkpt lat="45.58976738260176" lon="10.478414427369799"><ele>277.0</ele><time>2026-03-29T07:41:03Z</time></trkpt><trkpt lat="45.58986421214824" lon="10.478509450410526"><ele>277.0</ele><time>2026-03-29T07:41:04Z</time></trkpt><trkpt lat="45.58997187040403" lon="10.47858815736124"><ele>277.0</ele><time>2026-03-29T07:41:05Z</time></trkpt><trkpt lat="45.590073463681485" lon="10.478674799585656"><ele>277.0</ele><time>2026-03-29T07:41:06Z</time></trkpt><trkpt lat="45.59017968770889" lon="10.47877298009806"><ele>277.0</ele><time>2026-03-29T07:41:07Z</time></trkpt><trkpt lat="45.590286505050976" lon="10.4788437342353"><ele>278.0</ele><time>2026-03-29T07:41:08Z</time></trkpt><trkpt lat="45.590402051296216" lon="10.478923774188349"><ele>279.0</ele><time>2026-03-29T07:41:09Z</time></trkpt><trkpt lat="45.59051954668932" lon="10.478975063852912"><ele>280.0</ele><time>2026-03-29T07:41:10Z</time></trkpt><trkpt lat="45.59063625746948" lon="10.479052971916472"><ele>281.0</ele><time>2026-03-29T07:41:11Z</time></trkpt><trkpt lat="45.59076240553967" lon="10.479119843006876"><ele>281.0</ele><time>2026-03-29T07:41:12Z</time></trkpt><trkpt lat="45.590870214675014" lon="10.479204060465541"><ele>281.0</ele><time>2026-03-29T07:41:13Z</time></trkpt><trkpt lat="45.5909489288268" lon="10.479287584293086"><ele>281.0</ele><time>2026-03-29T07:41:14Z</time></trkpt><trkpt lat="45.591018343951454" lon="10.479345034464771"><ele>281.0</ele><time>2026-03-29T07:41:15Z</time></trkpt><trkpt lat="45.59109898127542" lon="10.479404315477105"><ele>281.0</ele><time>2026-03-29T07:41:16Z</time></trkpt><trkpt lat="45.59119941860711" lon="10.479438912432343"><ele>281.25</ele><time>2026-03-29T07:41:17Z</time></trkpt><trkpt lat="45.591323142377135" lon="10.479468688970146"><ele>281.5</ele><time>2026-03-29T07:41:18Z</time></trkpt><trkpt lat="45.59146191748486" lon="10.479485145609777"><ele>281.75</ele><time>2026-03-29T07:41:19Z</time></trkpt><trkpt lat="45.591605919124035" lon="10.479516936694544"><ele>282.0</ele><time>2026-03-29T07:41:20Z</time></trkpt><trkpt lat="45.591725684038806" lon="10.479547871973365"><ele>282.0</ele><time>2026-03-29T07:41:21Z</time></trkpt><trkpt lat="45.59182209881064" lon="10.479575944045127"><ele>282.0</ele><time>2026-03-29T07:41:22Z</time></trkpt><trkpt lat="45.59191884496846" lon="10.479608854035144"><ele>282.0</ele><time>2026-03-29T07:41:23Z</time></trkpt><trkpt lat="45.592043033529045" lon="10.479653693877681"><ele>282.0</ele><time>2026-03-29T07:41:24Z</time></trkpt><trkpt lat="45.592145130567324" lon="10.479699812301147"><ele>282.0</ele><time>2026-03-29T07:41:25Z</time></trkpt><trkpt lat="45.59225023075797" lon="10.47976115118715"><ele>283.6</ele><time>2026-03-29T07:41:26Z</time></trkpt><trkpt lat="45.592351870889864" lon="10.479834809586636"><ele>285.2</ele><time>2026-03-29T07:41:27Z</time></trkpt><trkpt lat="45.592446717815974" lon="10.47991264821569"><ele>286.8</ele><time>2026-03-29T07:41:28Z</time></trkpt><trkpt lat="45.59253565484672" lon="10.47998432520045"><ele>288.4</ele><time>2026-03-29T07:41:29Z</time></trkpt><trkpt lat="45.59262733182564" lon="10.480038888408442"><ele>290.0</ele><time>2026-03-29T07:41:30Z</time></trkpt><trkpt lat="45.592715808372674" lon="10.480044685868219"><ele>290.0</ele><time>2026-03-29T07:41:31Z</time></trkpt><trkpt lat="45.59282912384548" lon="10.480063814480243"><ele>290.0</ele><time>2026-03-29T07:41:32Z</time></trkpt><trkpt lat="45.592936571906094" lon="10.480085050723552"><ele>290.0</ele><time>2026-03-29T07:41:33Z</time></trkpt><trkpt lat="45.59302779175609" lon="10.480096656703166"><ele>290.0</ele><time>2026-03-29T07:41:34Z</time></trkpt><trkpt lat="45.59312632885222" lon="10.480082892567541"><ele>290.0</ele><time>2026-03-29T07:41:35Z</time></trkpt><trkpt lat="45.59323537162246" lon="10.480088881757341"><ele>290.2</ele><time>2026-03-29T07:41:36Z</time></trkpt><trkpt lat="45.593329127932364" lon="10.480042138365"><ele>290.4</ele><time>2026-03-29T07:41:37Z</time></trkpt><trkpt lat="45.59341274333752" lon="10.479993549941176"><ele>290.6</ele><time>2026-03-29T07:41:38Z</time></trkpt><trkpt lat="45.593503449230646" lon="10.479962101508951"><ele>290.8</ele><time>2026-03-29T07:41:39Z</time></trkpt><trkpt lat="45.59357714050942" lon="10.479936433803132"><ele>291.0</ele><time>2026-03-29T07:41:40Z</time></trkpt><trkpt lat="45.5936706744244" lon="10.479901431537805"><ele>291.75</ele><time>2026-03-29T07:41:41Z</time></trkpt><trkpt lat="45.5937985263585" lon="10.479931554149124"><ele>292.5</ele><time>2026-03-29T07:41:42Z</time></trkpt><trkpt lat="45.593934121470305" lon="10.479974058278207"><ele>293.25</ele><time>2026-03-29T07:41:43Z</time></trkpt><trkpt lat="45.59406841436564" lon="10.480012543495805"><ele>294.0</ele><time>2026-03-29T07:41:44Z</time></trkpt><trkpt lat="45.59418617617511" lon="10.48003488619686"><ele>294.0</ele><time>2026-03-29T07:41:45Z</time></trkpt><trkpt lat="45.59425786538175" lon="10.480051762208415"><ele>294.0</ele><time>2026-03-29T07:41:46Z</time></trkpt><trkpt lat="45.59435655893289" lon="10.479925669276184"><ele>294.0</ele><time>2026-03-29T07:41:49Z</time></trkpt><trkpt lat="45.59440285092373" lon="10.479768697187142"><ele>294.0</ele><time>2026-03-29T07:41:50Z</time></trkpt><trkpt lat="45.594457766274424" lon="10.479581108293768"><ele>295.0</ele><time>2026-03-29T07:41:51Z</time></trkpt><trkpt lat="45.59451875449148" lon="10.47937464487157"><ele>296.0</ele><time>2026-03-29T07:41:52Z</time></trkpt><trkpt lat="45.59454577770218" lon="10.479204022327815"><ele>297.0</ele><time>2026-03-29T07:41:53Z</time></trkpt><trkpt lat="45.59452008658749" lon="10.479038692980593"><ele>298.0</ele><time>2026-03-29T07:41:54Z</time></trkpt><trkpt lat="45.59444740655085" lon="10.478883349572786"><ele>301.3333333333333</ele><time>2026-03-29T07:41:55Z</time></trkpt><trkpt lat="45.594346516868846" lon="10.478712908150376"><ele>304.6666666666667</ele><time>2026-03-29T07:41:56Z</time></trkpt><trkpt lat="45.594237254028904" lon="10.478522562451982"><ele>308.0</ele><time>2026-03-29T07:41:57Z</time></trkpt><trkpt lat="45.5941374027807" lon="10.478320488904771"><ele>308.0</ele><time>2026-03-29T07:41:58Z</time></trkpt><trkpt lat="45.59402958335581" lon="10.47813423487213"><ele>308.0</ele><time>2026-03-29T07:41:59Z</time></trkpt><trkpt lat="45.59392458781169" lon="10.477996135027418"><ele>308.0</ele><time>2026-03-29T07:42:00Z</time></trkpt><trkpt lat="45.59383719806699" lon="10.47786395012179"><ele>308.0</ele><time>2026-03-29T07:42:01Z</time></trkpt><trkpt lat="45.59378052208482" lon="10.47770967709501"><ele>308.5</ele><time>2026-03-29T07:42:02Z</time></trkpt><trkpt lat="45.5937159007983" lon="10.477549964119765"><ele>309.0</ele><time>2026-03-29T07:42:03Z</time></trkpt><trkpt lat="45.59363071875038" lon="10.47738232940745"><ele>309.5</ele><time>2026-03-29T07:42:04Z</time></trkpt><trkpt lat="45.593561749319704" lon="10.477203606591614"><ele>310.0</ele><time>2026-03-29T07:42:05Z</time></trkpt><trkpt lat="45.59350077175072" lon="10.477031202378468"><ele>311.3333333333333</ele><time>2026-03-29T07:42:06Z</time></trkpt><trkpt lat="45.5934456921375" lon="10.476831994197232"><ele>312.6666666666667</ele><time>2026-03-29T07:42:07Z</time></trkpt><trkpt lat="45.59339203543209" lon="10.476605924572517"><ele>314.0</ele><time>2026-03-29T07:42:08Z</time></trkpt><trkpt lat="45.59334288902848" lon="10.47636539912397"><ele>318.0</ele><time>2026-03-29T07:42:09Z</time></trkpt><trkpt lat="45.59329166216198" lon="10.476126514582532"><ele>322.0</ele><time>2026-03-29T07:42:10Z</time></trkpt><trkpt lat="45.593241600759356" lon="10.475882268813313"><ele>326.0</ele><time>2026-03-29T07:42:11Z</time></trkpt><trkpt lat="45.5931918626706" lon="10.47562752868216"><ele>327.6666666666667</ele><time>2026-03-29T07:42:12Z</time></trkpt><trkpt lat="45.59314973430612" lon="10.47538094319602"><ele>329.3333333333333</ele><time>2026-03-29T07:42:13Z</time></trkpt><trkpt lat="45.59313414779627" lon="10.47512495445685"><ele>331.0</ele><time>2026-03-29T07:42:14Z</time></trkpt><trkpt lat="45.59309002633688" lon="10.474855220920837"><ele>331.0</ele><time>2026-03-29T07:42:15Z</time></trkpt><trkpt lat="45.593073033597" lon="10.474606137885786"><ele>331.0</ele><time>2026-03-29T07:42:16Z</time></trkpt><trkpt lat="45.59304793278281" lon="10.474409646737524"><ele>331.0</ele><time>2026-03-29T07:42:17Z</time></trkpt><trkpt lat="45.59303154302959" lon="10.474247981396699"><ele>331.0</ele><time>2026-03-29T07:42:18Z</time></trkpt><trkpt lat="45.59302383013752" lon="10.474098325641451"><ele>332.0</ele><time>2026-03-29T07:42:19Z</time></trkpt><trkpt lat="45.59303992890281" lon="10.473946483296517"><ele>333.0</ele><time>2026-03-29T07:42:20Z</time></trkpt><trkpt lat="45.593046088649515" lon="10.473785824834223"><ele>334.0</ele><time>2026-03-29T07:42:21Z</time></trkpt><trkpt lat="45.59302698424818" lon="10.47361273165616"><ele>335.0</ele><time>2026-03-29T07:42:22Z</time></trkpt><trkpt lat="45.593000068503024" lon="10.47342500788683"><ele>335.0</ele><time>2026-03-29T07:42:23Z</time></trkpt><trkpt lat="45.59294408615642" lon="10.473218642293956"><ele>335.0</ele><time>2026-03-29T07:42:24Z</time></trkpt><trkpt lat="45.592900501958184" lon="10.473024286530055"><ele>335.0</ele><time>2026-03-29T07:42:25Z</time></trkpt><trkpt lat="45.5928856609811" lon="10.472846171155565"><ele>335.0</ele><time>2026-03-29T07:42:26Z</time></trkpt><trkpt lat="45.592835276736224" lon="10.472689230475487"><ele>330.75</ele><time>2026-03-29T07:42:27Z</time></trkpt><trkpt lat="45.59277717463028" lon="10.472514883905435"><ele>326.5</ele><time>2026-03-29T07:42:28Z</time></trkpt><trkpt lat="45.592685515565734" lon="10.472337709748246"><ele>322.25</ele><time>2026-03-29T07:42:29Z</time></trkpt><trkpt lat="45.59261136304085" lon="10.472175639280582"><ele>318.0</ele><time>2026-03-29T07:42:30Z</time></trkpt><trkpt lat="45.59256050634008" lon="10.472058350327758"><ele>318.0</ele><time>2026-03-29T07:42:31Z</time></trkpt><trkpt lat="45.59252437660585" lon="10.471962742539683"><ele>318.0</ele><time>2026-03-29T07:42:32Z</time></trkpt><trkpt lat="45.59246711619687" lon="10.471828241683388"><ele>318.0</ele><time>2026-03-29T07:42:34Z</time></trkpt><trkpt lat="45.592438562506146" lon="10.4717418153425"><ele>318.0</ele><time>2026-03-29T07:42:35Z</time></trkpt><trkpt lat="45.592411331126755" lon="10.471644993581448"><ele>318.0</ele><time>2026-03-29T07:42:36Z</time></trkpt><trkpt lat="45.59237295004542" lon="10.471536033580641"><ele>318.0</ele><time>2026-03-29T07:42:37Z</time></trkpt><trkpt lat="45.592330781746156" lon="10.471432934287325"><ele>318.0</ele><time>2026-03-29T07:42:38Z</time></trkpt><trkpt lat="45.59229052492235" lon="10.471317127922704"><ele>318.0</ele><time>2026-03-29T07:42:39Z</time></trkpt><trkpt lat="45.592238008048746" lon="10.47117903925506"><ele>318.0</ele><time>2026-03-29T07:42:40Z</time></trkpt><trkpt lat="45.59218000831094" lon="10.47104448782966"><ele>318.0</ele><time>2026-03-29T07:42:41Z</time></trkpt><trkpt lat="45.59213887445946" lon="10.470917800901136"><ele>318.0</ele><time>2026-03-29T07:42:42Z</time></trkpt><trkpt lat="45.592104886081714" lon="10.470789448112766"><ele>318.6</ele><time>2026-03-29T07:42:43Z</time></trkpt><trkpt lat="45.59206415025581" lon="10.4706359309302"><ele>319.20000000000005</ele><time>2026-03-29T07:42:44Z</time></trkpt><trkpt lat="45.59202756603497" lon="10.470484906607565"><ele>319.8</ele><time>2026-03-29T07:42:45Z</time></trkpt><trkpt lat="45.59200275551336" lon="10.470338655942793"><ele>320.40000000000003</ele><time>2026-03-29T07:42:46Z</time></trkpt><trkpt lat="45.591985454529386" lon="10.470209621787976"><ele>321.0</ele><time>2026-03-29T07:42:47Z</time></trkpt><trkpt lat="45.5919842313559" lon="10.470070240232417"><ele>318.6</ele><time>2026-03-29T07:42:48Z</time></trkpt><trkpt lat="45.591991427137344" lon="10.469916801333827"><ele>316.20000000000005</ele><time>2026-03-29T07:42:49Z</time></trkpt><trkpt lat="45.591999630123546" lon="10.469762460520851"><ele>313.79999999999995</ele><time>2026-03-29T07:42:50Z</time></trkpt><trkpt lat="45.59199848454158" lon="10.469616237723153"><ele>311.4</ele><time>2026-03-29T07:42:51Z</time></trkpt><trkpt lat="45.591981414425334" lon="10.469483767384872"><ele>309.0</ele><time>2026-03-29T07:42:52Z</time></trkpt><trkpt lat="45.59194294654003" lon="10.469376681470791"><ele>308.8333333333333</ele><time>2026-03-29T07:42:53Z</time></trkpt><trkpt lat="45.59188120825906" lon="10.469295890277078"><ele>308.6666666666667</ele><time>2026-03-29T07:42:54Z</time></trkpt><trkpt lat="45.59180408824836" lon="10.469244201956325"><ele>308.5</ele><time>2026-03-29T07:42:55Z</time></trkpt><trkpt lat="45.59171886961071" lon="10.46923023891177"><ele>308.33333333333337</ele><time>2026-03-29T07:42:56Z</time></trkpt><trkpt lat="45.59163209478667" lon="10.469255237621509"><ele>308.1666666666667</ele><time>2026-03-29T07:42:57Z</time></trkpt><trkpt lat="45.591546015749195" lon="10.469315568055487"><ele>308.0</ele><time>2026-03-29T07:42:58Z</time></trkpt><trkpt lat="45.59148323114878" lon="10.469395791133065"><ele>308.0</ele><time>2026-03-29T07:42:59Z</time></trkpt><trkpt lat="45.59143816461833" lon="10.469512578946837"><ele>308.0</ele><time>2026-03-29T07:43:00Z</time></trkpt><trkpt lat="45.59138827831032" lon="10.469583258579561"><ele>308.0</ele><time>2026-03-29T07:43:01Z</time></trkpt><trkpt lat="45.59129121523645" lon="10.46963108789287"><ele>308.0</ele><time>2026-03-29T07:43:03Z</time></trkpt><trkpt lat="45.59118315838343" lon="10.469538907298878"><ele>308.0</ele><time>2026-03-29T07:43:05Z</time></trkpt><trkpt lat="45.591142313797285" lon="10.469397459471754"><ele>306.4</ele><time>2026-03-29T07:43:06Z</time></trkpt><trkpt lat="45.59107655090224" lon="10.469286822707216"><ele>304.8</ele><time>2026-03-29T07:43:07Z</time></trkpt><trkpt lat="45.59101269484846" lon="10.469166341273537"><ele>303.2</ele><time>2026-03-29T07:43:08Z</time></trkpt><trkpt lat="45.59095883985061" lon="10.469051398105396"><ele>301.6</ele><time>2026-03-29T07:43:09Z</time></trkpt><trkpt lat="45.59092042804255" lon="10.468920794248069"><ele>300.0</ele><time>2026-03-29T07:43:10Z</time></trkpt><trkpt lat="45.59087313464709" lon="10.468781794183004"><ele>299.0</ele><time>2026-03-29T07:43:11Z</time></trkpt><trkpt lat="45.59082601752802" lon="10.468600003305712"><ele>298.0</ele><time>2026-03-29T07:43:12Z</time></trkpt><trkpt lat="45.59077034937048" lon="10.468413522811417"><ele>297.0</ele><time>2026-03-29T07:43:13Z</time></trkpt><trkpt lat="45.590730380188" lon="10.468221372181024"><ele>296.0</ele><time>2026-03-29T07:43:14Z</time></trkpt><trkpt lat="45.59068998364513" lon="10.46804599374865"><ele>295.25</ele><time>2026-03-29T07:43:15Z</time></trkpt><trkpt lat="45.59064787745132" lon="10.46787271403738"><ele>294.5</ele><time>2026-03-29T07:43:16Z</time></trkpt><trkpt lat="45.59060461468475" lon="10.467701813256468"><ele>293.75</ele><time>2026-03-29T07:43:17Z</time></trkpt><trkpt lat="45.59056296769498" lon="10.46753613178795"><ele>293.0</ele><time>2026-03-29T07:43:18Z</time></trkpt><trkpt lat="45.59053934997023" lon="10.467368029636015"><ele>293.0</ele><time>2026-03-29T07:43:19Z</time></trkpt><trkpt lat="45.59051038109161" lon="10.46721505917803"><ele>293.0</ele><time>2026-03-29T07:43:20Z</time></trkpt><trkpt lat="45.59048422990379" lon="10.467067313306279"><ele>293.0</ele><time>2026-03-29T07:43:21Z</time></trkpt><trkpt lat="45.59045868056737" lon="10.466918640056987"><ele>293.0</ele><time>2026-03-29T07:43:22Z</time></trkpt><trkpt lat="45.59043193468874" lon="10.466752336921619"><ele>293.0</ele><time>2026-03-29T07:43:23Z</time></trkpt><trkpt lat="45.59038823982417" lon="10.4665797108588"><ele>291.5</ele><time>2026-03-29T07:43:24Z</time></trkpt><trkpt lat="45.590365775814" lon="10.466390711947435"><ele>290.0</ele><time>2026-03-29T07:43:25Z</time></trkpt><trkpt lat="45.5903366963397" lon="10.466193899413977"><ele>288.5</ele><time>2026-03-29T07:43:26Z</time></trkpt><trkpt lat="45.59027428959414" lon="10.46602007264836"><ele>287.0</ele><time>2026-03-29T07:43:27Z</time></trkpt><trkpt lat="45.59020452996099" lon="10.465850729702453"><ele>285.25</ele><time>2026-03-29T07:43:28Z</time></trkpt><trkpt lat="45.59012482332175" lon="10.46569065879475"><ele>283.5</ele><time>2026-03-29T07:43:29Z</time></trkpt><trkpt lat="45.5900358062675" lon="10.465537376565422"><ele>281.75</ele><time>2026-03-29T07:43:30Z</time></trkpt><trkpt lat="45.58995629200518" lon="10.46538896089667"><ele>280.0</ele><time>2026-03-29T07:43:31Z</time></trkpt><trkpt lat="45.589883207991015" lon="10.46524598838272"><ele>279.0</ele><time>2026-03-29T07:43:32Z</time></trkpt><trkpt lat="45.58981801567977" lon="10.465122659753627"><ele>278.0</ele><time>2026-03-29T07:43:33Z</time></trkpt><trkpt lat="45.58973599237915" lon="10.465018899550783"><ele>277.0</ele><time>2026-03-29T07:43:34Z</time></trkpt><trkpt lat="45.589640060798224" lon="10.46494628002962"><ele>276.0</ele><time>2026-03-29T07:43:35Z</time></trkpt><trkpt lat="45.58953396860323" lon="10.46488635812309"><ele>275.0</ele><time>2026-03-29T07:43:36Z</time></trkpt><trkpt lat="45.589425442690725" lon="10.464823872781952"><ele>275.0</ele><time>2026-03-29T07:43:37Z</time></trkpt><trkpt lat="45.589311369697086" lon="10.464777421425623"><ele>275.0</ele><time>2026-03-29T07:43:38Z</time></trkpt><trkpt lat="45.58918928523514" lon="10.464764205682581"><ele>275.0</ele><time>2026-03-29T07:43:39Z</time></trkpt><trkpt lat="45.58905817027348" lon="10.464785827680355"><ele>275.0</ele><time>2026-03-29T07:43:40Z</time></trkpt><trkpt lat="45.588935487629094" lon="10.464812918655984"><ele>275.0</ele><time>2026-03-29T07:43:41Z</time></trkpt><trkpt lat="45.588806388545365" lon="10.464816408995738"><ele>275.0</ele><time>2026-03-29T07:43:42Z</time></trkpt><trkpt lat="45.588696629329796" lon="10.46485026403607"><ele>275.0</ele><time>2026-03-29T07:43:43Z</time></trkpt><trkpt lat="45.58860842574852" lon="10.46485560987192"><ele>275.0</ele><time>2026-03-29T07:43:44Z</time></trkpt><trkpt lat="45.5885369305071" lon="10.464849978358286"><ele>275.0</ele><time>2026-03-29T07:43:45Z</time></trkpt><trkpt lat="45.588473237738555" lon="10.464804524816184"><ele>273.2</ele><time>2026-03-29T07:43:46Z</time></trkpt><trkpt lat="45.58842884111948" lon="10.464717538422848"><ele>271.4</ele><time>2026-03-29T07:43:47Z</time></trkpt><trkpt lat="45.588416722125025" lon="10.464587605445685"><ele>269.6</ele><time>2026-03-29T07:43:48Z</time></trkpt><trkpt lat="45.5883734682607" lon="10.46444487440402"><ele>267.8</ele><time>2026-03-29T07:43:49Z</time></trkpt><trkpt lat="45.58834239079562" lon="10.464280469146361"><ele>266.0</ele><time>2026-03-29T07:43:50Z</time></trkpt><trkpt lat="45.58831320637688" lon="10.46412433366073"><ele>265.8</ele><time>2026-03-29T07:43:51Z</time></trkpt><trkpt lat="45.58828225635766" lon="10.46399010863578"><ele>265.6</ele><time>2026-03-29T07:43:52Z</time></trkpt><trkpt lat="45.58825169656149" lon="10.463863216583478"><ele>265.4</ele><time>2026-03-29T07:43:53Z</time></trkpt><trkpt lat="45.58822059215149" lon="10.463718616978616"><ele>265.2</ele><time>2026-03-29T07:43:54Z</time></trkpt><trkpt lat="45.588184418365934" lon="10.463573877078893"><ele>265.0</ele><time>2026-03-29T07:43:55Z</time></trkpt><trkpt lat="45.5881573313073" lon="10.463439644441056"><ele>265.0</ele><time>2026-03-29T07:43:56Z</time></trkpt><trkpt lat="45.58813771059077" lon="10.463305270392215"><ele>265.0</ele><time>2026-03-29T07:43:57Z</time></trkpt><trkpt lat="45.588132677417185" lon="10.463189788909569"><ele>265.0</ele><time>2026-03-29T07:43:58Z</time></trkpt><trkpt lat="45.58816276761049" lon="10.463058382494909"><ele>265.0</ele><time>2026-03-29T07:43:59Z</time></trkpt><trkpt lat="45.58818557887222" lon="10.462920425965729"><ele>265.0</ele><time>2026-03-29T07:44:00Z</time></trkpt><trkpt lat="45.588214063368355" lon="10.462782964845053"><ele>265.0</ele><time>2026-03-29T07:44:01Z</time></trkpt><trkpt lat="45.58824474466496" lon="10.462646694445239"><ele>265.0</ele><time>2026-03-29T07:44:02Z</time></trkpt><trkpt lat="45.58830522589547" lon="10.462524440505355"><ele>265.0</ele><time>2026-03-29T07:44:03Z</time></trkpt><trkpt lat="45.58834661809783" lon="10.462359311589783"><ele>265.0</ele><time>2026-03-29T07:44:04Z</time></trkpt><trkpt lat="45.58841263233947" lon="10.462172137886347"><ele>265.3333333333333</ele><time>2026-03-29T07:44:05Z</time></trkpt><trkpt lat="45.588497128951765" lon="10.461996323448412"><ele>265.6666666666667</ele><time>2026-03-29T07:44:06Z</time></trkpt><trkpt lat="45.58855608051913" lon="10.461794755650445"><ele>266.0</ele><time>2026-03-29T07:44:07Z</time></trkpt><trkpt lat="45.58858965602583" lon="10.461562594357293"><ele>266.0</ele><time>2026-03-29T07:44:08Z</time></trkpt><trkpt lat="45.58862530641556" lon="10.46133312194054"><ele>266.0</ele><time>2026-03-29T07:44:09Z</time></trkpt><trkpt lat="45.58864969067933" lon="10.461094447836384"><ele>266.0</ele><time>2026-03-29T07:44:10Z</time></trkpt><trkpt lat="45.5886557042949" lon="10.460839281459613"><ele>265.33333333333337</ele><time>2026-03-29T07:44:11Z</time></trkpt><trkpt lat="45.588656271754594" lon="10.460602793613615"><ele>264.6666666666667</ele><time>2026-03-29T07:44:12Z</time></trkpt><trkpt lat="45.58867508634061" lon="10.46039230611804"><ele>264.0</ele><time>2026-03-29T07:44:13Z</time></trkpt><trkpt lat="45.588678444497894" lon="10.460173354129653"><ele>263.5</ele><time>2026-03-29T07:44:14Z</time></trkpt><trkpt lat="45.588671363450594" lon="10.459974765453303"><ele>263.0</ele><time>2026-03-29T07:44:15Z</time></trkpt><trkpt lat="45.58866533006816" lon="10.459751633000291"><ele>262.5</ele><time>2026-03-29T07:44:16Z</time></trkpt><trkpt lat="45.58865954358371" lon="10.45953763139534"><ele>262.0</ele><time>2026-03-29T07:44:17Z</time></trkpt><trkpt lat="45.58863784746526" lon="10.459347271803564"><ele>261.5</ele><time>2026-03-29T07:44:18Z</time></trkpt><trkpt lat="45.58866193360732" lon="10.459175790900673"><ele>261.0</ele><time>2026-03-29T07:44:19Z</time></trkpt><trkpt lat="45.58869532626704" lon="10.459010574013593"><ele>260.5</ele><time>2026-03-29T07:44:20Z</time></trkpt><trkpt lat="45.5887626429216" lon="10.45883950210788"><ele>260.0</ele><time>2026-03-29T07:44:21Z</time></trkpt><trkpt lat="45.58883961145746" lon="10.458656356386514"><ele>259.25</ele><time>2026-03-29T07:44:22Z</time></trkpt><trkpt lat="45.58891721600424" lon="10.458477787997067"><ele>258.5</ele><time>2026-03-29T07:44:23Z</time></trkpt><trkpt lat="45.58898804904338" lon="10.458306683875714"><ele>257.75</ele><time>2026-03-29T07:44:24Z</time></trkpt><trkpt lat="45.589062358162046" lon="10.458125808460519"><ele>257.0</ele><time>2026-03-29T07:44:25Z</time></trkpt><trkpt lat="45.58913663498569" lon="10.457937792869417"><ele>259.6666666666667</ele><time>2026-03-29T07:44:26Z</time></trkpt><trkpt lat="45.589225439972054" lon="10.457743217022276"><ele>262.3333333333333</ele><time>2026-03-29T07:44:27Z</time></trkpt><trkpt lat="45.58931857205017" lon="10.457547563773268"><ele>265.0</ele><time>2026-03-29T07:44:28Z</time></trkpt><trkpt lat="45.58940766176728" lon="10.457366132978656"><ele>265.0</ele><time>2026-03-29T07:44:29Z</time></trkpt><trkpt lat="45.58947893232653" lon="10.457185298365514"><ele>265.0</ele><time>2026-03-29T07:44:30Z</time></trkpt><trkpt lat="45.58956721854949" lon="10.457026188462065"><ele>265.0</ele><time>2026-03-29T07:44:31Z</time></trkpt><trkpt lat="45.58966377141404" lon="10.456877961297876"><ele>265.0</ele><time>2026-03-29T07:44:32Z</time></trkpt><trkpt lat="45.589740743671335" lon="10.456714439162882"><ele>259.75</ele><time>2026-03-29T07:44:33Z</time></trkpt><trkpt lat="45.589800825008574" lon="10.456535859190202"><ele>254.5</ele><time>2026-03-29T07:44:34Z</time></trkpt><trkpt lat="45.589858645546485" lon="10.456357065813542"><ele>249.25</ele><time>2026-03-29T07:44:35Z</time></trkpt><trkpt lat="45.58991166166887" lon="10.456188641238667"><ele>244.0</ele><time>2026-03-29T07:44:36Z</time></trkpt><trkpt lat="45.58995167053379" lon="10.456047693104063"><ele>243.0</ele><time>2026-03-29T07:44:37Z</time></trkpt><trkpt lat="45.589963078529955" lon="10.45590005809819"><ele>242.0</ele><time>2026-03-29T07:44:38Z</time></trkpt><trkpt lat="45.58995521152267" lon="10.45574906713965"><ele>241.0</ele><time>2026-03-29T07:44:39Z</time></trkpt><trkpt lat="45.58990239737511" lon="10.455593354400822"><ele>240.0</ele><time>2026-03-29T07:44:40Z</time></trkpt><trkpt lat="45.58982808609667" lon="10.455444260010344"><ele>237.6</ele><time>2026-03-29T07:44:41Z</time></trkpt><trkpt lat="45.58973984090485" lon="10.455312742922661"><ele>235.2</ele><time>2026-03-29T07:44:42Z</time></trkpt><trkpt lat="45.5896579813922" lon="10.45518405943285"><ele>232.8</ele><time>2026-03-29T07:44:43Z</time></trkpt><trkpt lat="45.58960793232394" lon="10.455058923416907"><ele>230.4</ele><time>2026-03-29T07:44:44Z</time></trkpt><trkpt lat="45.58956658629325" lon="10.454954850947729"><ele>228.0</ele><time>2026-03-29T07:44:45Z</time></trkpt><trkpt lat="45.589551322133595" lon="10.454834511872722"><ele>228.0</ele><time>2026-03-29T07:44:46Z</time></trkpt><trkpt lat="45.589567125526514" lon="10.454700363230018"><ele>228.0</ele><time>2026-03-29T07:44:47Z</time></trkpt><trkpt lat="45.589607931190194" lon="10.454549116744086"><ele>228.0</ele><time>2026-03-29T07:44:48Z</time></trkpt><trkpt lat="45.58962788743801" lon="10.454392396809697"><ele>228.0</ele><time>2026-03-29T07:44:49Z</time></trkpt><trkpt lat="45.589663514571" lon="10.454264250531894"><ele>228.0</ele><time>2026-03-29T07:44:50Z</time></trkpt><trkpt lat="45.58966995140763" lon="10.45413558093886"><ele>227.2</ele><time>2026-03-29T07:44:51Z</time></trkpt><trkpt lat="45.589641522623346" lon="10.454034800667541"><ele>226.4</ele><time>2026-03-29T07:44:52Z</time></trkpt><trkpt lat="45.58957970268274" lon="10.453942003480812"><ele>225.59999999999997</ele><time>2026-03-29T07:44:53Z</time></trkpt><trkpt lat="45.58949839776897" lon="10.453837876478689"><ele>224.79999999999998</ele><time>2026-03-29T07:44:54Z</time></trkpt><trkpt lat="45.58938536325461" lon="10.453728430955294"><ele>224.0</ele><time>2026-03-29T07:44:55Z</time></trkpt><trkpt lat="45.58926805846011" lon="10.453606980107045"><ele>224.0</ele><time>2026-03-29T07:44:56Z</time></trkpt><trkpt lat="45.589180524575546" lon="10.453479534267064"><ele>224.0</ele><time>2026-03-29T07:44:57Z</time></trkpt><trkpt lat="45.58909194788909" lon="10.45336969180909"><ele>224.0</ele><time>2026-03-29T07:44:58Z</time></trkpt><trkpt lat="45.589011374821524" lon="10.453248008762868"><ele>224.0</ele><time>2026-03-29T07:44:59Z</time></trkpt><trkpt lat="45.58895045245882" lon="10.453114480081622"><ele>224.0</ele><time>2026-03-29T07:45:00Z</time></trkpt><trkpt lat="45.58891551149477" lon="10.452984773702907"><ele>223.99999999999997</ele><time>2026-03-29T07:45:01Z</time></trkpt><trkpt lat="45.58890525448898" lon="10.45284990428833"><ele>223.99999999999997</ele><time>2026-03-29T07:45:02Z</time></trkpt><trkpt lat="45.58892432563179" lon="10.452718809639743"><ele>224.0</ele><time>2026-03-29T07:45:03Z</time></trkpt><trkpt lat="45.58896837897743" lon="10.45258148297192"><ele>224.0</ele><time>2026-03-29T07:45:04Z</time></trkpt><trkpt lat="45.5890110514438" lon="10.452435309910632"><ele>223.0</ele><time>2026-03-29T07:45:05Z</time></trkpt><trkpt lat="45.589066458382995" lon="10.45232042842385"><ele>221.99999999999997</ele><time>2026-03-29T07:45:06Z</time></trkpt><trkpt lat="45.589080177600735" lon="10.452192495108783"><ele>220.99999999999997</ele><time>2026-03-29T07:45:07Z</time></trkpt><trkpt lat="45.589090444599215" lon="10.452057700085698"><ele>220.0</ele><time>2026-03-29T07:45:08Z</time></trkpt><trkpt lat="45.58902414316444" lon="10.451920744640434"><ele>219.0</ele><time>2026-03-29T07:45:09Z</time></trkpt><trkpt lat="45.58893870025" lon="10.451777431133824"><ele>219.0</ele><time>2026-03-29T07:45:10Z</time></trkpt><trkpt lat="45.588838636172355" lon="10.451623041315099"><ele>219.0</ele><time>2026-03-29T07:45:11Z</time></trkpt><trkpt lat="45.588752221199464" lon="10.45147633088413"><ele>219.0</ele><time>2026-03-29T07:45:12Z</time></trkpt><trkpt lat="45.58866728560805" lon="10.451334577796388"><ele>219.0</ele><time>2026-03-29T07:45:13Z</time></trkpt><trkpt lat="45.58859344964193" lon="10.4511727468351"><ele>221.0</ele><time>2026-03-29T07:45:14Z</time></trkpt><trkpt lat="45.58850326958775" lon="10.451043864593828"><ele>223.0</ele><time>2026-03-29T07:45:15Z</time></trkpt><trkpt lat="45.58842045317419" lon="10.450889197316593"><ele>225.0</ele><time>2026-03-29T07:45:16Z</time></trkpt><trkpt lat="45.58833671206652" lon="10.450726130610663"><ele>227.0</ele><time>2026-03-29T07:45:17Z</time></trkpt><trkpt lat="45.5882478744636" lon="10.45057121007877"><ele>224.0</ele><time>2026-03-29T07:45:18Z</time></trkpt><trkpt lat="45.58815396673838" lon="10.450404372720225"><ele>221.0</ele><time>2026-03-29T07:45:19Z</time></trkpt><trkpt lat="45.588055308685874" lon="10.450225256004146"><ele>218.0</ele><time>2026-03-29T07:45:20Z</time></trkpt><trkpt lat="45.58796775538054" lon="10.450059017638772"><ele>218.0</ele><time>2026-03-29T07:45:21Z</time></trkpt><trkpt lat="45.58788519629399" lon="10.449911710008472"><ele>218.0</ele><time>2026-03-29T07:45:22Z</time></trkpt><trkpt lat="45.587804145662425" lon="10.449783312970723"><ele>218.0</ele><time>2026-03-29T07:45:23Z</time></trkpt><trkpt lat="45.58772432357803" lon="10.449668594403596"><ele>218.0</ele><time>2026-03-29T07:45:24Z</time></trkpt><trkpt lat="45.58764906484009" lon="10.449558315635592"><ele>218.2</ele><time>2026-03-29T07:45:25Z</time></trkpt><trkpt lat="45.58757741730566" lon="10.449444826525243"><ele>218.4</ele><time>2026-03-29T07:45:26Z</time></trkpt><trkpt lat="45.58749598822082" lon="10.449325572308146"><ele>218.59999999999997</ele><time>2026-03-29T07:45:27Z</time></trkpt><trkpt lat="45.58741840656872" lon="10.449211003223787"><ele>218.79999999999998</ele><time>2026-03-29T07:45:28Z</time></trkpt><trkpt lat="45.58737580504229" lon="10.449116875431773"><ele>219.0</ele><time>2026-03-29T07:45:29Z</time></trkpt><trkpt lat="45.587408231729775" lon="10.448998004687127"><ele>219.0</ele><time>2026-03-29T07:45:30Z</time></trkpt><trkpt lat="45.58737602107934" lon="10.448854132768227"><ele>218.99999999999997</ele><time>2026-03-29T07:45:32Z</time></trkpt><trkpt lat="45.58731589312501" lon="10.448801975809323"><ele>218.99999999999997</ele><time>2026-03-29T07:45:33Z</time></trkpt><trkpt lat="45.587224295427866" lon="10.44881721549708"><ele>219.0</ele><time>2026-03-29T07:45:34Z</time></trkpt><trkpt lat="45.5871374890217" lon="10.448897651509673"><ele>219.0</ele><time>2026-03-29T07:45:35Z</time></trkpt><trkpt lat="45.58708685552976" lon="10.448999818494768"><ele>218.39999999999998</ele><time>2026-03-29T07:45:36Z</time></trkpt><trkpt lat="45.58698255802364" lon="10.44895417609279"><ele>217.79999999999998</ele><time>2026-03-29T07:45:37Z</time></trkpt><trkpt lat="45.58689969804809" lon="10.448914544113554"><ele>217.20000000000002</ele><time>2026-03-29T07:45:38Z</time></trkpt><trkpt lat="45.58683450755719" lon="10.448810997647332"><ele>216.60000000000002</ele><time>2026-03-29T07:45:39Z</time></trkpt><trkpt lat="45.58678247538701" lon="10.448697926549045"><ele>216.0</ele><time>2026-03-29T07:45:40Z</time></trkpt><trkpt lat="45.5867162794099" lon="10.448564923682111"><ele>216.0</ele><time>2026-03-29T07:45:41Z</time></trkpt><trkpt lat="45.586697807462606" lon="10.448395468856663"><ele>216.0</ele><time>2026-03-29T07:45:42Z</time></trkpt><trkpt lat="45.58666240933064" lon="10.44820356116036"><ele>216.0</ele><time>2026-03-29T07:45:43Z</time></trkpt><trkpt lat="45.5866180527091" lon="10.447958597627473"><ele>216.0</ele><time>2026-03-29T07:45:44Z</time></trkpt><trkpt lat="45.586563722627986" lon="10.447658643215526"><ele>214.66666666666669</ele><time>2026-03-29T07:45:45Z</time></trkpt><trkpt lat="45.58651994328498" lon="10.44741170770353"><ele>213.33333333333334</ele><time>2026-03-29T07:45:46Z</time></trkpt><trkpt lat="45.586480128406386" lon="10.447193160314395"><ele>212.0</ele><time>2026-03-29T07:45:47Z</time></trkpt><trkpt lat="45.58644442302534" lon="10.447004845724535"><ele>211.75</ele><time>2026-03-29T07:45:48Z</time></trkpt><trkpt lat="45.58639543705748" lon="10.446823427449065"><ele>211.5</ele><time>2026-03-29T07:45:49Z</time></trkpt><trkpt lat="45.586342480336675" lon="10.446648918084668"><ele>211.25</ele><time>2026-03-29T07:45:50Z</time></trkpt><trkpt lat="45.58626723601176" lon="10.446485769934418"><ele>211.0</ele><time>2026-03-29T07:45:51Z</time></trkpt><trkpt lat="45.58619360632525" lon="10.446308785111832"><ele>210.25</ele><time>2026-03-29T07:45:52Z</time></trkpt><trkpt lat="45.586115577719205" lon="10.446153200109151"><ele>209.5</ele><time>2026-03-29T07:45:53Z</time></trkpt><trkpt lat="45.586049734644334" lon="10.446002986855147"><ele>208.75</ele><time>2026-03-29T07:45:54Z</time></trkpt><trkpt lat="45.58599885187571" lon="10.445826052938274"><ele>208.0</ele><time>2026-03-29T07:45:55Z</time></trkpt><trkpt lat="45.58593200295903" lon="10.445642137339723"><ele>208.0</ele><time>2026-03-29T07:45:56Z</time></trkpt><trkpt lat="45.58586701505301" lon="10.445435369541764"><ele>208.0</ele><time>2026-03-29T07:45:57Z</time></trkpt><trkpt lat="45.585795842005474" lon="10.445215783330305"><ele>208.0</ele><time>2026-03-29T07:45:58Z</time></trkpt><trkpt lat="45.58571018076457" lon="10.445001483268673"><ele>208.0</ele><time>2026-03-29T07:45:59Z</time></trkpt><trkpt lat="45.58563463263507" lon="10.444756642912441"><ele>208.0</ele><time>2026-03-29T07:46:00Z</time></trkpt><trkpt lat="45.58555575559708" lon="10.444530921223416"><ele>208.0</ele><time>2026-03-29T07:46:01Z</time></trkpt><trkpt lat="45.585495780521576" lon="10.444291018025885"><ele>207.66666666666666</ele><time>2026-03-29T07:46:02Z</time></trkpt><trkpt lat="45.5854030118364" lon="10.444055849561868"><ele>207.33333333333331</ele><time>2026-03-29T07:46:03Z</time></trkpt><trkpt lat="45.58533466450866" lon="10.44384014428117"><ele>207.0</ele><time>2026-03-29T07:46:04Z</time></trkpt><trkpt lat="45.58529235039609" lon="10.443625453314194"><ele>206.66666666666669</ele><time>2026-03-29T07:46:05Z</time></trkpt><trkpt lat="45.58524784230094" lon="10.44342845872999"><ele>206.33333333333334</ele><time>2026-03-29T07:46:06Z</time></trkpt><trkpt lat="45.585209641968056" lon="10.443211272094368"><ele>206.0</ele><time>2026-03-29T07:46:07Z</time></trkpt><trkpt lat="45.58516092353615" lon="10.443007838420018"><ele>206.0</ele><time>2026-03-29T07:46:08Z</time></trkpt><trkpt lat="45.58511961245184" lon="10.442804505476097"><ele>206.0</ele><time>2026-03-29T07:46:09Z</time></trkpt><trkpt lat="45.58507339144684" lon="10.442620023575607"><ele>206.0</ele><time>2026-03-29T07:46:10Z</time></trkpt><trkpt lat="45.58502615308396" lon="10.442479520251474"><ele>206.0</ele><time>2026-03-29T07:46:11Z</time></trkpt><trkpt lat="45.58499766973818" lon="10.44235765658806"><ele>206.00000000000003</ele><time>2026-03-29T07:46:12Z</time></trkpt><trkpt lat="45.5849611109102" lon="10.442255478901586"><ele>206.0</ele><time>2026-03-29T07:46:13Z</time></trkpt><trkpt lat="45.584924870479846" lon="10.442160390130205"><ele>206.0</ele><time>2026-03-29T07:46:14Z</time></trkpt><trkpt lat="45.584872165519656" lon="10.44207924476228"><ele>206.0</ele><time>2026-03-29T07:46:15Z</time></trkpt><trkpt lat="45.584836529445916" lon="10.441980723140349"><ele>206.00000000000003</ele><time>2026-03-29T07:46:16Z</time></trkpt><trkpt lat="45.5847975364238" lon="10.441859122838718"><ele>206.0</ele><time>2026-03-29T07:46:18Z</time></trkpt><trkpt lat="45.584749270496225" lon="10.441717059024288"><ele>205.83333333333334</ele><time>2026-03-29T07:46:20Z</time></trkpt><trkpt lat="45.58469781071773" lon="10.441636868630457"><ele>205.66666666666669</ele><time>2026-03-29T07:46:21Z</time></trkpt><trkpt lat="45.58460882165809" lon="10.441644703042101"><ele>205.5</ele><time>2026-03-29T07:46:22Z</time></trkpt><trkpt lat="45.584542313579135" lon="10.441688011421732"><ele>205.33333333333331</ele><time>2026-03-29T07:46:23Z</time></trkpt><trkpt lat="45.5844744873564" lon="10.441727572000694"><ele>205.16666666666666</ele><time>2026-03-29T07:46:24Z</time></trkpt><trkpt lat="45.584392418749374" lon="10.441721102541893"><ele>205.0</ele><time>2026-03-29T07:46:25Z</time></trkpt><trkpt lat="45.58429433009105" lon="10.441656754996766"><ele>205.0</ele><time>2026-03-29T07:46:26Z</time></trkpt><trkpt lat="45.58418083854761" lon="10.441628888971973"><ele>205.0</ele><time>2026-03-29T07:46:27Z</time></trkpt><trkpt lat="45.58406468633467" lon="10.441561869071116"><ele>205.0</ele><time>2026-03-29T07:46:28Z</time></trkpt><trkpt lat="45.583939193893286" lon="10.441535074827708"><ele>205.0</ele><time>2026-03-29T07:46:29Z</time></trkpt><trkpt lat="45.583818805982204" lon="10.441469873580278"><ele>205.0</ele><time>2026-03-29T07:46:30Z</time></trkpt><trkpt lat="45.58369050350079" lon="10.441404057500797"><ele>205.0</ele><time>2026-03-29T07:46:31Z</time></trkpt><trkpt lat="45.583576103380565" lon="10.441352891951516"><ele>205.0</ele><time>2026-03-29T07:46:32Z</time></trkpt><trkpt lat="45.58346425984515" lon="10.441315324981783"><ele>205.0</ele><time>2026-03-29T07:46:33Z</time></trkpt><trkpt lat="45.58335439757411" lon="10.441279068770305"><ele>204.99999999999997</ele><time>2026-03-29T07:46:34Z</time></trkpt><trkpt lat="45.583260430675736" lon="10.441234622764803"><ele>205.0</ele><time>2026-03-29T07:46:35Z</time></trkpt><trkpt lat="45.583181779698876" lon="10.441171774328414"><ele>205.0</ele><time>2026-03-29T07:46:36Z</time></trkpt><trkpt lat="45.583119708825755" lon="10.441145723252278"><ele>205.0</ele><time>2026-03-29T07:46:37Z</time></trkpt><trkpt lat="45.58306108505746" lon="10.441182744918464"><ele>204.99999999999997</ele><time>2026-03-29T07:46:38Z</time></trkpt><trkpt lat="45.58299877114294" lon="10.441275223006684"><ele>205.0</ele><time>2026-03-29T07:46:39Z</time></trkpt><trkpt lat="45.58294159723852" lon="10.441411432195109"><ele>205.0</ele><time>2026-03-29T07:46:40Z</time></trkpt><trkpt lat="45.58286032340756" lon="10.441559888351405"><ele>205.0</ele><time>2026-03-29T07:46:41Z</time></trkpt><trkpt lat="45.582755762029606" lon="10.441693357243965"><ele>205.0</ele><time>2026-03-29T07:46:42Z</time></trkpt><trkpt lat="45.582640291458155" lon="10.441831494192789"><ele>205.0</ele><time>2026-03-29T07:46:43Z</time></trkpt><trkpt lat="45.58252354993125" lon="10.441980092731095"><ele>204.66666666666666</ele><time>2026-03-29T07:46:44Z</time></trkpt><trkpt lat="45.58240129920688" lon="10.442142558672833"><ele>204.33333333333331</ele><time>2026-03-29T07:46:45Z</time></trkpt><trkpt lat="45.58229025737733" lon="10.442302788996896"><ele>204.0</ele><time>2026-03-29T07:46:46Z</time></trkpt><trkpt lat="45.5821904569852" lon="10.442480191229919"><ele>204.0</ele><time>2026-03-29T07:46:47Z</time></trkpt><trkpt lat="45.582101865654" lon="10.442675617299063"><ele>204.0</ele><time>2026-03-29T07:46:48Z</time></trkpt><trkpt lat="45.58201777643674" lon="10.442866108127337"><ele>204.0</ele><time>2026-03-29T07:46:49Z</time></trkpt><trkpt lat="45.58193649912949" lon="10.443037138206842"><ele>203.5</ele><time>2026-03-29T07:46:50Z</time></trkpt><trkpt lat="45.58185704478032" lon="10.443180568615022"><ele>203.0</ele><time>2026-03-29T07:46:51Z</time></trkpt><trkpt lat="45.58177489560931" lon="10.443306473798154"><ele>202.5</ele><time>2026-03-29T07:46:52Z</time></trkpt><trkpt lat="45.5816933346205" lon="10.443422765252041"><ele>202.0</ele><time>2026-03-29T07:46:53Z</time></trkpt><trkpt lat="45.5815813027002" lon="10.443514659206981"><ele>202.0</ele><time>2026-03-29T07:46:54Z</time></trkpt><trkpt lat="45.58145675127777" lon="10.443625691951663"><ele>202.0</ele><time>2026-03-29T07:46:55Z</time></trkpt><trkpt lat="45.58132284111512" lon="10.443739760599408"><ele>202.0</ele><time>2026-03-29T07:46:56Z</time></trkpt><trkpt lat="45.581172034556374" lon="10.443836580616576"><ele>202.0</ele><time>2026-03-29T07:46:57Z</time></trkpt><trkpt lat="45.58101984349237" lon="10.443926850252959"><ele>202.0</ele><time>2026-03-29T07:46:58Z</time></trkpt><trkpt lat="45.580883453616245" lon="10.444018215584558"><ele>202.0</ele><time>2026-03-29T07:46:59Z</time></trkpt><trkpt lat="45.58072814252408" lon="10.444055813605509"><ele>202.0</ele><time>2026-03-29T07:47:00Z</time></trkpt><trkpt lat="45.58057803775966" lon="10.444111158954355"><ele>202.0</ele><time>2026-03-29T07:47:01Z</time></trkpt><trkpt lat="45.58042595697625" lon="10.444165092752526"><ele>202.0</ele><time>2026-03-29T07:47:02Z</time></trkpt><trkpt lat="45.58027639745389" lon="10.444220378716164"><ele>201.75</ele><time>2026-03-29T07:47:03Z</time></trkpt><trkpt lat="45.580129111723956" lon="10.444297870591987"><ele>201.5</ele><time>2026-03-29T07:47:04Z</time></trkpt><trkpt lat="45.57999166479511" lon="10.44434909547559"><ele>201.25</ele><time>2026-03-29T07:47:05Z</time></trkpt><trkpt lat="45.57985017095451" lon="10.444401126827454"><ele>201.0</ele><time>2026-03-29T07:47:06Z</time></trkpt><trkpt lat="45.57971726328055" lon="10.444444272092863"><ele>201.0</ele><time>2026-03-29T07:47:07Z</time></trkpt><trkpt lat="45.57958504757899" lon="10.444490841480564"><ele>201.0</ele><time>2026-03-29T07:47:08Z</time></trkpt><trkpt lat="45.579454323074984" lon="10.44454403692174"><ele>201.0</ele><time>2026-03-29T07:47:09Z</time></trkpt><trkpt lat="45.579322874747504" lon="10.444598715529125"><ele>201.0</ele><time>2026-03-29T07:47:10Z</time></trkpt><trkpt lat="45.57919700704267" lon="10.44464763083021"><ele>202.25</ele><time>2026-03-29T07:47:11Z</time></trkpt><trkpt lat="45.579073036497235" lon="10.444705666412986"><ele>203.5</ele><time>2026-03-29T07:47:12Z</time></trkpt><trkpt lat="45.578955044399656" lon="10.444781217136843"><ele>204.75</ele><time>2026-03-29T07:47:13Z</time></trkpt><trkpt lat="45.57883490315291" lon="10.444862877495178"><ele>206.0</ele><time>2026-03-29T07:47:14Z</time></trkpt><trkpt lat="45.578706244631654" lon="10.44495176867688"><ele>205.25</ele><time>2026-03-29T07:47:15Z</time></trkpt><trkpt lat="45.5785855198864" lon="10.445031892138925"><ele>204.5</ele><time>2026-03-29T07:47:16Z</time></trkpt><trkpt lat="45.57845782969965" lon="10.445103320810581"><ele>203.75</ele><time>2026-03-29T07:47:17Z</time></trkpt><trkpt lat="45.578335161101485" lon="10.445143415496858"><ele>203.0</ele><time>2026-03-29T07:47:18Z</time></trkpt><trkpt lat="45.578214804206475" lon="10.44512614524487"><ele>203.0</ele><time>2026-03-29T07:47:19Z</time></trkpt><trkpt lat="45.578125607790845" lon="10.445136329359654"><ele>203.0</ele><time>2026-03-29T07:47:20Z</time></trkpt><trkpt lat="45.57801198671228" lon="10.445134700149827"><ele>203.0</ele><time>2026-03-29T07:47:22Z</time></trkpt><trkpt lat="45.57794529505695" lon="10.444977186684264"><ele>203.0</ele><time>2026-03-29T07:47:24Z</time></trkpt><trkpt lat="45.57792014926863" lon="10.444842477245357"><ele>203.0</ele><time>2026-03-29T07:47:25Z</time></trkpt><trkpt lat="45.577877772092776" lon="10.444642807434523"><ele>202.66666666666669</ele><time>2026-03-29T07:47:26Z</time></trkpt><trkpt lat="45.57781682070733" lon="10.44439243335509"><ele>202.33333333333331</ele><time>2026-03-29T07:47:27Z</time></trkpt><trkpt lat="45.577732303732816" lon="10.444102328855486"><ele>202.0</ele><time>2026-03-29T07:47:28Z</time></trkpt><trkpt lat="45.57765733831832" lon="10.443845679155714"><ele>201.0</ele><time>2026-03-29T07:47:29Z</time></trkpt><trkpt lat="45.5775929766701" lon="10.443627589009019"><ele>200.0</ele><time>2026-03-29T07:47:30Z</time></trkpt><trkpt lat="45.57752687341779" lon="10.44341894016802"><ele>199.0</ele><time>2026-03-29T07:47:31Z</time></trkpt><trkpt lat="45.57748386041755" lon="10.44319025646502"><ele>199.0</ele><time>2026-03-29T07:47:32Z</time></trkpt><trkpt lat="45.57742787256581" lon="10.442984832496451"><ele>199.0</ele><time>2026-03-29T07:47:33Z</time></trkpt><trkpt lat="45.577374788626365" lon="10.44281390290762"><ele>199.0</ele><time>2026-03-29T07:47:34Z</time></trkpt><trkpt lat="45.57728088778191" lon="10.44268464662834"><ele>199.0</ele><time>2026-03-29T07:47:35Z</time></trkpt><trkpt lat="45.577193202720636" lon="10.442565382103455"><ele>199.0</ele><time>2026-03-29T07:47:36Z</time></trkpt><trkpt lat="45.577112628639604" lon="10.442433883968206"><ele>199.0</ele><time>2026-03-29T07:47:37Z</time></trkpt><trkpt lat="45.57706144269524" lon="10.442297235288308"><ele>199.0</ele><time>2026-03-29T07:47:38Z</time></trkpt><trkpt lat="45.577049851468026" lon="10.442198968517072"><ele>199.0</ele><time>2026-03-29T07:47:39Z</time></trkpt><trkpt lat="45.57692619820095" lon="10.442201468469783"><ele>199.0</ele><time>2026-03-29T07:47:41Z</time></trkpt><trkpt lat="45.57685379344805" lon="10.442271689374035"><ele>199.0</ele><time>2026-03-29T07:47:42Z</time></trkpt><trkpt lat="45.57678297833099" lon="10.442395268409312"><ele>199.0</ele><time>2026-03-29T07:47:43Z</time></trkpt><trkpt lat="45.5766992391835" lon="10.442525247788296"><ele>199.0</ele><time>2026-03-29T07:47:44Z</time></trkpt><trkpt lat="45.57658357088802" lon="10.442645438676735"><ele>199.0</ele><time>2026-03-29T07:47:45Z</time></trkpt><trkpt lat="45.57650210541461" lon="10.442723394461524"><ele>199.0</ele><time>2026-03-29T07:47:46Z</time></trkpt><trkpt lat="45.57644105218966" lon="10.442779633657796"><ele>199.0</ele><time>2026-03-29T07:47:47Z</time></trkpt><trkpt lat="45.576372955434735" lon="10.442840279067953"><ele>199.0</ele><time>2026-03-29T07:47:48Z</time></trkpt><trkpt lat="45.576274258338024" lon="10.442922549000588"><ele>199.0</ele><time>2026-03-29T07:47:49Z</time></trkpt><trkpt lat="45.57617645293814" lon="10.442987575645974"><ele>199.0</ele><time>2026-03-29T07:47:50Z</time></trkpt><trkpt lat="45.57609824193752" lon="10.443060161691275"><ele>200.0</ele><time>2026-03-29T07:47:51Z</time></trkpt><trkpt lat="45.57605818800922" lon="10.443168710132548"><ele>201.0</ele><time>2026-03-29T07:47:52Z</time></trkpt><trkpt lat="45.57603401780098" lon="10.443293458850697"><ele>202.0</ele><time>2026-03-29T07:47:53Z</time></trkpt><trkpt lat="45.57610237640818" lon="10.443469442414562"><ele>203.0</ele><time>2026-03-29T07:47:54Z</time></trkpt><trkpt lat="45.576042523328965" lon="10.44366771346389"><ele>202.66666666666669</ele><time>2026-03-29T07:47:55Z</time></trkpt><trkpt lat="45.575961304191004" lon="10.443848580972018"><ele>202.33333333333331</ele><time>2026-03-29T07:47:56Z</time></trkpt><trkpt lat="45.575884387835885" lon="10.44408042648931"><ele>202.0</ele><time>2026-03-29T07:47:57Z</time></trkpt><trkpt lat="45.575782416764625" lon="10.444311321276837"><ele>202.0</ele><time>2026-03-29T07:47:58Z</time></trkpt><trkpt lat="45.575707077229175" lon="10.444511315374431"><ele>202.0</ele><time>2026-03-29T07:47:59Z</time></trkpt><trkpt lat="45.575661207856015" lon="10.444691682444214"><ele>202.0</ele><time>2026-03-29T07:48:00Z</time></trkpt><trkpt lat="45.57560784231484" lon="10.444876436138879"><ele>202.0</ele><time>2026-03-29T07:48:01Z</time></trkpt><trkpt lat="45.57551644486677" lon="10.44508202255666"><ele>202.0</ele><time>2026-03-29T07:48:02Z</time></trkpt><trkpt lat="45.57540087530409" lon="10.445288791582794"><ele>202.0</ele><time>2026-03-29T07:48:03Z</time></trkpt><trkpt lat="45.575279995884884" lon="10.445517611435225"><ele>202.0</ele><time>2026-03-29T07:48:04Z</time></trkpt><trkpt lat="45.57515382086766" lon="10.445774975448051"><ele>204.0</ele><time>2026-03-29T07:48:05Z</time></trkpt><trkpt lat="45.57500629607718" lon="10.44604849434682"><ele>206.0</ele><time>2026-03-29T07:48:06Z</time></trkpt><trkpt lat="45.57484698573265" lon="10.446302005203417"><ele>207.5</ele><time>2026-03-29T07:48:07Z</time></trkpt><trkpt lat="45.57467324180943" lon="10.446550218254163"><ele>209.0</ele><time>2026-03-29T07:48:08Z</time></trkpt><trkpt lat="45.57450102130063" lon="10.446788956952975"><ele>209.0</ele><time>2026-03-29T07:48:09Z</time></trkpt><trkpt lat="45.57435394186101" lon="10.446988678767086"><ele>209.0</ele><time>2026-03-29T07:48:10Z</time></trkpt><trkpt lat="45.574221059044156" lon="10.44717407638979"><ele>209.0</ele><time>2026-03-29T07:48:11Z</time></trkpt><trkpt lat="45.57409804774921" lon="10.447354901051416"><ele>210.33333333333334</ele><time>2026-03-29T07:48:12Z</time></trkpt><trkpt lat="45.57397725129866" lon="10.447523812250418"><ele>211.66666666666669</ele><time>2026-03-29T07:48:13Z</time></trkpt><trkpt lat="45.57385168157615" lon="10.447690142035704"><ele>213.0</ele><time>2026-03-29T07:48:14Z</time></trkpt><trkpt lat="45.57372622534387" lon="10.447866440359837"><ele>215.33333333333331</ele><time>2026-03-29T07:48:15Z</time></trkpt><trkpt lat="45.57361973186253" lon="10.448052643628913"><ele>217.66666666666666</ele><time>2026-03-29T07:48:16Z</time></trkpt><trkpt lat="45.57353616543735" lon="10.448252952677645"><ele>220.0</ele><time>2026-03-29T07:48:17Z</time></trkpt><trkpt lat="45.57345637476727" lon="10.44848348097751"><ele>220.0</ele><time>2026-03-29T07:48:18Z</time></trkpt><trkpt lat="45.57338294869133" lon="10.448741699764804"><ele>220.0</ele><time>2026-03-29T07:48:19Z</time></trkpt><trkpt lat="45.573320033751415" lon="10.448991559932388"><ele>220.0</ele><time>2026-03-29T07:48:20Z</time></trkpt><trkpt lat="45.57326393061069" lon="10.449212109414475"><ele>220.5</ele><time>2026-03-29T07:48:21Z</time></trkpt><trkpt lat="45.57320938749555" lon="10.44940765943147"><ele>221.0</ele><time>2026-03-29T07:48:22Z</time></trkpt><trkpt lat="45.57315694529107" lon="10.449585137768262"><ele>221.5</ele><time>2026-03-29T07:48:23Z</time></trkpt><trkpt lat="45.57309190500648" lon="10.449776145728256"><ele>222.0</ele><time>2026-03-29T07:48:24Z</time></trkpt><trkpt lat="45.573009481837204" lon="10.44995863112522"><ele>222.0</ele><time>2026-03-29T07:48:25Z</time></trkpt><trkpt lat="45.572905507613086" lon="10.45012171648051"><ele>222.0</ele><time>2026-03-29T07:48:26Z</time></trkpt><trkpt lat="45.5727767453476" lon="10.450292384283323"><ele>222.0</ele><time>2026-03-29T07:48:27Z</time></trkpt><trkpt lat="45.572631529153234" lon="10.450467837036166"><ele>222.66666666666669</ele><time>2026-03-29T07:48:28Z</time></trkpt><trkpt lat="45.572479444444205" lon="10.45065592646198"><ele>223.33333333333334</ele><time>2026-03-29T07:48:29Z</time></trkpt><trkpt lat="45.57233015310132" lon="10.450854888536359"><ele>224.0</ele><time>2026-03-29T07:48:30Z</time></trkpt><trkpt lat="45.57218588151102" lon="10.451058293138011"><ele>224.0</ele><time>2026-03-29T07:48:31Z</time></trkpt><trkpt lat="45.572043456295425" lon="10.451248663337743"><ele>224.0</ele><time>2026-03-29T07:48:32Z</time></trkpt><trkpt lat="45.57190204048491" lon="10.45142715284311"><ele>224.0</ele><time>2026-03-29T07:48:33Z</time></trkpt><trkpt lat="45.571767652563" lon="10.451614070145059"><ele>224.33333333333334</ele><time>2026-03-29T07:48:34Z</time></trkpt><trkpt lat="45.57164271727192" lon="10.451815493929104"><ele>224.66666666666669</ele><time>2026-03-29T07:48:35Z</time></trkpt><trkpt lat="45.571520002551665" lon="10.4520307457369"><ele>225.0</ele><time>2026-03-29T07:48:36Z</time></trkpt><trkpt lat="45.57139612750953" lon="10.452236288743855"><ele>225.0</ele><time>2026-03-29T07:48:37Z</time></trkpt><trkpt lat="45.571265352170585" lon="10.452436445857911"><ele>225.0</ele><time>2026-03-29T07:48:38Z</time></trkpt><trkpt lat="45.57113499043611" lon="10.45264490561193"><ele>225.0</ele><time>2026-03-29T07:48:39Z</time></trkpt><trkpt lat="45.57100770385782" lon="10.45285404689413"><ele>225.33333333333331</ele><time>2026-03-29T07:48:40Z</time></trkpt><trkpt lat="45.57087529114091" lon="10.453054682655473"><ele>225.66666666666666</ele><time>2026-03-29T07:48:41Z</time></trkpt><trkpt lat="45.57073354055723" lon="10.453243602109902"><ele>226.0</ele><time>2026-03-29T07:48:42Z</time></trkpt><trkpt lat="45.570593926499605" lon="10.453399553635556"><ele>226.0</ele><time>2026-03-29T07:48:43Z</time></trkpt><trkpt lat="45.57044433551042" lon="10.453545035306572"><ele>226.0</ele><time>2026-03-29T07:48:44Z</time></trkpt><trkpt lat="45.57029362125818" lon="10.453694111482054"><ele>226.0</ele><time>2026-03-29T07:48:45Z</time></trkpt><trkpt lat="45.57014184225497" lon="10.45385386398137"><ele>227.33333333333331</ele><time>2026-03-29T07:48:46Z</time></trkpt><trkpt lat="45.569988058937774" lon="10.454019528491008"><ele>228.66666666666669</ele><time>2026-03-29T07:48:47Z</time></trkpt><trkpt lat="45.56983603626707" lon="10.454184530758532"><ele>230.0</ele><time>2026-03-29T07:48:48Z</time></trkpt><trkpt lat="45.56968722444503" lon="10.454347291055088"><ele>230.0</ele><time>2026-03-29T07:48:49Z</time></trkpt><trkpt lat="45.569537068665554" lon="10.454509817237817"><ele>230.0</ele><time>2026-03-29T07:48:50Z</time></trkpt><trkpt lat="45.569394712406364" lon="10.45465897808947"><ele>230.0</ele><time>2026-03-29T07:48:51Z</time></trkpt><trkpt lat="45.56924593405963" lon="10.45480598705531"><ele>231.66666666666669</ele><time>2026-03-29T07:48:52Z</time></trkpt><trkpt lat="45.569091200523836" lon="10.454948965723409"><ele>233.33333333333331</ele><time>2026-03-29T07:48:53Z</time></trkpt><trkpt lat="45.568936041021786" lon="10.455087814279604"><ele>235.0</ele><time>2026-03-29T07:48:54Z</time></trkpt><trkpt lat="45.568777430224955" lon="10.455227766983452"><ele>234.66666666666666</ele><time>2026-03-29T07:48:55Z</time></trkpt><trkpt lat="45.56862140082542" lon="10.455360501702115"><ele>234.33333333333331</ele><time>2026-03-29T07:48:56Z</time></trkpt><trkpt lat="45.56847103499399" lon="10.455488635787672"><ele>234.0</ele><time>2026-03-29T07:48:57Z</time></trkpt><trkpt lat="45.568329367752746" lon="10.455610916092548"><ele>235.0</ele><time>2026-03-29T07:48:58Z</time></trkpt><trkpt lat="45.56818626600039" lon="10.455748634413952"><ele>236.0</ele><time>2026-03-29T07:48:59Z</time></trkpt><trkpt lat="45.56804915363465" lon="10.455893251596853"><ele>237.0</ele><time>2026-03-29T07:49:00Z</time></trkpt><trkpt lat="45.56792627795173" lon="10.456055821447467"><ele>237.25</ele><time>2026-03-29T07:49:01Z</time></trkpt><trkpt lat="45.5678158909914" lon="10.456226649990052"><ele>237.5</ele><time>2026-03-29T07:49:02Z</time></trkpt><trkpt lat="45.56772224218081" lon="10.456379100543343"><ele>237.75</ele><time>2026-03-29T07:49:03Z</time></trkpt><trkpt lat="45.56763465664542" lon="10.456522697635389"><ele>238.0</ele><time>2026-03-29T07:49:04Z</time></trkpt><trkpt lat="45.567538006397136" lon="10.456678422273162"><ele>238.0</ele><time>2026-03-29T07:49:05Z</time></trkpt><trkpt lat="45.56743815442478" lon="10.456836794456835"><ele>238.0</ele><time>2026-03-29T07:49:06Z</time></trkpt><trkpt lat="45.567345536986494" lon="10.456987416492646"><ele>238.0</ele><time>2026-03-29T07:49:07Z</time></trkpt><trkpt lat="45.56726232656896" lon="10.457122106139652"><ele>238.0</ele><time>2026-03-29T07:49:08Z</time></trkpt><trkpt lat="45.567182166182775" lon="10.457251161190346"><ele>238.25</ele><time>2026-03-29T07:49:09Z</time></trkpt><trkpt lat="45.56709512288159" lon="10.457390982598453"><ele>238.5</ele><time>2026-03-29T07:49:10Z</time></trkpt><trkpt lat="45.56700134222533" lon="10.457538973873898"><ele>238.75</ele><time>2026-03-29T07:49:11Z</time></trkpt><trkpt lat="45.566892389192034" lon="10.457702360062315"><ele>239.0</ele><time>2026-03-29T07:49:12Z</time></trkpt><trkpt lat="45.56678019616275" lon="10.457863978508627"><ele>238.0</ele><time>2026-03-29T07:49:13Z</time></trkpt><trkpt lat="45.56666937501435" lon="10.458026634754223"><ele>237.0</ele><time>2026-03-29T07:49:14Z</time></trkpt><trkpt lat="45.566558331011336" lon="10.458177925378205"><ele>236.0</ele><time>2026-03-29T07:49:15Z</time></trkpt><trkpt lat="45.566457051970666" lon="10.458312217619454"><ele>236.0</ele><time>2026-03-29T07:49:16Z</time></trkpt><trkpt lat="45.56636488022167" lon="10.458447428734315"><ele>236.0</ele><time>2026-03-29T07:49:17Z</time></trkpt><trkpt lat="45.56627436568466" lon="10.458569811022272"><ele>236.0</ele><time>2026-03-29T07:49:18Z</time></trkpt><trkpt lat="45.5661829064247" lon="10.458663512909899"><ele>236.0</ele><time>2026-03-29T07:49:19Z</time></trkpt><trkpt lat="45.566087253682774" lon="10.458715085014514"><ele>236.60000000000002</ele><time>2026-03-29T07:49:20Z</time></trkpt><trkpt lat="45.565991401517714" lon="10.458709488838531"><ele>237.20000000000002</ele><time>2026-03-29T07:49:21Z</time></trkpt><trkpt lat="45.565892916856754" lon="10.458682322194548"><ele>237.79999999999998</ele><time>2026-03-29T07:49:22Z</time></trkpt><trkpt lat="45.56579992371106" lon="10.458632717632469"><ele>238.39999999999998</ele><time>2026-03-29T07:49:23Z</time></trkpt><trkpt lat="45.565723227309974" lon="10.458577152210243"><ele>239.0</ele><time>2026-03-29T07:49:24Z</time></trkpt><trkpt lat="45.56564272344061" lon="10.458531882363902"><ele>239.0</ele><time>2026-03-29T07:49:25Z</time></trkpt><trkpt lat="45.56555667178268" lon="10.458503744249072"><ele>238.99999999999997</ele><time>2026-03-29T07:49:26Z</time></trkpt><trkpt lat="45.5654616977412" lon="10.458478787294153"><ele>238.99999999999997</ele><time>2026-03-29T07:49:27Z</time></trkpt><trkpt lat="45.56536906913181" lon="10.45844985486369"><ele>239.0</ele><time>2026-03-29T07:49:28Z</time></trkpt><trkpt lat="45.5652764947511" lon="10.45842857968653"><ele>239.0</ele><time>2026-03-29T07:49:29Z</time></trkpt><trkpt lat="45.565190869346" lon="10.458427526636488"><ele>238.83333333333334</ele><time>2026-03-29T07:49:30Z</time></trkpt><trkpt lat="45.565111746193374" lon="10.45838209526095"><ele>238.66666666666669</ele><time>2026-03-29T07:49:31Z</time></trkpt><trkpt lat="45.56504069580449" lon="10.458348661422596"><ele>238.5</ele><time>2026-03-29T07:49:32Z</time></trkpt><trkpt lat="45.56496811408566" lon="10.458308787642949"><ele>238.33333333333331</ele><time>2026-03-29T07:49:33Z</time></trkpt><trkpt lat="45.564869368540975" lon="10.458269521644178"><ele>238.16666666666666</ele><time>2026-03-29T07:49:34Z</time></trkpt><trkpt lat="45.56478713386702" lon="10.458220956758764"><ele>238.0</ele><time>2026-03-29T07:49:35Z</time></trkpt><trkpt lat="45.5647029353413" lon="10.458158632260854"><ele>238.0</ele><time>2026-03-29T07:49:36Z</time></trkpt><trkpt lat="45.56461422159017" lon="10.458098889258162"><ele>238.0</ele><time>2026-03-29T07:49:37Z</time></trkpt><trkpt lat="45.56451525507037" lon="10.45803006819484"><ele>238.0</ele><time>2026-03-29T07:49:38Z</time></trkpt><trkpt lat="45.5644111071926" lon="10.457976391424145"><ele>238.0</ele><time>2026-03-29T07:49:39Z</time></trkpt><trkpt lat="45.56432378247744" lon="10.45791296182902"><ele>238.0</ele><time>2026-03-29T07:49:40Z</time></trkpt><trkpt lat="45.564221510321524" lon="10.457855777332076"><ele>237.5</ele><time>2026-03-29T07:49:41Z</time></trkpt><trkpt lat="45.564114967231646" lon="10.457798695536546"><ele>237.0</ele><time>2026-03-29T07:49:42Z</time></trkpt><trkpt lat="45.56400261446277" lon="10.457759602944943"><ele>236.5</ele><time>2026-03-29T07:49:43Z</time></trkpt><trkpt lat="45.56388734462581" lon="10.457690769041745"><ele>236.0</ele><time>2026-03-29T07:49:44Z</time></trkpt><trkpt lat="45.56376353077629" lon="10.4576344625576"><ele>236.0</ele><time>2026-03-29T07:49:45Z</time></trkpt><trkpt lat="45.56365160965547" lon="10.457577122545905"><ele>236.00000000000003</ele><time>2026-03-29T07:49:46Z</time></trkpt><trkpt lat="45.56356598125342" lon="10.457538619334755"><ele>236.00000000000003</ele><time>2026-03-29T07:49:47Z</time></trkpt><trkpt lat="45.56349016828645" lon="10.457507189405701"><ele>236.0</ele><time>2026-03-29T07:49:48Z</time></trkpt><trkpt lat="45.563368939053746" lon="10.45749592959021"><ele>236.0</ele><time>2026-03-29T07:49:50Z</time></trkpt><trkpt lat="45.563281070849115" lon="10.457597266444841"><ele>236.0</ele><time>2026-03-29T07:49:52Z</time></trkpt><trkpt lat="45.56325150813764" lon="10.457740652171584"><ele>236.00000000000003</ele><time>2026-03-29T07:49:54Z</time></trkpt><trkpt lat="45.56322684905057" lon="10.457931234460338"><ele>236.00000000000003</ele><time>2026-03-29T07:49:56Z</time></trkpt><trkpt lat="45.56321624178257" lon="10.458042995302119"><ele>236.0</ele><time>2026-03-29T07:49:57Z</time></trkpt><trkpt lat="45.56319960472709" lon="10.458186969165883"><ele>236.0</ele><time>2026-03-29T07:49:58Z</time></trkpt><trkpt lat="45.563188107978256" lon="10.45831301405553"><ele>236.60000000000002</ele><time>2026-03-29T07:49:59Z</time></trkpt><trkpt lat="45.56316956754783" lon="10.458443744068411"><ele>237.20000000000002</ele><time>2026-03-29T07:50:00Z</time></trkpt><trkpt lat="45.5631434159793" lon="10.458583752415057"><ele>237.79999999999998</ele><time>2026-03-29T07:50:01Z</time></trkpt><trkpt lat="45.563111908480515" lon="10.458745951996026"><ele>238.39999999999998</ele><time>2026-03-29T07:50:02Z</time></trkpt><trkpt lat="45.56306912096383" lon="10.458929406086005"><ele>239.0</ele><time>2026-03-29T07:50:03Z</time></trkpt><trkpt lat="45.563021368733104" lon="10.459116689035707"><ele>239.5</ele><time>2026-03-29T07:50:04Z</time></trkpt><trkpt lat="45.56297145264069" lon="10.459315907176993"><ele>240.0</ele><time>2026-03-29T07:50:05Z</time></trkpt><trkpt lat="45.562915343302215" lon="10.459522540056463"><ele>240.5</ele><time>2026-03-29T07:50:06Z</time></trkpt><trkpt lat="45.562866222829484" lon="10.459709525022921"><ele>241.0</ele><time>2026-03-29T07:50:07Z</time></trkpt><trkpt lat="45.56282215834782" lon="10.45985356964339"><ele>241.25</ele><time>2026-03-29T07:50:08Z</time></trkpt><trkpt lat="45.56279353024134" lon="10.459971557103312"><ele>241.5</ele><time>2026-03-29T07:50:09Z</time></trkpt><trkpt lat="45.56278018608672" lon="10.460082314054423"><ele>241.75</ele><time>2026-03-29T07:50:11Z</time></trkpt><trkpt lat="45.56259426606112" lon="10.459954289470511"><ele>242.0</ele><time>2026-03-29T07:50:17Z</time></trkpt><trkpt lat="45.56243308699822" lon="10.459916754909022"><ele>242.0</ele><time>2026-03-29T07:50:18Z</time></trkpt><trkpt lat="45.562292827980095" lon="10.459866215612333"><ele>242.0</ele><time>2026-03-29T07:50:19Z</time></trkpt><trkpt lat="45.562160813029934" lon="10.459818826676976"><ele>242.0</ele><time>2026-03-29T07:50:20Z</time></trkpt><trkpt lat="45.56201912848312" lon="10.459762449789688"><ele>242.0</ele><time>2026-03-29T07:50:21Z</time></trkpt><trkpt lat="45.56187476142143" lon="10.45969415922279"><ele>241.33333333333334</ele><time>2026-03-29T07:50:22Z</time></trkpt><trkpt lat="45.5617293130426" lon="10.459622455468475"><ele>240.66666666666669</ele><time>2026-03-29T07:50:23Z</time></trkpt><trkpt lat="45.56158411037909" lon="10.459546289681022"><ele>240.0</ele><time>2026-03-29T07:50:24Z</time></trkpt><trkpt lat="45.56144875388199" lon="10.45948318994267"><ele>239.5</ele><time>2026-03-29T07:50:25Z</time></trkpt><trkpt lat="45.5613105842381" lon="10.459429782116025"><ele>239.0</ele><time>2026-03-29T07:50:26Z</time></trkpt><trkpt lat="45.56116573690268" lon="10.459382959527263"><ele>238.5</ele><time>2026-03-29T07:50:27Z</time></trkpt><trkpt lat="45.56102086108292" lon="10.459350931456907"><ele>238.0</ele><time>2026-03-29T07:50:28Z</time></trkpt><trkpt lat="45.5608736072786" lon="10.459345232673288"><ele>236.66666666666666</ele><time>2026-03-29T07:50:29Z</time></trkpt><trkpt lat="45.56072436890158" lon="10.45933620572334"><ele>235.33333333333331</ele><time>2026-03-29T07:50:30Z</time></trkpt><trkpt lat="45.56056538167135" lon="10.45932064382528"><ele>234.0</ele><time>2026-03-29T07:50:31Z</time></trkpt><trkpt lat="45.56040454887921" lon="10.45930804228473"><ele>233.5</ele><time>2026-03-29T07:50:32Z</time></trkpt><trkpt lat="45.56024127098686" lon="10.45929425104576"><ele>233.0</ele><time>2026-03-29T07:50:33Z</time></trkpt><trkpt lat="45.56009444292733" lon="10.459276581094016"><ele>232.5</ele><time>2026-03-29T07:50:34Z</time></trkpt><trkpt lat="45.55998554037468" lon="10.459209630866441"><ele>232.0</ele><time>2026-03-29T07:50:35Z</time></trkpt><trkpt lat="45.5599091714182" lon="10.459128416364141"><ele>232.0</ele><time>2026-03-29T07:50:36Z</time></trkpt><trkpt lat="45.559844649483665" lon="10.459009170967319"><ele>232.0</ele><time>2026-03-29T07:50:37Z</time></trkpt><trkpt lat="45.55982428970199" lon="10.458831629891394"><ele>232.0</ele><time>2026-03-29T07:50:38Z</time></trkpt><trkpt lat="45.55983973465149" lon="10.45865250861281"><ele>232.0</ele><time>2026-03-29T07:50:39Z</time></trkpt><trkpt lat="45.559853893525336" lon="10.458422001999665"><ele>231.33333333333331</ele><time>2026-03-29T07:50:40Z</time></trkpt><trkpt lat="45.55986951109797" lon="10.458164976368117"><ele>230.66666666666669</ele><time>2026-03-29T07:50:41Z</time></trkpt><trkpt lat="45.55988597685734" lon="10.457900801817026"><ele>230.0</ele><time>2026-03-29T07:50:42Z</time></trkpt><trkpt lat="45.559903585052275" lon="10.45762024265311"><ele>230.0</ele><time>2026-03-29T07:50:43Z</time></trkpt><trkpt lat="45.55992251059447" lon="10.45731869424966"><ele>230.0</ele><time>2026-03-29T07:50:44Z</time></trkpt><trkpt lat="45.559940856221345" lon="10.45703245887343"><ele>230.0</ele><time>2026-03-29T07:50:45Z</time></trkpt><trkpt lat="45.55995742310997" lon="10.456781424635896"><ele>230.0</ele><time>2026-03-29T07:50:46Z</time></trkpt><trkpt lat="45.55997028095054" lon="10.456586592555787"><ele>230.0</ele><time>2026-03-29T07:50:47Z</time></trkpt><trkpt lat="45.55998453524166" lon="10.456378490565648"><ele>230.0</ele><time>2026-03-29T07:50:48Z</time></trkpt><trkpt lat="45.56000121781127" lon="10.456141622482962"><ele>230.0</ele><time>2026-03-29T07:50:49Z</time></trkpt><trkpt lat="45.56001885421691" lon="10.45587787510638"><ele>230.0</ele><time>2026-03-29T07:50:50Z</time></trkpt><trkpt lat="45.56003594190655" lon="10.455620445266"><ele>230.0</ele><time>2026-03-29T07:50:51Z</time></trkpt><trkpt lat="45.56004996838877" lon="10.455393430091446"><ele>230.0</ele><time>2026-03-29T07:50:52Z</time></trkpt><trkpt lat="45.56006015971669" lon="10.455207544871213"><ele>230.0</ele><time>2026-03-29T07:50:53Z</time></trkpt><trkpt lat="45.56006566969548" lon="10.45508875237187"><ele>230.0</ele><time>2026-03-29T07:50:54Z</time></trkpt><trkpt lat="45.56007120202694" lon="10.454973146021079"><ele>230.0</ele><time>2026-03-29T07:50:56Z</time></trkpt><trkpt lat="45.55988316163228" lon="10.454996364145419"><ele>230.0</ele><time>2026-03-29T07:50:58Z</time></trkpt><trkpt lat="45.55978121883217" lon="10.45503295443035"><ele>230.0</ele><time>2026-03-29T07:50:59Z</time></trkpt><trkpt lat="45.55964806377526" lon="10.455029238630962"><ele>230.0</ele><time>2026-03-29T07:51:00Z</time></trkpt><trkpt lat="45.55951049442433" lon="10.455038875541181"><ele>230.0</ele><time>2026-03-29T07:51:01Z</time></trkpt><trkpt lat="45.55936666462177" lon="10.455081180722871"><ele>229.0</ele><time>2026-03-29T07:51:02Z</time></trkpt><trkpt lat="45.55920187941049" lon="10.455086202166784"><ele>228.0</ele><time>2026-03-29T07:51:03Z</time></trkpt><trkpt lat="45.55901618101341" lon="10.455061248158376"><ele>227.0</ele><time>2026-03-29T07:51:04Z</time></trkpt><trkpt lat="45.55882251532818" lon="10.455054905787375"><ele>225.66666666666669</ele><time>2026-03-29T07:51:05Z</time></trkpt><trkpt lat="45.55864839809793" lon="10.455076116272947"><ele>224.33333333333331</ele><time>2026-03-29T07:51:06Z</time></trkpt><trkpt lat="45.55848902054532" lon="10.455128926481631"><ele>223.0</ele><time>2026-03-29T07:51:07Z</time></trkpt><trkpt lat="45.55834820261145" lon="10.455165631268706"><ele>223.0</ele><time>2026-03-29T07:51:08Z</time></trkpt><trkpt lat="45.55819857170537" lon="10.455208227687837"><ele>223.0</ele><time>2026-03-29T07:51:09Z</time></trkpt><trkpt lat="45.5580614250984" lon="10.45525569358349"><ele>223.0</ele><time>2026-03-29T07:51:10Z</time></trkpt><trkpt lat="45.55793973949536" lon="10.455291882402074"><ele>223.0</ele><time>2026-03-29T07:51:11Z</time></trkpt><trkpt lat="45.55783780625524" lon="10.455320241076542"><ele>224.0</ele><time>2026-03-29T07:51:12Z</time></trkpt><trkpt lat="45.55775439060232" lon="10.455375738195944"><ele>225.0</ele><time>2026-03-29T07:51:13Z</time></trkpt><trkpt lat="45.55769756457942" lon="10.455474553307786"><ele>226.0</ele><time>2026-03-29T07:51:14Z</time></trkpt><trkpt lat="45.557672608135256" lon="10.455612123080162"><ele>227.0</ele><time>2026-03-29T07:51:15Z</time></trkpt><trkpt lat="45.55766825607578" lon="10.455767057002467"><ele>228.0</ele><time>2026-03-29T07:51:16Z</time></trkpt><trkpt lat="45.55766976357866" lon="10.455937299704566"><ele>228.0</ele><time>2026-03-29T07:51:17Z</time></trkpt><trkpt lat="45.557659129672764" lon="10.456115528147302"><ele>228.0</ele><time>2026-03-29T07:51:18Z</time></trkpt><trkpt lat="45.55763128318268" lon="10.45628426997019"><ele>228.0</ele><time>2026-03-29T07:51:19Z</time></trkpt><trkpt lat="45.55758207062961" lon="10.456431134543339"><ele>228.0</ele><time>2026-03-29T07:51:20Z</time></trkpt><trkpt lat="45.557519269104475" lon="10.456567054602953"><ele>228.75</ele><time>2026-03-29T07:51:21Z</time></trkpt><trkpt lat="45.55743884253028" lon="10.456674931360569"><ele>229.5</ele><time>2026-03-29T07:51:22Z</time></trkpt><trkpt lat="45.55734066132865" lon="10.456760300947975"><ele>230.25</ele><time>2026-03-29T07:51:23Z</time></trkpt><trkpt lat="45.557222097501885" lon="10.456856333340056"><ele>231.0</ele><time>2026-03-29T07:51:24Z</time></trkpt><trkpt lat="45.557100711446274" lon="10.456961414119853"><ele>232.5</ele><time>2026-03-29T07:51:25Z</time></trkpt><trkpt lat="45.556986384871394" lon="10.457080046469002"><ele>234.0</ele><time>2026-03-29T07:51:26Z</time></trkpt><trkpt lat="45.55687389496709" lon="10.457206035556421"><ele>235.5</ele><time>2026-03-29T07:51:27Z</time></trkpt><trkpt lat="45.55676806288688" lon="10.457317388669034"><ele>237.0</ele><time>2026-03-29T07:51:28Z</time></trkpt><trkpt lat="45.5566446998223" lon="10.457387931698644"><ele>237.16666666666666</ele><time>2026-03-29T07:51:29Z</time></trkpt><trkpt lat="45.5565400689845" lon="10.457442920903569"><ele>237.33333333333331</ele><time>2026-03-29T07:51:30Z</time></trkpt><trkpt lat="45.556461571649734" lon="10.457481005415515"><ele>237.5</ele><time>2026-03-29T07:51:31Z</time></trkpt><trkpt lat="45.556391407284714" lon="10.457525138807505"><ele>237.66666666666666</ele><time>2026-03-29T07:51:32Z</time></trkpt><trkpt lat="45.55633017855667" lon="10.457594518040628"><ele>237.83333333333331</ele><time>2026-03-29T07:51:33Z</time></trkpt><trkpt lat="45.5562615909181" lon="10.457639013954402"><ele>238.0</ele><time>2026-03-29T07:51:34Z</time></trkpt><trkpt lat="45.55618053659812" lon="10.457717620422835"><ele>238.0</ele><time>2026-03-29T07:51:35Z</time></trkpt><trkpt lat="45.55609467482149" lon="10.457813860851468"><ele>238.0</ele><time>2026-03-29T07:51:36Z</time></trkpt><trkpt lat="45.55600380681086" lon="10.457937703782873"><ele>238.0</ele><time>2026-03-29T07:51:37Z</time></trkpt><trkpt lat="45.555933379916276" lon="10.458071278554801"><ele>238.0</ele><time>2026-03-29T07:51:38Z</time></trkpt><trkpt lat="45.55588302477896" lon="10.458222340962726"><ele>239.8</ele><time>2026-03-29T07:51:39Z</time></trkpt><trkpt lat="45.55583223350107" lon="10.458346124525768"><ele>241.60000000000002</ele><time>2026-03-29T07:51:40Z</time></trkpt><trkpt lat="45.55575883864697" lon="10.458398254725703"><ele>243.39999999999998</ele><time>2026-03-29T07:51:41Z</time></trkpt><trkpt lat="45.55568572541542" lon="10.458425239255543"><ele>245.2</ele><time>2026-03-29T07:51:42Z</time></trkpt><trkpt lat="45.55557439939765" lon="10.458484122614701"><ele>247.0</ele><time>2026-03-29T07:51:43Z</time></trkpt><trkpt lat="45.55542847178953" lon="10.458562180343806"><ele>245.66666666666666</ele><time>2026-03-29T07:51:44Z</time></trkpt><trkpt lat="45.555262417077074" lon="10.45866896046073"><ele>244.33333333333331</ele><time>2026-03-29T07:51:45Z</time></trkpt><trkpt lat="45.55508726297243" lon="10.458758486137741"><ele>243.0</ele><time>2026-03-29T07:51:46Z</time></trkpt><trkpt lat="45.554924628171506" lon="10.458833764262012"><ele>243.25</ele><time>2026-03-29T07:51:47Z</time></trkpt><trkpt lat="45.55477776023536" lon="10.458897481578418"><ele>243.5</ele><time>2026-03-29T07:51:48Z</time></trkpt><trkpt lat="45.5546574374805" lon="10.458957212868809"><ele>243.75</ele><time>2026-03-29T07:51:49Z</time></trkpt><trkpt lat="45.55454869779212" lon="10.459028277496111"><ele>244.0</ele><time>2026-03-29T07:51:50Z</time></trkpt><trkpt lat="45.5544592357307" lon="10.459114653576561"><ele>244.0</ele><time>2026-03-29T07:51:51Z</time></trkpt><trkpt lat="45.554394226445964" lon="10.459213250456262"><ele>243.99999999999997</ele><time>2026-03-29T07:51:52Z</time></trkpt><trkpt lat="45.55435375951997" lon="10.45932023238035"><ele>243.99999999999997</ele><time>2026-03-29T07:51:53Z</time></trkpt><trkpt lat="45.554332168709884" lon="10.45943758311986"><ele>244.0</ele><time>2026-03-29T07:51:54Z</time></trkpt><trkpt lat="45.55433156512239" lon="10.45958395914457"><ele>244.0</ele><time>2026-03-29T07:51:55Z</time></trkpt><trkpt lat="45.55433654409656" lon="10.459750508754029"><ele>245.25</ele><time>2026-03-29T07:51:56Z</time></trkpt><trkpt lat="45.55433739929842" lon="10.45993822919204"><ele>246.5</ele><time>2026-03-29T07:51:57Z</time></trkpt><trkpt lat="45.554334272589934" lon="10.460144554583202"><ele>247.75</ele><time>2026-03-29T07:51:58Z</time></trkpt><trkpt lat="45.55433097022969" lon="10.460340682322903"><ele>249.0</ele><time>2026-03-29T07:51:59Z</time></trkpt><trkpt lat="45.55432446622154" lon="10.460468201782511"><ele>249.0</ele><time>2026-03-29T07:52:00Z</time></trkpt><trkpt lat="45.55432273400426" lon="10.460567156500195"><ele>248.99999999999997</ele><time>2026-03-29T07:52:02Z</time></trkpt><trkpt lat="45.55432764214858" lon="10.460460908237025"><ele>248.99999999999997</ele><time>2026-03-29T07:52:12Z</time></trkpt><trkpt lat="45.554329971289235" lon="10.46028289840033"><ele>249.0</ele><time>2026-03-29T07:52:13Z</time></trkpt><trkpt lat="45.55433265745686" lon="10.46009274283632"><ele>249.0</ele><time>2026-03-29T07:52:14Z</time></trkpt><trkpt lat="45.5543401103144" lon="10.459894399325428"><ele>249.0</ele><time>2026-03-29T07:52:15Z</time></trkpt><trkpt lat="45.554345840833506" lon="10.459721130592154"><ele>249.0</ele><time>2026-03-29T07:52:16Z</time></trkpt><trkpt lat="45.55435065628135" lon="10.45956067105599"><ele>249.0</ele><time>2026-03-29T07:52:17Z</time></trkpt><trkpt lat="45.55438098829201" lon="10.459452298014332"><ele>249.0</ele><time>2026-03-29T07:52:18Z</time></trkpt><trkpt lat="45.55424603658713" lon="10.459394698251446"><ele>249.0</ele><time>2026-03-29T07:52:23Z</time></trkpt><trkpt lat="45.554137600658244" lon="10.459479228951789"><ele>248.99999999999997</ele><time>2026-03-29T07:52:25Z</time></trkpt><trkpt lat="45.55406426062492" lon="10.459568245120618"><ele>248.99999999999997</ele><time>2026-03-29T07:52:26Z</time></trkpt><trkpt lat="45.55399000180724" lon="10.459669203795798"><ele>249.0</ele><time>2026-03-29T07:52:27Z</time></trkpt><trkpt lat="45.553935291364546" lon="10.459739641224369"><ele>249.0</ele><time>2026-03-29T07:52:28Z</time></trkpt><trkpt lat="45.553879085093705" lon="10.459803763633843"><ele>249.0</ele><time>2026-03-29T07:52:29Z</time></trkpt><trkpt lat="45.55382546084896" lon="10.459890426599243"><ele>248.99999999999997</ele><time>2026-03-29T07:52:30Z</time></trkpt><trkpt lat="45.553761384906764" lon="10.460009809674833"><ele>248.99999999999997</ele><time>2026-03-29T07:52:31Z</time></trkpt><trkpt lat="45.553701660422135" lon="10.460129189061838"><ele>249.0</ele><time>2026-03-29T07:52:32Z</time></trkpt><trkpt lat="45.55365573550615" lon="10.46022923789724"><ele>249.0</ele><time>2026-03-29T07:52:33Z</time></trkpt><trkpt lat="45.553608268653605" lon="10.460342551244528"><ele>248.16666666666666</ele><time>2026-03-29T07:52:34Z</time></trkpt><trkpt lat="45.55356473603547" lon="10.46045215857179"><ele>247.33333333333331</ele><time>2026-03-29T07:52:35Z</time></trkpt><trkpt lat="45.55352379695052" lon="10.460556846882186"><ele>246.5</ele><time>2026-03-29T07:52:36Z</time></trkpt><trkpt lat="45.55347079777596" lon="10.460653298169404"><ele>245.66666666666666</ele><time>2026-03-29T07:52:37Z</time></trkpt><trkpt lat="45.553417470571105" lon="10.4607516484501"><ele>244.83333333333331</ele><time>2026-03-29T07:52:38Z</time></trkpt><trkpt lat="45.55336421886272" lon="10.460828811263367"><ele>244.0</ele><time>2026-03-29T07:52:39Z</time></trkpt><trkpt lat="45.553268224961805" lon="10.460912189378918"><ele>243.99999999999997</ele><time>2026-03-29T07:52:41Z</time></trkpt><trkpt lat="45.55314135619772" lon="10.46096502752385"><ele>244.0</ele><time>2026-03-29T07:52:43Z</time></trkpt><trkpt lat="45.553062670638276" lon="10.460989944803128"><ele>244.0</ele><time>2026-03-29T07:52:44Z</time></trkpt><trkpt lat="45.55299243360112" lon="10.46100323621304"><ele>244.0</ele><time>2026-03-29T07:52:45Z</time></trkpt><trkpt lat="45.55290600304828" lon="10.461038703930946"><ele>243.99999999999997</ele><time>2026-03-29T07:52:47Z</time></trkpt><trkpt lat="45.55289801704385" lon="10.461145865673494"><ele>244.0</ele><time>2026-03-29T07:52:49Z</time></trkpt><trkpt lat="45.55290370135391" lon="10.461332596270786"><ele>244.0</ele><time>2026-03-29T07:52:51Z</time></trkpt><trkpt lat="45.5528917330325" lon="10.461432990792758"><ele>243.99999999999997</ele><time>2026-03-29T07:52:52Z</time></trkpt><trkpt lat="45.552860086349476" lon="10.461534066851003"><ele>243.99999999999997</ele><time>2026-03-29T07:52:54Z</time></trkpt><trkpt lat="45.55278655173242" lon="10.461576813440647"><ele>244.0</ele><time>2026-03-29T07:52:57Z</time></trkpt><trkpt lat="45.55264018444617" lon="10.461568898787377"><ele>244.0</ele><time>2026-03-29T07:52:59Z</time></trkpt><trkpt lat="45.55254457284639" lon="10.461576977140789"><ele>244.0</ele><time>2026-03-29T07:53:00Z</time></trkpt><trkpt lat="45.55245389770578" lon="10.461596758552004"><ele>243.99999999999997</ele><time>2026-03-29T07:53:01Z</time></trkpt><trkpt lat="45.552377724595296" lon="10.461608146805167"><ele>243.99999999999997</ele><time>2026-03-29T07:53:02Z</time></trkpt><trkpt lat="45.55227687298969" lon="10.461576072029208"><ele>244.0</ele><time>2026-03-29T07:53:04Z</time></trkpt><trkpt lat="45.552198623761655" lon="10.461444574100105"><ele>244.0</ele><time>2026-03-29T07:53:06Z</time></trkpt><trkpt lat="45.55210013253665" lon="10.461336737819042"><ele>244.39999999999998</ele><time>2026-03-29T07:53:08Z</time></trkpt><trkpt lat="45.55198025449697" lon="10.461293144873471"><ele>244.79999999999998</ele><time>2026-03-29T07:53:10Z</time></trkpt><trkpt lat="45.55191897275372" lon="10.46115362988578"><ele>245.20000000000002</ele><time>2026-03-29T07:53:12Z</time></trkpt><trkpt lat="45.55184703997902" lon="10.46103212666034"><ele>245.60000000000002</ele><time>2026-03-29T07:53:14Z</time></trkpt><trkpt lat="45.55176992782139" lon="10.460987548490708"><ele>246.0</ele><time>2026-03-29T07:53:15Z</time></trkpt><trkpt lat="45.55167829749149" lon="10.460964071217258"><ele>245.20000000000002</ele><time>2026-03-29T07:53:16Z</time></trkpt><trkpt lat="45.55157032061331" lon="10.460946240531765"><ele>244.40000000000003</ele><time>2026-03-29T07:53:17Z</time></trkpt><trkpt lat="45.55146665703529" lon="10.460956855468664"><ele>243.6</ele><time>2026-03-29T07:53:18Z</time></trkpt><trkpt lat="45.55138425907206" lon="10.460989070193492"><ele>242.8</ele><time>2026-03-29T07:53:19Z</time></trkpt><trkpt lat="45.551256017819995" lon="10.461022020911162"><ele>242.0</ele><time>2026-03-29T07:53:20Z</time></trkpt><trkpt lat="45.55112726495848" lon="10.461057613021584"><ele>241.83333333333334</ele><time>2026-03-29T07:53:21Z</time></trkpt><trkpt lat="45.55102702499722" lon="10.46121993302341"><ele>241.66666666666669</ele><time>2026-03-29T07:53:22Z</time></trkpt><trkpt lat="45.550951479905365" lon="10.46121778368339"><ele>241.5</ele><time>2026-03-29T07:53:23Z</time></trkpt><trkpt lat="45.550884473703434" lon="10.461215262261087"><ele>241.33333333333331</ele><time>2026-03-29T07:53:24Z</time></trkpt><trkpt lat="45.550810671626394" lon="10.461211622853579"><ele>241.16666666666666</ele><time>2026-03-29T07:53:25Z</time></trkpt><trkpt lat="45.55073518539435" lon="10.461175306135601"><ele>241.0</ele><time>2026-03-29T07:53:27Z</time></trkpt><trkpt lat="45.55073099340405" lon="10.460783575875146"><ele>240.99999999999997</ele><time>2026-03-29T07:53:28Z</time></trkpt><trkpt lat="45.55072909940172" lon="10.460674715421378"><ele>241.0</ele><time>2026-03-29T07:53:29Z</time></trkpt><trkpt lat="45.55072998611882" lon="10.460541902397406"><ele>241.0</ele><time>2026-03-29T07:53:30Z</time></trkpt><trkpt lat="45.550724231646356" lon="10.460442694480562"><ele>241.0</ele><time>2026-03-29T07:53:31Z</time></trkpt><trkpt lat="45.550712900949996" lon="10.460353002413001"><ele>240.99999999999997</ele><time>2026-03-29T07:53:32Z</time></trkpt><trkpt lat="45.550666118097595" lon="10.460252768548408"><ele>241.0</ele><time>2026-03-29T07:53:34Z</time></trkpt><trkpt lat="45.55058115189766" lon="10.460224682956822"><ele>240.60000000000002</ele><time>2026-03-29T07:53:36Z</time></trkpt><trkpt lat="45.550517604399" lon="10.460221555815048"><ele>240.20000000000002</ele><time>2026-03-29T07:53:37Z</time></trkpt><trkpt lat="45.550435216367546" lon="10.460247561201944"><ele>239.79999999999998</ele><time>2026-03-29T07:53:38Z</time></trkpt><trkpt lat="45.55031958693973" lon="10.460273836796647"><ele>239.39999999999998</ele><time>2026-03-29T07:53:39Z</time></trkpt><trkpt lat="45.55020079991443" lon="10.460302799968513"><ele>239.0</ele><time>2026-03-29T07:53:40Z</time></trkpt><trkpt lat="45.550066744612074" lon="10.460332370458039"><ele>239.0</ele><time>2026-03-29T07:53:41Z</time></trkpt><trkpt lat="45.549918057293304" lon="10.460356010063629"><ele>239.0</ele><time>2026-03-29T07:53:42Z</time></trkpt><trkpt lat="45.549771250628986" lon="10.460385349589025"><ele>239.0</ele><time>2026-03-29T07:53:43Z</time></trkpt><trkpt lat="45.54964320476659" lon="10.460409287323557"><ele>239.0</ele><time>2026-03-29T07:53:44Z</time></trkpt><trkpt lat="45.549542318635844" lon="10.460426822700835"><ele>240.0</ele><time>2026-03-29T07:53:45Z</time></trkpt><trkpt lat="45.5494712097405" lon="10.460437405164729"><ele>240.99999999999997</ele><time>2026-03-29T07:53:46Z</time></trkpt><trkpt lat="45.54940816709192" lon="10.460420257374663"><ele>241.99999999999997</ele><time>2026-03-29T07:53:48Z</time></trkpt><trkpt lat="45.5493415891438" lon="10.46027813320273"><ele>243.0</ele><time>2026-03-29T07:53:50Z</time></trkpt><trkpt lat="45.549281585259756" lon="10.460101376865174"><ele>244.0</ele><time>2026-03-29T07:53:51Z</time></trkpt><trkpt lat="45.54918705396574" lon="10.459933657320333"><ele>244.0</ele><time>2026-03-29T07:53:52Z</time></trkpt><trkpt lat="45.54905076450295" lon="10.459770235887605"><ele>244.0</ele><time>2026-03-29T07:53:53Z</time></trkpt><trkpt lat="45.54889840317753" lon="10.459619192631703"><ele>244.0</ele><time>2026-03-29T07:53:54Z</time></trkpt><trkpt lat="45.54877206011897" lon="10.459493865562631"><ele>244.25</ele><time>2026-03-29T07:53:55Z</time></trkpt><trkpt lat="45.548661564041566" lon="10.459379061242261"><ele>244.5</ele><time>2026-03-29T07:53:56Z</time></trkpt><trkpt lat="45.54855161362816" lon="10.459269259326613"><ele>244.75</ele><time>2026-03-29T07:53:57Z</time></trkpt><trkpt lat="45.54844907236736" lon="10.459154629807841"><ele>245.0</ele><time>2026-03-29T07:53:58Z</time></trkpt><trkpt lat="45.54836822743889" lon="10.459055162010836"><ele>245.00000000000003</ele><time>2026-03-29T07:53:59Z</time></trkpt><trkpt lat="45.54829997473762" lon="10.459016887700853"><ele>245.0</ele><time>2026-03-29T07:54:00Z</time></trkpt><trkpt lat="45.548226674895446" lon="10.459044281995785"><ele>245.0</ele><time>2026-03-29T07:54:01Z</time></trkpt><trkpt lat="45.54814727812379" lon="10.459113655428297"><ele>245.0</ele><time>2026-03-29T07:54:02Z</time></trkpt><trkpt lat="45.5481017447299" lon="10.459222555139087"><ele>245.00000000000003</ele><time>2026-03-29T07:54:03Z</time></trkpt><trkpt lat="45.548098565539256" lon="10.459343951481408"><ele>245.0</ele><time>2026-03-29T07:54:04Z</time></trkpt><trkpt lat="45.54813076065993" lon="10.459485230209918"><ele>245.0</ele><time>2026-03-29T07:54:05Z</time></trkpt><trkpt lat="45.54820729452881" lon="10.45961704322505"><ele>245.0</ele><time>2026-03-29T07:54:06Z</time></trkpt><trkpt lat="45.54820416066992" lon="10.459812073743041"><ele>245.0</ele><time>2026-03-29T07:54:07Z</time></trkpt><trkpt lat="45.548217308910516" lon="10.459962132532917"><ele>245.0</ele><time>2026-03-29T07:54:08Z</time></trkpt><trkpt lat="45.548231963651006" lon="10.460085928522048"><ele>245.0</ele><time>2026-03-29T07:54:09Z</time></trkpt><trkpt lat="45.548104249800716" lon="10.46024613825604"><ele>245.0</ele><time>2026-03-29T07:54:10Z</time></trkpt><trkpt lat="45.54802506557774" lon="10.46042324091197"><ele>245.0</ele><time>2026-03-29T07:54:11Z</time></trkpt><trkpt lat="45.54794052079222" lon="10.460635986210194"><ele>245.66666666666669</ele><time>2026-03-29T07:54:12Z</time></trkpt><trkpt lat="45.54785158911641" lon="10.460906525777173"><ele>246.33333333333331</ele><time>2026-03-29T07:54:13Z</time></trkpt><trkpt lat="45.54777905821256" lon="10.461211810681743"><ele>247.0</ele><time>2026-03-29T07:54:14Z</time></trkpt><trkpt lat="45.54772554582562" lon="10.461561772156434"><ele>247.0</ele><time>2026-03-29T07:54:15Z</time></trkpt><trkpt lat="45.5476854683587" lon="10.461949502084764"><ele>247.0</ele><time>2026-03-29T07:54:16Z</time></trkpt><trkpt lat="45.5476528432036" lon="10.462349935975794"><ele>248.5</ele><time>2026-03-29T07:54:17Z</time></trkpt><trkpt lat="45.5476216446067" lon="10.46272202774338"><ele>250.0</ele><time>2026-03-29T07:54:18Z</time></trkpt><trkpt lat="45.547588979477396" lon="10.46305390662127"><ele>252.0</ele><time>2026-03-29T07:54:19Z</time></trkpt><trkpt lat="45.54755501487994" lon="10.463383724856119"><ele>254.0</ele><time>2026-03-29T07:54:20Z</time></trkpt><trkpt lat="45.547518888440194" lon="10.4637199677613"><ele>255.0</ele><time>2026-03-29T07:54:21Z</time></trkpt><trkpt lat="45.547485315625885" lon="10.464026239570922"><ele>256.0</ele><time>2026-03-29T07:54:22Z</time></trkpt><trkpt lat="45.54745252984407" lon="10.464294819188774"><ele>257.0</ele><time>2026-03-29T07:54:23Z</time></trkpt><trkpt lat="45.54743145943332" lon="10.464523224302425"><ele>256.8</ele><time>2026-03-29T07:54:24Z</time></trkpt><trkpt lat="45.54741903086762" lon="10.464705120118202"><ele>256.6</ele><time>2026-03-29T07:54:25Z</time></trkpt><trkpt lat="45.54740685303682" lon="10.464828548565437"><ele>256.40000000000003</ele><time>2026-03-29T07:54:26Z</time></trkpt><trkpt lat="45.547353149369194" lon="10.46490518278478"><ele>256.2</ele><time>2026-03-29T07:54:28Z</time></trkpt><trkpt lat="45.54722135590997" lon="10.46480562631426"><ele>256.0</ele><time>2026-03-29T07:54:30Z</time></trkpt><trkpt lat="45.547109392294054" lon="10.464779304179562"><ele>255.33333333333331</ele><time>2026-03-29T07:54:31Z</time></trkpt><trkpt lat="45.54697981389448" lon="10.464745471956343"><ele>254.66666666666669</ele><time>2026-03-29T07:54:32Z</time></trkpt><trkpt lat="45.54681808455889" lon="10.46475236884652"><ele>254.0</ele><time>2026-03-29T07:54:33Z</time></trkpt><trkpt lat="45.546648220432836" lon="10.46474608860351"><ele>254.0</ele><time>2026-03-29T07:54:34Z</time></trkpt><trkpt lat="45.54649644177822" lon="10.46473573841641"><ele>254.0</ele><time>2026-03-29T07:54:35Z</time></trkpt><trkpt lat="45.546351237942524" lon="10.464707115295631"><ele>254.0</ele><time>2026-03-29T07:54:36Z</time></trkpt><trkpt lat="45.54621448121357" lon="10.464630939763062"><ele>254.0</ele><time>2026-03-29T07:54:37Z</time></trkpt><trkpt lat="45.546055785820464" lon="10.464550527914367"><ele>253.66666666666669</ele><time>2026-03-29T07:54:38Z</time></trkpt><trkpt lat="45.5458922629671" lon="10.464471188965403"><ele>253.33333333333331</ele><time>2026-03-29T07:54:39Z</time></trkpt><trkpt lat="45.54571683597856" lon="10.464432358986063"><ele>253.0</ele><time>2026-03-29T07:54:40Z</time></trkpt><trkpt lat="45.545526626599596" lon="10.464371874942634"><ele>252.66666666666666</ele><time>2026-03-29T07:54:41Z</time></trkpt><trkpt lat="45.54535600427308" lon="10.464322776544236"><ele>252.33333333333331</ele><time>2026-03-29T07:54:42Z</time></trkpt><trkpt lat="45.545202924707894" lon="10.464276527979582"><ele>252.0</ele><time>2026-03-29T07:54:43Z</time></trkpt><trkpt lat="45.545030595664656" lon="10.464223599865138"><ele>252.0</ele><time>2026-03-29T07:54:44Z</time></trkpt><trkpt lat="45.54484915362187" lon="10.464150156078095"><ele>252.0</ele><time>2026-03-29T07:54:45Z</time></trkpt><trkpt lat="45.54468767390128" lon="10.464096877940866"><ele>252.0</ele><time>2026-03-29T07:54:46Z</time></trkpt><trkpt lat="45.54451963742314" lon="10.464040731791975"><ele>252.0</ele><time>2026-03-29T07:54:47Z</time></trkpt><trkpt lat="45.544361204683156" lon="10.463990680540563"><ele>252.0</ele><time>2026-03-29T07:54:48Z</time></trkpt><trkpt lat="45.544210957416944" lon="10.463941093953634"><ele>252.0</ele><time>2026-03-29T07:54:49Z</time></trkpt><trkpt lat="45.544081186704794" lon="10.463884568168874"><ele>252.0</ele><time>2026-03-29T07:54:50Z</time></trkpt><trkpt lat="45.5439649398574" lon="10.4638414568094"><ele>252.0</ele><time>2026-03-29T07:54:51Z</time></trkpt><trkpt lat="45.54385806656954" lon="10.4638270575316"><ele>252.0</ele><time>2026-03-29T07:54:52Z</time></trkpt><trkpt lat="45.54377117594362" lon="10.463813611665474"><ele>252.0</ele><time>2026-03-29T07:54:53Z</time></trkpt><trkpt lat="45.543701101337604" lon="10.46383536442292"><ele>252.0</ele><time>2026-03-29T07:54:54Z</time></trkpt><trkpt lat="45.54362302314676" lon="10.463806711945228"><ele>252.25</ele><time>2026-03-29T07:54:56Z</time></trkpt><trkpt lat="45.54366708243073" lon="10.463645761152325"><ele>252.5</ele><time>2026-03-29T07:54:57Z</time></trkpt><trkpt lat="45.54364883248081" lon="10.463540513887994"><ele>252.75</ele><time>2026-03-29T07:54:58Z</time></trkpt><trkpt lat="45.54361958873492" lon="10.463372764066"><ele>253.0</ele><time>2026-03-29T07:54:59Z</time></trkpt><trkpt lat="45.543582154138385" lon="10.46316192133939"><ele>253.0</ele><time>2026-03-29T07:55:00Z</time></trkpt><trkpt lat="45.54354432332671" lon="10.462979999447958"><ele>253.0</ele><time>2026-03-29T07:55:01Z</time></trkpt><trkpt lat="45.54349906749399" lon="10.462831247730692"><ele>253.0</ele><time>2026-03-29T07:55:02Z</time></trkpt><trkpt lat="45.54346668778591" lon="10.462683479811915"><ele>253.0</ele><time>2026-03-29T07:55:03Z</time></trkpt><trkpt lat="45.543441942156896" lon="10.462536921241245"><ele>253.0</ele><time>2026-03-29T07:55:04Z</time></trkpt><trkpt lat="45.54342176190111" lon="10.46237232177579"><ele>253.0</ele><time>2026-03-29T07:55:05Z</time></trkpt><trkpt lat="45.543414668721475" lon="10.462220169903956"><ele>253.0</ele><time>2026-03-29T07:55:06Z</time></trkpt><trkpt lat="45.54341321698495" lon="10.462053071605764"><ele>253.0</ele><time>2026-03-29T07:55:07Z</time></trkpt><trkpt lat="45.543408196908025" lon="10.461868103287772"><ele>253.25</ele><time>2026-03-29T07:55:08Z</time></trkpt><trkpt lat="45.54340303032284" lon="10.461720972123429"><ele>253.5</ele><time>2026-03-29T07:55:09Z</time></trkpt><trkpt lat="45.5433763032166" lon="10.461564162831545"><ele>253.75</ele><time>2026-03-29T07:55:10Z</time></trkpt><trkpt lat="45.54332897968126" lon="10.46139279184579"><ele>254.0</ele><time>2026-03-29T07:55:11Z</time></trkpt><trkpt lat="45.54326863932372" lon="10.4612139187137"><ele>254.2</ele><time>2026-03-29T07:55:12Z</time></trkpt><trkpt lat="45.54321673040181" lon="10.461026829280687"><ele>254.39999999999998</ele><time>2026-03-29T07:55:13Z</time></trkpt><trkpt lat="45.5431753903115" lon="10.46084219327167"><ele>254.6</ele><time>2026-03-29T07:55:14Z</time></trkpt><trkpt lat="45.543149120582896" lon="10.460730031885417"><ele>254.8</ele><time>2026-03-29T07:55:15Z</time></trkpt><trkpt lat="45.543130085443714" lon="10.46063573252224"><ele>255.0</ele><time>2026-03-29T07:55:16Z</time></trkpt><trkpt lat="45.543176388330785" lon="10.460452650777073"><ele>255.2</ele><time>2026-03-29T07:55:18Z</time></trkpt><trkpt lat="45.5431790326266" lon="10.460328630725181"><ele>255.4</ele><time>2026-03-29T07:55:19Z</time></trkpt><trkpt lat="45.543157306139335" lon="10.460209160906988"><ele>255.60000000000002</ele><time>2026-03-29T07:55:20Z</time></trkpt><trkpt lat="45.543096503038484" lon="10.460071602417965"><ele>255.8</ele><time>2026-03-29T07:55:21Z</time></trkpt><trkpt lat="45.54302018189648" lon="10.459909804364555"><ele>256.0</ele><time>2026-03-29T07:55:22Z</time></trkpt><trkpt lat="45.54296688303861" lon="10.459734369158072"><ele>255.60000000000002</ele><time>2026-03-29T07:55:23Z</time></trkpt><trkpt lat="45.542908214702344" lon="10.459573651870768"><ele>255.20000000000002</ele><time>2026-03-29T07:55:24Z</time></trkpt><trkpt lat="45.54289872630343" lon="10.45944347171685"><ele>254.79999999999998</ele><time>2026-03-29T07:55:25Z</time></trkpt><trkpt lat="45.54289019205014" lon="10.459337016356953"><ele>254.39999999999998</ele><time>2026-03-29T07:55:26Z</time></trkpt><trkpt lat="45.542886736591484" lon="10.459189262153933"><ele>254.0</ele><time>2026-03-29T07:55:27Z</time></trkpt><trkpt lat="45.542902280608246" lon="10.459073997021903"><ele>254.00000000000003</ele><time>2026-03-29T07:55:28Z</time></trkpt><trkpt lat="45.54291314025592" lon="10.45895986194836"><ele>254.0</ele><time>2026-03-29T07:55:29Z</time></trkpt><trkpt lat="45.542928399087614" lon="10.45886002753436"><ele>254.0</ele><time>2026-03-29T07:55:31Z</time></trkpt><trkpt lat="45.54298320014442" lon="10.458802009687213"><ele>254.0</ele><time>2026-03-29T07:55:33Z</time></trkpt><trkpt lat="45.543075270277534" lon="10.458853165912343"><ele>254.00000000000003</ele><time>2026-03-29T07:55:34Z</time></trkpt><trkpt lat="45.543175890319596" lon="10.458862375801298"><ele>254.0</ele><time>2026-03-29T07:55:35Z</time></trkpt><trkpt lat="45.54327906445949" lon="10.45884645589234"><ele>253.39999999999998</ele><time>2026-03-29T07:55:37Z</time></trkpt><trkpt lat="45.543347653978" lon="10.458726500853885"><ele>252.79999999999998</ele><time>2026-03-29T07:55:39Z</time></trkpt><trkpt lat="45.54332512663146" lon="10.458606202972803"><ele>252.20000000000002</ele><time>2026-03-29T07:55:40Z</time></trkpt><trkpt lat="45.54331325278701" lon="10.458453846333988"><ele>251.60000000000002</ele><time>2026-03-29T07:55:41Z</time></trkpt><trkpt lat="45.54328241783859" lon="10.458296746660572"><ele>251.0</ele><time>2026-03-29T07:55:42Z</time></trkpt><trkpt lat="45.543285805845" lon="10.45814756919827"><ele>251.0</ele><time>2026-03-29T07:55:43Z</time></trkpt><trkpt lat="45.54326031842505" lon="10.457984070919258"><ele>251.00000000000003</ele><time>2026-03-29T07:55:44Z</time></trkpt><trkpt lat="45.54327125853967" lon="10.457868127060573"><ele>251.00000000000003</ele><time>2026-03-29T07:55:45Z</time></trkpt><trkpt lat="45.543266282413946" lon="10.457733155749246"><ele>251.0</ele><time>2026-03-29T07:55:46Z</time></trkpt><trkpt lat="45.54326534465237" lon="10.45759842974233"><ele>251.0</ele><time>2026-03-29T07:55:47Z</time></trkpt><trkpt lat="45.54327951923375" lon="10.457491629317701"><ele>250.5</ele><time>2026-03-29T07:55:48Z</time></trkpt><trkpt lat="45.54332145050837" lon="10.457388810145083"><ele>250.0</ele><time>2026-03-29T07:55:49Z</time></trkpt><trkpt lat="45.54332967981026" lon="10.457207295360043"><ele>249.5</ele><time>2026-03-29T07:55:50Z</time></trkpt><trkpt lat="45.54339428077201" lon="10.457060010923167"><ele>249.0</ele><time>2026-03-29T07:55:51Z</time></trkpt><trkpt lat="45.543449052691685" lon="10.456908434269183"><ele>248.5</ele><time>2026-03-29T07:55:52Z</time></trkpt><trkpt lat="45.54350291514219" lon="10.456751654254065"><ele>248.0</ele><time>2026-03-29T07:55:53Z</time></trkpt><trkpt lat="45.543542342300235" lon="10.456607697596542"><ele>247.5</ele><time>2026-03-29T07:55:54Z</time></trkpt><trkpt lat="45.543556288437436" lon="10.456460836275959"><ele>247.0</ele><time>2026-03-29T07:55:55Z</time></trkpt><trkpt lat="45.54357788906433" lon="10.456293754257256"><ele>247.0</ele><time>2026-03-29T07:55:56Z</time></trkpt><trkpt lat="45.5435872214488" lon="10.456115749104258"><ele>247.0</ele><time>2026-03-29T07:55:57Z</time></trkpt><trkpt lat="45.54357909645029" lon="10.455893126081317"><ele>247.0</ele><time>2026-03-29T07:55:58Z</time></trkpt><trkpt lat="45.54359411733569" lon="10.455674880777577"><ele>247.0</ele><time>2026-03-29T07:55:59Z</time></trkpt><trkpt lat="45.54360218259922" lon="10.455485897320692"><ele>246.39999999999998</ele><time>2026-03-29T07:56:00Z</time></trkpt><trkpt lat="45.54361203036812" lon="10.455306837876103"><ele>245.79999999999998</ele><time>2026-03-29T07:56:01Z</time></trkpt><trkpt lat="45.54362077576969" lon="10.455129174221405"><ele>245.2</ele><time>2026-03-29T07:56:02Z</time></trkpt><trkpt lat="45.543625356204835" lon="10.454983086381242"><ele>244.6</ele><time>2026-03-29T07:56:03Z</time></trkpt><trkpt lat="45.543617455010256" lon="10.454863910997085"><ele>244.0</ele><time>2026-03-29T07:56:04Z</time></trkpt><trkpt lat="45.54364282855736" lon="10.454733628725148"><ele>243.2</ele><time>2026-03-29T07:56:05Z</time></trkpt><trkpt lat="45.54367782512524" lon="10.454620197735387"><ele>242.39999999999998</ele><time>2026-03-29T07:56:06Z</time></trkpt><trkpt lat="45.54368274279089" lon="10.454504134027312"><ele>241.6</ele><time>2026-03-29T07:56:07Z</time></trkpt><trkpt lat="45.54365308164831" lon="10.454355229116315"><ele>240.8</ele><time>2026-03-29T07:56:08Z</time></trkpt><trkpt lat="45.543623080072315" lon="10.454189450635242"><ele>240.0</ele><time>2026-03-29T07:56:09Z</time></trkpt><trkpt lat="45.54358866554565" lon="10.454014260114093"><ele>240.0</ele><time>2026-03-29T07:56:10Z</time></trkpt><trkpt lat="45.54355708869173" lon="10.453862862863692"><ele>240.0</ele><time>2026-03-29T07:56:11Z</time></trkpt><trkpt lat="45.54354363129023" lon="10.453735341071853"><ele>240.0</ele><time>2026-03-29T07:56:12Z</time></trkpt><trkpt lat="45.54354084636505" lon="10.45363443424248"><ele>240.0</ele><time>2026-03-29T07:56:13Z</time></trkpt><trkpt lat="45.54353971903005" lon="10.453531972269852"><ele>240.0</ele><time>2026-03-29T07:56:15Z</time></trkpt><trkpt lat="45.54339990567273" lon="10.453463370994587"><ele>240.0</ele><time>2026-03-29T07:56:17Z</time></trkpt><trkpt lat="45.543279760381466" lon="10.45341592396039"><ele>240.0</ele><time>2026-03-29T07:56:19Z</time></trkpt><trkpt lat="45.543220621269164" lon="10.453369801167561"><ele>240.0</ele><time>2026-03-29T07:56:20Z</time></trkpt><trkpt lat="45.54318426878257" lon="10.453232970052126"><ele>240.0</ele><time>2026-03-29T07:56:21Z</time></trkpt><trkpt lat="45.543125180979494" lon="10.453124529198229"><ele>240.0</ele><time>2026-03-29T07:56:22Z</time></trkpt><trkpt lat="45.54306779416476" lon="10.452994363896485"><ele>240.0</ele><time>2026-03-29T07:56:23Z</time></trkpt><trkpt lat="45.54301466029461" lon="10.452844079608623"><ele>240.0</ele><time>2026-03-29T07:56:24Z</time></trkpt><trkpt lat="45.54297986851713" lon="10.4527039463669"><ele>240.0</ele><time>2026-03-29T07:56:25Z</time></trkpt><trkpt lat="45.542962490044765" lon="10.452603923863274"><ele>240.0</ele><time>2026-03-29T07:56:26Z</time></trkpt><trkpt lat="45.54295624467966" lon="10.452442161998242"><ele>240.0</ele><time>2026-03-29T07:56:28Z</time></trkpt><trkpt lat="45.54302305145984" lon="10.452297179166136"><ele>240.0</ele><time>2026-03-29T07:56:30Z</time></trkpt><trkpt lat="45.54308871586798" lon="10.452202598721827"><ele>240.0</ele><time>2026-03-29T07:56:31Z</time></trkpt><trkpt lat="45.54316763306825" lon="10.452085681738874"><ele>240.0</ele><time>2026-03-29T07:56:32Z</time></trkpt><trkpt lat="45.54322580742466" lon="10.45197455360106"><ele>240.0</ele><time>2026-03-29T07:56:33Z</time></trkpt><trkpt lat="45.5432946513082" lon="10.451850246302008"><ele>240.0</ele><time>2026-03-29T07:56:35Z</time></trkpt><trkpt lat="45.543293002438375" lon="10.451736989435506"><ele>239.4</ele><time>2026-03-29T07:56:36Z</time></trkpt><trkpt lat="45.54326772054229" lon="10.451604103420705"><ele>238.8</ele><time>2026-03-29T07:56:37Z</time></trkpt><trkpt lat="45.54324233281974" lon="10.451433125302803"><ele>238.2</ele><time>2026-03-29T07:56:38Z</time></trkpt><trkpt lat="45.54322287310287" lon="10.45130125089954"><ele>237.6</ele><time>2026-03-29T07:56:39Z</time></trkpt><trkpt lat="45.54321159287658" lon="10.451196748744353"><ele>237.0</ele><time>2026-03-29T07:56:40Z</time></trkpt><trkpt lat="45.54318804664609" lon="10.451081005177599"><ele>237.0</ele><time>2026-03-29T07:56:41Z</time></trkpt><trkpt lat="45.54319666215802" lon="10.450961208836718"><ele>237.0</ele><time>2026-03-29T07:56:42Z</time></trkpt><trkpt lat="45.54319317251272" lon="10.450850448206635"><ele>237.0</ele><time>2026-03-29T07:56:43Z</time></trkpt><trkpt lat="45.54319213215695" lon="10.450721232323147"><ele>237.0</ele><time>2026-03-29T07:56:44Z</time></trkpt><trkpt lat="45.54319606608682" lon="10.450596704303727"><ele>237.0</ele><time>2026-03-29T07:56:45Z</time></trkpt><trkpt lat="45.54320110075347" lon="10.450471101280616"><ele>237.0</ele><time>2026-03-29T07:56:46Z</time></trkpt><trkpt lat="45.54319679773528" lon="10.450342223266148"><ele>236.8</ele><time>2026-03-29T07:56:47Z</time></trkpt><trkpt lat="45.543202246160924" lon="10.450229134906996"><ele>236.6</ele><time>2026-03-29T07:56:48Z</time></trkpt><trkpt lat="45.54320489977081" lon="10.450136246462652"><ele>236.40000000000003</ele><time>2026-03-29T07:56:49Z</time></trkpt><trkpt lat="45.54321009429157" lon="10.449983991196456"><ele>236.20000000000002</ele><time>2026-03-29T07:56:51Z</time></trkpt><trkpt lat="45.54323123424331" lon="10.449829134935223"><ele>236.0</ele><time>2026-03-29T07:56:53Z</time></trkpt><trkpt lat="45.5432773434136" lon="10.44967079371049"><ele>235.66666666666669</ele><time>2026-03-29T07:56:55Z</time></trkpt><trkpt lat="45.54329172598291" lon="10.449579440210657"><ele>235.33333333333334</ele><time>2026-03-29T07:56:56Z</time></trkpt><trkpt lat="45.54330954054207" lon="10.44949301071886"><ele>235.0</ele><time>2026-03-29T07:56:57Z</time></trkpt><trkpt lat="45.5433727896359" lon="10.449315410494041"><ele>234.66666666666669</ele><time>2026-03-29T07:56:59Z</time></trkpt><trkpt lat="45.543403819448066" lon="10.449213814568918"><ele>234.33333333333334</ele><time>2026-03-29T07:57:00Z</time></trkpt><trkpt lat="45.54343021789457" lon="10.449115245488938"><ele>234.0</ele><time>2026-03-29T07:57:01Z</time></trkpt><trkpt lat="45.543465188516606" lon="10.449031827533762"><ele>234.0</ele><time>2026-03-29T07:57:02Z</time></trkpt><trkpt lat="45.54350169652635" lon="10.448944862867375"><ele>233.99999999999997</ele><time>2026-03-29T07:57:03Z</time></trkpt><trkpt lat="45.543528794364626" lon="10.448816281507808"><ele>233.99999999999997</ele><time>2026-03-29T07:57:05Z</time></trkpt><trkpt lat="45.54348062298195" lon="10.448656067638334"><ele>234.0</ele><time>2026-03-29T07:57:07Z</time></trkpt><trkpt lat="45.54341298947984" lon="10.448556695474329"><ele>234.0</ele><time>2026-03-29T07:57:08Z</time></trkpt><trkpt lat="45.543344074387825" lon="10.448447472147015"><ele>233.39999999999998</ele><time>2026-03-29T07:57:09Z</time></trkpt><trkpt lat="45.54327967693058" lon="10.448334614512506"><ele>232.79999999999998</ele><time>2026-03-29T07:57:10Z</time></trkpt><trkpt lat="45.54322601670909" lon="10.448235657313807"><ele>232.20000000000002</ele><time>2026-03-29T07:57:11Z</time></trkpt><trkpt lat="45.54316025388605" lon="10.448141981539544"><ele>231.60000000000002</ele><time>2026-03-29T07:57:12Z</time></trkpt><trkpt lat="45.543097675393916" lon="10.44806583974663"><ele>231.0</ele><time>2026-03-29T07:57:13Z</time></trkpt><trkpt lat="45.54301465462295" lon="10.447988824041984"><ele>230.33333333333334</ele><time>2026-03-29T07:57:14Z</time></trkpt><trkpt lat="45.54296071662544" lon="10.447916803657616"><ele>229.66666666666669</ele><time>2026-03-29T07:57:15Z</time></trkpt><trkpt lat="45.542930924908255" lon="10.447833486905777"><ele>229.0</ele><time>2026-03-29T07:57:16Z</time></trkpt><trkpt lat="45.542889730477064" lon="10.447730616701639"><ele>228.33333333333334</ele><time>2026-03-29T07:57:17Z</time></trkpt><trkpt lat="45.542888318375425" lon="10.4476398951291"><ele>227.66666666666669</ele><time>2026-03-29T07:57:18Z</time></trkpt><trkpt lat="45.54293086973172" lon="10.44750134179911"><ele>227.0</ele><time>2026-03-29T07:57:20Z</time></trkpt><trkpt lat="45.54298197885616" lon="10.447425424873266"><ele>227.0</ele><time>2026-03-29T07:57:21Z</time></trkpt><trkpt lat="45.543051856788736" lon="10.447319412223852"><ele>227.0</ele><time>2026-03-29T07:57:23Z</time></trkpt><trkpt lat="45.5431270321658" lon="10.447196673209792"><ele>227.0</ele><time>2026-03-29T07:57:25Z</time></trkpt><trkpt lat="45.54317509479893" lon="10.447124511103633"><ele>227.0</ele><time>2026-03-29T07:57:26Z</time></trkpt><trkpt lat="45.54323073658877" lon="10.44706234152399"><ele>227.0</ele><time>2026-03-29T07:57:27Z</time></trkpt><trkpt lat="45.54330992835763" lon="10.446975572265217"><ele>227.0</ele><time>2026-03-29T07:57:28Z</time></trkpt><trkpt lat="45.54337354253028" lon="10.446885968721146"><ele>227.0</ele><time>2026-03-29T07:57:29Z</time></trkpt><trkpt lat="45.543436241280865" lon="10.4467765157863"><ele>227.0</ele><time>2026-03-29T07:57:30Z</time></trkpt><trkpt lat="45.54349664798832" lon="10.446665808755407"><ele>227.0</ele><time>2026-03-29T07:57:31Z</time></trkpt><trkpt lat="45.543537689162015" lon="10.446578103972453"><ele>227.0</ele><time>2026-03-29T07:57:32Z</time></trkpt><trkpt lat="45.54361680405107" lon="10.446474143574608"><ele>227.0</ele><time>2026-03-29T07:57:34Z</time></trkpt><trkpt lat="45.54365043680889" lon="10.446390464149692"><ele>227.0</ele><time>2026-03-29T07:57:36Z</time></trkpt><trkpt lat="45.543690844083756" lon="10.446297786936734"><ele>227.0</ele><time>2026-03-29T07:57:37Z</time></trkpt><trkpt lat="45.54369609174638" lon="10.44619831576888"><ele>227.0</ele><time>2026-03-29T07:57:38Z</time></trkpt><trkpt lat="45.54370794257174" lon="10.446075143799519"><ele>227.0</ele><time>2026-03-29T07:57:39Z</time></trkpt><trkpt lat="45.54335128353498" lon="10.44574684674533"><ele>227.66666666666669</ele><time>2026-03-29T07:57:40Z</time></trkpt><trkpt lat="45.54326031194101" lon="10.445539502096379"><ele>228.33333333333331</ele><time>2026-03-29T07:57:41Z</time></trkpt><trkpt lat="45.543173252861386" lon="10.44532634363734"><ele>229.0</ele><time>2026-03-29T07:57:42Z</time></trkpt><trkpt lat="45.54308367406058" lon="10.445116565329586"><ele>229.66666666666666</ele><time>2026-03-29T07:57:43Z</time></trkpt><trkpt lat="45.542989119940756" lon="10.444890199679152"><ele>230.33333333333331</ele><time>2026-03-29T07:57:44Z</time></trkpt><trkpt lat="45.54290010641882" lon="10.44467860753146"><ele>231.0</ele><time>2026-03-29T07:57:45Z</time></trkpt><trkpt lat="45.54282268463394" lon="10.444486252112856"><ele>229.75</ele><time>2026-03-29T07:57:46Z</time></trkpt><trkpt lat="45.54274439349994" lon="10.44430231825707"><ele>228.5</ele><time>2026-03-29T07:57:47Z</time></trkpt><trkpt lat="45.54266846304448" lon="10.444131972376615"><ele>227.25</ele><time>2026-03-29T07:57:48Z</time></trkpt><trkpt lat="45.54259147686358" lon="10.443974266651338"><ele>226.0</ele><time>2026-03-29T07:57:49Z</time></trkpt><trkpt lat="45.54248663631148" lon="10.443830494692047"><ele>223.5</ele><time>2026-03-29T07:57:50Z</time></trkpt><trkpt lat="45.542359618136175" lon="10.443716536093438"><ele>221.0</ele><time>2026-03-29T07:57:51Z</time></trkpt><trkpt lat="45.54222984146195" lon="10.443637615342794"><ele>218.5</ele><time>2026-03-29T07:57:52Z</time></trkpt><trkpt lat="45.54210506157058" lon="10.443581695204108"><ele>216.0</ele><time>2026-03-29T07:57:53Z</time></trkpt><trkpt lat="45.54200203208108" lon="10.443552449321311"><ele>216.0</ele><time>2026-03-29T07:57:54Z</time></trkpt><trkpt lat="45.54191709288335" lon="10.443524505767058"><ele>216.00000000000003</ele><time>2026-03-29T07:57:55Z</time></trkpt><trkpt lat="45.54184816661864" lon="10.443506071596211"><ele>216.00000000000003</ele><time>2026-03-29T07:57:56Z</time></trkpt><trkpt lat="45.54177423721051" lon="10.443463103206179"><ele>216.0</ele><time>2026-03-29T07:57:58Z</time></trkpt><trkpt lat="45.541713270787334" lon="10.443714569116771"><ele>216.0</ele><time>2026-03-29T07:57:59Z</time></trkpt><trkpt lat="45.54168437327571" lon="10.443851864202145"><ele>217.75</ele><time>2026-03-29T07:58:00Z</time></trkpt><trkpt lat="45.54164801989801" lon="10.444012473339932"><ele>219.5</ele><time>2026-03-29T07:58:01Z</time></trkpt><trkpt lat="45.54160391042473" lon="10.444193674928691"><ele>221.25</ele><time>2026-03-29T07:58:02Z</time></trkpt><trkpt lat="45.541552355925006" lon="10.444380466549093"><ele>223.0</ele><time>2026-03-29T07:58:03Z</time></trkpt><trkpt lat="45.541495841208885" lon="10.444567542023279"><ele>223.5</ele><time>2026-03-29T07:58:04Z</time></trkpt><trkpt lat="45.541441297186026" lon="10.444754090611266"><ele>224.0</ele><time>2026-03-29T07:58:05Z</time></trkpt><trkpt lat="45.54139797760008" lon="10.444915583551065"><ele>224.5</ele><time>2026-03-29T07:58:06Z</time></trkpt><trkpt lat="45.54135013612559" lon="10.445086557332994"><ele>225.0</ele><time>2026-03-29T07:58:07Z</time></trkpt><trkpt lat="45.541301581334764" lon="10.445271501838612"><ele>225.0</ele><time>2026-03-29T07:58:08Z</time></trkpt><trkpt lat="45.54125409892359" lon="10.445446143269693"><ele>225.0</ele><time>2026-03-29T07:58:09Z</time></trkpt><trkpt lat="45.5412124561557" lon="10.445583541484256"><ele>225.0</ele><time>2026-03-29T07:58:10Z</time></trkpt><trkpt lat="45.541183223129735" lon="10.445682436635465"><ele>225.0</ele><time>2026-03-29T07:58:11Z</time></trkpt><trkpt lat="45.541121894057156" lon="10.445795874857016"><ele>225.0</ele><time>2026-03-29T07:58:13Z</time></trkpt><trkpt lat="45.54090459897463" lon="10.445768706380589"><ele>224.75</ele><time>2026-03-29T07:58:15Z</time></trkpt><trkpt lat="45.54078909221243" lon="10.445704325675164"><ele>224.5</ele><time>2026-03-29T07:58:16Z</time></trkpt><trkpt lat="45.54064762336603" lon="10.445673918334483"><ele>224.25</ele><time>2026-03-29T07:58:17Z</time></trkpt><trkpt lat="45.540504768113784" lon="10.445621129037214"><ele>224.0</ele><time>2026-03-29T07:58:18Z</time></trkpt><trkpt lat="45.54034884370905" lon="10.44556882992316"><ele>223.5</ele><time>2026-03-29T07:58:19Z</time></trkpt><trkpt lat="45.540204491283006" lon="10.445513945140217"><ele>223.0</ele><time>2026-03-29T07:58:20Z</time></trkpt><trkpt lat="45.540071610272996" lon="10.445462621753949"><ele>222.5</ele><time>2026-03-29T07:58:21Z</time></trkpt><trkpt lat="45.53994361220189" lon="10.445414873825483"><ele>222.0</ele><time>2026-03-29T07:58:22Z</time></trkpt><trkpt lat="45.53981546629779" lon="10.445371002243752"><ele>221.75</ele><time>2026-03-29T07:58:23Z</time></trkpt><trkpt lat="45.539681592217384" lon="10.44531903119424"><ele>221.5</ele><time>2026-03-29T07:58:24Z</time></trkpt><trkpt lat="45.539536521139105" lon="10.44527753560042"><ele>221.25</ele><time>2026-03-29T07:58:25Z</time></trkpt><trkpt lat="45.539404300654006" lon="10.445224545700542"><ele>221.0</ele><time>2026-03-29T07:58:26Z</time></trkpt><trkpt lat="45.539276232212266" lon="10.445177214036754"><ele>220.60000000000002</ele><time>2026-03-29T07:58:27Z</time></trkpt><trkpt lat="45.53916549854571" lon="10.445135478584312"><ele>220.20000000000002</ele><time>2026-03-29T07:58:28Z</time></trkpt><trkpt lat="45.539066399969805" lon="10.445097804995326"><ele>219.79999999999998</ele><time>2026-03-29T07:58:29Z</time></trkpt><trkpt lat="45.538976480759956" lon="10.445049910571196"><ele>219.39999999999998</ele><time>2026-03-29T07:58:30Z</time></trkpt><trkpt lat="45.538901891601164" lon="10.444969888911649"><ele>219.0</ele><time>2026-03-29T07:58:31Z</time></trkpt><trkpt lat="45.53880472812553" lon="10.44492863962749"><ele>219.5</ele><time>2026-03-29T07:58:32Z</time></trkpt><trkpt lat="45.538681355963234" lon="10.444939905028798"><ele>220.0</ele><time>2026-03-29T07:58:33Z</time></trkpt><trkpt lat="45.53854005320368" lon="10.444934418067852"><ele>220.5</ele><time>2026-03-29T07:58:34Z</time></trkpt><trkpt lat="45.53840179047137" lon="10.444879250234987"><ele>221.0</ele><time>2026-03-29T07:58:35Z</time></trkpt><trkpt lat="45.538260695175964" lon="10.444824246786531"><ele>221.0</ele><time>2026-03-29T07:58:36Z</time></trkpt><trkpt lat="45.5381141368143" lon="10.444775090502894"><ele>221.0</ele><time>2026-03-29T07:58:37Z</time></trkpt><trkpt lat="45.537965918304856" lon="10.444728940015038"><ele>221.0</ele><time>2026-03-29T07:58:38Z</time></trkpt><trkpt lat="45.53781814140515" lon="10.444680293285666"><ele>220.0</ele><time>2026-03-29T07:58:39Z</time></trkpt><trkpt lat="45.537673086483395" lon="10.444627567857388"><ele>219.0</ele><time>2026-03-29T07:58:40Z</time></trkpt><trkpt lat="45.53752536279359" lon="10.444572310463641"><ele>218.0</ele><time>2026-03-29T07:58:41Z</time></trkpt><trkpt lat="45.53737368171385" lon="10.444515371221534"><ele>218.0</ele><time>2026-03-29T07:58:42Z</time></trkpt><trkpt lat="45.53721802024811" lon="10.444456273794538"><ele>218.0</ele><time>2026-03-29T07:58:43Z</time></trkpt><trkpt lat="45.537061553573636" lon="10.444404034847407"><ele>218.0</ele><time>2026-03-29T07:58:44Z</time></trkpt><trkpt lat="45.536902980379985" lon="10.444360450850176"><ele>217.33333333333334</ele><time>2026-03-29T07:58:45Z</time></trkpt><trkpt lat="45.5367437428845" lon="10.444337339194217"><ele>216.66666666666669</ele><time>2026-03-29T07:58:46Z</time></trkpt><trkpt lat="45.53658871037129" lon="10.444334023031358"><ele>216.0</ele><time>2026-03-29T07:58:47Z</time></trkpt><trkpt lat="45.536437080309" lon="10.444338959406283"><ele>216.0</ele><time>2026-03-29T07:58:48Z</time></trkpt><trkpt lat="45.53628497968918" lon="10.444348569444406"><ele>216.0</ele><time>2026-03-29T07:58:49Z</time></trkpt><trkpt lat="45.53613659578082" lon="10.444360999250799"><ele>216.0</ele><time>2026-03-29T07:58:50Z</time></trkpt><trkpt lat="45.53599011777536" lon="10.444369953548"><ele>216.0</ele><time>2026-03-29T07:58:51Z</time></trkpt><trkpt lat="45.535838861587344" lon="10.44437767115903"><ele>215.0</ele><time>2026-03-29T07:58:52Z</time></trkpt><trkpt lat="45.53568365829299" lon="10.444392957496127"><ele>214.0</ele><time>2026-03-29T07:58:53Z</time></trkpt><trkpt lat="45.53554062506407" lon="10.444402522471998"><ele>213.0</ele><time>2026-03-29T07:58:54Z</time></trkpt><trkpt lat="45.53540198640458" lon="10.444405339364897"><ele>212.0</ele><time>2026-03-29T07:58:55Z</time></trkpt><trkpt lat="45.53525627426173" lon="10.444392254922999"><ele>211.75</ele><time>2026-03-29T07:58:56Z</time></trkpt><trkpt lat="45.535116180740864" lon="10.44436212565687"><ele>211.5</ele><time>2026-03-29T07:58:57Z</time></trkpt><trkpt lat="45.53497458180096" lon="10.444309851038444"><ele>211.25</ele><time>2026-03-29T07:58:58Z</time></trkpt><trkpt lat="45.53483612570304" lon="10.444232602326494"><ele>211.0</ele><time>2026-03-29T07:58:59Z</time></trkpt><trkpt lat="45.53469961650615" lon="10.444144713071205"><ele>211.0</ele><time>2026-03-29T07:59:00Z</time></trkpt><trkpt lat="45.53455903852174" lon="10.444059779983064"><ele>211.0</ele><time>2026-03-29T07:59:01Z</time></trkpt><trkpt lat="45.53442035444666" lon="10.443984740387599"><ele>211.0</ele><time>2026-03-29T07:59:02Z</time></trkpt><trkpt lat="45.53427288600611" lon="10.443928411850932"><ele>211.0</ele><time>2026-03-29T07:59:03Z</time></trkpt><trkpt lat="45.5341172390291" lon="10.443902195726938"><ele>211.0</ele><time>2026-03-29T07:59:04Z</time></trkpt><trkpt lat="45.53395726334086" lon="10.443898403251222"><ele>211.0</ele><time>2026-03-29T07:59:05Z</time></trkpt><trkpt lat="45.53379734057417" lon="10.44389779295627"><ele>210.66666666666666</ele><time>2026-03-29T07:59:06Z</time></trkpt><trkpt lat="45.53364222788182" lon="10.443893788411406"><ele>210.33333333333331</ele><time>2026-03-29T07:59:07Z</time></trkpt><trkpt lat="45.5334819837819" lon="10.443891102184388"><ele>210.0</ele><time>2026-03-29T07:59:08Z</time></trkpt><trkpt lat="45.53331620187002" lon="10.44388632140312"><ele>210.0</ele><time>2026-03-29T07:59:09Z</time></trkpt><trkpt lat="45.53314479936221" lon="10.443880205615992"><ele>210.0</ele><time>2026-03-29T07:59:10Z</time></trkpt><trkpt lat="45.532968009535196" lon="10.443875516548074"><ele>210.0</ele><time>2026-03-29T07:59:11Z</time></trkpt><trkpt lat="45.532788399480815" lon="10.443861253236896"><ele>210.33333333333331</ele><time>2026-03-29T07:59:12Z</time></trkpt><trkpt lat="45.532604292009836" lon="10.44384742733139"><ele>210.66666666666666</ele><time>2026-03-29T07:59:13Z</time></trkpt><trkpt lat="45.5324195739267" lon="10.443824674681942"><ele>211.0</ele><time>2026-03-29T07:59:14Z</time></trkpt><trkpt lat="45.53224528672955" lon="10.443794947556992"><ele>210.33333333333331</ele><time>2026-03-29T07:59:15Z</time></trkpt><trkpt lat="45.53206605077174" lon="10.443752390094932"><ele>209.66666666666669</ele><time>2026-03-29T07:59:16Z</time></trkpt><trkpt lat="45.5318912660565" lon="10.443713691824293"><ele>209.0</ele><time>2026-03-29T07:59:17Z</time></trkpt><trkpt lat="45.53172263611461" lon="10.443682329960271"><ele>209.0</ele><time>2026-03-29T07:59:18Z</time></trkpt><trkpt lat="45.53156626427839" lon="10.443655319922275"><ele>209.0</ele><time>2026-03-29T07:59:19Z</time></trkpt><trkpt lat="45.531428663349374" lon="10.443610497906398"><ele>209.0</ele><time>2026-03-29T07:59:20Z</time></trkpt><trkpt lat="45.53130912028772" lon="10.443582070938785"><ele>209.0</ele><time>2026-03-29T07:59:21Z</time></trkpt><trkpt lat="45.53120136749511" lon="10.44355100313113"><ele>209.00000000000003</ele><time>2026-03-29T07:59:22Z</time></trkpt><trkpt lat="45.53110409965571" lon="10.443520984943552"><ele>209.0</ele><time>2026-03-29T07:59:23Z</time></trkpt><trkpt lat="45.53102414101112" lon="10.44349587292801"><ele>209.0</ele><time>2026-03-29T07:59:24Z</time></trkpt><trkpt lat="45.530961506458794" lon="10.443472904599052"><ele>209.0</ele><time>2026-03-29T07:59:25Z</time></trkpt><trkpt lat="45.53086579759795" lon="10.443426366833117"><ele>209.00000000000003</ele><time>2026-03-29T07:59:27Z</time></trkpt><trkpt lat="45.53080622144936" lon="10.443390613736291"><ele>209.0</ele><time>2026-03-29T07:59:35Z</time></trkpt><trkpt lat="45.53072994707625" lon="10.443255053579206"><ele>209.00000000000003</ele><time>2026-03-29T07:59:37Z</time></trkpt><trkpt lat="45.53066750503295" lon="10.443173802798263"><ele>209.0</ele><time>2026-03-29T07:59:38Z</time></trkpt><trkpt lat="45.53060060868634" lon="10.443108371964122"><ele>209.0</ele><time>2026-03-29T07:59:39Z</time></trkpt><trkpt lat="45.530523610935525" lon="10.443089246564053"><ele>209.0</ele><time>2026-03-29T07:59:40Z</time></trkpt><trkpt lat="45.53044938171583" lon="10.443115499965005"><ele>209.00000000000003</ele><time>2026-03-29T07:59:41Z</time></trkpt><trkpt lat="45.530392001910904" lon="10.443178585409337"><ele>209.0</ele><time>2026-03-29T07:59:42Z</time></trkpt><trkpt lat="45.530381295887736" lon="10.443299575725252"><ele>209.0</ele><time>2026-03-29T07:59:43Z</time></trkpt><trkpt lat="45.530385628739786" lon="10.443425977950376"><ele>209.0</ele><time>2026-03-29T07:59:44Z</time></trkpt><trkpt lat="45.530410428552" lon="10.443539690513555"><ele>209.0</ele><time>2026-03-29T07:59:45Z</time></trkpt><trkpt lat="45.530486523979995" lon="10.44366238666672"><ele>209.0</ele><time>2026-03-29T07:59:46Z</time></trkpt><trkpt lat="45.53051055228279" lon="10.443820825006537"><ele>209.0</ele><time>2026-03-29T07:59:47Z</time></trkpt><trkpt lat="45.530551916544674" lon="10.443985056304207"><ele>209.0</ele><time>2026-03-29T07:59:48Z</time></trkpt><trkpt lat="45.53050340078985" lon="10.44418560903691"><ele>209.0</ele><time>2026-03-29T07:59:49Z</time></trkpt><trkpt lat="45.53046844893945" lon="10.444398775273653"><ele>209.0</ele><time>2026-03-29T07:59:50Z</time></trkpt><trkpt lat="45.530423395150706" lon="10.444631715669392"><ele>210.66666666666669</ele><time>2026-03-29T07:59:51Z</time></trkpt><trkpt lat="45.5303698459655" lon="10.444884461708131"><ele>212.33333333333331</ele><time>2026-03-29T07:59:52Z</time></trkpt><trkpt lat="45.530323613809024" lon="10.445137274333472"><ele>214.0</ele><time>2026-03-29T07:59:53Z</time></trkpt><trkpt lat="45.530278688858516" lon="10.445387940850614"><ele>213.66666666666666</ele><time>2026-03-29T07:59:54Z</time></trkpt><trkpt lat="45.530235053497975" lon="10.445665013290851"><ele>213.33333333333331</ele><time>2026-03-29T07:59:55Z</time></trkpt><trkpt lat="45.53018176607782" lon="10.445958493415151"><ele>213.0</ele><time>2026-03-29T07:59:56Z</time></trkpt><trkpt lat="45.5301047948103" lon="10.44625472283146"><ele>212.66666666666669</ele><time>2026-03-29T07:59:57Z</time></trkpt><trkpt lat="45.530029638583535" lon="10.446532732217285"><ele>212.33333333333334</ele><time>2026-03-29T07:59:58Z</time></trkpt><trkpt lat="45.529966935298674" lon="10.446757522626145"><ele>212.0</ele><time>2026-03-29T07:59:59Z</time></trkpt><trkpt lat="45.52989977414636" lon="10.446946822930483"><ele>212.0</ele><time>2026-03-29T08:00:00Z</time></trkpt><trkpt lat="45.529813253493614" lon="10.447101687321284"><ele>212.0</ele><time>2026-03-29T08:00:01Z</time></trkpt><trkpt lat="45.52968936498249" lon="10.44724886035856"><ele>212.0</ele><time>2026-03-29T08:00:02Z</time></trkpt><trkpt lat="45.52954073100338" lon="10.447387256793991"><ele>212.66666666666669</ele><time>2026-03-29T08:00:03Z</time></trkpt><trkpt lat="45.52936387508885" lon="10.44753270068477"><ele>213.33333333333331</ele><time>2026-03-29T08:00:04Z</time></trkpt><trkpt lat="45.52917772276104" lon="10.447682865206453"><ele>214.0</ele><time>2026-03-29T08:00:05Z</time></trkpt><trkpt lat="45.529008481510175" lon="10.447828735579897"><ele>212.0</ele><time>2026-03-29T08:00:06Z</time></trkpt><trkpt lat="45.52886514528383" lon="10.447971972635338"><ele>210.0</ele><time>2026-03-29T08:00:07Z</time></trkpt><trkpt lat="45.528739855908654" lon="10.448142472687259"><ele>208.0</ele><time>2026-03-29T08:00:08Z</time></trkpt><trkpt lat="45.52862855030242" lon="10.448349290313253"><ele>208.0</ele><time>2026-03-29T08:00:09Z</time></trkpt><trkpt lat="45.528553781339035" lon="10.448569771095052"><ele>208.0</ele><time>2026-03-29T08:00:10Z</time></trkpt><trkpt lat="45.528513364500675" lon="10.448803647592438"><ele>208.0</ele><time>2026-03-29T08:00:11Z</time></trkpt><trkpt lat="45.52850015650454" lon="10.44906188204106"><ele>208.0</ele><time>2026-03-29T08:00:12Z</time></trkpt><trkpt lat="45.52851569658715" lon="10.449343278676318"><ele>208.0</ele><time>2026-03-29T08:00:13Z</time></trkpt><trkpt lat="45.528541337793364" lon="10.44964401314188"><ele>208.0</ele><time>2026-03-29T08:00:14Z</time></trkpt><trkpt lat="45.528545183198325" lon="10.449916743964716"><ele>208.0</ele><time>2026-03-29T08:00:15Z</time></trkpt><trkpt lat="45.52852470100671" lon="10.450157050517616"><ele>208.0</ele><time>2026-03-29T08:00:16Z</time></trkpt><trkpt lat="45.52848724599059" lon="10.450401053495508"><ele>208.0</ele><time>2026-03-29T08:00:17Z</time></trkpt><trkpt lat="45.52842456748969" lon="10.45064098526526"><ele>208.0</ele><time>2026-03-29T08:00:18Z</time></trkpt><trkpt lat="45.52832968105017" lon="10.450879700380964"><ele>208.0</ele><time>2026-03-29T08:00:19Z</time></trkpt><trkpt lat="45.52820243898962" lon="10.451097621210385"><ele>208.0</ele><time>2026-03-29T08:00:20Z</time></trkpt><trkpt lat="45.52805434883039" lon="10.451308800227679"><ele>208.0</ele><time>2026-03-29T08:00:21Z</time></trkpt><trkpt lat="45.5279065741571" lon="10.45148900966666"><ele>208.0</ele><time>2026-03-29T08:00:22Z</time></trkpt><trkpt lat="45.52775995508329" lon="10.451644299764585"><ele>208.0</ele><time>2026-03-29T08:00:23Z</time></trkpt><trkpt lat="45.5276218414087" lon="10.451803485514757"><ele>208.0</ele><time>2026-03-29T08:00:24Z</time></trkpt><trkpt lat="45.527510071778266" lon="10.451983677775972"><ele>208.0</ele><time>2026-03-29T08:00:25Z</time></trkpt><trkpt lat="45.52741830868348" lon="10.452170346601234"><ele>208.0</ele><time>2026-03-29T08:00:26Z</time></trkpt><trkpt lat="45.52734236887779" lon="10.452357822944052"><ele>207.5</ele><time>2026-03-29T08:00:27Z</time></trkpt><trkpt lat="45.52726410517936" lon="10.452539213196552"><ele>207.0</ele><time>2026-03-29T08:00:28Z</time></trkpt><trkpt lat="45.52718889613412" lon="10.452708553936148"><ele>206.5</ele><time>2026-03-29T08:00:29Z</time></trkpt><trkpt lat="45.52711791286876" lon="10.45287223743289"><ele>206.0</ele><time>2026-03-29T08:00:30Z</time></trkpt><trkpt lat="45.52704776535995" lon="10.453028667283723"><ele>206.0</ele><time>2026-03-29T08:00:31Z</time></trkpt><trkpt lat="45.52697495741618" lon="10.45318548235131"><ele>206.0</ele><time>2026-03-29T08:00:32Z</time></trkpt><trkpt lat="45.52688847519988" lon="10.453349243172795"><ele>206.0</ele><time>2026-03-29T08:00:33Z</time></trkpt><trkpt lat="45.52679475657164" lon="10.453508832550895"><ele>206.0</ele><time>2026-03-29T08:00:34Z</time></trkpt><trkpt lat="45.526685566620785" lon="10.45366340602905"><ele>206.66666666666669</ele><time>2026-03-29T08:00:35Z</time></trkpt><trkpt lat="45.526573279112064" lon="10.453817320499361"><ele>207.33333333333331</ele><time>2026-03-29T08:00:36Z</time></trkpt><trkpt lat="45.52646969162536" lon="10.453988807416026"><ele>208.0</ele><time>2026-03-29T08:00:37Z</time></trkpt><trkpt lat="45.52638154658874" lon="10.454190495800372"><ele>208.0</ele><time>2026-03-29T08:00:38Z</time></trkpt><trkpt lat="45.526312463408395" lon="10.454393109230278"><ele>208.0</ele><time>2026-03-29T08:00:39Z</time></trkpt><trkpt lat="45.52624042761675" lon="10.454620840182029"><ele>208.0</ele><time>2026-03-29T08:00:40Z</time></trkpt><trkpt lat="45.52616408611614" lon="10.454834248117972"><ele>207.0</ele><time>2026-03-29T08:00:41Z</time></trkpt><trkpt lat="45.526081215998474" lon="10.45504825126729"><ele>206.0</ele><time>2026-03-29T08:00:42Z</time></trkpt><trkpt lat="45.52600206588429" lon="10.45526352296799"><ele>205.0</ele><time>2026-03-29T08:00:43Z</time></trkpt><trkpt lat="45.52592916218428" lon="10.455480470847117"><ele>205.0</ele><time>2026-03-29T08:00:44Z</time></trkpt><trkpt lat="45.52585269485989" lon="10.455696450313484"><ele>205.0</ele><time>2026-03-29T08:00:45Z</time></trkpt><trkpt lat="45.52577779940621" lon="10.455906921919842"><ele>205.0</ele><time>2026-03-29T08:00:46Z</time></trkpt><trkpt lat="45.52570063215465" lon="10.45610662842855"><ele>205.0</ele><time>2026-03-29T08:00:47Z</time></trkpt><trkpt lat="45.525620991230845" lon="10.456299686560088"><ele>205.0</ele><time>2026-03-29T08:00:48Z</time></trkpt><trkpt lat="45.52555673976267" lon="10.456476180987066"><ele>205.0</ele><time>2026-03-29T08:00:49Z</time></trkpt><trkpt lat="45.525507180550264" lon="10.456609649931865"><ele>205.0</ele><time>2026-03-29T08:00:50Z</time></trkpt><trkpt lat="45.5254509775432" lon="10.45671006627397"><ele>205.0</ele><time>2026-03-29T08:00:51Z</time></trkpt><trkpt lat="45.525404103296665" lon="10.456777271925588"><ele>205.0</ele><time>2026-03-29T08:00:52Z</time></trkpt><trkpt lat="45.52536096498239" lon="10.456847751595664"><ele>205.0</ele><time>2026-03-29T08:00:53Z</time></trkpt><trkpt lat="45.52530910729696" lon="10.45696785777217"><ele>205.0</ele><time>2026-03-29T08:00:54Z</time></trkpt><trkpt lat="45.525238843752355" lon="10.457124010445447"><ele>205.0</ele><time>2026-03-29T08:00:55Z</time></trkpt><trkpt lat="45.525165666321485" lon="10.4572680520288"><ele>204.6</ele><time>2026-03-29T08:00:56Z</time></trkpt><trkpt lat="45.525112108655364" lon="10.457377234564277"><ele>204.2</ele><time>2026-03-29T08:00:57Z</time></trkpt><trkpt lat="45.525058788137564" lon="10.457439843779643"><ele>203.8</ele><time>2026-03-29T08:00:58Z</time></trkpt><trkpt lat="45.524942222501515" lon="10.457401387034373"><ele>203.4</ele><time>2026-03-29T08:01:00Z</time></trkpt><trkpt lat="45.52485028699258" lon="10.457378514686866"><ele>203.0</ele><time>2026-03-29T08:01:01Z</time></trkpt><trkpt lat="45.52475571380393" lon="10.457371675980191"><ele>203.0</ele><time>2026-03-29T08:01:02Z</time></trkpt><trkpt lat="45.52464698761903" lon="10.45734847752438"><ele>203.0</ele><time>2026-03-29T08:01:03Z</time></trkpt><trkpt lat="45.524528242106236" lon="10.457317719684022"><ele>203.0</ele><time>2026-03-29T08:01:04Z</time></trkpt><trkpt lat="45.52439563506952" lon="10.457317162717631"><ele>203.0</ele><time>2026-03-29T08:01:05Z</time></trkpt><trkpt lat="45.524253102016374" lon="10.457288557410724"><ele>202.33333333333334</ele><time>2026-03-29T08:01:06Z</time></trkpt><trkpt lat="45.524099770322934" lon="10.457260578768658"><ele>201.66666666666669</ele><time>2026-03-29T08:01:07Z</time></trkpt><trkpt lat="45.5239397136651" lon="10.457233161667274"><ele>201.0</ele><time>2026-03-29T08:01:08Z</time></trkpt><trkpt lat="45.52377625300511" lon="10.457200245342415"><ele>200.0</ele><time>2026-03-29T08:01:09Z</time></trkpt><trkpt lat="45.52362015423326" lon="10.457130662314984"><ele>199.0</ele><time>2026-03-29T08:01:10Z</time></trkpt><trkpt lat="45.523446253445556" lon="10.457073006900085"><ele>198.0</ele><time>2026-03-29T08:01:11Z</time></trkpt><trkpt lat="45.523273307638114" lon="10.457014308343075"><ele>198.0</ele><time>2026-03-29T08:01:12Z</time></trkpt><trkpt lat="45.52308885578296" lon="10.456949426972612"><ele>198.0</ele><time>2026-03-29T08:01:13Z</time></trkpt><trkpt lat="45.522891107500556" lon="10.456879868554154"><ele>198.0</ele><time>2026-03-29T08:01:14Z</time></trkpt><trkpt lat="45.52269508775339" lon="10.456807300657363"><ele>197.33333333333331</ele><time>2026-03-29T08:01:15Z</time></trkpt><trkpt lat="45.52249637112039" lon="10.456733421505877"><ele>196.66666666666666</ele><time>2026-03-29T08:01:16Z</time></trkpt><trkpt lat="45.52229383380844" lon="10.45665772334438"><ele>196.0</ele><time>2026-03-29T08:01:17Z</time></trkpt><trkpt lat="45.522097408980336" lon="10.456581272669476"><ele>195.33333333333331</ele><time>2026-03-29T08:01:18Z</time></trkpt><trkpt lat="45.521906744369" lon="10.456507433149243"><ele>194.66666666666669</ele><time>2026-03-29T08:01:19Z</time></trkpt><trkpt lat="45.52171905725899" lon="10.456436114509048"><ele>194.0</ele><time>2026-03-29T08:01:20Z</time></trkpt><trkpt lat="45.521542073723175" lon="10.45638440597044"><ele>194.0</ele><time>2026-03-29T08:01:21Z</time></trkpt><trkpt lat="45.52137713332167" lon="10.456388332839225"><ele>194.0</ele><time>2026-03-29T08:01:22Z</time></trkpt><trkpt lat="45.52123014790591" lon="10.456327010958544"><ele>194.0</ele><time>2026-03-29T08:01:23Z</time></trkpt><trkpt lat="45.5210702041278" lon="10.456240006883387"><ele>193.66666666666669</ele><time>2026-03-29T08:01:24Z</time></trkpt><trkpt lat="45.520905780361666" lon="10.45612809317796"><ele>193.33333333333331</ele><time>2026-03-29T08:01:25Z</time></trkpt><trkpt lat="45.52073474022199" lon="10.456008096558579"><ele>193.0</ele><time>2026-03-29T08:01:26Z</time></trkpt><trkpt lat="45.52055220267142" lon="10.455889477412299"><ele>192.33333333333331</ele><time>2026-03-29T08:01:27Z</time></trkpt><trkpt lat="45.52035740287823" lon="10.455767108438112"><ele>191.66666666666666</ele><time>2026-03-29T08:01:28Z</time></trkpt><trkpt lat="45.520167973997665" lon="10.455649388974678"><ele>191.0</ele><time>2026-03-29T08:01:29Z</time></trkpt><trkpt lat="45.51999801121825" lon="10.455541699005222"><ele>191.33333333333331</ele><time>2026-03-29T08:01:30Z</time></trkpt><trkpt lat="45.5198568663596" lon="10.455426171176814"><ele>191.66666666666666</ele><time>2026-03-29T08:01:31Z</time></trkpt><trkpt lat="45.51971844943679" lon="10.455315630248291"><ele>192.0</ele><time>2026-03-29T08:01:32Z</time></trkpt><trkpt lat="45.51954491910318" lon="10.455213510239922"><ele>191.33333333333334</ele><time>2026-03-29T08:01:33Z</time></trkpt><trkpt lat="45.519365275324816" lon="10.455137934070398"><ele>190.66666666666669</ele><time>2026-03-29T08:01:34Z</time></trkpt><trkpt lat="45.51919961479847" lon="10.455061420264032"><ele>190.0</ele><time>2026-03-29T08:01:35Z</time></trkpt><trkpt lat="45.51904730652276" lon="10.454986429068557"><ele>190.0</ele><time>2026-03-29T08:01:36Z</time></trkpt><trkpt lat="45.51890961328392" lon="10.454918633817384"><ele>190.0</ele><time>2026-03-29T08:01:37Z</time></trkpt><trkpt lat="45.51878484739278" lon="10.454858983894406"><ele>190.0</ele><time>2026-03-29T08:01:38Z</time></trkpt><trkpt lat="45.518663375403136" lon="10.454807962160219"><ele>190.0</ele><time>2026-03-29T08:01:39Z</time></trkpt><trkpt lat="45.51854772049326" lon="10.454767120613608"><ele>190.0</ele><time>2026-03-29T08:01:40Z</time></trkpt><trkpt lat="45.51844537124133" lon="10.454753706876598"><ele>190.0</ele><time>2026-03-29T08:01:41Z</time></trkpt><trkpt lat="45.518365933176035" lon="10.454735750270483"><ele>190.0</ele><time>2026-03-29T08:01:42Z</time></trkpt><trkpt lat="45.518246075364864" lon="10.45473010790073"><ele>190.0</ele><time>2026-03-29T08:01:44Z</time></trkpt><trkpt lat="45.51818256550873" lon="10.454405728969315"><ele>190.0</ele><time>2026-03-29T08:01:45Z</time></trkpt><trkpt lat="45.518112792972516" lon="10.454272781228521"><ele>190.0</ele><time>2026-03-29T08:01:46Z</time></trkpt><trkpt lat="45.51803081493752" lon="10.454162580712502"><ele>190.0</ele><time>2026-03-29T08:01:47Z</time></trkpt><trkpt lat="45.51795468514813" lon="10.454073100017403"><ele>190.0</ele><time>2026-03-29T08:01:48Z</time></trkpt><trkpt lat="45.51786478483903" lon="10.45396116876867"><ele>190.0</ele><time>2026-03-29T08:01:49Z</time></trkpt><trkpt lat="45.51778196910117" lon="10.453847249361038"><ele>189.4</ele><time>2026-03-29T08:01:50Z</time></trkpt><trkpt lat="45.517706615371495" lon="10.453718810598813"><ele>188.8</ele><time>2026-03-29T08:01:51Z</time></trkpt><trkpt lat="45.517658511974375" lon="10.453594411585163"><ele>188.2</ele><time>2026-03-29T08:01:52Z</time></trkpt><trkpt lat="45.51762971426983" lon="10.453447498061008"><ele>187.6</ele><time>2026-03-29T08:01:53Z</time></trkpt><trkpt lat="45.51762790546805" lon="10.453282882003702"><ele>187.0</ele><time>2026-03-29T08:01:54Z</time></trkpt><trkpt lat="45.51764705181327" lon="10.453113465604355"><ele>187.25</ele><time>2026-03-29T08:01:55Z</time></trkpt><trkpt lat="45.517673129336906" lon="10.45295237227056"><ele>187.5</ele><time>2026-03-29T08:01:56Z</time></trkpt><trkpt lat="45.51766655461221" lon="10.452818725149623"><ele>187.75</ele><time>2026-03-29T08:01:57Z</time></trkpt><trkpt lat="45.517642253072204" lon="10.452650949085761"><ele>188.0</ele><time>2026-03-29T08:01:58Z</time></trkpt><trkpt lat="45.51761727282226" lon="10.452475717172607"><ele>188.0</ele><time>2026-03-29T08:01:59Z</time></trkpt><trkpt lat="45.51760140293794" lon="10.452332111795167"><ele>188.0</ele><time>2026-03-29T08:02:00Z</time></trkpt><trkpt lat="45.51760077890911" lon="10.452157630253463"><ele>188.0</ele><time>2026-03-29T08:02:01Z</time></trkpt><trkpt lat="45.51760315209743" lon="10.451930749606063"><ele>188.0</ele><time>2026-03-29T08:02:02Z</time></trkpt><trkpt lat="45.51761417203068" lon="10.451690212863154"><ele>188.0</ele><time>2026-03-29T08:02:03Z</time></trkpt><trkpt lat="45.51763155095016" lon="10.451452280901162"><ele>188.0</ele><time>2026-03-29T08:02:04Z</time></trkpt><trkpt lat="45.517645432341915" lon="10.451261071805497"><ele>188.0</ele><time>2026-03-29T08:02:05Z</time></trkpt><trkpt lat="45.51764499844003" lon="10.451095419092722"><ele>188.0</ele><time>2026-03-29T08:02:06Z</time></trkpt><trkpt lat="45.51762906880487" lon="10.450917033943782"><ele>188.0</ele><time>2026-03-29T08:02:07Z</time></trkpt><trkpt lat="45.51759159017862" lon="10.450717915452657"><ele>188.0</ele><time>2026-03-29T08:02:08Z</time></trkpt><trkpt lat="45.51754348761697" lon="10.45049137300737"><ele>188.0</ele><time>2026-03-29T08:02:09Z</time></trkpt><trkpt lat="45.517490869265025" lon="10.450277447728677"><ele>188.0</ele><time>2026-03-29T08:02:10Z</time></trkpt><trkpt lat="45.517440454056725" lon="10.450123518387304"><ele>188.0</ele><time>2026-03-29T08:02:11Z</time></trkpt><trkpt lat="45.51738742402547" lon="10.449990362808641"><ele>188.0</ele><time>2026-03-29T08:02:12Z</time></trkpt><trkpt lat="45.517334189419714" lon="10.449807577376633"><ele>188.0</ele><time>2026-03-29T08:02:13Z</time></trkpt><trkpt lat="45.517268419749215" lon="10.449636422775768"><ele>188.0</ele><time>2026-03-29T08:02:14Z</time></trkpt><trkpt lat="45.51720160658683" lon="10.449476681925283"><ele>188.0</ele><time>2026-03-29T08:02:15Z</time></trkpt><trkpt lat="45.51715192919743" lon="10.449336342639066"><ele>188.0</ele><time>2026-03-29T08:02:16Z</time></trkpt><trkpt lat="45.51711219433287" lon="10.449211572735193"><ele>188.0</ele><time>2026-03-29T08:02:17Z</time></trkpt><trkpt lat="45.51706941401044" lon="10.44905358145127"><ele>188.0</ele><time>2026-03-29T08:02:18Z</time></trkpt><trkpt lat="45.51702146580267" lon="10.448888566096839"><ele>188.0</ele><time>2026-03-29T08:02:19Z</time></trkpt><trkpt lat="45.516971657655176" lon="10.448747649091995"><ele>188.0</ele><time>2026-03-29T08:02:20Z</time></trkpt><trkpt lat="45.5169149560655" lon="10.448610694571277"><ele>188.0</ele><time>2026-03-29T08:02:21Z</time></trkpt><trkpt lat="45.51686458783566" lon="10.448512787138394"><ele>188.0</ele><time>2026-03-29T08:02:22Z</time></trkpt><trkpt lat="45.51681656506687" lon="10.448431325387151"><ele>187.5</ele><time>2026-03-29T08:02:23Z</time></trkpt><trkpt lat="45.51675036273592" lon="10.448366132476544"><ele>187.0</ele><time>2026-03-29T08:02:24Z</time></trkpt><trkpt lat="45.516658171491706" lon="10.448275137373548"><ele>186.5</ele><time>2026-03-29T08:02:25Z</time></trkpt><trkpt lat="45.51654877319015" lon="10.448179075438302"><ele>186.0</ele><time>2026-03-29T08:02:26Z</time></trkpt><trkpt lat="45.51642677794722" lon="10.44811548594551"><ele>186.0</ele><time>2026-03-29T08:02:27Z</time></trkpt><trkpt lat="45.51627335571566" lon="10.448038230778195"><ele>186.0</ele><time>2026-03-29T08:02:28Z</time></trkpt><trkpt lat="45.51610815523025" lon="10.44794215495698"><ele>186.0</ele><time>2026-03-29T08:02:29Z</time></trkpt><trkpt lat="45.51594197304049" lon="10.447843387274592"><ele>185.0</ele><time>2026-03-29T08:02:30Z</time></trkpt><trkpt lat="45.51575920421104" lon="10.447733110619113"><ele>184.0</ele><time>2026-03-29T08:02:31Z</time></trkpt><trkpt lat="45.51555970282013" lon="10.44762122999392"><ele>183.0</ele><time>2026-03-29T08:02:32Z</time></trkpt><trkpt lat="45.51536886146988" lon="10.44750791626254"><ele>182.8</ele><time>2026-03-29T08:02:33Z</time></trkpt><trkpt lat="45.51523079046609" lon="10.447415989539664"><ele>182.60000000000002</ele><time>2026-03-29T08:02:34Z</time></trkpt><trkpt lat="45.515119778047946" lon="10.447343298692537"><ele>182.39999999999998</ele><time>2026-03-29T08:02:35Z</time></trkpt><trkpt lat="45.515027765483865" lon="10.447293767451152"><ele>182.2</ele><time>2026-03-29T08:02:36Z</time></trkpt><trkpt lat="45.514955892268965" lon="10.447260474499169"><ele>182.0</ele><time>2026-03-29T08:02:37Z</time></trkpt><trkpt lat="45.51488981680739" lon="10.447201852990142"><ele>181.8</ele><time>2026-03-29T08:02:39Z</time></trkpt><trkpt lat="45.51489880835954" lon="10.44709285796196"><ele>181.6</ele><time>2026-03-29T08:02:41Z</time></trkpt><trkpt lat="45.51493460936002" lon="10.447015970118617"><ele>181.4</ele><time>2026-03-29T08:02:42Z</time></trkpt><trkpt lat="45.514981214140576" lon="10.446909814021208"><ele>181.20000000000002</ele><time>2026-03-29T08:02:43Z</time></trkpt><trkpt lat="45.51504701691225" lon="10.446745038803677"><ele>181.0</ele><time>2026-03-29T08:02:44Z</time></trkpt><trkpt lat="45.51510920464784" lon="10.446549332264407"><ele>181.0</ele><time>2026-03-29T08:02:45Z</time></trkpt><trkpt lat="45.51517670012678" lon="10.446320151534852"><ele>181.0</ele><time>2026-03-29T08:02:46Z</time></trkpt><trkpt lat="45.5152344556296" lon="10.446140620638667"><ele>181.0</ele><time>2026-03-29T08:02:47Z</time></trkpt><trkpt lat="45.51528610958691" lon="10.445977748130254"><ele>181.0</ele><time>2026-03-29T08:02:48Z</time></trkpt><trkpt lat="45.51533259115298" lon="10.44582838620485"><ele>181.25</ele><time>2026-03-29T08:02:49Z</time></trkpt><trkpt lat="45.51537624415553" lon="10.44566719008136"><ele>181.5</ele><time>2026-03-29T08:02:50Z</time></trkpt><trkpt lat="45.515414207971986" lon="10.445509469668469"><ele>181.75</ele><time>2026-03-29T08:02:51Z</time></trkpt><trkpt lat="45.515445144382866" lon="10.445356780688005"><ele>182.0</ele><time>2026-03-29T08:02:52Z</time></trkpt><trkpt lat="45.51548028833273" lon="10.445178640989555"><ele>182.0</ele><time>2026-03-29T08:02:53Z</time></trkpt><trkpt lat="45.51551865530755" lon="10.445004704373952"><ele>182.0</ele><time>2026-03-29T08:02:54Z</time></trkpt><trkpt lat="45.515550098924635" lon="10.444854977613751"><ele>182.0</ele><time>2026-03-29T08:02:55Z</time></trkpt><trkpt lat="45.51557282803688" lon="10.444731278317533"><ele>182.0</ele><time>2026-03-29T08:02:56Z</time></trkpt><trkpt lat="45.51559765692152" lon="10.444617162546999"><ele>182.0</ele><time>2026-03-29T08:02:57Z</time></trkpt><trkpt lat="45.51562094518286" lon="10.444485629531563"><ele>182.0</ele><time>2026-03-29T08:02:58Z</time></trkpt><trkpt lat="45.51564332381119" lon="10.444372328023068"><ele>182.0</ele><time>2026-03-29T08:02:59Z</time></trkpt><trkpt lat="45.5156644473463" lon="10.444270951931438"><ele>182.0</ele><time>2026-03-29T08:03:00Z</time></trkpt><trkpt lat="45.515687271066696" lon="10.44416396980411"><ele>182.0</ele><time>2026-03-29T08:03:01Z</time></trkpt><trkpt lat="45.51571402073192" lon="10.444041680961222"><ele>182.0</ele><time>2026-03-29T08:03:02Z</time></trkpt><trkpt lat="45.51574790777513" lon="10.443921879692684"><ele>182.0</ele><time>2026-03-29T08:03:03Z</time></trkpt><trkpt lat="45.515782025516486" lon="10.443831348234362"><ele>182.0</ele><time>2026-03-29T08:03:04Z</time></trkpt><trkpt lat="45.51585014122879" lon="10.443692690398358"><ele>182.0</ele><time>2026-03-29T08:03:06Z</time></trkpt><trkpt lat="45.51588697242894" lon="10.44355568283975"><ele>182.0</ele><time>2026-03-29T08:03:08Z</time></trkpt><trkpt lat="45.5159429788707" lon="10.443441230166275"><ele>182.0</ele><time>2026-03-29T08:03:10Z</time></trkpt><trkpt lat="45.51598571084738" lon="10.443366438714417"><ele>182.0</ele><time>2026-03-29T08:03:12Z</time></trkpt><trkpt lat="45.51603303706021" lon="10.443244297675987"><ele>182.0</ele><time>2026-03-29T08:04:23Z</time></trkpt><trkpt lat="45.51605878748962" lon="10.443129193919063"><ele>182.0</ele><time>2026-03-29T08:04:24Z</time></trkpt><trkpt lat="45.51609044376372" lon="10.442990762572045"><ele>182.0</ele><time>2026-03-29T08:04:25Z</time></trkpt><trkpt lat="45.51614518139825" lon="10.44285390487939"><ele>182.0</ele><time>2026-03-29T08:04:26Z</time></trkpt><trkpt lat="45.516199125603826" lon="10.442723827305478"><ele>182.0</ele><time>2026-03-29T08:04:27Z</time></trkpt><trkpt lat="45.516255906103005" lon="10.442619813165129"><ele>181.66666666666666</ele><time>2026-03-29T08:04:28Z</time></trkpt><trkpt lat="45.516307999118375" lon="10.442517935314422"><ele>181.33333333333334</ele><time>2026-03-29T08:04:29Z</time></trkpt><trkpt lat="45.516362310147585" lon="10.442399262870532"><ele>181.0</ele><time>2026-03-29T08:04:30Z</time></trkpt><trkpt lat="45.5162078560593" lon="10.442049965459649"><ele>181.0</ele><time>2026-03-29T08:04:31Z</time></trkpt><trkpt lat="45.516231486877096" lon="10.441870748403689"><ele>181.0</ele><time>2026-03-29T08:04:32Z</time></trkpt><trkpt lat="45.51626479050491" lon="10.441695201236108"><ele>181.0</ele><time>2026-03-29T08:04:33Z</time></trkpt><trkpt lat="45.516292138628906" lon="10.44152195598668"><ele>181.0</ele><time>2026-03-29T08:04:34Z</time></trkpt><trkpt lat="45.51631220355894" lon="10.44136547652488"><ele>181.20000000000002</ele><time>2026-03-29T08:04:35Z</time></trkpt><trkpt lat="45.51633620393568" lon="10.441225116040762"><ele>181.4</ele><time>2026-03-29T08:04:36Z</time></trkpt><trkpt lat="45.51636145066073" lon="10.441110537909784"><ele>181.6</ele><time>2026-03-29T08:04:37Z</time></trkpt><trkpt lat="45.51638923277997" lon="10.441017394209222"><ele>181.8</ele><time>2026-03-29T08:04:38Z</time></trkpt><trkpt lat="45.516383222018746" lon="10.440874239820431"><ele>182.0</ele><time>2026-03-29T08:04:40Z</time></trkpt><trkpt lat="45.51630634201715" lon="10.440790880167468"><ele>182.0</ele><time>2026-03-29T08:04:42Z</time></trkpt><trkpt lat="45.51623283323614" lon="10.440750157371182"><ele>182.0</ele><time>2026-03-29T08:04:43Z</time></trkpt><trkpt lat="45.51615247947368" lon="10.440668434328622"><ele>182.0</ele><time>2026-03-29T08:04:44Z</time></trkpt><trkpt lat="45.51608941810777" lon="10.440569986974028"><ele>182.0</ele><time>2026-03-29T08:04:45Z</time></trkpt><trkpt lat="45.51606744098364" lon="10.440476091678825"><ele>182.0</ele><time>2026-03-29T08:04:46Z</time></trkpt><trkpt lat="45.51607669183688" lon="10.440288468377256"><ele>181.5</ele><time>2026-03-29T08:04:48Z</time></trkpt><trkpt lat="45.51610700113168" lon="10.44013957751418"><ele>181.0</ele><time>2026-03-29T08:04:49Z</time></trkpt><trkpt lat="45.51614666365222" lon="10.439963045379882"><ele>180.5</ele><time>2026-03-29T08:04:50Z</time></trkpt><trkpt lat="45.516186081684936" lon="10.439811050876946"><ele>180.0</ele><time>2026-03-29T08:04:51Z</time></trkpt><trkpt lat="45.51622797476913" lon="10.439667965858028"><ele>181.2</ele><time>2026-03-29T08:04:52Z</time></trkpt><trkpt lat="45.516275019405654" lon="10.439542019540955"><ele>182.4</ele><time>2026-03-29T08:04:53Z</time></trkpt><trkpt lat="45.51632659475153" lon="10.439422878580977"><ele>183.60000000000002</ele><time>2026-03-29T08:04:54Z</time></trkpt><trkpt lat="45.5163848148737" lon="10.439310544214655"><ele>184.8</ele><time>2026-03-29T08:04:55Z</time></trkpt><trkpt lat="45.51645393510725" lon="10.439221901712797"><ele>186.0</ele><time>2026-03-29T08:04:56Z</time></trkpt><trkpt lat="45.516519918143274" lon="10.439089600196922"><ele>186.0</ele><time>2026-03-29T08:04:57Z</time></trkpt><trkpt lat="45.516579154492064" lon="10.438966642839306"><ele>186.0</ele><time>2026-03-29T08:04:58Z</time></trkpt><trkpt lat="45.51663228487861" lon="10.438845694154145"><ele>186.0</ele><time>2026-03-29T08:04:59Z</time></trkpt><trkpt lat="45.516671508773904" lon="10.438727680724783"><ele>186.0</ele><time>2026-03-29T08:05:00Z</time></trkpt><trkpt lat="45.51671196654654" lon="10.438578704258882"><ele>186.0</ele><time>2026-03-29T08:05:02Z</time></trkpt><trkpt lat="45.51681471525305" lon="10.438622741549773"><ele>186.8</ele><time>2026-03-29T08:05:05Z</time></trkpt><trkpt lat="45.51689700731069" lon="10.4386484677644"><ele>187.60000000000002</ele><time>2026-03-29T08:05:06Z</time></trkpt><trkpt lat="45.51698499391989" lon="10.43871646264768"><ele>188.4</ele><time>2026-03-29T08:05:07Z</time></trkpt><trkpt lat="45.51707780589293" lon="10.43871782643706"><ele>189.2</ele><time>2026-03-29T08:05:08Z</time></trkpt><trkpt lat="45.51717400555497" lon="10.438679908923381"><ele>190.0</ele><time>2026-03-29T08:05:09Z</time></trkpt><trkpt lat="45.51729913489168" lon="10.438637006823262"><ele>190.2</ele><time>2026-03-29T08:05:10Z</time></trkpt><trkpt lat="45.51741447903536" lon="10.438578793613962"><ele>190.4</ele><time>2026-03-29T08:05:11Z</time></trkpt><trkpt lat="45.51751356875457" lon="10.438528727240525"><ele>190.60000000000002</ele><time>2026-03-29T08:05:12Z</time></trkpt><trkpt lat="45.51760781118869" lon="10.438473840629003"><ele>190.8</ele><time>2026-03-29T08:05:13Z</time></trkpt><trkpt lat="45.517706762147014" lon="10.438418819658795"><ele>191.0</ele><time>2026-03-29T08:05:14Z</time></trkpt><trkpt lat="45.517776994804755" lon="10.438380006877978"><ele>191.0</ele><time>2026-03-29T08:05:15Z</time></trkpt><trkpt lat="45.51784479040956" lon="10.438353525596188"><ele>191.0</ele><time>2026-03-29T08:05:16Z</time></trkpt><trkpt lat="45.51791044732336" lon="10.438248061619257"><ele>191.0</ele><time>2026-03-29T08:05:17Z</time></trkpt><trkpt lat="45.51799803130079" lon="10.438169870801511"><ele>191.0</ele><time>2026-03-29T08:05:18Z</time></trkpt><trkpt lat="45.51807161705056" lon="10.438102389980125"><ele>191.0</ele><time>2026-03-29T08:05:19Z</time></trkpt><trkpt lat="45.51813600811502" lon="10.43804590053459"><ele>191.0</ele><time>2026-03-29T08:05:20Z</time></trkpt><trkpt lat="45.51819952919402" lon="10.437966247027871"><ele>191.0</ele><time>2026-03-29T08:05:21Z</time></trkpt><trkpt lat="45.518271360495625" lon="10.437918354955682"><ele>191.0</ele><time>2026-03-29T08:05:22Z</time></trkpt><trkpt lat="45.51837085314436" lon="10.437836967305122"><ele>191.0</ele><time>2026-03-29T08:05:23Z</time></trkpt><trkpt lat="45.51846676455665" lon="10.437742266696974"><ele>191.0</ele><time>2026-03-29T08:05:24Z</time></trkpt><trkpt lat="45.51857067961788" lon="10.437645574352322"><ele>191.0</ele><time>2026-03-29T08:05:25Z</time></trkpt><trkpt lat="45.51868203976876" lon="10.437559745014667"><ele>190.5</ele><time>2026-03-29T08:05:26Z</time></trkpt><trkpt lat="45.518802755101426" lon="10.437456366696065"><ele>190.0</ele><time>2026-03-29T08:05:27Z</time></trkpt><trkpt lat="45.51892893281722" lon="10.437349397363754"><ele>189.5</ele><time>2026-03-29T08:05:28Z</time></trkpt><trkpt lat="45.519067635659205" lon="10.437238508538147"><ele>189.0</ele><time>2026-03-29T08:05:29Z</time></trkpt><trkpt lat="45.51919276728035" lon="10.437131370116559"><ele>188.75</ele><time>2026-03-29T08:05:30Z</time></trkpt><trkpt lat="45.51929971742625" lon="10.437035001666711"><ele>188.5</ele><time>2026-03-29T08:05:31Z</time></trkpt><trkpt lat="45.51940434608598" lon="10.436964601585625"><ele>188.25</ele><time>2026-03-29T08:05:32Z</time></trkpt><trkpt lat="45.51951671109084" lon="10.436881581193383"><ele>188.0</ele><time>2026-03-29T08:05:33Z</time></trkpt><trkpt lat="45.51959876394091" lon="10.43681186532431"><ele>188.60000000000002</ele><time>2026-03-29T08:05:34Z</time></trkpt><trkpt lat="45.51967057510759" lon="10.436752188983652"><ele>189.20000000000002</ele><time>2026-03-29T08:05:35Z</time></trkpt><trkpt lat="45.51976394785061" lon="10.4366733304376"><ele>189.8</ele><time>2026-03-29T08:05:37Z</time></trkpt><trkpt lat="45.51987718990485" lon="10.436660103527526"><ele>190.4</ele><time>2026-03-29T08:05:39Z</time></trkpt><trkpt lat="45.51995600830737" lon="10.436681913395677"><ele>191.0</ele><time>2026-03-29T08:05:40Z</time></trkpt><trkpt lat="45.520028995787065" lon="10.436711240790105"><ele>191.0</ele><time>2026-03-29T08:05:41Z</time></trkpt><trkpt lat="45.52009739975742" lon="10.436699417119208"><ele>191.0</ele><time>2026-03-29T08:05:43Z</time></trkpt><trkpt lat="45.52014712889684" lon="10.436539676060235"><ele>191.0</ele><time>2026-03-29T08:05:45Z</time></trkpt><trkpt lat="45.520178321376015" lon="10.436449946781195"><ele>191.0</ele><time>2026-03-29T08:05:46Z</time></trkpt><trkpt lat="45.52020589144874" lon="10.43632600243258"><ele>191.0</ele><time>2026-03-29T08:05:47Z</time></trkpt><trkpt lat="45.520243363247445" lon="10.436157543157998"><ele>190.75</ele><time>2026-03-29T08:05:48Z</time></trkpt><trkpt lat="45.520285762167966" lon="10.435974509146329"><ele>190.5</ele><time>2026-03-29T08:05:49Z</time></trkpt><trkpt lat="45.520333815183044" lon="10.435806207811956"><ele>190.25</ele><time>2026-03-29T08:05:50Z</time></trkpt><trkpt lat="45.520376125047136" lon="10.43567916787536"><ele>190.0</ele><time>2026-03-29T08:05:51Z</time></trkpt><trkpt lat="45.52041858897701" lon="10.43556783829541"><ele>190.6</ele><time>2026-03-29T08:05:52Z</time></trkpt><trkpt lat="45.52046889863363" lon="10.43547155556597"><ele>191.2</ele><time>2026-03-29T08:05:53Z</time></trkpt><trkpt lat="45.52052696154685" lon="10.43538522942041"><ele>191.8</ele><time>2026-03-29T08:05:54Z</time></trkpt><trkpt lat="45.52063180727236" lon="10.435333318240335"><ele>192.4</ele><time>2026-03-29T08:05:55Z</time></trkpt><trkpt lat="45.52073779958214" lon="10.435267534617507"><ele>193.0</ele><time>2026-03-29T08:05:56Z</time></trkpt><trkpt lat="45.52083087397701" lon="10.435175621509316"><ele>193.5</ele><time>2026-03-29T08:05:57Z</time></trkpt><trkpt lat="45.52091601722922" lon="10.435105605010401"><ele>194.0</ele><time>2026-03-29T08:05:58Z</time></trkpt><trkpt lat="45.521018899848045" lon="10.435023844878152"><ele>194.5</ele><time>2026-03-29T08:05:59Z</time></trkpt><trkpt lat="45.52110741880529" lon="10.434910263775999"><ele>195.0</ele><time>2026-03-29T08:06:00Z</time></trkpt><trkpt lat="45.521187423484186" lon="10.434792760277459"><ele>195.2</ele><time>2026-03-29T08:06:01Z</time></trkpt><trkpt lat="45.52126250728615" lon="10.434686195727759"><ele>195.4</ele><time>2026-03-29T08:06:02Z</time></trkpt><trkpt lat="45.521335229687814" lon="10.434589781118603"><ele>195.60000000000002</ele><time>2026-03-29T08:06:03Z</time></trkpt><trkpt lat="45.521395469474506" lon="10.434511069104127"><ele>195.8</ele><time>2026-03-29T08:06:04Z</time></trkpt><trkpt lat="45.52145327111397" lon="10.434409312365556"><ele>196.0</ele><time>2026-03-29T08:06:05Z</time></trkpt><trkpt lat="45.52153603103971" lon="10.434316384405884"><ele>196.0</ele><time>2026-03-29T08:06:06Z</time></trkpt><trkpt lat="45.52161899970152" lon="10.434206953220801"><ele>196.0</ele><time>2026-03-29T08:06:07Z</time></trkpt><trkpt lat="45.52171891780266" lon="10.434095746726532"><ele>196.0</ele><time>2026-03-29T08:06:08Z</time></trkpt><trkpt lat="45.52181517756227" lon="10.434047514090992"><ele>196.0</ele><time>2026-03-29T08:06:09Z</time></trkpt><trkpt lat="45.5219260015986" lon="10.433980610649506"><ele>195.99999999999997</ele><time>2026-03-29T08:06:10Z</time></trkpt><trkpt lat="45.52201041504677" lon="10.433925228063895"><ele>196.0</ele><time>2026-03-29T08:06:11Z</time></trkpt><trkpt lat="45.522093349766976" lon="10.433868541752663"><ele>196.0</ele><time>2026-03-29T08:06:12Z</time></trkpt><trkpt lat="45.52215982426494" lon="10.433814688212511"><ele>196.0</ele><time>2026-03-29T08:06:13Z</time></trkpt><trkpt lat="45.52225394174416" lon="10.433705962852384"><ele>195.99999999999997</ele><time>2026-03-29T08:06:15Z</time></trkpt><trkpt lat="45.5222698536637" lon="10.433615913348522"><ele>196.0</ele><time>2026-03-29T08:06:16Z</time></trkpt><trkpt lat="45.52223578583354" lon="10.433506134806514"><ele>196.0</ele><time>2026-03-29T08:06:17Z</time></trkpt><trkpt lat="45.522218445996884" lon="10.433393511553906"><ele>196.0</ele><time>2026-03-29T08:06:18Z</time></trkpt><trkpt lat="45.52219352631554" lon="10.433299747409563"><ele>196.0</ele><time>2026-03-29T08:06:19Z</time></trkpt><trkpt lat="45.522153134875666" lon="10.433158569727276"><ele>196.0</ele><time>2026-03-29T08:06:21Z</time></trkpt><trkpt lat="45.5221153933054" lon="10.433020142253097"><ele>196.0</ele><time>2026-03-29T08:06:23Z</time></trkpt><trkpt lat="45.522082189654896" lon="10.432886298170356"><ele>195.4</ele><time>2026-03-29T08:06:25Z</time></trkpt><trkpt lat="45.52204270343696" lon="10.432716014470866"><ele>194.8</ele><time>2026-03-29T08:06:27Z</time></trkpt><trkpt lat="45.52202286708274" lon="10.43261444837585"><ele>194.20000000000002</ele><time>2026-03-29T08:06:28Z</time></trkpt><trkpt lat="45.52200311976042" lon="10.432506011536184"><ele>193.60000000000002</ele><time>2026-03-29T08:06:30Z</time></trkpt><trkpt lat="45.521855352799484" lon="10.432491613297133"><ele>193.0</ele><time>2026-03-29T08:06:32Z</time></trkpt><trkpt lat="45.52175820698207" lon="10.43251126422616"><ele>193.0</ele><time>2026-03-29T08:06:33Z</time></trkpt><trkpt lat="45.52163773699812" lon="10.432534994184698"><ele>193.0</ele><time>2026-03-29T08:06:34Z</time></trkpt><trkpt lat="45.521518532586356" lon="10.432553850304254"><ele>193.0</ele><time>2026-03-29T08:06:35Z</time></trkpt><trkpt lat="45.52140097750749" lon="10.432576641979503"><ele>193.0</ele><time>2026-03-29T08:06:36Z</time></trkpt><trkpt lat="45.52128408150995" lon="10.432595772830684"><ele>192.75</ele><time>2026-03-29T08:06:37Z</time></trkpt><trkpt lat="45.52116878488617" lon="10.432603601801514"><ele>192.5</ele><time>2026-03-29T08:06:38Z</time></trkpt><trkpt lat="45.52104866590783" lon="10.43258274418998"><ele>192.25</ele><time>2026-03-29T08:06:39Z</time></trkpt><trkpt lat="45.52092698335992" lon="10.432553380922565"><ele>192.0</ele><time>2026-03-29T08:06:40Z</time></trkpt><trkpt lat="45.52079731156937" lon="10.432510000559391"><ele>192.0</ele><time>2026-03-29T08:06:41Z</time></trkpt><trkpt lat="45.520672519252436" lon="10.432462071035404"><ele>192.0</ele><time>2026-03-29T08:06:42Z</time></trkpt><trkpt lat="45.52055425565727" lon="10.432410131359894"><ele>192.0</ele><time>2026-03-29T08:06:43Z</time></trkpt><trkpt lat="45.520444125038246" lon="10.43235125781714"><ele>192.0</ele><time>2026-03-29T08:06:44Z</time></trkpt><trkpt lat="45.520323471177726" lon="10.432285224334885"><ele>191.25</ele><time>2026-03-29T08:06:45Z</time></trkpt><trkpt lat="45.52019571969268" lon="10.432227729878246"><ele>190.5</ele><time>2026-03-29T08:06:46Z</time></trkpt><trkpt lat="45.52005866575472" lon="10.432169390429005"><ele>189.75</ele><time>2026-03-29T08:06:47Z</time></trkpt><trkpt lat="45.51991292263371" lon="10.432099945697743"><ele>189.0</ele><time>2026-03-29T08:06:48Z</time></trkpt><trkpt lat="45.51975913166559" lon="10.432024429520688"><ele>188.33333333333334</ele><time>2026-03-29T08:06:49Z</time></trkpt><trkpt lat="45.5196021054103" lon="10.431950706178343"><ele>187.66666666666669</ele><time>2026-03-29T08:06:50Z</time></trkpt><trkpt lat="45.51943436443168" lon="10.431914421371975"><ele>187.0</ele><time>2026-03-29T08:06:51Z</time></trkpt><trkpt lat="45.51927162316581" lon="10.431892971666908"><ele>188.66666666666669</ele><time>2026-03-29T08:06:52Z</time></trkpt><trkpt lat="45.51909925139452" lon="10.431872948244623"><ele>190.33333333333334</ele><time>2026-03-29T08:06:53Z</time></trkpt><trkpt lat="45.51893979206715" lon="10.431857548217643"><ele>192.0</ele><time>2026-03-29T08:06:54Z</time></trkpt><trkpt lat="45.51878063151263" lon="10.431856310472877"><ele>192.0</ele><time>2026-03-29T08:06:55Z</time></trkpt><trkpt lat="45.51862359924593" lon="10.43184956596468"><ele>192.0</ele><time>2026-03-29T08:06:56Z</time></trkpt><trkpt lat="45.518469106870455" lon="10.43184004820337"><ele>192.0</ele><time>2026-03-29T08:06:57Z</time></trkpt><trkpt lat="45.51831462372532" lon="10.431833174090668"><ele>192.0</ele><time>2026-03-29T08:06:58Z</time></trkpt><trkpt lat="45.51815716155221" lon="10.431826249147258"><ele>192.0</ele><time>2026-03-29T08:06:59Z</time></trkpt><trkpt lat="45.51800402155936" lon="10.431816460584654"><ele>192.0</ele><time>2026-03-29T08:07:00Z</time></trkpt><trkpt lat="45.517847304440494" lon="10.431809633044011"><ele>192.33333333333331</ele><time>2026-03-29T08:07:01Z</time></trkpt><trkpt lat="45.51769607716176" lon="10.431803325028602"><ele>192.66666666666666</ele><time>2026-03-29T08:07:02Z</time></trkpt><trkpt lat="45.51754456467325" lon="10.431789774243668"><ele>193.0</ele><time>2026-03-29T08:07:03Z</time></trkpt><trkpt lat="45.517389727981566" lon="10.431783500885407"><ele>193.0</ele><time>2026-03-29T08:07:04Z</time></trkpt><trkpt lat="45.517232651293384" lon="10.431778186028628"><ele>193.0</ele><time>2026-03-29T08:07:05Z</time></trkpt><trkpt lat="45.51707093076168" lon="10.431768312341246"><ele>193.0</ele><time>2026-03-29T08:07:06Z</time></trkpt><trkpt lat="45.51690929294782" lon="10.43174490277252"><ele>192.0</ele><time>2026-03-29T08:07:07Z</time></trkpt><trkpt lat="45.51674593102357" lon="10.431696581493991"><ele>191.0</ele><time>2026-03-29T08:07:08Z</time></trkpt><trkpt lat="45.5165932458603" lon="10.431600048304563"><ele>190.0</ele><time>2026-03-29T08:07:09Z</time></trkpt><trkpt lat="45.51643725223517" lon="10.431503833015256"><ele>190.0</ele><time>2026-03-29T08:07:10Z</time></trkpt><trkpt lat="45.516277339559174" lon="10.431403023576559"><ele>190.0</ele><time>2026-03-29T08:07:11Z</time></trkpt><trkpt lat="45.516121751619124" lon="10.431325402107367"><ele>190.0</ele><time>2026-03-29T08:07:12Z</time></trkpt><trkpt lat="45.515993226974906" lon="10.431216226121494"><ele>188.75</ele><time>2026-03-29T08:07:13Z</time></trkpt><trkpt lat="45.51586023520298" lon="10.431154390165464"><ele>187.5</ele><time>2026-03-29T08:07:14Z</time></trkpt><trkpt lat="45.51574448434193" lon="10.431052859538998"><ele>186.25</ele><time>2026-03-29T08:07:15Z</time></trkpt><trkpt lat="45.515625159094085" lon="10.430969833267508"><ele>185.0</ele><time>2026-03-29T08:07:16Z</time></trkpt><trkpt lat="45.51551937381078" lon="10.430880485047387"><ele>185.0</ele><time>2026-03-29T08:07:17Z</time></trkpt><trkpt lat="45.515421033966575" lon="10.430785464188595"><ele>185.0</ele><time>2026-03-29T08:07:18Z</time></trkpt><trkpt lat="45.515328348302134" lon="10.430687350879536"><ele>185.0</ele><time>2026-03-29T08:07:19Z</time></trkpt><trkpt lat="45.51523135153629" lon="10.430590872250812"><ele>185.0</ele><time>2026-03-29T08:07:20Z</time></trkpt><trkpt lat="45.51513691126225" lon="10.430479707497856"><ele>184.75</ele><time>2026-03-29T08:07:21Z</time></trkpt><trkpt lat="45.51503151161735" lon="10.430364111513647"><ele>184.5</ele><time>2026-03-29T08:07:22Z</time></trkpt><trkpt lat="45.51491685622126" lon="10.430243805466626"><ele>184.25</ele><time>2026-03-29T08:07:23Z</time></trkpt><trkpt lat="45.51480033088245" lon="10.430130423993788"><ele>184.0</ele><time>2026-03-29T08:07:24Z</time></trkpt><trkpt lat="45.51467674379897" lon="10.430021319461606"><ele>183.33333333333334</ele><time>2026-03-29T08:07:25Z</time></trkpt><trkpt lat="45.51453808942591" lon="10.429926761188087"><ele>182.66666666666666</ele><time>2026-03-29T08:07:26Z</time></trkpt><trkpt lat="45.514375692164855" lon="10.42985795639921"><ele>182.0</ele><time>2026-03-29T08:07:27Z</time></trkpt><trkpt lat="45.51422892489685" lon="10.429764794527193"><ele>182.0</ele><time>2026-03-29T08:07:28Z</time></trkpt><trkpt lat="45.514061747030055" lon="10.429695430678757"><ele>182.0</ele><time>2026-03-29T08:07:29Z</time></trkpt><trkpt lat="45.51390276271752" lon="10.429607724083231"><ele>182.0</ele><time>2026-03-29T08:07:30Z</time></trkpt><trkpt lat="45.51373844377751" lon="10.429521886002284"><ele>182.66666666666666</ele><time>2026-03-29T08:07:31Z</time></trkpt><trkpt lat="45.51358234792334" lon="10.429408376460643"><ele>183.33333333333334</ele><time>2026-03-29T08:07:32Z</time></trkpt><trkpt lat="45.51342496420222" lon="10.429318841225173"><ele>184.0</ele><time>2026-03-29T08:07:33Z</time></trkpt><trkpt lat="45.513264586988946" lon="10.42923476116543"><ele>184.0</ele><time>2026-03-29T08:07:34Z</time></trkpt><trkpt lat="45.51311112065548" lon="10.429154304074862"><ele>184.0</ele><time>2026-03-29T08:07:35Z</time></trkpt><trkpt lat="45.51295433007942" lon="10.429072104286101"><ele>184.0</ele><time>2026-03-29T08:07:36Z</time></trkpt><trkpt lat="45.51279923293576" lon="10.428990792248483"><ele>184.0</ele><time>2026-03-29T08:07:37Z</time></trkpt><trkpt lat="45.51264651022757" lon="10.428910725117577"><ele>184.0</ele><time>2026-03-29T08:07:38Z</time></trkpt><trkpt lat="45.512500320359734" lon="10.428832231454324"><ele>184.0</ele><time>2026-03-29T08:07:39Z</time></trkpt><trkpt lat="45.51236512173853" lon="10.428756714569253"><ele>184.25</ele><time>2026-03-29T08:07:40Z</time></trkpt><trkpt lat="45.512230214438596" lon="10.428678691417668"><ele>184.5</ele><time>2026-03-29T08:07:41Z</time></trkpt><trkpt lat="45.51209632616697" lon="10.428600559738749"><ele>184.75</ele><time>2026-03-29T08:07:42Z</time></trkpt><trkpt lat="45.51196978318561" lon="10.428525031787206"><ele>185.0</ele><time>2026-03-29T08:07:43Z</time></trkpt><trkpt lat="45.51184988510047" lon="10.428453469890579"><ele>184.2</ele><time>2026-03-29T08:07:44Z</time></trkpt><trkpt lat="45.51174802479844" lon="10.428392673966266"><ele>183.4</ele><time>2026-03-29T08:07:45Z</time></trkpt><trkpt lat="45.51167273382549" lon="10.428345706053358"><ele>182.60000000000002</ele><time>2026-03-29T08:07:46Z</time></trkpt><trkpt lat="45.51160906817841" lon="10.428308097299672"><ele>181.8</ele><time>2026-03-29T08:07:47Z</time></trkpt><trkpt lat="45.5115592117122" lon="10.428247194338887"><ele>181.0</ele><time>2026-03-29T08:07:49Z</time></trkpt><trkpt lat="45.511612417272836" lon="10.428087358811078"><ele>181.0</ele><time>2026-03-29T08:07:50Z</time></trkpt><trkpt lat="45.51165949410025" lon="10.427978568488438"><ele>181.0</ele><time>2026-03-29T08:07:51Z</time></trkpt><trkpt lat="45.51171873048822" lon="10.427841681000114"><ele>181.0</ele><time>2026-03-29T08:07:52Z</time></trkpt><trkpt lat="45.51176737679417" lon="10.42768126093892"><ele>181.0</ele><time>2026-03-29T08:07:53Z</time></trkpt><trkpt lat="45.51183105983284" lon="10.42754108354582"><ele>181.0</ele><time>2026-03-29T08:07:54Z</time></trkpt><trkpt lat="45.51188952988601" lon="10.427397000765632"><ele>180.5</ele><time>2026-03-29T08:07:55Z</time></trkpt><trkpt lat="45.51194838512467" lon="10.427235973493927"><ele>180.0</ele><time>2026-03-29T08:07:56Z</time></trkpt><trkpt lat="45.51201139589119" lon="10.42707632444461"><ele>179.5</ele><time>2026-03-29T08:07:57Z</time></trkpt><trkpt lat="45.512076950326914" lon="10.4269184512637"><ele>179.0</ele><time>2026-03-29T08:07:58Z</time></trkpt><trkpt lat="45.51208380896134" lon="10.42672996003899"><ele>179.0</ele><time>2026-03-29T08:07:59Z</time></trkpt><trkpt lat="45.51207863261753" lon="10.426543995909295"><ele>179.0</ele><time>2026-03-29T08:08:00Z</time></trkpt><trkpt lat="45.512062212751665" lon="10.426371349714751"><ele>179.0</ele><time>2026-03-29T08:08:01Z</time></trkpt><trkpt lat="45.51203327793758" lon="10.426217887485285"><ele>179.0</ele><time>2026-03-29T08:08:02Z</time></trkpt><trkpt lat="45.512006987640504" lon="10.426071964076693"><ele>179.2</ele><time>2026-03-29T08:08:03Z</time></trkpt><trkpt lat="45.511987233760436" lon="10.425931017636538"><ele>179.39999999999998</ele><time>2026-03-29T08:08:04Z</time></trkpt><trkpt lat="45.511964713414116" lon="10.42579466534897"><ele>179.6</ele><time>2026-03-29T08:08:05Z</time></trkpt><trkpt lat="45.51194568141074" lon="10.425669467301994"><ele>179.8</ele><time>2026-03-29T08:08:06Z</time></trkpt><trkpt lat="45.51194972339599" lon="10.4255356266874"><ele>180.0</ele><time>2026-03-29T08:08:07Z</time></trkpt><trkpt lat="45.511929220939734" lon="10.425399490949108"><ele>180.4</ele><time>2026-03-29T08:08:08Z</time></trkpt><trkpt lat="45.51190662295755" lon="10.42524944080944"><ele>180.8</ele><time>2026-03-29T08:08:09Z</time></trkpt><trkpt lat="45.51188373320121" lon="10.425097453462218"><ele>181.2</ele><time>2026-03-29T08:08:10Z</time></trkpt><trkpt lat="45.51186111478696" lon="10.424947267674211"><ele>181.6</ele><time>2026-03-29T08:08:11Z</time></trkpt><trkpt lat="45.511843272411994" lon="10.42482879457211"><ele>182.0</ele><time>2026-03-29T08:08:12Z</time></trkpt><trkpt lat="45.51182140870339" lon="10.424683620205988"><ele>182.0</ele><time>2026-03-29T08:08:14Z</time></trkpt><trkpt lat="45.511689712110034" lon="10.424773998780841"><ele>182.0</ele><time>2026-03-29T08:08:17Z</time></trkpt><trkpt lat="45.51165812045846" lon="10.42488065085786"><ele>182.0</ele><time>2026-03-29T08:08:18Z</time></trkpt><trkpt lat="45.51159045090828" lon="10.424977416136215"><ele>182.0</ele><time>2026-03-29T08:08:19Z</time></trkpt><trkpt lat="45.51151423995415" lon="10.425105491700517"><ele>182.0</ele><time>2026-03-29T08:08:20Z</time></trkpt><trkpt lat="45.51143781744359" lon="10.425246397888294"><ele>182.0</ele><time>2026-03-29T08:08:21Z</time></trkpt><trkpt lat="45.511351454170146" lon="10.42537240414927"><ele>182.0</ele><time>2026-03-29T08:08:22Z</time></trkpt><trkpt lat="45.51126907070907" lon="10.425504044191488"><ele>182.0</ele><time>2026-03-29T08:08:23Z</time></trkpt><trkpt lat="45.511153025983255" lon="10.425588366985034"><ele>182.0</ele><time>2026-03-29T08:08:24Z</time></trkpt><trkpt lat="45.51106008793951" lon="10.425706126064817"><ele>180.39999999999998</ele><time>2026-03-29T08:08:25Z</time></trkpt><trkpt lat="45.51098287896791" lon="10.425814057733671"><ele>178.79999999999998</ele><time>2026-03-29T08:08:26Z</time></trkpt><trkpt lat="45.510919419300926" lon="10.425942360265001"><ele>177.2</ele><time>2026-03-29T08:08:27Z</time></trkpt><trkpt lat="45.510843053095094" lon="10.42604553857713"><ele>175.6</ele><time>2026-03-29T08:08:28Z</time></trkpt><trkpt lat="45.51077545386342" lon="10.426152733452323"><ele>174.0</ele><time>2026-03-29T08:08:29Z</time></trkpt><trkpt lat="45.51070098859225" lon="10.426242602631094"><ele>174.0</ele><time>2026-03-29T08:08:30Z</time></trkpt><trkpt lat="45.510623969731554" lon="10.426301742031452"><ele>174.0</ele><time>2026-03-29T08:08:31Z</time></trkpt><trkpt lat="45.510538277293925" lon="10.426302972850731"><ele>174.0</ele><time>2026-03-29T08:08:32Z</time></trkpt><trkpt lat="45.51046287480181" lon="10.426306796218881"><ele>174.0</ele><time>2026-03-29T08:08:33Z</time></trkpt><trkpt lat="45.51038611716602" lon="10.42622400449812"><ele>174.0</ele><time>2026-03-29T08:08:34Z</time></trkpt><trkpt lat="45.510288968929544" lon="10.426197129015767"><ele>174.0</ele><time>2026-03-29T08:08:35Z</time></trkpt><trkpt lat="45.51017832011824" lon="10.426136590299741"><ele>173.6</ele><time>2026-03-29T08:08:36Z</time></trkpt><trkpt lat="45.51006243668022" lon="10.426080241071299"><ele>173.2</ele><time>2026-03-29T08:08:37Z</time></trkpt><trkpt lat="45.50994415633511" lon="10.4260253269991"><ele>172.79999999999998</ele><time>2026-03-29T08:08:38Z</time></trkpt><trkpt lat="45.509853950681006" lon="10.425979612032856"><ele>172.39999999999998</ele><time>2026-03-29T08:08:39Z</time></trkpt><trkpt lat="45.5097871785811" lon="10.425945648232688"><ele>172.0</ele><time>2026-03-29T08:08:40Z</time></trkpt><trkpt lat="45.50971213426235" lon="10.425911781319433"><ele>172.0</ele><time>2026-03-29T08:08:41Z</time></trkpt><trkpt lat="45.50962451196171" lon="10.425867404423133"><ele>172.0</ele><time>2026-03-29T08:08:42Z</time></trkpt><trkpt lat="45.50953030692384" lon="10.4258202094413"><ele>172.0</ele><time>2026-03-29T08:08:43Z</time></trkpt><trkpt lat="45.5094291156055" lon="10.425772321582096"><ele>172.0</ele><time>2026-03-29T08:08:44Z</time></trkpt><trkpt lat="45.50932369737977" lon="10.425722915730029"><ele>172.0</ele><time>2026-03-29T08:08:45Z</time></trkpt><trkpt lat="45.50921285615839" lon="10.425669833049382"><ele>172.0</ele><time>2026-03-29T08:08:46Z</time></trkpt><trkpt lat="45.50910385501007" lon="10.42561543246326"><ele>172.0</ele><time>2026-03-29T08:08:47Z</time></trkpt><trkpt lat="45.50900334760975" lon="10.42556583071566"><ele>172.0</ele><time>2026-03-29T08:08:48Z</time></trkpt><trkpt lat="45.50891021344876" lon="10.425519271184038"><ele>172.0</ele><time>2026-03-29T08:08:49Z</time></trkpt><trkpt lat="45.50884098503012" lon="10.42548727736346"><ele>172.0</ele><time>2026-03-29T08:08:50Z</time></trkpt><trkpt lat="45.508746874912596" lon="10.425431529861315"><ele>171.33333333333334</ele><time>2026-03-29T08:08:52Z</time></trkpt><trkpt lat="45.50870445590043" lon="10.425291315319052"><ele>170.66666666666669</ele><time>2026-03-29T08:08:54Z</time></trkpt><trkpt lat="45.50864871038006" lon="10.425246448263767"><ele>170.0</ele><time>2026-03-29T08:08:55Z</time></trkpt><trkpt lat="45.50857730471204" lon="10.425257101988757"><ele>169.33333333333334</ele><time>2026-03-29T08:08:56Z</time></trkpt><trkpt lat="45.50850035514394" lon="10.42529372774264"><ele>168.66666666666666</ele><time>2026-03-29T08:08:57Z</time></trkpt><trkpt lat="45.50844698631441" lon="10.425155845466954"><ele>168.0</ele><time>2026-03-29T08:08:58Z</time></trkpt><trkpt lat="45.508376564985156" lon="10.425076063628023"><ele>168.0</ele><time>2026-03-29T08:08:59Z</time></trkpt><trkpt lat="45.50829632503109" lon="10.424985158176373"><ele>168.0</ele><time>2026-03-29T08:09:00Z</time></trkpt><trkpt lat="45.5082133859394" lon="10.42489119311239"><ele>168.0</ele><time>2026-03-29T08:09:01Z</time></trkpt><trkpt lat="45.508118587239814" lon="10.424784190243425"><ele>168.0</ele><time>2026-03-29T08:09:02Z</time></trkpt><trkpt lat="45.50802454828732" lon="10.424678282438583"><ele>168.0</ele><time>2026-03-29T08:09:03Z</time></trkpt><trkpt lat="45.50793321160656" lon="10.424575394524618"><ele>168.2</ele><time>2026-03-29T08:09:04Z</time></trkpt><trkpt lat="45.50784357312544" lon="10.424474419445083"><ele>168.4</ele><time>2026-03-29T08:09:05Z</time></trkpt><trkpt lat="45.50776285680574" lon="10.424383494863845"><ele>168.6</ele><time>2026-03-29T08:09:06Z</time></trkpt><trkpt lat="45.5076940713348" lon="10.42430601021173"><ele>168.79999999999998</ele><time>2026-03-29T08:09:07Z</time></trkpt><trkpt lat="45.507632280020104" lon="10.424236404269688"><ele>169.0</ele><time>2026-03-29T08:09:08Z</time></trkpt><trkpt lat="45.50754277914853" lon="10.424132461717807"><ele>169.0</ele><time>2026-03-29T08:09:10Z</time></trkpt><trkpt lat="45.50747226043167" lon="10.42403458183196"><ele>169.0</ele><time>2026-03-29T08:09:12Z</time></trkpt><trkpt lat="45.50743511339883" lon="10.423899539741704"><ele>169.0</ele><time>2026-03-29T08:09:14Z</time></trkpt><trkpt lat="45.50739160588117" lon="10.423830676581721"><ele>169.0</ele><time>2026-03-29T08:09:15Z</time></trkpt><trkpt lat="45.50733415804947" lon="10.423735687588424"><ele>169.0</ele><time>2026-03-29T08:09:16Z</time></trkpt><trkpt lat="45.5072381304717" lon="10.423687674684235"><ele>169.2</ele><time>2026-03-29T08:09:17Z</time></trkpt><trkpt lat="45.50713667262159" lon="10.423641337627378"><ele>169.39999999999998</ele><time>2026-03-29T08:09:18Z</time></trkpt><trkpt lat="45.50702477255251" lon="10.423606325044227"><ele>169.6</ele><time>2026-03-29T08:09:19Z</time></trkpt><trkpt lat="45.506926994776435" lon="10.423554706726346"><ele>169.8</ele><time>2026-03-29T08:09:20Z</time></trkpt><trkpt lat="45.506810411227264" lon="10.423551969156968"><ele>170.0</ele><time>2026-03-29T08:09:21Z</time></trkpt><trkpt lat="45.506697121161466" lon="10.423527743977175"><ele>169.4</ele><time>2026-03-29T08:09:22Z</time></trkpt><trkpt lat="45.5065834391267" lon="10.423512721704228"><ele>168.8</ele><time>2026-03-29T08:09:23Z</time></trkpt><trkpt lat="45.50647097829317" lon="10.42349875530992"><ele>168.2</ele><time>2026-03-29T08:09:24Z</time></trkpt><trkpt lat="45.506361632041376" lon="10.423485879360122"><ele>167.6</ele><time>2026-03-29T08:09:25Z</time></trkpt><trkpt lat="45.506253491564536" lon="10.423478843326436"><ele>167.0</ele><time>2026-03-29T08:09:26Z</time></trkpt><trkpt lat="45.50615388393801" lon="10.423471550736657"><ele>167.0</ele><time>2026-03-29T08:09:27Z</time></trkpt><trkpt lat="45.5060420773457" lon="10.423476569573962"><ele>167.0</ele><time>2026-03-29T08:09:28Z</time></trkpt><trkpt lat="45.50593653343555" lon="10.423451829234194"><ele>167.0</ele><time>2026-03-29T08:09:29Z</time></trkpt><trkpt lat="45.50583087559745" lon="10.42344242541594"><ele>167.0</ele><time>2026-03-29T08:09:30Z</time></trkpt><trkpt lat="45.505745198392646" lon="10.423431194870565"><ele>167.0</ele><time>2026-03-29T08:09:31Z</time></trkpt><trkpt lat="45.50567065605318" lon="10.42338747979132"><ele>167.0</ele><time>2026-03-29T08:09:32Z</time></trkpt><trkpt lat="45.50562199629272" lon="10.423307950947118"><ele>167.0</ele><time>2026-03-29T08:09:33Z</time></trkpt><trkpt lat="45.505555389287586" lon="10.423246114090562"><ele>167.0</ele><time>2026-03-29T08:09:34Z</time></trkpt><trkpt lat="45.50549192077561" lon="10.42318614223536"><ele>167.0</ele><time>2026-03-29T08:09:35Z</time></trkpt><trkpt lat="45.50542880401001" lon="10.423126507525296"><ele>167.0</ele><time>2026-03-29T08:09:36Z</time></trkpt><trkpt lat="45.505333885310534" lon="10.423037015295172"><ele>167.0</ele><time>2026-03-29T08:09:38Z</time></trkpt><trkpt lat="45.505241667830155" lon="10.422950069871606"><ele>167.16666666666666</ele><time>2026-03-29T08:09:40Z</time></trkpt><trkpt lat="45.50517322648361" lon="10.422916879431828"><ele>167.33333333333331</ele><time>2026-03-29T08:09:41Z</time></trkpt><trkpt lat="45.50510806330696" lon="10.422877454167214"><ele>167.5</ele><time>2026-03-29T08:09:42Z</time></trkpt><trkpt lat="45.50502171838195" lon="10.42285588400218"><ele>167.66666666666666</ele><time>2026-03-29T08:09:43Z</time></trkpt><trkpt lat="45.504919741268964" lon="10.422849766202651"><ele>167.83333333333334</ele><time>2026-03-29T08:09:44Z</time></trkpt><trkpt lat="45.50481830315462" lon="10.422853874688753"><ele>168.0</ele><time>2026-03-29T08:09:45Z</time></trkpt><trkpt lat="45.50472354399263" lon="10.42285163764683"><ele>168.0</ele><time>2026-03-29T08:09:46Z</time></trkpt><trkpt lat="45.504621049859075" lon="10.422841371694956"><ele>168.0</ele><time>2026-03-29T08:09:47Z</time></trkpt><trkpt lat="45.50452633012092" lon="10.422835189649243"><ele>168.0</ele><time>2026-03-29T08:09:48Z</time></trkpt><trkpt lat="45.504431198271064" lon="10.42281482768343"><ele>168.0</ele><time>2026-03-29T08:09:49Z</time></trkpt><trkpt lat="45.5043465068247" lon="10.422823440604224"><ele>168.0</ele><time>2026-03-29T08:09:50Z</time></trkpt><trkpt lat="45.504282686524284" lon="10.422805853339696"><ele>168.0</ele><time>2026-03-29T08:09:51Z</time></trkpt><trkpt lat="45.50419336006885" lon="10.422809537688671"><ele>168.0</ele><time>2026-03-29T08:09:53Z</time></trkpt><trkpt lat="45.50410062061162" lon="10.4227852397668"><ele>168.0</ele><time>2026-03-29T08:09:56Z</time></trkpt><trkpt lat="45.503990190607844" lon="10.4227536243939"><ele>168.0</ele><time>2026-03-29T08:09:58Z</time></trkpt><trkpt lat="45.50392502099129" lon="10.422753394999619"><ele>168.0</ele><time>2026-03-29T08:09:59Z</time></trkpt><trkpt lat="45.503855170177985" lon="10.422733173755418"><ele>168.0</ele><time>2026-03-29T08:10:00Z</time></trkpt><trkpt lat="45.50378696577966" lon="10.422731676585604"><ele>168.0</ele><time>2026-03-29T08:10:01Z</time></trkpt><trkpt lat="45.503716879652316" lon="10.422721744970163"><ele>167.85714285714286</ele><time>2026-03-29T08:10:02Z</time></trkpt><trkpt lat="45.50363570519705" lon="10.4227216062882"><ele>167.71428571428572</ele><time>2026-03-29T08:10:03Z</time></trkpt><trkpt lat="45.503567891446316" lon="10.42274147928467"><ele>167.57142857142856</ele><time>2026-03-29T08:10:04Z</time></trkpt><trkpt lat="45.50350284067185" lon="10.422784510039415"><ele>167.42857142857144</ele><time>2026-03-29T08:10:05Z</time></trkpt><trkpt lat="45.503422745280204" lon="10.422827867323674"><ele>167.28571428571428</ele><time>2026-03-29T08:10:06Z</time></trkpt><trkpt lat="45.50335485896499" lon="10.422867516469804"><ele>167.14285714285714</ele><time>2026-03-29T08:10:07Z</time></trkpt><trkpt lat="45.503295402691414" lon="10.422906990223636"><ele>167.0</ele><time>2026-03-29T08:10:08Z</time></trkpt><trkpt lat="45.50322592146383" lon="10.42295283031391"><ele>166.8</ele><time>2026-03-29T08:10:09Z</time></trkpt><trkpt lat="45.503144036455865" lon="10.423008967943556"><ele>166.6</ele><time>2026-03-29T08:10:10Z</time></trkpt><trkpt lat="45.503052344294524" lon="10.423088637120895"><ele>166.4</ele><time>2026-03-29T08:10:11Z</time></trkpt><trkpt lat="45.50295432288554" lon="10.423173424855454"><ele>166.20000000000002</ele><time>2026-03-29T08:10:12Z</time></trkpt><trkpt lat="45.50284557415875" lon="10.423265909100694"><ele>166.0</ele><time>2026-03-29T08:10:13Z</time></trkpt><trkpt lat="45.50272832653372" lon="10.423368637745048"><ele>165.5</ele><time>2026-03-29T08:10:14Z</time></trkpt><trkpt lat="45.50261095625184" lon="10.423466692899414"><ele>165.0</ele><time>2026-03-29T08:10:15Z</time></trkpt><trkpt lat="45.50248078585742" lon="10.423523895221702"><ele>164.5</ele><time>2026-03-29T08:10:16Z</time></trkpt><trkpt lat="45.502350331562454" lon="10.423601205144434"><ele>164.0</ele><time>2026-03-29T08:10:17Z</time></trkpt><trkpt lat="45.50221683980311" lon="10.423606008661041"><ele>163.5</ele><time>2026-03-29T08:10:18Z</time></trkpt><trkpt lat="45.502081079069164" lon="10.423598213562741"><ele>163.0</ele><time>2026-03-29T08:10:19Z</time></trkpt><trkpt lat="45.501965001939226" lon="10.423573838170432"><ele>162.5</ele><time>2026-03-29T08:10:20Z</time></trkpt><trkpt lat="45.501857471490226" lon="10.423539187124716"><ele>162.0</ele><time>2026-03-29T08:10:21Z</time></trkpt><trkpt lat="45.50175467886113" lon="10.423506262393726"><ele>162.0</ele><time>2026-03-29T08:10:22Z</time></trkpt><trkpt lat="45.50163010620319" lon="10.423579380745844"><ele>162.0</ele><time>2026-03-29T08:10:23Z</time></trkpt><trkpt lat="45.50148742511568" lon="10.423582672504587"><ele>162.0</ele><time>2026-03-29T08:10:24Z</time></trkpt><trkpt lat="45.501329890364886" lon="10.42360185699504"><ele>162.0</ele><time>2026-03-29T08:10:25Z</time></trkpt><trkpt lat="45.501170849925906" lon="10.423618750960083"><ele>161.66666666666666</ele><time>2026-03-29T08:10:26Z</time></trkpt><trkpt lat="45.50101886418906" lon="10.42363489553784"><ele>161.33333333333331</ele><time>2026-03-29T08:10:27Z</time></trkpt><trkpt lat="45.50085000903598" lon="10.42365283206206"><ele>161.0</ele><time>2026-03-29T08:10:28Z</time></trkpt><trkpt lat="45.50068066741799" lon="10.423691582843682"><ele>161.0</ele><time>2026-03-29T08:10:29Z</time></trkpt><trkpt lat="45.500518570969874" lon="10.4237048119879"><ele>161.0</ele><time>2026-03-29T08:10:30Z</time></trkpt><trkpt lat="45.500354690374735" lon="10.423726409486166"><ele>161.0</ele><time>2026-03-29T08:10:31Z</time></trkpt><trkpt lat="45.500212767273254" lon="10.423744332755387"><ele>160.75</ele><time>2026-03-29T08:10:32Z</time></trkpt><trkpt lat="45.50008803339148" lon="10.423763802871374"><ele>160.5</ele><time>2026-03-29T08:10:33Z</time></trkpt><trkpt lat="45.499961015603574" lon="10.423810604589246"><ele>160.25</ele><time>2026-03-29T08:10:34Z</time></trkpt><trkpt lat="45.499823736404814" lon="10.423886814039898"><ele>160.0</ele><time>2026-03-29T08:10:35Z</time></trkpt><trkpt lat="45.49966776197925" lon="10.423988204850364"><ele>159.66666666666669</ele><time>2026-03-29T08:10:36Z</time></trkpt><trkpt lat="45.49950107895247" lon="10.424107182870125"><ele>159.33333333333334</ele><time>2026-03-29T08:10:37Z</time></trkpt><trkpt lat="45.49932657391067" lon="10.424233687602516"><ele>159.0</ele><time>2026-03-29T08:10:38Z</time></trkpt><trkpt lat="45.499125036019116" lon="10.424372560603326"><ele>159.0</ele><time>2026-03-29T08:10:39Z</time></trkpt><trkpt lat="45.498934709815195" lon="10.424466836796581"><ele>159.0</ele><time>2026-03-29T08:10:40Z</time></trkpt><trkpt lat="45.498748141472426" lon="10.424567858305831"><ele>159.0</ele><time>2026-03-29T08:10:41Z</time></trkpt><trkpt lat="45.498565047525034" lon="10.42467559965492"><ele>159.0</ele><time>2026-03-29T08:10:42Z</time></trkpt><trkpt lat="45.49837921061662" lon="10.424795194364336"><ele>159.0</ele><time>2026-03-29T08:10:43Z</time></trkpt><trkpt lat="45.498195548704594" lon="10.424964667246643"><ele>159.0</ele><time>2026-03-29T08:10:44Z</time></trkpt><trkpt lat="45.49800231777416" lon="10.42510816614691"><ele>158.33333333333334</ele><time>2026-03-29T08:10:45Z</time></trkpt><trkpt lat="45.49781235728945" lon="10.425249733428737"><ele>157.66666666666669</ele><time>2026-03-29T08:10:46Z</time></trkpt><trkpt lat="45.497620216361945" lon="10.425394544980357"><ele>157.0</ele><time>2026-03-29T08:10:47Z</time></trkpt><trkpt lat="45.49744060447739" lon="10.425534536387508"><ele>157.0</ele><time>2026-03-29T08:10:48Z</time></trkpt><trkpt lat="45.49725223111358" lon="10.425662484439998"><ele>157.0</ele><time>2026-03-29T08:10:49Z</time></trkpt><trkpt lat="45.49708884460364" lon="10.425829587167575"><ele>157.0</ele><time>2026-03-29T08:10:50Z</time></trkpt><trkpt lat="45.49693161967819" lon="10.425980367742477"><ele>157.0</ele><time>2026-03-29T08:10:51Z</time></trkpt><trkpt lat="45.49676918029697" lon="10.426158649243897"><ele>157.0</ele><time>2026-03-29T08:10:52Z</time></trkpt><trkpt lat="45.49660708671376" lon="10.426348053627388"><ele>157.0</ele><time>2026-03-29T08:10:53Z</time></trkpt><trkpt lat="45.496450807947" lon="10.426545184162372"><ele>157.0</ele><time>2026-03-29T08:10:54Z</time></trkpt><trkpt lat="45.49629030295187" lon="10.426736953270094"><ele>157.0</ele><time>2026-03-29T08:10:55Z</time></trkpt><trkpt lat="45.49612979903227" lon="10.426916664709216"><ele>157.0</ele><time>2026-03-29T08:10:56Z</time></trkpt><trkpt lat="45.495971236870496" lon="10.427063361754197"><ele>157.0</ele><time>2026-03-29T08:10:57Z</time></trkpt><trkpt lat="45.49585321559655" lon="10.427235615281967"><ele>157.0</ele><time>2026-03-29T08:10:58Z</time></trkpt><trkpt lat="45.49573601115277" lon="10.427376057388548"><ele>157.0</ele><time>2026-03-29T08:10:59Z</time></trkpt><trkpt lat="45.49561179084056" lon="10.427502976118905"><ele>157.0</ele><time>2026-03-29T08:11:00Z</time></trkpt><trkpt lat="45.495431674234666" lon="10.427633067382029"><ele>157.0</ele><time>2026-03-29T08:11:01Z</time></trkpt><trkpt lat="45.49526858729699" lon="10.427802422538708"><ele>157.0</ele><time>2026-03-29T08:11:02Z</time></trkpt><trkpt lat="45.4950846877153" lon="10.427961922248633"><ele>156.0</ele><time>2026-03-29T08:11:03Z</time></trkpt><trkpt lat="45.49489021918916" lon="10.428139498777673"><ele>155.0</ele><time>2026-03-29T08:11:04Z</time></trkpt><trkpt lat="45.494698269135725" lon="10.428312767299678"><ele>155.0</ele><time>2026-03-29T08:11:05Z</time></trkpt><trkpt lat="45.49451057270577" lon="10.428480097301996"><ele>155.0</ele><time>2026-03-29T08:11:06Z</time></trkpt><trkpt lat="45.494321639836706" lon="10.428648731648545"><ele>155.0</ele><time>2026-03-29T08:11:07Z</time></trkpt><trkpt lat="45.4941535409112" lon="10.428804618591112"><ele>155.33333333333331</ele><time>2026-03-29T08:11:08Z</time></trkpt><trkpt lat="45.49399408517772" lon="10.428925823907315"><ele>155.66666666666666</ele><time>2026-03-29T08:11:09Z</time></trkpt><trkpt lat="45.49386674361268" lon="10.429072043872166"><ele>156.0</ele><time>2026-03-29T08:11:10Z</time></trkpt><trkpt lat="45.4937507656658" lon="10.42917393816392"><ele>155.6</ele><time>2026-03-29T08:11:11Z</time></trkpt><trkpt lat="45.49364954260799" lon="10.429267558614683"><ele>155.2</ele><time>2026-03-29T08:11:12Z</time></trkpt><trkpt lat="45.493560697605176" lon="10.42935356813281"><ele>154.8</ele><time>2026-03-29T08:11:13Z</time></trkpt><trkpt lat="45.493474811340455" lon="10.429408169943285"><ele>154.4</ele><time>2026-03-29T08:11:14Z</time></trkpt><trkpt lat="45.49340340535154" lon="10.429435909160452"><ele>154.0</ele><time>2026-03-29T08:11:15Z</time></trkpt><trkpt lat="45.49334540750821" lon="10.429591776458738"><ele>154.0</ele><time>2026-03-29T08:11:16Z</time></trkpt><trkpt lat="45.49326244433473" lon="10.429688046264138"><ele>154.0</ele><time>2026-03-29T08:11:17Z</time></trkpt><trkpt lat="45.49319388212521" lon="10.429755910414828"><ele>154.0</ele><time>2026-03-29T08:11:18Z</time></trkpt><trkpt lat="45.49311552032653" lon="10.42986151028493"><ele>154.0</ele><time>2026-03-29T08:11:20Z</time></trkpt><trkpt lat="45.49299052898596" lon="10.429675791265735"><ele>154.0</ele><time>2026-03-29T08:11:21Z</time></trkpt><trkpt lat="45.49288221360349" lon="10.42958364890058"><ele>154.0</ele><time>2026-03-29T08:11:22Z</time></trkpt><trkpt lat="45.492762206069706" lon="10.429457945239811"><ele>154.0</ele><time>2026-03-29T08:11:23Z</time></trkpt><trkpt lat="45.49264996782572" lon="10.429349181172872"><ele>154.0</ele><time>2026-03-29T08:11:24Z</time></trkpt><trkpt lat="45.49252597405774" lon="10.429273885083408"><ele>154.0</ele><time>2026-03-29T08:11:25Z</time></trkpt><trkpt lat="45.49237649734591" lon="10.429267490229865"><ele>154.0</ele><time>2026-03-29T08:11:26Z</time></trkpt><trkpt lat="45.492215177955195" lon="10.429268336689255"><ele>154.0</ele><time>2026-03-29T08:11:27Z</time></trkpt><trkpt lat="45.49203738930752" lon="10.429284448368202"><ele>153.66666666666669</ele><time>2026-03-29T08:11:28Z</time></trkpt><trkpt lat="45.49184208856184" lon="10.429271733733843"><ele>153.33333333333334</ele><time>2026-03-29T08:11:29Z</time></trkpt><trkpt lat="45.49161650992476" lon="10.429256638727121"><ele>153.0</ele><time>2026-03-29T08:11:30Z</time></trkpt><trkpt lat="45.49141425004921" lon="10.429241000486595"><ele>153.5</ele><time>2026-03-29T08:11:31Z</time></trkpt><trkpt lat="45.491256765155796" lon="10.429215339635862"><ele>154.0</ele><time>2026-03-29T08:11:32Z</time></trkpt><trkpt lat="45.49113002546207" lon="10.429187879389334"><ele>154.5</ele><time>2026-03-29T08:11:33Z</time></trkpt><trkpt lat="45.49102705332211" lon="10.42916733728709"><ele>155.0</ele><time>2026-03-29T08:11:34Z</time></trkpt><trkpt lat="45.49095146066321" lon="10.429165733727892"><ele>155.0</ele><time>2026-03-29T08:11:35Z</time></trkpt><trkpt lat="45.49087488065651" lon="10.429210356375549"><ele>155.0</ele><time>2026-03-29T08:11:36Z</time></trkpt><trkpt lat="45.49081602414475" lon="10.429360599520306"><ele>155.0</ele><time>2026-03-29T08:11:37Z</time></trkpt><trkpt lat="45.49077456422542" lon="10.429518832963288"><ele>155.0</ele><time>2026-03-29T08:11:38Z</time></trkpt><trkpt lat="45.49074490095941" lon="10.429710984814266"><ele>154.66666666666666</ele><time>2026-03-29T08:11:39Z</time></trkpt><trkpt lat="45.490714484706686" lon="10.429963716720057"><ele>154.33333333333334</ele><time>2026-03-29T08:11:40Z</time></trkpt><trkpt lat="45.49067808987093" lon="10.430253570485283"><ele>154.0</ele><time>2026-03-29T08:11:41Z</time></trkpt><trkpt lat="45.49063116902471" lon="10.43055137039916"><ele>152.66666666666669</ele><time>2026-03-29T08:11:42Z</time></trkpt><trkpt lat="45.490589269847156" lon="10.430808271611985"><ele>151.33333333333334</ele><time>2026-03-29T08:11:43Z</time></trkpt><trkpt lat="45.490554480303096" lon="10.431016952722658"><ele>150.0</ele><time>2026-03-29T08:11:44Z</time></trkpt><trkpt lat="45.490521735650255" lon="10.431184754634074"><ele>150.2</ele><time>2026-03-29T08:11:45Z</time></trkpt><trkpt lat="45.49048643136813" lon="10.431323566679328"><ele>150.4</ele><time>2026-03-29T08:11:46Z</time></trkpt><trkpt lat="45.49043862526806" lon="10.431419788817156"><ele>150.6</ele><time>2026-03-29T08:11:47Z</time></trkpt><trkpt lat="45.49034152098184" lon="10.431453605555971"><ele>150.8</ele><time>2026-03-29T08:11:48Z</time></trkpt><trkpt lat="45.49022825908538" lon="10.431490883566568"><ele>151.0</ele><time>2026-03-29T08:11:49Z</time></trkpt><trkpt lat="45.49007274890221" lon="10.431560391971788"><ele>151.0</ele><time>2026-03-29T08:11:50Z</time></trkpt><trkpt lat="45.48988287731535" lon="10.431657664814844"><ele>151.0</ele><time>2026-03-29T08:11:51Z</time></trkpt><trkpt lat="45.48966804337175" lon="10.431728886889076"><ele>151.0</ele><time>2026-03-29T08:11:52Z</time></trkpt><trkpt lat="45.489432363330145" lon="10.431742257555953"><ele>150.5</ele><time>2026-03-29T08:11:53Z</time></trkpt><trkpt lat="45.489194638324" lon="10.431763853532205"><ele>150.0</ele><time>2026-03-29T08:11:54Z</time></trkpt><trkpt lat="45.48894833953507" lon="10.431799667782029"><ele>150.0</ele><time>2026-03-29T08:11:55Z</time></trkpt><trkpt lat="45.488707088698476" lon="10.431848033267432"><ele>150.0</ele><time>2026-03-29T08:11:56Z</time></trkpt><trkpt lat="45.48846968173388" lon="10.431947500818195"><ele>150.0</ele><time>2026-03-29T08:11:57Z</time></trkpt><trkpt lat="45.48822651393167" lon="10.432051179468642"><ele>150.0</ele><time>2026-03-29T08:11:58Z</time></trkpt><trkpt lat="45.48798679501936" lon="10.432169777911547"><ele>150.5</ele><time>2026-03-29T08:11:59Z</time></trkpt><trkpt lat="45.48776452122552" lon="10.432282024129368"><ele>151.0</ele><time>2026-03-29T08:12:00Z</time></trkpt><trkpt lat="45.48756001780627" lon="10.432372883105982"><ele>151.0</ele><time>2026-03-29T08:12:01Z</time></trkpt><trkpt lat="45.48737815578406" lon="10.432458160327254"><ele>151.0</ele><time>2026-03-29T08:12:02Z</time></trkpt><trkpt lat="45.48720353466828" lon="10.432543872360961"><ele>151.0</ele><time>2026-03-29T08:12:03Z</time></trkpt><trkpt lat="45.487027686764534" lon="10.432625710557456"><ele>151.0</ele><time>2026-03-29T08:12:04Z</time></trkpt><trkpt lat="45.48682747147976" lon="10.432666150871734"><ele>151.0</ele><time>2026-03-29T08:12:05Z</time></trkpt><trkpt lat="45.486628446803834" lon="10.43274316479935"><ele>151.0</ele><time>2026-03-29T08:12:06Z</time></trkpt><trkpt lat="45.48644802717624" lon="10.432789388501492"><ele>151.0</ele><time>2026-03-29T08:12:07Z</time></trkpt><trkpt lat="45.48627983830156" lon="10.432837417675373"><ele>151.0</ele><time>2026-03-29T08:12:08Z</time></trkpt><trkpt lat="45.48611726350555" lon="10.432879791496143"><ele>151.0</ele><time>2026-03-29T08:12:09Z</time></trkpt><trkpt lat="45.485972495123114" lon="10.432862468560632"><ele>150.5</ele><time>2026-03-29T08:12:10Z</time></trkpt><trkpt lat="45.485854317326755" lon="10.432830059515563"><ele>150.0</ele><time>2026-03-29T08:12:11Z</time></trkpt><trkpt lat="45.48572779516359" lon="10.432741100010855"><ele>149.5</ele><time>2026-03-29T08:12:12Z</time></trkpt><trkpt lat="45.485567987120504" lon="10.432625658362541"><ele>149.0</ele><time>2026-03-29T08:12:13Z</time></trkpt><trkpt lat="45.485386172760705" lon="10.43250044137565"><ele>149.0</ele><time>2026-03-29T08:12:14Z</time></trkpt><trkpt lat="45.485196375275805" lon="10.432382577502773"><ele>149.0</ele><time>2026-03-29T08:12:15Z</time></trkpt><trkpt lat="45.48498181464195" lon="10.432281445594382"><ele>149.0</ele><time>2026-03-29T08:12:16Z</time></trkpt><trkpt lat="45.48475211074521" lon="10.432203311365189"><ele>148.5</ele><time>2026-03-29T08:12:17Z</time></trkpt><trkpt lat="45.48450661016044" lon="10.432150487689709"><ele>148.0</ele><time>2026-03-29T08:12:18Z</time></trkpt><trkpt lat="45.48426985320006" lon="10.432047968163513"><ele>148.0</ele><time>2026-03-29T08:12:19Z</time></trkpt><trkpt lat="45.484030930091066" lon="10.431955405609079"><ele>148.0</ele><time>2026-03-29T08:12:20Z</time></trkpt><trkpt lat="45.48381581229611" lon="10.431873703439413"><ele>147.0</ele><time>2026-03-29T08:12:21Z</time></trkpt><trkpt lat="45.483611579859506" lon="10.431795599873741"><ele>146.0</ele><time>2026-03-29T08:12:22Z</time></trkpt><trkpt lat="45.48340214232133" lon="10.431716267074826"><ele>145.0</ele><time>2026-03-29T08:12:23Z</time></trkpt><trkpt lat="45.48318405986224" lon="10.43163694508307"><ele>145.0</ele><time>2026-03-29T08:12:24Z</time></trkpt><trkpt lat="45.48295473771525" lon="10.431567376396627"><ele>145.0</ele><time>2026-03-29T08:12:25Z</time></trkpt><trkpt lat="45.482719948957275" lon="10.43151047086462"><ele>145.5</ele><time>2026-03-29T08:12:26Z</time></trkpt><trkpt lat="45.48248806113004" lon="10.431461458161635"><ele>146.0</ele><time>2026-03-29T08:12:27Z</time></trkpt><trkpt lat="45.48226971929384" lon="10.4314193769115"><ele>145.66666666666666</ele><time>2026-03-29T08:12:28Z</time></trkpt><trkpt lat="45.482059392544016" lon="10.43139082845845"><ele>145.33333333333334</ele><time>2026-03-29T08:12:29Z</time></trkpt><trkpt lat="45.4818406922221" lon="10.431383535066953"><ele>145.0</ele><time>2026-03-29T08:12:30Z</time></trkpt><trkpt lat="45.48162188431248" lon="10.431434772182019"><ele>145.0</ele><time>2026-03-29T08:12:31Z</time></trkpt><trkpt lat="45.481417616916936" lon="10.431443490791954"><ele>145.0</ele><time>2026-03-29T08:12:32Z</time></trkpt><trkpt lat="45.48123795287215" lon="10.431471399557697"><ele>145.0</ele><time>2026-03-29T08:12:33Z</time></trkpt><trkpt lat="45.48107398272652" lon="10.431483802784452"><ele>144.66666666666669</ele><time>2026-03-29T08:12:34Z</time></trkpt><trkpt lat="45.480938221898015" lon="10.431475277752801"><ele>144.33333333333334</ele><time>2026-03-29T08:12:35Z</time></trkpt><trkpt lat="45.48080307142288" lon="10.43140887961546"><ele>144.0</ele><time>2026-03-29T08:12:36Z</time></trkpt><trkpt lat="45.480637477679565" lon="10.43130774851272"><ele>144.33333333333334</ele><time>2026-03-29T08:12:37Z</time></trkpt><trkpt lat="45.4804591957611" lon="10.431204756303709"><ele>144.66666666666669</ele><time>2026-03-29T08:12:38Z</time></trkpt><trkpt lat="45.48028003238016" lon="10.431076759275602"><ele>145.0</ele><time>2026-03-29T08:12:39Z</time></trkpt><trkpt lat="45.48009469379513" lon="10.430926458941975"><ele>144.33333333333334</ele><time>2026-03-29T08:12:40Z</time></trkpt><trkpt lat="45.479900112765044" lon="10.430783549737047"><ele>143.66666666666666</ele><time>2026-03-29T08:12:41Z</time></trkpt><trkpt lat="45.47969551312979" lon="10.430657999194779"><ele>143.0</ele><time>2026-03-29T08:12:42Z</time></trkpt><trkpt lat="45.47948810049437" lon="10.430568577742152"><ele>142.5</ele><time>2026-03-29T08:12:43Z</time></trkpt><trkpt lat="45.479274758462616" lon="10.430483940355154"><ele>142.0</ele><time>2026-03-29T08:12:44Z</time></trkpt><trkpt lat="45.47905254666209" lon="10.430409414161408"><ele>141.66666666666669</ele><time>2026-03-29T08:12:45Z</time></trkpt><trkpt lat="45.4788385085663" lon="10.430334874172779"><ele>141.33333333333334</ele><time>2026-03-29T08:12:46Z</time></trkpt><trkpt lat="45.4786491250874" lon="10.430272067358242"><ele>141.0</ele><time>2026-03-29T08:12:47Z</time></trkpt><trkpt lat="45.478470584277325" lon="10.430216121332418"><ele>141.0</ele><time>2026-03-29T08:12:48Z</time></trkpt><trkpt lat="45.47828673107126" lon="10.430161239263505"><ele>141.0</ele><time>2026-03-29T08:12:49Z</time></trkpt><trkpt lat="45.4781099709433" lon="10.43011248068781"><ele>141.0</ele><time>2026-03-29T08:12:50Z</time></trkpt><trkpt lat="45.4779159528589" lon="10.430069405283804"><ele>140.66666666666666</ele><time>2026-03-29T08:12:51Z</time></trkpt><trkpt lat="45.477728948897486" lon="10.430032923437942"><ele>140.33333333333331</ele><time>2026-03-29T08:12:52Z</time></trkpt><trkpt lat="45.47756200997175" lon="10.430002448649262"><ele>140.0</ele><time>2026-03-29T08:12:53Z</time></trkpt><trkpt lat="45.477418313293576" lon="10.429979707096976"><ele>140.0</ele><time>2026-03-29T08:12:54Z</time></trkpt><trkpt lat="45.47730341450385" lon="10.429965081964218"><ele>140.0</ele><time>2026-03-29T08:12:55Z</time></trkpt><trkpt lat="45.477213577920146" lon="10.429962539776557"><ele>140.0</ele><time>2026-03-29T08:12:56Z</time></trkpt><trkpt lat="45.47712655600118" lon="10.43003032720659"><ele>140.0</ele><time>2026-03-29T08:12:57Z</time></trkpt><trkpt lat="45.47707753219869" lon="10.430159270539932"><ele>140.0</ele><time>2026-03-29T08:12:58Z</time></trkpt><trkpt lat="45.477050808970255" lon="10.430335780647471"><ele>139.75</ele><time>2026-03-29T08:12:59Z</time></trkpt><trkpt lat="45.47701340673416" lon="10.430543731213493"><ele>139.5</ele><time>2026-03-29T08:13:00Z</time></trkpt><trkpt lat="45.47697946116119" lon="10.430751458522437"><ele>139.25</ele><time>2026-03-29T08:13:01Z</time></trkpt><trkpt lat="45.47693212617859" lon="10.430893225147944"><ele>139.0</ele><time>2026-03-29T08:13:02Z</time></trkpt><trkpt lat="45.476867808867745" lon="10.430991434592997"><ele>139.0</ele><time>2026-03-29T08:13:03Z</time></trkpt><trkpt lat="45.4767790309776" lon="10.431029730192417"><ele>139.0</ele><time>2026-03-29T08:13:04Z</time></trkpt><trkpt lat="45.47667134803401" lon="10.431030693041059"><ele>139.0</ele><time>2026-03-29T08:13:05Z</time></trkpt><trkpt lat="45.476544991905556" lon="10.430906785315289"><ele>139.0</ele><time>2026-03-29T08:13:06Z</time></trkpt><trkpt lat="45.476361916616625" lon="10.430829197665071"><ele>139.5</ele><time>2026-03-29T08:13:07Z</time></trkpt><trkpt lat="45.47616385590912" lon="10.430747149104487"><ele>140.0</ele><time>2026-03-29T08:13:08Z</time></trkpt><trkpt lat="45.47592812322368" lon="10.430647623195252"><ele>140.0</ele><time>2026-03-29T08:13:09Z</time></trkpt><trkpt lat="45.47566555189852" lon="10.430538276851196"><ele>140.0</ele><time>2026-03-29T08:13:10Z</time></trkpt><trkpt lat="45.475402195670334" lon="10.430351123271874"><ele>139.5</ele><time>2026-03-29T08:13:11Z</time></trkpt><trkpt lat="45.475141049681724" lon="10.430203758194189"><ele>139.0</ele><time>2026-03-29T08:13:12Z</time></trkpt><trkpt lat="45.47489932701176" lon="10.430083882720755"><ele>139.0</ele><time>2026-03-29T08:13:13Z</time></trkpt><trkpt lat="45.47466814929212" lon="10.429969455952406"><ele>139.0</ele><time>2026-03-29T08:13:14Z</time></trkpt><trkpt lat="45.47444330853053" lon="10.429880813761658"><ele>138.66666666666669</ele><time>2026-03-29T08:13:15Z</time></trkpt><trkpt lat="45.4742438047579" lon="10.42977424239564"><ele>138.33333333333334</ele><time>2026-03-29T08:13:16Z</time></trkpt><trkpt lat="45.474062550833146" lon="10.429684065845306"><ele>138.0</ele><time>2026-03-29T08:13:17Z</time></trkpt><trkpt lat="45.473918017535205" lon="10.42961162738477"><ele>137.8</ele><time>2026-03-29T08:13:18Z</time></trkpt><trkpt lat="45.473821272477586" lon="10.429560553342775"><ele>137.60000000000002</ele><time>2026-03-29T08:13:19Z</time></trkpt><trkpt lat="45.47373724488532" lon="10.429522005367087"><ele>137.39999999999998</ele><time>2026-03-29T08:13:20Z</time></trkpt><trkpt lat="45.473669934567894" lon="10.429497061396846"><ele>137.2</ele><time>2026-03-29T08:13:21Z</time></trkpt><trkpt lat="45.473580243779" lon="10.429501998297027"><ele>137.0</ele><time>2026-03-29T08:13:23Z</time></trkpt><trkpt lat="45.47354144759044" lon="10.429644524269653"><ele>137.0</ele><time>2026-03-29T08:13:25Z</time></trkpt><trkpt lat="45.473541207783114" lon="10.429777311869657"><ele>137.0</ele><time>2026-03-29T08:13:26Z</time></trkpt><trkpt lat="45.47353230637065" lon="10.429975181866856"><ele>137.0</ele><time>2026-03-29T08:13:27Z</time></trkpt><trkpt lat="45.47351231550676" lon="10.430187544338205"><ele>137.0</ele><time>2026-03-29T08:13:28Z</time></trkpt><trkpt lat="45.473477628025115" lon="10.43042464389762"><ele>137.0</ele><time>2026-03-29T08:13:29Z</time></trkpt><trkpt lat="45.47342360189433" lon="10.430693504317173"><ele>137.0</ele><time>2026-03-29T08:13:30Z</time></trkpt><trkpt lat="45.47336153450064" lon="10.43097780822792"><ele>137.0</ele><time>2026-03-29T08:13:31Z</time></trkpt><trkpt lat="45.47328846128517" lon="10.431264377141781"><ele>138.0</ele><time>2026-03-29T08:13:32Z</time></trkpt><trkpt lat="45.47320548806044" lon="10.431563069360436"><ele>139.0</ele><time>2026-03-29T08:13:33Z</time></trkpt><trkpt lat="45.47311909497741" lon="10.431879142645933"><ele>140.0</ele><time>2026-03-29T08:13:34Z</time></trkpt><trkpt lat="45.473030232185906" lon="10.432196448425366"><ele>141.0</ele><time>2026-03-29T08:13:35Z</time></trkpt><trkpt lat="45.47294045004479" lon="10.432532840452424"><ele>140.5</ele><time>2026-03-29T08:13:36Z</time></trkpt><trkpt lat="45.47285195343807" lon="10.432870457642123"><ele>140.0</ele><time>2026-03-29T08:13:37Z</time></trkpt><trkpt lat="45.47276237338766" lon="10.433205415201185"><ele>140.0</ele><time>2026-03-29T08:13:38Z</time></trkpt><trkpt lat="45.47267906219605" lon="10.433519583798624"><ele>140.0</ele><time>2026-03-29T08:13:39Z</time></trkpt><trkpt lat="45.47259859531571" lon="10.433799650630883"><ele>140.0</ele><time>2026-03-29T08:13:40Z</time></trkpt><trkpt lat="45.4725310885281" lon="10.434040838845753"><ele>139.33333333333331</ele><time>2026-03-29T08:13:41Z</time></trkpt><trkpt lat="45.47247271333702" lon="10.434257045647081"><ele>138.66666666666666</ele><time>2026-03-29T08:13:42Z</time></trkpt><trkpt lat="45.472420725293624" lon="10.434468334082274"><ele>138.0</ele><time>2026-03-29T08:13:43Z</time></trkpt><trkpt lat="45.47236947222988" lon="10.43466263799099"><ele>137.75</ele><time>2026-03-29T08:13:44Z</time></trkpt><trkpt lat="45.47231168900759" lon="10.43483948567546"><ele>137.5</ele><time>2026-03-29T08:13:45Z</time></trkpt><trkpt lat="45.47223833735466" lon="10.434996595899397"><ele>137.25</ele><time>2026-03-29T08:13:46Z</time></trkpt><trkpt lat="45.472164744586756" lon="10.435139609993303"><ele>137.0</ele><time>2026-03-29T08:13:47Z</time></trkpt><trkpt lat="45.47212788896497" lon="10.435290243109826"><ele>137.33333333333331</ele><time>2026-03-29T08:13:48Z</time></trkpt><trkpt lat="45.4721472445594" lon="10.435476240493056"><ele>137.66666666666666</ele><time>2026-03-29T08:13:49Z</time></trkpt><trkpt lat="45.4721084832346" lon="10.43570763172649"><ele>138.0</ele><time>2026-03-29T08:13:50Z</time></trkpt><trkpt lat="45.47204262478729" lon="10.435987311004846"><ele>138.33333333333334</ele><time>2026-03-29T08:13:51Z</time></trkpt><trkpt lat="45.47195520656855" lon="10.436256220509346"><ele>138.66666666666669</ele><time>2026-03-29T08:13:52Z</time></trkpt><trkpt lat="45.471853797287594" lon="10.436525717409806"><ele>139.0</ele><time>2026-03-29T08:13:53Z</time></trkpt><trkpt lat="45.471760957431144" lon="10.436799973302103"><ele>139.0</ele><time>2026-03-29T08:13:54Z</time></trkpt><trkpt lat="45.471671163607" lon="10.43709935820909"><ele>139.0</ele><time>2026-03-29T08:13:55Z</time></trkpt><trkpt lat="45.47157951595767" lon="10.437417877186334"><ele>138.5</ele><time>2026-03-29T08:13:56Z</time></trkpt><trkpt lat="45.47148651053045" lon="10.437746747452135"><ele>138.0</ele><time>2026-03-29T08:13:57Z</time></trkpt><trkpt lat="45.471396987239224" lon="10.438068928622716"><ele>138.0</ele><time>2026-03-29T08:13:58Z</time></trkpt><trkpt lat="45.47131875441907" lon="10.438361599116766"><ele>138.0</ele><time>2026-03-29T08:13:59Z</time></trkpt><trkpt lat="45.471238315758754" lon="10.438646038990042"><ele>138.0</ele><time>2026-03-29T08:14:00Z</time></trkpt><trkpt lat="45.4711637851033" lon="10.438908068239684"><ele>138.0</ele><time>2026-03-29T08:14:01Z</time></trkpt><trkpt lat="45.471097015776486" lon="10.439150665936221"><ele>138.0</ele><time>2026-03-29T08:14:02Z</time></trkpt><trkpt lat="45.47102915027461" lon="10.439403126077561"><ele>138.0</ele><time>2026-03-29T08:14:03Z</time></trkpt><trkpt lat="45.47097374175076" lon="10.439655145023796"><ele>138.25</ele><time>2026-03-29T08:14:04Z</time></trkpt><trkpt lat="45.470942964154034" lon="10.43986922415936"><ele>138.5</ele><time>2026-03-29T08:14:05Z</time></trkpt><trkpt lat="45.47092176935406" lon="10.440047843767704"><ele>138.75</ele><time>2026-03-29T08:14:06Z</time></trkpt><trkpt lat="45.4708949400408" lon="10.440191174418892"><ele>139.0</ele><time>2026-03-29T08:14:07Z</time></trkpt><trkpt lat="45.47087433286174" lon="10.440303496950168"><ele>139.0</ele><time>2026-03-29T08:14:08Z</time></trkpt><trkpt lat="45.47080120131012" lon="10.440356345577952"><ele>139.0</ele><time>2026-03-29T08:14:09Z</time></trkpt><trkpt lat="45.47077641486044" lon="10.44045007049172"><ele>139.0</ele><time>2026-03-29T08:14:10Z</time></trkpt><trkpt lat="45.47060264554203" lon="10.440352462524228"><ele>139.0</ele><time>2026-03-29T08:14:11Z</time></trkpt><trkpt lat="45.47045552587837" lon="10.440314145210829"><ele>139.33333333333334</ele><time>2026-03-29T08:14:12Z</time></trkpt><trkpt lat="45.47028023745276" lon="10.440318597509126"><ele>139.66666666666666</ele><time>2026-03-29T08:14:13Z</time></trkpt><trkpt lat="45.470100884806" lon="10.440331238625403"><ele>140.0</ele><time>2026-03-29T08:14:14Z</time></trkpt><trkpt lat="45.46990067794155" lon="10.44035277799973"><ele>140.0</ele><time>2026-03-29T08:14:15Z</time></trkpt><trkpt lat="45.469704975303706" lon="10.440406604035223"><ele>140.0</ele><time>2026-03-29T08:14:16Z</time></trkpt><trkpt lat="45.46951948629182" lon="10.440446024646533"><ele>140.0</ele><time>2026-03-29T08:14:17Z</time></trkpt><trkpt lat="45.46934763971242" lon="10.440463873424232"><ele>139.33333333333331</ele><time>2026-03-29T08:14:18Z</time></trkpt><trkpt lat="45.46918241043901" lon="10.44050068432222"><ele>138.66666666666666</ele><time>2026-03-29T08:14:19Z</time></trkpt><trkpt lat="45.469031281342446" lon="10.44052818593316"><ele>138.0</ele><time>2026-03-29T08:14:20Z</time></trkpt><trkpt lat="45.46889276112931" lon="10.440594183105995"><ele>138.5</ele><time>2026-03-29T08:14:21Z</time></trkpt><trkpt lat="45.46875116827054" lon="10.44062917048053"><ele>139.0</ele><time>2026-03-29T08:14:22Z</time></trkpt><trkpt lat="45.46861164251435" lon="10.440662088022084"><ele>139.5</ele><time>2026-03-29T08:14:23Z</time></trkpt><trkpt lat="45.46848151800477" lon="10.44068830409467"><ele>140.0</ele><time>2026-03-29T08:14:24Z</time></trkpt><trkpt lat="45.46838535935033" lon="10.440678973972018"><ele>140.0</ele><time>2026-03-29T08:14:25Z</time></trkpt><trkpt lat="45.468306343379616" lon="10.440706965175265"><ele>140.0</ele><time>2026-03-29T08:14:26Z</time></trkpt><trkpt lat="45.46822796549208" lon="10.440656520052505"><ele>140.0</ele><time>2026-03-29T08:14:27Z</time></trkpt><trkpt lat="45.46816176975424" lon="10.440590204704666"><ele>140.0</ele><time>2026-03-29T08:14:28Z</time></trkpt><trkpt lat="45.468053033335885" lon="10.440592181962037"><ele>140.0</ele><time>2026-03-29T08:14:29Z</time></trkpt><trkpt lat="45.46793266504546" lon="10.440593441208934"><ele>139.66666666666666</ele><time>2026-03-29T08:14:30Z</time></trkpt><trkpt lat="45.46778863107636" lon="10.440639161740204"><ele>139.33333333333334</ele><time>2026-03-29T08:14:31Z</time></trkpt><trkpt lat="45.46763410007084" lon="10.44064657640978"><ele>139.0</ele><time>2026-03-29T08:14:32Z</time></trkpt><trkpt lat="45.467484626180585" lon="10.440672380939205"><ele>139.0</ele><time>2026-03-29T08:14:33Z</time></trkpt><trkpt lat="45.46730426220434" lon="10.440700138891234"><ele>139.0</ele><time>2026-03-29T08:14:34Z</time></trkpt><trkpt lat="45.467137980281606" lon="10.440723666603647"><ele>139.0</ele><time>2026-03-29T08:14:35Z</time></trkpt><trkpt lat="45.46698887667355" lon="10.440744613368617"><ele>138.0</ele><time>2026-03-29T08:14:36Z</time></trkpt><trkpt lat="45.46683862019573" lon="10.440765011744006"><ele>137.0</ele><time>2026-03-29T08:14:37Z</time></trkpt><trkpt lat="45.466688756703626" lon="10.440785356762552"><ele>136.0</ele><time>2026-03-29T08:14:38Z</time></trkpt><trkpt lat="45.466534371009814" lon="10.440806315703343"><ele>136.0</ele><time>2026-03-29T08:14:39Z</time></trkpt><trkpt lat="45.46638478996835" lon="10.440826622377324"><ele>136.0</ele><time>2026-03-29T08:14:40Z</time></trkpt><trkpt lat="45.466219533284665" lon="10.440854702312851"><ele>136.0</ele><time>2026-03-29T08:14:41Z</time></trkpt><trkpt lat="45.46604113104266" lon="10.440894706792003"><ele>135.66666666666669</ele><time>2026-03-29T08:14:42Z</time></trkpt><trkpt lat="45.46587919262976" lon="10.440965313587602"><ele>135.33333333333334</ele><time>2026-03-29T08:14:43Z</time></trkpt><trkpt lat="45.46573581985688" lon="10.441014231805847"><ele>135.0</ele><time>2026-03-29T08:14:44Z</time></trkpt><trkpt lat="45.4655934560241" lon="10.441032149169468"><ele>135.0</ele><time>2026-03-29T08:14:45Z</time></trkpt><trkpt lat="45.46544978623464" lon="10.441073559409563"><ele>135.0</ele><time>2026-03-29T08:14:46Z</time></trkpt><trkpt lat="45.46530885340988" lon="10.44113823228044"><ele>135.0</ele><time>2026-03-29T08:14:47Z</time></trkpt><trkpt lat="45.46515027090527" lon="10.441159726884374"><ele>134.75</ele><time>2026-03-29T08:14:48Z</time></trkpt><trkpt lat="45.46501164795812" lon="10.441198990580647"><ele>134.5</ele><time>2026-03-29T08:14:49Z</time></trkpt><trkpt lat="45.46490035399304" lon="10.441230513582095"><ele>134.25</ele><time>2026-03-29T08:14:50Z</time></trkpt><trkpt lat="45.464789379773954" lon="10.441264382864473"><ele>134.0</ele><time>2026-03-29T08:14:51Z</time></trkpt><trkpt lat="45.46468055069214" lon="10.441299698176547"><ele>134.5</ele><time>2026-03-29T08:14:52Z</time></trkpt><trkpt lat="45.464582204339806" lon="10.44135535762886"><ele>135.0</ele><time>2026-03-29T08:14:53Z</time></trkpt><trkpt lat="45.46446240738602" lon="10.441386051928767"><ele>135.5</ele><time>2026-03-29T08:14:54Z</time></trkpt><trkpt lat="45.46431630912748" lon="10.441381888045528"><ele>136.0</ele><time>2026-03-29T08:14:55Z</time></trkpt><trkpt lat="45.464176816315714" lon="10.441415602866273"><ele>136.0</ele><time>2026-03-29T08:14:56Z</time></trkpt><trkpt lat="45.464015084515104" lon="10.44141915125395"><ele>136.0</ele><time>2026-03-29T08:14:57Z</time></trkpt><trkpt lat="45.46385328644076" lon="10.44142781298629"><ele>136.0</ele><time>2026-03-29T08:14:58Z</time></trkpt><trkpt lat="45.46369300594376" lon="10.441434546576708"><ele>135.66666666666669</ele><time>2026-03-29T08:14:59Z</time></trkpt><trkpt lat="45.46353074577996" lon="10.4414398223866"><ele>135.33333333333334</ele><time>2026-03-29T08:15:00Z</time></trkpt><trkpt lat="45.463355978487705" lon="10.441456275363809"><ele>135.0</ele><time>2026-03-29T08:15:01Z</time></trkpt><trkpt lat="45.463165890415716" lon="10.441476519100645"><ele>135.0</ele><time>2026-03-29T08:15:02Z</time></trkpt><trkpt lat="45.46298287330969" lon="10.441504477717107"><ele>135.0</ele><time>2026-03-29T08:15:03Z</time></trkpt><trkpt lat="45.462814040044414" lon="10.441543075999691"><ele>135.0</ele><time>2026-03-29T08:15:04Z</time></trkpt><trkpt lat="45.462647793159704" lon="10.441581766234508"><ele>134.66666666666666</ele><time>2026-03-29T08:15:05Z</time></trkpt><trkpt lat="45.46247788840513" lon="10.44162344521728"><ele>134.33333333333331</ele><time>2026-03-29T08:15:06Z</time></trkpt><trkpt lat="45.46230371134521" lon="10.441667554296393"><ele>134.0</ele><time>2026-03-29T08:15:07Z</time></trkpt><trkpt lat="45.46212580940595" lon="10.441719185008973"><ele>134.0</ele><time>2026-03-29T08:15:08Z</time></trkpt><trkpt lat="45.46195028142118" lon="10.441774772581889"><ele>134.0</ele><time>2026-03-29T08:15:09Z</time></trkpt><trkpt lat="45.461767599709006" lon="10.441830424484174"><ele>134.0</ele><time>2026-03-29T08:15:10Z</time></trkpt><trkpt lat="45.461589137833705" lon="10.441887659325952"><ele>134.0</ele><time>2026-03-29T08:15:11Z</time></trkpt><trkpt lat="45.4614088330731" lon="10.441917461508314"><ele>134.0</ele><time>2026-03-29T08:15:12Z</time></trkpt><trkpt lat="45.46123792396145" lon="10.441965949569449"><ele>134.0</ele><time>2026-03-29T08:15:13Z</time></trkpt><trkpt lat="45.461073968834235" lon="10.442033334398621"><ele>133.66666666666666</ele><time>2026-03-29T08:15:14Z</time></trkpt><trkpt lat="45.46091642894949" lon="10.442076187052862"><ele>133.33333333333334</ele><time>2026-03-29T08:15:15Z</time></trkpt><trkpt lat="45.46075718336058" lon="10.442128245208727"><ele>133.0</ele><time>2026-03-29T08:15:16Z</time></trkpt><trkpt lat="45.46059030237816" lon="10.442152029150025"><ele>133.0</ele><time>2026-03-29T08:15:17Z</time></trkpt><trkpt lat="45.460431829128744" lon="10.442196926281822"><ele>133.0</ele><time>2026-03-29T08:15:18Z</time></trkpt><trkpt lat="45.46028549571585" lon="10.442237347291941"><ele>133.0</ele><time>2026-03-29T08:15:19Z</time></trkpt><trkpt lat="45.46014316868023" lon="10.442276810918006"><ele>133.0</ele><time>2026-03-29T08:15:20Z</time></trkpt><trkpt lat="45.459992933472215" lon="10.442343168100289"><ele>133.0</ele><time>2026-03-29T08:15:21Z</time></trkpt><trkpt lat="45.45984294706372" lon="10.44236357795904"><ele>133.0</ele><time>2026-03-29T08:15:22Z</time></trkpt><trkpt lat="45.45970564479601" lon="10.44240255477152"><ele>133.0</ele><time>2026-03-29T08:15:23Z</time></trkpt><trkpt lat="45.459569850020664" lon="10.44244066741789"><ele>132.5</ele><time>2026-03-29T08:15:24Z</time></trkpt><trkpt lat="45.45943636758266" lon="10.44247813114446"><ele>132.0</ele><time>2026-03-29T08:15:25Z</time></trkpt><trkpt lat="45.45930051253037" lon="10.442515353886087"><ele>131.5</ele><time>2026-03-29T08:15:26Z</time></trkpt><trkpt lat="45.45916456015164" lon="10.44255303949712"><ele>131.0</ele><time>2026-03-29T08:15:27Z</time></trkpt><trkpt lat="45.45902851559656" lon="10.44259075071277"><ele>131.0</ele><time>2026-03-29T08:15:28Z</time></trkpt><trkpt lat="45.45889425834581" lon="10.442627968321295"><ele>131.0</ele><time>2026-03-29T08:15:29Z</time></trkpt><trkpt lat="45.458772351958615" lon="10.442661760638082"><ele>131.0</ele><time>2026-03-29T08:15:30Z</time></trkpt><trkpt lat="45.458681947845285" lon="10.442686820222502"><ele>131.0</ele><time>2026-03-29T08:15:31Z</time></trkpt><trkpt lat="45.45860450226603" lon="10.442708287918517"><ele>131.0</ele><time>2026-03-29T08:15:32Z</time></trkpt><trkpt lat="45.458540082527925" lon="10.442726144891408"><ele>130.83333333333331</ele><time>2026-03-29T08:15:33Z</time></trkpt><trkpt lat="45.458443138061796" lon="10.442752606875482"><ele>130.66666666666666</ele><time>2026-03-29T08:15:35Z</time></trkpt><trkpt lat="45.458404440568614" lon="10.442929644937891"><ele>130.5</ele><time>2026-03-29T08:15:38Z</time></trkpt><trkpt lat="45.45841995376158" lon="10.44304544125925"><ele>130.33333333333334</ele><time>2026-03-29T08:15:39Z</time></trkpt><trkpt lat="45.45841109025335" lon="10.443135450457957"><ele>130.16666666666669</ele><time>2026-03-29T08:15:40Z</time></trkpt><trkpt lat="45.45837980661828" lon="10.443223120611748"><ele>130.0</ele><time>2026-03-29T08:15:41Z</time></trkpt><trkpt lat="45.4583279815448" lon="10.44328198788445"><ele>130.0</ele><time>2026-03-29T08:15:42Z</time></trkpt><trkpt lat="45.458247202906726" lon="10.443298308997088"><ele>130.0</ele><time>2026-03-29T08:15:43Z</time></trkpt><trkpt lat="45.4581546422849" lon="10.44332739953532"><ele>130.0</ele><time>2026-03-29T08:15:44Z</time></trkpt><trkpt lat="45.45803966296521" lon="10.443354952886141"><ele>130.0</ele><time>2026-03-29T08:15:45Z</time></trkpt><trkpt lat="45.457907404389076" lon="10.443378393797401"><ele>130.0</ele><time>2026-03-29T08:15:46Z</time></trkpt><trkpt lat="45.45777799092802" lon="10.443389138266731"><ele>130.0</ele><time>2026-03-29T08:15:47Z</time></trkpt><trkpt lat="45.45764761753127" lon="10.44340022190256"><ele>130.0</ele><time>2026-03-29T08:15:48Z</time></trkpt><trkpt lat="45.457518735268685" lon="10.443414990380361"><ele>130.0</ele><time>2026-03-29T08:15:49Z</time></trkpt><trkpt lat="45.457392007797225" lon="10.443457258465115"><ele>130.0</ele><time>2026-03-29T08:15:50Z</time></trkpt><trkpt lat="45.45727383880293" lon="10.443474313703097"><ele>130.0</ele><time>2026-03-29T08:15:51Z</time></trkpt><trkpt lat="45.457176940795684" lon="10.443528978348619"><ele>130.0</ele><time>2026-03-29T08:15:52Z</time></trkpt><trkpt lat="45.45708788674953" lon="10.443579541685722"><ele>130.0</ele><time>2026-03-29T08:15:53Z</time></trkpt><trkpt lat="45.45697802032616" lon="10.44353705799787"><ele>130.0</ele><time>2026-03-29T08:15:54Z</time></trkpt><trkpt lat="45.456852072286026" lon="10.44351906673272"><ele>130.0</ele><time>2026-03-29T08:15:55Z</time></trkpt><trkpt lat="45.45672729620553" lon="10.443499963131035"><ele>129.8</ele><time>2026-03-29T08:15:56Z</time></trkpt><trkpt lat="45.45660992402945" lon="10.443482031348774"><ele>129.6</ele><time>2026-03-29T08:15:57Z</time></trkpt><trkpt lat="45.456506168742514" lon="10.443467190179058"><ele>129.4</ele><time>2026-03-29T08:15:58Z</time></trkpt><trkpt lat="45.4564008512417" lon="10.443452125550248"><ele>129.2</ele><time>2026-03-29T08:15:59Z</time></trkpt><trkpt lat="45.45628585060849" lon="10.443436340583805"><ele>129.0</ele><time>2026-03-29T08:16:00Z</time></trkpt><trkpt lat="45.456160388692574" lon="10.443443316830958"><ele>129.5</ele><time>2026-03-29T08:16:01Z</time></trkpt><trkpt lat="45.456028051677656" lon="10.4434274317191"><ele>130.0</ele><time>2026-03-29T08:16:02Z</time></trkpt><trkpt lat="45.45589798235373" lon="10.443380981916658"><ele>130.5</ele><time>2026-03-29T08:16:03Z</time></trkpt><trkpt lat="45.45579349585613" lon="10.443348673481596"><ele>131.0</ele><time>2026-03-29T08:16:04Z</time></trkpt><trkpt lat="45.45568504423523" lon="10.443329125837105"><ele>131.0</ele><time>2026-03-29T08:16:05Z</time></trkpt><trkpt lat="45.4555809898413" lon="10.4433283878678"><ele>131.0</ele><time>2026-03-29T08:16:06Z</time></trkpt><trkpt lat="45.455465133798796" lon="10.443333088658786"><ele>131.0</ele><time>2026-03-29T08:16:07Z</time></trkpt><trkpt lat="45.455359049155426" lon="10.443352944246847"><ele>131.0</ele><time>2026-03-29T08:16:08Z</time></trkpt><trkpt lat="45.455250937417894" lon="10.443393536513838"><ele>131.0</ele><time>2026-03-29T08:16:09Z</time></trkpt><trkpt lat="45.45512642496808" lon="10.443458339033167"><ele>130.33333333333331</ele><time>2026-03-29T08:16:10Z</time></trkpt><trkpt lat="45.45498044216079" lon="10.443537802045512"><ele>129.66666666666666</ele><time>2026-03-29T08:16:11Z</time></trkpt><trkpt lat="45.454829875320804" lon="10.443610200438819"><ele>129.0</ele><time>2026-03-29T08:16:12Z</time></trkpt><trkpt lat="45.4547002937234" lon="10.443665559325668"><ele>128.75</ele><time>2026-03-29T08:16:13Z</time></trkpt><trkpt lat="45.4545754138977" lon="10.44371577680661"><ele>128.5</ele><time>2026-03-29T08:16:14Z</time></trkpt><trkpt lat="45.454445974207324" lon="10.44376409738081"><ele>128.25</ele><time>2026-03-29T08:16:15Z</time></trkpt><trkpt lat="45.454297377811365" lon="10.443815470594267"><ele>128.0</ele><time>2026-03-29T08:16:16Z</time></trkpt><trkpt lat="45.454133170472915" lon="10.443882297140808"><ele>128.0</ele><time>2026-03-29T08:16:17Z</time></trkpt><trkpt lat="45.454052041153496" lon="10.443870736196837"><ele>128.0</ele><time>2026-03-29T08:16:18Z</time></trkpt><trkpt lat="45.45392580456392" lon="10.443881623322632"><ele>128.0</ele><time>2026-03-29T08:16:19Z</time></trkpt><trkpt lat="45.453760810298824" lon="10.443902919980218"><ele>128.0</ele><time>2026-03-29T08:16:20Z</time></trkpt><trkpt lat="45.453566939272065" lon="10.443955353902455"><ele>128.0</ele><time>2026-03-29T08:16:21Z</time></trkpt><trkpt lat="45.45338149103713" lon="10.443983433050203"><ele>128.0</ele><time>2026-03-29T08:16:22Z</time></trkpt><trkpt lat="45.453208443437944" lon="10.443987470247988"><ele>128.0</ele><time>2026-03-29T08:16:23Z</time></trkpt><trkpt lat="45.453045159013705" lon="10.44401246403007"><ele>127.5</ele><time>2026-03-29T08:16:24Z</time></trkpt><trkpt lat="45.45289118743156" lon="10.444036212321128"><ele>127.0</ele><time>2026-03-29T08:16:25Z</time></trkpt><trkpt lat="45.45273953688346" lon="10.444064540931109"><ele>126.5</ele><time>2026-03-29T08:16:26Z</time></trkpt><trkpt lat="45.45261785057066" lon="10.444087272102484"><ele>126.0</ele><time>2026-03-29T08:16:27Z</time></trkpt><trkpt lat="45.45248281598849" lon="10.444112496765783"><ele>126.0</ele><time>2026-03-29T08:16:28Z</time></trkpt><trkpt lat="45.452333473393445" lon="10.444140408807964"><ele>126.0</ele><time>2026-03-29T08:16:29Z</time></trkpt><trkpt lat="45.45217970747185" lon="10.444169464750502"><ele>126.0</ele><time>2026-03-29T08:16:30Z</time></trkpt><trkpt lat="45.452020101764184" lon="10.444199737583284"><ele>126.33333333333334</ele><time>2026-03-29T08:16:31Z</time></trkpt><trkpt lat="45.45186869028822" lon="10.444228456178074"><ele>126.66666666666667</ele><time>2026-03-29T08:16:32Z</time></trkpt><trkpt lat="45.451725446030935" lon="10.444255625679144"><ele>127.0</ele><time>2026-03-29T08:16:33Z</time></trkpt><trkpt lat="45.45156946107087" lon="10.44428521170596"><ele>127.0</ele><time>2026-03-29T08:16:34Z</time></trkpt><trkpt lat="45.451400939991245" lon="10.44431717553082"><ele>127.0</ele><time>2026-03-29T08:16:35Z</time></trkpt><trkpt lat="45.45124541024699" lon="10.444346675224525"><ele>127.0</ele><time>2026-03-29T08:16:36Z</time></trkpt><trkpt lat="45.45108590095351" lon="10.44437802106616"><ele>126.33333333333334</ele><time>2026-03-29T08:16:37Z</time></trkpt><trkpt lat="45.45093309896346" lon="10.444408505115597"><ele>125.66666666666666</ele><time>2026-03-29T08:16:38Z</time></trkpt><trkpt lat="45.450791049705416" lon="10.444436844002547"><ele>125.0</ele><time>2026-03-29T08:16:39Z</time></trkpt><trkpt lat="45.450626974212156" lon="10.444469577137514"><ele>124.33333333333333</ele><time>2026-03-29T08:16:40Z</time></trkpt><trkpt lat="45.450443550465955" lon="10.44450617021824"><ele>123.66666666666666</ele><time>2026-03-29T08:16:41Z</time></trkpt><trkpt lat="45.450285920466236" lon="10.444537357394331"><ele>123.0</ele><time>2026-03-29T08:16:42Z</time></trkpt><trkpt lat="45.45012917774067" lon="10.444567282740778"><ele>123.0</ele><time>2026-03-29T08:16:43Z</time></trkpt><trkpt lat="45.44996378197476" lon="10.444598860155732"><ele>123.0</ele><time>2026-03-29T08:16:44Z</time></trkpt><trkpt lat="45.44980961018431" lon="10.444625812386247"><ele>123.0</ele><time>2026-03-29T08:16:45Z</time></trkpt><trkpt lat="45.4496414498524" lon="10.444653714630714"><ele>123.66666666666666</ele><time>2026-03-29T08:16:46Z</time></trkpt><trkpt lat="45.44948490654241" lon="10.444677428463784"><ele>124.33333333333333</ele><time>2026-03-29T08:16:47Z</time></trkpt><trkpt lat="45.44932229162236" lon="10.444701040275893"><ele>125.0</ele><time>2026-03-29T08:16:48Z</time></trkpt><trkpt lat="45.449173285005756" lon="10.44472267827851"><ele>125.0</ele><time>2026-03-29T08:16:49Z</time></trkpt><trkpt lat="45.449015981365385" lon="10.444745571141176"><ele>125.0</ele><time>2026-03-29T08:16:50Z</time></trkpt><trkpt lat="45.44886319398815" lon="10.444769333303176"><ele>125.0</ele><time>2026-03-29T08:16:51Z</time></trkpt><trkpt lat="45.44870097703296" lon="10.444795820331109"><ele>124.33333333333333</ele><time>2026-03-29T08:16:52Z</time></trkpt><trkpt lat="45.448555284211054" lon="10.444823627710681"><ele>123.66666666666666</ele><time>2026-03-29T08:16:53Z</time></trkpt><trkpt lat="45.448388913852305" lon="10.444856456511026"><ele>123.0</ele><time>2026-03-29T08:16:54Z</time></trkpt><trkpt lat="45.44822929439738" lon="10.444909633501721"><ele>123.0</ele><time>2026-03-29T08:16:55Z</time></trkpt><trkpt lat="45.44806889524006" lon="10.44494616500782"><ele>123.0</ele><time>2026-03-29T08:16:56Z</time></trkpt><trkpt lat="45.4478946415267" lon="10.444980886554811"><ele>123.0</ele><time>2026-03-29T08:16:57Z</time></trkpt><trkpt lat="45.44773258825889" lon="10.44501475478521"><ele>122.33333333333334</ele><time>2026-03-29T08:16:58Z</time></trkpt><trkpt lat="45.44756610325567" lon="10.445040772811103"><ele>121.66666666666667</ele><time>2026-03-29T08:16:59Z</time></trkpt><trkpt lat="45.44740639877101" lon="10.445063848564706"><ele>121.0</ele><time>2026-03-29T08:17:00Z</time></trkpt><trkpt lat="45.447250121846544" lon="10.445086326746258"><ele>121.0</ele><time>2026-03-29T08:17:01Z</time></trkpt><trkpt lat="45.44711034900377" lon="10.445120788133531"><ele>121.0</ele><time>2026-03-29T08:17:02Z</time></trkpt><trkpt lat="45.4469580723673" lon="10.445154214411609"><ele>121.0</ele><time>2026-03-29T08:17:03Z</time></trkpt><trkpt lat="45.446823990617865" lon="10.445173812468786"><ele>121.0</ele><time>2026-03-29T08:17:04Z</time></trkpt><trkpt lat="45.44670223259227" lon="10.445191001427046"><ele>121.0</ele><time>2026-03-29T08:17:05Z</time></trkpt><trkpt lat="45.44657028025066" lon="10.44519102149025"><ele>121.0</ele><time>2026-03-29T08:17:06Z</time></trkpt><trkpt lat="45.44645394972798" lon="10.445218632948931"><ele>121.0</ele><time>2026-03-29T08:17:07Z</time></trkpt><trkpt lat="45.44633713551673" lon="10.445199749602356"><ele>121.0</ele><time>2026-03-29T08:17:08Z</time></trkpt><trkpt lat="45.446205768775954" lon="10.445196668728045"><ele>121.0</ele><time>2026-03-29T08:17:09Z</time></trkpt><trkpt lat="45.446028064407884" lon="10.44519250112326"><ele>121.0</ele><time>2026-03-29T08:17:10Z</time></trkpt><trkpt lat="45.44583737439271" lon="10.445188028962365"><ele>121.0</ele><time>2026-03-29T08:17:11Z</time></trkpt><trkpt lat="45.44565499161692" lon="10.445200810439275"><ele>121.0</ele><time>2026-03-29T08:17:12Z</time></trkpt><trkpt lat="45.44548738078356" lon="10.445194193930677"><ele>121.0</ele><time>2026-03-29T08:17:13Z</time></trkpt><trkpt lat="45.445315139149464" lon="10.44519148114745"><ele>121.0</ele><time>2026-03-29T08:17:14Z</time></trkpt><trkpt lat="45.445124975552034" lon="10.44519216001634"><ele>121.33333333333334</ele><time>2026-03-29T08:17:15Z</time></trkpt><trkpt lat="45.444921532022754" lon="10.445166550198971"><ele>121.66666666666666</ele><time>2026-03-29T08:17:16Z</time></trkpt><trkpt lat="45.44473210035211" lon="10.445162107554987"><ele>122.0</ele><time>2026-03-29T08:17:17Z</time></trkpt><trkpt lat="45.44454831388761" lon="10.445159032904941"><ele>121.33333333333333</ele><time>2026-03-29T08:17:18Z</time></trkpt><trkpt lat="45.44437564378327" lon="10.445156247907015"><ele>120.66666666666666</ele><time>2026-03-29T08:17:19Z</time></trkpt><trkpt lat="45.444182940221246" lon="10.445153139777316"><ele>120.0</ele><time>2026-03-29T08:17:20Z</time></trkpt><trkpt lat="45.443992615998646" lon="10.445150576086164"><ele>120.0</ele><time>2026-03-29T08:17:21Z</time></trkpt><trkpt lat="45.443808294106844" lon="10.445149127869858"><ele>120.0</ele><time>2026-03-29T08:17:22Z</time></trkpt><trkpt lat="45.44362199783819" lon="10.445147664139864"><ele>120.0</ele><time>2026-03-29T08:17:23Z</time></trkpt><trkpt lat="45.44343646101845" lon="10.44514738282866"><ele>120.33333333333334</ele><time>2026-03-29T08:17:24Z</time></trkpt><trkpt lat="45.44325858870698" lon="10.445147925249662"><ele>120.66666666666667</ele><time>2026-03-29T08:17:25Z</time></trkpt><trkpt lat="45.44307739773751" lon="10.445148646373212"><ele>121.0</ele><time>2026-03-29T08:17:26Z</time></trkpt><trkpt lat="45.44290856233266" lon="10.445149863287845"><ele>121.33333333333334</ele><time>2026-03-29T08:17:27Z</time></trkpt><trkpt lat="45.44273920115711" lon="10.445151130291364"><ele>121.66666666666666</ele><time>2026-03-29T08:17:28Z</time></trkpt><trkpt lat="45.442547678487685" lon="10.445154701808942"><ele>122.0</ele><time>2026-03-29T08:17:29Z</time></trkpt><trkpt lat="45.44237241077856" lon="10.44515899933197"><ele>122.0</ele><time>2026-03-29T08:17:30Z</time></trkpt><trkpt lat="45.442221356460266" lon="10.445162811222804"><ele>122.0</ele><time>2026-03-29T08:17:31Z</time></trkpt><trkpt lat="45.44204411906528" lon="10.445167283840108"><ele>122.0</ele><time>2026-03-29T08:17:32Z</time></trkpt><trkpt lat="45.44186471418983" lon="10.445171811157664"><ele>121.66666666666666</ele><time>2026-03-29T08:17:33Z</time></trkpt><trkpt lat="45.44168415484154" lon="10.445176367606422"><ele>121.33333333333334</ele><time>2026-03-29T08:17:34Z</time></trkpt><trkpt lat="45.441491979798116" lon="10.445179916415837"><ele>121.0</ele><time>2026-03-29T08:17:35Z</time></trkpt><trkpt lat="45.44130867711048" lon="10.44518275180505"><ele>120.66666666666667</ele><time>2026-03-29T08:17:36Z</time></trkpt><trkpt lat="45.441118843704835" lon="10.445183254027373"><ele>120.33333333333334</ele><time>2026-03-29T08:17:37Z</time></trkpt><trkpt lat="45.44093667173004" lon="10.445204337158657"><ele>120.0</ele><time>2026-03-29T08:17:38Z</time></trkpt><trkpt lat="45.44074773579744" lon="10.44519483428102"><ele>120.0</ele><time>2026-03-29T08:17:39Z</time></trkpt><trkpt lat="45.44057499218821" lon="10.44518815482178"><ele>120.0</ele><time>2026-03-29T08:17:40Z</time></trkpt><trkpt lat="45.440411775821595" lon="10.445185134772773"><ele>120.0</ele><time>2026-03-29T08:17:41Z</time></trkpt><trkpt lat="45.44027047807089" lon="10.445187481279149"><ele>120.0</ele><time>2026-03-29T08:17:42Z</time></trkpt><trkpt lat="45.440152880356614" lon="10.445163770942612"><ele>120.0</ele><time>2026-03-29T08:17:43Z</time></trkpt><trkpt lat="45.44006232824607" lon="10.445162452221997"><ele>120.0</ele><time>2026-03-29T08:17:44Z</time></trkpt><trkpt lat="45.43998741482807" lon="10.445161361251278"><ele>120.0</ele><time>2026-03-29T08:17:45Z</time></trkpt><trkpt lat="45.43986792348509" lon="10.4451596210865"><ele>120.0</ele><time>2026-03-29T08:17:47Z</time></trkpt><trkpt lat="45.439748924337856" lon="10.445160915559951"><ele>120.0</ele><time>2026-03-29T08:17:49Z</time></trkpt><trkpt lat="45.43964346854911" lon="10.445149765220503"><ele>120.0</ele><time>2026-03-29T08:17:51Z</time></trkpt><trkpt lat="45.439562127644656" lon="10.445164876920995"><ele>120.0</ele><time>2026-03-29T08:17:52Z</time></trkpt><trkpt lat="45.43945028062253" lon="10.445210463174126"><ele>120.0</ele><time>2026-03-29T08:17:53Z</time></trkpt><trkpt lat="45.4393067967379" lon="10.445227972517202"><ele>120.0</ele><time>2026-03-29T08:17:54Z</time></trkpt><trkpt lat="45.43916547248631" lon="10.445267286277009"><ele>120.0</ele><time>2026-03-29T08:17:55Z</time></trkpt><trkpt lat="45.43903836869951" lon="10.445303921800825"><ele>120.0</ele><time>2026-03-29T08:17:56Z</time></trkpt><trkpt lat="45.438923106709765" lon="10.445337181170514"><ele>120.0</ele><time>2026-03-29T08:17:57Z</time></trkpt><trkpt lat="45.438823201111134" lon="10.445368326479656"><ele>120.0</ele><time>2026-03-29T08:17:58Z</time></trkpt><trkpt lat="45.4387368296338" lon="10.445395252626422"><ele>120.0</ele><time>2026-03-29T08:17:59Z</time></trkpt><trkpt lat="45.43866253439195" lon="10.445418413988497"><ele>120.0</ele><time>2026-03-29T08:18:00Z</time></trkpt><trkpt lat="45.43858787225343" lon="10.445441689696143"><ele>120.0</ele><time>2026-03-29T08:18:01Z</time></trkpt><trkpt lat="45.438511729432086" lon="10.445465427058442"><ele>120.0</ele><time>2026-03-29T08:18:02Z</time></trkpt><trkpt lat="45.43843924073142" lon="10.445488025100225"><ele>120.0</ele><time>2026-03-29T08:18:03Z</time></trkpt><trkpt lat="45.43836553749891" lon="10.445511642223082"><ele>120.0</ele><time>2026-03-29T08:18:05Z</time></trkpt><trkpt lat="45.43838369670757" lon="10.445670910951193"><ele>120.0</ele><time>2026-03-29T08:18:10Z</time></trkpt><trkpt lat="45.43836062847702" lon="10.445513213257595"><ele>120.0</ele><time>2026-03-29T08:18:13Z</time></trkpt><trkpt lat="45.438443874048104" lon="10.44548658079829"><ele>120.0</ele><time>2026-03-29T08:19:11Z</time></trkpt><trkpt lat="45.43850071501917" lon="10.445444654119157"><ele>120.0</ele><time>2026-03-29T08:19:21Z</time></trkpt><trkpt lat="45.43844158892985" lon="10.445487293033926"><ele>120.0</ele><time>2026-03-29T08:20:19Z</time></trkpt><trkpt lat="45.43837995075369" lon="10.445507029448892"><ele>120.0</ele><time>2026-03-29T08:20:26Z</time></trkpt><trkpt lat="45.43838628451095" lon="10.445664857585534"><ele>120.0</ele><time>2026-03-29T08:23:04Z</time></trkpt><trkpt lat="45.43836229299637" lon="10.445512680557412"><ele>119.8</ele><time>2026-03-29T08:23:07Z</time></trkpt><trkpt lat="45.43838697516621" lon="10.44567131419288"><ele>119.6</ele><time>2026-03-29T08:25:23Z</time></trkpt><trkpt lat="45.438357158096274" lon="10.44551432390714"><ele>119.4</ele><time>2026-03-29T08:25:26Z</time></trkpt><trkpt lat="45.43827617749452" lon="10.445540240495987"><ele>119.2</ele><time>2026-03-29T08:25:28Z</time></trkpt><trkpt lat="45.43821077984953" lon="10.445688566098049"><ele>119.0</ele><time>2026-03-29T08:25:29Z</time></trkpt><trkpt lat="45.438133430618755" lon="10.445650956019211"><ele>119.0</ele><time>2026-03-29T08:25:30Z</time></trkpt><trkpt lat="45.43805162672758" lon="10.44563668785629"><ele>119.0</ele><time>2026-03-29T08:25:31Z</time></trkpt><trkpt lat="45.43795529765896" lon="10.4456579900734"><ele>119.0</ele><time>2026-03-29T08:25:32Z</time></trkpt><trkpt lat="45.43780585114418" lon="10.445701226087394"><ele>119.0</ele><time>2026-03-29T08:25:33Z</time></trkpt><trkpt lat="45.43765381221399" lon="10.445763754610363"><ele>119.2</ele><time>2026-03-29T08:25:34Z</time></trkpt><trkpt lat="45.43753990357778" lon="10.445818191954126"><ele>119.4</ele><time>2026-03-29T08:25:35Z</time></trkpt><trkpt lat="45.43743547742022" lon="10.44584135010766"><ele>119.6</ele><time>2026-03-29T08:25:36Z</time></trkpt><trkpt lat="45.437341115231575" lon="10.445878139986545"><ele>119.8</ele><time>2026-03-29T08:25:37Z</time></trkpt><trkpt lat="45.43724786003069" lon="10.445919815051116"><ele>120.0</ele><time>2026-03-29T08:25:38Z</time></trkpt><trkpt lat="45.43716032558796" lon="10.445982924827485"><ele>119.5</ele><time>2026-03-29T08:25:39Z</time></trkpt><trkpt lat="45.43707680491644" lon="10.44609779523344"><ele>119.0</ele><time>2026-03-29T08:25:40Z</time></trkpt><trkpt lat="45.436990447280365" lon="10.4462132407875"><ele>118.5</ele><time>2026-03-29T08:25:41Z</time></trkpt><trkpt lat="45.43691255108208" lon="10.446344128097302"><ele>118.0</ele><time>2026-03-29T08:25:42Z</time></trkpt><trkpt lat="45.43681703325803" lon="10.446466754590583"><ele>118.0</ele><time>2026-03-29T08:25:43Z</time></trkpt><trkpt lat="45.436713555952096" lon="10.446606283343511"><ele>118.0</ele><time>2026-03-29T08:25:44Z</time></trkpt><trkpt lat="45.43662449956905" lon="10.446731599911349"><ele>118.0</ele><time>2026-03-29T08:25:45Z</time></trkpt><trkpt lat="45.43652528883968" lon="10.446868026726985"><ele>118.0</ele><time>2026-03-29T08:25:46Z</time></trkpt><trkpt lat="45.436410269213404" lon="10.44700948553291"><ele>117.75</ele><time>2026-03-29T08:25:47Z</time></trkpt><trkpt lat="45.43630694235644" lon="10.447139187304847"><ele>117.5</ele><time>2026-03-29T08:25:48Z</time></trkpt><trkpt lat="45.43622466602854" lon="10.447255743870347"><ele>117.25</ele><time>2026-03-29T08:25:49Z</time></trkpt><trkpt lat="45.436144507375225" lon="10.447368533127177"><ele>117.0</ele><time>2026-03-29T08:25:50Z</time></trkpt><trkpt lat="45.43603136576947" lon="10.447488536038874"><ele>117.0</ele><time>2026-03-29T08:25:51Z</time></trkpt><trkpt lat="45.43592974614423" lon="10.447637294215694"><ele>117.0</ele><time>2026-03-29T08:25:52Z</time></trkpt><trkpt lat="45.43582343607605" lon="10.447755085889996"><ele>117.0</ele><time>2026-03-29T08:25:53Z</time></trkpt><trkpt lat="45.43569877634248" lon="10.447894895020665"><ele>117.0</ele><time>2026-03-29T08:25:54Z</time></trkpt><trkpt lat="45.435563591469474" lon="10.448053115489403"><ele>116.66666666666666</ele><time>2026-03-29T08:25:55Z</time></trkpt><trkpt lat="45.43543900650988" lon="10.448196954162938"><ele>116.33333333333333</ele><time>2026-03-29T08:25:56Z</time></trkpt><trkpt lat="45.43532162948015" lon="10.448329400174424"><ele>116.0</ele><time>2026-03-29T08:25:57Z</time></trkpt><trkpt lat="45.43521363787285" lon="10.448466078965037"><ele>116.0</ele><time>2026-03-29T08:25:58Z</time></trkpt><trkpt lat="45.43509548837507" lon="10.448619334890266"><ele>116.0</ele><time>2026-03-29T08:25:59Z</time></trkpt><trkpt lat="45.43496526788177" lon="10.4487883525108"><ele>116.0</ele><time>2026-03-29T08:26:00Z</time></trkpt><trkpt lat="45.4348372655846" lon="10.44896077161882"><ele>116.0</ele><time>2026-03-29T08:26:01Z</time></trkpt><trkpt lat="45.43471128570931" lon="10.449136926615859"><ele>116.0</ele><time>2026-03-29T08:26:02Z</time></trkpt><trkpt lat="45.43458667333472" lon="10.449321339900846"><ele>116.0</ele><time>2026-03-29T08:26:03Z</time></trkpt><trkpt lat="45.43447008678681" lon="10.449481970201315"><ele>116.25</ele><time>2026-03-29T08:26:04Z</time></trkpt><trkpt lat="45.434346967855554" lon="10.449626860215034"><ele>116.5</ele><time>2026-03-29T08:26:05Z</time></trkpt><trkpt lat="45.434270261598016" lon="10.449756151844106"><ele>116.75</ele><time>2026-03-29T08:26:06Z</time></trkpt><trkpt lat="45.4341788045549" lon="10.449848772527515"><ele>117.0</ele><time>2026-03-29T08:26:07Z</time></trkpt><trkpt lat="45.43409126155425" lon="10.449964184382518"><ele>117.0</ele><time>2026-03-29T08:26:08Z</time></trkpt><trkpt lat="45.43400435509886" lon="10.450109815809213"><ele>117.0</ele><time>2026-03-29T08:26:09Z</time></trkpt><trkpt lat="45.43388509798316" lon="10.450266262381428"><ele>117.0</ele><time>2026-03-29T08:26:10Z</time></trkpt><trkpt lat="45.433772421776816" lon="10.450410519456366"><ele>117.0</ele><time>2026-03-29T08:26:11Z</time></trkpt><trkpt lat="45.433643805258036" lon="10.450571257866674"><ele>117.0</ele><time>2026-03-29T08:26:12Z</time></trkpt><trkpt lat="45.43352217323108" lon="10.450735300603299"><ele>117.0</ele><time>2026-03-29T08:26:13Z</time></trkpt><trkpt lat="45.43345208942627" lon="10.450832493171834"><ele>117.0</ele><time>2026-03-29T08:26:14Z</time></trkpt><trkpt lat="45.43336825286307" lon="10.45094699455493"><ele>117.0</ele><time>2026-03-29T08:26:15Z</time></trkpt><trkpt lat="45.43326793820466" lon="10.451082587484933"><ele>117.0</ele><time>2026-03-29T08:26:16Z</time></trkpt><trkpt lat="45.43315943074112" lon="10.45123144547676"><ele>117.0</ele><time>2026-03-29T08:26:17Z</time></trkpt><trkpt lat="45.4330420189469" lon="10.451379351091976"><ele>117.0</ele><time>2026-03-29T08:26:18Z</time></trkpt><trkpt lat="45.43295093719338" lon="10.451504535660302"><ele>117.0</ele><time>2026-03-29T08:26:19Z</time></trkpt><trkpt lat="45.4328448988433" lon="10.451637066799838"><ele>116.75</ele><time>2026-03-29T08:26:20Z</time></trkpt><trkpt lat="45.432744603905114" lon="10.451762831981474"><ele>116.5</ele><time>2026-03-29T08:26:21Z</time></trkpt><trkpt lat="45.43265074290376" lon="10.451910512702216"><ele>116.25</ele><time>2026-03-29T08:26:22Z</time></trkpt><trkpt lat="45.43254877180811" lon="10.452052144185378"><ele>116.0</ele><time>2026-03-29T08:26:23Z</time></trkpt><trkpt lat="45.43243283799687" lon="10.452204908881676"><ele>116.0</ele><time>2026-03-29T08:26:24Z</time></trkpt><trkpt lat="45.43233659581804" lon="10.452345669920344"><ele>116.0</ele><time>2026-03-29T08:26:25Z</time></trkpt><trkpt lat="45.43223779411536" lon="10.452482305171554"><ele>116.0</ele><time>2026-03-29T08:26:26Z</time></trkpt><trkpt lat="45.43213208486047" lon="10.452652634358463"><ele>116.0</ele><time>2026-03-29T08:26:27Z</time></trkpt><trkpt lat="45.43202464088925" lon="10.45281771671359"><ele>116.0</ele><time>2026-03-29T08:26:28Z</time></trkpt><trkpt lat="45.43191504593095" lon="10.45298496041931"><ele>116.0</ele><time>2026-03-29T08:26:29Z</time></trkpt><trkpt lat="45.43180879013337" lon="10.453157349558445"><ele>116.0</ele><time>2026-03-29T08:26:30Z</time></trkpt><trkpt lat="45.43169886817207" lon="10.453304497538603"><ele>116.0</ele><time>2026-03-29T08:26:31Z</time></trkpt><trkpt lat="45.431590060789" lon="10.453458649977415"><ele>116.0</ele><time>2026-03-29T08:26:32Z</time></trkpt><trkpt lat="45.43149813225241" lon="10.453597093110938"><ele>116.0</ele><time>2026-03-29T08:26:33Z</time></trkpt><trkpt lat="45.43142925432585" lon="10.453736012144164"><ele>116.0</ele><time>2026-03-29T08:26:34Z</time></trkpt><trkpt lat="45.43136287885931" lon="10.453826063924748"><ele>115.75</ele><time>2026-03-29T08:26:35Z</time></trkpt><trkpt lat="45.43125583127086" lon="10.454007856628152"><ele>115.5</ele><time>2026-03-29T08:26:36Z</time></trkpt><trkpt lat="45.43116564931111" lon="10.454132856389794"><ele>115.25</ele><time>2026-03-29T08:26:37Z</time></trkpt><trkpt lat="45.43107399158106" lon="10.454265756263695"><ele>115.0</ele><time>2026-03-29T08:26:38Z</time></trkpt><trkpt lat="45.43099965891635" lon="10.454382045160475"><ele>115.0</ele><time>2026-03-29T08:26:39Z</time></trkpt><trkpt lat="45.43092573879452" lon="10.454485699696336"><ele>115.0</ele><time>2026-03-29T08:26:40Z</time></trkpt><trkpt lat="45.43086104146474" lon="10.45455680548005"><ele>115.0</ele><time>2026-03-29T08:26:41Z</time></trkpt><trkpt lat="45.43077189588993" lon="10.4545363154535"><ele>115.0</ele><time>2026-03-29T08:26:42Z</time></trkpt><trkpt lat="45.43068831986013" lon="10.454591277020427"><ele>115.0</ele><time>2026-03-29T08:26:43Z</time></trkpt><trkpt lat="45.43060960342876" lon="10.454681075762949"><ele>115.0</ele><time>2026-03-29T08:26:44Z</time></trkpt><trkpt lat="45.4305026053904" lon="10.454771166391057"><ele>115.0</ele><time>2026-03-29T08:26:45Z</time></trkpt><trkpt lat="45.43040455250414" lon="10.454865861075612"><ele>115.0</ele><time>2026-03-29T08:26:46Z</time></trkpt><trkpt lat="45.43030426731859" lon="10.454974408736302"><ele>115.0</ele><time>2026-03-29T08:26:47Z</time></trkpt><trkpt lat="45.430180213788496" lon="10.455110875801802"><ele>115.0</ele><time>2026-03-29T08:26:48Z</time></trkpt><trkpt lat="45.43005217896044" lon="10.45523759992311"><ele>115.0</ele><time>2026-03-29T08:26:49Z</time></trkpt><trkpt lat="45.429877025877225" lon="10.455398785740261"><ele>115.0</ele><time>2026-03-29T08:26:50Z</time></trkpt><trkpt lat="45.429738031830624" lon="10.45553361422986"><ele>115.0</ele><time>2026-03-29T08:26:51Z</time></trkpt><trkpt lat="45.42963423103134" lon="10.455635072463263"><ele>115.0</ele><time>2026-03-29T08:26:52Z</time></trkpt><trkpt lat="45.42952092837999" lon="10.455752451179563"><ele>115.0</ele><time>2026-03-29T08:26:53Z</time></trkpt><trkpt lat="45.42940815801759" lon="10.455864843774364"><ele>115.0</ele><time>2026-03-29T08:26:54Z</time></trkpt><trkpt lat="45.42929642843821" lon="10.455983710254678"><ele>115.0</ele><time>2026-03-29T08:26:55Z</time></trkpt><trkpt lat="45.42918100047012" lon="10.456093615091085"><ele>115.0</ele><time>2026-03-29T08:26:56Z</time></trkpt><trkpt lat="45.429048537078344" lon="10.456195795930284"><ele>115.0</ele><time>2026-03-29T08:26:57Z</time></trkpt><trkpt lat="45.4289246613411" lon="10.456336679736525"><ele>115.0</ele><time>2026-03-29T08:26:58Z</time></trkpt><trkpt lat="45.42880939509478" lon="10.456441885192543"><ele>115.0</ele><time>2026-03-29T08:26:59Z</time></trkpt><trkpt lat="45.428700295213844" lon="10.456542814118748"><ele>115.0</ele><time>2026-03-29T08:27:00Z</time></trkpt><trkpt lat="45.42859455894839" lon="10.456638620403686"><ele>115.0</ele><time>2026-03-29T08:27:01Z</time></trkpt><trkpt lat="45.42850373975807" lon="10.45672540981006"><ele>115.0</ele><time>2026-03-29T08:27:02Z</time></trkpt><trkpt lat="45.42841991583017" lon="10.456813195508134"><ele>115.0</ele><time>2026-03-29T08:27:03Z</time></trkpt><trkpt lat="45.428358513797846" lon="10.456872549750896"><ele>115.0</ele><time>2026-03-29T08:27:04Z</time></trkpt><trkpt lat="45.4282346759222" lon="10.456873314116148"><ele>115.0</ele><time>2026-03-29T08:27:06Z</time></trkpt><trkpt lat="45.42816800274435" lon="10.456800022582287"><ele>115.0</ele><time>2026-03-29T08:27:07Z</time></trkpt><trkpt lat="45.428076647290155" lon="10.456752375824944"><ele>115.0</ele><time>2026-03-29T08:27:08Z</time></trkpt><trkpt lat="45.42795942351447" lon="10.456688176814014"><ele>115.0</ele><time>2026-03-29T08:27:09Z</time></trkpt><trkpt lat="45.42782040623002" lon="10.456603893427918"><ele>115.0</ele><time>2026-03-29T08:27:10Z</time></trkpt><trkpt lat="45.427669234707345" lon="10.456504135279664"><ele>115.0</ele><time>2026-03-29T08:27:11Z</time></trkpt><trkpt lat="45.427516565858355" lon="10.456404940704324"><ele>115.0</ele><time>2026-03-29T08:27:12Z</time></trkpt><trkpt lat="45.42735657394453" lon="10.456304596212453"><ele>115.0</ele><time>2026-03-29T08:27:13Z</time></trkpt><trkpt lat="45.42719519895357" lon="10.456205425821803"><ele>115.0</ele><time>2026-03-29T08:27:14Z</time></trkpt><trkpt lat="45.42702073644473" lon="10.45609436236898"><ele>114.0</ele><time>2026-03-29T08:27:15Z</time></trkpt><trkpt lat="45.42686032403004" lon="10.455995516210237"><ele>113.0</ele><time>2026-03-29T08:27:16Z</time></trkpt><trkpt lat="45.42670359354608" lon="10.455897831879685"><ele>112.0</ele><time>2026-03-29T08:27:17Z</time></trkpt><trkpt lat="45.426547818287546" lon="10.455800842376973"><ele>112.0</ele><time>2026-03-29T08:27:18Z</time></trkpt><trkpt lat="45.42639722392038" lon="10.45570991157791"><ele>112.0</ele><time>2026-03-29T08:27:19Z</time></trkpt><trkpt lat="45.426246877335025" lon="10.455616778142781"><ele>112.0</ele><time>2026-03-29T08:27:20Z</time></trkpt><trkpt lat="45.42610014503425" lon="10.4555249963232"><ele>112.0</ele><time>2026-03-29T08:27:21Z</time></trkpt><trkpt lat="45.42595878246275" lon="10.45543692080052"><ele>112.0</ele><time>2026-03-29T08:27:22Z</time></trkpt><trkpt lat="45.42580381404081" lon="10.455366918766146"><ele>112.0</ele><time>2026-03-29T08:27:23Z</time></trkpt><trkpt lat="45.42565764258018" lon="10.455274593259826"><ele>112.0</ele><time>2026-03-29T08:27:24Z</time></trkpt><trkpt lat="45.42552227283484" lon="10.455187763273441"><ele>112.0</ele><time>2026-03-29T08:27:25Z</time></trkpt><trkpt lat="45.42538354175186" lon="10.455072354147154"><ele>112.0</ele><time>2026-03-29T08:27:26Z</time></trkpt><trkpt lat="45.42523565118342" lon="10.455002035002778"><ele>112.25</ele><time>2026-03-29T08:27:27Z</time></trkpt><trkpt lat="45.42510517261167" lon="10.454879892918665"><ele>112.5</ele><time>2026-03-29T08:27:28Z</time></trkpt><trkpt lat="45.4249857207029" lon="10.454805810570468"><ele>112.75</ele><time>2026-03-29T08:27:29Z</time></trkpt><trkpt lat="45.42488234358615" lon="10.454742742916983"><ele>113.0</ele><time>2026-03-29T08:27:30Z</time></trkpt><trkpt lat="45.424759091189834" lon="10.454659769174528"><ele>112.75</ele><time>2026-03-29T08:27:31Z</time></trkpt><trkpt lat="45.42462064289059" lon="10.45457162704818"><ele>112.5</ele><time>2026-03-29T08:27:32Z</time></trkpt><trkpt lat="45.424485312099634" lon="10.454484850951243"><ele>112.25</ele><time>2026-03-29T08:27:33Z</time></trkpt><trkpt lat="45.424355844951776" lon="10.454414528711423"><ele>112.0</ele><time>2026-03-29T08:27:34Z</time></trkpt><trkpt lat="45.42424477349158" lon="10.454324975320553"><ele>112.0</ele><time>2026-03-29T08:27:35Z</time></trkpt><trkpt lat="45.42416706648421" lon="10.454277311801928"><ele>111.99999999999999</ele><time>2026-03-29T08:27:36Z</time></trkpt><trkpt lat="45.42410331322408" lon="10.454254090262607"><ele>111.99999999999999</ele><time>2026-03-29T08:27:37Z</time></trkpt><trkpt lat="45.423940323447" lon="10.454258105495336"><ele>112.0</ele><time>2026-03-29T08:27:39Z</time></trkpt><trkpt lat="45.4238735138709" lon="10.454204641584635"><ele>112.0</ele><time>2026-03-29T08:27:40Z</time></trkpt><trkpt lat="45.42378325135757" lon="10.454137849926925"><ele>111.66666666666667</ele><time>2026-03-29T08:27:41Z</time></trkpt><trkpt lat="45.42365126091387" lon="10.454049892951353"><ele>111.33333333333334</ele><time>2026-03-29T08:27:42Z</time></trkpt><trkpt lat="45.42349721297461" lon="10.453948234475767"><ele>111.0</ele><time>2026-03-29T08:27:43Z</time></trkpt><trkpt lat="45.42336233954542" lon="10.453825912400612"><ele>110.66666666666666</ele><time>2026-03-29T08:27:44Z</time></trkpt><trkpt lat="45.423174393500375" lon="10.453730845786442"><ele>110.33333333333333</ele><time>2026-03-29T08:27:45Z</time></trkpt><trkpt lat="45.42297824537372" lon="10.453603593730005"><ele>110.0</ele><time>2026-03-29T08:27:46Z</time></trkpt><trkpt lat="45.42281375870709" lon="10.453479490910054"><ele>110.0</ele><time>2026-03-29T08:27:47Z</time></trkpt><trkpt lat="45.422659475527205" lon="10.453382063146856"><ele>110.0</ele><time>2026-03-29T08:27:48Z</time></trkpt><trkpt lat="45.42253501728774" lon="10.45330346941355"><ele>110.0</ele><time>2026-03-29T08:27:49Z</time></trkpt><trkpt lat="45.42241011773837" lon="10.453225884802263"><ele>110.0</ele><time>2026-03-29T08:27:50Z</time></trkpt><trkpt lat="45.42229982770174" lon="10.453159927737664"><ele>110.0</ele><time>2026-03-29T08:27:51Z</time></trkpt><trkpt lat="45.422198809355784" lon="10.453099515608997"><ele>110.0</ele><time>2026-03-29T08:27:52Z</time></trkpt><trkpt lat="45.422083359986594" lon="10.453027120239511"><ele>110.0</ele><time>2026-03-29T08:27:53Z</time></trkpt><trkpt lat="45.42195703683226" lon="10.452946819949007"><ele>110.0</ele><time>2026-03-29T08:27:54Z</time></trkpt><trkpt lat="45.42181053039766" lon="10.452859595405112"><ele>110.0</ele><time>2026-03-29T08:27:55Z</time></trkpt><trkpt lat="45.42165690211191" lon="10.452768130747655"><ele>110.0</ele><time>2026-03-29T08:27:56Z</time></trkpt><trkpt lat="45.421505990930804" lon="10.452686818290784"><ele>110.0</ele><time>2026-03-29T08:27:57Z</time></trkpt><trkpt lat="45.42138708021096" lon="10.452620874591995"><ele>109.5</ele><time>2026-03-29T08:27:58Z</time></trkpt><trkpt lat="45.421253860187136" lon="10.452516951973513"><ele>109.0</ele><time>2026-03-29T08:27:59Z</time></trkpt><trkpt lat="45.42110723688597" lon="10.452449754247635"><ele>108.5</ele><time>2026-03-29T08:28:00Z</time></trkpt><trkpt lat="45.42098778060314" lon="10.452368898732825"><ele>108.0</ele><time>2026-03-29T08:28:01Z</time></trkpt><trkpt lat="45.42085100393216" lon="10.452281568614264"><ele>108.0</ele><time>2026-03-29T08:28:02Z</time></trkpt><trkpt lat="45.42071657731778" lon="10.452167355178627"><ele>108.0</ele><time>2026-03-29T08:28:03Z</time></trkpt><trkpt lat="45.42059845243824" lon="10.45208678100318"><ele>108.0</ele><time>2026-03-29T08:28:04Z</time></trkpt><trkpt lat="45.420499211920045" lon="10.452016681214403"><ele>108.0</ele><time>2026-03-29T08:28:05Z</time></trkpt><trkpt lat="45.42040670472982" lon="10.45195133780092"><ele>108.16666666666667</ele><time>2026-03-29T08:28:06Z</time></trkpt><trkpt lat="45.42032504189273" lon="10.451893950454098"><ele>108.33333333333334</ele><time>2026-03-29T08:28:07Z</time></trkpt><trkpt lat="45.42024975815276" lon="10.451848372316377"><ele>108.5</ele><time>2026-03-29T08:28:08Z</time></trkpt><trkpt lat="45.42016924705569" lon="10.451799627493484"><ele>108.66666666666667</ele><time>2026-03-29T08:28:09Z</time></trkpt><trkpt lat="45.420094373555735" lon="10.451754295919054"><ele>108.83333333333334</ele><time>2026-03-29T08:28:10Z</time></trkpt><trkpt lat="45.42002831215073" lon="10.451714299554613"><ele>109.0</ele><time>2026-03-29T08:28:11Z</time></trkpt><trkpt lat="45.41996804639745" lon="10.451677812139188"><ele>109.0</ele><time>2026-03-29T08:28:12Z</time></trkpt><trkpt lat="45.41983981973596" lon="10.451623066634953"><ele>109.0</ele><time>2026-03-29T08:28:14Z</time></trkpt><trkpt lat="45.419751482372384" lon="10.451568998613244"><ele>109.0</ele><time>2026-03-29T08:28:15Z</time></trkpt><trkpt lat="45.41965628462111" lon="10.451489058826857"><ele>109.0</ele><time>2026-03-29T08:28:16Z</time></trkpt><trkpt lat="45.41954163361972" lon="10.451409642140177"><ele>108.5</ele><time>2026-03-29T08:28:17Z</time></trkpt><trkpt lat="45.419409664083595" lon="10.451322593281626"><ele>108.0</ele><time>2026-03-29T08:28:18Z</time></trkpt><trkpt lat="45.419288198693366" lon="10.451247106938663"><ele>107.5</ele><time>2026-03-29T08:28:19Z</time></trkpt><trkpt lat="45.41916405310884" lon="10.45119556805756"><ele>107.0</ele><time>2026-03-29T08:28:20Z</time></trkpt><trkpt lat="45.4190254736424" lon="10.451103014812187"><ele>106.66666666666666</ele><time>2026-03-29T08:28:21Z</time></trkpt><trkpt lat="45.41888885226073" lon="10.451022606986351"><ele>106.33333333333334</ele><time>2026-03-29T08:28:22Z</time></trkpt><trkpt lat="45.41873557811438" lon="10.450923955456467"><ele>106.0</ele><time>2026-03-29T08:28:23Z</time></trkpt><trkpt lat="45.418563616740386" lon="10.450812603860685"><ele>105.66666666666667</ele><time>2026-03-29T08:28:24Z</time></trkpt><trkpt lat="45.41839280179634" lon="10.450711617286647"><ele>105.33333333333334</ele><time>2026-03-29T08:28:25Z</time></trkpt><trkpt lat="45.41823701558111" lon="10.45061512561174"><ele>105.0</ele><time>2026-03-29T08:28:26Z</time></trkpt><trkpt lat="45.418077188885526" lon="10.450485398968832"><ele>104.33333333333334</ele><time>2026-03-29T08:28:27Z</time></trkpt><trkpt lat="45.41792400422708" lon="10.450385060790195"><ele>103.66666666666667</ele><time>2026-03-29T08:28:28Z</time></trkpt><trkpt lat="45.417777115591946" lon="10.450287025322602"><ele>103.0</ele><time>2026-03-29T08:28:29Z</time></trkpt><trkpt lat="45.417623149796896" lon="10.450181761456662"><ele>103.0</ele><time>2026-03-29T08:28:30Z</time></trkpt><trkpt lat="45.41748343562568" lon="10.450083146276711"><ele>103.0</ele><time>2026-03-29T08:28:31Z</time></trkpt><trkpt lat="45.4173600590643" lon="10.449994852691992"><ele>103.0</ele><time>2026-03-29T08:28:32Z</time></trkpt><trkpt lat="45.41725427396995" lon="10.449917865052436"><ele>103.0</ele><time>2026-03-29T08:28:33Z</time></trkpt><trkpt lat="45.41717328723154" lon="10.449858839884465"><ele>103.4</ele><time>2026-03-29T08:28:34Z</time></trkpt><trkpt lat="45.41709958980951" lon="10.44980512739796"><ele>103.80000000000001</ele><time>2026-03-29T08:28:35Z</time></trkpt><trkpt lat="45.41701829216987" lon="10.449745876072686"><ele>104.2</ele><time>2026-03-29T08:28:37Z</time></trkpt><trkpt lat="45.41692897164526" lon="10.449903276201201"><ele>104.6</ele><time>2026-03-29T08:28:39Z</time></trkpt><trkpt lat="45.4168854746331" lon="10.450004054763744"><ele>105.0</ele><time>2026-03-29T08:28:40Z</time></trkpt><trkpt lat="45.41680437131652" lon="10.450126508764923"><ele>105.0</ele><time>2026-03-29T08:28:41Z</time></trkpt><trkpt lat="45.416724014126245" lon="10.450280504119107"><ele>105.0</ele><time>2026-03-29T08:28:42Z</time></trkpt><trkpt lat="45.41663695525479" lon="10.450434476916264"><ele>105.0</ele><time>2026-03-29T08:28:43Z</time></trkpt><trkpt lat="45.41653675287365" lon="10.450593665509277"><ele>105.0</ele><time>2026-03-29T08:28:44Z</time></trkpt><trkpt lat="45.41643208529305" lon="10.450767028231885"><ele>105.33333333333334</ele><time>2026-03-29T08:28:45Z</time></trkpt><trkpt lat="45.416316116681536" lon="10.450949884416803"><ele>105.66666666666667</ele><time>2026-03-29T08:28:46Z</time></trkpt><trkpt lat="45.41618794815969" lon="10.451152874482908"><ele>106.0</ele><time>2026-03-29T08:28:47Z</time></trkpt><trkpt lat="45.416055287518795" lon="10.451355963771576"><ele>105.33333333333334</ele><time>2026-03-29T08:28:48Z</time></trkpt><trkpt lat="45.41592965686762" lon="10.451562757421112"><ele>104.66666666666666</ele><time>2026-03-29T08:28:49Z</time></trkpt><trkpt lat="45.41581342654223" lon="10.451757357503883"><ele>104.0</ele><time>2026-03-29T08:28:50Z</time></trkpt><trkpt lat="45.41569630959554" lon="10.451942206352046"><ele>104.0</ele><time>2026-03-29T08:28:51Z</time></trkpt><trkpt lat="45.41557898703298" lon="10.452119993024125"><ele>104.0</ele><time>2026-03-29T08:28:52Z</time></trkpt><trkpt lat="45.41546714310579" lon="10.452291683213836"><ele>104.0</ele><time>2026-03-29T08:28:53Z</time></trkpt><trkpt lat="45.41537434454864" lon="10.452444278026391"><ele>103.80000000000001</ele><time>2026-03-29T08:28:54Z</time></trkpt><trkpt lat="45.41529056929007" lon="10.452587211541369"><ele>103.60000000000001</ele><time>2026-03-29T08:28:55Z</time></trkpt><trkpt lat="45.415217853997" lon="10.452707441143428"><ele>103.4</ele><time>2026-03-29T08:28:56Z</time></trkpt><trkpt lat="45.415167801952606" lon="10.45278839175376"><ele>103.2</ele><time>2026-03-29T08:28:57Z</time></trkpt><trkpt lat="45.41512316122232" lon="10.452862363835514"><ele>103.0</ele><time>2026-03-29T08:28:58Z</time></trkpt><trkpt lat="45.4150625588815" lon="10.452968641487633"><ele>103.60000000000001</ele><time>2026-03-29T08:28:59Z</time></trkpt><trkpt lat="45.41499321758752" lon="10.45307922766404"><ele>104.2</ele><time>2026-03-29T08:29:00Z</time></trkpt><trkpt lat="45.414926464787726" lon="10.453193708992556"><ele>104.8</ele><time>2026-03-29T08:29:01Z</time></trkpt><trkpt lat="45.41487147298613" lon="10.453275655983662"><ele>105.4</ele><time>2026-03-29T08:29:02Z</time></trkpt><trkpt lat="45.41493553433805" lon="10.453424801862973"><ele>106.0</ele><time>2026-03-29T08:29:05Z</time></trkpt><trkpt lat="45.41500345894642" lon="10.453497695925826"><ele>106.0</ele><time>2026-03-29T08:29:06Z</time></trkpt><trkpt lat="45.41510350971476" lon="10.453573387809106"><ele>106.0</ele><time>2026-03-29T08:29:07Z</time></trkpt><trkpt lat="45.41520040990297" lon="10.45370047672091"><ele>106.0</ele><time>2026-03-29T08:29:08Z</time></trkpt><trkpt lat="45.41533257757826" lon="10.45380568328007"><ele>106.0</ele><time>2026-03-29T08:29:09Z</time></trkpt><trkpt lat="45.415450386088985" lon="10.453925826805834"><ele>106.0</ele><time>2026-03-29T08:29:10Z</time></trkpt><trkpt lat="45.4155639867402" lon="10.454039023725135"><ele>106.0</ele><time>2026-03-29T08:29:11Z</time></trkpt><trkpt lat="45.41567741894207" lon="10.454135360130666"><ele>106.0</ele><time>2026-03-29T08:29:12Z</time></trkpt><trkpt lat="45.415771530225854" lon="10.454226788410711"><ele>106.0</ele><time>2026-03-29T08:29:13Z</time></trkpt><trkpt lat="45.41585393070382" lon="10.454305419268671"><ele>106.0</ele><time>2026-03-29T08:29:14Z</time></trkpt><trkpt lat="45.415917713517565" lon="10.454373885912482"><ele>106.0</ele><time>2026-03-29T08:29:15Z</time></trkpt><trkpt lat="45.41596193425355" lon="10.454444623721153"><ele>106.0</ele><time>2026-03-29T08:29:16Z</time></trkpt><trkpt lat="45.41596275419347" lon="10.454626340208783"><ele>106.0</ele><time>2026-03-29T08:29:18Z</time></trkpt><trkpt lat="45.41591744716835" lon="10.454762579842999"><ele>106.0</ele><time>2026-03-29T08:29:19Z</time></trkpt><trkpt lat="45.41590425117852" lon="10.454940736939502"><ele>106.0</ele><time>2026-03-29T08:29:20Z</time></trkpt><trkpt lat="45.41587303035929" lon="10.455127360372726"><ele>106.0</ele><time>2026-03-29T08:29:21Z</time></trkpt><trkpt lat="45.415851005637485" lon="10.455319046676012"><ele>106.0</ele><time>2026-03-29T08:29:22Z</time></trkpt><trkpt lat="45.415825817782796" lon="10.455522244584303"><ele>106.0</ele><time>2026-03-29T08:29:23Z</time></trkpt><trkpt lat="45.41580794254534" lon="10.455726226251691"><ele>106.0</ele><time>2026-03-29T08:29:24Z</time></trkpt><trkpt lat="45.415780963513015" lon="10.455941145805989"><ele>106.0</ele><time>2026-03-29T08:29:25Z</time></trkpt><trkpt lat="45.41575033306009" lon="10.456166027878881"><ele>106.0</ele><time>2026-03-29T08:29:26Z</time></trkpt><trkpt lat="45.41571821235924" lon="10.456411336163056"><ele>106.0</ele><time>2026-03-29T08:29:27Z</time></trkpt><trkpt lat="45.41568873523253" lon="10.456638082228423"><ele>106.0</ele><time>2026-03-29T08:29:28Z</time></trkpt><trkpt lat="45.415657952013" lon="10.456877518756718"><ele>106.0</ele><time>2026-03-29T08:29:29Z</time></trkpt><trkpt lat="45.41563092906207" lon="10.45711536832615"><ele>105.66666666666667</ele><time>2026-03-29T08:29:30Z</time></trkpt><trkpt lat="45.41561435142652" lon="10.4573393088293"><ele>105.33333333333334</ele><time>2026-03-29T08:29:31Z</time></trkpt><trkpt lat="45.41559782958032" lon="10.457550211571055"><ele>105.0</ele><time>2026-03-29T08:29:32Z</time></trkpt><trkpt lat="45.41557121750924" lon="10.457756180593638"><ele>105.0</ele><time>2026-03-29T08:29:33Z</time></trkpt><trkpt lat="45.41555664650752" lon="10.457933803980433"><ele>105.0</ele><time>2026-03-29T08:29:34Z</time></trkpt><trkpt lat="45.415545739393195" lon="10.458141877458289"><ele>105.0</ele><time>2026-03-29T08:29:35Z</time></trkpt><trkpt lat="45.415531479065415" lon="10.458382519544697"><ele>105.0</ele><time>2026-03-29T08:29:36Z</time></trkpt><trkpt lat="45.415514647807534" lon="10.458646472276477"><ele>104.66666666666666</ele><time>2026-03-29T08:29:37Z</time></trkpt><trkpt lat="45.415502294499454" lon="10.458887863238083"><ele>104.33333333333333</ele><time>2026-03-29T08:29:38Z</time></trkpt><trkpt lat="45.415498254165136" lon="10.459108054450182"><ele>104.0</ele><time>2026-03-29T08:29:39Z</time></trkpt><trkpt lat="45.41548670366405" lon="10.459356316576189"><ele>104.0</ele><time>2026-03-29T08:29:40Z</time></trkpt><trkpt lat="45.41547530682312" lon="10.45961684737499"><ele>104.0</ele><time>2026-03-29T08:29:41Z</time></trkpt><trkpt lat="45.415464454978" lon="10.459860663694647"><ele>104.0</ele><time>2026-03-29T08:29:42Z</time></trkpt><trkpt lat="45.415456888603664" lon="10.460105921748706"><ele>104.0</ele><time>2026-03-29T08:29:43Z</time></trkpt><trkpt lat="45.415451591292296" lon="10.460340234773337"><ele>104.0</ele><time>2026-03-29T08:29:44Z</time></trkpt><trkpt lat="45.4154404877354" lon="10.460572400030651"><ele>104.0</ele><time>2026-03-29T08:29:45Z</time></trkpt><trkpt lat="45.41543150040695" lon="10.460796847064321"><ele>104.0</ele><time>2026-03-29T08:29:46Z</time></trkpt><trkpt lat="45.41541764150682" lon="10.461003942697689"><ele>104.0</ele><time>2026-03-29T08:29:47Z</time></trkpt><trkpt lat="45.415407086575556" lon="10.461217493936248"><ele>104.0</ele><time>2026-03-29T08:29:48Z</time></trkpt><trkpt lat="45.41539663481848" lon="10.461439272488084"><ele>104.0</ele><time>2026-03-29T08:29:49Z</time></trkpt><trkpt lat="45.4153903930749" lon="10.4616397030321"><ele>104.0</ele><time>2026-03-29T08:29:50Z</time></trkpt><trkpt lat="45.41538481600099" lon="10.46182939256028"><ele>104.0</ele><time>2026-03-29T08:29:51Z</time></trkpt><trkpt lat="45.41537443165956" lon="10.46203794008588"><ele>104.0</ele><time>2026-03-29T08:29:52Z</time></trkpt><trkpt lat="45.41536585344937" lon="10.46225536389368"><ele>104.0</ele><time>2026-03-29T08:29:53Z</time></trkpt><trkpt lat="45.41535784625458" lon="10.46246014936475"><ele>104.0</ele><time>2026-03-29T08:29:54Z</time></trkpt><trkpt lat="45.41534728091313" lon="10.46265466582991"><ele>104.0</ele><time>2026-03-29T08:29:55Z</time></trkpt><trkpt lat="45.41534744641902" lon="10.46285213022392"><ele>104.0</ele><time>2026-03-29T08:29:56Z</time></trkpt><trkpt lat="45.415343891141774" lon="10.463027978840708"><ele>104.25</ele><time>2026-03-29T08:29:57Z</time></trkpt><trkpt lat="45.41534335154175" lon="10.463206530895315"><ele>104.5</ele><time>2026-03-29T08:29:58Z</time></trkpt><trkpt lat="45.415358937752195" lon="10.463421353685968"><ele>104.75</ele><time>2026-03-29T08:29:59Z</time></trkpt><trkpt lat="45.41537651647702" lon="10.463651713130746"><ele>105.0</ele><time>2026-03-29T08:30:00Z</time></trkpt><trkpt lat="45.41539827129241" lon="10.463857413668457"><ele>105.75</ele><time>2026-03-29T08:30:01Z</time></trkpt><trkpt lat="45.415408547272605" lon="10.46404811329944"><ele>106.5</ele><time>2026-03-29T08:30:02Z</time></trkpt><trkpt lat="45.41542195070865" lon="10.46421618813662"><ele>107.25</ele><time>2026-03-29T08:30:03Z</time></trkpt><trkpt lat="45.415435269867025" lon="10.464364907964914"><ele>108.0</ele><time>2026-03-29T08:30:04Z</time></trkpt><trkpt lat="45.41545323519828" lon="10.464531421110639"><ele>108.33333333333334</ele><time>2026-03-29T08:30:05Z</time></trkpt><trkpt lat="45.4154760641561" lon="10.464732983820426"><ele>108.66666666666667</ele><time>2026-03-29T08:30:06Z</time></trkpt><trkpt lat="45.415497759732204" lon="10.464969340389361"><ele>109.0</ele><time>2026-03-29T08:30:07Z</time></trkpt><trkpt lat="45.415520826194225" lon="10.465236580445948"><ele>108.33333333333334</ele><time>2026-03-29T08:30:08Z</time></trkpt><trkpt lat="45.415532893071514" lon="10.46550111495408"><ele>107.66666666666666</ele><time>2026-03-29T08:30:09Z</time></trkpt><trkpt lat="45.415547675295805" lon="10.465758296163683"><ele>107.0</ele><time>2026-03-29T08:30:10Z</time></trkpt><trkpt lat="45.41555107860394" lon="10.465996846057445"><ele>107.0</ele><time>2026-03-29T08:30:11Z</time></trkpt><trkpt lat="45.41556304590194" lon="10.466203523276608"><ele>107.0</ele><time>2026-03-29T08:30:12Z</time></trkpt><trkpt lat="45.415581765100264" lon="10.46646154473617"><ele>107.0</ele><time>2026-03-29T08:30:13Z</time></trkpt><trkpt lat="45.41558902205559" lon="10.46670002626533"><ele>107.0</ele><time>2026-03-29T08:30:14Z</time></trkpt><trkpt lat="45.41558312809586" lon="10.46694895176072"><ele>107.0</ele><time>2026-03-29T08:30:15Z</time></trkpt><trkpt lat="45.41557546794157" lon="10.467204990045579"><ele>107.0</ele><time>2026-03-29T08:30:16Z</time></trkpt><trkpt lat="45.415564109436055" lon="10.467399284789915"><ele>107.0</ele><time>2026-03-29T08:30:17Z</time></trkpt><trkpt lat="45.41554765157246" lon="10.467633052997005"><ele>107.0</ele><time>2026-03-29T08:30:18Z</time></trkpt><trkpt lat="45.4155198474888" lon="10.467883124013936"><ele>107.0</ele><time>2026-03-29T08:30:19Z</time></trkpt><trkpt lat="45.415483544155656" lon="10.468150867345829"><ele>107.0</ele><time>2026-03-29T08:30:20Z</time></trkpt><trkpt lat="45.41545302692289" lon="10.468390139363876"><ele>107.0</ele><time>2026-03-29T08:30:21Z</time></trkpt><trkpt lat="45.41542113645668" lon="10.468634591284012"><ele>107.0</ele><time>2026-03-29T08:30:22Z</time></trkpt><trkpt lat="45.41540672626685" lon="10.468889540635148"><ele>107.0</ele><time>2026-03-29T08:30:23Z</time></trkpt><trkpt lat="45.415378921401974" lon="10.469113194945512"><ele>107.0</ele><time>2026-03-29T08:30:24Z</time></trkpt><trkpt lat="45.4153529467312" lon="10.469359214696105"><ele>107.0</ele><time>2026-03-29T08:30:25Z</time></trkpt><trkpt lat="45.41532713205695" lon="10.469629232299814"><ele>107.33333333333333</ele><time>2026-03-29T08:30:26Z</time></trkpt><trkpt lat="45.415296339300504" lon="10.469880584376416"><ele>107.66666666666666</ele><time>2026-03-29T08:30:27Z</time></trkpt><trkpt lat="45.415270118543184" lon="10.470079780132817"><ele>108.0</ele><time>2026-03-29T08:30:28Z</time></trkpt><trkpt lat="45.41525163970788" lon="10.47028175677716"><ele>108.66666666666666</ele><time>2026-03-29T08:30:29Z</time></trkpt><trkpt lat="45.41522805786347" lon="10.470503959501281"><ele>109.33333333333333</ele><time>2026-03-29T08:30:30Z</time></trkpt><trkpt lat="45.41520786773577" lon="10.470723675170552"><ele>110.0</ele><time>2026-03-29T08:30:31Z</time></trkpt><trkpt lat="45.415187887993845" lon="10.470940351108053"><ele>110.0</ele><time>2026-03-29T08:30:32Z</time></trkpt><trkpt lat="45.41517210542793" lon="10.471126568915924"><ele>110.0</ele><time>2026-03-29T08:30:33Z</time></trkpt><trkpt lat="45.41515687264457" lon="10.471298205147923"><ele>110.0</ele><time>2026-03-29T08:30:34Z</time></trkpt><trkpt lat="45.41514177160891" lon="10.471466162702914"><ele>110.0</ele><time>2026-03-29T08:30:35Z</time></trkpt><trkpt lat="45.41512767302187" lon="10.471649547946823"><ele>110.2</ele><time>2026-03-29T08:30:36Z</time></trkpt><trkpt lat="45.41511439434678" lon="10.47180724967788"><ele>110.4</ele><time>2026-03-29T08:30:37Z</time></trkpt><trkpt lat="45.415104645216736" lon="10.471921384788553"><ele>110.6</ele><time>2026-03-29T08:30:38Z</time></trkpt><trkpt lat="45.41509277558596" lon="10.472016724900564"><ele>110.8</ele><time>2026-03-29T08:30:39Z</time></trkpt><trkpt lat="45.41526036071637" lon="10.47206932857666"><ele>111.0</ele><time>2026-03-29T08:30:44Z</time></trkpt><trkpt lat="45.415367798401846" lon="10.472100650753276"><ele>111.0</ele><time>2026-03-29T08:30:45Z</time></trkpt><trkpt lat="45.41548855404921" lon="10.472111174954406"><ele>111.0</ele><time>2026-03-29T08:30:46Z</time></trkpt><trkpt lat="45.41562838561524" lon="10.472093003028027"><ele>111.0</ele><time>2026-03-29T08:30:47Z</time></trkpt><trkpt lat="45.415762875403644" lon="10.47212688417083"><ele>111.0</ele><time>2026-03-29T08:30:48Z</time></trkpt><trkpt lat="45.41590234051789" lon="10.47214003944485"><ele>111.0</ele><time>2026-03-29T08:30:49Z</time></trkpt><trkpt lat="45.41603805430075" lon="10.472155530244741"><ele>111.0</ele><time>2026-03-29T08:30:50Z</time></trkpt><trkpt lat="45.416188324515836" lon="10.472150597538926"><ele>111.0</ele><time>2026-03-29T08:30:51Z</time></trkpt><trkpt lat="45.41631694690978" lon="10.472167385034655"><ele>111.0</ele><time>2026-03-29T08:30:52Z</time></trkpt><trkpt lat="45.41645160838525" lon="10.472176945182508"><ele>111.0</ele><time>2026-03-29T08:30:53Z</time></trkpt><trkpt lat="45.416609780854735" lon="10.472216449545066"><ele>111.0</ele><time>2026-03-29T08:30:54Z</time></trkpt><trkpt lat="45.41676316451844" lon="10.47222586971904"><ele>111.0</ele><time>2026-03-29T08:30:55Z</time></trkpt><trkpt lat="45.4169245098965" lon="10.472243308038864"><ele>111.0</ele><time>2026-03-29T08:30:56Z</time></trkpt><trkpt lat="45.4170841417695" lon="10.472263367484457"><ele>111.0</ele><time>2026-03-29T08:30:57Z</time></trkpt><trkpt lat="45.41725391404754" lon="10.472279013264462"><ele>111.0</ele><time>2026-03-29T08:30:58Z</time></trkpt><trkpt lat="45.41742795315851" lon="10.472303847146565"><ele>111.33333333333334</ele><time>2026-03-29T08:30:59Z</time></trkpt><trkpt lat="45.417592153824295" lon="10.472329402211146"><ele>111.66666666666667</ele><time>2026-03-29T08:31:00Z</time></trkpt><trkpt lat="45.417756286775486" lon="10.47235452370481"><ele>112.0</ele><time>2026-03-29T08:31:01Z</time></trkpt><trkpt lat="45.41791484647497" lon="10.472376836243164"><ele>112.0</ele><time>2026-03-29T08:31:02Z</time></trkpt><trkpt lat="45.41806854659062" lon="10.472400137209444"><ele>112.0</ele><time>2026-03-29T08:31:03Z</time></trkpt><trkpt lat="45.41821769768801" lon="10.472422193743158"><ele>112.0</ele><time>2026-03-29T08:31:04Z</time></trkpt><trkpt lat="45.41838092463719" lon="10.472442043543658"><ele>112.0</ele><time>2026-03-29T08:31:05Z</time></trkpt><trkpt lat="45.41855090266089" lon="10.47245051082044"><ele>112.0</ele><time>2026-03-29T08:31:06Z</time></trkpt><trkpt lat="45.4187242236685" lon="10.472466267268873"><ele>112.0</ele><time>2026-03-29T08:31:07Z</time></trkpt><trkpt lat="45.41888971577778" lon="10.472480476932475"><ele>111.75</ele><time>2026-03-29T08:31:08Z</time></trkpt><trkpt lat="45.41902985930643" lon="10.472498948097574"><ele>111.5</ele><time>2026-03-29T08:31:09Z</time></trkpt><trkpt lat="45.41915644900947" lon="10.472519221925848"><ele>111.25</ele><time>2026-03-29T08:31:10Z</time></trkpt><trkpt lat="45.419256763180194" lon="10.472534700151735"><ele>111.0</ele><time>2026-03-29T08:31:11Z</time></trkpt><trkpt lat="45.41936467248599" lon="10.47253724049372"><ele>111.0</ele><time>2026-03-29T08:31:12Z</time></trkpt><trkpt lat="45.41944404526166" lon="10.47256128316039"><ele>111.0</ele><time>2026-03-29T08:31:13Z</time></trkpt><trkpt lat="45.4195123787002" lon="10.472599445094273"><ele>111.0</ele><time>2026-03-29T08:31:15Z</time></trkpt><trkpt lat="45.419452027728894" lon="10.47279555929894"><ele>111.0</ele><time>2026-03-29T08:31:18Z</time></trkpt><trkpt lat="45.41942453792808" lon="10.472948703038544"><ele>111.0</ele><time>2026-03-29T08:31:19Z</time></trkpt><trkpt lat="45.41938008804213" lon="10.473095455401529"><ele>111.0</ele><time>2026-03-29T08:31:20Z</time></trkpt><trkpt lat="45.41934178618529" lon="10.473244738137742"><ele>111.0</ele><time>2026-03-29T08:31:21Z</time></trkpt><trkpt lat="45.419306193926445" lon="10.47338101107663"><ele>111.0</ele><time>2026-03-29T08:31:22Z</time></trkpt><trkpt lat="45.41926701399698" lon="10.473519585474216"><ele>111.0</ele><time>2026-03-29T08:31:23Z</time></trkpt><trkpt lat="45.41922964710802" lon="10.473678160435067"><ele>111.0</ele><time>2026-03-29T08:31:24Z</time></trkpt><trkpt lat="45.419192006227945" lon="10.473856192092553"><ele>111.0</ele><time>2026-03-29T08:31:25Z</time></trkpt><trkpt lat="45.41914642298702" lon="10.474046110770223"><ele>111.0</ele><time>2026-03-29T08:31:26Z</time></trkpt><trkpt lat="45.41909794802376" lon="10.474239902616654"><ele>111.0</ele><time>2026-03-29T08:31:27Z</time></trkpt><trkpt lat="45.419049479476804" lon="10.474439286424161"><ele>111.0</ele><time>2026-03-29T08:31:28Z</time></trkpt><trkpt lat="45.41900379026196" lon="10.474646916381412"><ele>111.0</ele><time>2026-03-29T08:31:29Z</time></trkpt><trkpt lat="45.418960777856654" lon="10.474854333867537"><ele>111.0</ele><time>2026-03-29T08:31:30Z</time></trkpt><trkpt lat="45.41892117915258" lon="10.475066866420294"><ele>111.0</ele><time>2026-03-29T08:31:31Z</time></trkpt><trkpt lat="45.41890025044813" lon="10.475260878926715"><ele>111.0</ele><time>2026-03-29T08:31:32Z</time></trkpt><trkpt lat="45.41888863764621" lon="10.475446444500864"><ele>111.5</ele><time>2026-03-29T08:31:33Z</time></trkpt><trkpt lat="45.4188843613529" lon="10.475640242988092"><ele>112.0</ele><time>2026-03-29T08:31:34Z</time></trkpt><trkpt lat="45.41888280629613" lon="10.475837866014189"><ele>112.5</ele><time>2026-03-29T08:31:35Z</time></trkpt><trkpt lat="45.41885375969236" lon="10.476035566260427"><ele>113.0</ele><time>2026-03-29T08:31:36Z</time></trkpt><trkpt lat="45.418858018413815" lon="10.476212755926369"><ele>113.4</ele><time>2026-03-29T08:31:37Z</time></trkpt><trkpt lat="45.41882808967241" lon="10.476358531907309"><ele>113.80000000000001</ele><time>2026-03-29T08:31:38Z</time></trkpt><trkpt lat="45.418794694211925" lon="10.476475875237684"><ele>114.2</ele><time>2026-03-29T08:31:39Z</time></trkpt><trkpt lat="45.41874313788312" lon="10.47657618589865"><ele>114.6</ele><time>2026-03-29T08:31:40Z</time></trkpt><trkpt lat="45.418674439045304" lon="10.47666863406497"><ele>115.0</ele><time>2026-03-29T08:31:41Z</time></trkpt><trkpt lat="45.418626361315646" lon="10.476752529365413"><ele>115.0</ele><time>2026-03-29T08:31:42Z</time></trkpt><trkpt lat="45.41862373429128" lon="10.476871377926875"><ele>115.0</ele><time>2026-03-29T08:31:43Z</time></trkpt><trkpt lat="45.41862453103803" lon="10.477024413244454"><ele>115.0</ele><time>2026-03-29T08:31:44Z</time></trkpt><trkpt lat="45.418589174988746" lon="10.477176483577566"><ele>115.0</ele><time>2026-03-29T08:31:45Z</time></trkpt><trkpt lat="45.41850722042079" lon="10.477304114111634"><ele>115.0</ele><time>2026-03-29T08:31:46Z</time></trkpt><trkpt lat="45.41842195635753" lon="10.47745530027157"><ele>116.25</ele><time>2026-03-29T08:31:47Z</time></trkpt><trkpt lat="45.41832992731972" lon="10.477617618179037"><ele>117.5</ele><time>2026-03-29T08:31:48Z</time></trkpt><trkpt lat="45.418229989628074" lon="10.477750069867492"><ele>118.75</ele><time>2026-03-29T08:31:49Z</time></trkpt><trkpt lat="45.418147355047665" lon="10.477875359445617"><ele>120.0</ele><time>2026-03-29T08:31:50Z</time></trkpt><trkpt lat="45.41808655142875" lon="10.47804521464042"><ele>119.5</ele><time>2026-03-29T08:31:51Z</time></trkpt><trkpt lat="45.41803582078218" lon="10.478229558250723"><ele>119.0</ele><time>2026-03-29T08:31:52Z</time></trkpt><trkpt lat="45.41799740430579" lon="10.47843369340203"><ele>118.5</ele><time>2026-03-29T08:31:53Z</time></trkpt><trkpt lat="45.417945209204866" lon="10.478626485398772"><ele>118.0</ele><time>2026-03-29T08:31:54Z</time></trkpt><trkpt lat="45.417893433477275" lon="10.478828554503599"><ele>119.25</ele><time>2026-03-29T08:31:55Z</time></trkpt><trkpt lat="45.41784871907594" lon="10.479011049643502"><ele>120.5</ele><time>2026-03-29T08:31:56Z</time></trkpt><trkpt lat="45.4178151842318" lon="10.47917288420316"><ele>121.75</ele><time>2026-03-29T08:31:57Z</time></trkpt><trkpt lat="45.41781579158555" lon="10.479329807736498"><ele>123.0</ele><time>2026-03-29T08:31:58Z</time></trkpt><trkpt lat="45.417856667259144" lon="10.47948394896031"><ele>122.75</ele><time>2026-03-29T08:31:59Z</time></trkpt><trkpt lat="45.41791495200759" lon="10.479645754643888"><ele>122.5</ele><time>2026-03-29T08:32:00Z</time></trkpt><trkpt lat="45.41798547235663" lon="10.479811167273112"><ele>122.25</ele><time>2026-03-29T08:32:01Z</time></trkpt><trkpt lat="45.418047571417354" lon="10.479979768284526"><ele>122.0</ele><time>2026-03-29T08:32:02Z</time></trkpt><trkpt lat="45.4180940811119" lon="10.480160620476616"><ele>123.25</ele><time>2026-03-29T08:32:03Z</time></trkpt><trkpt lat="45.418147860073766" lon="10.480350946111862"><ele>124.5</ele><time>2026-03-29T08:32:04Z</time></trkpt><trkpt lat="45.41819789922463" lon="10.480532120485579"><ele>125.75</ele><time>2026-03-29T08:32:05Z</time></trkpt><trkpt lat="45.418266961526705" lon="10.480687297908743"><ele>127.0</ele><time>2026-03-29T08:32:06Z</time></trkpt><trkpt lat="45.41835761320273" lon="10.480806049737646"><ele>127.0</ele><time>2026-03-29T08:32:07Z</time></trkpt><trkpt lat="45.41845687330312" lon="10.480892365263456"><ele>126.99999999999999</ele><time>2026-03-29T08:32:08Z</time></trkpt><trkpt lat="45.418538934144394" lon="10.48098967088643"><ele>126.99999999999999</ele><time>2026-03-29T08:32:09Z</time></trkpt><trkpt lat="45.41861425186277" lon="10.481074804215366"><ele>127.0</ele><time>2026-03-29T08:32:10Z</time></trkpt><trkpt lat="45.4186778744548" lon="10.481161860766674"><ele>127.0</ele><time>2026-03-29T08:32:11Z</time></trkpt><trkpt lat="45.418718090611186" lon="10.481254778336599"><ele>126.39999999999999</ele><time>2026-03-29T08:32:12Z</time></trkpt><trkpt lat="45.41870072000103" lon="10.481466569174556"><ele>125.79999999999998</ele><time>2026-03-29T08:32:14Z</time></trkpt><trkpt lat="45.41866361865043" lon="10.481595398820279"><ele>125.2</ele><time>2026-03-29T08:32:15Z</time></trkpt><trkpt lat="45.41864649410336" lon="10.481705284068354"><ele>124.6</ele><time>2026-03-29T08:32:16Z</time></trkpt><trkpt lat="45.418590708963954" lon="10.481823136899159"><ele>124.0</ele><time>2026-03-29T08:32:18Z</time></trkpt><trkpt lat="45.41868622275954" lon="10.481966048042272"><ele>124.00000000000001</ele><time>2026-03-29T08:32:20Z</time></trkpt><trkpt lat="45.41874788600283" lon="10.482029877958965"><ele>124.0</ele><time>2026-03-29T08:32:21Z</time></trkpt><trkpt lat="45.41878664531198" lon="10.482115007240646"><ele>124.0</ele><time>2026-03-29T08:32:22Z</time></trkpt><trkpt lat="45.41876881066068" lon="10.482253442598676"><ele>124.0</ele><time>2026-03-29T08:32:23Z</time></trkpt><trkpt lat="45.41877446260206" lon="10.482394717561977"><ele>124.00000000000001</ele><time>2026-03-29T08:32:24Z</time></trkpt><trkpt lat="45.41877789594822" lon="10.482534651730232"><ele>124.0</ele><time>2026-03-29T08:32:25Z</time></trkpt><trkpt lat="45.418781228604935" lon="10.482670481110016"><ele>124.2</ele><time>2026-03-29T08:32:26Z</time></trkpt><trkpt lat="45.41878404396721" lon="10.482787701508723"><ele>124.4</ele><time>2026-03-29T08:32:27Z</time></trkpt><trkpt lat="45.418801678619104" lon="10.482904578439822"><ele>124.6</ele><time>2026-03-29T08:32:28Z</time></trkpt><trkpt lat="45.41878821479725" lon="10.483014465381247"><ele>124.8</ele><time>2026-03-29T08:32:29Z</time></trkpt><trkpt lat="45.41878922285462" lon="10.483107882781937"><ele>125.0</ele><time>2026-03-29T08:32:30Z</time></trkpt><trkpt lat="45.418957849371196" lon="10.483180457448844"><ele>125.0</ele><time>2026-03-29T08:32:31Z</time></trkpt><trkpt lat="45.41903666272641" lon="10.48326598216379"><ele>125.0</ele><time>2026-03-29T08:32:32Z</time></trkpt><trkpt lat="45.419123646437" lon="10.483349990809456"><ele>125.0</ele><time>2026-03-29T08:32:33Z</time></trkpt><trkpt lat="45.41921512876931" lon="10.48342066373203"><ele>125.0</ele><time>2026-03-29T08:32:34Z</time></trkpt><trkpt lat="45.4192818981213" lon="10.483514297733992"><ele>125.0</ele><time>2026-03-29T08:32:35Z</time></trkpt><trkpt lat="45.41933128015781" lon="10.483611165816097"><ele>124.99999999999999</ele><time>2026-03-29T08:32:36Z</time></trkpt><trkpt lat="45.41936471427357" lon="10.483697154070146"><ele>125.0</ele><time>2026-03-29T08:32:37Z</time></trkpt><trkpt lat="45.419376682335404" lon="10.48386036143268"><ele>125.0</ele><time>2026-03-29T08:32:39Z</time></trkpt><trkpt lat="45.41935375063891" lon="10.483965137287694"><ele>125.0</ele><time>2026-03-29T08:32:40Z</time></trkpt><trkpt lat="45.419335077236255" lon="10.484080549248414"><ele>124.99999999999999</ele><time>2026-03-29T08:32:41Z</time></trkpt><trkpt lat="45.4193184158508" lon="10.484216902408336"><ele>125.0</ele><time>2026-03-29T08:32:42Z</time></trkpt><trkpt lat="45.419309045445566" lon="10.48436180806192"><ele>125.6</ele><time>2026-03-29T08:32:43Z</time></trkpt><trkpt lat="45.41931720123198" lon="10.484495157232626"><ele>126.2</ele><time>2026-03-29T08:32:44Z</time></trkpt><trkpt lat="45.41935166662813" lon="10.48461168776981"><ele>126.80000000000001</ele><time>2026-03-29T08:32:45Z</time></trkpt><trkpt lat="45.41941573759863" lon="10.484716896828532"><ele>127.4</ele><time>2026-03-29T08:32:46Z</time></trkpt><trkpt lat="45.41949970614497" lon="10.484832499487732"><ele>128.0</ele><time>2026-03-29T08:32:47Z</time></trkpt><trkpt lat="45.41959347814276" lon="10.484950401505644"><ele>128.0</ele><time>2026-03-29T08:32:48Z</time></trkpt><trkpt lat="45.41970584383014" lon="10.485063997877727"><ele>128.0</ele><time>2026-03-29T08:32:49Z</time></trkpt><trkpt lat="45.41983729384563" lon="10.48517881355054"><ele>128.0</ele><time>2026-03-29T08:32:50Z</time></trkpt><trkpt lat="45.41997628082098" lon="10.485284571271551"><ele>128.0</ele><time>2026-03-29T08:32:51Z</time></trkpt><trkpt lat="45.42012127051365" lon="10.485373843564922"><ele>128.0</ele><time>2026-03-29T08:32:52Z</time></trkpt><trkpt lat="45.420269561256376" lon="10.485445646713245"><ele>128.0</ele><time>2026-03-29T08:32:53Z</time></trkpt><trkpt lat="45.42040662824265" lon="10.485492697054765"><ele>130.75</ele><time>2026-03-29T08:32:54Z</time></trkpt><trkpt lat="45.42053066820242" lon="10.485507349829648"><ele>133.5</ele><time>2026-03-29T08:32:55Z</time></trkpt><trkpt lat="45.42066862552936" lon="10.485512966374014"><ele>136.25</ele><time>2026-03-29T08:32:56Z</time></trkpt><trkpt lat="45.42082057135317" lon="10.485518010901718"><ele>139.0</ele><time>2026-03-29T08:32:57Z</time></trkpt><trkpt lat="45.42097054694329" lon="10.485521275830255"><ele>139.0</ele><time>2026-03-29T08:32:58Z</time></trkpt><trkpt lat="45.42111491010772" lon="10.485523635661798"><ele>139.0</ele><time>2026-03-29T08:32:59Z</time></trkpt><trkpt lat="45.42124473228014" lon="10.485530077920643"><ele>139.0</ele><time>2026-03-29T08:33:00Z</time></trkpt><trkpt lat="45.42137008651658" lon="10.485545951905051"><ele>139.0</ele><time>2026-03-29T08:33:01Z</time></trkpt><trkpt lat="45.42152471202819" lon="10.485568457680086"><ele>139.25</ele><time>2026-03-29T08:33:02Z</time></trkpt><trkpt lat="45.42166812929012" lon="10.485619094539583"><ele>139.5</ele><time>2026-03-29T08:33:03Z</time></trkpt><trkpt lat="45.421797730402" lon="10.485656021983353"><ele>139.75</ele><time>2026-03-29T08:33:04Z</time></trkpt><trkpt lat="45.421920172209624" lon="10.485702123657186"><ele>140.0</ele><time>2026-03-29T08:33:05Z</time></trkpt><trkpt lat="45.42201133757869" lon="10.485791311406336"><ele>140.0</ele><time>2026-03-29T08:33:06Z</time></trkpt><trkpt lat="45.42209943019863" lon="10.485868701763845"><ele>140.0</ele><time>2026-03-29T08:33:07Z</time></trkpt><trkpt lat="45.42219190734937" lon="10.485943825392342"><ele>140.0</ele><time>2026-03-29T08:33:08Z</time></trkpt><trkpt lat="45.42225941863192" lon="10.48604312559158"><ele>140.0</ele><time>2026-03-29T08:33:09Z</time></trkpt><trkpt lat="45.42231894760366" lon="10.486159364627015"><ele>140.0</ele><time>2026-03-29T08:33:10Z</time></trkpt><trkpt lat="45.42237773954146" lon="10.486292306921834"><ele>141.0</ele><time>2026-03-29T08:33:11Z</time></trkpt><trkpt lat="45.42239037996749" lon="10.486449026554356"><ele>142.0</ele><time>2026-03-29T08:33:12Z</time></trkpt><trkpt lat="45.42239166616725" lon="10.486611356951647"><ele>143.0</ele><time>2026-03-29T08:33:13Z</time></trkpt><trkpt lat="45.42239447862149" lon="10.486792424898232"><ele>144.0</ele><time>2026-03-29T08:33:14Z</time></trkpt><trkpt lat="45.42240193604312" lon="10.48696282369067"><ele>144.75</ele><time>2026-03-29T08:33:15Z</time></trkpt><trkpt lat="45.422372162265" lon="10.487150952521615"><ele>145.5</ele><time>2026-03-29T08:33:16Z</time></trkpt><trkpt lat="45.42235734128938" lon="10.487342404412194"><ele>146.25</ele><time>2026-03-29T08:33:17Z</time></trkpt><trkpt lat="45.422369777465924" lon="10.487521941893563"><ele>147.0</ele><time>2026-03-29T08:33:18Z</time></trkpt><trkpt lat="45.42238866970094" lon="10.487691318621959"><ele>147.0</ele><time>2026-03-29T08:33:19Z</time></trkpt><trkpt lat="45.422423560931186" lon="10.48785286368879"><ele>147.0</ele><time>2026-03-29T08:33:20Z</time></trkpt><trkpt lat="45.42248234628363" lon="10.48800810394966"><ele>147.0</ele><time>2026-03-29T08:33:21Z</time></trkpt><trkpt lat="45.42253735840169" lon="10.488141668459676"><ele>147.0</ele><time>2026-03-29T08:33:22Z</time></trkpt><trkpt lat="45.42259495501473" lon="10.48823369728033"><ele>147.0</ele><time>2026-03-29T08:33:23Z</time></trkpt><trkpt lat="45.422673921598665" lon="10.48832047433632"><ele>147.75</ele><time>2026-03-29T08:33:24Z</time></trkpt><trkpt lat="45.42278142811958" lon="10.488408343899712"><ele>148.5</ele><time>2026-03-29T08:33:25Z</time></trkpt><trkpt lat="45.42291502511666" lon="10.488509125005278"><ele>149.25</ele><time>2026-03-29T08:33:26Z</time></trkpt><trkpt lat="45.42304065971842" lon="10.488646621089762"><ele>150.0</ele><time>2026-03-29T08:33:27Z</time></trkpt><trkpt lat="45.423180962741334" lon="10.488770628579392"><ele>151.0</ele><time>2026-03-29T08:33:28Z</time></trkpt><trkpt lat="45.42331767502424" lon="10.488889731571044"><ele>152.0</ele><time>2026-03-29T08:33:29Z</time></trkpt><trkpt lat="45.4234621745397" lon="10.488993547061993"><ele>153.0</ele><time>2026-03-29T08:33:30Z</time></trkpt><trkpt lat="45.42357421699026" lon="10.489092579639777"><ele>153.0</ele><time>2026-03-29T08:33:31Z</time></trkpt><trkpt lat="45.423678027319454" lon="10.489188270609214"><ele>153.0</ele><time>2026-03-29T08:33:32Z</time></trkpt><trkpt lat="45.42379344598413" lon="10.48930419712098"><ele>153.0</ele><time>2026-03-29T08:33:33Z</time></trkpt><trkpt lat="45.42388654830317" lon="10.48941978874526"><ele>153.0</ele><time>2026-03-29T08:33:34Z</time></trkpt><trkpt lat="45.423968610173645" lon="10.48953679742598"><ele>152.75</ele><time>2026-03-29T08:33:35Z</time></trkpt><trkpt lat="45.42404059580163" lon="10.489653604044818"><ele>152.5</ele><time>2026-03-29T08:33:36Z</time></trkpt><trkpt lat="45.424141633668924" lon="10.48978990761042"><ele>152.25</ele><time>2026-03-29T08:33:37Z</time></trkpt><trkpt lat="45.4242682030531" lon="10.489950423964446"><ele>152.0</ele><time>2026-03-29T08:33:38Z</time></trkpt><trkpt lat="45.42438981411575" lon="10.49010667290519"><ele>152.0</ele><time>2026-03-29T08:33:39Z</time></trkpt><trkpt lat="45.424522181322" lon="10.49028849200475"><ele>152.0</ele><time>2026-03-29T08:33:40Z</time></trkpt><trkpt lat="45.424626103201454" lon="10.490435285057229"><ele>152.0</ele><time>2026-03-29T08:33:41Z</time></trkpt><trkpt lat="45.42473988924089" lon="10.490545576857533"><ele>153.0</ele><time>2026-03-29T08:33:42Z</time></trkpt><trkpt lat="45.424842697946595" lon="10.49067771929708"><ele>154.0</ele><time>2026-03-29T08:33:43Z</time></trkpt><trkpt lat="45.42491455571671" lon="10.490812006040503"><ele>155.0</ele><time>2026-03-29T08:33:44Z</time></trkpt><trkpt lat="45.42496851235263" lon="10.490925667023413"><ele>156.0</ele><time>2026-03-29T08:33:45Z</time></trkpt><trkpt lat="45.425002094163716" lon="10.491038349238387"><ele>157.0</ele><time>2026-03-29T08:33:46Z</time></trkpt><trkpt lat="45.425022531958724" lon="10.49116937915306"><ele>156.0</ele><time>2026-03-29T08:33:47Z</time></trkpt><trkpt lat="45.42502344053041" lon="10.491331240898559"><ele>155.0</ele><time>2026-03-29T08:33:48Z</time></trkpt><trkpt lat="45.42501858156325" lon="10.491548573046432"><ele>154.0</ele><time>2026-03-29T08:33:49Z</time></trkpt><trkpt lat="45.42503188151087" lon="10.491700995717768"><ele>153.0</ele><time>2026-03-29T08:33:50Z</time></trkpt><trkpt lat="45.42500296977061" lon="10.491848197877516"><ele>153.0</ele><time>2026-03-29T08:33:51Z</time></trkpt><trkpt lat="45.42500116657034" lon="10.492004651054845"><ele>153.0</ele><time>2026-03-29T08:33:52Z</time></trkpt><trkpt lat="45.425006386001165" lon="10.492148118662609"><ele>153.0</ele><time>2026-03-29T08:33:53Z</time></trkpt><trkpt lat="45.425013973086045" lon="10.49227953315148"><ele>153.0</ele><time>2026-03-29T08:33:54Z</time></trkpt><trkpt lat="45.425018668063" lon="10.492397878849587"><ele>153.0</ele><time>2026-03-29T08:33:55Z</time></trkpt><trkpt lat="45.425033633928194" lon="10.492523825569704"><ele>152.0</ele><time>2026-03-29T08:33:56Z</time></trkpt><trkpt lat="45.42505758918038" lon="10.492644025573387"><ele>151.0</ele><time>2026-03-29T08:33:57Z</time></trkpt><trkpt lat="45.425106942420946" lon="10.492744342951587"><ele>150.0</ele><time>2026-03-29T08:33:58Z</time></trkpt><trkpt lat="45.42517821824634" lon="10.49282978179063"><ele>149.0</ele><time>2026-03-29T08:33:59Z</time></trkpt><trkpt lat="45.4252539372392" lon="10.49289894190481"><ele>148.0</ele><time>2026-03-29T08:34:00Z</time></trkpt><trkpt lat="45.425349049308906" lon="10.492959017084443"><ele>147.25</ele><time>2026-03-29T08:34:01Z</time></trkpt><trkpt lat="45.42546863901746" lon="10.493034926659854"><ele>146.5</ele><time>2026-03-29T08:34:02Z</time></trkpt><trkpt lat="45.425598184741595" lon="10.493112935815352"><ele>145.75</ele><time>2026-03-29T08:34:03Z</time></trkpt><trkpt lat="45.42572792728472" lon="10.493181997065962"><ele>145.0</ele><time>2026-03-29T08:34:04Z</time></trkpt><trkpt lat="45.42584295562982" lon="10.49324700174089"><ele>145.0</ele><time>2026-03-29T08:34:05Z</time></trkpt><trkpt lat="45.425939857013105" lon="10.493327595301235"><ele>145.0</ele><time>2026-03-29T08:34:06Z</time></trkpt><trkpt lat="45.42603830078141" lon="10.493389614301748"><ele>145.0</ele><time>2026-03-29T08:34:07Z</time></trkpt><trkpt lat="45.426163197414205" lon="10.493463106450804"><ele>145.0</ele><time>2026-03-29T08:34:08Z</time></trkpt><trkpt lat="45.426282776844026" lon="10.49353389372167"><ele>144.25</ele><time>2026-03-29T08:34:09Z</time></trkpt><trkpt lat="45.42639721169754" lon="10.493603924082109"><ele>143.5</ele><time>2026-03-29T08:34:10Z</time></trkpt><trkpt lat="45.426511823939514" lon="10.493685303901097"><ele>142.75</ele><time>2026-03-29T08:34:11Z</time></trkpt><trkpt lat="45.426628366816985" lon="10.493759340355266"><ele>142.0</ele><time>2026-03-29T08:34:12Z</time></trkpt><trkpt lat="45.42672383678435" lon="10.493856933402206"><ele>142.0</ele><time>2026-03-29T08:34:13Z</time></trkpt><trkpt lat="45.42680609183585" lon="10.493934466692954"><ele>142.0</ele><time>2026-03-29T08:34:14Z</time></trkpt><trkpt lat="45.4268979485783" lon="10.4940191890918"><ele>142.0</ele><time>2026-03-29T08:34:15Z</time></trkpt><trkpt lat="45.42698833045466" lon="10.494077932344144"><ele>142.0</ele><time>2026-03-29T08:34:16Z</time></trkpt><trkpt lat="45.427083385412445" lon="10.494122167753362"><ele>142.0</ele><time>2026-03-29T08:34:17Z</time></trkpt><trkpt lat="45.42717347407115" lon="10.494132969706952"><ele>142.75</ele><time>2026-03-29T08:34:18Z</time></trkpt><trkpt lat="45.427271309209274" lon="10.494121781236263"><ele>143.5</ele><time>2026-03-29T08:34:19Z</time></trkpt><trkpt lat="45.42738688448395" lon="10.494113611275333"><ele>144.25</ele><time>2026-03-29T08:34:20Z</time></trkpt><trkpt lat="45.42752554994254" lon="10.494069503114272"><ele>145.0</ele><time>2026-03-29T08:34:21Z</time></trkpt><trkpt lat="45.427641563310736" lon="10.49407476026714"><ele>145.0</ele><time>2026-03-29T08:34:22Z</time></trkpt><trkpt lat="45.427749428213474" lon="10.494053431545462"><ele>145.0</ele><time>2026-03-29T08:34:23Z</time></trkpt><trkpt lat="45.42786274450254" lon="10.494049740169022"><ele>145.0</ele><time>2026-03-29T08:34:24Z</time></trkpt><trkpt lat="45.42798061415143" lon="10.49403775820865"><ele>145.0</ele><time>2026-03-29T08:34:25Z</time></trkpt><trkpt lat="45.42810132184417" lon="10.49403202142815"><ele>145.75</ele><time>2026-03-29T08:34:26Z</time></trkpt><trkpt lat="45.42822651677996" lon="10.494052448930454"><ele>146.5</ele><time>2026-03-29T08:34:27Z</time></trkpt><trkpt lat="45.428357633591204" lon="10.494116253980641"><ele>147.25</ele><time>2026-03-29T08:34:28Z</time></trkpt><trkpt lat="45.42847347156411" lon="10.494159410993195"><ele>148.0</ele><time>2026-03-29T08:34:29Z</time></trkpt><trkpt lat="45.42857123898486" lon="10.494230805918098"><ele>148.0</ele><time>2026-03-29T08:34:30Z</time></trkpt><trkpt lat="45.42869335886089" lon="10.49431415549184"><ele>148.0</ele><time>2026-03-29T08:34:31Z</time></trkpt><trkpt lat="45.42882096892396" lon="10.494391765697587"><ele>148.0</ele><time>2026-03-29T08:34:32Z</time></trkpt><trkpt lat="45.428938843667325" lon="10.494457082901869"><ele>148.0</ele><time>2026-03-29T08:34:33Z</time></trkpt><trkpt lat="45.429063315093245" lon="10.494514027453429"><ele>148.5</ele><time>2026-03-29T08:34:34Z</time></trkpt><trkpt lat="45.42917829632908" lon="10.494570581783531"><ele>149.0</ele><time>2026-03-29T08:34:35Z</time></trkpt><trkpt lat="45.4292843735017" lon="10.494639187915316"><ele>149.5</ele><time>2026-03-29T08:34:36Z</time></trkpt><trkpt lat="45.42939583448943" lon="10.494708440452127"><ele>150.0</ele><time>2026-03-29T08:34:37Z</time></trkpt><trkpt lat="45.42949245347813" lon="10.494776185598722"><ele>148.5</ele><time>2026-03-29T08:34:38Z</time></trkpt><trkpt lat="45.42959590695919" lon="10.494860580868025"><ele>147.0</ele><time>2026-03-29T08:34:39Z</time></trkpt><trkpt lat="45.4297036310129" lon="10.49496627355152"><ele>145.5</ele><time>2026-03-29T08:34:40Z</time></trkpt><trkpt lat="45.42981130824395" lon="10.495082487623103"><ele>144.0</ele><time>2026-03-29T08:34:41Z</time></trkpt><trkpt lat="45.429911722570836" lon="10.49519973551542"><ele>145.5</ele><time>2026-03-29T08:34:42Z</time></trkpt><trkpt lat="45.43000685253621" lon="10.495318249963757"><ele>147.0</ele><time>2026-03-29T08:34:43Z</time></trkpt><trkpt lat="45.43009109912177" lon="10.495434321248345"><ele>148.5</ele><time>2026-03-29T08:34:44Z</time></trkpt><trkpt lat="45.43016874864235" lon="10.495558159140476"><ele>150.0</ele><time>2026-03-29T08:34:45Z</time></trkpt><trkpt lat="45.43023660395962" lon="10.495696711217214"><ele>150.0</ele><time>2026-03-29T08:34:46Z</time></trkpt><trkpt lat="45.43028173703232" lon="10.495842653793682"><ele>150.0</ele><time>2026-03-29T08:34:47Z</time></trkpt><trkpt lat="45.43032914567483" lon="10.495980387966206"><ele>150.0</ele><time>2026-03-29T08:34:48Z</time></trkpt><trkpt lat="45.430388220135676" lon="10.496122244703306"><ele>150.0</ele><time>2026-03-29T08:34:49Z</time></trkpt><trkpt lat="45.43047107388681" lon="10.496263400160965"><ele>152.0</ele><time>2026-03-29T08:34:50Z</time></trkpt><trkpt lat="45.43055176501103" lon="10.496393082745364"><ele>154.0</ele><time>2026-03-29T08:34:51Z</time></trkpt><trkpt lat="45.43064327435566" lon="10.496508436629284"><ele>156.0</ele><time>2026-03-29T08:34:52Z</time></trkpt><trkpt lat="45.43073999600546" lon="10.49662132541908"><ele>158.0</ele><time>2026-03-29T08:34:53Z</time></trkpt><trkpt lat="45.43084488278118" lon="10.496728354511188"><ele>158.0</ele><time>2026-03-29T08:34:54Z</time></trkpt><trkpt lat="45.43096024558891" lon="10.496819731329158"><ele>158.0</ele><time>2026-03-29T08:34:55Z</time></trkpt><trkpt lat="45.43106991344462" lon="10.496912333321163"><ele>158.0</ele><time>2026-03-29T08:34:56Z</time></trkpt><trkpt lat="45.431168861557595" lon="10.497002254126354"><ele>158.0</ele><time>2026-03-29T08:34:57Z</time></trkpt><trkpt lat="45.43125325199398" lon="10.497087904101129"><ele>157.5</ele><time>2026-03-29T08:34:58Z</time></trkpt><trkpt lat="45.431327849507795" lon="10.497184693412393"><ele>157.0</ele><time>2026-03-29T08:34:59Z</time></trkpt><trkpt lat="45.4313785724254" lon="10.497335424112398"><ele>156.5</ele><time>2026-03-29T08:35:00Z</time></trkpt><trkpt lat="45.43144688351726" lon="10.497466311388003"><ele>156.0</ele><time>2026-03-29T08:35:01Z</time></trkpt><trkpt lat="45.43150030037286" lon="10.497632534688524"><ele>156.0</ele><time>2026-03-29T08:35:02Z</time></trkpt><trkpt lat="45.43155964155497" lon="10.497798322866437"><ele>156.0</ele><time>2026-03-29T08:35:03Z</time></trkpt><trkpt lat="45.431626875578786" lon="10.497977685607971"><ele>156.0</ele><time>2026-03-29T08:35:04Z</time></trkpt><trkpt lat="45.43166564012175" lon="10.498162466480247"><ele>156.0</ele><time>2026-03-29T08:35:05Z</time></trkpt><trkpt lat="45.43171461677433" lon="10.498315067690543"><ele>154.5</ele><time>2026-03-29T08:35:06Z</time></trkpt><trkpt lat="45.4317426078408" lon="10.498482795014844"><ele>153.0</ele><time>2026-03-29T08:35:07Z</time></trkpt><trkpt lat="45.431754246404815" lon="10.49865766285196"><ele>151.5</ele><time>2026-03-29T08:35:08Z</time></trkpt><trkpt lat="45.43174347601949" lon="10.498838231672766"><ele>150.0</ele><time>2026-03-29T08:35:09Z</time></trkpt><trkpt lat="45.43171662119089" lon="10.499040134792688"><ele>150.0</ele><time>2026-03-29T08:35:10Z</time></trkpt><trkpt lat="45.431688491350386" lon="10.499254750222914"><ele>150.0</ele><time>2026-03-29T08:35:11Z</time></trkpt><trkpt lat="45.43165722698564" lon="10.499472209994272"><ele>150.0</ele><time>2026-03-29T08:35:12Z</time></trkpt><trkpt lat="45.43163151434887" lon="10.499668310836014"><ele>150.0</ele><time>2026-03-29T08:35:13Z</time></trkpt><trkpt lat="45.43158412465131" lon="10.499837756507718"><ele>150.0</ele><time>2026-03-29T08:35:14Z</time></trkpt><trkpt lat="45.43157414894576" lon="10.500041886381458"><ele>150.0</ele><time>2026-03-29T08:35:15Z</time></trkpt><trkpt lat="45.43153632532047" lon="10.500255515908592"><ele>150.0</ele><time>2026-03-29T08:35:16Z</time></trkpt><trkpt lat="45.43149952465717" lon="10.500460406377083"><ele>150.0</ele><time>2026-03-29T08:35:17Z</time></trkpt><trkpt lat="45.43146702134149" lon="10.50064194401693"><ele>149.5</ele><time>2026-03-29T08:35:18Z</time></trkpt><trkpt lat="45.43143133534335" lon="10.500833148507086"><ele>149.0</ele><time>2026-03-29T08:35:19Z</time></trkpt><trkpt lat="45.43137625733829" lon="10.501008413183122"><ele>148.5</ele><time>2026-03-29T08:35:20Z</time></trkpt><trkpt lat="45.43134821530739" lon="10.50117536115327"><ele>148.0</ele><time>2026-03-29T08:35:21Z</time></trkpt><trkpt lat="45.43131989417843" lon="10.501343970780448"><ele>147.8</ele><time>2026-03-29T08:35:22Z</time></trkpt><trkpt lat="45.431303042608185" lon="10.501505221503882"><ele>147.60000000000002</ele><time>2026-03-29T08:35:23Z</time></trkpt><trkpt lat="45.431267128887306" lon="10.501646046927346"><ele>147.39999999999998</ele><time>2026-03-29T08:35:24Z</time></trkpt><trkpt lat="45.43124221486809" lon="10.50177311655634"><ele>147.2</ele><time>2026-03-29T08:35:25Z</time></trkpt><trkpt lat="45.43121729222316" lon="10.501878592296704"><ele>147.0</ele><time>2026-03-29T08:35:26Z</time></trkpt><trkpt lat="45.431199275845515" lon="10.501968353535762"><ele>147.0</ele><time>2026-03-29T08:35:27Z</time></trkpt><trkpt lat="45.43116441758274" lon="10.502055788509141"><ele>147.0</ele><time>2026-03-29T08:35:29Z</time></trkpt><trkpt lat="45.43109868588753" lon="10.502038480116035"><ele>147.0</ele><time>2026-03-29T08:35:30Z</time></trkpt><trkpt lat="45.43102558556532" lon="10.501902624849885"><ele>147.0</ele><time>2026-03-29T08:35:32Z</time></trkpt><trkpt lat="45.43094179983175" lon="10.501805944035597"><ele>147.0</ele><time>2026-03-29T08:35:33Z</time></trkpt><trkpt lat="45.43083527663398" lon="10.501688985913246"><ele>147.0</ele><time>2026-03-29T08:35:34Z</time></trkpt><trkpt lat="45.430700003452145" lon="10.501556014849031"><ele>147.0</ele><time>2026-03-29T08:35:35Z</time></trkpt><trkpt lat="45.430564885355444" lon="10.501450526730444"><ele>147.0</ele><time>2026-03-29T08:35:36Z</time></trkpt><trkpt lat="45.430455185426965" lon="10.501312699732354"><ele>146.5</ele><time>2026-03-29T08:35:37Z</time></trkpt><trkpt lat="45.43033485332059" lon="10.501189301107923"><ele>146.0</ele><time>2026-03-29T08:35:38Z</time></trkpt><trkpt lat="45.43022350904169" lon="10.501081141189694"><ele>145.5</ele><time>2026-03-29T08:35:39Z</time></trkpt><trkpt lat="45.43011204664914" lon="10.500999320465445"><ele>145.0</ele><time>2026-03-29T08:35:40Z</time></trkpt><trkpt lat="45.43001884245416" lon="10.500907329854178"><ele>145.0</ele><time>2026-03-29T08:35:41Z</time></trkpt><trkpt lat="45.429941772210974" lon="10.500829757868088"><ele>145.0</ele><time>2026-03-29T08:35:42Z</time></trkpt><trkpt lat="45.42988968070175" lon="10.500778010546982"><ele>145.0</ele><time>2026-03-29T08:35:43Z</time></trkpt><trkpt lat="45.42982766529189" lon="10.500692843756704"><ele>145.0</ele><time>2026-03-29T08:35:45Z</time></trkpt><trkpt lat="45.429696095039056" lon="10.500836539568953"><ele>145.0</ele><time>2026-03-29T08:35:47Z</time></trkpt><trkpt lat="45.42963920678761" lon="10.500922407295397"><ele>146.0</ele><time>2026-03-29T08:35:48Z</time></trkpt><trkpt lat="45.42958576585191" lon="10.501035952610552"><ele>147.0</ele><time>2026-03-29T08:35:49Z</time></trkpt><trkpt lat="45.42953064930859" lon="10.501143342839073"><ele>148.0</ele><time>2026-03-29T08:35:50Z</time></trkpt><trkpt lat="45.42947181939623" lon="10.501238416824433"><ele>149.0</ele><time>2026-03-29T08:35:51Z</time></trkpt><trkpt lat="45.4294052265753" lon="10.501338483783472"><ele>150.0</ele><time>2026-03-29T08:35:52Z</time></trkpt><trkpt lat="45.42932660860977" lon="10.501454234799143"><ele>150.25</ele><time>2026-03-29T08:35:53Z</time></trkpt><trkpt lat="45.42923398077293" lon="10.501586833133114"><ele>150.5</ele><time>2026-03-29T08:35:54Z</time></trkpt><trkpt lat="45.4291552080093" lon="10.501728252232772"><ele>150.75</ele><time>2026-03-29T08:35:55Z</time></trkpt><trkpt lat="45.42908949986616" lon="10.501835667337586"><ele>151.0</ele><time>2026-03-29T08:35:56Z</time></trkpt><trkpt lat="45.42903719796349" lon="10.501953805811326"><ele>151.5</ele><time>2026-03-29T08:35:57Z</time></trkpt><trkpt lat="45.42899591094528" lon="10.502115750884926"><ele>152.0</ele><time>2026-03-29T08:35:58Z</time></trkpt><trkpt lat="45.428944751816026" lon="10.502299625632597"><ele>152.5</ele><time>2026-03-29T08:35:59Z</time></trkpt><trkpt lat="45.428883644310964" lon="10.50244870354931"><ele>153.0</ele><time>2026-03-29T08:36:00Z</time></trkpt><trkpt lat="45.42886387228719" lon="10.502566067776451"><ele>153.0</ele><time>2026-03-29T08:36:01Z</time></trkpt><trkpt lat="45.42882317306347" lon="10.502687694348502"><ele>153.0</ele><time>2026-03-29T08:36:02Z</time></trkpt><trkpt lat="45.4287646396028" lon="10.502787543567576"><ele>153.0</ele><time>2026-03-29T08:36:03Z</time></trkpt><trkpt lat="45.428730800266614" lon="10.502907493101343"><ele>153.0</ele><time>2026-03-29T08:36:04Z</time></trkpt><trkpt lat="45.42868398481041" lon="10.502994488168985"><ele>153.0</ele><time>2026-03-29T08:36:05Z</time></trkpt><trkpt lat="45.42860628771783" lon="10.50304333483244"><ele>153.0</ele><time>2026-03-29T08:36:06Z</time></trkpt><trkpt lat="45.4285210151655" lon="10.503094129770972"><ele>152.5</ele><time>2026-03-29T08:36:07Z</time></trkpt><trkpt lat="45.42845665053663" lon="10.503154832258534"><ele>152.0</ele><time>2026-03-29T08:36:08Z</time></trkpt><trkpt lat="45.4283455692019" lon="10.503207557834678"><ele>151.5</ele><time>2026-03-29T08:36:10Z</time></trkpt><trkpt lat="45.428283454782125" lon="10.503264968768113"><ele>151.0</ele><time>2026-03-29T08:36:11Z</time></trkpt><trkpt lat="45.428225189667046" lon="10.503336502560789"><ele>150.5</ele><time>2026-03-29T08:36:12Z</time></trkpt><trkpt lat="45.428177031532016" lon="10.503431172831286"><ele>150.0</ele><time>2026-03-29T08:36:13Z</time></trkpt><trkpt lat="45.428140456581325" lon="10.50352719591433"><ele>150.0</ele><time>2026-03-29T08:36:14Z</time></trkpt><trkpt lat="45.428108490896236" lon="10.503615079700152"><ele>150.0</ele><time>2026-03-29T08:36:15Z</time></trkpt><trkpt lat="45.42801910625721" lon="10.503750059128501"><ele>150.0</ele><time>2026-03-29T08:36:17Z</time></trkpt><trkpt lat="45.42792563113866" lon="10.503783048984843"><ele>150.0</ele><time>2026-03-29T08:36:18Z</time></trkpt><trkpt lat="45.42784484733072" lon="10.503798246338437"><ele>150.0</ele><time>2026-03-29T08:36:19Z</time></trkpt><trkpt lat="45.427779448687716" lon="10.503828970128891"><ele>150.0</ele><time>2026-03-29T08:36:20Z</time></trkpt><trkpt lat="45.42771489294686" lon="10.503865012792462"><ele>147.8</ele><time>2026-03-29T08:36:21Z</time></trkpt><trkpt lat="45.427638307160905" lon="10.503925882795496"><ele>145.6</ele><time>2026-03-29T08:36:22Z</time></trkpt><trkpt lat="45.42754718744671" lon="10.504013787060902"><ele>143.4</ele><time>2026-03-29T08:36:23Z</time></trkpt><trkpt lat="45.42747909208731" lon="10.504076557539381"><ele>141.2</ele><time>2026-03-29T08:36:24Z</time></trkpt><trkpt lat="45.42740172017089" lon="10.504137844085022"><ele>139.0</ele><time>2026-03-29T08:36:25Z</time></trkpt><trkpt lat="45.4272962778303" lon="10.50415870511443"><ele>139.0</ele><time>2026-03-29T08:36:26Z</time></trkpt><trkpt lat="45.427195805343075" lon="10.504167069194954"><ele>139.0</ele><time>2026-03-29T08:36:27Z</time></trkpt><trkpt lat="45.427087909351634" lon="10.504158659276648"><ele>139.0</ele><time>2026-03-29T08:36:28Z</time></trkpt><trkpt lat="45.426995918165936" lon="10.504141842430935"><ele>139.0</ele><time>2026-03-29T08:36:29Z</time></trkpt><trkpt lat="45.42689993091775" lon="10.50411895196155"><ele>139.0</ele><time>2026-03-29T08:36:30Z</time></trkpt><trkpt lat="45.42679769106368" lon="10.504119183752431"><ele>139.2</ele><time>2026-03-29T08:36:31Z</time></trkpt><trkpt lat="45.42671145457147" lon="10.504127699900003"><ele>139.4</ele><time>2026-03-29T08:36:32Z</time></trkpt><trkpt lat="45.42663204222478" lon="10.504141185528507"><ele>139.6</ele><time>2026-03-29T08:36:33Z</time></trkpt><trkpt lat="45.42654509874074" lon="10.504157188374093"><ele>139.8</ele><time>2026-03-29T08:36:34Z</time></trkpt><trkpt lat="45.426456726530255" lon="10.504204782197172"><ele>140.0</ele><time>2026-03-29T08:36:35Z</time></trkpt><trkpt lat="45.426358263610986" lon="10.504276801511814"><ele>139.6</ele><time>2026-03-29T08:36:36Z</time></trkpt><trkpt lat="45.42627971375353" lon="10.504359219467558"><ele>139.2</ele><time>2026-03-29T08:36:37Z</time></trkpt><trkpt lat="45.42619309818015" lon="10.504434610165346"><ele>138.8</ele><time>2026-03-29T08:36:38Z</time></trkpt><trkpt lat="45.42611551529296" lon="10.504505980930427"><ele>138.4</ele><time>2026-03-29T08:36:39Z</time></trkpt><trkpt lat="45.42604110512489" lon="10.504562307286605"><ele>138.0</ele><time>2026-03-29T08:36:40Z</time></trkpt><trkpt lat="45.4259762710922" lon="10.5046229396972"><ele>136.5</ele><time>2026-03-29T08:36:41Z</time></trkpt><trkpt lat="45.42591577599682" lon="10.504677008290022"><ele>135.0</ele><time>2026-03-29T08:36:42Z</time></trkpt><trkpt lat="45.425807884100855" lon="10.504761010040246"><ele>133.5</ele><time>2026-03-29T08:36:44Z</time></trkpt><trkpt lat="45.42571766836811" lon="10.504838201375023"><ele>132.0</ele><time>2026-03-29T08:36:46Z</time></trkpt><trkpt lat="45.42567805560921" lon="10.504911323599583"><ele>130.5</ele><time>2026-03-29T08:36:48Z</time></trkpt><trkpt lat="45.42562053784805" lon="10.504958073536216"><ele>129.0</ele><time>2026-03-29T08:36:52Z</time></trkpt><trkpt lat="45.425809321876166" lon="10.505017127677949"><ele>129.0</ele><time>2026-03-29T08:36:56Z</time></trkpt><trkpt lat="45.42593860307351" lon="10.504963297471466"><ele>129.0</ele><time>2026-03-29T08:36:57Z</time></trkpt><trkpt lat="45.42607556538905" lon="10.504924060429678"><ele>129.0</ele><time>2026-03-29T08:36:58Z</time></trkpt><trkpt lat="45.4262148858007" lon="10.504868722694402"><ele>129.0</ele><time>2026-03-29T08:36:59Z</time></trkpt><trkpt lat="45.4263282150704" lon="10.504824659371659"><ele>128.8</ele><time>2026-03-29T08:37:00Z</time></trkpt><trkpt lat="45.42642517402306" lon="10.504768606998095"><ele>128.60000000000002</ele><time>2026-03-29T08:37:01Z</time></trkpt><trkpt lat="45.4265386258167" lon="10.504749222778662"><ele>128.4</ele><time>2026-03-29T08:37:02Z</time></trkpt><trkpt lat="45.42664406155329" lon="10.504709359340126"><ele>128.20000000000002</ele><time>2026-03-29T08:37:03Z</time></trkpt><trkpt lat="45.426755394042694" lon="10.504696416949049"><ele>128.0</ele><time>2026-03-29T08:37:04Z</time></trkpt><trkpt lat="45.426874795638696" lon="10.504700125315217"><ele>128.0</ele><time>2026-03-29T08:37:05Z</time></trkpt><trkpt lat="45.42700205514095" lon="10.504710335215758"><ele>128.0</ele><time>2026-03-29T08:37:06Z</time></trkpt><trkpt lat="45.427118313490865" lon="10.50473554644573"><ele>128.0</ele><time>2026-03-29T08:37:07Z</time></trkpt><trkpt lat="45.427239172499704" lon="10.504735627862757"><ele>128.0</ele><time>2026-03-29T08:37:08Z</time></trkpt><trkpt lat="45.42736662766149" lon="10.504736492806042"><ele>128.5</ele><time>2026-03-29T08:37:09Z</time></trkpt><trkpt lat="45.42749425912851" lon="10.504754000674627"><ele>129.0</ele><time>2026-03-29T08:37:10Z</time></trkpt><trkpt lat="45.42761729379568" lon="10.504832500304078"><ele>129.5</ele><time>2026-03-29T08:37:11Z</time></trkpt><trkpt lat="45.42775414325596" lon="10.504905247738085"><ele>130.0</ele><time>2026-03-29T08:37:12Z</time></trkpt><trkpt lat="45.42788425511101" lon="10.504967798260108"><ele>131.0</ele><time>2026-03-29T08:37:13Z</time></trkpt><trkpt lat="45.4280057147011" lon="10.505025152029953"><ele>132.0</ele><time>2026-03-29T08:37:14Z</time></trkpt><trkpt lat="45.42813708934294" lon="10.505087646583277"><ele>133.0</ele><time>2026-03-29T08:37:15Z</time></trkpt><trkpt lat="45.42827078027754" lon="10.505153536265752"><ele>134.0</ele><time>2026-03-29T08:37:16Z</time></trkpt><trkpt lat="45.428406093062655" lon="10.505196088567626"><ele>134.0</ele><time>2026-03-29T08:37:17Z</time></trkpt><trkpt lat="45.428528918998246" lon="10.505264737807213"><ele>134.0</ele><time>2026-03-29T08:37:18Z</time></trkpt><trkpt lat="45.42866255835136" lon="10.505316741628862"><ele>134.0</ele><time>2026-03-29T08:37:19Z</time></trkpt><trkpt lat="45.42881105576577" lon="10.50538426533879"><ele>134.0</ele><time>2026-03-29T08:37:20Z</time></trkpt><trkpt lat="45.428964047418205" lon="10.505444482281625"><ele>133.33333333333331</ele><time>2026-03-29T08:37:21Z</time></trkpt><trkpt lat="45.42913571095228" lon="10.505520555078135"><ele>132.66666666666666</ele><time>2026-03-29T08:37:22Z</time></trkpt><trkpt lat="45.42931152774589" lon="10.505600614857139"><ele>132.0</ele><time>2026-03-29T08:37:23Z</time></trkpt><trkpt lat="45.429483358744875" lon="10.50568628163036"><ele>132.0</ele><time>2026-03-29T08:37:24Z</time></trkpt><trkpt lat="45.4296378784086" lon="10.505780026076156"><ele>132.0</ele><time>2026-03-29T08:37:25Z</time></trkpt><trkpt lat="45.42976594587503" lon="10.505889769604677"><ele>132.0</ele><time>2026-03-29T08:37:26Z</time></trkpt><trkpt lat="45.42989631570785" lon="10.506013052428425"><ele>132.0</ele><time>2026-03-29T08:37:27Z</time></trkpt><trkpt lat="45.43002764529651" lon="10.506123073141026"><ele>132.0</ele><time>2026-03-29T08:37:28Z</time></trkpt><trkpt lat="45.43016742153259" lon="10.506204233117108"><ele>132.0</ele><time>2026-03-29T08:37:29Z</time></trkpt><trkpt lat="45.43032400556298" lon="10.50625979448903"><ele>132.0</ele><time>2026-03-29T08:37:30Z</time></trkpt><trkpt lat="45.430472094409225" lon="10.506290623206695"><ele>132.0</ele><time>2026-03-29T08:37:31Z</time></trkpt><trkpt lat="45.430606327422566" lon="10.506304687237158"><ele>132.0</ele><time>2026-03-29T08:37:32Z</time></trkpt><trkpt lat="45.43074149008287" lon="10.50630720635327"><ele>132.0</ele><time>2026-03-29T08:37:33Z</time></trkpt><trkpt lat="45.430888990909864" lon="10.506310824554763"><ele>132.75</ele><time>2026-03-29T08:37:34Z</time></trkpt><trkpt lat="45.43103166000068" lon="10.506316316553715"><ele>133.5</ele><time>2026-03-29T08:37:35Z</time></trkpt><trkpt lat="45.431181890791756" lon="10.506331191765653"><ele>134.25</ele><time>2026-03-29T08:37:36Z</time></trkpt><trkpt lat="45.431302625493636" lon="10.506359065433879"><ele>135.0</ele><time>2026-03-29T08:37:37Z</time></trkpt><trkpt lat="45.43139827119504" lon="10.506382558241228"><ele>135.5</ele><time>2026-03-29T08:37:38Z</time></trkpt><trkpt lat="45.431495493250345" lon="10.506397261317424"><ele>136.0</ele><time>2026-03-29T08:37:39Z</time></trkpt><trkpt lat="45.43157780587275" lon="10.506411886646038"><ele>136.5</ele><time>2026-03-29T08:37:40Z</time></trkpt><trkpt lat="45.43165650096652" lon="10.506427265462662"><ele>137.0</ele><time>2026-03-29T08:37:41Z</time></trkpt><trkpt lat="45.431740461456805" lon="10.506428913540597"><ele>137.5</ele><time>2026-03-29T08:37:42Z</time></trkpt><trkpt lat="45.431811346307846" lon="10.506433412625428"><ele>138.0</ele><time>2026-03-29T08:37:43Z</time></trkpt><trkpt lat="45.431876859131606" lon="10.506515510550273"><ele>138.0</ele><time>2026-03-29T08:37:45Z</time></trkpt><trkpt lat="45.43184945426917" lon="10.506682423745294"><ele>138.0</ele><time>2026-03-29T08:37:47Z</time></trkpt><trkpt lat="45.43178259124683" lon="10.506795074586874"><ele>138.0</ele><time>2026-03-29T08:37:48Z</time></trkpt><trkpt lat="45.431722274903244" lon="10.5069617157755"><ele>138.0</ele><time>2026-03-29T08:37:49Z</time></trkpt><trkpt lat="45.431629799141874" lon="10.507119523813795"><ele>139.0</ele><time>2026-03-29T08:37:50Z</time></trkpt><trkpt lat="45.431533296212855" lon="10.507246655260492"><ele>140.0</ele><time>2026-03-29T08:37:51Z</time></trkpt><trkpt lat="45.43139775002513" lon="10.507316130851034"><ele>141.0</ele><time>2026-03-29T08:37:52Z</time></trkpt><trkpt lat="45.431234403246144" lon="10.507422309202024"><ele>138.66666666666666</ele><time>2026-03-29T08:37:53Z</time></trkpt><trkpt lat="45.43105123207525" lon="10.507517807005016"><ele>136.33333333333331</ele><time>2026-03-29T08:37:54Z</time></trkpt><trkpt lat="45.43088458614211" lon="10.507645603600086"><ele>134.0</ele><time>2026-03-29T08:37:55Z</time></trkpt><trkpt lat="45.43073043532843" lon="10.507807379085003"><ele>133.66666666666666</ele><time>2026-03-29T08:37:56Z</time></trkpt><trkpt lat="45.430579291089664" lon="10.507971588064473"><ele>133.33333333333334</ele><time>2026-03-29T08:37:57Z</time></trkpt><trkpt lat="45.43043863586116" lon="10.50812090703216"><ele>133.0</ele><time>2026-03-29T08:37:58Z</time></trkpt><trkpt lat="45.43030259474736" lon="10.50825498137479"><ele>131.33333333333334</ele><time>2026-03-29T08:37:59Z</time></trkpt><trkpt lat="45.43017395036474" lon="10.508371466676579"><ele>129.66666666666666</ele><time>2026-03-29T08:38:00Z</time></trkpt><trkpt lat="45.430048645085186" lon="10.508488560384151"><ele>128.0</ele><time>2026-03-29T08:38:01Z</time></trkpt><trkpt lat="45.4299226403383" lon="10.508624093335422"><ele>127.33333333333333</ele><time>2026-03-29T08:38:02Z</time></trkpt><trkpt lat="45.42981119917191" lon="10.508781529622768"><ele>126.66666666666666</ele><time>2026-03-29T08:38:03Z</time></trkpt><trkpt lat="45.429705864484866" lon="10.508974293834127"><ele>126.0</ele><time>2026-03-29T08:38:04Z</time></trkpt><trkpt lat="45.429599459353014" lon="10.509181637852253"><ele>125.66666666666666</ele><time>2026-03-29T08:38:05Z</time></trkpt><trkpt lat="45.42950821025918" lon="10.509387648894881"><ele>125.33333333333333</ele><time>2026-03-29T08:38:06Z</time></trkpt><trkpt lat="45.42941959871574" lon="10.509591652016013"><ele>125.0</ele><time>2026-03-29T08:38:07Z</time></trkpt><trkpt lat="45.42933277127538" lon="10.509781889341257"><ele>124.75</ele><time>2026-03-29T08:38:08Z</time></trkpt><trkpt lat="45.42925322569746" lon="10.509950093363603"><ele>124.5</ele><time>2026-03-29T08:38:09Z</time></trkpt><trkpt lat="45.42917506214471" lon="10.51011820730561"><ele>124.25</ele><time>2026-03-29T08:38:10Z</time></trkpt><trkpt lat="45.4290831633024" lon="10.510305061359134"><ele>124.0</ele><time>2026-03-29T08:38:11Z</time></trkpt><trkpt lat="45.42898661227473" lon="10.510498800156709"><ele>123.75</ele><time>2026-03-29T08:38:12Z</time></trkpt><trkpt lat="45.428902806158135" lon="10.510674293360006"><ele>123.5</ele><time>2026-03-29T08:38:13Z</time></trkpt><trkpt lat="45.428835567124025" lon="10.510836193272826"><ele>123.25</ele><time>2026-03-29T08:38:14Z</time></trkpt><trkpt lat="45.42877835714838" lon="10.510975707449145"><ele>123.0</ele><time>2026-03-29T08:38:15Z</time></trkpt><trkpt lat="45.42871400220473" lon="10.511072120117534"><ele>122.25</ele><time>2026-03-29T08:38:16Z</time></trkpt><trkpt lat="45.42866952964596" lon="10.51117100132631"><ele>121.5</ele><time>2026-03-29T08:38:17Z</time></trkpt><trkpt lat="45.42862355569288" lon="10.511284947189434"><ele>120.75</ele><time>2026-03-29T08:38:18Z</time></trkpt><trkpt lat="45.42880775314863" lon="10.511540983901613"><ele>120.0</ele><time>2026-03-29T08:38:19Z</time></trkpt><trkpt lat="45.42874091563129" lon="10.511752882091388"><ele>120.0</ele><time>2026-03-29T08:38:20Z</time></trkpt><trkpt lat="45.42871029887399" lon="10.511943056030875"><ele>120.0</ele><time>2026-03-29T08:38:21Z</time></trkpt><trkpt lat="45.428677337596" lon="10.512144998228525"><ele>120.0</ele><time>2026-03-29T08:38:22Z</time></trkpt><trkpt lat="45.42864326694428" lon="10.51235329923604"><ele>120.0</ele><time>2026-03-29T08:38:23Z</time></trkpt><trkpt lat="45.428612484325484" lon="10.512566565593401"><ele>120.75</ele><time>2026-03-29T08:38:24Z</time></trkpt><trkpt lat="45.42858287758539" lon="10.51277047892334"><ele>121.5</ele><time>2026-03-29T08:38:25Z</time></trkpt><trkpt lat="45.42855799359904" lon="10.512972094883764"><ele>122.25</ele><time>2026-03-29T08:38:26Z</time></trkpt><trkpt lat="45.428512888018275" lon="10.513166053323703"><ele>123.0</ele><time>2026-03-29T08:38:27Z</time></trkpt><trkpt lat="45.42848677944597" lon="10.513347053099139"><ele>123.0</ele><time>2026-03-29T08:38:28Z</time></trkpt><trkpt lat="45.42847167972303" lon="10.513509451007625"><ele>123.00000000000001</ele><time>2026-03-29T08:38:29Z</time></trkpt><trkpt lat="45.42845276099695" lon="10.513656390849608"><ele>123.00000000000001</ele><time>2026-03-29T08:38:30Z</time></trkpt><trkpt lat="45.42843279693881" lon="10.513799052773622"><ele>123.0</ele><time>2026-03-29T08:38:31Z</time></trkpt><trkpt lat="45.4284123483472" lon="10.513936659940656"><ele>123.0</ele><time>2026-03-29T08:38:32Z</time></trkpt><trkpt lat="45.42839099942507" lon="10.51406570893704"><ele>122.83333333333333</ele><time>2026-03-29T08:38:33Z</time></trkpt><trkpt lat="45.42836760219537" lon="10.514174311754392"><ele>122.66666666666666</ele><time>2026-03-29T08:38:34Z</time></trkpt><trkpt lat="45.42832360678223" lon="10.514255829370496"><ele>122.5</ele><time>2026-03-29T08:38:35Z</time></trkpt><trkpt lat="45.4282458075926" lon="10.5143649270687"><ele>122.33333333333333</ele><time>2026-03-29T08:38:37Z</time></trkpt><trkpt lat="45.42832756694224" lon="10.514407142482188"><ele>122.16666666666666</ele><time>2026-03-29T08:38:38Z</time></trkpt><trkpt lat="45.42833087429593" lon="10.51450531621346"><ele>122.0</ele><time>2026-03-29T08:38:39Z</time></trkpt><trkpt lat="45.428320010860936" lon="10.514637552452806"><ele>122.0</ele><time>2026-03-29T08:38:40Z</time></trkpt><trkpt lat="45.42830225490427" lon="10.514771559588667"><ele>121.99999999999999</ele><time>2026-03-29T08:38:41Z</time></trkpt><trkpt lat="45.42826799975302" lon="10.514907460274598"><ele>121.99999999999999</ele><time>2026-03-29T08:38:42Z</time></trkpt><trkpt lat="45.428240977215914" lon="10.51504509398501"><ele>122.0</ele><time>2026-03-29T08:38:43Z</time></trkpt><trkpt lat="45.42822047678456" lon="10.515180264580072"><ele>122.0</ele><time>2026-03-29T08:38:44Z</time></trkpt><trkpt lat="45.428202429561026" lon="10.515334507117235"><ele>122.19999999999999</ele><time>2026-03-29T08:38:45Z</time></trkpt><trkpt lat="45.42818211358934" lon="10.515504773779657"><ele>122.39999999999999</ele><time>2026-03-29T08:38:46Z</time></trkpt><trkpt lat="45.42816250019861" lon="10.51566087623989"><ele>122.60000000000001</ele><time>2026-03-29T08:38:47Z</time></trkpt><trkpt lat="45.428139533242174" lon="10.515798866934677"><ele>122.80000000000001</ele><time>2026-03-29T08:38:48Z</time></trkpt><trkpt lat="45.42811235069355" lon="10.51592630835747"><ele>123.0</ele><time>2026-03-29T08:38:49Z</time></trkpt><trkpt lat="45.428067787756824" lon="10.516024429590244"><ele>123.0</ele><time>2026-03-29T08:38:50Z</time></trkpt><trkpt lat="45.42801379664233" lon="10.516081758393671"><ele>123.0</ele><time>2026-03-29T08:38:51Z</time></trkpt><trkpt lat="45.427879417434504" lon="10.516088218579466"><ele>123.0</ele><time>2026-03-29T08:38:53Z</time></trkpt><trkpt lat="45.427755572727385" lon="10.516068275454614"><ele>123.0</ele><time>2026-03-29T08:38:54Z</time></trkpt><trkpt lat="45.42762680066071" lon="10.516022833779424"><ele>122.80000000000001</ele><time>2026-03-29T08:38:55Z</time></trkpt><trkpt lat="45.42751886500576" lon="10.515961552630538"><ele>122.60000000000001</ele><time>2026-03-29T08:38:56Z</time></trkpt><trkpt lat="45.42742984955378" lon="10.515894361134896"><ele>122.39999999999999</ele><time>2026-03-29T08:38:57Z</time></trkpt><trkpt lat="45.42736504208228" lon="10.51580850723563"><ele>122.19999999999999</ele><time>2026-03-29T08:38:58Z</time></trkpt><trkpt lat="45.42730899254594" lon="10.51575274972825"><ele>122.0</ele><time>2026-03-29T08:38:59Z</time></trkpt><trkpt lat="45.42721470233738" lon="10.515654957290447"><ele>122.0</ele><time>2026-03-29T08:39:01Z</time></trkpt><trkpt lat="45.42722967856689" lon="10.515528975471018"><ele>121.99999999999999</ele><time>2026-03-29T08:39:02Z</time></trkpt><trkpt lat="45.42719033166983" lon="10.51543259706878"><ele>121.99999999999999</ele><time>2026-03-29T08:39:04Z</time></trkpt><trkpt lat="45.427107112825716" lon="10.51534499772735"><ele>122.0</ele><time>2026-03-29T08:39:06Z</time></trkpt><trkpt lat="45.4269752041049" lon="10.515404580484127"><ele>122.0</ele><time>2026-03-29T08:39:08Z</time></trkpt><trkpt lat="45.42691354858204" lon="10.51545972968745"><ele>122.19999999999999</ele><time>2026-03-29T08:39:09Z</time></trkpt><trkpt lat="45.42686989728822" lon="10.515544430358188"><ele>122.39999999999999</ele><time>2026-03-29T08:39:10Z</time></trkpt><trkpt lat="45.426811878556215" lon="10.515627944685367"><ele>122.60000000000001</ele><time>2026-03-29T08:39:11Z</time></trkpt><trkpt lat="45.42673485672591" lon="10.51566175130792"><ele>122.80000000000001</ele><time>2026-03-29T08:39:12Z</time></trkpt><trkpt lat="45.426627443179925" lon="10.51565937962017"><ele>123.0</ele><time>2026-03-29T08:39:13Z</time></trkpt><trkpt lat="45.42651898731589" lon="10.51556821691564"><ele>123.0</ele><time>2026-03-29T08:39:14Z</time></trkpt><trkpt lat="45.42640164578632" lon="10.515505199197285"><ele>123.0</ele><time>2026-03-29T08:39:15Z</time></trkpt><trkpt lat="45.4262770298515" lon="10.515449580609108"><ele>123.0</ele><time>2026-03-29T08:39:16Z</time></trkpt><trkpt lat="45.426156596117835" lon="10.515391979471685"><ele>123.0</ele><time>2026-03-29T08:39:17Z</time></trkpt><trkpt lat="45.426042872197456" lon="10.515324794451448"><ele>122.75</ele><time>2026-03-29T08:39:18Z</time></trkpt><trkpt lat="45.42593759415002" lon="10.515261521678168"><ele>122.5</ele><time>2026-03-29T08:39:19Z</time></trkpt><trkpt lat="45.425822930916816" lon="10.515184858685705"><ele>122.25</ele><time>2026-03-29T08:39:20Z</time></trkpt><trkpt lat="45.42571469915261" lon="10.515106213603358"><ele>122.0</ele><time>2026-03-29T08:39:21Z</time></trkpt><trkpt lat="45.42560690175534" lon="10.515034729157382"><ele>122.0</ele><time>2026-03-29T08:39:22Z</time></trkpt><trkpt lat="45.4254912424265" lon="10.514959069851146"><ele>122.0</ele><time>2026-03-29T08:39:23Z</time></trkpt><trkpt lat="45.42536729105096" lon="10.51487331917096"><ele>122.0</ele><time>2026-03-29T08:39:24Z</time></trkpt><trkpt lat="45.425251308360096" lon="10.514767427073636"><ele>122.0</ele><time>2026-03-29T08:39:25Z</time></trkpt><trkpt lat="45.42511852160146" lon="10.514691785120267"><ele>122.0</ele><time>2026-03-29T08:39:26Z</time></trkpt><trkpt lat="45.42498008521413" lon="10.514571308244214"><ele>122.0</ele><time>2026-03-29T08:39:27Z</time></trkpt><trkpt lat="45.4248350594417" lon="10.514456993505686"><ele>122.0</ele><time>2026-03-29T08:39:28Z</time></trkpt><trkpt lat="45.42469263529697" lon="10.514334292742252"><ele>121.33333333333333</ele><time>2026-03-29T08:39:29Z</time></trkpt><trkpt lat="45.424546037045744" lon="10.514214657391323"><ele>120.66666666666666</ele><time>2026-03-29T08:39:30Z</time></trkpt><trkpt lat="45.42439224853636" lon="10.514090849808888"><ele>120.0</ele><time>2026-03-29T08:39:31Z</time></trkpt><trkpt lat="45.424253716664985" lon="10.51393690728287"><ele>120.0</ele><time>2026-03-29T08:39:32Z</time></trkpt><trkpt lat="45.42410707040381" lon="10.513797446460707"><ele>120.0</ele><time>2026-03-29T08:39:33Z</time></trkpt><trkpt lat="45.4239504579331" lon="10.513669779685806"><ele>120.0</ele><time>2026-03-29T08:39:34Z</time></trkpt><trkpt lat="45.42380079650144" lon="10.513523459546262"><ele>120.0</ele><time>2026-03-29T08:39:35Z</time></trkpt><trkpt lat="45.423648427687006" lon="10.513373662349633"><ele>120.0</ele><time>2026-03-29T08:39:36Z</time></trkpt><trkpt lat="45.42351708752326" lon="10.513235879413367"><ele>120.0</ele><time>2026-03-29T08:39:37Z</time></trkpt><trkpt lat="45.42338635471708" lon="10.513113041265044"><ele>120.0</ele><time>2026-03-29T08:39:38Z</time></trkpt><trkpt lat="45.42325742350808" lon="10.513002096097209"><ele>120.0</ele><time>2026-03-29T08:39:39Z</time></trkpt><trkpt lat="45.42311952052102" lon="10.512889064150164"><ele>120.0</ele><time>2026-03-29T08:39:40Z</time></trkpt><trkpt lat="45.42296941883011" lon="10.512787258823394"><ele>120.5</ele><time>2026-03-29T08:39:41Z</time></trkpt><trkpt lat="45.42282760083178" lon="10.512700933387714"><ele>121.0</ele><time>2026-03-29T08:39:42Z</time></trkpt><trkpt lat="45.42270120147749" lon="10.512607252710342"><ele>121.5</ele><time>2026-03-29T08:39:43Z</time></trkpt><trkpt lat="45.42257953656603" lon="10.512532523074023"><ele>122.0</ele><time>2026-03-29T08:39:44Z</time></trkpt><trkpt lat="45.42246373397691" lon="10.512448199648345"><ele>122.0</ele><time>2026-03-29T08:39:45Z</time></trkpt><trkpt lat="45.42235351970776" lon="10.512318486142549"><ele>122.0</ele><time>2026-03-29T08:39:46Z</time></trkpt><trkpt lat="45.42224605349965" lon="10.512167411652815"><ele>122.0</ele><time>2026-03-29T08:39:47Z</time></trkpt><trkpt lat="45.42215235004432" lon="10.512028715920001"><ele>122.0</ele><time>2026-03-29T08:39:48Z</time></trkpt><trkpt lat="45.4220905668839" lon="10.511887238139344"><ele>121.8</ele><time>2026-03-29T08:39:49Z</time></trkpt><trkpt lat="45.42202819878597" lon="10.511772396432551"><ele>121.6</ele><time>2026-03-29T08:39:50Z</time></trkpt><trkpt lat="45.42197708994268" lon="10.511662182218066"><ele>121.39999999999999</ele><time>2026-03-29T08:39:51Z</time></trkpt><trkpt lat="45.42193931088185" lon="10.511539255157246"><ele>121.19999999999999</ele><time>2026-03-29T08:39:52Z</time></trkpt><trkpt lat="45.42190085709355" lon="10.511430685032778"><ele>121.0</ele><time>2026-03-29T08:39:53Z</time></trkpt><trkpt lat="45.42192468842268" lon="10.511287355460764"><ele>120.83333333333334</ele><time>2026-03-29T08:39:54Z</time></trkpt><trkpt lat="45.42192505733806" lon="10.511125565110214"><ele>120.66666666666667</ele><time>2026-03-29T08:39:55Z</time></trkpt><trkpt lat="45.42188501269316" lon="10.510992381688329"><ele>120.5</ele><time>2026-03-29T08:39:56Z</time></trkpt><trkpt lat="45.421858106206955" lon="10.510893459174238"><ele>120.33333333333334</ele><time>2026-03-29T08:39:57Z</time></trkpt><trkpt lat="45.421783092682595" lon="10.510877849227032"><ele>120.16666666666667</ele><time>2026-03-29T08:39:59Z</time></trkpt><trkpt lat="45.42170899032457" lon="10.510853911554959"><ele>120.0</ele><time>2026-03-29T08:40:02Z</time></trkpt><trkpt lat="45.42157027806034" lon="10.51081220658344"><ele>120.0</ele><time>2026-03-29T08:40:04Z</time></trkpt><trkpt lat="45.421495802288" lon="10.510699167404361"><ele>120.0</ele><time>2026-03-29T08:40:05Z</time></trkpt><trkpt lat="45.42140442779437" lon="10.510624008122752"><ele>120.0</ele><time>2026-03-29T08:40:06Z</time></trkpt><trkpt lat="45.42131449321959" lon="10.510560126529928"><ele>120.0</ele><time>2026-03-29T08:40:07Z</time></trkpt><trkpt lat="45.421222013984654" lon="10.510504659327061"><ele>120.0</ele><time>2026-03-29T08:40:08Z</time></trkpt><trkpt lat="45.4211211579945" lon="10.510478220274036"><ele>120.5</ele><time>2026-03-29T08:40:09Z</time></trkpt><trkpt lat="45.42101494609325" lon="10.510494678505706"><ele>121.0</ele><time>2026-03-29T08:40:10Z</time></trkpt><trkpt lat="45.42090089521703" lon="10.510540857897881"><ele>121.5</ele><time>2026-03-29T08:40:11Z</time></trkpt><trkpt lat="45.4207971419507" lon="10.510618943745161"><ele>122.0</ele><time>2026-03-29T08:40:12Z</time></trkpt><trkpt lat="45.420704801429096" lon="10.510727100026122"><ele>122.0</ele><time>2026-03-29T08:40:13Z</time></trkpt><trkpt lat="45.420634525473325" lon="10.510859266118858"><ele>121.99999999999999</ele><time>2026-03-29T08:40:14Z</time></trkpt><trkpt lat="45.42059644463016" lon="10.510998748411147"><ele>121.99999999999999</ele><time>2026-03-29T08:40:15Z</time></trkpt><trkpt lat="45.420578428160766" lon="10.511137900144371"><ele>122.0</ele><time>2026-03-29T08:40:16Z</time></trkpt><trkpt lat="45.42057263352973" lon="10.511267754985669"><ele>122.0</ele><time>2026-03-29T08:40:17Z</time></trkpt><trkpt lat="45.42057971086326" lon="10.511404275652325"><ele>121.8</ele><time>2026-03-29T08:40:18Z</time></trkpt><trkpt lat="45.42059945035223" lon="10.51151986035431"><ele>121.6</ele><time>2026-03-29T08:40:19Z</time></trkpt><trkpt lat="45.42063488698227" lon="10.511640102682431"><ele>121.39999999999999</ele><time>2026-03-29T08:40:20Z</time></trkpt><trkpt lat="45.42068789360248" lon="10.5117509615192"><ele>121.19999999999999</ele><time>2026-03-29T08:40:21Z</time></trkpt><trkpt lat="45.420752664823006" lon="10.511847189017493"><ele>121.0</ele><time>2026-03-29T08:40:22Z</time></trkpt><trkpt lat="45.42083039729795" lon="10.511915450365255"><ele>121.00000000000001</ele><time>2026-03-29T08:40:23Z</time></trkpt><trkpt lat="45.42084773316873" lon="10.512037643900975"><ele>121.0</ele><time>2026-03-29T08:40:24Z</time></trkpt><trkpt lat="45.420844719754264" lon="10.512134854887565"><ele>121.0</ele><time>2026-03-29T08:40:25Z</time></trkpt><trkpt lat="45.420816765538284" lon="10.512216901301832"><ele>121.0</ele><time>2026-03-29T08:40:26Z</time></trkpt><trkpt lat="45.4207159875244" lon="10.512270848790957"><ele>121.00000000000001</ele><time>2026-03-29T08:40:28Z</time></trkpt><trkpt lat="45.42064466113074" lon="10.512257682081694"><ele>121.0</ele><time>2026-03-29T08:40:29Z</time></trkpt><trkpt lat="45.42054769626286" lon="10.512249286148386"><ele>121.0</ele><time>2026-03-29T08:40:30Z</time></trkpt><trkpt lat="45.420444872349826" lon="10.512321889550766"><ele>121.0</ele><time>2026-03-29T08:40:31Z</time></trkpt><trkpt lat="45.420319261294836" lon="10.512386816864481"><ele>121.0</ele><time>2026-03-29T08:40:32Z</time></trkpt><trkpt lat="45.420174149409775" lon="10.512449990567433"><ele>121.0</ele><time>2026-03-29T08:40:33Z</time></trkpt><trkpt lat="45.420005357975796" lon="10.512525740666545"><ele>121.0</ele><time>2026-03-29T08:40:34Z</time></trkpt><trkpt lat="45.419838092560276" lon="10.512582050156292"><ele>121.0</ele><time>2026-03-29T08:40:35Z</time></trkpt><trkpt lat="45.419668361158884" lon="10.512664731718015"><ele>121.0</ele><time>2026-03-29T08:40:36Z</time></trkpt><trkpt lat="45.419486147058635" lon="10.512687941565053"><ele>121.33333333333334</ele><time>2026-03-29T08:40:37Z</time></trkpt><trkpt lat="45.41929669785321" lon="10.512729741442746"><ele>121.66666666666666</ele><time>2026-03-29T08:40:38Z</time></trkpt><trkpt lat="45.41910439710231" lon="10.512741322611443"><ele>122.0</ele><time>2026-03-29T08:40:39Z</time></trkpt><trkpt lat="45.41892466998106" lon="10.512748053171766"><ele>120.33333333333333</ele><time>2026-03-29T08:40:40Z</time></trkpt><trkpt lat="45.41875168203754" lon="10.512761301919147"><ele>118.66666666666666</ele><time>2026-03-29T08:40:41Z</time></trkpt><trkpt lat="45.41857973458526" lon="10.5127719247548"><ele>117.0</ele><time>2026-03-29T08:40:42Z</time></trkpt><trkpt lat="45.41840835762544" lon="10.512783074280346"><ele>117.0</ele><time>2026-03-29T08:40:43Z</time></trkpt><trkpt lat="45.418235639132845" lon="10.51279834969353"><ele>117.0</ele><time>2026-03-29T08:40:44Z</time></trkpt><trkpt lat="45.41809009115072" lon="10.512811308310344"><ele>117.0</ele><time>2026-03-29T08:40:45Z</time></trkpt><trkpt lat="45.41797330543673" lon="10.512819958583005"><ele>117.0</ele><time>2026-03-29T08:40:46Z</time></trkpt><trkpt lat="45.417865424116755" lon="10.512809292807626"><ele>116.6</ele><time>2026-03-29T08:40:47Z</time></trkpt><trkpt lat="45.41776125189387" lon="10.512819454193238"><ele>116.19999999999999</ele><time>2026-03-29T08:40:48Z</time></trkpt><trkpt lat="45.417656766632604" lon="10.512829646106503"><ele>115.8</ele><time>2026-03-29T08:40:49Z</time></trkpt><trkpt lat="45.417564075490766" lon="10.512836787511931"><ele>115.4</ele><time>2026-03-29T08:40:50Z</time></trkpt><trkpt lat="45.417479759923026" lon="10.51285376251532"><ele>115.0</ele><time>2026-03-29T08:40:51Z</time></trkpt><trkpt lat="45.41739867312875" lon="10.512862202568538"><ele>115.0</ele><time>2026-03-29T08:40:52Z</time></trkpt><trkpt lat="45.41732016857509" lon="10.512862253818124"><ele>115.0</ele><time>2026-03-29T08:40:53Z</time></trkpt><trkpt lat="45.417234538941315" lon="10.512871663928136"><ele>115.0</ele><time>2026-03-29T08:40:54Z</time></trkpt><trkpt lat="45.417130680036244" lon="10.512881172064702"><ele>115.0</ele><time>2026-03-29T08:40:55Z</time></trkpt><trkpt lat="45.41699374155406" lon="10.51289163875817"><ele>115.0</ele><time>2026-03-29T08:40:56Z</time></trkpt><trkpt lat="45.41683322072374" lon="10.512904943285674"><ele>114.66666666666667</ele><time>2026-03-29T08:40:57Z</time></trkpt><trkpt lat="45.41665766087214" lon="10.512921643892279"><ele>114.33333333333334</ele><time>2026-03-29T08:40:58Z</time></trkpt><trkpt lat="45.41646755663744" lon="10.512937122947397"><ele>114.0</ele><time>2026-03-29T08:40:59Z</time></trkpt><trkpt lat="45.4162957409503" lon="10.512932788393517"><ele>114.5</ele><time>2026-03-29T08:41:00Z</time></trkpt><trkpt lat="45.41613734654229" lon="10.51294450322877"><ele>115.0</ele><time>2026-03-29T08:41:01Z</time></trkpt><trkpt lat="45.41598983130618" lon="10.512954128272733"><ele>115.5</ele><time>2026-03-29T08:41:02Z</time></trkpt><trkpt lat="45.41585331540199" lon="10.512987931490919"><ele>116.0</ele><time>2026-03-29T08:41:03Z</time></trkpt><trkpt lat="45.41572537003185" lon="10.512990194027287"><ele>116.0</ele><time>2026-03-29T08:41:04Z</time></trkpt><trkpt lat="45.41559980870691" lon="10.512967431402089"><ele>116.0</ele><time>2026-03-29T08:41:05Z</time></trkpt><trkpt lat="45.41547316816548" lon="10.512950326539581"><ele>116.0</ele><time>2026-03-29T08:41:06Z</time></trkpt><trkpt lat="45.415349190831805" lon="10.512922536077177"><ele>116.0</ele><time>2026-03-29T08:41:07Z</time></trkpt><trkpt lat="45.41523512025936" lon="10.512896878662534"><ele>115.83333333333333</ele><time>2026-03-29T08:41:08Z</time></trkpt><trkpt lat="45.41514150478352" lon="10.512874699037528"><ele>115.66666666666666</ele><time>2026-03-29T08:41:09Z</time></trkpt><trkpt lat="45.415077318528276" lon="10.512876615844132"><ele>115.5</ele><time>2026-03-29T08:41:10Z</time></trkpt><trkpt lat="45.41499623217915" lon="10.512887306207842"><ele>115.33333333333334</ele><time>2026-03-29T08:41:12Z</time></trkpt><trkpt lat="45.41496899365517" lon="10.51304339455262"><ele>115.16666666666667</ele><time>2026-03-29T08:41:14Z</time></trkpt><trkpt lat="45.414957877696374" lon="10.513147519258618"><ele>115.0</ele><time>2026-03-29T08:41:15Z</time></trkpt><trkpt lat="45.41494970800227" lon="10.513275417885001"><ele>115.16666666666667</ele><time>2026-03-29T08:41:16Z</time></trkpt><trkpt lat="45.414940014879754" lon="10.513439996951165"><ele>115.33333333333334</ele><time>2026-03-29T08:41:17Z</time></trkpt><trkpt lat="45.41493265225723" lon="10.513577131164872"><ele>115.5</ele><time>2026-03-29T08:41:18Z</time></trkpt><trkpt lat="45.41493511281615" lon="10.513682250028214"><ele>115.66666666666666</ele><time>2026-03-29T08:41:19Z</time></trkpt><trkpt lat="45.414920614649105" lon="10.51379331095703"><ele>115.83333333333333</ele><time>2026-03-29T08:41:20Z</time></trkpt><trkpt lat="45.41490095848748" lon="10.513890427009864"><ele>116.0</ele><time>2026-03-29T08:41:21Z</time></trkpt><trkpt lat="45.41452478452623" lon="10.51395869208701"><ele>116.0</ele><time>2026-03-29T08:41:26Z</time></trkpt><trkpt lat="45.414381029666146" lon="10.513958354665899"><ele>116.0</ele><time>2026-03-29T08:41:27Z</time></trkpt><trkpt lat="45.414253890352796" lon="10.513985020709296"><ele>116.0</ele><time>2026-03-29T08:41:28Z</time></trkpt><trkpt lat="45.41415672123835" lon="10.514047639122573"><ele>116.0</ele><time>2026-03-29T08:41:29Z</time></trkpt><trkpt lat="45.41406865347687" lon="10.514099649599213"><ele>116.0</ele><time>2026-03-29T08:41:30Z</time></trkpt><trkpt lat="45.41398662922909" lon="10.514176885423906"><ele>116.0</ele><time>2026-03-29T08:41:31Z</time></trkpt><trkpt lat="45.413877623674274" lon="10.51421074792243"><ele>116.0</ele><time>2026-03-29T08:41:32Z</time></trkpt><trkpt lat="45.41376716816044" lon="10.514237497821584"><ele>116.0</ele><time>2026-03-29T08:41:33Z</time></trkpt><trkpt lat="45.41365986130014" lon="10.514270048560476"><ele>116.0</ele><time>2026-03-29T08:41:34Z</time></trkpt><trkpt lat="45.41356944748807" lon="10.514315653740972"><ele>115.99999999999999</ele><time>2026-03-29T08:41:35Z</time></trkpt><trkpt lat="45.41350152152612" lon="10.514390031760984"><ele>116.0</ele><time>2026-03-29T08:41:36Z</time></trkpt><trkpt lat="45.41345220861426" lon="10.514457041530637"><ele>116.0</ele><time>2026-03-29T08:41:37Z</time></trkpt><trkpt lat="45.41341550763304" lon="10.51454113853179"><ele>116.0</ele><time>2026-03-29T08:41:38Z</time></trkpt><trkpt lat="45.413381840307224" lon="10.514643308542393"><ele>115.99999999999999</ele><time>2026-03-29T08:41:39Z</time></trkpt><trkpt lat="45.413347660881556" lon="10.514779695040401"><ele>116.0</ele><time>2026-03-29T08:41:40Z</time></trkpt><trkpt lat="45.41331538319627" lon="10.514941608539209"><ele>116.0</ele><time>2026-03-29T08:41:41Z</time></trkpt><trkpt lat="45.41327329177332" lon="10.515134297056335"><ele>116.0</ele><time>2026-03-29T08:41:42Z</time></trkpt><trkpt lat="45.41323475963129" lon="10.515339429487957"><ele>116.0</ele><time>2026-03-29T08:41:43Z</time></trkpt><trkpt lat="45.41317570123686" lon="10.515550344121596"><ele>116.0</ele><time>2026-03-29T08:41:44Z</time></trkpt><trkpt lat="45.413123935707425" lon="10.515732573278408"><ele>116.0</ele><time>2026-03-29T08:41:45Z</time></trkpt><trkpt lat="45.41307239442658" lon="10.515902916777135"><ele>116.0</ele><time>2026-03-29T08:41:46Z</time></trkpt><trkpt lat="45.413019885081894" lon="10.516046736901982"><ele>116.0</ele><time>2026-03-29T08:41:47Z</time></trkpt><trkpt lat="45.41295435212035" lon="10.516216237995975"><ele>115.33333333333333</ele><time>2026-03-29T08:41:48Z</time></trkpt><trkpt lat="45.41289009812441" lon="10.516388589350885"><ele>114.66666666666666</ele><time>2026-03-29T08:41:49Z</time></trkpt><trkpt lat="45.41281759793978" lon="10.516594054452478"><ele>114.0</ele><time>2026-03-29T08:41:50Z</time></trkpt><trkpt lat="45.41274040840003" lon="10.51683213976617"><ele>114.0</ele><time>2026-03-29T08:41:51Z</time></trkpt><trkpt lat="45.41266988353039" lon="10.517042750201554"><ele>114.0</ele><time>2026-03-29T08:41:52Z</time></trkpt><trkpt lat="45.41262445743979" lon="10.517213172435243"><ele>114.0</ele><time>2026-03-29T08:41:53Z</time></trkpt><trkpt lat="45.412566628210946" lon="10.517359009375568"><ele>114.0</ele><time>2026-03-29T08:41:54Z</time></trkpt><trkpt lat="45.412497414743775" lon="10.51750882111209"><ele>114.0</ele><time>2026-03-29T08:41:55Z</time></trkpt><trkpt lat="45.412412267510405" lon="10.517630092490174"><ele>114.0</ele><time>2026-03-29T08:41:56Z</time></trkpt><trkpt lat="45.41228421306769" lon="10.517750827324894"><ele>114.0</ele><time>2026-03-29T08:41:57Z</time></trkpt><trkpt lat="45.41216611464848" lon="10.517912204926724"><ele>114.0</ele><time>2026-03-29T08:41:58Z</time></trkpt><trkpt lat="45.412043320160834" lon="10.518044852330952"><ele>115.66666666666666</ele><time>2026-03-29T08:41:59Z</time></trkpt><trkpt lat="45.41192734085719" lon="10.51819128535278"><ele>117.33333333333333</ele><time>2026-03-29T08:42:00Z</time></trkpt><trkpt lat="45.41182707304966" lon="10.518356651725794"><ele>119.0</ele><time>2026-03-29T08:42:01Z</time></trkpt><trkpt lat="45.411738315907655" lon="10.51853518180428"><ele>119.0</ele><time>2026-03-29T08:42:02Z</time></trkpt><trkpt lat="45.41165053962665" lon="10.518737951621356"><ele>119.0</ele><time>2026-03-29T08:42:03Z</time></trkpt><trkpt lat="45.411543932900976" lon="10.518886281357284"><ele>119.0</ele><time>2026-03-29T08:42:04Z</time></trkpt><trkpt lat="45.411455702033585" lon="10.51902681526055"><ele>119.0</ele><time>2026-03-29T08:42:05Z</time></trkpt><trkpt lat="45.41139094881278" lon="10.519143209437374"><ele>118.99999999999999</ele><time>2026-03-29T08:42:06Z</time></trkpt><trkpt lat="45.411354033314765" lon="10.51922250033421"><ele>119.0</ele><time>2026-03-29T08:42:07Z</time></trkpt><trkpt lat="45.41132171932486" lon="10.51936284272691"><ele>119.0</ele><time>2026-03-29T08:42:09Z</time></trkpt><trkpt lat="45.41136516208728" lon="10.519434112282378"><ele>119.0</ele><time>2026-03-29T08:42:10Z</time></trkpt><trkpt lat="45.411422659659124" lon="10.519470970987658"><ele>118.99999999999999</ele><time>2026-03-29T08:42:11Z</time></trkpt><trkpt lat="45.41148397748029" lon="10.519527256432887"><ele>119.0</ele><time>2026-03-29T08:42:12Z</time></trkpt><trkpt lat="45.41154525451036" lon="10.519606560552424"><ele>118.6</ele><time>2026-03-29T08:42:13Z</time></trkpt><trkpt lat="45.411579886638734" lon="10.519711236448172"><ele>118.2</ele><time>2026-03-29T08:42:14Z</time></trkpt><trkpt lat="45.4115921022606" lon="10.51984546509382"><ele>117.79999999999998</ele><time>2026-03-29T08:42:15Z</time></trkpt><trkpt lat="45.41157058384466" lon="10.520002670709134"><ele>117.39999999999999</ele><time>2026-03-29T08:42:16Z</time></trkpt><trkpt lat="45.41158010400892" lon="10.520185823020038"><ele>117.0</ele><time>2026-03-29T08:42:17Z</time></trkpt><trkpt lat="45.41156404670916" lon="10.520375956026013"><ele>116.8</ele><time>2026-03-29T08:42:18Z</time></trkpt><trkpt lat="45.411553478652465" lon="10.520535980117762"><ele>116.6</ele><time>2026-03-29T08:42:19Z</time></trkpt><trkpt lat="45.41155854963752" lon="10.520674908923821"><ele>116.39999999999999</ele><time>2026-03-29T08:42:20Z</time></trkpt><trkpt lat="45.411578697915076" lon="10.520788067847956"><ele>116.19999999999999</ele><time>2026-03-29T08:42:21Z</time></trkpt><trkpt lat="45.41161805189863" lon="10.520913594924904"><ele>116.0</ele><time>2026-03-29T08:42:22Z</time></trkpt><trkpt lat="45.41167521790872" lon="10.520995257779038"><ele>116.0</ele><time>2026-03-29T08:42:23Z</time></trkpt><trkpt lat="45.4117603783782" lon="10.521068232000102"><ele>116.0</ele><time>2026-03-29T08:42:24Z</time></trkpt><trkpt lat="45.41185817403144" lon="10.52113508186218"><ele>116.0</ele><time>2026-03-29T08:42:25Z</time></trkpt><trkpt lat="45.41195811119133" lon="10.52118406431277"><ele>116.0</ele><time>2026-03-29T08:42:26Z</time></trkpt><trkpt lat="45.41204316896819" lon="10.521242232850392"><ele>116.0</ele><time>2026-03-29T08:42:27Z</time></trkpt><trkpt lat="45.4121160002522" lon="10.521284861872987"><ele>116.19999999999999</ele><time>2026-03-29T08:42:28Z</time></trkpt><trkpt lat="45.412156406499605" lon="10.521369751880476"><ele>116.39999999999999</ele><time>2026-03-29T08:42:29Z</time></trkpt><trkpt lat="45.41218308692265" lon="10.521497035795655"><ele>116.6</ele><time>2026-03-29T08:42:30Z</time></trkpt><trkpt lat="45.4121781520199" lon="10.52164240522337"><ele>116.8</ele><time>2026-03-29T08:42:31Z</time></trkpt><trkpt lat="45.41215477593607" lon="10.52179440954351"><ele>117.0</ele><time>2026-03-29T08:42:32Z</time></trkpt><trkpt lat="45.412119924432425" lon="10.52192765840009"><ele>117.0</ele><time>2026-03-29T08:42:33Z</time></trkpt><trkpt lat="45.41208510629328" lon="10.52203265248055"><ele>116.99999999999999</ele><time>2026-03-29T08:42:34Z</time></trkpt><trkpt lat="45.41204870851299" lon="10.522115888480508"><ele>116.99999999999999</ele><time>2026-03-29T08:42:35Z</time></trkpt><trkpt lat="45.41198635086261" lon="10.522188071984193"><ele>117.0</ele><time>2026-03-29T08:42:37Z</time></trkpt><trkpt lat="45.4118763691801" lon="10.52207485150843"><ele>117.0</ele><time>2026-03-29T08:42:39Z</time></trkpt><trkpt lat="45.411788745995224" lon="10.522014258452378"><ele>117.0</ele><time>2026-03-29T08:42:40Z</time></trkpt><trkpt lat="45.411679779711974" lon="10.521967119603614"><ele>117.0</ele><time>2026-03-29T08:42:41Z</time></trkpt><trkpt lat="45.41157833394855" lon="10.521933328583987"><ele>117.0</ele><time>2026-03-29T08:42:42Z</time></trkpt><trkpt lat="45.41146139678126" lon="10.521911903688903"><ele>117.0</ele><time>2026-03-29T08:42:43Z</time></trkpt><trkpt lat="45.41133122137943" lon="10.521910851306735"><ele>117.33333333333334</ele><time>2026-03-29T08:42:44Z</time></trkpt><trkpt lat="45.41119213208566" lon="10.521930571451886"><ele>117.66666666666667</ele><time>2026-03-29T08:42:45Z</time></trkpt><trkpt lat="45.41102952983152" lon="10.521963319699742"><ele>118.0</ele><time>2026-03-29T08:42:46Z</time></trkpt><trkpt lat="45.41087164076287" lon="10.522012119998662"><ele>118.0</ele><time>2026-03-29T08:42:47Z</time></trkpt><trkpt lat="45.41070174174052" lon="10.522059509476492"><ele>118.0</ele><time>2026-03-29T08:42:48Z</time></trkpt><trkpt lat="45.41051912054109" lon="10.522139585203208"><ele>118.0</ele><time>2026-03-29T08:42:49Z</time></trkpt><trkpt lat="45.41032646469755" lon="10.522223017764205"><ele>118.66666666666667</ele><time>2026-03-29T08:42:50Z</time></trkpt><trkpt lat="45.41013475715458" lon="10.522306041601862"><ele>119.33333333333334</ele><time>2026-03-29T08:42:51Z</time></trkpt><trkpt lat="45.40994630316878" lon="10.522387654439049"><ele>120.0</ele><time>2026-03-29T08:42:52Z</time></trkpt><trkpt lat="45.40974818316434" lon="10.522473453336913"><ele>121.66666666666666</ele><time>2026-03-29T08:42:53Z</time></trkpt><trkpt lat="45.40957023530215" lon="10.522574067754627"><ele>123.33333333333333</ele><time>2026-03-29T08:42:54Z</time></trkpt><trkpt lat="45.40940575650973" lon="10.522623690760986"><ele>125.0</ele><time>2026-03-29T08:42:55Z</time></trkpt><trkpt lat="45.409264537500015" lon="10.522685721255712"><ele>125.0</ele><time>2026-03-29T08:42:56Z</time></trkpt><trkpt lat="45.40913095099291" lon="10.522747924658242"><ele>125.0</ele><time>2026-03-29T08:42:57Z</time></trkpt><trkpt lat="45.409004750596814" lon="10.522829625542805"><ele>125.0</ele><time>2026-03-29T08:42:58Z</time></trkpt><trkpt lat="45.408879883891274" lon="10.522887796437846"><ele>125.0</ele><time>2026-03-29T08:42:59Z</time></trkpt><trkpt lat="45.408761293323835" lon="10.52294505528696"><ele>125.5</ele><time>2026-03-29T08:43:00Z</time></trkpt><trkpt lat="45.40864795108114" lon="10.522998701427198"><ele>126.0</ele><time>2026-03-29T08:43:01Z</time></trkpt><trkpt lat="45.40854311593105" lon="10.523043889841157"><ele>126.5</ele><time>2026-03-29T08:43:02Z</time></trkpt><trkpt lat="45.40842627217646" lon="10.523038158092643"><ele>127.0</ele><time>2026-03-29T08:43:03Z</time></trkpt><trkpt lat="45.40831517478096" lon="10.523067328589924"><ele>127.0</ele><time>2026-03-29T08:43:04Z</time></trkpt><trkpt lat="45.4082215507594" lon="10.52314444400259"><ele>127.0</ele><time>2026-03-29T08:43:05Z</time></trkpt><trkpt lat="45.40809431796778" lon="10.523215370978093"><ele>127.0</ele><time>2026-03-29T08:43:06Z</time></trkpt><trkpt lat="45.407974046914035" lon="10.523332687538728"><ele>127.0</ele><time>2026-03-29T08:43:07Z</time></trkpt><trkpt lat="45.407850422166426" lon="10.523444849944003"><ele>127.5</ele><time>2026-03-29T08:43:08Z</time></trkpt><trkpt lat="45.40773284724042" lon="10.523551737266354"><ele>128.0</ele><time>2026-03-29T08:43:09Z</time></trkpt><trkpt lat="45.4076269248609" lon="10.523631298386208"><ele>128.5</ele><time>2026-03-29T08:43:10Z</time></trkpt><trkpt lat="45.40752552166854" lon="10.52371147350436"><ele>129.0</ele><time>2026-03-29T08:43:11Z</time></trkpt><trkpt lat="45.4074204603738" lon="10.523800870547532"><ele>129.25</ele><time>2026-03-29T08:43:12Z</time></trkpt><trkpt lat="45.40731421128918" lon="10.523872302207238"><ele>129.5</ele><time>2026-03-29T08:43:13Z</time></trkpt><trkpt lat="45.40721769022498" lon="10.523947300211331"><ele>129.75</ele><time>2026-03-29T08:43:14Z</time></trkpt><trkpt lat="45.40711848231412" lon="10.524048394225614"><ele>130.0</ele><time>2026-03-29T08:43:15Z</time></trkpt><trkpt lat="45.40699931403446" lon="10.52413036298566"><ele>131.0</ele><time>2026-03-29T08:43:16Z</time></trkpt><trkpt lat="45.406878132122486" lon="10.524201828700527"><ele>132.0</ele><time>2026-03-29T08:43:17Z</time></trkpt><trkpt lat="45.40676235041248" lon="10.524282365836298"><ele>133.0</ele><time>2026-03-29T08:43:18Z</time></trkpt><trkpt lat="45.406647376126394" lon="10.524363009324242"><ele>134.0</ele><time>2026-03-29T08:43:19Z</time></trkpt><trkpt lat="45.40653568541177" lon="10.524446775521897"><ele>134.0</ele><time>2026-03-29T08:43:20Z</time></trkpt><trkpt lat="45.406429778865245" lon="10.524537200049693"><ele>134.0</ele><time>2026-03-29T08:43:21Z</time></trkpt><trkpt lat="45.40634031800655" lon="10.524622980495213"><ele>134.0</ele><time>2026-03-29T08:43:22Z</time></trkpt><trkpt lat="45.406249636294106" lon="10.524722457682639"><ele>134.0</ele><time>2026-03-29T08:43:23Z</time></trkpt><trkpt lat="45.40615464347338" lon="10.52484784573908"><ele>132.66666666666666</ele><time>2026-03-29T08:43:24Z</time></trkpt><trkpt lat="45.40604276060709" lon="10.525018582439365"><ele>131.33333333333334</ele><time>2026-03-29T08:43:25Z</time></trkpt><trkpt lat="45.40590953493609" lon="10.525205665406721"><ele>130.0</ele><time>2026-03-29T08:43:26Z</time></trkpt><trkpt lat="45.40578177565418" lon="10.525363638128345"><ele>130.25</ele><time>2026-03-29T08:43:27Z</time></trkpt><trkpt lat="45.40565829233944" lon="10.525513814945095"><ele>130.5</ele><time>2026-03-29T08:43:28Z</time></trkpt><trkpt lat="45.40554310388144" lon="10.525656848961638"><ele>130.75</ele><time>2026-03-29T08:43:29Z</time></trkpt><trkpt lat="45.40545824672612" lon="10.52577802711639"><ele>131.0</ele><time>2026-03-29T08:43:30Z</time></trkpt><trkpt lat="45.40537629350793" lon="10.525895707472921"><ele>131.25</ele><time>2026-03-29T08:43:31Z</time></trkpt><trkpt lat="45.405291754678395" lon="10.526031600830702"><ele>131.5</ele><time>2026-03-29T08:43:32Z</time></trkpt><trkpt lat="45.40520525845785" lon="10.526167426981143"><ele>131.75</ele><time>2026-03-29T08:43:33Z</time></trkpt><trkpt lat="45.40509812556207" lon="10.526304870024363"><ele>132.0</ele><time>2026-03-29T08:43:34Z</time></trkpt><trkpt lat="45.404978936865106" lon="10.526451110841808"><ele>132.0</ele><time>2026-03-29T08:43:35Z</time></trkpt><trkpt lat="45.40484993173457" lon="10.526623575384422"><ele>132.0</ele><time>2026-03-29T08:43:36Z</time></trkpt><trkpt lat="45.40472315209578" lon="10.526798079176508"><ele>132.0</ele><time>2026-03-29T08:43:37Z</time></trkpt><trkpt lat="45.40459129812522" lon="10.52698682509778"><ele>132.25</ele><time>2026-03-29T08:43:38Z</time></trkpt><trkpt lat="45.40448806094934" lon="10.527144081750619"><ele>132.5</ele><time>2026-03-29T08:43:39Z</time></trkpt><trkpt lat="45.40438970962702" lon="10.527283285409943"><ele>132.75</ele><time>2026-03-29T08:43:40Z</time></trkpt><trkpt lat="45.40429401275239" lon="10.527423965939443"><ele>133.0</ele><time>2026-03-29T08:43:41Z</time></trkpt><trkpt lat="45.40419520703993" lon="10.527556431632263"><ele>133.0</ele><time>2026-03-29T08:43:42Z</time></trkpt><trkpt lat="45.40410033066975" lon="10.52764303175981"><ele>133.0</ele><time>2026-03-29T08:43:43Z</time></trkpt><trkpt lat="45.40401155894705" lon="10.527693902782136"><ele>133.0</ele><time>2026-03-29T08:43:44Z</time></trkpt><trkpt lat="45.40392885222444" lon="10.52768949304652"><ele>133.0</ele><time>2026-03-29T08:43:45Z</time></trkpt><trkpt lat="45.403837718366994" lon="10.527699394453757"><ele>133.0</ele><time>2026-03-29T08:43:46Z</time></trkpt><trkpt lat="45.403717082179845" lon="10.527703287382279"><ele>133.5</ele><time>2026-03-29T08:43:47Z</time></trkpt><trkpt lat="45.40359256976886" lon="10.527711465326266"><ele>134.0</ele><time>2026-03-29T08:43:48Z</time></trkpt><trkpt lat="45.403466862531474" lon="10.527765181586188"><ele>134.5</ele><time>2026-03-29T08:43:49Z</time></trkpt><trkpt lat="45.40332068194903" lon="10.527809500462245"><ele>135.0</ele><time>2026-03-29T08:43:50Z</time></trkpt><trkpt lat="45.40316737163476" lon="10.527819437059987"><ele>135.0</ele><time>2026-03-29T08:43:51Z</time></trkpt><trkpt lat="45.40301668881844" lon="10.5278366541327"><ele>135.0</ele><time>2026-03-29T08:43:52Z</time></trkpt><trkpt lat="45.40289780886604" lon="10.52789705299562"><ele>135.0</ele><time>2026-03-29T08:43:53Z</time></trkpt><trkpt lat="45.40278318323318" lon="10.527946814687514"><ele>135.0</ele><time>2026-03-29T08:43:54Z</time></trkpt><trkpt lat="45.40267633191165" lon="10.52802053073406"><ele>136.0</ele><time>2026-03-29T08:43:55Z</time></trkpt><trkpt lat="45.40255112666587" lon="10.528128216740901"><ele>137.0</ele><time>2026-03-29T08:43:56Z</time></trkpt><trkpt lat="45.402412509904586" lon="10.52824880076913"><ele>138.0</ele><time>2026-03-29T08:43:57Z</time></trkpt><trkpt lat="45.402253333545055" lon="10.528351927728618"><ele>138.0</ele><time>2026-03-29T08:43:58Z</time></trkpt><trkpt lat="45.40209898635911" lon="10.528481143481054"><ele>138.0</ele><time>2026-03-29T08:43:59Z</time></trkpt><trkpt lat="45.40193202180656" lon="10.528625079762836"><ele>138.0</ele><time>2026-03-29T08:44:00Z</time></trkpt><trkpt lat="45.401785133335665" lon="10.528774340044913"><ele>137.66666666666666</ele><time>2026-03-29T08:44:01Z</time></trkpt><trkpt lat="45.40163145893818" lon="10.528902415760019"><ele>137.33333333333331</ele><time>2026-03-29T08:44:02Z</time></trkpt><trkpt lat="45.401497208755565" lon="10.529020802944341"><ele>137.0</ele><time>2026-03-29T08:44:03Z</time></trkpt><trkpt lat="45.40137525327092" lon="10.5291192518863"><ele>136.75</ele><time>2026-03-29T08:44:04Z</time></trkpt><trkpt lat="45.40125189760774" lon="10.52922641930194"><ele>136.5</ele><time>2026-03-29T08:44:05Z</time></trkpt><trkpt lat="45.401130374775185" lon="10.529332382862666"><ele>136.25</ele><time>2026-03-29T08:44:06Z</time></trkpt><trkpt lat="45.40100156679629" lon="10.529438495535553"><ele>136.0</ele><time>2026-03-29T08:44:07Z</time></trkpt><trkpt lat="45.40086716287753" lon="10.529550449619165"><ele>135.66666666666669</ele><time>2026-03-29T08:44:08Z</time></trkpt><trkpt lat="45.40073592691664" lon="10.529661282247302"><ele>135.33333333333334</ele><time>2026-03-29T08:44:09Z</time></trkpt><trkpt lat="45.40060136178244" lon="10.529774346149392"><ele>135.0</ele><time>2026-03-29T08:44:10Z</time></trkpt><trkpt lat="45.4004538399989" lon="10.529907522530515"><ele>135.5</ele><time>2026-03-29T08:44:11Z</time></trkpt><trkpt lat="45.400300876675566" lon="10.530022302582191"><ele>136.0</ele><time>2026-03-29T08:44:12Z</time></trkpt><trkpt lat="45.40017404620085" lon="10.530143638126056"><ele>136.5</ele><time>2026-03-29T08:44:13Z</time></trkpt><trkpt lat="45.40007294981183" lon="10.530243305255098"><ele>137.0</ele><time>2026-03-29T08:44:14Z</time></trkpt><trkpt lat="45.3999879112252" lon="10.530356069802837"><ele>136.79999999999998</ele><time>2026-03-29T08:44:15Z</time></trkpt><trkpt lat="45.39990492758091" lon="10.530429659366607"><ele>136.6</ele><time>2026-03-29T08:44:16Z</time></trkpt><trkpt lat="45.39982975674713" lon="10.530502879162364"><ele>136.39999999999998</ele><time>2026-03-29T08:44:17Z</time></trkpt><trkpt lat="45.39974670671767" lon="10.530594793189916"><ele>136.2</ele><time>2026-03-29T08:44:18Z</time></trkpt><trkpt lat="45.3996511898729" lon="10.530708543984835"><ele>136.0</ele><time>2026-03-29T08:44:19Z</time></trkpt><trkpt lat="45.39955059613874" lon="10.530824707854489"><ele>135.2</ele><time>2026-03-29T08:44:20Z</time></trkpt><trkpt lat="45.3994634777699" lon="10.53091987691187"><ele>134.39999999999998</ele><time>2026-03-29T08:44:21Z</time></trkpt><trkpt lat="45.39940160750652" lon="10.531008438780223"><ele>133.6</ele><time>2026-03-29T08:44:22Z</time></trkpt><trkpt lat="45.39933158686428" lon="10.531105196134998"><ele>132.79999999999998</ele><time>2026-03-29T08:44:23Z</time></trkpt><trkpt lat="45.39927302253329" lon="10.531236954678056"><ele>132.0</ele><time>2026-03-29T08:44:24Z</time></trkpt><trkpt lat="45.39920692362774" lon="10.53138606192045"><ele>132.0</ele><time>2026-03-29T08:44:25Z</time></trkpt><trkpt lat="45.39914128551769" lon="10.531537193999872"><ele>132.0</ele><time>2026-03-29T08:44:26Z</time></trkpt><trkpt lat="45.39907425368072" lon="10.531667791343391"><ele>132.0</ele><time>2026-03-29T08:44:27Z</time></trkpt><trkpt lat="45.39900483862543" lon="10.531790282058923"><ele>132.0</ele><time>2026-03-29T08:44:28Z</time></trkpt><trkpt lat="45.39890843252893" lon="10.531885901704017"><ele>131.0</ele><time>2026-03-29T08:44:29Z</time></trkpt><trkpt lat="45.398807625727066" lon="10.53201523260289"><ele>130.0</ele><time>2026-03-29T08:44:30Z</time></trkpt><trkpt lat="45.39872794826089" lon="10.532138058593597"><ele>129.0</ele><time>2026-03-29T08:44:31Z</time></trkpt><trkpt lat="45.398646329694174" lon="10.532235189206785"><ele>128.0</ele><time>2026-03-29T08:44:32Z</time></trkpt><trkpt lat="45.39857563872419" lon="10.532321313296878"><ele>128.0</ele><time>2026-03-29T08:44:33Z</time></trkpt><trkpt lat="45.39850761791264" lon="10.532407867141309"><ele>128.0</ele><time>2026-03-29T08:44:34Z</time></trkpt><trkpt lat="45.398454688472285" lon="10.532483166517537"><ele>128.0</ele><time>2026-03-29T08:44:35Z</time></trkpt><trkpt lat="45.39837330494995" lon="10.532587782145391"><ele>128.0</ele><time>2026-03-29T08:44:37Z</time></trkpt><trkpt lat="45.39833874082486" lon="10.532694953836799"><ele>128.0</ele><time>2026-03-29T08:44:39Z</time></trkpt><trkpt lat="45.39836166558231" lon="10.532826036921861"><ele>128.0</ele><time>2026-03-29T08:44:41Z</time></trkpt><trkpt lat="45.398401513143234" lon="10.53290904674911"><ele>128.0</ele><time>2026-03-29T08:44:42Z</time></trkpt><trkpt lat="45.39844452566931" lon="10.533007589288044"><ele>128.0</ele><time>2026-03-29T08:44:43Z</time></trkpt><trkpt lat="45.39850259509542" lon="10.533112456123028"><ele>128.0</ele><time>2026-03-29T08:44:44Z</time></trkpt><trkpt lat="45.3985585910774" lon="10.53322092807577"><ele>128.0</ele><time>2026-03-29T08:44:45Z</time></trkpt><trkpt lat="45.398596342653875" lon="10.533371107042049"><ele>128.0</ele><time>2026-03-29T08:44:46Z</time></trkpt><trkpt lat="45.39863454074787" lon="10.533530532921068"><ele>128.0</ele><time>2026-03-29T08:44:47Z</time></trkpt><trkpt lat="45.398683914659294" lon="10.533714990083835"><ele>128.0</ele><time>2026-03-29T08:44:48Z</time></trkpt><trkpt lat="45.39873520876162" lon="10.533863428084244"><ele>128.0</ele><time>2026-03-29T08:44:49Z</time></trkpt><trkpt lat="45.39879800122859" lon="10.533958787096184"><ele>127.75</ele><time>2026-03-29T08:44:50Z</time></trkpt><trkpt lat="45.39885860488276" lon="10.53406310495128"><ele>127.5</ele><time>2026-03-29T08:44:51Z</time></trkpt><trkpt lat="45.3989439700978" lon="10.534160947718567"><ele>127.25</ele><time>2026-03-29T08:44:52Z</time></trkpt><trkpt lat="45.39903869483386" lon="10.534255944008281"><ele>127.0</ele><time>2026-03-29T08:44:53Z</time></trkpt><trkpt lat="45.39914892710863" lon="10.534373352246782"><ele>127.0</ele><time>2026-03-29T08:44:54Z</time></trkpt><trkpt lat="45.399238447082475" lon="10.53450354392663"><ele>127.0</ele><time>2026-03-29T08:44:55Z</time></trkpt><trkpt lat="45.39932024351797" lon="10.534646407101256"><ele>127.0</ele><time>2026-03-29T08:44:56Z</time></trkpt><trkpt lat="45.39938388150009" lon="10.534815764843163"><ele>127.0</ele><time>2026-03-29T08:44:57Z</time></trkpt><trkpt lat="45.39943007705177" lon="10.534978128220407"><ele>128.0</ele><time>2026-03-29T08:44:58Z</time></trkpt><trkpt lat="45.399454085196965" lon="10.535123044587527"><ele>129.0</ele><time>2026-03-29T08:44:59Z</time></trkpt><trkpt lat="45.39948062174111" lon="10.535293372802577"><ele>130.0</ele><time>2026-03-29T08:45:00Z</time></trkpt><trkpt lat="45.399492403228926" lon="10.535460479365353"><ele>131.0</ele><time>2026-03-29T08:45:01Z</time></trkpt><trkpt lat="45.3994700043135" lon="10.53564944307981"><ele>131.0</ele><time>2026-03-29T08:45:02Z</time></trkpt><trkpt lat="45.39945277086775" lon="10.535859142045668"><ele>131.0</ele><time>2026-03-29T08:45:03Z</time></trkpt><trkpt lat="45.399437195625524" lon="10.536098723263335"><ele>131.0</ele><time>2026-03-29T08:45:04Z</time></trkpt><trkpt lat="45.399438329694036" lon="10.53633110201147"><ele>130.25</ele><time>2026-03-29T08:45:05Z</time></trkpt><trkpt lat="45.39942078698236" lon="10.536533796460573"><ele>129.5</ele><time>2026-03-29T08:45:06Z</time></trkpt><trkpt lat="45.39940187864352" lon="10.536733944073168"><ele>128.75</ele><time>2026-03-29T08:45:07Z</time></trkpt><trkpt lat="45.39936790814041" lon="10.536917677791124"><ele>128.0</ele><time>2026-03-29T08:45:08Z</time></trkpt><trkpt lat="45.39934473089933" lon="10.537098328562081"><ele>127.0</ele><time>2026-03-29T08:45:09Z</time></trkpt><trkpt lat="45.399318284635996" lon="10.537303626046464"><ele>126.0</ele><time>2026-03-29T08:45:10Z</time></trkpt><trkpt lat="45.399291141622044" lon="10.53750907126204"><ele>125.0</ele><time>2026-03-29T08:45:11Z</time></trkpt><trkpt lat="45.399260418311" lon="10.537716523321796"><ele>124.0</ele><time>2026-03-29T08:45:12Z</time></trkpt><trkpt lat="45.39922331608225" lon="10.53790921760326"><ele>123.0</ele><time>2026-03-29T08:45:13Z</time></trkpt><trkpt lat="45.399166822657065" lon="10.538122117335757"><ele>122.0</ele><time>2026-03-29T08:45:14Z</time></trkpt><trkpt lat="45.39911775318829" lon="10.538354976630565"><ele>121.0</ele><time>2026-03-29T08:45:15Z</time></trkpt><trkpt lat="45.3990914704519" lon="10.538596948955462"><ele>120.75</ele><time>2026-03-29T08:45:16Z</time></trkpt><trkpt lat="45.399073666516664" lon="10.538819543481164"><ele>120.5</ele><time>2026-03-29T08:45:17Z</time></trkpt><trkpt lat="45.39905737439961" lon="10.53902427161815"><ele>120.25</ele><time>2026-03-29T08:45:18Z</time></trkpt><trkpt lat="45.399044416014824" lon="10.5392330964711"><ele>120.0</ele><time>2026-03-29T08:45:19Z</time></trkpt><trkpt lat="45.39904735846778" lon="10.53943890431993"><ele>118.75</ele><time>2026-03-29T08:45:20Z</time></trkpt><trkpt lat="45.399022981957714" lon="10.539630328684074"><ele>117.5</ele><time>2026-03-29T08:45:21Z</time></trkpt><trkpt lat="45.39898310537879" lon="10.539803818199076"><ele>116.25</ele><time>2026-03-29T08:45:22Z</time></trkpt><trkpt lat="45.398942208553805" lon="10.539981851386784"><ele>115.0</ele><time>2026-03-29T08:45:23Z</time></trkpt><trkpt lat="45.39889400293194" lon="10.540214705950929"><ele>116.0</ele><time>2026-03-29T08:45:24Z</time></trkpt><trkpt lat="45.39881940747496" lon="10.540425551692286"><ele>117.0</ele><time>2026-03-29T08:45:25Z</time></trkpt><trkpt lat="45.39876274766884" lon="10.540628125411155"><ele>118.0</ele><time>2026-03-29T08:45:26Z</time></trkpt><trkpt lat="45.39871348372763" lon="10.540808771378355"><ele>118.0</ele><time>2026-03-29T08:45:27Z</time></trkpt><trkpt lat="45.398651644901605" lon="10.540947044866076"><ele>118.00000000000001</ele><time>2026-03-29T08:45:28Z</time></trkpt><trkpt lat="45.39862225026889" lon="10.541094726547325"><ele>118.00000000000001</ele><time>2026-03-29T08:45:29Z</time></trkpt><trkpt lat="45.398587726904324" lon="10.541206950850205"><ele>118.0</ele><time>2026-03-29T08:45:30Z</time></trkpt><trkpt lat="45.398576944497634" lon="10.541314449781012"><ele>118.0</ele><time>2026-03-29T08:45:31Z</time></trkpt><trkpt lat="45.398592069381976" lon="10.541439801287328"><ele>117.0</ele><time>2026-03-29T08:45:32Z</time></trkpt><trkpt lat="45.398629734254186" lon="10.541573951605006"><ele>116.00000000000001</ele><time>2026-03-29T08:45:33Z</time></trkpt><trkpt lat="45.39869072831308" lon="10.541695959160936"><ele>115.00000000000001</ele><time>2026-03-29T08:45:34Z</time></trkpt><trkpt lat="45.39876622682512" lon="10.541804382042981"><ele>114.0</ele><time>2026-03-29T08:45:35Z</time></trkpt><trkpt lat="45.39879521453541" lon="10.541928770814264"><ele>113.0</ele><time>2026-03-29T08:45:36Z</time></trkpt><trkpt lat="45.398812942042206" lon="10.542029421848794"><ele>112.5</ele><time>2026-03-29T08:45:37Z</time></trkpt><trkpt lat="45.39879164252595" lon="10.54215413245705"><ele>112.0</ele><time>2026-03-29T08:45:38Z</time></trkpt><trkpt lat="45.39875077155498" lon="10.54229104162596"><ele>111.5</ele><time>2026-03-29T08:45:39Z</time></trkpt><trkpt lat="45.398697807514935" lon="10.542463598461158"><ele>111.0</ele><time>2026-03-29T08:45:40Z</time></trkpt><trkpt lat="45.39865238010484" lon="10.542667874746769"><ele>111.0</ele><time>2026-03-29T08:45:41Z</time></trkpt><trkpt lat="45.398603059571165" lon="10.542868338842144"><ele>111.0</ele><time>2026-03-29T08:45:42Z</time></trkpt><trkpt lat="45.398561503618325" lon="10.543066161655972"><ele>111.0</ele><time>2026-03-29T08:45:43Z</time></trkpt><trkpt lat="45.39852012712682" lon="10.54326507680678"><ele>111.0</ele><time>2026-03-29T08:45:44Z</time></trkpt><trkpt lat="45.39845812555016" lon="10.543474476320569"><ele>111.66666666666666</ele><time>2026-03-29T08:45:45Z</time></trkpt><trkpt lat="45.39837532825277" lon="10.543725597493403"><ele>112.33333333333333</ele><time>2026-03-29T08:45:46Z</time></trkpt><trkpt lat="45.3982953405652" lon="10.543933056556927"><ele>113.0</ele><time>2026-03-29T08:45:47Z</time></trkpt><trkpt lat="45.39821489734254" lon="10.544142266919877"><ele>113.0</ele><time>2026-03-29T08:45:48Z</time></trkpt><trkpt lat="45.39812629335959" lon="10.544349245090993"><ele>113.0</ele><time>2026-03-29T08:45:49Z</time></trkpt><trkpt lat="45.398038603898726" lon="10.544536039070438"><ele>113.0</ele><time>2026-03-29T08:45:50Z</time></trkpt><trkpt lat="45.39794413493139" lon="10.544716342218202"><ele>113.0</ele><time>2026-03-29T08:45:51Z</time></trkpt><trkpt lat="45.39786136526024" lon="10.544882775390532"><ele>113.0</ele><time>2026-03-29T08:45:52Z</time></trkpt><trkpt lat="45.39778550110266" lon="10.545061487517344"><ele>113.0</ele><time>2026-03-29T08:45:53Z</time></trkpt><trkpt lat="45.397722288609536" lon="10.545253401992376"><ele>113.0</ele><time>2026-03-29T08:45:54Z</time></trkpt><trkpt lat="45.397664433010604" lon="10.545462851874111"><ele>113.0</ele><time>2026-03-29T08:45:55Z</time></trkpt><trkpt lat="45.39761048372415" lon="10.545638160321367"><ele>113.0</ele><time>2026-03-29T08:45:56Z</time></trkpt><trkpt lat="45.3976016723556" lon="10.545818805384863"><ele>113.0</ele><time>2026-03-29T08:45:57Z</time></trkpt><trkpt lat="45.39759940302072" lon="10.545968859930476"><ele>113.0</ele><time>2026-03-29T08:45:58Z</time></trkpt><trkpt lat="45.39760890734929" lon="10.546124431549561"><ele>113.0</ele><time>2026-03-29T08:45:59Z</time></trkpt><trkpt lat="45.397634631885694" lon="10.546310298124727"><ele>113.0</ele><time>2026-03-29T08:46:00Z</time></trkpt><trkpt lat="45.397653042777314" lon="10.546511944105271"><ele>113.0</ele><time>2026-03-29T08:46:01Z</time></trkpt><trkpt lat="45.397670575790265" lon="10.546698858267533"><ele>113.0</ele><time>2026-03-29T08:46:02Z</time></trkpt><trkpt lat="45.39766085933611" lon="10.546888452995027"><ele>114.0</ele><time>2026-03-29T08:46:03Z</time></trkpt><trkpt lat="45.39764231616539" lon="10.547088670784689"><ele>115.0</ele><time>2026-03-29T08:46:04Z</time></trkpt><trkpt lat="45.397590827921086" lon="10.547319739339354"><ele>116.0</ele><time>2026-03-29T08:46:05Z</time></trkpt><trkpt lat="45.397528099504584" lon="10.547564671618124"><ele>116.0</ele><time>2026-03-29T08:46:06Z</time></trkpt><trkpt lat="45.3974799262413" lon="10.547762541775144"><ele>116.0</ele><time>2026-03-29T08:46:07Z</time></trkpt><trkpt lat="45.397432394009286" lon="10.54798135046466"><ele>116.0</ele><time>2026-03-29T08:46:08Z</time></trkpt><trkpt lat="45.397401495160246" lon="10.548208730840443"><ele>116.33333333333333</ele><time>2026-03-29T08:46:09Z</time></trkpt><trkpt lat="45.397352467093995" lon="10.548445007990422"><ele>116.66666666666666</ele><time>2026-03-29T08:46:10Z</time></trkpt><trkpt lat="45.39731039556928" lon="10.548731772491282"><ele>117.0</ele><time>2026-03-29T08:46:11Z</time></trkpt><trkpt lat="45.39727614761019" lon="10.548998862069608"><ele>118.0</ele><time>2026-03-29T08:46:12Z</time></trkpt><trkpt lat="45.39724566244423" lon="10.5492463671312"><ele>119.0</ele><time>2026-03-29T08:46:13Z</time></trkpt><trkpt lat="45.39721656106433" lon="10.549486453603656"><ele>120.0</ele><time>2026-03-29T08:46:14Z</time></trkpt><trkpt lat="45.39718518613301" lon="10.549773908803424"><ele>118.66666666666666</ele><time>2026-03-29T08:46:15Z</time></trkpt><trkpt lat="45.397159257427134" lon="10.550049781561883"><ele>117.33333333333333</ele><time>2026-03-29T08:46:16Z</time></trkpt><trkpt lat="45.397131938529384" lon="10.550300640809647"><ele>116.0</ele><time>2026-03-29T08:46:17Z</time></trkpt><trkpt lat="45.397095619166336" lon="10.550518497985808"><ele>115.75</ele><time>2026-03-29T08:46:18Z</time></trkpt><trkpt lat="45.397045549466156" lon="10.550728414304704"><ele>115.5</ele><time>2026-03-29T08:46:19Z</time></trkpt><trkpt lat="45.39699194668382" lon="10.550921627459683"><ele>115.25</ele><time>2026-03-29T08:46:20Z</time></trkpt><trkpt lat="45.39696081639489" lon="10.551115394812424"><ele>115.0</ele><time>2026-03-29T08:46:21Z</time></trkpt><trkpt lat="45.396927374942145" lon="10.551283868310561"><ele>116.00000000000001</ele><time>2026-03-29T08:46:22Z</time></trkpt><trkpt lat="45.396905162984865" lon="10.551428631683402"><ele>117.0</ele><time>2026-03-29T08:46:23Z</time></trkpt><trkpt lat="45.39689374700381" lon="10.551540823118989"><ele>118.0</ele><time>2026-03-29T08:46:24Z</time></trkpt><trkpt lat="45.396892614125825" lon="10.551636970514805"><ele>119.0</ele><time>2026-03-29T08:46:25Z</time></trkpt><trkpt lat="45.396877972421734" lon="10.55174888062493"><ele>120.00000000000001</ele><time>2026-03-29T08:46:27Z</time></trkpt><trkpt lat="45.39680554610473" lon="10.551699204606443"><ele>121.0</ele><time>2026-03-29T08:46:29Z</time></trkpt><trkpt lat="45.39687932884577" lon="10.551720348954145"><ele>121.00000000000001</ele><time>2026-03-29T08:47:00Z</time></trkpt><trkpt lat="45.39678909785732" lon="10.551698018138893"><ele>121.0</ele><time>2026-03-29T08:47:05Z</time></trkpt><trkpt lat="45.396723386038786" lon="10.551691579345782"><ele>121.0</ele><time>2026-03-29T08:47:06Z</time></trkpt><trkpt lat="45.39664457592302" lon="10.5516999942341"><ele>121.0</ele><time>2026-03-29T08:47:07Z</time></trkpt><trkpt lat="45.39655665459762" lon="10.551703095528035"><ele>121.00000000000001</ele><time>2026-03-29T08:47:08Z</time></trkpt><trkpt lat="45.39647949761737" lon="10.55168314298005"><ele>121.0</ele><time>2026-03-29T08:47:09Z</time></trkpt><trkpt lat="45.396382705117624" lon="10.55168659684777"><ele>121.25</ele><time>2026-03-29T08:47:10Z</time></trkpt><trkpt lat="45.39626896208365" lon="10.55169766467033"><ele>121.5</ele><time>2026-03-29T08:47:11Z</time></trkpt><trkpt lat="45.39613312282191" lon="10.551720428425643"><ele>121.75</ele><time>2026-03-29T08:47:12Z</time></trkpt><trkpt lat="45.39599739497141" lon="10.551739658024644"><ele>122.0</ele><time>2026-03-29T08:47:13Z</time></trkpt><trkpt lat="45.39589051568737" lon="10.551761503180012"><ele>122.0</ele><time>2026-03-29T08:47:14Z</time></trkpt><trkpt lat="45.3957805282557" lon="10.551789972804254"><ele>122.0</ele><time>2026-03-29T08:47:15Z</time></trkpt><trkpt lat="45.3956614870786" lon="10.551819607911563"><ele>122.0</ele><time>2026-03-29T08:47:16Z</time></trkpt><trkpt lat="45.39553421491926" lon="10.551831714531295"><ele>122.0</ele><time>2026-03-29T08:47:17Z</time></trkpt><trkpt lat="45.395420633735256" lon="10.55179048687876"><ele>122.25</ele><time>2026-03-29T08:47:18Z</time></trkpt><trkpt lat="45.39530792749081" lon="10.551750097526533"><ele>122.5</ele><time>2026-03-29T08:47:19Z</time></trkpt><trkpt lat="45.39520041573892" lon="10.551701727097111"><ele>122.75</ele><time>2026-03-29T08:47:20Z</time></trkpt><trkpt lat="45.39508680054711" lon="10.551680415913125"><ele>123.0</ele><time>2026-03-29T08:47:21Z</time></trkpt><trkpt lat="45.39497853786837" lon="10.55163399232509"><ele>123.0</ele><time>2026-03-29T08:47:22Z</time></trkpt><trkpt lat="45.39487383214929" lon="10.551604032457162"><ele>123.0</ele><time>2026-03-29T08:47:23Z</time></trkpt><trkpt lat="45.394764937494216" lon="10.551585091122455"><ele>123.0</ele><time>2026-03-29T08:47:24Z</time></trkpt><trkpt lat="45.394630432709334" lon="10.551572877110635"><ele>123.0</ele><time>2026-03-29T08:47:25Z</time></trkpt><trkpt lat="45.39449051583117" lon="10.551553798807088"><ele>121.5</ele><time>2026-03-29T08:47:26Z</time></trkpt><trkpt lat="45.394356250153315" lon="10.551569643158992"><ele>120.0</ele><time>2026-03-29T08:47:27Z</time></trkpt><trkpt lat="45.39421309601662" lon="10.55160329824825"><ele>118.5</ele><time>2026-03-29T08:47:28Z</time></trkpt><trkpt lat="45.394083274924924" lon="10.551644571321967"><ele>117.0</ele><time>2026-03-29T08:47:29Z</time></trkpt><trkpt lat="45.39395643747878" lon="10.551677576506098"><ele>117.0</ele><time>2026-03-29T08:47:30Z</time></trkpt><trkpt lat="45.393844594779466" lon="10.55171690843111"><ele>117.0</ele><time>2026-03-29T08:47:31Z</time></trkpt><trkpt lat="45.39372584593095" lon="10.55176528073577"><ele>117.0</ele><time>2026-03-29T08:47:32Z</time></trkpt><trkpt lat="45.39359840801037" lon="10.551828845028597"><ele>117.0</ele><time>2026-03-29T08:47:33Z</time></trkpt><trkpt lat="45.39346337233359" lon="10.551889284971994"><ele>116.0</ele><time>2026-03-29T08:47:34Z</time></trkpt><trkpt lat="45.393368177640845" lon="10.551932438984378"><ele>114.99999999999999</ele><time>2026-03-29T08:47:35Z</time></trkpt><trkpt lat="45.39329066751241" lon="10.551944033609008"><ele>113.99999999999999</ele><time>2026-03-29T08:47:36Z</time></trkpt><trkpt lat="45.393222623133305" lon="10.551891864104455"><ele>113.0</ele><time>2026-03-29T08:47:37Z</time></trkpt><trkpt lat="45.393132512739044" lon="10.551756338399949"><ele>112.0</ele><time>2026-03-29T08:47:39Z</time></trkpt><trkpt lat="45.393049573996606" lon="10.551681889370514"><ele>111.66666666666667</ele><time>2026-03-29T08:47:40Z</time></trkpt><trkpt lat="45.392984774970536" lon="10.55161765521357"><ele>111.33333333333334</ele><time>2026-03-29T08:47:41Z</time></trkpt><trkpt lat="45.392907966968984" lon="10.551563433274454"><ele>111.0</ele><time>2026-03-29T08:47:42Z</time></trkpt><trkpt lat="45.39282887455687" lon="10.551526410907133"><ele>110.66666666666666</ele><time>2026-03-29T08:47:43Z</time></trkpt><trkpt lat="45.39274896836083" lon="10.551483991663554"><ele>110.33333333333333</ele><time>2026-03-29T08:47:44Z</time></trkpt><trkpt lat="45.39267029580387" lon="10.551447414406534"><ele>110.0</ele><time>2026-03-29T08:47:45Z</time></trkpt><trkpt lat="45.392564881397846" lon="10.55138953401727"><ele>110.0</ele><time>2026-03-29T08:47:46Z</time></trkpt><trkpt lat="45.39244413745717" lon="10.551347725186503"><ele>110.0</ele><time>2026-03-29T08:47:47Z</time></trkpt><trkpt lat="45.39231201330149" lon="10.551302438735295"><ele>110.0</ele><time>2026-03-29T08:47:48Z</time></trkpt><trkpt lat="45.392187700908345" lon="10.551244847391699"><ele>110.0</ele><time>2026-03-29T08:47:49Z</time></trkpt><trkpt lat="45.39205333179767" lon="10.551185455858908"><ele>112.0</ele><time>2026-03-29T08:47:50Z</time></trkpt><trkpt lat="45.39188971003929" lon="10.551124498630898"><ele>114.0</ele><time>2026-03-29T08:47:51Z</time></trkpt><trkpt lat="45.39173052396453" lon="10.5510580753551"><ele>116.0</ele><time>2026-03-29T08:47:52Z</time></trkpt><trkpt lat="45.3915637181793" lon="10.5509856957236"><ele>116.0</ele><time>2026-03-29T08:47:53Z</time></trkpt><trkpt lat="45.391400482770585" lon="10.550928549854909"><ele>116.0</ele><time>2026-03-29T08:47:54Z</time></trkpt><trkpt lat="45.391239300676226" lon="10.550850290521808"><ele>116.0</ele><time>2026-03-29T08:47:55Z</time></trkpt><trkpt lat="45.39108149242434" lon="10.550779457269941"><ele>116.75</ele><time>2026-03-29T08:47:56Z</time></trkpt><trkpt lat="45.39094030324563" lon="10.550705778334557"><ele>117.5</ele><time>2026-03-29T08:47:57Z</time></trkpt><trkpt lat="45.390815040725904" lon="10.55065244034993"><ele>118.25</ele><time>2026-03-29T08:47:58Z</time></trkpt><trkpt lat="45.39072430974472" lon="10.550584121651704"><ele>119.0</ele><time>2026-03-29T08:47:59Z</time></trkpt><trkpt lat="45.39064902797566" lon="10.550467635068276"><ele>120.0</ele><time>2026-03-29T08:48:01Z</time></trkpt><trkpt lat="45.390640034641" lon="10.550340671563438"><ele>121.0</ele><time>2026-03-29T08:48:02Z</time></trkpt><trkpt lat="45.3905978287388" lon="10.550170318722248"><ele>122.0</ele><time>2026-03-29T08:48:03Z</time></trkpt><trkpt lat="45.39053906521287" lon="10.549988637703178"><ele>123.0</ele><time>2026-03-29T08:48:04Z</time></trkpt><trkpt lat="45.3904976608195" lon="10.549802377711947"><ele>123.5</ele><time>2026-03-29T08:48:05Z</time></trkpt><trkpt lat="45.39047172569876" lon="10.549636911658549"><ele>124.0</ele><time>2026-03-29T08:48:06Z</time></trkpt><trkpt lat="45.39042875936429" lon="10.549456483248912"><ele>124.5</ele><time>2026-03-29T08:48:07Z</time></trkpt><trkpt lat="45.39037612508684" lon="10.549270585341594"><ele>125.0</ele><time>2026-03-29T08:48:08Z</time></trkpt><trkpt lat="45.390332040442075" lon="10.549102538788262"><ele>125.0</ele><time>2026-03-29T08:48:09Z</time></trkpt><trkpt lat="45.390289815414626" lon="10.548938887014362"><ele>125.0</ele><time>2026-03-29T08:48:10Z</time></trkpt><trkpt lat="45.39024117333579" lon="10.548767013860498"><ele>125.0</ele><time>2026-03-29T08:48:11Z</time></trkpt><trkpt lat="45.390193894176726" lon="10.548559418335758"><ele>125.0</ele><time>2026-03-29T08:48:12Z</time></trkpt><trkpt lat="45.39014440072353" lon="10.54835653255599"><ele>123.33333333333333</ele><time>2026-03-29T08:48:13Z</time></trkpt><trkpt lat="45.39008614012124" lon="10.548151544137042"><ele>121.66666666666666</ele><time>2026-03-29T08:48:14Z</time></trkpt><trkpt lat="45.39003538560228" lon="10.547912920985192"><ele>120.0</ele><time>2026-03-29T08:48:15Z</time></trkpt><trkpt lat="45.38996016661087" lon="10.547643448617272"><ele>120.0</ele><time>2026-03-29T08:48:16Z</time></trkpt><trkpt lat="45.389879448508616" lon="10.547380774438246"><ele>120.0</ele><time>2026-03-29T08:48:17Z</time></trkpt><trkpt lat="45.38977978016069" lon="10.547135570583162"><ele>120.0</ele><time>2026-03-29T08:48:18Z</time></trkpt><trkpt lat="45.38970401023444" lon="10.546918824683644"><ele>119.66666666666666</ele><time>2026-03-29T08:48:19Z</time></trkpt><trkpt lat="45.38962393930697" lon="10.546682323779498"><ele>119.33333333333333</ele><time>2026-03-29T08:48:20Z</time></trkpt><trkpt lat="45.38954402732554" lon="10.54644647320565"><ele>119.0</ele><time>2026-03-29T08:48:21Z</time></trkpt><trkpt lat="45.38947123279809" lon="10.546250996280792"><ele>120.5</ele><time>2026-03-29T08:48:22Z</time></trkpt><trkpt lat="45.3894043826706" lon="10.546059533746213"><ele>122.0</ele><time>2026-03-29T08:48:23Z</time></trkpt><trkpt lat="45.38935092384716" lon="10.545860392617083"><ele>123.5</ele><time>2026-03-29T08:48:24Z</time></trkpt><trkpt lat="45.38928467475499" lon="10.54569753229929"><ele>125.0</ele><time>2026-03-29T08:48:25Z</time></trkpt><trkpt lat="45.38924432837082" lon="10.545563433228065"><ele>125.0</ele><time>2026-03-29T08:48:26Z</time></trkpt><trkpt lat="45.389189875817635" lon="10.545433039963134"><ele>125.0</ele><time>2026-03-29T08:48:27Z</time></trkpt><trkpt lat="45.389131335286564" lon="10.545309593049046"><ele>125.0</ele><time>2026-03-29T08:48:28Z</time></trkpt><trkpt lat="45.38909340524179" lon="10.545184676491575"><ele>125.0</ele><time>2026-03-29T08:48:29Z</time></trkpt><trkpt lat="45.38908168719806" lon="10.545059975333908"><ele>125.0</ele><time>2026-03-29T08:48:31Z</time></trkpt><trkpt lat="45.38906386168774" lon="10.544952723242723"><ele>125.4</ele><time>2026-03-29T08:51:43Z</time></trkpt><trkpt lat="45.38894141816813" lon="10.544947657237756"><ele>125.8</ele><time>2026-03-29T08:51:47Z</time></trkpt><trkpt lat="45.38884796254754" lon="10.5450819554436"><ele>126.19999999999999</ele><time>2026-03-29T08:51:57Z</time></trkpt><trkpt lat="45.388794892630884" lon="10.545161514894225"><ele>126.6</ele><time>2026-03-29T08:51:58Z</time></trkpt><trkpt lat="45.38874236554464" lon="10.545251775455524"><ele>127.0</ele><time>2026-03-29T08:51:59Z</time></trkpt><trkpt lat="45.388660824431945" lon="10.545347039070387"><ele>126.0</ele><time>2026-03-29T08:52:00Z</time></trkpt><trkpt lat="45.38858908303294" lon="10.545473070631594"><ele>125.0</ele><time>2026-03-29T08:52:01Z</time></trkpt><trkpt lat="45.388506195042524" lon="10.545602965741429"><ele>124.0</ele><time>2026-03-29T08:52:02Z</time></trkpt><trkpt lat="45.38841391041311" lon="10.545730841708428"><ele>123.0</ele><time>2026-03-29T08:52:03Z</time></trkpt><trkpt lat="45.38832481980936" lon="10.545853630519021"><ele>123.0</ele><time>2026-03-29T08:52:04Z</time></trkpt><trkpt lat="45.38821174624219" lon="10.545960623435265"><ele>123.0</ele><time>2026-03-29T08:52:05Z</time></trkpt><trkpt lat="45.38808204184651" lon="10.546097291369142"><ele>123.0</ele><time>2026-03-29T08:52:06Z</time></trkpt><trkpt lat="45.38796434280177" lon="10.546235500504643"><ele>123.25</ele><time>2026-03-29T08:52:07Z</time></trkpt><trkpt lat="45.387853240073376" lon="10.546345031308194"><ele>123.5</ele><time>2026-03-29T08:52:08Z</time></trkpt><trkpt lat="45.38773318539452" lon="10.546474200915515"><ele>123.75</ele><time>2026-03-29T08:52:09Z</time></trkpt><trkpt lat="45.38761127050034" lon="10.546603703509811"><ele>124.0</ele><time>2026-03-29T08:52:10Z</time></trkpt><trkpt lat="45.38748997988754" lon="10.54674940588539"><ele>124.0</ele><time>2026-03-29T08:52:11Z</time></trkpt><trkpt lat="45.38735111082854" lon="10.546857879991794"><ele>124.0</ele><time>2026-03-29T08:52:12Z</time></trkpt><trkpt lat="45.387218331368615" lon="10.546992106163268"><ele>124.0</ele><time>2026-03-29T08:52:13Z</time></trkpt><trkpt lat="45.387088295488965" lon="10.547144381323973"><ele>124.25</ele><time>2026-03-29T08:52:14Z</time></trkpt><trkpt lat="45.38696702852161" lon="10.547267483976583"><ele>124.5</ele><time>2026-03-29T08:52:15Z</time></trkpt><trkpt lat="45.3868636504008" lon="10.547378974953554"><ele>124.75</ele><time>2026-03-29T08:52:16Z</time></trkpt><trkpt lat="45.38674667682847" lon="10.547497457072813"><ele>125.0</ele><time>2026-03-29T08:52:17Z</time></trkpt><trkpt lat="45.38664460419267" lon="10.54759592073825"><ele>125.0</ele><time>2026-03-29T08:52:18Z</time></trkpt><trkpt lat="45.386560537028" lon="10.547676791434485"><ele>125.0</ele><time>2026-03-29T08:52:19Z</time></trkpt><trkpt lat="45.3864837703289" lon="10.547764654197952"><ele>125.0</ele><time>2026-03-29T08:52:20Z</time></trkpt><trkpt lat="45.386411501223556" lon="10.547851488867446"><ele>125.0</ele><time>2026-03-29T08:52:21Z</time></trkpt><trkpt lat="45.386344077481226" lon="10.547919188942547"><ele>125.0</ele><time>2026-03-29T08:52:22Z</time></trkpt><trkpt lat="45.38627572115842" lon="10.54797530360615"><ele>125.0</ele><time>2026-03-29T08:52:23Z</time></trkpt><trkpt lat="45.386201816590756" lon="10.548047419724368"><ele>125.0</ele><time>2026-03-29T08:52:24Z</time></trkpt><trkpt lat="45.386129919493534" lon="10.548120187629848"><ele>125.0</ele><time>2026-03-29T08:52:25Z</time></trkpt><trkpt lat="45.38605324252948" lon="10.548180169168871"><ele>125.0</ele><time>2026-03-29T08:52:26Z</time></trkpt><trkpt lat="45.385971741917636" lon="10.548245786050249"><ele>125.0</ele><time>2026-03-29T08:52:27Z</time></trkpt><trkpt lat="45.38588511310772" lon="10.548297638239708"><ele>125.0</ele><time>2026-03-29T08:52:28Z</time></trkpt><trkpt lat="45.38581301027203" lon="10.548337793806986"><ele>125.0</ele><time>2026-03-29T08:52:29Z</time></trkpt><trkpt lat="45.38574079884078" lon="10.548389667579576"><ele>125.0</ele><time>2026-03-29T08:52:30Z</time></trkpt><trkpt lat="45.38567655243831" lon="10.548468627486951"><ele>125.0</ele><time>2026-03-29T08:52:31Z</time></trkpt><trkpt lat="45.38561167114497" lon="10.548567942200913"><ele>125.0</ele><time>2026-03-29T08:52:32Z</time></trkpt><trkpt lat="45.38553073633244" lon="10.548697165980814"><ele>126.0</ele><time>2026-03-29T08:52:33Z</time></trkpt><trkpt lat="45.38542896790084" lon="10.548817851679503"><ele>127.0</ele><time>2026-03-29T08:52:34Z</time></trkpt><trkpt lat="45.38532866208865" lon="10.548968776782708"><ele>128.0</ele><time>2026-03-29T08:52:35Z</time></trkpt><trkpt lat="45.38523419422018" lon="10.549108106238073"><ele>129.0</ele><time>2026-03-29T08:52:36Z</time></trkpt><trkpt lat="45.385130515800064" lon="10.549231529226796"><ele>129.0</ele><time>2026-03-29T08:52:37Z</time></trkpt><trkpt lat="45.385032545179925" lon="10.549337920323627"><ele>129.0</ele><time>2026-03-29T08:52:38Z</time></trkpt><trkpt lat="45.384941576469885" lon="10.54944535750875"><ele>129.0</ele><time>2026-03-29T08:52:39Z</time></trkpt><trkpt lat="45.38483674488628" lon="10.549548600643988"><ele>129.0</ele><time>2026-03-29T08:52:40Z</time></trkpt><trkpt lat="45.38471874494878" lon="10.549614907080354"><ele>130.25</ele><time>2026-03-29T08:52:41Z</time></trkpt><trkpt lat="45.38461925367526" lon="10.549703010156133"><ele>131.5</ele><time>2026-03-29T08:52:42Z</time></trkpt><trkpt lat="45.384513953760504" lon="10.549773927518544"><ele>132.75</ele><time>2026-03-29T08:52:43Z</time></trkpt><trkpt lat="45.38439023618682" lon="10.549834935530823"><ele>134.0</ele><time>2026-03-29T08:52:44Z</time></trkpt><trkpt lat="45.384259752853325" lon="10.54988098432806"><ele>134.0</ele><time>2026-03-29T08:52:45Z</time></trkpt><trkpt lat="45.384136893497256" lon="10.549951787949812"><ele>134.0</ele><time>2026-03-29T08:52:46Z</time></trkpt><trkpt lat="45.38398598772479" lon="10.550014512115027"><ele>134.0</ele><time>2026-03-29T08:52:47Z</time></trkpt><trkpt lat="45.38383980463759" lon="10.550102357558094"><ele>134.0</ele><time>2026-03-29T08:52:48Z</time></trkpt><trkpt lat="45.3837191215408" lon="10.550172477606385"><ele>132.75</ele><time>2026-03-29T08:52:49Z</time></trkpt><trkpt lat="45.38359890032039" lon="10.55025991419383"><ele>131.5</ele><time>2026-03-29T08:52:50Z</time></trkpt><trkpt lat="45.383494896519494" lon="10.550336388834614"><ele>130.25</ele><time>2026-03-29T08:52:51Z</time></trkpt><trkpt lat="45.38340424496749" lon="10.550411166307246"><ele>129.0</ele><time>2026-03-29T08:52:52Z</time></trkpt><trkpt lat="45.383319386834245" lon="10.550472558357415"><ele>129.0</ele><time>2026-03-29T08:52:53Z</time></trkpt><trkpt lat="45.38321077462088" lon="10.550570721095268"><ele>129.0</ele><time>2026-03-29T08:52:54Z</time></trkpt><trkpt lat="45.38309382664013" lon="10.550672474068028"><ele>129.0</ele><time>2026-03-29T08:52:55Z</time></trkpt><trkpt lat="45.38299486438292" lon="10.550776171626998"><ele>129.0</ele><time>2026-03-29T08:52:56Z</time></trkpt><trkpt lat="45.38288514635499" lon="10.550851878728391"><ele>128.5</ele><time>2026-03-29T08:52:57Z</time></trkpt><trkpt lat="45.382787799145895" lon="10.550950835013289"><ele>128.0</ele><time>2026-03-29T08:52:58Z</time></trkpt><trkpt lat="45.382658212563946" lon="10.551027226478102"><ele>127.5</ele><time>2026-03-29T08:52:59Z</time></trkpt><trkpt lat="45.3825114212379" lon="10.551109708203557"><ele>127.0</ele><time>2026-03-29T08:53:00Z</time></trkpt><trkpt lat="45.382383174702376" lon="10.551168746866004"><ele>126.6</ele><time>2026-03-29T08:53:01Z</time></trkpt><trkpt lat="45.38228336495693" lon="10.551216241802685"><ele>126.19999999999999</ele><time>2026-03-29T08:53:02Z</time></trkpt><trkpt lat="45.38218085682308" lon="10.551252590323802"><ele>125.8</ele><time>2026-03-29T08:53:03Z</time></trkpt><trkpt lat="45.38210353416096" lon="10.551289485238604"><ele>125.4</ele><time>2026-03-29T08:53:04Z</time></trkpt><trkpt lat="45.382017830106804" lon="10.551327186236634"><ele>125.0</ele><time>2026-03-29T08:53:05Z</time></trkpt><trkpt lat="45.381924534935315" lon="10.551369566599277"><ele>125.0</ele><time>2026-03-29T08:53:06Z</time></trkpt><trkpt lat="45.38181398452387" lon="10.551429394255237"><ele>125.0</ele><time>2026-03-29T08:53:07Z</time></trkpt><trkpt lat="45.381708444009305" lon="10.551481718699074"><ele>125.0</ele><time>2026-03-29T08:53:08Z</time></trkpt><trkpt lat="45.38160785088655" lon="10.55153491571879"><ele>125.0</ele><time>2026-03-29T08:53:09Z</time></trkpt><trkpt lat="45.38149605215302" lon="10.551609764446715"><ele>125.0</ele><time>2026-03-29T08:53:10Z</time></trkpt><trkpt lat="45.38136059367559" lon="10.551700570736472"><ele>125.0</ele><time>2026-03-29T08:53:11Z</time></trkpt><trkpt lat="45.38123326466364" lon="10.551790299958347"><ele>125.0</ele><time>2026-03-29T08:53:12Z</time></trkpt><trkpt lat="45.38112820966718" lon="10.551883013367318"><ele>125.0</ele><time>2026-03-29T08:53:13Z</time></trkpt><trkpt lat="45.381041301763254" lon="10.551956347959269"><ele>124.8</ele><time>2026-03-29T08:53:14Z</time></trkpt><trkpt lat="45.38095646006981" lon="10.552032530926835"><ele>124.6</ele><time>2026-03-29T08:53:15Z</time></trkpt><trkpt lat="45.380848249641" lon="10.552094319852799"><ele>124.4</ele><time>2026-03-29T08:53:16Z</time></trkpt><trkpt lat="45.38076478544362" lon="10.552181987775452"><ele>124.2</ele><time>2026-03-29T08:53:17Z</time></trkpt><trkpt lat="45.38066249298271" lon="10.552237143734747"><ele>124.0</ele><time>2026-03-29T08:53:18Z</time></trkpt><trkpt lat="45.38057333017087" lon="10.55231461814405"><ele>123.83333333333334</ele><time>2026-03-29T08:53:19Z</time></trkpt><trkpt lat="45.380499837309" lon="10.552393406248164"><ele>123.66666666666667</ele><time>2026-03-29T08:53:20Z</time></trkpt><trkpt lat="45.38043759680791" lon="10.55248834012108"><ele>123.5</ele><time>2026-03-29T08:53:21Z</time></trkpt><trkpt lat="45.38039077797233" lon="10.552585989113375"><ele>123.33333333333334</ele><time>2026-03-29T08:53:22Z</time></trkpt><trkpt lat="45.38035940513185" lon="10.552686064882224"><ele>123.16666666666667</ele><time>2026-03-29T08:53:23Z</time></trkpt><trkpt lat="45.38035784730191" lon="10.55282011028101"><ele>123.0</ele><time>2026-03-29T08:53:24Z</time></trkpt><trkpt lat="45.38036775781318" lon="10.552961406420238"><ele>123.0</ele><time>2026-03-29T08:53:25Z</time></trkpt><trkpt lat="45.380349561716606" lon="10.553104530529772"><ele>123.00000000000001</ele><time>2026-03-29T08:53:26Z</time></trkpt><trkpt lat="45.38035097236978" lon="10.553231570864881"><ele>123.00000000000001</ele><time>2026-03-29T08:53:27Z</time></trkpt><trkpt lat="45.38037625453681" lon="10.55332733716825"><ele>123.0</ele><time>2026-03-29T08:53:28Z</time></trkpt><trkpt lat="45.38042069090067" lon="10.55347490852178"><ele>123.0</ele><time>2026-03-29T08:53:30Z</time></trkpt><trkpt lat="45.380503988753695" lon="10.553546784815882"><ele>123.2</ele><time>2026-03-29T08:53:31Z</time></trkpt><trkpt lat="45.38056482301081" lon="10.553647332188325"><ele>123.4</ele><time>2026-03-29T08:53:32Z</time></trkpt><trkpt lat="45.380646039510715" lon="10.55375510650819"><ele>123.60000000000001</ele><time>2026-03-29T08:53:33Z</time></trkpt><trkpt lat="45.380710680701924" lon="10.55386208652529"><ele>123.80000000000001</ele><time>2026-03-29T08:53:34Z</time></trkpt><trkpt lat="45.38074840144238" lon="10.553959105758159"><ele>124.0</ele><time>2026-03-29T08:53:35Z</time></trkpt><trkpt lat="45.38076922840894" lon="10.554064061667372"><ele>124.0</ele><time>2026-03-29T08:53:36Z</time></trkpt><trkpt lat="45.38075080084643" lon="10.554185874575161"><ele>124.0</ele><time>2026-03-29T08:53:37Z</time></trkpt><trkpt lat="45.38072631236163" lon="10.554306192882802"><ele>124.0</ele><time>2026-03-29T08:53:38Z</time></trkpt><trkpt lat="45.38067585066726" lon="10.554447678179216"><ele>124.0</ele><time>2026-03-29T08:53:39Z</time></trkpt><trkpt lat="45.380605169935755" lon="10.554600012356778"><ele>124.0</ele><time>2026-03-29T08:53:40Z</time></trkpt><trkpt lat="45.380524639125774" lon="10.554772868497787"><ele>124.25</ele><time>2026-03-29T08:53:41Z</time></trkpt><trkpt lat="45.38046457614953" lon="10.554936330929051"><ele>124.5</ele><time>2026-03-29T08:53:42Z</time></trkpt><trkpt lat="45.38039967401603" lon="10.555077917351927"><ele>124.75</ele><time>2026-03-29T08:53:43Z</time></trkpt><trkpt lat="45.38031616819155" lon="10.555255807434053"><ele>125.0</ele><time>2026-03-29T08:53:44Z</time></trkpt><trkpt lat="45.38025660377041" lon="10.555441872478571"><ele>125.6</ele><time>2026-03-29T08:53:45Z</time></trkpt><trkpt lat="45.38021028905015" lon="10.555589255688197"><ele>126.2</ele><time>2026-03-29T08:53:46Z</time></trkpt><trkpt lat="45.38017112003062" lon="10.555689113091828"><ele>126.80000000000001</ele><time>2026-03-29T08:53:47Z</time></trkpt><trkpt lat="45.380109807668376" lon="10.55581305107598"><ele>127.4</ele><time>2026-03-29T08:53:49Z</time></trkpt><trkpt lat="45.38005636515746" lon="10.5559245078061"><ele>128.0</ele><time>2026-03-29T08:53:50Z</time></trkpt><trkpt lat="45.37994142541964" lon="10.55607491287905"><ele>128.0</ele><time>2026-03-29T08:53:51Z</time></trkpt><trkpt lat="45.37982250443345" lon="10.556209594493406"><ele>128.0</ele><time>2026-03-29T08:53:52Z</time></trkpt><trkpt lat="45.379705127538394" lon="10.556321049746817"><ele>128.0</ele><time>2026-03-29T08:53:53Z</time></trkpt><trkpt lat="45.37959404369503" lon="10.556411092885257"><ele>128.0</ele><time>2026-03-29T08:53:54Z</time></trkpt><trkpt lat="45.37948488263893" lon="10.556506117508887"><ele>128.0</ele><time>2026-03-29T08:53:55Z</time></trkpt><trkpt lat="45.3793672598309" lon="10.556638524096423"><ele>128.0</ele><time>2026-03-29T08:53:56Z</time></trkpt><trkpt lat="45.37925772088537" lon="10.556771374022967"><ele>128.0</ele><time>2026-03-29T08:53:57Z</time></trkpt><trkpt lat="45.379165864487625" lon="10.556899556772606"><ele>128.0</ele><time>2026-03-29T08:53:58Z</time></trkpt><trkpt lat="45.379092044889035" lon="10.557025670838707"><ele>128.25</ele><time>2026-03-29T08:53:59Z</time></trkpt><trkpt lat="45.37903086702105" lon="10.557168065280207"><ele>128.5</ele><time>2026-03-29T08:54:00Z</time></trkpt><trkpt lat="45.37895596564679" lon="10.557305801252877"><ele>128.75</ele><time>2026-03-29T08:54:01Z</time></trkpt><trkpt lat="45.378885794005896" lon="10.557473346837858"><ele>129.0</ele><time>2026-03-29T08:54:02Z</time></trkpt><trkpt lat="45.378823855820315" lon="10.55764941335832"><ele>129.4</ele><time>2026-03-29T08:54:03Z</time></trkpt><trkpt lat="45.378758215869766" lon="10.557800983439394"><ele>129.8</ele><time>2026-03-29T08:54:04Z</time></trkpt><trkpt lat="45.378706883869846" lon="10.55794457521776"><ele>130.2</ele><time>2026-03-29T08:54:05Z</time></trkpt><trkpt lat="45.37865249664885" lon="10.55805042949028"><ele>130.6</ele><time>2026-03-29T08:54:06Z</time></trkpt><trkpt lat="45.37860971191225" lon="10.55816403402169"><ele>131.0</ele><time>2026-03-29T08:54:07Z</time></trkpt><trkpt lat="45.378581196768245" lon="10.558290320143614"><ele>131.0</ele><time>2026-03-29T08:54:08Z</time></trkpt><trkpt lat="45.37853306618779" lon="10.558378584735642"><ele>131.0</ele><time>2026-03-29T08:54:09Z</time></trkpt><trkpt lat="45.37850713610087" lon="10.558465596312102"><ele>131.0</ele><time>2026-03-29T08:54:12Z</time></trkpt><trkpt lat="45.37857779235321" lon="10.558545392559783"><ele>131.0</ele><time>2026-03-29T08:54:14Z</time></trkpt><trkpt lat="45.37866522854224" lon="10.558595352432292"><ele>131.0</ele><time>2026-03-29T08:54:15Z</time></trkpt><trkpt lat="45.37878052898614" lon="10.558680961532641"><ele>130.5</ele><time>2026-03-29T08:54:16Z</time></trkpt><trkpt lat="45.378897904110715" lon="10.558777605526668"><ele>130.0</ele><time>2026-03-29T08:54:17Z</time></trkpt><trkpt lat="45.379003048765156" lon="10.55886271983245"><ele>129.5</ele><time>2026-03-29T08:54:18Z</time></trkpt><trkpt lat="45.379119107036765" lon="10.55895865475741"><ele>129.0</ele><time>2026-03-29T08:54:19Z</time></trkpt><trkpt lat="45.37923097583546" lon="10.559063107695641"><ele>129.0</ele><time>2026-03-29T08:54:20Z</time></trkpt><trkpt lat="45.37932551931983" lon="10.559167424000572"><ele>129.0</ele><time>2026-03-29T08:54:21Z</time></trkpt><trkpt lat="45.37940362530672" lon="10.559295870477975"><ele>129.0</ele><time>2026-03-29T08:54:22Z</time></trkpt><trkpt lat="45.37946835623598" lon="10.559451907848045"><ele>129.0</ele><time>2026-03-29T08:54:23Z</time></trkpt><trkpt lat="45.37953121758472" lon="10.559611188788677"><ele>128.5</ele><time>2026-03-29T08:54:24Z</time></trkpt><trkpt lat="45.37960235622371" lon="10.559775618337754"><ele>128.0</ele><time>2026-03-29T08:54:25Z</time></trkpt><trkpt lat="45.379670056056376" lon="10.559930894796551"><ele>127.5</ele><time>2026-03-29T08:54:26Z</time></trkpt><trkpt lat="45.3797228161886" lon="10.560089435604608"><ele>127.0</ele><time>2026-03-29T08:54:27Z</time></trkpt><trkpt lat="45.37979972007735" lon="10.560227059167989"><ele>125.5</ele><time>2026-03-29T08:54:28Z</time></trkpt><trkpt lat="45.379864083341936" lon="10.56036712825333"><ele>124.0</ele><time>2026-03-29T08:54:29Z</time></trkpt><trkpt lat="45.37994743071295" lon="10.560493122023482"><ele>122.5</ele><time>2026-03-29T08:54:30Z</time></trkpt><trkpt lat="45.3800614068981" lon="10.560601651437516"><ele>121.0</ele><time>2026-03-29T08:54:31Z</time></trkpt><trkpt lat="45.38018190999995" lon="10.560668173988535"><ele>121.0</ele><time>2026-03-29T08:54:32Z</time></trkpt><trkpt lat="45.38031610977497" lon="10.560694934467366"><ele>121.0</ele><time>2026-03-29T08:54:33Z</time></trkpt><trkpt lat="45.38043949946656" lon="10.560765767175939"><ele>121.0</ele><time>2026-03-29T08:54:34Z</time></trkpt><trkpt lat="45.380564925109454" lon="10.560811431917472"><ele>121.0</ele><time>2026-03-29T08:54:35Z</time></trkpt><trkpt lat="45.380690501798824" lon="10.56085414546216"><ele>120.25</ele><time>2026-03-29T08:54:36Z</time></trkpt><trkpt lat="45.38082348195651" lon="10.560896021591972"><ele>119.5</ele><time>2026-03-29T08:54:37Z</time></trkpt><trkpt lat="45.38095588798259" lon="10.560937691287247"><ele>118.75</ele><time>2026-03-29T08:54:38Z</time></trkpt><trkpt lat="45.381080709209584" lon="10.560976721383394"><ele>118.0</ele><time>2026-03-29T08:54:39Z</time></trkpt><trkpt lat="45.381193327418956" lon="10.5609896832915"><ele>118.0</ele><time>2026-03-29T08:54:40Z</time></trkpt><trkpt lat="45.38131317936318" lon="10.561024249446156"><ele>118.0</ele><time>2026-03-29T08:54:41Z</time></trkpt><trkpt lat="45.38143329291895" lon="10.561068351610523"><ele>118.0</ele><time>2026-03-29T08:54:42Z</time></trkpt><trkpt lat="45.38154354144163" lon="10.561103390226522"><ele>118.0</ele><time>2026-03-29T08:54:43Z</time></trkpt><trkpt lat="45.38164980047357" lon="10.561139086730114"><ele>117.0</ele><time>2026-03-29T08:54:44Z</time></trkpt><trkpt lat="45.38176436798857" lon="10.561174667572537"><ele>116.0</ele><time>2026-03-29T08:54:45Z</time></trkpt><trkpt lat="45.38188278856781" lon="10.56121127324605"><ele>115.0</ele><time>2026-03-29T08:54:46Z</time></trkpt><trkpt lat="45.38199598487966" lon="10.561242730651738"><ele>114.0</ele><time>2026-03-29T08:54:47Z</time></trkpt><trkpt lat="45.38209565412221" lon="10.561281163973293"><ele>113.6</ele><time>2026-03-29T08:54:48Z</time></trkpt><trkpt lat="45.382196068207136" lon="10.561258158532896"><ele>113.2</ele><time>2026-03-29T08:54:49Z</time></trkpt><trkpt lat="45.38229001422192" lon="10.56121170002621"><ele>112.79999999999998</ele><time>2026-03-29T08:54:50Z</time></trkpt><trkpt lat="45.38239061815317" lon="10.561132926326279"><ele>112.39999999999999</ele><time>2026-03-29T08:54:51Z</time></trkpt><trkpt lat="45.3824870615191" lon="10.561036096674457"><ele>112.0</ele><time>2026-03-29T08:54:52Z</time></trkpt><trkpt lat="45.38258102928903" lon="10.560916847101353"><ele>112.0</ele><time>2026-03-29T08:54:53Z</time></trkpt><trkpt lat="45.38267396445926" lon="10.56079032934896"><ele>112.0</ele><time>2026-03-29T08:54:54Z</time></trkpt><trkpt lat="45.38277889020619" lon="10.560670540542242"><ele>112.0</ele><time>2026-03-29T08:54:55Z</time></trkpt><trkpt lat="45.38295061064598" lon="10.560478623087604"><ele>111.6</ele><time>2026-03-29T08:54:57Z</time></trkpt><trkpt lat="45.38302717005356" lon="10.560413423101293"><ele>111.19999999999999</ele><time>2026-03-29T08:54:58Z</time></trkpt><trkpt lat="45.38310518020407" lon="10.560348212113393"><ele>110.8</ele><time>2026-03-29T08:54:59Z</time></trkpt><trkpt lat="45.383199191601484" lon="10.560300259556548"><ele>110.4</ele><time>2026-03-29T08:55:00Z</time></trkpt><trkpt lat="45.38330599447625" lon="10.560273279296606"><ele>110.0</ele><time>2026-03-29T08:55:01Z</time></trkpt><trkpt lat="45.383423781351574" lon="10.560296519654775"><ele>110.0</ele><time>2026-03-29T08:55:02Z</time></trkpt><trkpt lat="45.383535458750266" lon="10.560325818305042"><ele>110.0</ele><time>2026-03-29T08:55:03Z</time></trkpt><trkpt lat="45.38364521475729" lon="10.5603572847762"><ele>110.0</ele><time>2026-03-29T08:55:04Z</time></trkpt><trkpt lat="45.383762595815654" lon="10.560391138821053"><ele>110.0</ele><time>2026-03-29T08:55:05Z</time></trkpt><trkpt lat="45.383874018651845" lon="10.560425167335486"><ele>109.5</ele><time>2026-03-29T08:55:06Z</time></trkpt><trkpt lat="45.38399172882261" lon="10.560438086511713"><ele>109.0</ele><time>2026-03-29T08:55:07Z</time></trkpt><trkpt lat="45.384106044226606" lon="10.560480731789431"><ele>108.5</ele><time>2026-03-29T08:55:08Z</time></trkpt><trkpt lat="45.38421825298648" lon="10.560509895095711"><ele>108.0</ele><time>2026-03-29T08:55:09Z</time></trkpt><trkpt lat="45.384328868232465" lon="10.56054469824118"><ele>108.0</ele><time>2026-03-29T08:55:10Z</time></trkpt><trkpt lat="45.384435246596766" lon="10.56058237351926"><ele>108.0</ele><time>2026-03-29T08:55:11Z</time></trkpt><trkpt lat="45.38465187002736" lon="10.560652305261932"><ele>108.0</ele><time>2026-03-29T08:55:13Z</time></trkpt><trkpt lat="45.38478166893924" lon="10.560693038130958"><ele>107.33333333333334</ele><time>2026-03-29T08:55:14Z</time></trkpt><trkpt lat="45.38494692279999" lon="10.560746155499638"><ele>106.66666666666667</ele><time>2026-03-29T08:55:15Z</time></trkpt><trkpt lat="45.38512462984339" lon="10.560804842335086"><ele>106.0</ele><time>2026-03-29T08:55:16Z</time></trkpt><trkpt lat="45.38531005852614" lon="10.56088669539474"><ele>105.33333333333334</ele><time>2026-03-29T08:55:17Z</time></trkpt><trkpt lat="45.38552635050361" lon="10.560955591220122"><ele>104.66666666666666</ele><time>2026-03-29T08:55:18Z</time></trkpt><trkpt lat="45.385745224737036" lon="10.561026950481315"><ele>104.0</ele><time>2026-03-29T08:55:19Z</time></trkpt><trkpt lat="45.38595797298906" lon="10.56110036354206"><ele>104.0</ele><time>2026-03-29T08:55:20Z</time></trkpt><trkpt lat="45.38617122532231" lon="10.56117203943228"><ele>104.0</ele><time>2026-03-29T08:55:21Z</time></trkpt><trkpt lat="45.38639742895925" lon="10.561248903700244"><ele>104.66666666666666</ele><time>2026-03-29T08:55:22Z</time></trkpt><trkpt lat="45.38659757377339" lon="10.561299434586543"><ele>105.33333333333334</ele><time>2026-03-29T08:55:23Z</time></trkpt><trkpt lat="45.38678556155534" lon="10.561371827740231"><ele>106.0</ele><time>2026-03-29T08:55:24Z</time></trkpt><trkpt lat="45.38697656400744" lon="10.561426320302871"><ele>106.0</ele><time>2026-03-29T08:55:25Z</time></trkpt><trkpt lat="45.38714159160135" lon="10.561470674132531"><ele>106.0</ele><time>2026-03-29T08:55:26Z</time></trkpt><trkpt lat="45.38728889809557" lon="10.561498650606094"><ele>106.0</ele><time>2026-03-29T08:55:27Z</time></trkpt><trkpt lat="45.38744359545744" lon="10.561504782614731"><ele>107.33333333333334</ele><time>2026-03-29T08:55:28Z</time></trkpt><trkpt lat="45.38759735170604" lon="10.561470351390787"><ele>108.66666666666666</ele><time>2026-03-29T08:55:29Z</time></trkpt><trkpt lat="45.3877437287585" lon="10.56139172286171"><ele>110.0</ele><time>2026-03-29T08:55:30Z</time></trkpt><trkpt lat="45.387869620669846" lon="10.56127715111828"><ele>109.0</ele><time>2026-03-29T08:55:31Z</time></trkpt><trkpt lat="45.38800057694488" lon="10.561122339553092"><ele>108.0</ele><time>2026-03-29T08:55:32Z</time></trkpt><trkpt lat="45.38814729431482" lon="10.560994812816018"><ele>107.0</ele><time>2026-03-29T08:55:33Z</time></trkpt><trkpt lat="45.38827949604896" lon="10.560873055704144"><ele>110.0</ele><time>2026-03-29T08:55:34Z</time></trkpt><trkpt lat="45.38839204668811" lon="10.560771819712995"><ele>113.0</ele><time>2026-03-29T08:55:35Z</time></trkpt><trkpt lat="45.38852143438979" lon="10.56073277261633"><ele>116.0</ele><time>2026-03-29T08:55:36Z</time></trkpt><trkpt lat="45.38865722763009" lon="10.560767227151123"><ele>119.0</ele><time>2026-03-29T08:55:37Z</time></trkpt><trkpt lat="45.38880169201111" lon="10.56080518147254"><ele>120.66666666666666</ele><time>2026-03-29T08:55:38Z</time></trkpt><trkpt lat="45.38894638129637" lon="10.560836708462098"><ele>122.33333333333334</ele><time>2026-03-29T08:55:39Z</time></trkpt><trkpt lat="45.389111257465885" lon="10.560881824787405"><ele>124.0</ele><time>2026-03-29T08:55:40Z</time></trkpt><trkpt lat="45.38928615894407" lon="10.560936087480236"><ele>124.0</ele><time>2026-03-29T08:55:41Z</time></trkpt><trkpt lat="45.38944701179334" lon="10.560990561988639"><ele>124.0</ele><time>2026-03-29T08:55:42Z</time></trkpt><trkpt lat="45.389590981224686" lon="10.561052149348896"><ele>124.0</ele><time>2026-03-29T08:55:43Z</time></trkpt><trkpt lat="45.38973194978539" lon="10.561093544594794"><ele>122.33333333333334</ele><time>2026-03-29T08:55:44Z</time></trkpt><trkpt lat="45.389879240538725" lon="10.561134086103582"><ele>120.66666666666666</ele><time>2026-03-29T08:55:45Z</time></trkpt><trkpt lat="45.39003308357933" lon="10.561181638749234"><ele>119.0</ele><time>2026-03-29T08:55:46Z</time></trkpt><trkpt lat="45.39017753203537" lon="10.561225197221942"><ele>119.0</ele><time>2026-03-29T08:55:47Z</time></trkpt><trkpt lat="45.39031426226092" lon="10.561271304755552"><ele>119.0</ele><time>2026-03-29T08:55:48Z</time></trkpt><trkpt lat="45.39044725611973" lon="10.56131736444008"><ele>119.0</ele><time>2026-03-29T08:55:49Z</time></trkpt><trkpt lat="45.39057357126092" lon="10.561354010718404"><ele>119.0</ele><time>2026-03-29T08:55:50Z</time></trkpt><trkpt lat="45.39069571463319" lon="10.561388769640766"><ele>118.4</ele><time>2026-03-29T08:55:51Z</time></trkpt><trkpt lat="45.39080826230206" lon="10.561437477411399"><ele>117.80000000000001</ele><time>2026-03-29T08:55:52Z</time></trkpt><trkpt lat="45.39091497209765" lon="10.561462905502736"><ele>117.19999999999999</ele><time>2026-03-29T08:55:53Z</time></trkpt><trkpt lat="45.39100561896571" lon="10.561482998160672"><ele>116.6</ele><time>2026-03-29T08:55:54Z</time></trkpt><trkpt lat="45.391079311066626" lon="10.561504288990676"><ele>116.0</ele><time>2026-03-29T08:55:55Z</time></trkpt><trkpt lat="45.391154441103865" lon="10.561527965690274"><ele>116.0</ele><time>2026-03-29T08:55:57Z</time></trkpt><trkpt lat="45.39108631728499" lon="10.561746285606448"><ele>116.0</ele><time>2026-03-29T08:56:04Z</time></trkpt><trkpt lat="45.39107953911157" lon="10.561855523025411"><ele>116.0</ele><time>2026-03-29T08:56:07Z</time></trkpt><trkpt lat="45.391274101128175" lon="10.561534026573112"><ele>116.0</ele><time>2026-03-29T08:56:09Z</time></trkpt><trkpt lat="45.39135893280034" lon="10.561545415679795"><ele>116.0</ele><time>2026-03-29T08:56:12Z</time></trkpt><trkpt lat="45.39142755641603" lon="10.561565578389116"><ele>116.0</ele><time>2026-03-29T08:56:14Z</time></trkpt><trkpt lat="45.39151323486569" lon="10.561524734596352"><ele>116.0</ele><time>2026-03-29T08:56:16Z</time></trkpt><trkpt lat="45.39107817769787" lon="10.561732886139383"><ele>115.99999999999999</ele><time>2026-03-29T08:56:21Z</time></trkpt><trkpt lat="45.39108159263378" lon="10.561823818114632"><ele>116.0</ele><time>2026-03-29T08:56:22Z</time></trkpt><trkpt lat="45.39107041774707" lon="10.561984659657606"><ele>116.0</ele><time>2026-03-29T08:56:24Z</time></trkpt><trkpt lat="45.39106176857807" lon="10.562106852148482"><ele>116.0</ele><time>2026-03-29T08:56:26Z</time></trkpt><trkpt lat="45.39105474107821" lon="10.56220613324256"><ele>115.99999999999999</ele><time>2026-03-29T08:56:29Z</time></trkpt><trkpt lat="45.39105542394102" lon="10.562368722459288"><ele>116.0</ele><time>2026-03-29T08:56:31Z</time></trkpt><trkpt lat="45.39107076561767" lon="10.562493316326218"><ele>116.0</ele><time>2026-03-29T08:56:32Z</time></trkpt><trkpt lat="45.39114835242277" lon="10.56264023662879"><ele>116.0</ele><time>2026-03-29T08:56:34Z</time></trkpt><trkpt lat="45.3911292362118" lon="10.562746214466445"><ele>116.0</ele><time>2026-03-29T08:56:35Z</time></trkpt><trkpt lat="45.391121402550134" lon="10.562905279371735"><ele>116.0</ele><time>2026-03-29T08:56:37Z</time></trkpt><trkpt lat="45.391115054558675" lon="10.56303522616645"><ele>116.0</ele><time>2026-03-29T08:56:38Z</time></trkpt><trkpt lat="45.39111505455891" lon="10.563180194367112"><ele>116.25</ele><time>2026-03-29T08:56:39Z</time></trkpt><trkpt lat="45.39110801058611" lon="10.56334925311726"><ele>116.5</ele><time>2026-03-29T08:56:40Z</time></trkpt><trkpt lat="45.39109053324043" lon="10.563545522373895"><ele>116.75</ele><time>2026-03-29T08:56:41Z</time></trkpt><trkpt lat="45.39106355059461" lon="10.563786142989679"><ele>117.0</ele><time>2026-03-29T08:56:42Z</time></trkpt><trkpt lat="45.39102638840098" lon="10.564051544010612"><ele>117.0</ele><time>2026-03-29T08:56:43Z</time></trkpt><trkpt lat="45.39097717399087" lon="10.56433026501968"><ele>117.0</ele><time>2026-03-29T08:56:44Z</time></trkpt><trkpt lat="45.39095290571434" lon="10.56456233938067"><ele>117.0</ele><time>2026-03-29T08:56:45Z</time></trkpt><trkpt lat="45.390911273612275" lon="10.564763108187012"><ele>117.0</ele><time>2026-03-29T08:56:46Z</time></trkpt><trkpt lat="45.39083299614867" lon="10.564943126346286"><ele>117.0</ele><time>2026-03-29T08:56:47Z</time></trkpt><trkpt lat="45.39077223481413" lon="10.565160193666616"><ele>117.0</ele><time>2026-03-29T08:56:48Z</time></trkpt><trkpt lat="45.39068228679123" lon="10.565386336238836"><ele>117.0</ele><time>2026-03-29T08:56:49Z</time></trkpt><trkpt lat="45.390570177857875" lon="10.5655970063961"><ele>117.0</ele><time>2026-03-29T08:56:50Z</time></trkpt><trkpt lat="45.39045060427255" lon="10.565812969750887"><ele>117.0</ele><time>2026-03-29T08:56:51Z</time></trkpt><trkpt lat="45.390345647915865" lon="10.566042423327714"><ele>116.0</ele><time>2026-03-29T08:56:52Z</time></trkpt><trkpt lat="45.39023727958989" lon="10.566222180635412"><ele>115.0</ele><time>2026-03-29T08:56:53Z</time></trkpt><trkpt lat="45.39014669314172" lon="10.56637629761364"><ele>114.0</ele><time>2026-03-29T08:56:54Z</time></trkpt><trkpt lat="45.39006133367455" lon="10.566483642418357"><ele>113.0</ele><time>2026-03-29T08:56:55Z</time></trkpt><trkpt lat="45.389932868052966" lon="10.566568975499619"><ele>113.0</ele><time>2026-03-29T08:56:56Z</time></trkpt><trkpt lat="45.3897893598837" lon="10.566702464340786"><ele>113.0</ele><time>2026-03-29T08:56:57Z</time></trkpt><trkpt lat="45.38962880953377" lon="10.566808271604977"><ele>113.0</ele><time>2026-03-29T08:56:58Z</time></trkpt><trkpt lat="45.38945371819732" lon="10.566921097689134"><ele>113.25</ele><time>2026-03-29T08:56:59Z</time></trkpt><trkpt lat="45.38930221608977" lon="10.567015705936184"><ele>113.5</ele><time>2026-03-29T08:57:00Z</time></trkpt><trkpt lat="45.38917202719263" lon="10.56710410363576"><ele>113.75</ele><time>2026-03-29T08:57:01Z</time></trkpt><trkpt lat="45.3890488759215" lon="10.567187379081771"><ele>114.0</ele><time>2026-03-29T08:57:02Z</time></trkpt><trkpt lat="45.38895270182969" lon="10.567264775825443"><ele>114.0</ele><time>2026-03-29T08:57:03Z</time></trkpt><trkpt lat="45.38887133899445" lon="10.567352524706077"><ele>114.0</ele><time>2026-03-29T08:57:04Z</time></trkpt><trkpt lat="45.38880392678352" lon="10.567455635466024"><ele>114.0</ele><time>2026-03-29T08:57:05Z</time></trkpt><trkpt lat="45.388716005192016" lon="10.56758064221534"><ele>114.0</ele><time>2026-03-29T08:57:06Z</time></trkpt><trkpt lat="45.38860562129779" lon="10.567716478872113"><ele>114.0</ele><time>2026-03-29T08:57:07Z</time></trkpt><trkpt lat="45.38847451547222" lon="10.567851008575717"><ele>114.0</ele><time>2026-03-29T08:57:08Z</time></trkpt><trkpt lat="45.38833937716131" lon="10.56799139238051"><ele>114.0</ele><time>2026-03-29T08:57:09Z</time></trkpt><trkpt lat="45.38820279868185" lon="10.56812932362275"><ele>113.66666666666666</ele><time>2026-03-29T08:57:10Z</time></trkpt><trkpt lat="45.38806723101702" lon="10.568255889059346"><ele>113.33333333333333</ele><time>2026-03-29T08:57:11Z</time></trkpt><trkpt lat="45.38793212169356" lon="10.568373576077288"><ele>113.0</ele><time>2026-03-29T08:57:12Z</time></trkpt><trkpt lat="45.38778793783809" lon="10.568481617788146"><ele>113.0</ele><time>2026-03-29T08:57:13Z</time></trkpt><trkpt lat="45.38765967961601" lon="10.5685721710635"><ele>113.0</ele><time>2026-03-29T08:57:14Z</time></trkpt><trkpt lat="45.38754426646508" lon="10.568662964025261"><ele>113.0</ele><time>2026-03-29T08:57:15Z</time></trkpt><trkpt lat="45.38742557007432" lon="10.568767005911821"><ele>113.0</ele><time>2026-03-29T08:57:16Z</time></trkpt><trkpt lat="45.38730056829805" lon="10.568892595850771"><ele>113.0</ele><time>2026-03-29T08:57:17Z</time></trkpt><trkpt lat="45.387187139093996" lon="10.568997026854731"><ele>113.0</ele><time>2026-03-29T08:57:18Z</time></trkpt><trkpt lat="45.38709209856951" lon="10.56907527816806"><ele>113.0</ele><time>2026-03-29T08:57:19Z</time></trkpt><trkpt lat="45.38700420502634" lon="10.569170687526727"><ele>113.0</ele><time>2026-03-29T08:57:20Z</time></trkpt><trkpt lat="45.38690204814205" lon="10.569302246095852"><ele>113.0</ele><time>2026-03-29T08:57:21Z</time></trkpt><trkpt lat="45.38680749796274" lon="10.569450759741443"><ele>113.0</ele><time>2026-03-29T08:57:22Z</time></trkpt><trkpt lat="45.38671368695487" lon="10.569620895675726"><ele>113.0</ele><time>2026-03-29T08:57:23Z</time></trkpt><trkpt lat="45.3866152867115" lon="10.569807030483915"><ele>113.0</ele><time>2026-03-29T08:57:24Z</time></trkpt><trkpt lat="45.38653159228207" lon="10.569991466919491"><ele>113.0</ele><time>2026-03-29T08:57:25Z</time></trkpt><trkpt lat="45.38645189354616" lon="10.57014184399378"><ele>113.0</ele><time>2026-03-29T08:57:26Z</time></trkpt><trkpt lat="45.38638628456942" lon="10.570253101592499"><ele>113.0</ele><time>2026-03-29T08:57:27Z</time></trkpt><trkpt lat="45.386350993338354" lon="10.57042729475084"><ele>112.0</ele><time>2026-03-29T08:57:28Z</time></trkpt><trkpt lat="45.386306993345485" lon="10.570613304866542"><ele>111.0</ele><time>2026-03-29T08:57:29Z</time></trkpt><trkpt lat="45.38627217364975" lon="10.57081471281549"><ele>110.0</ele><time>2026-03-29T08:57:30Z</time></trkpt><trkpt lat="45.38624417903012" lon="10.571025085885596"><ele>109.0</ele><time>2026-03-29T08:57:31Z</time></trkpt><trkpt lat="45.38622249775509" lon="10.571207774736257"><ele>108.80000000000001</ele><time>2026-03-29T08:57:32Z</time></trkpt><trkpt lat="45.386197745177476" lon="10.571368563007457"><ele>108.60000000000001</ele><time>2026-03-29T08:57:33Z</time></trkpt><trkpt lat="45.386168775865556" lon="10.571508691127558"><ele>108.4</ele><time>2026-03-29T08:57:34Z</time></trkpt><trkpt lat="45.38618950440714" lon="10.571653752179913"><ele>108.2</ele><time>2026-03-29T08:57:35Z</time></trkpt><trkpt lat="45.38621509878886" lon="10.571773485506974"><ele>108.0</ele><time>2026-03-29T08:57:36Z</time></trkpt><trkpt lat="45.38623693018781" lon="10.571889890371878"><ele>108.0</ele><time>2026-03-29T08:57:37Z</time></trkpt><trkpt lat="45.386283018518526" lon="10.571985496188052"><ele>108.0</ele><time>2026-03-29T08:57:38Z</time></trkpt><trkpt lat="45.38633912280323" lon="10.572057890948212"><ele>108.0</ele><time>2026-03-29T08:57:39Z</time></trkpt><trkpt lat="45.386407747811376" lon="10.572089258712698"><ele>108.0</ele><time>2026-03-29T08:57:40Z</time></trkpt><trkpt lat="45.38648657871201" lon="10.572144596140495"><ele>108.0</ele><time>2026-03-29T08:57:41Z</time></trkpt><trkpt lat="45.38656536143054" lon="10.572191229774015"><ele>108.0</ele><time>2026-03-29T08:57:42Z</time></trkpt><trkpt lat="45.386628365302236" lon="10.572233076733678"><ele>107.0</ele><time>2026-03-29T08:57:43Z</time></trkpt><trkpt lat="45.38665672699507" lon="10.572364633547886"><ele>106.00000000000001</ele><time>2026-03-29T08:57:45Z</time></trkpt><trkpt lat="45.38661615824583" lon="10.572495393495858"><ele>105.0</ele><time>2026-03-29T08:57:47Z</time></trkpt><trkpt lat="45.38657661133987" lon="10.57258951097732"><ele>104.0</ele><time>2026-03-29T08:57:48Z</time></trkpt><trkpt lat="45.38648033862747" lon="10.57265574666015"><ele>103.0</ele><time>2026-03-29T08:57:49Z</time></trkpt><trkpt lat="45.386412137849824" lon="10.572761370605814"><ele>103.0</ele><time>2026-03-29T08:57:50Z</time></trkpt><trkpt lat="45.38637015784785" lon="10.572848299472408"><ele>103.0</ele><time>2026-03-29T08:57:51Z</time></trkpt><trkpt lat="45.386371406378416" lon="10.573039250490138"><ele>103.0</ele><time>2026-03-29T08:57:53Z</time></trkpt><trkpt lat="45.38639276398505" lon="10.573170191788435"><ele>103.0</ele><time>2026-03-29T08:57:54Z</time></trkpt><trkpt lat="45.38642648553155" lon="10.573333255047148"><ele>103.0</ele><time>2026-03-29T08:57:55Z</time></trkpt><trkpt lat="45.386458003462" lon="10.57353022701845"><ele>102.66666666666667</ele><time>2026-03-29T08:57:56Z</time></trkpt><trkpt lat="45.3864859185238" lon="10.573734272253654"><ele>102.33333333333334</ele><time>2026-03-29T08:57:57Z</time></trkpt><trkpt lat="45.38651752626011" lon="10.573954066323962"><ele>102.0</ele><time>2026-03-29T08:57:58Z</time></trkpt><trkpt lat="45.38655040756928" lon="10.574169080239068"><ele>102.0</ele><time>2026-03-29T08:57:59Z</time></trkpt><trkpt lat="45.38656816393681" lon="10.574333603161811"><ele>102.0</ele><time>2026-03-29T08:58:00Z</time></trkpt><trkpt lat="45.38657557358953" lon="10.5744680865699"><ele>102.0</ele><time>2026-03-29T08:58:01Z</time></trkpt><trkpt lat="45.3865650901244" lon="10.574574850534503"><ele>102.0</ele><time>2026-03-29T08:58:02Z</time></trkpt><trkpt lat="45.38653326410807" lon="10.57467321112042"><ele>102.0</ele><time>2026-03-29T08:58:03Z</time></trkpt><trkpt lat="45.38647876666647" lon="10.574791797976973"><ele>101.75</ele><time>2026-03-29T08:58:04Z</time></trkpt><trkpt lat="45.386377247327324" lon="10.574915319417794"><ele>101.5</ele><time>2026-03-29T08:58:05Z</time></trkpt><trkpt lat="45.3862749634602" lon="10.575059010273776"><ele>101.25</ele><time>2026-03-29T08:58:06Z</time></trkpt><trkpt lat="45.38615505770813" lon="10.575200608906416"><ele>101.0</ele><time>2026-03-29T08:58:07Z</time></trkpt><trkpt lat="45.38606427274931" lon="10.575357128366075"><ele>102.33333333333333</ele><time>2026-03-29T08:58:08Z</time></trkpt><trkpt lat="45.38598778208048" lon="10.57553247263185"><ele>103.66666666666666</ele><time>2026-03-29T08:58:09Z</time></trkpt><trkpt lat="45.385906280000626" lon="10.575739252586072"><ele>105.0</ele><time>2026-03-29T08:58:10Z</time></trkpt><trkpt lat="45.385827269529564" lon="10.575976358537206"><ele>105.66666666666666</ele><time>2026-03-29T08:58:11Z</time></trkpt><trkpt lat="45.38575689372342" lon="10.576205737923628"><ele>106.33333333333333</ele><time>2026-03-29T08:58:12Z</time></trkpt><trkpt lat="45.38569698069927" lon="10.576416913386362"><ele>107.0</ele><time>2026-03-29T08:58:13Z</time></trkpt><trkpt lat="45.38565556264603" lon="10.576623026151154"><ele>107.0</ele><time>2026-03-29T08:58:14Z</time></trkpt><trkpt lat="45.38562474637512" lon="10.576839788921127"><ele>107.0</ele><time>2026-03-29T08:58:15Z</time></trkpt><trkpt lat="45.385590625208025" lon="10.577063925690874"><ele>107.0</ele><time>2026-03-29T08:58:16Z</time></trkpt><trkpt lat="45.38557659720174" lon="10.577272659457266"><ele>107.0</ele><time>2026-03-29T08:58:17Z</time></trkpt><trkpt lat="45.38554450060332" lon="10.577486361952218"><ele>107.0</ele><time>2026-03-29T08:58:18Z</time></trkpt><trkpt lat="45.385510480476604" lon="10.577710813826243"><ele>107.0</ele><time>2026-03-29T08:58:19Z</time></trkpt><trkpt lat="45.38548220637741" lon="10.577923911854237"><ele>106.75</ele><time>2026-03-29T08:58:20Z</time></trkpt><trkpt lat="45.38546204904948" lon="10.57810086676663"><ele>106.5</ele><time>2026-03-29T08:58:21Z</time></trkpt><trkpt lat="45.3854372618342" lon="10.57827289158768"><ele>106.25</ele><time>2026-03-29T08:58:22Z</time></trkpt><trkpt lat="45.385428732822085" lon="10.578368304633514"><ele>106.0</ele><time>2026-03-29T08:58:23Z</time></trkpt><trkpt lat="45.385394767834526" lon="10.578575284823746"><ele>106.0</ele><time>2026-03-29T08:58:25Z</time></trkpt><trkpt lat="45.38535425133631" lon="10.578670352006613"><ele>106.0</ele><time>2026-03-29T08:58:27Z</time></trkpt><trkpt lat="45.38523763503572" lon="10.578586171728311"><ele>106.0</ele><time>2026-03-29T08:58:29Z</time></trkpt><trkpt lat="45.38510676189604" lon="10.578532972924496"><ele>106.0</ele><time>2026-03-29T08:58:30Z</time></trkpt><trkpt lat="45.38495962275833" lon="10.578491094734124"><ele>106.0</ele><time>2026-03-29T08:58:31Z</time></trkpt><trkpt lat="45.38483181016449" lon="10.578426371454757"><ele>106.0</ele><time>2026-03-29T08:58:32Z</time></trkpt><trkpt lat="45.38471671674427" lon="10.578378791608047"><ele>106.0</ele><time>2026-03-29T08:58:33Z</time></trkpt><trkpt lat="45.38461535988569" lon="10.578332122762454"><ele>106.0</ele><time>2026-03-29T08:58:34Z</time></trkpt><trkpt lat="45.384513504503005" lon="10.578297037362384"><ele>106.16666666666667</ele><time>2026-03-29T08:58:35Z</time></trkpt><trkpt lat="45.38442336213413" lon="10.578260163551837"><ele>106.33333333333334</ele><time>2026-03-29T08:58:36Z</time></trkpt><trkpt lat="45.38435525470438" lon="10.578232821876089"><ele>106.5</ele><time>2026-03-29T08:58:37Z</time></trkpt><trkpt lat="45.38425796496059" lon="10.57823036351845"><ele>106.66666666666666</ele><time>2026-03-29T08:58:39Z</time></trkpt><trkpt lat="45.38416948816099" lon="10.578268981110831"><ele>106.83333333333333</ele><time>2026-03-29T08:58:41Z</time></trkpt><trkpt lat="45.38409490644132" lon="10.578305184975994"><ele>107.0</ele><time>2026-03-29T08:58:43Z</time></trkpt><trkpt lat="45.38396084823478" lon="10.578256111334795"><ele>107.0</ele><time>2026-03-29T08:58:45Z</time></trkpt><trkpt lat="45.38385600250813" lon="10.578259898727836"><ele>106.99999999999999</ele><time>2026-03-29T08:58:46Z</time></trkpt><trkpt lat="45.38376962662449" lon="10.57823756297816"><ele>106.99999999999999</ele><time>2026-03-29T08:58:47Z</time></trkpt><trkpt lat="45.38370426909306" lon="10.57822422430951"><ele>107.0</ele><time>2026-03-29T08:58:48Z</time></trkpt><trkpt lat="45.383608498543346" lon="10.578102633789259"><ele>107.0</ele><time>2026-03-29T08:58:50Z</time></trkpt><trkpt lat="45.38355745090215" lon="10.578033091304974"><ele>107.5</ele><time>2026-03-29T08:58:51Z</time></trkpt><trkpt lat="45.383464976318756" lon="10.577938903700772"><ele>108.0</ele><time>2026-03-29T08:58:52Z</time></trkpt><trkpt lat="45.3833551416136" lon="10.577836581618056"><ele>108.5</ele><time>2026-03-29T08:58:53Z</time></trkpt><trkpt lat="45.38321060764169" lon="10.577731848115343"><ele>109.0</ele><time>2026-03-29T08:58:54Z</time></trkpt><trkpt lat="45.38306708877596" lon="10.577629587841052"><ele>111.0</ele><time>2026-03-29T08:58:55Z</time></trkpt><trkpt lat="45.38292392267894" lon="10.577555688502441"><ele>113.0</ele><time>2026-03-29T08:58:56Z</time></trkpt><trkpt lat="45.382767819258284" lon="10.577500997557571"><ele>115.0</ele><time>2026-03-29T08:58:57Z</time></trkpt><trkpt lat="45.382629613904015" lon="10.577476265412674"><ele>115.0</ele><time>2026-03-29T08:58:58Z</time></trkpt><trkpt lat="45.38249384790342" lon="10.5774893046482"><ele>115.0</ele><time>2026-03-29T08:58:59Z</time></trkpt><trkpt lat="45.382370588134485" lon="10.577484872252638"><ele>115.0</ele><time>2026-03-29T08:59:00Z</time></trkpt><trkpt lat="45.3822633291697" lon="10.577513534884142"><ele>115.0</ele><time>2026-03-29T08:59:01Z</time></trkpt><trkpt lat="45.38215935292625" lon="10.577511398086257"><ele>115.0</ele><time>2026-03-29T08:59:02Z</time></trkpt><trkpt lat="45.38204010785355" lon="10.577528403463164"><ele>115.0</ele><time>2026-03-29T08:59:03Z</time></trkpt><trkpt lat="45.38190150807377" lon="10.577551957254926"><ele>115.0</ele><time>2026-03-29T08:59:04Z</time></trkpt><trkpt lat="45.38174314404457" lon="10.577563076958773"><ele>115.0</ele><time>2026-03-29T08:59:05Z</time></trkpt><trkpt lat="45.381568318705135" lon="10.577560223017436"><ele>115.0</ele><time>2026-03-29T08:59:06Z</time></trkpt><trkpt lat="45.381403604584" lon="10.577547354247777"><ele>115.0</ele><time>2026-03-29T08:59:07Z</time></trkpt><trkpt lat="45.381254298013225" lon="10.577538906520415"><ele>115.0</ele><time>2026-03-29T08:59:08Z</time></trkpt><trkpt lat="45.38111932814099" lon="10.5775312688077"><ele>115.0</ele><time>2026-03-29T08:59:09Z</time></trkpt><trkpt lat="45.38098690197289" lon="10.57750750042907"><ele>113.4</ele><time>2026-03-29T08:59:10Z</time></trkpt><trkpt lat="45.38087530838226" lon="10.577439631058793"><ele>111.8</ele><time>2026-03-29T08:59:11Z</time></trkpt><trkpt lat="45.38077036820682" lon="10.5774028051703"><ele>110.19999999999999</ele><time>2026-03-29T08:59:12Z</time></trkpt><trkpt lat="45.38070247978992" lon="10.577342660510539"><ele>108.6</ele><time>2026-03-29T08:59:13Z</time></trkpt><trkpt lat="45.380681621205426" lon="10.57724931971988"><ele>107.0</ele><time>2026-03-29T08:59:14Z</time></trkpt><trkpt lat="45.38069686227191" lon="10.57714570227557"><ele>107.0</ele><time>2026-03-29T08:59:15Z</time></trkpt><trkpt lat="45.38070524551241" lon="10.577020257216834"><ele>106.99999999999999</ele><time>2026-03-29T08:59:16Z</time></trkpt><trkpt lat="45.380697710609994" lon="10.576900337248546"><ele>106.99999999999999</ele><time>2026-03-29T08:59:17Z</time></trkpt><trkpt lat="45.38066847170799" lon="10.576785718465935"><ele>107.0</ele><time>2026-03-29T08:59:18Z</time></trkpt><trkpt lat="45.38060120462874" lon="10.576696538225926"><ele>107.0</ele><time>2026-03-29T08:59:19Z</time></trkpt><trkpt lat="45.380511967750074" lon="10.576632025978046"><ele>106.0</ele><time>2026-03-29T08:59:20Z</time></trkpt><trkpt lat="45.380403603573384" lon="10.576566695920967"><ele>105.0</ele><time>2026-03-29T08:59:21Z</time></trkpt><trkpt lat="45.380276451152255" lon="10.576497835564707"><ele>104.0</ele><time>2026-03-29T08:59:22Z</time></trkpt><trkpt lat="45.38015038882618" lon="10.576465460531383"><ele>103.0</ele><time>2026-03-29T08:59:23Z</time></trkpt><trkpt lat="45.38003250081771" lon="10.576467798069666"><ele>103.0</ele><time>2026-03-29T08:59:24Z</time></trkpt><trkpt lat="45.37992389090845" lon="10.576435855557062"><ele>103.0</ele><time>2026-03-29T08:59:25Z</time></trkpt><trkpt lat="45.379819360287755" lon="10.576316416871137"><ele>103.0</ele><time>2026-03-29T08:59:26Z</time></trkpt><trkpt lat="45.37970239757337" lon="10.576277108795548"><ele>103.0</ele><time>2026-03-29T08:59:27Z</time></trkpt><trkpt lat="45.37958584446415" lon="10.576258484177355"><ele>103.25</ele><time>2026-03-29T08:59:28Z</time></trkpt><trkpt lat="45.37944615942056" lon="10.576282371020996"><ele>103.5</ele><time>2026-03-29T08:59:29Z</time></trkpt><trkpt lat="45.379299613489266" lon="10.57631986923461"><ele>103.75</ele><time>2026-03-29T08:59:30Z</time></trkpt><trkpt lat="45.37915055459909" lon="10.576324997076926"><ele>104.0</ele><time>2026-03-29T08:59:31Z</time></trkpt><trkpt lat="45.379030849907465" lon="10.57635983291622"><ele>103.99999999999999</ele><time>2026-03-29T08:59:32Z</time></trkpt><trkpt lat="45.37893723228175" lon="10.576347301113653"><ele>104.0</ele><time>2026-03-29T08:59:33Z</time></trkpt><trkpt lat="45.37886757873837" lon="10.576286310649397"><ele>104.0</ele><time>2026-03-29T08:59:34Z</time></trkpt><trkpt lat="45.378813965055876" lon="10.57622497775653"><ele>104.0</ele><time>2026-03-29T08:59:35Z</time></trkpt><trkpt lat="45.37881107692413" lon="10.576103779733467"><ele>103.99999999999999</ele><time>2026-03-29T08:59:36Z</time></trkpt><trkpt lat="45.37880956059794" lon="10.575959316020988"><ele>104.0</ele><time>2026-03-29T08:59:37Z</time></trkpt><trkpt lat="45.37880182567801" lon="10.575806355573283"><ele>104.33333333333333</ele><time>2026-03-29T08:59:38Z</time></trkpt><trkpt lat="45.37878044677838" lon="10.575688708563929"><ele>104.66666666666666</ele><time>2026-03-29T08:59:39Z</time></trkpt><trkpt lat="45.378746286237394" lon="10.575612585487523"><ele>105.0</ele><time>2026-03-29T08:59:40Z</time></trkpt><trkpt lat="45.37870634584192" lon="10.57553849297145"><ele>105.33333333333334</ele><time>2026-03-29T08:59:41Z</time></trkpt><trkpt lat="45.37859881335156" lon="10.57556220707495"><ele>105.66666666666667</ele><time>2026-03-29T08:59:42Z</time></trkpt><trkpt lat="45.37848498068204" lon="10.575593414912142"><ele>106.0</ele><time>2026-03-29T08:59:43Z</time></trkpt><trkpt lat="45.37833508918771" lon="10.57559673387713"><ele>106.0</ele><time>2026-03-29T08:59:44Z</time></trkpt><trkpt lat="45.37814821525665" lon="10.575619008229646"><ele>106.0</ele><time>2026-03-29T08:59:45Z</time></trkpt><trkpt lat="45.37795413344577" lon="10.575657414301809"><ele>106.0</ele><time>2026-03-29T08:59:46Z</time></trkpt><trkpt lat="45.377736744860144" lon="10.575676953945683"><ele>105.66666666666667</ele><time>2026-03-29T08:59:47Z</time></trkpt><trkpt lat="45.377527660616025" lon="10.575697402314907"><ele>105.33333333333334</ele><time>2026-03-29T08:59:48Z</time></trkpt><trkpt lat="45.37734428143042" lon="10.575710623541987"><ele>105.0</ele><time>2026-03-29T08:59:49Z</time></trkpt><trkpt lat="45.37717236169927" lon="10.575718383208025"><ele>106.66666666666666</ele><time>2026-03-29T08:59:50Z</time></trkpt><trkpt lat="45.376991841123285" lon="10.575724912599146"><ele>108.33333333333333</ele><time>2026-03-29T08:59:51Z</time></trkpt><trkpt lat="45.37681823760075" lon="10.575678745283419"><ele>110.0</ele><time>2026-03-29T08:59:52Z</time></trkpt><trkpt lat="45.37665789152524" lon="10.575609367174701"><ele>110.0</ele><time>2026-03-29T08:59:53Z</time></trkpt><trkpt lat="45.37648973755612" lon="10.575510640276011"><ele>110.0</ele><time>2026-03-29T08:59:54Z</time></trkpt><trkpt lat="45.37630717218523" lon="10.575401631141114"><ele>110.0</ele><time>2026-03-29T08:59:55Z</time></trkpt><trkpt lat="45.3761341747268" lon="10.57530521617395"><ele>110.25</ele><time>2026-03-29T08:59:56Z</time></trkpt><trkpt lat="45.37600831520449" lon="10.575243759711578"><ele>110.5</ele><time>2026-03-29T08:59:57Z</time></trkpt><trkpt lat="45.375902579086144" lon="10.575216315244978"><ele>110.75</ele><time>2026-03-29T08:59:58Z</time></trkpt><trkpt lat="45.37579942874983" lon="10.575158986719378"><ele>111.0</ele><time>2026-03-29T08:59:59Z</time></trkpt><trkpt lat="45.37569698630319" lon="10.575100342302372"><ele>111.0</ele><time>2026-03-29T09:00:00Z</time></trkpt><trkpt lat="45.37559458310455" lon="10.575050555209616"><ele>111.0</ele><time>2026-03-29T09:00:01Z</time></trkpt><trkpt lat="45.37550928396461" lon="10.574997416679235"><ele>111.0</ele><time>2026-03-29T09:00:02Z</time></trkpt><trkpt lat="45.37545260225234" lon="10.574922339311637"><ele>111.0</ele><time>2026-03-29T09:00:03Z</time></trkpt><trkpt lat="45.37538152537593" lon="10.574852258753898"><ele>111.0</ele><time>2026-03-29T09:00:05Z</time></trkpt><trkpt lat="45.37528591732296" lon="10.574997905812387"><ele>111.19999999999999</ele><time>2026-03-29T09:00:08Z</time></trkpt><trkpt lat="45.375262031243395" lon="10.575201660716301"><ele>111.39999999999999</ele><time>2026-03-29T09:00:10Z</time></trkpt><trkpt lat="45.37525559564101" lon="10.575345571320437"><ele>111.6</ele><time>2026-03-29T09:00:11Z</time></trkpt><trkpt lat="45.375247006401906" lon="10.575471644524368"><ele>111.8</ele><time>2026-03-29T09:00:12Z</time></trkpt><trkpt lat="45.3752386059722" lon="10.57559861547552"><ele>112.0</ele><time>2026-03-29T09:00:13Z</time></trkpt><trkpt lat="45.37522759784516" lon="10.575716470757653"><ele>112.0</ele><time>2026-03-29T09:00:14Z</time></trkpt><trkpt lat="45.37521188484951" lon="10.57585701771251"><ele>112.0</ele><time>2026-03-29T09:00:15Z</time></trkpt><trkpt lat="45.37519819001325" lon="10.576006574312263"><ele>112.0</ele><time>2026-03-29T09:00:16Z</time></trkpt><trkpt lat="45.37518572515399" lon="10.576190898735792"><ele>112.0</ele><time>2026-03-29T09:00:17Z</time></trkpt><trkpt lat="45.37516917389655" lon="10.576414900506697"><ele>111.33333333333334</ele><time>2026-03-29T09:00:18Z</time></trkpt><trkpt lat="45.3751535463391" lon="10.576626627908809"><ele>110.66666666666666</ele><time>2026-03-29T09:00:19Z</time></trkpt><trkpt lat="45.375129936054165" lon="10.576869606199562"><ele>110.0</ele><time>2026-03-29T09:00:20Z</time></trkpt><trkpt lat="45.375110773063405" lon="10.577111008219402"><ele>110.0</ele><time>2026-03-29T09:00:21Z</time></trkpt><trkpt lat="45.375090365966216" lon="10.57735777958412"><ele>110.0</ele><time>2026-03-29T09:00:22Z</time></trkpt><trkpt lat="45.375074356941724" lon="10.577575704868526"><ele>110.0</ele><time>2026-03-29T09:00:23Z</time></trkpt><trkpt lat="45.375043343988175" lon="10.577824714427408"><ele>109.5</ele><time>2026-03-29T09:00:24Z</time></trkpt><trkpt lat="45.37503309382925" lon="10.578032277312584"><ele>109.0</ele><time>2026-03-29T09:00:25Z</time></trkpt><trkpt lat="45.375018441100764" lon="10.578218939237656"><ele>108.5</ele><time>2026-03-29T09:00:26Z</time></trkpt><trkpt lat="45.37500242877925" lon="10.578372546431753"><ele>108.0</ele><time>2026-03-29T09:00:27Z</time></trkpt><trkpt lat="45.37498352703396" lon="10.578511544773683"><ele>108.0</ele><time>2026-03-29T09:00:28Z</time></trkpt><trkpt lat="45.37495878933092" lon="10.578653789944777"><ele>108.00000000000001</ele><time>2026-03-29T09:00:29Z</time></trkpt><trkpt lat="45.37491461904698" lon="10.578781396356911"><ele>108.00000000000001</ele><time>2026-03-29T09:00:31Z</time></trkpt><trkpt lat="45.37484262726313" lon="10.578815954029112"><ele>108.0</ele><time>2026-03-29T09:00:33Z</time></trkpt><trkpt lat="45.3747651127965" lon="10.578804500724308"><ele>108.0</ele><time>2026-03-29T09:00:34Z</time></trkpt><trkpt lat="45.374645940724236" lon="10.57878592205914"><ele>109.75</ele><time>2026-03-29T09:00:35Z</time></trkpt><trkpt lat="45.37450754079692" lon="10.578773334352714"><ele>111.5</ele><time>2026-03-29T09:00:36Z</time></trkpt><trkpt lat="45.374359697580886" lon="10.578776603533756"><ele>113.25</ele><time>2026-03-29T09:00:37Z</time></trkpt><trkpt lat="45.37420464903546" lon="10.57878930083428"><ele>115.0</ele><time>2026-03-29T09:00:38Z</time></trkpt><trkpt lat="45.37404978317117" lon="10.578805163527663"><ele>115.0</ele><time>2026-03-29T09:00:39Z</time></trkpt><trkpt lat="45.373872573440714" lon="10.578822498425529"><ele>115.0</ele><time>2026-03-29T09:00:40Z</time></trkpt><trkpt lat="45.37370607718948" lon="10.578835210365542"><ele>115.0</ele><time>2026-03-29T09:00:41Z</time></trkpt><trkpt lat="45.37356179432471" lon="10.578842686634008"><ele>115.2</ele><time>2026-03-29T09:00:42Z</time></trkpt><trkpt lat="45.37343775742273" lon="10.578855548634019"><ele>115.4</ele><time>2026-03-29T09:00:43Z</time></trkpt><trkpt lat="45.37332553922282" lon="10.578860918036078"><ele>115.6</ele><time>2026-03-29T09:00:44Z</time></trkpt><trkpt lat="45.37324202978569" lon="10.578861865180627"><ele>115.8</ele><time>2026-03-29T09:00:45Z</time></trkpt><trkpt lat="45.37316089986717" lon="10.578868046059734"><ele>116.0</ele><time>2026-03-29T09:00:46Z</time></trkpt><trkpt lat="45.37305117324365" lon="10.57887515996725"><ele>115.66666666666666</ele><time>2026-03-29T09:00:47Z</time></trkpt><trkpt lat="45.37293861227797" lon="10.57888860524065"><ele>115.33333333333333</ele><time>2026-03-29T09:00:48Z</time></trkpt><trkpt lat="45.37285503699968" lon="10.578905571326107"><ele>115.0</ele><time>2026-03-29T09:00:49Z</time></trkpt><trkpt lat="45.37279262030084" lon="10.578928821019751"><ele>114.66666666666666</ele><time>2026-03-29T09:00:50Z</time></trkpt><trkpt lat="45.37271555883348" lon="10.578969953712287"><ele>114.33333333333333</ele><time>2026-03-29T09:00:52Z</time></trkpt><trkpt lat="45.37265814231648" lon="10.579075847089621"><ele>114.0</ele><time>2026-03-29T09:00:54Z</time></trkpt><trkpt lat="45.372637678742244" lon="10.579204022509185"><ele>114.0</ele><time>2026-03-29T09:00:55Z</time></trkpt><trkpt lat="45.37261163957554" lon="10.579378685058144"><ele>114.0</ele><time>2026-03-29T09:00:56Z</time></trkpt><trkpt lat="45.372570446619" lon="10.579560387702404"><ele>114.0</ele><time>2026-03-29T09:00:57Z</time></trkpt><trkpt lat="45.37252752484976" lon="10.579721294948342"><ele>114.0</ele><time>2026-03-29T09:00:58Z</time></trkpt><trkpt lat="45.372504308836994" lon="10.579840367177626"><ele>113.75</ele><time>2026-03-29T09:00:59Z</time></trkpt><trkpt lat="45.372528988077995" lon="10.579947256750335"><ele>113.5</ele><time>2026-03-29T09:01:01Z</time></trkpt><trkpt lat="45.37262849201332" lon="10.58007063205565"><ele>113.25</ele><time>2026-03-29T09:01:03Z</time></trkpt><trkpt lat="45.372733155874144" lon="10.580126744779445"><ele>113.0</ele><time>2026-03-29T09:01:04Z</time></trkpt><trkpt lat="45.37286531801532" lon="10.580171598075216"><ele>113.0</ele><time>2026-03-29T09:01:05Z</time></trkpt><trkpt lat="45.37300165784289" lon="10.580225783162762"><ele>113.0</ele><time>2026-03-29T09:01:06Z</time></trkpt><trkpt lat="45.37314215861215" lon="10.58030828798647"><ele>113.0</ele><time>2026-03-29T09:01:07Z</time></trkpt><trkpt lat="45.373279043409546" lon="10.58040927202564"><ele>113.0</ele><time>2026-03-29T09:01:08Z</time></trkpt><trkpt lat="45.37342236838915" lon="10.580521738226816"><ele>112.66666666666666</ele><time>2026-03-29T09:01:09Z</time></trkpt><trkpt lat="45.37355205658487" lon="10.580640983111012"><ele>112.33333333333334</ele><time>2026-03-29T09:01:10Z</time></trkpt><trkpt lat="45.373674826455584" lon="10.580770462148074"><ele>112.0</ele><time>2026-03-29T09:01:11Z</time></trkpt><trkpt lat="45.37380091714458" lon="10.580907723984451"><ele>111.66666666666667</ele><time>2026-03-29T09:01:12Z</time></trkpt><trkpt lat="45.37392324546114" lon="10.58105129227745"><ele>111.33333333333334</ele><time>2026-03-29T09:01:13Z</time></trkpt><trkpt lat="45.3740463280438" lon="10.581215701490354"><ele>111.0</ele><time>2026-03-29T09:01:14Z</time></trkpt><trkpt lat="45.37417501848606" lon="10.581390208066038"><ele>111.66666666666666</ele><time>2026-03-29T09:01:15Z</time></trkpt><trkpt lat="45.37430477564592" lon="10.581564063506068"><ele>112.33333333333333</ele><time>2026-03-29T09:01:16Z</time></trkpt><trkpt lat="45.37444018465665" lon="10.581741182347352"><ele>113.0</ele><time>2026-03-29T09:01:17Z</time></trkpt><trkpt lat="45.37458189157392" lon="10.581922232395799"><ele>112.0</ele><time>2026-03-29T09:01:18Z</time></trkpt><trkpt lat="45.37488773287001" lon="10.582307238947124"><ele>111.0</ele><time>2026-03-29T09:01:20Z</time></trkpt><trkpt lat="45.3750367325114" lon="10.582499983542414"><ele>111.0</ele><time>2026-03-29T09:01:21Z</time></trkpt><trkpt lat="45.37519418816055" lon="10.582701825933103"><ele>111.0</ele><time>2026-03-29T09:01:22Z</time></trkpt><trkpt lat="45.375379378524194" lon="10.582929294339488"><ele>111.0</ele><time>2026-03-29T09:01:23Z</time></trkpt><trkpt lat="45.37556393875169" lon="10.583148741050708"><ele>111.0</ele><time>2026-03-29T09:01:24Z</time></trkpt><trkpt lat="45.37574049604016" lon="10.583347159101608"><ele>111.0</ele><time>2026-03-29T09:01:25Z</time></trkpt><trkpt lat="45.3759132124946" lon="10.583517770447155"><ele>111.0</ele><time>2026-03-29T09:01:26Z</time></trkpt><trkpt lat="45.376081592909046" lon="10.583681953643284"><ele>111.0</ele><time>2026-03-29T09:01:27Z</time></trkpt><trkpt lat="45.376234714946946" lon="10.58384130485042"><ele>111.0</ele><time>2026-03-29T09:01:28Z</time></trkpt><trkpt lat="45.376375796530674" lon="10.583993130045338"><ele>111.0</ele><time>2026-03-29T09:01:29Z</time></trkpt><trkpt lat="45.376533391981226" lon="10.584157381728174"><ele>111.0</ele><time>2026-03-29T09:01:30Z</time></trkpt><trkpt lat="45.37667551774207" lon="10.584323179951589"><ele>111.0</ele><time>2026-03-29T09:01:31Z</time></trkpt><trkpt lat="45.37680490495552" lon="10.584481702695607"><ele>111.0</ele><time>2026-03-29T09:01:32Z</time></trkpt><trkpt lat="45.376934722623496" lon="10.58464214437266"><ele>111.0</ele><time>2026-03-29T09:01:33Z</time></trkpt><trkpt lat="45.37707011310882" lon="10.584810388729522"><ele>111.33333333333334</ele><time>2026-03-29T09:01:34Z</time></trkpt><trkpt lat="45.37719206076633" lon="10.584970899346875"><ele>111.66666666666667</ele><time>2026-03-29T09:01:35Z</time></trkpt><trkpt lat="45.37730100501112" lon="10.585139046597412"><ele>112.0</ele><time>2026-03-29T09:01:36Z</time></trkpt><trkpt lat="45.37740789913414" lon="10.585318188196215"><ele>112.33333333333334</ele><time>2026-03-29T09:01:37Z</time></trkpt><trkpt lat="45.37752075627574" lon="10.585509027255073"><ele>112.66666666666666</ele><time>2026-03-29T09:01:38Z</time></trkpt><trkpt lat="45.377637732691376" lon="10.58569762674991"><ele>113.0</ele><time>2026-03-29T09:01:39Z</time></trkpt><trkpt lat="45.37774918620116" lon="10.58588084909494"><ele>113.0</ele><time>2026-03-29T09:01:40Z</time></trkpt><trkpt lat="45.377856679329916" lon="10.586062257995737"><ele>113.0</ele><time>2026-03-29T09:01:41Z</time></trkpt><trkpt lat="45.37796328136766" lon="10.586238779009433"><ele>113.0</ele><time>2026-03-29T09:01:42Z</time></trkpt><trkpt lat="45.378066681787054" lon="10.586411697759615"><ele>114.33333333333333</ele><time>2026-03-29T09:01:43Z</time></trkpt><trkpt lat="45.378175232647365" lon="10.586595922224037"><ele>115.66666666666666</ele><time>2026-03-29T09:01:44Z</time></trkpt><trkpt lat="45.37827355835736" lon="10.586780711794363"><ele>117.0</ele><time>2026-03-29T09:01:45Z</time></trkpt><trkpt lat="45.37835633686856" lon="10.586983651045399"><ele>118.0</ele><time>2026-03-29T09:01:46Z</time></trkpt><trkpt lat="45.37842406182962" lon="10.58720717581125"><ele>119.0</ele><time>2026-03-29T09:01:47Z</time></trkpt><trkpt lat="45.378491718609034" lon="10.587424300542926"><ele>120.0</ele><time>2026-03-29T09:01:48Z</time></trkpt><trkpt lat="45.378560653604126" lon="10.587630809681185"><ele>120.0</ele><time>2026-03-29T09:01:49Z</time></trkpt><trkpt lat="45.378628544093395" lon="10.587828219579626"><ele>120.0</ele><time>2026-03-29T09:01:50Z</time></trkpt><trkpt lat="45.37869153342544" lon="10.588013177940967"><ele>120.0</ele><time>2026-03-29T09:01:51Z</time></trkpt><trkpt lat="45.37874618086402" lon="10.588200258333913"><ele>120.0</ele><time>2026-03-29T09:01:52Z</time></trkpt><trkpt lat="45.378780599206685" lon="10.588403029576801"><ele>120.5</ele><time>2026-03-29T09:01:53Z</time></trkpt><trkpt lat="45.37879514075554" lon="10.58860431181972"><ele>121.0</ele><time>2026-03-29T09:01:54Z</time></trkpt><trkpt lat="45.3787983204416" lon="10.588800070157184"><ele>121.5</ele><time>2026-03-29T09:01:55Z</time></trkpt><trkpt lat="45.37878365007753" lon="10.589006355665832"><ele>122.0</ele><time>2026-03-29T09:01:56Z</time></trkpt><trkpt lat="45.37875472498412" lon="10.589225226367251"><ele>123.0</ele><time>2026-03-29T09:01:57Z</time></trkpt><trkpt lat="45.37872389648388" lon="10.589441705562901"><ele>124.0</ele><time>2026-03-29T09:01:58Z</time></trkpt><trkpt lat="45.378699788729094" lon="10.589649300793294"><ele>125.0</ele><time>2026-03-29T09:01:59Z</time></trkpt><trkpt lat="45.37867720471572" lon="10.589858913146818"><ele>125.75</ele><time>2026-03-29T09:02:00Z</time></trkpt><trkpt lat="45.37865890674296" lon="10.590068192857867"><ele>126.5</ele><time>2026-03-29T09:02:01Z</time></trkpt><trkpt lat="45.37864357090459" lon="10.590266741364363"><ele>127.25</ele><time>2026-03-29T09:02:02Z</time></trkpt><trkpt lat="45.37864868266402" lon="10.590468742415032"><ele>128.0</ele><time>2026-03-29T09:02:03Z</time></trkpt><trkpt lat="45.37865824379236" lon="10.590673255340198"><ele>128.75</ele><time>2026-03-29T09:02:04Z</time></trkpt><trkpt lat="45.37868882642244" lon="10.590885853828809"><ele>129.5</ele><time>2026-03-29T09:02:05Z</time></trkpt><trkpt lat="45.37873329557526" lon="10.591087217554907"><ele>130.25</ele><time>2026-03-29T09:02:06Z</time></trkpt><trkpt lat="45.378790603837345" lon="10.591277889717652"><ele>131.0</ele><time>2026-03-29T09:02:07Z</time></trkpt><trkpt lat="45.37886024399449" lon="10.591446296934594"><ele>132.25</ele><time>2026-03-29T09:02:08Z</time></trkpt><trkpt lat="45.3789317886025" lon="10.591601811830229"><ele>133.5</ele><time>2026-03-29T09:02:09Z</time></trkpt><trkpt lat="45.37900286936318" lon="10.591754607169667"><ele>134.75</ele><time>2026-03-29T09:02:10Z</time></trkpt><trkpt lat="45.37906549921143" lon="10.591891805429809"><ele>136.0</ele><time>2026-03-29T09:02:11Z</time></trkpt><trkpt lat="45.379125071880395" lon="10.592013084771562"><ele>136.2</ele><time>2026-03-29T09:02:12Z</time></trkpt><trkpt lat="45.37916669787129" lon="10.592107627391293"><ele>136.39999999999998</ele><time>2026-03-29T09:02:13Z</time></trkpt><trkpt lat="45.37921045758526" lon="10.592212848050211"><ele>136.6</ele><time>2026-03-29T09:02:15Z</time></trkpt><trkpt lat="45.379239664547256" lon="10.592321288164113"><ele>136.79999999999998</ele><time>2026-03-29T09:02:16Z</time></trkpt><trkpt lat="45.37929928490156" lon="10.592505336956819"><ele>137.0</ele><time>2026-03-29T09:02:17Z</time></trkpt><trkpt lat="45.37937208469057" lon="10.59272188491241"><ele>137.33333333333331</ele><time>2026-03-29T09:02:18Z</time></trkpt><trkpt lat="45.37943208510794" lon="10.592946228992785"><ele>137.66666666666666</ele><time>2026-03-29T09:02:19Z</time></trkpt><trkpt lat="45.379475004829985" lon="10.593196741506114"><ele>138.0</ele><time>2026-03-29T09:02:20Z</time></trkpt><trkpt lat="45.37949000560127" lon="10.593458989218687"><ele>138.0</ele><time>2026-03-29T09:02:21Z</time></trkpt><trkpt lat="45.379488593733626" lon="10.593724819773474"><ele>138.0</ele><time>2026-03-29T09:02:22Z</time></trkpt><trkpt lat="45.37948294117365" lon="10.59399805548689"><ele>138.0</ele><time>2026-03-29T09:02:23Z</time></trkpt><trkpt lat="45.379485471071085" lon="10.594282367886466"><ele>138.0</ele><time>2026-03-29T09:02:24Z</time></trkpt><trkpt lat="45.37949103006592" lon="10.594558783649852"><ele>138.0</ele><time>2026-03-29T09:02:25Z</time></trkpt><trkpt lat="45.37949515161788" lon="10.594844745263583"><ele>138.0</ele><time>2026-03-29T09:02:26Z</time></trkpt><trkpt lat="45.37950815802191" lon="10.595119714840076"><ele>138.66666666666666</ele><time>2026-03-29T09:02:27Z</time></trkpt><trkpt lat="45.37954131930704" lon="10.59538977566788"><ele>139.33333333333331</ele><time>2026-03-29T09:02:28Z</time></trkpt><trkpt lat="45.379592979016294" lon="10.595652556894638"><ele>140.0</ele><time>2026-03-29T09:02:29Z</time></trkpt><trkpt lat="45.37966431047516" lon="10.59591284014404"><ele>138.33333333333331</ele><time>2026-03-29T09:02:30Z</time></trkpt><trkpt lat="45.379743735386555" lon="10.596178495615375"><ele>136.66666666666666</ele><time>2026-03-29T09:02:31Z</time></trkpt><trkpt lat="45.37981937065648" lon="10.596450125082514"><ele>135.0</ele><time>2026-03-29T09:02:32Z</time></trkpt><trkpt lat="45.37988799406528" lon="10.596715506955565"><ele>135.0</ele><time>2026-03-29T09:02:33Z</time></trkpt><trkpt lat="45.37995865454856" lon="10.596988009424138"><ele>135.0</ele><time>2026-03-29T09:02:34Z</time></trkpt><trkpt lat="45.38002671397789" lon="10.597241066603363"><ele>135.0</ele><time>2026-03-29T09:02:35Z</time></trkpt><trkpt lat="45.38009433839963" lon="10.597484161354107"><ele>135.33333333333334</ele><time>2026-03-29T09:02:36Z</time></trkpt><trkpt lat="45.38015827405665" lon="10.59771818097482"><ele>135.66666666666669</ele><time>2026-03-29T09:02:37Z</time></trkpt><trkpt lat="45.380217648590296" lon="10.597934742949219"><ele>136.0</ele><time>2026-03-29T09:02:38Z</time></trkpt><trkpt lat="45.380265064159246" lon="10.59811949000329"><ele>136.25</ele><time>2026-03-29T09:02:39Z</time></trkpt><trkpt lat="45.38030321520675" lon="10.598297112579312"><ele>136.5</ele><time>2026-03-29T09:02:40Z</time></trkpt><trkpt lat="45.38032820131622" lon="10.598472555143081"><ele>136.75</ele><time>2026-03-29T09:02:41Z</time></trkpt><trkpt lat="45.38034015925821" lon="10.598662868850054"><ele>137.0</ele><time>2026-03-29T09:02:42Z</time></trkpt><trkpt lat="45.38034634554532" lon="10.598856361441182"><ele>137.0</ele><time>2026-03-29T09:02:43Z</time></trkpt><trkpt lat="45.380351729694034" lon="10.599046523979887"><ele>137.0</ele><time>2026-03-29T09:02:44Z</time></trkpt><trkpt lat="45.380360865555026" lon="10.59922540712432"><ele>137.0</ele><time>2026-03-29T09:02:45Z</time></trkpt><trkpt lat="45.38037842556494" lon="10.599395818299215"><ele>137.0</ele><time>2026-03-29T09:02:46Z</time></trkpt><trkpt lat="45.380389420311204" lon="10.599561628291152"><ele>136.79999999999998</ele><time>2026-03-29T09:02:47Z</time></trkpt><trkpt lat="45.38039466366044" lon="10.599719649897374"><ele>136.6</ele><time>2026-03-29T09:02:48Z</time></trkpt><trkpt lat="45.38039716717464" lon="10.599872924986554"><ele>136.39999999999998</ele><time>2026-03-29T09:02:49Z</time></trkpt><trkpt lat="45.380398764550435" lon="10.600013847956946"><ele>136.2</ele><time>2026-03-29T09:02:50Z</time></trkpt><trkpt lat="45.38040924845394" lon="10.600146389680758"><ele>136.0</ele><time>2026-03-29T09:02:51Z</time></trkpt><trkpt lat="45.38041878271904" lon="10.600256878148128"><ele>135.0</ele><time>2026-03-29T09:02:52Z</time></trkpt><trkpt lat="45.38041332191421" lon="10.600375549538619"><ele>134.0</ele><time>2026-03-29T09:02:54Z</time></trkpt><trkpt lat="45.38052990958993" lon="10.600627613267369"><ele>133.0</ele><time>2026-03-29T09:02:56Z</time></trkpt><trkpt lat="45.380604249892805" lon="10.600147874348185"><ele>133.0</ele><time>2026-03-29T09:03:50Z</time></trkpt></trkseg><trkseg><trkpt lat="45.38053735230505" lon="10.600250972009366"><ele>133.0</ele><time>2026-03-29T09:44:25Z</time></trkpt><trkpt lat="45.38053112911016" lon="10.600343620299954"><ele>133.0</ele><time>2026-03-29T09:44:57Z</time></trkpt><trkpt lat="45.380447935904726" lon="10.600384477222335"><ele>133.0</ele><time>2026-03-29T09:45:40Z</time></trkpt><trkpt lat="45.38040182380843" lon="10.600482966751962"><ele>133.0</ele><time>2026-03-29T09:45:43Z</time></trkpt><trkpt lat="45.38038217762516" lon="10.600575226302519"><ele>133.0</ele><time>2026-03-29T09:45:45Z</time></trkpt><trkpt lat="45.38027759762562" lon="10.600663585486965"><ele>133.0</ele><time>2026-03-29T09:45:47Z</time></trkpt><trkpt lat="45.38018113230283" lon="10.600688954119901"><ele>133.0</ele><time>2026-03-29T09:45:48Z</time></trkpt><trkpt lat="45.38006262131167" lon="10.600670435839064"><ele>133.0</ele><time>2026-03-29T09:45:49Z</time></trkpt><trkpt lat="45.37994338204026" lon="10.60070729736033"><ele>133.0</ele><time>2026-03-29T09:45:50Z</time></trkpt><trkpt lat="45.379807649538435" lon="10.600735461092"><ele>133.0</ele><time>2026-03-29T09:45:51Z</time></trkpt><trkpt lat="45.37966078715147" lon="10.600764943724831"><ele>133.66666666666669</ele><time>2026-03-29T09:45:52Z</time></trkpt><trkpt lat="45.37950233742337" lon="10.600793423181207"><ele>134.33333333333334</ele><time>2026-03-29T09:45:53Z</time></trkpt><trkpt lat="45.379337437065466" lon="10.600823306680653"><ele>135.0</ele><time>2026-03-29T09:45:54Z</time></trkpt><trkpt lat="45.3791681094198" lon="10.600859441684339"><ele>135.0</ele><time>2026-03-29T09:45:55Z</time></trkpt><trkpt lat="45.37900630502183" lon="10.600856823664"><ele>135.0</ele><time>2026-03-29T09:45:56Z</time></trkpt><trkpt lat="45.378847054107666" lon="10.600874106178543"><ele>135.0</ele><time>2026-03-29T09:45:57Z</time></trkpt><trkpt lat="45.37866802939929" lon="10.60084471259502"><ele>133.33333333333334</ele><time>2026-03-29T09:45:58Z</time></trkpt><trkpt lat="45.37848521353744" lon="10.600805502737009"><ele>131.66666666666669</ele><time>2026-03-29T09:45:59Z</time></trkpt><trkpt lat="45.37830300679942" lon="10.600757011581614"><ele>130.0</ele><time>2026-03-29T09:46:00Z</time></trkpt><trkpt lat="45.37813099042252" lon="10.600720538606879"><ele>127.33333333333334</ele><time>2026-03-29T09:46:01Z</time></trkpt><trkpt lat="45.377969621068516" lon="10.600706516688602"><ele>124.66666666666666</ele><time>2026-03-29T09:46:02Z</time></trkpt><trkpt lat="45.37781448868853" lon="10.600735271451201"><ele>122.0</ele><time>2026-03-29T09:46:03Z</time></trkpt><trkpt lat="45.37767282301604" lon="10.600821734584256"><ele>122.0</ele><time>2026-03-29T09:46:04Z</time></trkpt><trkpt lat="45.377526726200145" lon="10.600953072708997"><ele>122.0</ele><time>2026-03-29T09:46:05Z</time></trkpt><trkpt lat="45.377380446920256" lon="10.601101452766668"><ele>122.0</ele><time>2026-03-29T09:46:06Z</time></trkpt><trkpt lat="45.37723413205754" lon="10.601243123407313"><ele>121.0</ele><time>2026-03-29T09:46:07Z</time></trkpt><trkpt lat="45.37708744959365" lon="10.601361055016959"><ele>120.0</ele><time>2026-03-29T09:46:08Z</time></trkpt><trkpt lat="45.3769405500364" lon="10.601455028691918"><ele>119.0</ele><time>2026-03-29T09:46:09Z</time></trkpt><trkpt lat="45.37677727124375" lon="10.601494061686266"><ele>119.0</ele><time>2026-03-29T09:46:10Z</time></trkpt><trkpt lat="45.37661846618999" lon="10.601524955843505"><ele>119.0</ele><time>2026-03-29T09:46:11Z</time></trkpt><trkpt lat="45.37645784362328" lon="10.601575082547546"><ele>119.0</ele><time>2026-03-29T09:46:12Z</time></trkpt><trkpt lat="45.3762985873009" lon="10.60160088136316"><ele>119.33333333333333</ele><time>2026-03-29T09:46:13Z</time></trkpt><trkpt lat="45.376142782151256" lon="10.601602702734521"><ele>119.66666666666666</ele><time>2026-03-29T09:46:14Z</time></trkpt><trkpt lat="45.37598361109568" lon="10.601604681440355"><ele>120.0</ele><time>2026-03-29T09:46:15Z</time></trkpt><trkpt lat="45.37582107478569" lon="10.601594906452483"><ele>120.0</ele><time>2026-03-29T09:46:16Z</time></trkpt><trkpt lat="45.37565606773507" lon="10.601589657127196"><ele>120.0</ele><time>2026-03-29T09:46:17Z</time></trkpt><trkpt lat="45.375496964147096" lon="10.601554629857034"><ele>120.0</ele><time>2026-03-29T09:46:18Z</time></trkpt><trkpt lat="45.37534142502062" lon="10.601460294937924"><ele>118.66666666666666</ele><time>2026-03-29T09:46:19Z</time></trkpt><trkpt lat="45.37519643666774" lon="10.601358107721166"><ele>117.33333333333333</ele><time>2026-03-29T09:46:20Z</time></trkpt><trkpt lat="45.3750389664669" lon="10.60126298730642"><ele>116.0</ele><time>2026-03-29T09:46:21Z</time></trkpt><trkpt lat="45.3748890712048" lon="10.601144857600978"><ele>116.0</ele><time>2026-03-29T09:46:22Z</time></trkpt><trkpt lat="45.37473196011952" lon="10.601036104020087"><ele>116.0</ele><time>2026-03-29T09:46:23Z</time></trkpt><trkpt lat="45.37457240916308" lon="10.600930740591036"><ele>116.0</ele><time>2026-03-29T09:46:24Z</time></trkpt><trkpt lat="45.37441825811259" lon="10.600819694056753"><ele>114.33333333333333</ele><time>2026-03-29T09:46:25Z</time></trkpt><trkpt lat="45.374263635160766" lon="10.600701873903219"><ele>112.66666666666666</ele><time>2026-03-29T09:46:26Z</time></trkpt><trkpt lat="45.37410519906907" lon="10.600588316903673"><ele>111.0</ele><time>2026-03-29T09:46:27Z</time></trkpt><trkpt lat="45.3739427271072" lon="10.600475768527394"><ele>111.0</ele><time>2026-03-29T09:46:28Z</time></trkpt><trkpt lat="45.37380595720216" lon="10.600339239524342"><ele>111.0</ele><time>2026-03-29T09:46:29Z</time></trkpt><trkpt lat="45.373660885197" lon="10.600203992650078"><ele>111.0</ele><time>2026-03-29T09:46:30Z</time></trkpt><trkpt lat="45.373510049332296" lon="10.600086033928275"><ele>111.25</ele><time>2026-03-29T09:46:31Z</time></trkpt><trkpt lat="45.37337062159969" lon="10.599952996737434"><ele>111.5</ele><time>2026-03-29T09:46:32Z</time></trkpt><trkpt lat="45.37325515589343" lon="10.599834186295613"><ele>111.75</ele><time>2026-03-29T09:46:33Z</time></trkpt><trkpt lat="45.37316025065942" lon="10.599709528938268"><ele>112.0</ele><time>2026-03-29T09:46:34Z</time></trkpt><trkpt lat="45.373095248996016" lon="10.599553443454269"><ele>111.0</ele><time>2026-03-29T09:46:35Z</time></trkpt><trkpt lat="45.37305002441898" lon="10.599355174428586"><ele>110.0</ele><time>2026-03-29T09:46:36Z</time></trkpt><trkpt lat="45.373034216273815" lon="10.599120338989886"><ele>109.0</ele><time>2026-03-29T09:46:37Z</time></trkpt><trkpt lat="45.37302094251954" lon="10.598884295537971"><ele>108.66666666666667</ele><time>2026-03-29T09:46:38Z</time></trkpt><trkpt lat="45.37299286414057" lon="10.598633778414696"><ele>108.33333333333334</ele><time>2026-03-29T09:46:39Z</time></trkpt><trkpt lat="45.37294572510318" lon="10.598409181383394"><ele>108.0</ele><time>2026-03-29T09:46:40Z</time></trkpt><trkpt lat="45.37287862464462" lon="10.598186287700573"><ele>108.0</ele><time>2026-03-29T09:46:41Z</time></trkpt><trkpt lat="45.37282225609219" lon="10.5979516682624"><ele>108.0</ele><time>2026-03-29T09:46:42Z</time></trkpt><trkpt lat="45.372748239582" lon="10.597725168158503"><ele>108.0</ele><time>2026-03-29T09:46:43Z</time></trkpt><trkpt lat="45.372668972514404" lon="10.597498827366595"><ele>108.33333333333334</ele><time>2026-03-29T09:46:44Z</time></trkpt><trkpt lat="45.372566150601116" lon="10.597302866843261"><ele>108.66666666666667</ele><time>2026-03-29T09:46:45Z</time></trkpt><trkpt lat="45.37245871554502" lon="10.597157785887463"><ele>109.0</ele><time>2026-03-29T09:46:46Z</time></trkpt><trkpt lat="45.37230960347503" lon="10.597046154190107"><ele>110.0</ele><time>2026-03-29T09:46:47Z</time></trkpt><trkpt lat="45.372140778189475" lon="10.596938913801132"><ele>111.0</ele><time>2026-03-29T09:46:48Z</time></trkpt><trkpt lat="45.37195596605315" lon="10.596836696705523"><ele>112.0</ele><time>2026-03-29T09:46:49Z</time></trkpt><trkpt lat="45.37176726032742" lon="10.596730127589904"><ele>112.0</ele><time>2026-03-29T09:46:50Z</time></trkpt><trkpt lat="45.37158143678828" lon="10.596591279128997"><ele>112.0</ele><time>2026-03-29T09:46:51Z</time></trkpt><trkpt lat="45.37139676308323" lon="10.59647740746332"><ele>112.0</ele><time>2026-03-29T09:46:52Z</time></trkpt><trkpt lat="45.37121831640957" lon="10.59637028428095"><ele>112.0</ele><time>2026-03-29T09:46:53Z</time></trkpt><trkpt lat="45.37104597619711" lon="10.59627051949657"><ele>112.0</ele><time>2026-03-29T09:46:54Z</time></trkpt><trkpt lat="45.370875535750436" lon="10.596183708584508"><ele>112.0</ele><time>2026-03-29T09:46:55Z</time></trkpt><trkpt lat="45.370717628975925" lon="10.596109631856699"><ele>112.5</ele><time>2026-03-29T09:46:56Z</time></trkpt><trkpt lat="45.37056999974489" lon="10.596046744266772"><ele>113.0</ele><time>2026-03-29T09:46:57Z</time></trkpt><trkpt lat="45.37043211010497" lon="10.595998231035345"><ele>113.5</ele><time>2026-03-29T09:46:58Z</time></trkpt><trkpt lat="45.3703033244561" lon="10.595987859676455"><ele>114.0</ele><time>2026-03-29T09:46:59Z</time></trkpt><trkpt lat="45.370199675499066" lon="10.59601523157189"><ele>115.5</ele><time>2026-03-29T09:47:00Z</time></trkpt><trkpt lat="45.370133363129256" lon="10.596029335474308"><ele>117.0</ele><time>2026-03-29T09:47:01Z</time></trkpt><trkpt lat="45.370120905267726" lon="10.595884993686692"><ele>118.5</ele><time>2026-03-29T09:47:04Z</time></trkpt><trkpt lat="45.370144045506244" lon="10.595660487407567"><ele>120.0</ele><time>2026-03-29T09:47:06Z</time></trkpt><trkpt lat="45.37016390543639" lon="10.595487634313766"><ele>120.25</ele><time>2026-03-29T09:47:07Z</time></trkpt><trkpt lat="45.37017480319622" lon="10.59526788698604"><ele>120.5</ele><time>2026-03-29T09:47:08Z</time></trkpt><trkpt lat="45.370196872992594" lon="10.595058323307702"><ele>120.75</ele><time>2026-03-29T09:47:09Z</time></trkpt><trkpt lat="45.370193751798794" lon="10.594878755747686"><ele>121.0</ele><time>2026-03-29T09:47:10Z</time></trkpt><trkpt lat="45.37019635888702" lon="10.594716795533358"><ele>121.0</ele><time>2026-03-29T09:47:11Z</time></trkpt><trkpt lat="45.37016576746684" lon="10.594563527365906"><ele>121.0</ele><time>2026-03-29T09:47:12Z</time></trkpt><trkpt lat="45.37015882571994" lon="10.594407131429248"><ele>121.0</ele><time>2026-03-29T09:47:13Z</time></trkpt><trkpt lat="45.370148392060045" lon="10.594255400154763"><ele>121.0</ele><time>2026-03-29T09:47:14Z</time></trkpt><trkpt lat="45.37013461738399" lon="10.594106349506776"><ele>121.0</ele><time>2026-03-29T09:47:15Z</time></trkpt><trkpt lat="45.37016237815194" lon="10.593970847806926"><ele>121.4</ele><time>2026-03-29T09:47:16Z</time></trkpt><trkpt lat="45.370173522874374" lon="10.593847096643243"><ele>121.8</ele><time>2026-03-29T09:47:17Z</time></trkpt><trkpt lat="45.37008647108635" lon="10.59368341306331"><ele>122.20000000000002</ele><time>2026-03-29T09:47:18Z</time></trkpt><trkpt lat="45.37009086991483" lon="10.593544975830273"><ele>122.60000000000001</ele><time>2026-03-29T09:47:19Z</time></trkpt><trkpt lat="45.37011432665063" lon="10.593424148872609"><ele>123.0</ele><time>2026-03-29T09:47:20Z</time></trkpt><trkpt lat="45.3701518813595" lon="10.593319371719144"><ele>123.25</ele><time>2026-03-29T09:47:21Z</time></trkpt><trkpt lat="45.37019197968429" lon="10.593184632578986"><ele>123.5</ele><time>2026-03-29T09:47:22Z</time></trkpt><trkpt lat="45.37025211465169" lon="10.593023873605318"><ele>123.75</ele><time>2026-03-29T09:47:23Z</time></trkpt><trkpt lat="45.37031067546723" lon="10.592834177028474"><ele>124.0</ele><time>2026-03-29T09:47:24Z</time></trkpt><trkpt lat="45.37038172287914" lon="10.592665917233042"><ele>125.33333333333334</ele><time>2026-03-29T09:47:25Z</time></trkpt><trkpt lat="45.37045500023542" lon="10.592501951539035"><ele>126.66666666666666</ele><time>2026-03-29T09:47:26Z</time></trkpt><trkpt lat="45.37053902679175" lon="10.592291417240753"><ele>128.0</ele><time>2026-03-29T09:47:27Z</time></trkpt><trkpt lat="45.37061612696147" lon="10.592076394104026"><ele>124.5</ele><time>2026-03-29T09:47:28Z</time></trkpt><trkpt lat="45.370679141188354" lon="10.591901521040498"><ele>121.0</ele><time>2026-03-29T09:47:29Z</time></trkpt><trkpt lat="45.37072476713202" lon="10.591729564711034"><ele>117.5</ele><time>2026-03-29T09:47:30Z</time></trkpt><trkpt lat="45.37075528134238" lon="10.591553218400296"><ele>114.0</ele><time>2026-03-29T09:47:31Z</time></trkpt><trkpt lat="45.37076890025109" lon="10.591409848430517"><ele>114.0</ele><time>2026-03-29T09:47:32Z</time></trkpt><trkpt lat="45.370778521141425" lon="10.591254910019124"><ele>114.0</ele><time>2026-03-29T09:47:33Z</time></trkpt><trkpt lat="45.3707807452409" lon="10.591105031084918"><ele>114.0</ele><time>2026-03-29T09:47:34Z</time></trkpt><trkpt lat="45.370779702531415" lon="10.590988657196135"><ele>114.0</ele><time>2026-03-29T09:47:35Z</time></trkpt><trkpt lat="45.37072606836869" lon="10.590841196777415"><ele>114.0</ele><time>2026-03-29T09:47:37Z</time></trkpt><trkpt lat="45.37067923768952" lon="10.590733656779067"><ele>113.5</ele><time>2026-03-29T09:47:38Z</time></trkpt><trkpt lat="45.37062403790275" lon="10.59060392247563"><ele>113.0</ele><time>2026-03-29T09:47:39Z</time></trkpt><trkpt lat="45.37055344746999" lon="10.590478051031951"><ele>112.5</ele><time>2026-03-29T09:47:40Z</time></trkpt><trkpt lat="45.37045262782987" lon="10.590345809729003"><ele>112.0</ele><time>2026-03-29T09:47:41Z</time></trkpt><trkpt lat="45.37035266605339" lon="10.590216924832065"><ele>113.83333333333334</ele><time>2026-03-29T09:47:42Z</time></trkpt><trkpt lat="45.37028745612555" lon="10.590102952471042"><ele>115.66666666666667</ele><time>2026-03-29T09:47:43Z</time></trkpt><trkpt lat="45.37025906678881" lon="10.589975169484916"><ele>117.5</ele><time>2026-03-29T09:47:44Z</time></trkpt><trkpt lat="45.37023150776811" lon="10.589849892836854"><ele>119.33333333333334</ele><time>2026-03-29T09:47:45Z</time></trkpt><trkpt lat="45.37019911334844" lon="10.589755379051105"><ele>121.16666666666667</ele><time>2026-03-29T09:47:46Z</time></trkpt><trkpt lat="45.37014975952479" lon="10.589679882242946"><ele>123.0</ele><time>2026-03-29T09:47:47Z</time></trkpt><trkpt lat="45.37008081431355" lon="10.589617624087456"><ele>123.0</ele><time>2026-03-29T09:47:48Z</time></trkpt><trkpt lat="45.36998514878711" lon="10.589551294219707"><ele>123.00000000000001</ele><time>2026-03-29T09:47:49Z</time></trkpt><trkpt lat="45.36987503646648" lon="10.589476780660194"><ele>123.00000000000001</ele><time>2026-03-29T09:47:50Z</time></trkpt><trkpt lat="45.36976998857906" lon="10.589404862280313"><ele>123.0</ele><time>2026-03-29T09:47:51Z</time></trkpt><trkpt lat="45.369684133675534" lon="10.589348058348175"><ele>123.0</ele><time>2026-03-29T09:47:52Z</time></trkpt><trkpt lat="45.369594048869" lon="10.589276266114464"><ele>123.2</ele><time>2026-03-29T09:47:53Z</time></trkpt><trkpt lat="45.36952264784934" lon="10.58922325232185"><ele>123.4</ele><time>2026-03-29T09:47:54Z</time></trkpt><trkpt lat="45.369454068535916" lon="10.589139146003639"><ele>123.60000000000001</ele><time>2026-03-29T09:47:55Z</time></trkpt><trkpt lat="45.36938517382749" lon="10.589000636630658"><ele>123.80000000000001</ele><time>2026-03-29T09:47:56Z</time></trkpt><trkpt lat="45.36931445871565" lon="10.588865968709845"><ele>124.0</ele><time>2026-03-29T09:47:57Z</time></trkpt><trkpt lat="45.369233655425234" lon="10.588735282054309"><ele>122.6</ele><time>2026-03-29T09:47:58Z</time></trkpt><trkpt lat="45.36916219573461" lon="10.588580637351628"><ele>121.2</ele><time>2026-03-29T09:47:59Z</time></trkpt><trkpt lat="45.36910289849666" lon="10.588424508355502"><ele>119.79999999999998</ele><time>2026-03-29T09:48:00Z</time></trkpt><trkpt lat="45.36905636847591" lon="10.588322303292871"><ele>118.39999999999999</ele><time>2026-03-29T09:48:01Z</time></trkpt><trkpt lat="45.36900921807305" lon="10.58824763334853"><ele>117.0</ele><time>2026-03-29T09:48:02Z</time></trkpt><trkpt lat="45.36895448278263" lon="10.588191071550845"><ele>117.0</ele><time>2026-03-29T09:48:03Z</time></trkpt><trkpt lat="45.368883863082054" lon="10.588132123595097"><ele>116.99999999999999</ele><time>2026-03-29T09:48:04Z</time></trkpt><trkpt lat="45.36879585398595" lon="10.58810098331958"><ele>116.99999999999999</ele><time>2026-03-29T09:48:05Z</time></trkpt><trkpt lat="45.36870607159391" lon="10.588027121358438"><ele>117.0</ele><time>2026-03-29T09:48:06Z</time></trkpt><trkpt lat="45.36860603455132" lon="10.587944054153729"><ele>117.0</ele><time>2026-03-29T09:48:07Z</time></trkpt><trkpt lat="45.36852343583522" lon="10.587854571491986"><ele>118.16666666666667</ele><time>2026-03-29T09:48:08Z</time></trkpt><trkpt lat="45.3684750308645" lon="10.587770931891834"><ele>119.33333333333334</ele><time>2026-03-29T09:48:09Z</time></trkpt><trkpt lat="45.368433487013526" lon="10.587681945101968"><ele>120.5</ele><time>2026-03-29T09:48:10Z</time></trkpt><trkpt lat="45.368369643117255" lon="10.587576029756455"><ele>121.66666666666667</ele><time>2026-03-29T09:48:11Z</time></trkpt><trkpt lat="45.36832277687655" lon="10.58745323576579"><ele>122.83333333333334</ele><time>2026-03-29T09:48:12Z</time></trkpt><trkpt lat="45.36830414939294" lon="10.587336384551625"><ele>124.0</ele><time>2026-03-29T09:48:13Z</time></trkpt><trkpt lat="45.3682619754756" lon="10.587245405104664"><ele>124.00000000000001</ele><time>2026-03-29T09:48:14Z</time></trkpt><trkpt lat="45.36821497709212" lon="10.587182754508927"><ele>124.0</ele><time>2026-03-29T09:48:15Z</time></trkpt><trkpt lat="45.36816123526283" lon="10.587109192053578"><ele>124.0</ele><time>2026-03-29T09:48:16Z</time></trkpt><trkpt lat="45.36809000514819" lon="10.587028017711992"><ele>124.0</ele><time>2026-03-29T09:48:17Z</time></trkpt><trkpt lat="45.368026155617095" lon="10.586929176010008"><ele>124.00000000000001</ele><time>2026-03-29T09:48:18Z</time></trkpt><trkpt lat="45.36798549237913" lon="10.586799768664076"><ele>124.0</ele><time>2026-03-29T09:48:19Z</time></trkpt><trkpt lat="45.36794826621145" lon="10.586665710608466"><ele>123.25</ele><time>2026-03-29T09:48:20Z</time></trkpt><trkpt lat="45.36790515045186" lon="10.586558988760016"><ele>122.5</ele><time>2026-03-29T09:48:21Z</time></trkpt><trkpt lat="45.36783155176887" lon="10.586411438913622"><ele>121.75</ele><time>2026-03-29T09:48:22Z</time></trkpt><trkpt lat="45.367735752303574" lon="10.586260979584692"><ele>121.0</ele><time>2026-03-29T09:48:23Z</time></trkpt><trkpt lat="45.36763536870527" lon="10.58609651687144"><ele>121.0</ele><time>2026-03-29T09:48:24Z</time></trkpt><trkpt lat="45.36755197737401" lon="10.585948447328407"><ele>121.0</ele><time>2026-03-29T09:48:25Z</time></trkpt><trkpt lat="45.367481574453514" lon="10.585812320965227"><ele>121.0</ele><time>2026-03-29T09:48:26Z</time></trkpt><trkpt lat="45.36741333858118" lon="10.585664106998209"><ele>121.0</ele><time>2026-03-29T09:48:27Z</time></trkpt><trkpt lat="45.36734620513004" lon="10.58553372717616"><ele>121.00000000000001</ele><time>2026-03-29T09:48:28Z</time></trkpt><trkpt lat="45.36728745373838" lon="10.585424627599295"><ele>121.0</ele><time>2026-03-29T09:48:29Z</time></trkpt><trkpt lat="45.367239089996026" lon="10.585331123697147"><ele>121.0</ele><time>2026-03-29T09:48:30Z</time></trkpt><trkpt lat="45.36720384181918" lon="10.585247201229782"><ele>121.0</ele><time>2026-03-29T09:48:31Z</time></trkpt><trkpt lat="45.36720056471426" lon="10.585155196874119"><ele>121.00000000000001</ele><time>2026-03-29T09:48:32Z</time></trkpt><trkpt lat="45.36722047317384" lon="10.585046626129012"><ele>121.0</ele><time>2026-03-29T09:48:33Z</time></trkpt><trkpt lat="45.36726645049862" lon="10.58491619373572"><ele>121.25</ele><time>2026-03-29T09:48:34Z</time></trkpt><trkpt lat="45.36733818213941" lon="10.584725645128891"><ele>121.5</ele><time>2026-03-29T09:48:35Z</time></trkpt><trkpt lat="45.367420177810324" lon="10.584559805360266"><ele>121.75</ele><time>2026-03-29T09:48:36Z</time></trkpt><trkpt lat="45.3674961629964" lon="10.584417360396172"><ele>122.0</ele><time>2026-03-29T09:48:37Z</time></trkpt><trkpt lat="45.36756962438373" lon="10.584266296455624"><ele>123.0</ele><time>2026-03-29T09:48:38Z</time></trkpt><trkpt lat="45.36763194300679" lon="10.58413468576498"><ele>123.99999999999999</ele><time>2026-03-29T09:48:39Z</time></trkpt><trkpt lat="45.36768994071038" lon="10.58400770322419"><ele>124.99999999999999</ele><time>2026-03-29T09:48:40Z</time></trkpt><trkpt lat="45.367730192980275" lon="10.583899509939586"><ele>126.0</ele><time>2026-03-29T09:48:41Z</time></trkpt><trkpt lat="45.367787838198325" lon="10.583776162010128"><ele>127.0</ele><time>2026-03-29T09:48:42Z</time></trkpt><trkpt lat="45.36784012979403" lon="10.583625623603975"><ele>127.75</ele><time>2026-03-29T09:48:43Z</time></trkpt><trkpt lat="45.36788620506694" lon="10.583465513289106"><ele>128.5</ele><time>2026-03-29T09:48:44Z</time></trkpt><trkpt lat="45.36791855538633" lon="10.583303570430644"><ele>129.25</ele><time>2026-03-29T09:48:45Z</time></trkpt><trkpt lat="45.367925400984" lon="10.583147817727765"><ele>130.0</ele><time>2026-03-29T09:48:46Z</time></trkpt><trkpt lat="45.36793834437069" lon="10.582974111786658"><ele>129.8</ele><time>2026-03-29T09:48:47Z</time></trkpt><trkpt lat="45.36795829916241" lon="10.582804011873732"><ele>129.6</ele><time>2026-03-29T09:48:48Z</time></trkpt><trkpt lat="45.36799048439461" lon="10.582658465117792"><ele>129.4</ele><time>2026-03-29T09:48:49Z</time></trkpt><trkpt lat="45.368021396171514" lon="10.58251113378497"><ele>129.2</ele><time>2026-03-29T09:48:50Z</time></trkpt><trkpt lat="45.36806003015906" lon="10.582371056540005"><ele>129.0</ele><time>2026-03-29T09:48:51Z</time></trkpt><trkpt lat="45.36809650784398" lon="10.582228171488818"><ele>126.16666666666667</ele><time>2026-03-29T09:48:52Z</time></trkpt><trkpt lat="45.36813198839831" lon="10.582100141554182"><ele>123.33333333333334</ele><time>2026-03-29T09:48:53Z</time></trkpt><trkpt lat="45.36816759215185" lon="10.582016795445517"><ele>120.5</ele><time>2026-03-29T09:48:54Z</time></trkpt><trkpt lat="45.368242740105444" lon="10.581934046901997"><ele>117.66666666666667</ele><time>2026-03-29T09:48:56Z</time></trkpt><trkpt lat="45.368304841022" lon="10.581910329071286"><ele>114.83333333333334</ele><time>2026-03-29T09:48:57Z</time></trkpt><trkpt lat="45.36840067202274" lon="10.581903624693116"><ele>112.0</ele><time>2026-03-29T09:48:58Z</time></trkpt><trkpt lat="45.368519691856676" lon="10.581895112963116"><ele>112.0</ele><time>2026-03-29T09:48:59Z</time></trkpt><trkpt lat="45.368634199746744" lon="10.58185502234806"><ele>112.0</ele><time>2026-03-29T09:49:00Z</time></trkpt><trkpt lat="45.36876409840431" lon="10.581782766462558"><ele>112.0</ele><time>2026-03-29T09:49:01Z</time></trkpt><trkpt lat="45.368891868988584" lon="10.581706993526355"><ele>112.0</ele><time>2026-03-29T09:49:02Z</time></trkpt><trkpt lat="45.36897158489217" lon="10.581466653212036"><ele>111.8</ele><time>2026-03-29T09:49:03Z</time></trkpt><trkpt lat="45.36908633900008" lon="10.58142495123566"><ele>111.6</ele><time>2026-03-29T09:49:04Z</time></trkpt><trkpt lat="45.369200578313425" lon="10.581374981530999"><ele>111.39999999999999</ele><time>2026-03-29T09:49:05Z</time></trkpt><trkpt lat="45.36929070269024" lon="10.581331084125134"><ele>111.19999999999999</ele><time>2026-03-29T09:49:06Z</time></trkpt><trkpt lat="45.36939079403618" lon="10.581276467479864"><ele>111.0</ele><time>2026-03-29T09:49:08Z</time></trkpt><trkpt lat="45.36935257762175" lon="10.581188301923723"><ele>111.0</ele><time>2026-03-29T09:49:11Z</time></trkpt><trkpt lat="45.36926376418407" lon="10.581258420613606"><ele>111.0</ele><time>2026-03-29T09:49:13Z</time></trkpt><trkpt lat="45.36915608994076" lon="10.58131838499915"><ele>111.0</ele><time>2026-03-29T09:49:14Z</time></trkpt><trkpt lat="45.368983989281254" lon="10.581399527939624"><ele>111.0</ele><time>2026-03-29T09:49:15Z</time></trkpt><trkpt lat="45.368803268004726" lon="10.581473893015517"><ele>111.33333333333334</ele><time>2026-03-29T09:49:16Z</time></trkpt><trkpt lat="45.36862257414335" lon="10.581504442911719"><ele>111.66666666666667</ele><time>2026-03-29T09:49:17Z</time></trkpt><trkpt lat="45.36844476247232" lon="10.58153999023907"><ele>112.0</ele><time>2026-03-29T09:49:18Z</time></trkpt><trkpt lat="45.36823587863845" lon="10.581577406767924"><ele>118.0</ele><time>2026-03-29T09:49:19Z</time></trkpt><trkpt lat="45.368006312872424" lon="10.581607931919098"><ele>124.0</ele><time>2026-03-29T09:49:20Z</time></trkpt><trkpt lat="45.367778517419296" lon="10.581596715185896"><ele>124.0</ele><time>2026-03-29T09:49:21Z</time></trkpt><trkpt lat="45.36756228244749" lon="10.581571714489847"><ele>124.0</ele><time>2026-03-29T09:49:22Z</time></trkpt><trkpt lat="45.367350537214186" lon="10.58158162688273"><ele>124.0</ele><time>2026-03-29T09:49:23Z</time></trkpt><trkpt lat="45.36714335423011" lon="10.581598004628566"><ele>125.66666666666667</ele><time>2026-03-29T09:49:24Z</time></trkpt><trkpt lat="45.366941920763104" lon="10.581615702625824"><ele>127.33333333333334</ele><time>2026-03-29T09:49:25Z</time></trkpt><trkpt lat="45.366733519651454" lon="10.581633739647183"><ele>129.0</ele><time>2026-03-29T09:49:26Z</time></trkpt><trkpt lat="45.36655218550665" lon="10.5816479505803"><ele>129.0</ele><time>2026-03-29T09:49:27Z</time></trkpt><trkpt lat="45.366394969315024" lon="10.581658868496376"><ele>129.0</ele><time>2026-03-29T09:49:28Z</time></trkpt><trkpt lat="45.36625074391525" lon="10.58166533154497"><ele>129.0</ele><time>2026-03-29T09:49:29Z</time></trkpt><trkpt lat="45.36612530550131" lon="10.581650590974675"><ele>129.0</ele><time>2026-03-29T09:49:30Z</time></trkpt><trkpt lat="45.36599960349122" lon="10.58159904696611"><ele>129.75</ele><time>2026-03-29T09:49:31Z</time></trkpt><trkpt lat="45.36586508266367" lon="10.581529233859536"><ele>130.5</ele><time>2026-03-29T09:49:32Z</time></trkpt><trkpt lat="45.36574090370463" lon="10.581494030824553"><ele>131.25</ele><time>2026-03-29T09:49:33Z</time></trkpt><trkpt lat="45.36560538494096" lon="10.581480514359868"><ele>132.0</ele><time>2026-03-29T09:49:34Z</time></trkpt><trkpt lat="45.36544288092786" lon="10.581588083077667"><ele>133.66666666666666</ele><time>2026-03-29T09:49:35Z</time></trkpt><trkpt lat="45.3652454844739" lon="10.581717057246971"><ele>135.33333333333331</ele><time>2026-03-29T09:49:36Z</time></trkpt><trkpt lat="45.36502032545022" lon="10.581773768130905"><ele>137.0</ele><time>2026-03-29T09:49:37Z</time></trkpt><trkpt lat="45.36478214809368" lon="10.58176968518092"><ele>139.5</ele><time>2026-03-29T09:49:38Z</time></trkpt><trkpt lat="45.36451518091046" lon="10.581788739776545"><ele>142.0</ele><time>2026-03-29T09:49:39Z</time></trkpt><trkpt lat="45.36425927561772" lon="10.581804197667699"><ele>142.0</ele><time>2026-03-29T09:49:40Z</time></trkpt><trkpt lat="45.36405406697834" lon="10.581808475745976"><ele>142.0</ele><time>2026-03-29T09:49:41Z</time></trkpt><trkpt lat="45.363858118652466" lon="10.581793571056176"><ele>142.0</ele><time>2026-03-29T09:49:42Z</time></trkpt><trkpt lat="45.363645764729384" lon="10.581755022951278"><ele>142.66666666666669</ele><time>2026-03-29T09:49:43Z</time></trkpt><trkpt lat="45.363417979196335" lon="10.581692430745392"><ele>143.33333333333334</ele><time>2026-03-29T09:49:44Z</time></trkpt><trkpt lat="45.36321893581797" lon="10.58162140389039"><ele>144.0</ele><time>2026-03-29T09:49:45Z</time></trkpt><trkpt lat="45.3630427743498" lon="10.581537996754605"><ele>144.66666666666666</ele><time>2026-03-29T09:49:46Z</time></trkpt><trkpt lat="45.36286081858986" lon="10.581462153475329"><ele>145.33333333333331</ele><time>2026-03-29T09:49:47Z</time></trkpt><trkpt lat="45.36267698454527" lon="10.581359486741308"><ele>146.0</ele><time>2026-03-29T09:49:48Z</time></trkpt><trkpt lat="45.36250056726328" lon="10.581239740915445"><ele>146.33333333333331</ele><time>2026-03-29T09:49:49Z</time></trkpt><trkpt lat="45.362329068495875" lon="10.581118629816642"><ele>146.66666666666666</ele><time>2026-03-29T09:49:50Z</time></trkpt><trkpt lat="45.36215524634961" lon="10.580976846557505"><ele>147.0</ele><time>2026-03-29T09:49:51Z</time></trkpt><trkpt lat="45.36199688138735" lon="10.58083291584721"><ele>148.66666666666666</ele><time>2026-03-29T09:49:52Z</time></trkpt><trkpt lat="45.36184159302505" lon="10.580690080318272"><ele>150.33333333333331</ele><time>2026-03-29T09:49:53Z</time></trkpt><trkpt lat="45.36168489153622" lon="10.580543750021954"><ele>152.0</ele><time>2026-03-29T09:49:54Z</time></trkpt><trkpt lat="45.36154421139668" lon="10.580405202369498"><ele>152.0</ele><time>2026-03-29T09:49:55Z</time></trkpt><trkpt lat="45.361430234641844" lon="10.580302027640144"><ele>152.0</ele><time>2026-03-29T09:49:56Z</time></trkpt><trkpt lat="45.3613674517487" lon="10.580243991791594"><ele>152.0</ele><time>2026-03-29T09:49:57Z</time></trkpt><trkpt lat="45.361405162939334" lon="10.580464528135682"><ele>152.0</ele><time>2026-03-29T09:50:03Z</time></trkpt><trkpt lat="45.36149342286596" lon="10.580642139817424"><ele>152.0</ele><time>2026-03-29T09:50:05Z</time></trkpt><trkpt lat="45.361572419246365" lon="10.58076371517907"><ele>152.0</ele><time>2026-03-29T09:50:06Z</time></trkpt><trkpt lat="45.36167781179883" lon="10.580889610294049"><ele>152.0</ele><time>2026-03-29T09:50:07Z</time></trkpt><trkpt lat="45.361799260855165" lon="10.581009998002212"><ele>152.0</ele><time>2026-03-29T09:50:08Z</time></trkpt><trkpt lat="45.36191576409458" lon="10.581119328297781"><ele>152.79999999999998</ele><time>2026-03-29T09:50:09Z</time></trkpt><trkpt lat="45.36201863312216" lon="10.581214622222676"><ele>153.6</ele><time>2026-03-29T09:50:10Z</time></trkpt><trkpt lat="45.362100070347886" lon="10.581319081300808"><ele>154.39999999999998</ele><time>2026-03-29T09:50:11Z</time></trkpt><trkpt lat="45.36215501293235" lon="10.581419981446674"><ele>155.2</ele><time>2026-03-29T09:50:12Z</time></trkpt><trkpt lat="45.362170924877496" lon="10.581526357270809"><ele>156.0</ele><time>2026-03-29T09:50:13Z</time></trkpt><trkpt lat="45.362181245621265" lon="10.581670853585733"><ele>156.0</ele><time>2026-03-29T09:50:14Z</time></trkpt><trkpt lat="45.36218796925664" lon="10.581851818443015"><ele>156.0</ele><time>2026-03-29T09:50:15Z</time></trkpt><trkpt lat="45.362174421031696" lon="10.582063762865982"><ele>156.0</ele><time>2026-03-29T09:50:16Z</time></trkpt><trkpt lat="45.362170564471256" lon="10.582308330805697"><ele>156.0</ele><time>2026-03-29T09:50:17Z</time></trkpt><trkpt lat="45.362166629248875" lon="10.582539528804944"><ele>156.75</ele><time>2026-03-29T09:50:18Z</time></trkpt><trkpt lat="45.362176142562625" lon="10.582738664466389"><ele>157.5</ele><time>2026-03-29T09:50:19Z</time></trkpt><trkpt lat="45.362207071483894" lon="10.582935074460869"><ele>158.25</ele><time>2026-03-29T09:50:20Z</time></trkpt><trkpt lat="45.3622596064596" lon="10.58314372731008"><ele>159.0</ele><time>2026-03-29T09:50:21Z</time></trkpt><trkpt lat="45.36230745182798" lon="10.583373565401667"><ele>157.5</ele><time>2026-03-29T09:50:22Z</time></trkpt><trkpt lat="45.362340166968465" lon="10.583579345726232"><ele>156.0</ele><time>2026-03-29T09:50:23Z</time></trkpt><trkpt lat="45.36236843295647" lon="10.583748879547333"><ele>154.5</ele><time>2026-03-29T09:50:24Z</time></trkpt><trkpt lat="45.36238532957786" lon="10.583937564705579"><ele>153.0</ele><time>2026-03-29T09:50:25Z</time></trkpt><trkpt lat="45.362397360909924" lon="10.584137554061087"><ele>153.0</ele><time>2026-03-29T09:50:26Z</time></trkpt><trkpt lat="45.36240099128138" lon="10.584320728269672"><ele>153.0</ele><time>2026-03-29T09:50:27Z</time></trkpt><trkpt lat="45.36241180339096" lon="10.584485643520795"><ele>153.0</ele><time>2026-03-29T09:50:28Z</time></trkpt><trkpt lat="45.36242323121085" lon="10.584591632260832"><ele>153.0</ele><time>2026-03-29T09:50:29Z</time></trkpt><trkpt lat="45.36250978926019" lon="10.584679349520812"><ele>153.0</ele><time>2026-03-29T09:50:32Z</time></trkpt><trkpt lat="45.36259046554418" lon="10.584740226187554"><ele>153.0</ele><time>2026-03-29T09:50:34Z</time></trkpt><trkpt lat="45.36264184936901" lon="10.584940624392924"><ele>153.0</ele><time>2026-03-29T09:50:36Z</time></trkpt><trkpt lat="45.362643988785436" lon="10.585051820407148"><ele>153.0</ele><time>2026-03-29T09:50:37Z</time></trkpt><trkpt lat="45.3626135043252" lon="10.585156339033452"><ele>153.0</ele><time>2026-03-29T09:50:38Z</time></trkpt><trkpt lat="45.36255667062172" lon="10.585278877175076"><ele>153.0</ele><time>2026-03-29T09:50:39Z</time></trkpt><trkpt lat="45.36249691076095" lon="10.585416652504495"><ele>153.0</ele><time>2026-03-29T09:50:40Z</time></trkpt><trkpt lat="45.36245901037256" lon="10.585536266959336"><ele>153.0</ele><time>2026-03-29T09:50:41Z</time></trkpt><trkpt lat="45.36245876879617" lon="10.58565871233593"><ele>153.0</ele><time>2026-03-29T09:50:42Z</time></trkpt><trkpt lat="45.362492486841504" lon="10.585777355403847"><ele>153.0</ele><time>2026-03-29T09:50:43Z</time></trkpt><trkpt lat="45.362540104250044" lon="10.585921717518682"><ele>153.0</ele><time>2026-03-29T09:50:44Z</time></trkpt><trkpt lat="45.362575424063664" lon="10.58603954639287"><ele>153.4</ele><time>2026-03-29T09:50:45Z</time></trkpt><trkpt lat="45.36258257968595" lon="10.586184174033283"><ele>153.8</ele><time>2026-03-29T09:50:46Z</time></trkpt><trkpt lat="45.36257872259502" lon="10.586372015037378"><ele>154.2</ele><time>2026-03-29T09:50:47Z</time></trkpt><trkpt lat="45.3625782718288" lon="10.586525516361554"><ele>154.6</ele><time>2026-03-29T09:50:48Z</time></trkpt><trkpt lat="45.362580692071845" lon="10.586626247712156"><ele>155.0</ele><time>2026-03-29T09:50:49Z</time></trkpt><trkpt lat="45.36262216247752" lon="10.586723462011774"><ele>155.0</ele><time>2026-03-29T09:50:51Z</time></trkpt><trkpt lat="45.36268980548832" lon="10.58677556146827"><ele>155.0</ele><time>2026-03-29T09:50:52Z</time></trkpt><trkpt lat="45.36277693321951" lon="10.586814855735518"><ele>155.0</ele><time>2026-03-29T09:50:53Z</time></trkpt><trkpt lat="45.36287226607864" lon="10.586834043493779"><ele>155.0</ele><time>2026-03-29T09:50:54Z</time></trkpt><trkpt lat="45.3629625628686" lon="10.586841747116118"><ele>155.0</ele><time>2026-03-29T09:50:55Z</time></trkpt><trkpt lat="45.36306290481262" lon="10.586828674777015"><ele>152.6</ele><time>2026-03-29T09:50:56Z</time></trkpt><trkpt lat="45.36316037356898" lon="10.586808814448615"><ele>150.2</ele><time>2026-03-29T09:50:57Z</time></trkpt><trkpt lat="45.36326550301543" lon="10.586803107748699"><ele>147.8</ele><time>2026-03-29T09:50:58Z</time></trkpt><trkpt lat="45.36334670004349" lon="10.586807926487143"><ele>145.4</ele><time>2026-03-29T09:50:59Z</time></trkpt><trkpt lat="45.363409339055124" lon="10.586831499162166"><ele>143.0</ele><time>2026-03-29T09:51:00Z</time></trkpt><trkpt lat="45.363506537493905" lon="10.58694581647678"><ele>144.33333333333331</ele><time>2026-03-29T09:51:02Z</time></trkpt><trkpt lat="45.36352987665007" lon="10.587035360374857"><ele>145.66666666666666</ele><time>2026-03-29T09:51:03Z</time></trkpt><trkpt lat="45.36354559622746" lon="10.58714966067323"><ele>147.0</ele><time>2026-03-29T09:51:04Z</time></trkpt><trkpt lat="45.363554080288274" lon="10.58728374185339"><ele>148.33333333333334</ele><time>2026-03-29T09:51:05Z</time></trkpt><trkpt lat="45.363549522420904" lon="10.587396069363818"><ele>149.66666666666669</ele><time>2026-03-29T09:51:06Z</time></trkpt><trkpt lat="45.36353543707248" lon="10.587520394075229"><ele>151.0</ele><time>2026-03-29T09:51:07Z</time></trkpt><trkpt lat="45.363559871215536" lon="10.58767206069119"><ele>151.0</ele><time>2026-03-29T09:51:09Z</time></trkpt><trkpt lat="45.36361681966803" lon="10.587754196110172"><ele>151.0</ele><time>2026-03-29T09:51:10Z</time></trkpt><trkpt lat="45.36370045521884" lon="10.587839846807242"><ele>151.0</ele><time>2026-03-29T09:51:11Z</time></trkpt><trkpt lat="45.36380088168663" lon="10.587912476724103"><ele>151.0</ele><time>2026-03-29T09:51:12Z</time></trkpt><trkpt lat="45.363897227136015" lon="10.587992648210015"><ele>151.0</ele><time>2026-03-29T09:51:13Z</time></trkpt><trkpt lat="45.36398854592249" lon="10.58805959164553"><ele>147.75</ele><time>2026-03-29T09:51:14Z</time></trkpt><trkpt lat="45.36409194922236" lon="10.588101857286558"><ele>144.5</ele><time>2026-03-29T09:51:15Z</time></trkpt><trkpt lat="45.36420701958964" lon="10.58812976232916"><ele>141.25</ele><time>2026-03-29T09:51:16Z</time></trkpt><trkpt lat="45.364312440669444" lon="10.588164390455644"><ele>138.0</ele><time>2026-03-29T09:51:17Z</time></trkpt><trkpt lat="45.36444528977233" lon="10.588225150913813"><ele>138.0</ele><time>2026-03-29T09:51:18Z</time></trkpt><trkpt lat="45.36459096554426" lon="10.588291842237501"><ele>138.0</ele><time>2026-03-29T09:51:19Z</time></trkpt><trkpt lat="45.364726941634224" lon="10.588355512568157"><ele>138.0</ele><time>2026-03-29T09:51:20Z</time></trkpt><trkpt lat="45.364839126869384" lon="10.588404882995144"><ele>138.0</ele><time>2026-03-29T09:51:21Z</time></trkpt><trkpt lat="45.36493923474776" lon="10.588442299715412"><ele>138.5</ele><time>2026-03-29T09:51:22Z</time></trkpt><trkpt lat="45.36504243258278" lon="10.588460395451492"><ele>139.0</ele><time>2026-03-29T09:51:23Z</time></trkpt><trkpt lat="45.36518523078687" lon="10.588457595746846"><ele>139.5</ele><time>2026-03-29T09:51:24Z</time></trkpt><trkpt lat="45.36533947946458" lon="10.588442131746929"><ele>140.0</ele><time>2026-03-29T09:51:25Z</time></trkpt><trkpt lat="45.36549930042857" lon="10.588420986958278"><ele>140.75</ele><time>2026-03-29T09:51:26Z</time></trkpt><trkpt lat="45.365624233079416" lon="10.588403526349822"><ele>141.5</ele><time>2026-03-29T09:51:27Z</time></trkpt><trkpt lat="45.36571118994016" lon="10.588408749658875"><ele>142.25</ele><time>2026-03-29T09:51:28Z</time></trkpt><trkpt lat="45.365827631485786" lon="10.588428104303729"><ele>143.0</ele><time>2026-03-29T09:51:29Z</time></trkpt><trkpt lat="45.365942742930415" lon="10.588479635297723"><ele>143.0</ele><time>2026-03-29T09:51:30Z</time></trkpt><trkpt lat="45.3660283807747" lon="10.588525703209742"><ele>143.0</ele><time>2026-03-29T09:51:31Z</time></trkpt><trkpt lat="45.36611758521261" lon="10.588561744998241"><ele>143.0</ele><time>2026-03-29T09:51:33Z</time></trkpt><trkpt lat="45.366167787042485" lon="10.588756085942174"><ele>143.0</ele><time>2026-03-29T09:51:36Z</time></trkpt><trkpt lat="45.36614925706498" lon="10.58890762547583"><ele>143.0</ele><time>2026-03-29T09:51:37Z</time></trkpt><trkpt lat="45.366126227743976" lon="10.589089253409485"><ele>143.25</ele><time>2026-03-29T09:51:38Z</time></trkpt><trkpt lat="45.366100900810885" lon="10.589278895160701"><ele>143.5</ele><time>2026-03-29T09:51:39Z</time></trkpt><trkpt lat="45.36607228033805" lon="10.589480145908611"><ele>143.75</ele><time>2026-03-29T09:51:40Z</time></trkpt><trkpt lat="45.36604364057827" lon="10.58967673813697"><ele>144.0</ele><time>2026-03-29T09:51:41Z</time></trkpt><trkpt lat="45.36601553703301" lon="10.589869649581827"><ele>144.0</ele><time>2026-03-29T09:51:42Z</time></trkpt><trkpt lat="45.365985920058314" lon="10.59007987958872"><ele>144.0</ele><time>2026-03-29T09:51:43Z</time></trkpt><trkpt lat="45.365951752977715" lon="10.590324723777888"><ele>144.0</ele><time>2026-03-29T09:51:44Z</time></trkpt><trkpt lat="45.36591742397744" lon="10.59057052715639"><ele>144.0</ele><time>2026-03-29T09:51:45Z</time></trkpt><trkpt lat="45.36588606012289" lon="10.59079509263027"><ele>144.0</ele><time>2026-03-29T09:51:46Z</time></trkpt><trkpt lat="45.36585894309762" lon="10.59099128726693"><ele>144.0</ele><time>2026-03-29T09:51:47Z</time></trkpt><trkpt lat="45.36582924440227" lon="10.591206215766237"><ele>144.0</ele><time>2026-03-29T09:51:48Z</time></trkpt><trkpt lat="45.36580616806846" lon="10.591373218126225"><ele>144.0</ele><time>2026-03-29T09:51:49Z</time></trkpt><trkpt lat="45.36578116098672" lon="10.591554193395442"><ele>144.0</ele><time>2026-03-29T09:51:50Z</time></trkpt><trkpt lat="45.36575752813826" lon="10.591725223207906"><ele>144.0</ele><time>2026-03-29T09:51:51Z</time></trkpt><trkpt lat="45.36573245059788" lon="10.591906708612084"><ele>144.0</ele><time>2026-03-29T09:51:52Z</time></trkpt><trkpt lat="45.36571168699004" lon="10.592056973809775"><ele>144.0</ele><time>2026-03-29T09:51:53Z</time></trkpt><trkpt lat="45.365692843025" lon="10.592193346816256"><ele>144.0</ele><time>2026-03-29T09:51:54Z</time></trkpt><trkpt lat="45.365670715479304" lon="10.592353483010974"><ele>144.0</ele><time>2026-03-29T09:51:55Z</time></trkpt><trkpt lat="45.365648896245474" lon="10.59251247990481"><ele>144.0</ele><time>2026-03-29T09:51:56Z</time></trkpt><trkpt lat="45.36562920384004" lon="10.592656519562176"><ele>144.0</ele><time>2026-03-29T09:51:57Z</time></trkpt><trkpt lat="45.36561144600503" lon="10.592786409026107"><ele>144.0</ele><time>2026-03-29T09:51:58Z</time></trkpt><trkpt lat="45.365597830840954" lon="10.59288599693365"><ele>144.0</ele><time>2026-03-29T09:51:59Z</time></trkpt><trkpt lat="45.365582351464376" lon="10.592999220556866"><ele>144.0</ele><time>2026-03-29T09:52:01Z</time></trkpt><trkpt lat="45.36568029755638" lon="10.592849465316784"><ele>144.0</ele><time>2026-03-29T09:53:51Z</time></trkpt><trkpt lat="45.36571459198311" lon="10.59268383855938"><ele>144.0</ele><time>2026-03-29T09:53:52Z</time></trkpt><trkpt lat="45.365738642591936" lon="10.592472330513084"><ele>144.0</ele><time>2026-03-29T09:53:53Z</time></trkpt><trkpt lat="45.365758262944745" lon="10.592281863568736"><ele>144.0</ele><time>2026-03-29T09:53:54Z</time></trkpt><trkpt lat="45.365794841411685" lon="10.592130340371968"><ele>144.0</ele><time>2026-03-29T09:53:55Z</time></trkpt><trkpt lat="45.36582496752095" lon="10.591912319021377"><ele>144.0</ele><time>2026-03-29T09:53:56Z</time></trkpt><trkpt lat="45.36586353682431" lon="10.591633194369779"><ele>144.0</ele><time>2026-03-29T09:53:57Z</time></trkpt><trkpt lat="45.3659045244069" lon="10.59133656887679"><ele>144.0</ele><time>2026-03-29T09:53:58Z</time></trkpt><trkpt lat="45.365933393213076" lon="10.591104391889793"><ele>144.0</ele><time>2026-03-29T09:53:59Z</time></trkpt><trkpt lat="45.3659618752125" lon="10.590904706024293"><ele>144.0</ele><time>2026-03-29T09:54:00Z</time></trkpt><trkpt lat="45.365984747626584" lon="10.590724819689507"><ele>144.0</ele><time>2026-03-29T09:54:01Z</time></trkpt><trkpt lat="45.366002775086955" lon="10.590569271144002"><ele>144.0</ele><time>2026-03-29T09:54:02Z</time></trkpt><trkpt lat="45.36602249292811" lon="10.590456781538624"><ele>144.0</ele><time>2026-03-29T09:54:03Z</time></trkpt><trkpt lat="45.36609167148192" lon="10.59035723351823"><ele>144.0</ele><time>2026-03-29T09:54:05Z</time></trkpt><trkpt lat="45.366116355869295" lon="10.59023954111402"><ele>144.0</ele><time>2026-03-29T09:54:07Z</time></trkpt><trkpt lat="45.36614365835056" lon="10.590043888880354"><ele>144.0</ele><time>2026-03-29T09:54:09Z</time></trkpt><trkpt lat="45.36616155507495" lon="10.589917400746401"><ele>144.0</ele><time>2026-03-29T09:54:11Z</time></trkpt><trkpt lat="45.366411718330994" lon="10.58997126296471"><ele>144.6</ele><time>2026-03-29T09:54:13Z</time></trkpt><trkpt lat="45.36650620893073" lon="10.590001119835184"><ele>145.2</ele><time>2026-03-29T09:54:14Z</time></trkpt><trkpt lat="45.366615663319116" lon="10.590026045386935"><ele>145.79999999999998</ele><time>2026-03-29T09:54:15Z</time></trkpt><trkpt lat="45.36672344162764" lon="10.590037379929512"><ele>146.4</ele><time>2026-03-29T09:54:16Z</time></trkpt><trkpt lat="45.36681988256247" lon="10.590061663016977"><ele>147.0</ele><time>2026-03-29T09:54:17Z</time></trkpt><trkpt lat="45.36689482113012" lon="10.590091314223884"><ele>147.0</ele><time>2026-03-29T09:54:18Z</time></trkpt><trkpt lat="45.36696113205487" lon="10.590109853354308"><ele>147.0</ele><time>2026-03-29T09:54:19Z</time></trkpt><trkpt lat="45.3670556317306" lon="10.59013634879617"><ele>147.0</ele><time>2026-03-29T09:54:21Z</time></trkpt><trkpt lat="45.36716197004822" lon="10.590154816826832"><ele>147.0</ele><time>2026-03-29T09:54:24Z</time></trkpt><trkpt lat="45.3672289549301" lon="10.590169914499604"><ele>147.0</ele><time>2026-03-29T09:54:25Z</time></trkpt><trkpt lat="45.36732276315255" lon="10.590187639996083"><ele>147.0</ele><time>2026-03-29T09:54:26Z</time></trkpt><trkpt lat="45.36740479672642" lon="10.590203571944832"><ele>147.28571428571428</ele><time>2026-03-29T09:54:27Z</time></trkpt><trkpt lat="45.36748418826328" lon="10.59022140266905"><ele>147.57142857142856</ele><time>2026-03-29T09:54:28Z</time></trkpt><trkpt lat="45.367560024031945" lon="10.590254407516396"><ele>147.85714285714286</ele><time>2026-03-29T09:54:29Z</time></trkpt><trkpt lat="45.36761538050999" lon="10.590304168441449"><ele>148.14285714285714</ele><time>2026-03-29T09:54:30Z</time></trkpt><trkpt lat="45.36765334608629" lon="10.590385410017682"><ele>148.42857142857142</ele><time>2026-03-29T09:54:31Z</time></trkpt><trkpt lat="45.367693766830456" lon="10.590476672544328"><ele>148.71428571428572</ele><time>2026-03-29T09:54:32Z</time></trkpt><trkpt lat="45.367752635241736" lon="10.59052883594685"><ele>149.0</ele><time>2026-03-29T09:54:33Z</time></trkpt><trkpt lat="45.36781571070962" lon="10.590532075517201"><ele>149.6</ele><time>2026-03-29T09:54:34Z</time></trkpt><trkpt lat="45.36790499374486" lon="10.590516686789902"><ele>150.2</ele><time>2026-03-29T09:54:35Z</time></trkpt><trkpt lat="45.36800093650085" lon="10.59048726413286"><ele>150.79999999999998</ele><time>2026-03-29T09:54:36Z</time></trkpt><trkpt lat="45.36809906801546" lon="10.59046622042097"><ele>151.4</ele><time>2026-03-29T09:54:37Z</time></trkpt><trkpt lat="45.36818090060665" lon="10.590485276397713"><ele>152.0</ele><time>2026-03-29T09:54:38Z</time></trkpt><trkpt lat="45.36826243087838" lon="10.590509582585348"><ele>151.0</ele><time>2026-03-29T09:54:39Z</time></trkpt><trkpt lat="45.368356119079365" lon="10.59052797691945"><ele>150.0</ele><time>2026-03-29T09:54:41Z</time></trkpt><trkpt lat="45.36838970234523" lon="10.590617970082244"><ele>149.0</ele><time>2026-03-29T09:54:44Z</time></trkpt><trkpt lat="45.36838915040068" lon="10.59071272284488"><ele>148.0</ele><time>2026-03-29T09:54:45Z</time></trkpt><trkpt lat="45.3683668932747" lon="10.590833679065307"><ele>147.0</ele><time>2026-03-29T09:54:46Z</time></trkpt><trkpt lat="45.368341002185204" lon="10.590969153876319"><ele>146.0</ele><time>2026-03-29T09:54:47Z</time></trkpt><trkpt lat="45.36832500499492" lon="10.591139121188974"><ele>146.25</ele><time>2026-03-29T09:54:48Z</time></trkpt><trkpt lat="45.36829544860493" lon="10.591316153743758"><ele>146.5</ele><time>2026-03-29T09:54:49Z</time></trkpt><trkpt lat="45.36826113432168" lon="10.591511859288909"><ele>146.75</ele><time>2026-03-29T09:54:50Z</time></trkpt><trkpt lat="45.36822754264799" lon="10.591703742617257"><ele>147.0</ele><time>2026-03-29T09:54:51Z</time></trkpt><trkpt lat="45.36821083472912" lon="10.591905740483343"><ele>147.5</ele><time>2026-03-29T09:54:52Z</time></trkpt><trkpt lat="45.36819017659325" lon="10.59210514748526"><ele>148.0</ele><time>2026-03-29T09:54:53Z</time></trkpt><trkpt lat="45.3681525703432" lon="10.592299909942946"><ele>148.5</ele><time>2026-03-29T09:54:54Z</time></trkpt><trkpt lat="45.36811719929992" lon="10.59248164124346"><ele>149.0</ele><time>2026-03-29T09:54:55Z</time></trkpt><trkpt lat="45.368090691767925" lon="10.592613712568877"><ele>149.0</ele><time>2026-03-29T09:54:56Z</time></trkpt><trkpt lat="45.368081904691145" lon="10.592751917474601"><ele>149.0</ele><time>2026-03-29T09:54:57Z</time></trkpt><trkpt lat="45.368082640150625" lon="10.59289151196123"><ele>149.0</ele><time>2026-03-29T09:54:58Z</time></trkpt><trkpt lat="45.36808749918428" lon="10.593028032537623"><ele>149.0</ele><time>2026-03-29T09:54:59Z</time></trkpt><trkpt lat="45.36808912966746" lon="10.593131745686964"><ele>149.0</ele><time>2026-03-29T09:55:00Z</time></trkpt><trkpt lat="45.368149091887084" lon="10.593228486712645"><ele>148.66666666666666</ele><time>2026-03-29T09:55:02Z</time></trkpt><trkpt lat="45.36821100217414" lon="10.59325556260304"><ele>148.33333333333331</ele><time>2026-03-29T09:55:03Z</time></trkpt><trkpt lat="45.368288906437606" lon="10.593264163673165"><ele>148.0</ele><time>2026-03-29T09:55:04Z</time></trkpt><trkpt lat="45.36836227414964" lon="10.59325902943943"><ele>147.66666666666666</ele><time>2026-03-29T09:55:05Z</time></trkpt><trkpt lat="45.36845058613964" lon="10.593266999536935"><ele>147.33333333333334</ele><time>2026-03-29T09:55:06Z</time></trkpt><trkpt lat="45.36852205957139" lon="10.593282503950867"><ele>147.0</ele><time>2026-03-29T09:55:07Z</time></trkpt><trkpt lat="45.36860839919936" lon="10.593373857498339"><ele>147.0</ele><time>2026-03-29T09:55:09Z</time></trkpt><trkpt lat="45.368654378112716" lon="10.593478274410137"><ele>147.0</ele><time>2026-03-29T09:55:10Z</time></trkpt><trkpt lat="45.36871615180342" lon="10.593623494714272"><ele>147.0</ele><time>2026-03-29T09:55:11Z</time></trkpt><trkpt lat="45.3687801810491" lon="10.593786849047325"><ele>147.0</ele><time>2026-03-29T09:55:12Z</time></trkpt><trkpt lat="45.36883585945062" lon="10.59390683211689"><ele>147.0</ele><time>2026-03-29T09:55:13Z</time></trkpt><trkpt lat="45.368893933673135" lon="10.594023723740152"><ele>144.4</ele><time>2026-03-29T09:55:14Z</time></trkpt><trkpt lat="45.36895175011441" lon="10.594134636039884"><ele>141.79999999999998</ele><time>2026-03-29T09:55:15Z</time></trkpt><trkpt lat="45.36899008473391" lon="10.594251772552262"><ele>139.2</ele><time>2026-03-29T09:55:16Z</time></trkpt><trkpt lat="45.36900355421337" lon="10.594363355339894"><ele>136.6</ele><time>2026-03-29T09:55:17Z</time></trkpt><trkpt lat="45.369010382123186" lon="10.594478749381022"><ele>134.0</ele><time>2026-03-29T09:55:18Z</time></trkpt><trkpt lat="45.369000993499114" lon="10.594626158123448"><ele>133.6</ele><time>2026-03-29T09:55:19Z</time></trkpt><trkpt lat="45.36897865824541" lon="10.594785788665693"><ele>133.2</ele><time>2026-03-29T09:55:20Z</time></trkpt><trkpt lat="45.368955586826694" lon="10.594960001668671"><ele>132.79999999999998</ele><time>2026-03-29T09:55:21Z</time></trkpt><trkpt lat="45.36893669524054" lon="10.595117388529834"><ele>132.4</ele><time>2026-03-29T09:55:22Z</time></trkpt><trkpt lat="45.36893054600182" lon="10.595254937926983"><ele>132.0</ele><time>2026-03-29T09:55:23Z</time></trkpt><trkpt lat="45.36893667497529" lon="10.595390575609686"><ele>132.0</ele><time>2026-03-29T09:55:24Z</time></trkpt><trkpt lat="45.36895299343142" lon="10.595531956331214"><ele>132.0</ele><time>2026-03-29T09:55:25Z</time></trkpt><trkpt lat="45.36898410200988" lon="10.595649204772934"><ele>132.0</ele><time>2026-03-29T09:55:26Z</time></trkpt><trkpt lat="45.36903232248382" lon="10.595775068400574"><ele>132.0</ele><time>2026-03-29T09:55:27Z</time></trkpt><trkpt lat="45.36909540381199" lon="10.595884494135321"><ele>132.0</ele><time>2026-03-29T09:55:28Z</time></trkpt><trkpt lat="45.36915834520535" lon="10.596011252475018"><ele>132.0</ele><time>2026-03-29T09:55:29Z</time></trkpt><trkpt lat="45.36918931010803" lon="10.596141146311851"><ele>132.0</ele><time>2026-03-29T09:55:30Z</time></trkpt><trkpt lat="45.36922871965994" lon="10.596269292947207"><ele>132.0</ele><time>2026-03-29T09:55:31Z</time></trkpt><trkpt lat="45.36926125084142" lon="10.596364630897249"><ele>132.0</ele><time>2026-03-29T09:55:32Z</time></trkpt><trkpt lat="45.369259564894314" lon="10.596469940225713"><ele>132.0</ele><time>2026-03-29T09:55:34Z</time></trkpt><trkpt lat="45.369168988289296" lon="10.596567256724995"><ele>131.0</ele><time>2026-03-29T09:55:36Z</time></trkpt><trkpt lat="45.3690588081644" lon="10.596656133068995"><ele>130.0</ele><time>2026-03-29T09:55:37Z</time></trkpt><trkpt lat="45.36892831122064" lon="10.596752193912732"><ele>129.0</ele><time>2026-03-29T09:55:38Z</time></trkpt><trkpt lat="45.36881348743985" lon="10.596869220818485"><ele>128.0</ele><time>2026-03-29T09:55:39Z</time></trkpt><trkpt lat="45.36871113163106" lon="10.597005862440046"><ele>131.25</ele><time>2026-03-29T09:55:40Z</time></trkpt><trkpt lat="45.36860303982726" lon="10.597051652580312"><ele>134.5</ele><time>2026-03-29T09:55:41Z</time></trkpt><trkpt lat="45.36849528254499" lon="10.597051878083663"><ele>137.75</ele><time>2026-03-29T09:55:42Z</time></trkpt><trkpt lat="45.36839243726111" lon="10.596966675978196"><ele>141.0</ele><time>2026-03-29T09:55:43Z</time></trkpt><trkpt lat="45.368283621586244" lon="10.596870361331286"><ele>141.0</ele><time>2026-03-29T09:55:44Z</time></trkpt><trkpt lat="45.36813789510121" lon="10.596765148844662"><ele>141.0</ele><time>2026-03-29T09:55:45Z</time></trkpt><trkpt lat="45.36799653528894" lon="10.596645721647139"><ele>141.0</ele><time>2026-03-29T09:55:46Z</time></trkpt><trkpt lat="45.36785783179448" lon="10.596561764188483"><ele>144.0</ele><time>2026-03-29T09:55:47Z</time></trkpt><trkpt lat="45.36771945834952" lon="10.59651923188836"><ele>147.0</ele><time>2026-03-29T09:55:48Z</time></trkpt><trkpt lat="45.36758179215816" lon="10.596514617314316"><ele>150.0</ele><time>2026-03-29T09:55:49Z</time></trkpt><trkpt lat="45.367450419851764" lon="10.596556766975118"><ele>153.0</ele><time>2026-03-29T09:55:50Z</time></trkpt><trkpt lat="45.36732738669079" lon="10.5966512253237"><ele>153.0</ele><time>2026-03-29T09:55:51Z</time></trkpt><trkpt lat="45.367195008636" lon="10.596770731513079"><ele>153.0</ele><time>2026-03-29T09:55:52Z</time></trkpt><trkpt lat="45.36707422628797" lon="10.596880052764595"><ele>153.0</ele><time>2026-03-29T09:55:53Z</time></trkpt><trkpt lat="45.36694759027077" lon="10.596976148467448"><ele>153.0</ele><time>2026-03-29T09:55:54Z</time></trkpt><trkpt lat="45.36680658077461" lon="10.597091260665604"><ele>152.0</ele><time>2026-03-29T09:55:55Z</time></trkpt><trkpt lat="45.36665821877177" lon="10.59722017886983"><ele>151.0</ele><time>2026-03-29T09:55:56Z</time></trkpt><trkpt lat="45.366502464332655" lon="10.597361867701125"><ele>150.0</ele><time>2026-03-29T09:55:57Z</time></trkpt><trkpt lat="45.36635337933854" lon="10.59748940108521"><ele>149.33333333333334</ele><time>2026-03-29T09:55:58Z</time></trkpt><trkpt lat="45.36620702166202" lon="10.597613031275198"><ele>148.66666666666669</ele><time>2026-03-29T09:55:59Z</time></trkpt><trkpt lat="45.36604938207013" lon="10.597746752224301"><ele>148.0</ele><time>2026-03-29T09:56:00Z</time></trkpt><trkpt lat="45.36590375733909" lon="10.597871364923435"><ele>148.0</ele><time>2026-03-29T09:56:01Z</time></trkpt><trkpt lat="45.36574950134108" lon="10.597951590898795"><ele>148.0</ele><time>2026-03-29T09:56:02Z</time></trkpt><trkpt lat="45.36559591784762" lon="10.597998340096128"><ele>148.0</ele><time>2026-03-29T09:56:03Z</time></trkpt><trkpt lat="45.3654401477373" lon="10.598023709760396"><ele>147.0</ele><time>2026-03-29T09:56:04Z</time></trkpt><trkpt lat="45.36528912853363" lon="10.598047697563642"><ele>146.0</ele><time>2026-03-29T09:56:05Z</time></trkpt><trkpt lat="45.36515163548943" lon="10.598051012241648"><ele>145.0</ele><time>2026-03-29T09:56:06Z</time></trkpt><trkpt lat="45.36504270376879" lon="10.598045516892535"><ele>144.0</ele><time>2026-03-29T09:56:07Z</time></trkpt><trkpt lat="45.36493730172875" lon="10.597978537550368"><ele>144.0</ele><time>2026-03-29T09:56:15Z</time></trkpt><trkpt lat="45.36487874803906" lon="10.597872555740604"><ele>144.0</ele><time>2026-03-29T09:56:16Z</time></trkpt><trkpt lat="45.364778320507924" lon="10.597833672635712"><ele>144.0</ele><time>2026-03-29T09:56:17Z</time></trkpt><trkpt lat="45.36467267960158" lon="10.597881716491818"><ele>144.0</ele><time>2026-03-29T09:56:18Z</time></trkpt><trkpt lat="45.364608895306596" lon="10.597964794453393"><ele>144.0</ele><time>2026-03-29T09:56:19Z</time></trkpt><trkpt lat="45.36457363921161" lon="10.598091593230436"><ele>143.5</ele><time>2026-03-29T09:56:20Z</time></trkpt><trkpt lat="45.36457445115771" lon="10.598236847464278"><ele>143.0</ele><time>2026-03-29T09:56:21Z</time></trkpt><trkpt lat="45.36463579529102" lon="10.598365696174318"><ele>142.5</ele><time>2026-03-29T09:56:22Z</time></trkpt><trkpt lat="45.36469022133524" lon="10.598457699870485"><ele>142.0</ele><time>2026-03-29T09:56:23Z</time></trkpt><trkpt lat="45.364576612168875" lon="10.598677628987124"><ele>142.0</ele><time>2026-03-29T09:56:24Z</time></trkpt><trkpt lat="45.3644729019878" lon="10.598869275644327"><ele>142.0</ele><time>2026-03-29T09:56:25Z</time></trkpt><trkpt lat="45.36438013189733" lon="10.599122987960047"><ele>142.0</ele><time>2026-03-29T09:56:26Z</time></trkpt><trkpt lat="45.364248069371946" lon="10.599402752529276"><ele>144.5</ele><time>2026-03-29T09:56:27Z</time></trkpt><trkpt lat="45.36409944263631" lon="10.599741076505962"><ele>147.0</ele><time>2026-03-29T09:56:28Z</time></trkpt><trkpt lat="45.3639467420216" lon="10.600110816143816"><ele>145.0</ele><time>2026-03-29T09:56:29Z</time></trkpt><trkpt lat="45.363789591213006" lon="10.600501907174888"><ele>143.0</ele><time>2026-03-29T09:56:30Z</time></trkpt><trkpt lat="45.36362780272495" lon="10.600905029608354"><ele>145.0</ele><time>2026-03-29T09:56:31Z</time></trkpt><trkpt lat="45.36346836896621" lon="10.601309472972568"><ele>147.0</ele><time>2026-03-29T09:56:32Z</time></trkpt><trkpt lat="45.363317713385804" lon="10.60169946993349"><ele>149.5</ele><time>2026-03-29T09:56:33Z</time></trkpt><trkpt lat="45.36317792105579" lon="10.60207658623973"><ele>152.0</ele><time>2026-03-29T09:56:34Z</time></trkpt><trkpt lat="45.36305222494599" lon="10.602440640449073"><ele>147.0</ele><time>2026-03-29T09:56:35Z</time></trkpt><trkpt lat="45.362933754166065" lon="10.602797349404002"><ele>142.0</ele><time>2026-03-29T09:56:36Z</time></trkpt><trkpt lat="45.362813751527845" lon="10.603148360730815"><ele>142.0</ele><time>2026-03-29T09:56:37Z</time></trkpt><trkpt lat="45.36269156046772" lon="10.603476999712576"><ele>142.0</ele><time>2026-03-29T09:56:38Z</time></trkpt><trkpt lat="45.362575682709654" lon="10.603758515954778"><ele>144.0</ele><time>2026-03-29T09:56:39Z</time></trkpt><trkpt lat="45.36246740678744" lon="10.604006352139725"><ele>146.0</ele><time>2026-03-29T09:56:40Z</time></trkpt><trkpt lat="45.362369958774345" lon="10.604204076582565"><ele>148.0</ele><time>2026-03-29T09:56:41Z</time></trkpt><trkpt lat="45.362283971139746" lon="10.604353606520194"><ele>148.0</ele><time>2026-03-29T09:56:42Z</time></trkpt><trkpt lat="45.36221514368274" lon="10.604459414999098"><ele>148.0</ele><time>2026-03-29T09:56:43Z</time></trkpt><trkpt lat="45.36214462281309" lon="10.60445712378478"><ele>148.0</ele><time>2026-03-29T09:56:46Z</time></trkpt><trkpt lat="45.36198087020363" lon="10.604363610839094"><ele>148.0</ele><time>2026-03-29T09:56:48Z</time></trkpt><trkpt lat="45.361857203412384" lon="10.60433469145827"><ele>146.25</ele><time>2026-03-29T09:56:49Z</time></trkpt><trkpt lat="45.36172748351216" lon="10.604302649928353"><ele>144.5</ele><time>2026-03-29T09:56:50Z</time></trkpt><trkpt lat="45.36161415254496" lon="10.604243311234324"><ele>142.75</ele><time>2026-03-29T09:56:51Z</time></trkpt><trkpt lat="45.361500653795474" lon="10.604171420298814"><ele>141.0</ele><time>2026-03-29T09:56:52Z</time></trkpt><trkpt lat="45.361360644057996" lon="10.604051560650406"><ele>140.33333333333334</ele><time>2026-03-29T09:56:53Z</time></trkpt><trkpt lat="45.3612217682642" lon="10.603924525715774"><ele>139.66666666666669</ele><time>2026-03-29T09:56:54Z</time></trkpt><trkpt lat="45.36110305906866" lon="10.603794037229367"><ele>139.0</ele><time>2026-03-29T09:56:55Z</time></trkpt><trkpt lat="45.360991032005366" lon="10.60365327469383"><ele>138.33333333333334</ele><time>2026-03-29T09:56:56Z</time></trkpt><trkpt lat="45.36088827397503" lon="10.603500355521154"><ele>137.66666666666666</ele><time>2026-03-29T09:56:57Z</time></trkpt><trkpt lat="45.36078121976052" lon="10.603326309868049"><ele>137.0</ele><time>2026-03-29T09:56:58Z</time></trkpt><trkpt lat="45.36068190794952" lon="10.603139762984222"><ele>137.0</ele><time>2026-03-29T09:56:59Z</time></trkpt><trkpt lat="45.36057391988359" lon="10.60292574181246"><ele>137.0</ele><time>2026-03-29T09:57:00Z</time></trkpt><trkpt lat="45.36047445666987" lon="10.602729213565434"><ele>137.0</ele><time>2026-03-29T09:57:01Z</time></trkpt><trkpt lat="45.36038964258922" lon="10.602555266036918"><ele>137.0</ele><time>2026-03-29T09:57:02Z</time></trkpt><trkpt lat="45.36032448346952" lon="10.602396243413072"><ele>137.0</ele><time>2026-03-29T09:57:03Z</time></trkpt><trkpt lat="45.360265553141595" lon="10.60220061138831"><ele>137.0</ele><time>2026-03-29T09:57:04Z</time></trkpt><trkpt lat="45.36021198183175" lon="10.601987062054993"><ele>137.0</ele><time>2026-03-29T09:57:05Z</time></trkpt><trkpt lat="45.36016607646249" lon="10.60180423669656"><ele>137.0</ele><time>2026-03-29T09:57:06Z</time></trkpt><trkpt lat="45.36012543267418" lon="10.601639165936618"><ele>137.0</ele><time>2026-03-29T09:57:07Z</time></trkpt><trkpt lat="45.360086869226855" lon="10.601501166006264"><ele>137.0</ele><time>2026-03-29T09:57:08Z</time></trkpt><trkpt lat="45.360034291443306" lon="10.601395071372949"><ele>137.0</ele><time>2026-03-29T09:57:09Z</time></trkpt><trkpt lat="45.360006960807716" lon="10.601270215239083"><ele>137.0</ele><time>2026-03-29T09:57:10Z</time></trkpt><trkpt lat="45.3599444667598" lon="10.601148701095767"><ele>137.0</ele><time>2026-03-29T09:57:11Z</time></trkpt><trkpt lat="45.35984973563098" lon="10.601002125870583"><ele>137.0</ele><time>2026-03-29T09:57:12Z</time></trkpt><trkpt lat="45.35973157093854" lon="10.60084021085222"><ele>137.0</ele><time>2026-03-29T09:57:13Z</time></trkpt><trkpt lat="45.35962615373915" lon="10.60069123605669"><ele>137.0</ele><time>2026-03-29T09:57:14Z</time></trkpt><trkpt lat="45.35952142868416" lon="10.60052426012152"><ele>137.0</ele><time>2026-03-29T09:57:15Z</time></trkpt><trkpt lat="45.35942564292982" lon="10.600356549297182"><ele>137.0</ele><time>2026-03-29T09:57:16Z</time></trkpt><trkpt lat="45.35934434246666" lon="10.600203897636614"><ele>137.0</ele><time>2026-03-29T09:57:17Z</time></trkpt><trkpt lat="45.35927993311867" lon="10.600065979740013"><ele>135.75</ele><time>2026-03-29T09:57:18Z</time></trkpt><trkpt lat="45.35922841492845" lon="10.599922262473328"><ele>134.5</ele><time>2026-03-29T09:57:19Z</time></trkpt><trkpt lat="45.35919830441405" lon="10.599756468478958"><ele>133.25</ele><time>2026-03-29T09:57:20Z</time></trkpt><trkpt lat="45.359158109583134" lon="10.599593387831755"><ele>132.0</ele><time>2026-03-29T09:57:21Z</time></trkpt><trkpt lat="45.35911308234588" lon="10.599457270953607"><ele>132.0</ele><time>2026-03-29T09:57:22Z</time></trkpt><trkpt lat="45.359028177634976" lon="10.599385433541126"><ele>132.0</ele><time>2026-03-29T09:57:23Z</time></trkpt><trkpt lat="45.35895782077364" lon="10.59931666455679"><ele>132.0</ele><time>2026-03-29T09:57:24Z</time></trkpt><trkpt lat="45.35889652394888" lon="10.599238626424443"><ele>132.0</ele><time>2026-03-29T09:57:25Z</time></trkpt><trkpt lat="45.358790513890945" lon="10.599141965906494"><ele>132.0</ele><time>2026-03-29T09:57:26Z</time></trkpt><trkpt lat="45.358668531495255" lon="10.599024513289022"><ele>132.25</ele><time>2026-03-29T09:57:27Z</time></trkpt><trkpt lat="45.358557982059104" lon="10.598897717894898"><ele>132.5</ele><time>2026-03-29T09:57:28Z</time></trkpt><trkpt lat="45.358462212506595" lon="10.598772540077343"><ele>132.75</ele><time>2026-03-29T09:57:29Z</time></trkpt><trkpt lat="45.35836027796296" lon="10.59862893421061"><ele>133.0</ele><time>2026-03-29T09:57:30Z</time></trkpt><trkpt lat="45.358257351053375" lon="10.598470339654792"><ele>133.20000000000002</ele><time>2026-03-29T09:57:31Z</time></trkpt><trkpt lat="45.35816965121743" lon="10.598319892020728"><ele>133.4</ele><time>2026-03-29T09:57:32Z</time></trkpt><trkpt lat="45.3581023314885" lon="10.598186740246328"><ele>133.60000000000002</ele><time>2026-03-29T09:57:33Z</time></trkpt><trkpt lat="45.35805846018139" lon="10.598082912874961"><ele>133.8</ele><time>2026-03-29T09:57:34Z</time></trkpt><trkpt lat="45.35802231829163" lon="10.597965192254101"><ele>134.0</ele><time>2026-03-29T09:57:36Z</time></trkpt><trkpt lat="45.35787441061735" lon="10.597908023844704"><ele>133.75</ele><time>2026-03-29T09:57:39Z</time></trkpt><trkpt lat="45.35777654266491" lon="10.59790468431634"><ele>133.5</ele><time>2026-03-29T09:57:40Z</time></trkpt><trkpt lat="45.35764045777577" lon="10.597899404276939"><ele>133.25</ele><time>2026-03-29T09:57:41Z</time></trkpt><trkpt lat="45.35750586800121" lon="10.597833903681927"><ele>133.0</ele><time>2026-03-29T09:57:42Z</time></trkpt><trkpt lat="45.35735591439856" lon="10.597806223635297"><ele>132.33333333333334</ele><time>2026-03-29T09:57:43Z</time></trkpt><trkpt lat="45.35719515746187" lon="10.597748786567319"><ele>131.66666666666666</ele><time>2026-03-29T09:57:44Z</time></trkpt><trkpt lat="45.35702867205164" lon="10.597683582938718"><ele>131.0</ele><time>2026-03-29T09:57:45Z</time></trkpt><trkpt lat="45.35688872431948" lon="10.597642103889852"><ele>131.0</ele><time>2026-03-29T09:57:46Z</time></trkpt><trkpt lat="45.35676400185086" lon="10.597629004591264"><ele>131.0</ele><time>2026-03-29T09:57:47Z</time></trkpt><trkpt lat="45.35664398855202" lon="10.597648128254548"><ele>131.0</ele><time>2026-03-29T09:57:48Z</time></trkpt><trkpt lat="45.35652966171914" lon="10.597664259334916"><ele>131.0</ele><time>2026-03-29T09:57:49Z</time></trkpt><trkpt lat="45.35641811608021" lon="10.597673983774747"><ele>130.75</ele><time>2026-03-29T09:57:50Z</time></trkpt><trkpt lat="45.35630358016168" lon="10.597682566429993"><ele>130.5</ele><time>2026-03-29T09:57:51Z</time></trkpt><trkpt lat="45.356186032485674" lon="10.597708289144412"><ele>130.25</ele><time>2026-03-29T09:57:52Z</time></trkpt><trkpt lat="45.35606755167924" lon="10.597731315972029"><ele>130.0</ele><time>2026-03-29T09:57:53Z</time></trkpt><trkpt lat="45.3559599061291" lon="10.59773346069353"><ele>130.0</ele><time>2026-03-29T09:57:54Z</time></trkpt><trkpt lat="45.35586708369573" lon="10.597737449831648"><ele>130.0</ele><time>2026-03-29T09:57:55Z</time></trkpt><trkpt lat="45.35577874113971" lon="10.59772679248817"><ele>130.0</ele><time>2026-03-29T09:57:56Z</time></trkpt><trkpt lat="45.35567565909928" lon="10.597699926369124"><ele>130.0</ele><time>2026-03-29T09:57:57Z</time></trkpt><trkpt lat="45.355563117051545" lon="10.59765404164075"><ele>130.0</ele><time>2026-03-29T09:57:58Z</time></trkpt><trkpt lat="45.35544558853941" lon="10.597585736414414"><ele>129.25</ele><time>2026-03-29T09:57:59Z</time></trkpt><trkpt lat="45.355327419974685" lon="10.59751438925627"><ele>128.5</ele><time>2026-03-29T09:58:00Z</time></trkpt><trkpt lat="45.355188098036145" lon="10.597442608477607"><ele>127.75</ele><time>2026-03-29T09:58:01Z</time></trkpt><trkpt lat="45.35504066521014" lon="10.597368974382636"><ele>127.0</ele><time>2026-03-29T09:58:02Z</time></trkpt><trkpt lat="45.35488131881627" lon="10.597353467289262"><ele>127.0</ele><time>2026-03-29T09:58:03Z</time></trkpt><trkpt lat="45.35471319676285" lon="10.59738129777342"><ele>127.0</ele><time>2026-03-29T09:58:04Z</time></trkpt><trkpt lat="45.354538908289406" lon="10.597431135989245"><ele>127.0</ele><time>2026-03-29T09:58:05Z</time></trkpt><trkpt lat="45.35436860072244" lon="10.597486349921468"><ele>128.25</ele><time>2026-03-29T09:58:06Z</time></trkpt><trkpt lat="45.35421979763316" lon="10.5975431133691"><ele>129.5</ele><time>2026-03-29T09:58:07Z</time></trkpt><trkpt lat="45.35409408693807" lon="10.597597769358739"><ele>130.75</ele><time>2026-03-29T09:58:08Z</time></trkpt><trkpt lat="45.35397232400974" lon="10.59767344480785"><ele>132.0</ele><time>2026-03-29T09:58:09Z</time></trkpt><trkpt lat="45.35385195674431" lon="10.597723756133892"><ele>134.25</ele><time>2026-03-29T09:58:10Z</time></trkpt><trkpt lat="45.353745316278385" lon="10.597794670512505"><ele>136.5</ele><time>2026-03-29T09:58:11Z</time></trkpt><trkpt lat="45.3536542057741" lon="10.597924994174205"><ele>138.75</ele><time>2026-03-29T09:58:12Z</time></trkpt><trkpt lat="45.35358098971307" lon="10.598097315732574"><ele>141.0</ele><time>2026-03-29T09:58:13Z</time></trkpt><trkpt lat="45.353512775916286" lon="10.598337892600776"><ele>141.0</ele><time>2026-03-29T09:58:14Z</time></trkpt><trkpt lat="45.35344316921476" lon="10.598617852211497"><ele>141.0</ele><time>2026-03-29T09:58:15Z</time></trkpt><trkpt lat="45.353372778223616" lon="10.598879961386155"><ele>141.0</ele><time>2026-03-29T09:58:16Z</time></trkpt><trkpt lat="45.35329841811838" lon="10.59912530427534"><ele>140.66666666666666</ele><time>2026-03-29T09:58:17Z</time></trkpt><trkpt lat="45.35320134858346" lon="10.599339566194645"><ele>140.33333333333331</ele><time>2026-03-29T09:58:18Z</time></trkpt><trkpt lat="45.35310897796208" lon="10.599556672901214"><ele>140.0</ele><time>2026-03-29T09:58:19Z</time></trkpt><trkpt lat="45.35301603183088" lon="10.599771203758937"><ele>142.25</ele><time>2026-03-29T09:58:20Z</time></trkpt><trkpt lat="45.35293927354776" lon="10.599977218494196"><ele>144.5</ele><time>2026-03-29T09:58:21Z</time></trkpt><trkpt lat="45.352866404741754" lon="10.600143457954399"><ele>146.75</ele><time>2026-03-29T09:58:22Z</time></trkpt><trkpt lat="45.35279942219842" lon="10.600293889081769"><ele>149.0</ele><time>2026-03-29T09:58:23Z</time></trkpt><trkpt lat="45.352734567627834" lon="10.600446566345475"><ele>149.0</ele><time>2026-03-29T09:58:24Z</time></trkpt><trkpt lat="45.35266606564366" lon="10.600602855984379"><ele>149.0</ele><time>2026-03-29T09:58:25Z</time></trkpt><trkpt lat="45.352568199671744" lon="10.600736976982835"><ele>149.0</ele><time>2026-03-29T09:58:26Z</time></trkpt><trkpt lat="45.35245350471831" lon="10.60085339855769"><ele>149.0</ele><time>2026-03-29T09:58:27Z</time></trkpt><trkpt lat="45.35234358133957" lon="10.600947736995977"><ele>149.0</ele><time>2026-03-29T09:58:28Z</time></trkpt><trkpt lat="45.35225040077978" lon="10.60101948937108"><ele>149.0</ele><time>2026-03-29T09:58:29Z</time></trkpt><trkpt lat="45.35218124200277" lon="10.601060839006047"><ele>149.0</ele><time>2026-03-29T09:58:30Z</time></trkpt><trkpt lat="45.352105802415345" lon="10.601130466004257"><ele>149.0</ele><time>2026-03-29T09:58:32Z</time></trkpt><trkpt lat="45.352028473862234" lon="10.601172088500952"><ele>149.0</ele><time>2026-03-29T09:58:35Z</time></trkpt><trkpt lat="45.35206421562062" lon="10.601326541614604"><ele>149.16666666666666</ele><time>2026-03-29T09:58:36Z</time></trkpt><trkpt lat="45.352115204801336" lon="10.60142037969061"><ele>149.33333333333331</ele><time>2026-03-29T09:58:37Z</time></trkpt><trkpt lat="45.352154392762586" lon="10.60154671639948"><ele>149.5</ele><time>2026-03-29T09:58:38Z</time></trkpt><trkpt lat="45.352183335383685" lon="10.601664614858368"><ele>149.66666666666666</ele><time>2026-03-29T09:58:39Z</time></trkpt><trkpt lat="45.35220619448359" lon="10.601770637523313"><ele>149.83333333333334</ele><time>2026-03-29T09:58:40Z</time></trkpt><trkpt lat="45.35213777649061" lon="10.601877507751798"><ele>150.0</ele><time>2026-03-29T09:58:41Z</time></trkpt><trkpt lat="45.35208972276042" lon="10.602042037495183"><ele>149.0</ele><time>2026-03-29T09:58:42Z</time></trkpt><trkpt lat="45.35205648543184" lon="10.602211142983698"><ele>148.0</ele><time>2026-03-29T09:58:43Z</time></trkpt><trkpt lat="45.352011368886956" lon="10.602389864005735"><ele>147.0</ele><time>2026-03-29T09:58:44Z</time></trkpt><trkpt lat="45.3519711787495" lon="10.60254780398468"><ele>146.0</ele><time>2026-03-29T09:58:45Z</time></trkpt><trkpt lat="45.35192782957119" lon="10.602715715569737"><ele>146.0</ele><time>2026-03-29T09:58:46Z</time></trkpt><trkpt lat="45.35190302530102" lon="10.602883826808611"><ele>146.0</ele><time>2026-03-29T09:58:47Z</time></trkpt><trkpt lat="45.35185061074429" lon="10.603058628633974"><ele>146.0</ele><time>2026-03-29T09:58:48Z</time></trkpt><trkpt lat="45.35182362178493" lon="10.603250157886526"><ele>146.0</ele><time>2026-03-29T09:58:49Z</time></trkpt><trkpt lat="45.351823198689715" lon="10.603454238841385"><ele>146.0</ele><time>2026-03-29T09:58:50Z</time></trkpt><trkpt lat="45.35180957294862" lon="10.603645417667664"><ele>146.0</ele><time>2026-03-29T09:58:51Z</time></trkpt><trkpt lat="45.35178889612233" lon="10.60384001737384"><ele>146.0</ele><time>2026-03-29T09:58:52Z</time></trkpt><trkpt lat="45.35176512815935" lon="10.604029972399292"><ele>146.0</ele><time>2026-03-29T09:58:53Z</time></trkpt><trkpt lat="45.35176831949619" lon="10.604209998815849"><ele>146.0</ele><time>2026-03-29T09:58:54Z</time></trkpt><trkpt lat="45.351772767131756" lon="10.60437065591669"><ele>146.0</ele><time>2026-03-29T09:58:55Z</time></trkpt><trkpt lat="45.3517876859955" lon="10.604523027652972"><ele>146.0</ele><time>2026-03-29T09:58:56Z</time></trkpt><trkpt lat="45.3517987011401" lon="10.604661624942969"><ele>146.0</ele><time>2026-03-29T09:58:57Z</time></trkpt><trkpt lat="45.35181366323388" lon="10.604809403993224"><ele>146.0</ele><time>2026-03-29T09:58:58Z</time></trkpt><trkpt lat="45.35197286110465" lon="10.60494375203804"><ele>146.25</ele><time>2026-03-29T09:58:59Z</time></trkpt><trkpt lat="45.35205991392824" lon="10.605089737286924"><ele>146.5</ele><time>2026-03-29T09:59:00Z</time></trkpt><trkpt lat="45.3521361309421" lon="10.605232471225914"><ele>146.75</ele><time>2026-03-29T09:59:01Z</time></trkpt><trkpt lat="45.35221568945028" lon="10.605381525823274"><ele>147.0</ele><time>2026-03-29T09:59:02Z</time></trkpt><trkpt lat="45.352300023051974" lon="10.605531495294628"><ele>143.75</ele><time>2026-03-29T09:59:03Z</time></trkpt><trkpt lat="45.35238422577371" lon="10.60568038513578"><ele>140.5</ele><time>2026-03-29T09:59:04Z</time></trkpt><trkpt lat="45.35246155149402" lon="10.60582086794005"><ele>137.25</ele><time>2026-03-29T09:59:05Z</time></trkpt><trkpt lat="45.35253749967596" lon="10.605969523177073"><ele>134.0</ele><time>2026-03-29T09:59:06Z</time></trkpt><trkpt lat="45.35262204113362" lon="10.606139577783242"><ele>134.5</ele><time>2026-03-29T09:59:07Z</time></trkpt><trkpt lat="45.35269453013783" lon="10.606313295188587"><ele>135.0</ele><time>2026-03-29T09:59:08Z</time></trkpt><trkpt lat="45.352753089362224" lon="10.606503695742125"><ele>135.5</ele><time>2026-03-29T09:59:09Z</time></trkpt><trkpt lat="45.35280433438829" lon="10.60671205640022"><ele>136.0</ele><time>2026-03-29T09:59:10Z</time></trkpt><trkpt lat="45.35283188470735" lon="10.606934430662863"><ele>135.66666666666669</ele><time>2026-03-29T09:59:11Z</time></trkpt><trkpt lat="45.3528658736069" lon="10.607182766809952"><ele>135.33333333333334</ele><time>2026-03-29T09:59:12Z</time></trkpt><trkpt lat="45.35290846338612" lon="10.607436628582464"><ele>135.0</ele><time>2026-03-29T09:59:13Z</time></trkpt><trkpt lat="45.35299763081997" lon="10.607645083931445"><ele>135.33333333333334</ele><time>2026-03-29T09:59:14Z</time></trkpt><trkpt lat="45.35299442340074" lon="10.607895028166775"><ele>135.66666666666669</ele><time>2026-03-29T09:59:15Z</time></trkpt><trkpt lat="45.35300409414402" lon="10.608137757700861"><ele>136.0</ele><time>2026-03-29T09:59:16Z</time></trkpt><trkpt lat="45.35298376170208" lon="10.608405578126742"><ele>136.33333333333334</ele><time>2026-03-29T09:59:17Z</time></trkpt><trkpt lat="45.352924328709285" lon="10.608691862140288"><ele>136.66666666666666</ele><time>2026-03-29T09:59:18Z</time></trkpt><trkpt lat="45.352877646209" lon="10.608993582153166"><ele>137.0</ele><time>2026-03-29T09:59:19Z</time></trkpt><trkpt lat="45.35281482712285" lon="10.609294848718873"><ele>137.66666666666666</ele><time>2026-03-29T09:59:20Z</time></trkpt><trkpt lat="45.35277426144276" lon="10.60960752488268"><ele>138.33333333333334</ele><time>2026-03-29T09:59:21Z</time></trkpt><trkpt lat="45.3527635732116" lon="10.609910862044625"><ele>139.0</ele><time>2026-03-29T09:59:22Z</time></trkpt><trkpt lat="45.35277847890661" lon="10.610214671955"><ele>140.0</ele><time>2026-03-29T09:59:23Z</time></trkpt><trkpt lat="45.35281821988928" lon="10.610521557132815"><ele>141.0</ele><time>2026-03-29T09:59:24Z</time></trkpt><trkpt lat="45.35288392973876" lon="10.610816912698441"><ele>142.0</ele><time>2026-03-29T09:59:25Z</time></trkpt><trkpt lat="45.35297451356138" lon="10.611080341503435"><ele>137.66666666666669</ele><time>2026-03-29T09:59:26Z</time></trkpt><trkpt lat="45.35306728886396" lon="10.611311131027845"><ele>133.33333333333334</ele><time>2026-03-29T09:59:27Z</time></trkpt><trkpt lat="45.353123872901186" lon="10.611559682148746"><ele>129.0</ele><time>2026-03-29T09:59:28Z</time></trkpt><trkpt lat="45.353144213042505" lon="10.61185689569496"><ele>129.0</ele><time>2026-03-29T09:59:29Z</time></trkpt><trkpt lat="45.35314994854659" lon="10.612160912812952"><ele>129.0</ele><time>2026-03-29T09:59:30Z</time></trkpt><trkpt lat="45.35314846946862" lon="10.612479436888547"><ele>129.0</ele><time>2026-03-29T09:59:31Z</time></trkpt><trkpt lat="45.353156185174456" lon="10.612797340397336"><ele>129.33333333333334</ele><time>2026-03-29T09:59:32Z</time></trkpt><trkpt lat="45.35321124749163" lon="10.613097777426862"><ele>129.66666666666669</ele><time>2026-03-29T09:59:33Z</time></trkpt><trkpt lat="45.3532752040628" lon="10.613393263325205"><ele>130.0</ele><time>2026-03-29T09:59:34Z</time></trkpt><trkpt lat="45.353339002031035" lon="10.613696429639653"><ele>131.0</ele><time>2026-03-29T09:59:35Z</time></trkpt><trkpt lat="45.35335589893954" lon="10.614014437161053"><ele>132.0</ele><time>2026-03-29T09:59:36Z</time></trkpt><trkpt lat="45.35335027845356" lon="10.614333560438908"><ele>133.0</ele><time>2026-03-29T09:59:37Z</time></trkpt><trkpt lat="45.35333772079391" lon="10.61464924355774"><ele>133.0</ele><time>2026-03-29T09:59:38Z</time></trkpt><trkpt lat="45.35333071220726" lon="10.614963457739501"><ele>133.0</ele><time>2026-03-29T09:59:39Z</time></trkpt><trkpt lat="45.35329887549225" lon="10.615271616756496"><ele>133.0</ele><time>2026-03-29T09:59:40Z</time></trkpt><trkpt lat="45.35325869155848" lon="10.615572841507731"><ele>132.66666666666669</ele><time>2026-03-29T09:59:41Z</time></trkpt><trkpt lat="45.35320251668399" lon="10.615878970934725"><ele>132.33333333333334</ele><time>2026-03-29T09:59:42Z</time></trkpt><trkpt lat="45.35315237635453" lon="10.616179426395508"><ele>132.0</ele><time>2026-03-29T09:59:43Z</time></trkpt><trkpt lat="45.35312133859351" lon="10.616492232161487"><ele>132.0</ele><time>2026-03-29T09:59:44Z</time></trkpt><trkpt lat="45.35311413367913" lon="10.616818020677243"><ele>132.0</ele><time>2026-03-29T09:59:45Z</time></trkpt><trkpt lat="45.35311609538221" lon="10.617146348511573"><ele>132.5</ele><time>2026-03-29T09:59:46Z</time></trkpt><trkpt lat="45.3531259076281" lon="10.617472714885164"><ele>133.0</ele><time>2026-03-29T09:59:47Z</time></trkpt><trkpt lat="45.35312693046116" lon="10.617792208312974"><ele>133.5</ele><time>2026-03-29T09:59:48Z</time></trkpt><trkpt lat="45.35312648488712" lon="10.618116700865828"><ele>134.0</ele><time>2026-03-29T09:59:49Z</time></trkpt><trkpt lat="45.35313542034303" lon="10.61843835432154"><ele>134.66666666666666</ele><time>2026-03-29T09:59:50Z</time></trkpt><trkpt lat="45.35315559030694" lon="10.618744826660741"><ele>135.33333333333334</ele><time>2026-03-29T09:59:51Z</time></trkpt><trkpt lat="45.353183264349916" lon="10.618995892436141"><ele>136.0</ele><time>2026-03-29T09:59:52Z</time></trkpt><trkpt lat="45.35320867224779" lon="10.6192268187"><ele>136.0</ele><time>2026-03-29T09:59:53Z</time></trkpt><trkpt lat="45.35324720001616" lon="10.61946336851393"><ele>136.0</ele><time>2026-03-29T09:59:54Z</time></trkpt><trkpt lat="45.35329064421132" lon="10.619677171068577"><ele>136.0</ele><time>2026-03-29T09:59:55Z</time></trkpt><trkpt lat="45.353343815102704" lon="10.619877878747888"><ele>135.75</ele><time>2026-03-29T09:59:56Z</time></trkpt><trkpt lat="45.35340831264845" lon="10.620053325332105"><ele>135.5</ele><time>2026-03-29T09:59:57Z</time></trkpt><trkpt lat="45.35348252426424" lon="10.620210031135981"><ele>135.25</ele><time>2026-03-29T09:59:58Z</time></trkpt><trkpt lat="45.35355831938706" lon="10.620350482118427"><ele>135.0</ele><time>2026-03-29T09:59:59Z</time></trkpt><trkpt lat="45.35363787378685" lon="10.62049383638852"><ele>135.0</ele><time>2026-03-29T10:00:00Z</time></trkpt><trkpt lat="45.353722548948085" lon="10.620630430600867"><ele>135.0</ele><time>2026-03-29T10:00:01Z</time></trkpt><trkpt lat="45.35381173675609" lon="10.620759107767203"><ele>135.0</ele><time>2026-03-29T10:00:02Z</time></trkpt><trkpt lat="45.353894341571085" lon="10.620869896774636"><ele>135.0</ele><time>2026-03-29T10:00:03Z</time></trkpt><trkpt lat="45.353973200830815" lon="10.620961165180729"><ele>135.0</ele><time>2026-03-29T10:00:04Z</time></trkpt><trkpt lat="45.35406020810728" lon="10.621038425036529"><ele>135.0</ele><time>2026-03-29T10:00:05Z</time></trkpt><trkpt lat="45.35415525571792" lon="10.621114710578125"><ele>135.0</ele><time>2026-03-29T10:00:06Z</time></trkpt><trkpt lat="45.35425052092357" lon="10.621190219733343"><ele>135.0</ele><time>2026-03-29T10:00:07Z</time></trkpt><trkpt lat="45.354344376126456" lon="10.621266872483838"><ele>135.0</ele><time>2026-03-29T10:00:08Z</time></trkpt><trkpt lat="45.35443669116635" lon="10.621347197703951"><ele>136.4</ele><time>2026-03-29T10:00:09Z</time></trkpt><trkpt lat="45.35452438258451" lon="10.62143708542543"><ele>137.8</ele><time>2026-03-29T10:00:10Z</time></trkpt><trkpt lat="45.35461086312398" lon="10.621520386103748"><ele>139.2</ele><time>2026-03-29T10:00:11Z</time></trkpt><trkpt lat="45.35470015935609" lon="10.621593694814964"><ele>140.6</ele><time>2026-03-29T10:00:12Z</time></trkpt><trkpt lat="45.3547780489476" lon="10.621656497110273"><ele>142.0</ele><time>2026-03-29T10:00:13Z</time></trkpt><trkpt lat="45.35486309242537" lon="10.6217203210234"><ele>142.0</ele><time>2026-03-29T10:00:14Z</time></trkpt><trkpt lat="45.35495180069223" lon="10.62179382573122"><ele>142.0</ele><time>2026-03-29T10:00:15Z</time></trkpt><trkpt lat="45.355038891141575" lon="10.621869986251607"><ele>142.0</ele><time>2026-03-29T10:00:16Z</time></trkpt><trkpt lat="45.35512249925331" lon="10.62193996248375"><ele>142.0</ele><time>2026-03-29T10:00:17Z</time></trkpt><trkpt lat="45.355200074563825" lon="10.622008248213016"><ele>142.0</ele><time>2026-03-29T10:00:18Z</time></trkpt><trkpt lat="45.35527457102233" lon="10.62207941532311"><ele>142.79999999999998</ele><time>2026-03-29T10:00:19Z</time></trkpt><trkpt lat="45.355347374884765" lon="10.622152366553706"><ele>143.6</ele><time>2026-03-29T10:00:20Z</time></trkpt><trkpt lat="45.35541980906453" lon="10.622225230172322"><ele>144.39999999999998</ele><time>2026-03-29T10:00:21Z</time></trkpt><trkpt lat="45.35549605231018" lon="10.622298532384765"><ele>145.2</ele><time>2026-03-29T10:00:22Z</time></trkpt><trkpt lat="45.355572128909444" lon="10.622379664289202"><ele>146.0</ele><time>2026-03-29T10:00:23Z</time></trkpt><trkpt lat="45.355644695351735" lon="10.622462527623533"><ele>146.0</ele><time>2026-03-29T10:00:24Z</time></trkpt><trkpt lat="45.35571983506239" lon="10.622542324333443"><ele>146.0</ele><time>2026-03-29T10:00:25Z</time></trkpt><trkpt lat="45.35579456290633" lon="10.62261626890964"><ele>146.0</ele><time>2026-03-29T10:00:26Z</time></trkpt><trkpt lat="45.35587855730192" lon="10.622700969858915"><ele>146.0</ele><time>2026-03-29T10:00:27Z</time></trkpt><trkpt lat="45.35597030737586" lon="10.622793455524851"><ele>146.0</ele><time>2026-03-29T10:00:28Z</time></trkpt><trkpt lat="45.356052801585506" lon="10.62286822176288"><ele>147.8</ele><time>2026-03-29T10:00:29Z</time></trkpt><trkpt lat="45.356135395236315" lon="10.622933034403433"><ele>149.6</ele><time>2026-03-29T10:00:30Z</time></trkpt><trkpt lat="45.356214181236886" lon="10.622994989244326"><ele>151.4</ele><time>2026-03-29T10:00:31Z</time></trkpt><trkpt lat="45.3562924257364" lon="10.623057196415077"><ele>153.2</ele><time>2026-03-29T10:00:32Z</time></trkpt><trkpt lat="45.356385071990495" lon="10.623128458899409"><ele>155.0</ele><time>2026-03-29T10:00:33Z</time></trkpt><trkpt lat="45.35647680902613" lon="10.623196980785433"><ele>155.0</ele><time>2026-03-29T10:00:34Z</time></trkpt><trkpt lat="45.35656515923547" lon="10.623262276580071"><ele>155.0</ele><time>2026-03-29T10:00:35Z</time></trkpt><trkpt lat="45.356649497779394" lon="10.623328311758668"><ele>155.0</ele><time>2026-03-29T10:00:36Z</time></trkpt><trkpt lat="45.356729771365636" lon="10.623391328449326"><ele>155.0</ele><time>2026-03-29T10:00:37Z</time></trkpt><trkpt lat="45.35681055646343" lon="10.623455808888481"><ele>155.0</ele><time>2026-03-29T10:00:38Z</time></trkpt><trkpt lat="45.35689410734095" lon="10.623519420838521"><ele>155.0</ele><time>2026-03-29T10:00:39Z</time></trkpt><trkpt lat="45.35697231607542" lon="10.623587528904876"><ele>155.0</ele><time>2026-03-29T10:00:40Z</time></trkpt><trkpt lat="45.35704459375512" lon="10.623657889819338"><ele>155.0</ele><time>2026-03-29T10:00:41Z</time></trkpt><trkpt lat="45.35711285003517" lon="10.623734133795338"><ele>155.0</ele><time>2026-03-29T10:00:42Z</time></trkpt><trkpt lat="45.35717689519334" lon="10.623826019572048"><ele>155.0</ele><time>2026-03-29T10:00:43Z</time></trkpt><trkpt lat="45.357232893557814" lon="10.623932828653876"><ele>156.0</ele><time>2026-03-29T10:00:44Z</time></trkpt><trkpt lat="45.35728966684302" lon="10.624048822112567"><ele>157.0</ele><time>2026-03-29T10:00:45Z</time></trkpt><trkpt lat="45.35734158997789" lon="10.624173817402639"><ele>158.0</ele><time>2026-03-29T10:00:46Z</time></trkpt><trkpt lat="45.35736662466822" lon="10.62431118150627"><ele>159.0</ele><time>2026-03-29T10:00:47Z</time></trkpt><trkpt lat="45.35737963095241" lon="10.624453215203939"><ele>160.0</ele><time>2026-03-29T10:00:48Z</time></trkpt><trkpt lat="45.35738868062258" lon="10.624590204114693"><ele>160.16666666666669</ele><time>2026-03-29T10:00:49Z</time></trkpt><trkpt lat="45.35739472809759" lon="10.624724282178763"><ele>160.33333333333334</ele><time>2026-03-29T10:00:50Z</time></trkpt><trkpt lat="45.35739129754035" lon="10.624861603253299"><ele>160.5</ele><time>2026-03-29T10:00:51Z</time></trkpt><trkpt lat="45.35738406507437" lon="10.624988989023203"><ele>160.66666666666666</ele><time>2026-03-29T10:00:52Z</time></trkpt><trkpt lat="45.3573698576196" lon="10.625101495935116"><ele>160.83333333333331</ele><time>2026-03-29T10:00:53Z</time></trkpt><trkpt lat="45.35735662776743" lon="10.625194890586618"><ele>161.0</ele><time>2026-03-29T10:00:54Z</time></trkpt><trkpt lat="45.357345467344466" lon="10.625289931747407"><ele>161.0</ele><time>2026-03-29T10:00:55Z</time></trkpt><trkpt lat="45.35733399013634" lon="10.625388602309425"><ele>161.0</ele><time>2026-03-29T10:00:56Z</time></trkpt><trkpt lat="45.357324704803624" lon="10.625500570048787"><ele>161.0</ele><time>2026-03-29T10:00:57Z</time></trkpt><trkpt lat="45.357316220827975" lon="10.62560345017418"><ele>161.0</ele><time>2026-03-29T10:00:58Z</time></trkpt><trkpt lat="45.35730615990241" lon="10.625695189274833"><ele>161.0</ele><time>2026-03-29T10:00:59Z</time></trkpt><trkpt lat="45.35728554941924" lon="10.625824408029624"><ele>161.0</ele><time>2026-03-29T10:01:00Z</time></trkpt><trkpt lat="45.35725834889891" lon="10.625987367015876"><ele>161.0</ele><time>2026-03-29T10:01:01Z</time></trkpt><trkpt lat="45.357223367544734" lon="10.62615948418252"><ele>161.0</ele><time>2026-03-29T10:01:02Z</time></trkpt><trkpt lat="45.3571450090875" lon="10.626362664810703"><ele>161.0</ele><time>2026-03-29T10:01:03Z</time></trkpt><trkpt lat="45.35709952718561" lon="10.626522718968415"><ele>161.0</ele><time>2026-03-29T10:01:04Z</time></trkpt><trkpt lat="45.35707677520241" lon="10.626651132108298"><ele>161.0</ele><time>2026-03-29T10:01:05Z</time></trkpt><trkpt lat="45.35701087533676" lon="10.626842550164284"><ele>161.0</ele><time>2026-03-29T10:01:06Z</time></trkpt><trkpt lat="45.356947248456656" lon="10.62703217371426"><ele>161.0</ele><time>2026-03-29T10:01:07Z</time></trkpt><trkpt lat="45.35687770884436" lon="10.62716249393733"><ele>161.0</ele><time>2026-03-29T10:01:08Z</time></trkpt><trkpt lat="45.35682296004814" lon="10.627267700091728"><ele>159.8</ele><time>2026-03-29T10:01:09Z</time></trkpt><trkpt lat="45.35677704457937" lon="10.627370333433486"><ele>158.60000000000002</ele><time>2026-03-29T10:01:10Z</time></trkpt><trkpt lat="45.35672161373968" lon="10.627453737127832"><ele>157.4</ele><time>2026-03-29T10:01:11Z</time></trkpt><trkpt lat="45.3566575960383" lon="10.62756963594775"><ele>156.2</ele><time>2026-03-29T10:01:12Z</time></trkpt><trkpt lat="45.35656514578399" lon="10.627745627988109"><ele>155.0</ele><time>2026-03-29T10:01:13Z</time></trkpt><trkpt lat="45.356455472118164" lon="10.627940962788262"><ele>155.8</ele><time>2026-03-29T10:01:14Z</time></trkpt><trkpt lat="45.3563655320822" lon="10.628098763436531"><ele>156.6</ele><time>2026-03-29T10:01:15Z</time></trkpt><trkpt lat="45.356304889491014" lon="10.62819207404183"><ele>157.4</ele><time>2026-03-29T10:01:16Z</time></trkpt><trkpt lat="45.35624854067423" lon="10.628279917839834"><ele>158.2</ele><time>2026-03-29T10:01:18Z</time></trkpt><trkpt lat="45.35630721724056" lon="10.628172993089855"><ele>159.0</ele><time>2026-03-29T10:01:22Z</time></trkpt><trkpt lat="45.356352649696674" lon="10.628091298522204"><ele>158.2</ele><time>2026-03-29T10:01:23Z</time></trkpt><trkpt lat="45.35641596720621" lon="10.628015930828113"><ele>157.4</ele><time>2026-03-29T10:01:24Z</time></trkpt><trkpt lat="45.35647833894553" lon="10.627900666691165"><ele>156.6</ele><time>2026-03-29T10:01:25Z</time></trkpt><trkpt lat="45.35652833181403" lon="10.627779141615097"><ele>155.8</ele><time>2026-03-29T10:01:26Z</time></trkpt><trkpt lat="45.35662531329178" lon="10.627663068053813"><ele>155.0</ele><time>2026-03-29T10:01:27Z</time></trkpt><trkpt lat="45.356690011481135" lon="10.627544477623475"><ele>155.0</ele><time>2026-03-29T10:01:28Z</time></trkpt><trkpt lat="45.35673950398835" lon="10.627449797337846"><ele>155.0</ele><time>2026-03-29T10:01:29Z</time></trkpt><trkpt lat="45.35681429350405" lon="10.627315299158916"><ele>155.0</ele><time>2026-03-29T10:01:30Z</time></trkpt><trkpt lat="45.356869785583" lon="10.627365579028725"><ele>155.0</ele><time>2026-03-29T10:02:17Z</time></trkpt><trkpt lat="45.356780925076244" lon="10.62734503911969"><ele>155.0</ele><time>2026-03-29T10:02:19Z</time></trkpt><trkpt lat="45.35673758362845" lon="10.627424781275355"><ele>155.0</ele><time>2026-03-29T10:02:28Z</time></trkpt><trkpt lat="45.35675312416668" lon="10.627819678709129"><ele>154.16666666666666</ele><time>2026-03-29T10:02:30Z</time></trkpt><trkpt lat="45.35671392668039" lon="10.627940338591063"><ele>153.33333333333331</ele><time>2026-03-29T10:02:31Z</time></trkpt><trkpt lat="45.35667760938281" lon="10.62805432442431"><ele>152.5</ele><time>2026-03-29T10:02:32Z</time></trkpt><trkpt lat="45.35664798884837" lon="10.628146730507892"><ele>151.66666666666666</ele><time>2026-03-29T10:02:33Z</time></trkpt><trkpt lat="45.35663691166245" lon="10.628272404752542"><ele>150.83333333333334</ele><time>2026-03-29T10:02:35Z</time></trkpt><trkpt lat="45.356712394898466" lon="10.628351116916315"><ele>150.0</ele><time>2026-03-29T10:02:37Z</time></trkpt><trkpt lat="45.35682873044976" lon="10.628375308126552"><ele>150.0</ele><time>2026-03-29T10:02:39Z</time></trkpt><trkpt lat="45.35691831654328" lon="10.628313967981226"><ele>150.0</ele><time>2026-03-29T10:02:40Z</time></trkpt><trkpt lat="45.357048591701464" lon="10.628316308128289"><ele>150.0</ele><time>2026-03-29T10:02:41Z</time></trkpt><trkpt lat="45.35718551711722" lon="10.6283316904482"><ele>150.0</ele><time>2026-03-29T10:02:42Z</time></trkpt><trkpt lat="45.35729872849294" lon="10.628320988470128"><ele>150.4</ele><time>2026-03-29T10:02:43Z</time></trkpt><trkpt lat="45.35740694528509" lon="10.628322101253497"><ele>150.8</ele><time>2026-03-29T10:02:44Z</time></trkpt><trkpt lat="45.3575054374605" lon="10.628298544822524"><ele>151.2</ele><time>2026-03-29T10:02:45Z</time></trkpt><trkpt lat="45.35759566944067" lon="10.62824588125623"><ele>151.6</ele><time>2026-03-29T10:02:46Z</time></trkpt><trkpt lat="45.357696969117" lon="10.62815849384558"><ele>152.0</ele><time>2026-03-29T10:02:47Z</time></trkpt><trkpt lat="45.3578103388276" lon="10.628027901325192"><ele>152.0</ele><time>2026-03-29T10:02:48Z</time></trkpt><trkpt lat="45.357911293844154" lon="10.62788520600015"><ele>152.0</ele><time>2026-03-29T10:02:49Z</time></trkpt><trkpt lat="45.35799043078648" lon="10.62775621381872"><ele>152.0</ele><time>2026-03-29T10:02:50Z</time></trkpt><trkpt lat="45.358098130010454" lon="10.627661761727621"><ele>152.0</ele><time>2026-03-29T10:02:51Z</time></trkpt><trkpt lat="45.358229018512255" lon="10.627596744885436"><ele>152.0</ele><time>2026-03-29T10:02:52Z</time></trkpt><trkpt lat="45.3583723750159" lon="10.62753402858695"><ele>152.0</ele><time>2026-03-29T10:02:53Z</time></trkpt><trkpt lat="45.35848570679358" lon="10.62745704459438"><ele>152.0</ele><time>2026-03-29T10:02:54Z</time></trkpt><trkpt lat="45.35858545100284" lon="10.627338788191803"><ele>152.0</ele><time>2026-03-29T10:02:55Z</time></trkpt><trkpt lat="45.358649243514265" lon="10.627198004973081"><ele>152.0</ele><time>2026-03-29T10:02:56Z</time></trkpt><trkpt lat="45.3587017479445" lon="10.627070137393558"><ele>152.0</ele><time>2026-03-29T10:02:57Z</time></trkpt><trkpt lat="45.35874364483794" lon="10.626911535921193"><ele>152.0</ele><time>2026-03-29T10:02:58Z</time></trkpt><trkpt lat="45.358769809892536" lon="10.626721789518063"><ele>152.0</ele><time>2026-03-29T10:02:59Z</time></trkpt><trkpt lat="45.3588098324222" lon="10.626489357100953"><ele>151.0</ele><time>2026-03-29T10:03:00Z</time></trkpt><trkpt lat="45.35884669550218" lon="10.626262301979356"><ele>150.0</ele><time>2026-03-29T10:03:01Z</time></trkpt><trkpt lat="45.35890342936807" lon="10.626077278078942"><ele>149.0</ele><time>2026-03-29T10:03:02Z</time></trkpt><trkpt lat="45.35897374329695" lon="10.6259397717384"><ele>148.0</ele><time>2026-03-29T10:03:03Z</time></trkpt><trkpt lat="45.359056263944154" lon="10.625830198624154"><ele>148.0</ele><time>2026-03-29T10:03:04Z</time></trkpt><trkpt lat="45.359148012439945" lon="10.62572603920698"><ele>148.0</ele><time>2026-03-29T10:03:05Z</time></trkpt><trkpt lat="45.35923425124411" lon="10.625634834027712"><ele>148.0</ele><time>2026-03-29T10:03:06Z</time></trkpt><trkpt lat="45.35930815461756" lon="10.625565667692875"><ele>148.0</ele><time>2026-03-29T10:03:07Z</time></trkpt><trkpt lat="45.359400779482534" lon="10.625532444039504"><ele>148.0</ele><time>2026-03-29T10:03:09Z</time></trkpt><trkpt lat="45.35948016555412" lon="10.62552310731962"><ele>148.0</ele><time>2026-03-29T10:03:13Z</time></trkpt><trkpt lat="45.35960681295768" lon="10.625555800447843"><ele>148.0</ele><time>2026-03-29T10:03:15Z</time></trkpt><trkpt lat="45.359697262768634" lon="10.625614033661314"><ele>148.0</ele><time>2026-03-29T10:03:16Z</time></trkpt><trkpt lat="45.3597874739042" lon="10.625669563422651"><ele>148.0</ele><time>2026-03-29T10:03:17Z</time></trkpt><trkpt lat="45.359881547762875" lon="10.625709219045111"><ele>148.0</ele><time>2026-03-29T10:03:18Z</time></trkpt><trkpt lat="45.35999505534152" lon="10.625772528125571"><ele>148.0</ele><time>2026-03-29T10:03:19Z</time></trkpt><trkpt lat="45.360114612728026" lon="10.625839716277197"><ele>148.0</ele><time>2026-03-29T10:03:20Z</time></trkpt><trkpt lat="45.36020995705472" lon="10.625913549978135"><ele>148.0</ele><time>2026-03-29T10:03:21Z</time></trkpt><trkpt lat="45.36029756861382" lon="10.625977703310943"><ele>148.0</ele><time>2026-03-29T10:03:22Z</time></trkpt><trkpt lat="45.36039414550299" lon="10.626057191539507"><ele>148.0</ele><time>2026-03-29T10:03:23Z</time></trkpt><trkpt lat="45.36050988305396" lon="10.626182622933731"><ele>149.25</ele><time>2026-03-29T10:03:24Z</time></trkpt><trkpt lat="45.36064457352067" lon="10.62630983123091"><ele>150.5</ele><time>2026-03-29T10:03:25Z</time></trkpt><trkpt lat="45.36074815052707" lon="10.626409755729997"><ele>151.75</ele><time>2026-03-29T10:03:26Z</time></trkpt><trkpt lat="45.360847584152545" lon="10.626523728844544"><ele>153.0</ele><time>2026-03-29T10:03:27Z</time></trkpt><trkpt lat="45.36097379642414" lon="10.626632538781807"><ele>153.0</ele><time>2026-03-29T10:03:28Z</time></trkpt><trkpt lat="45.361073238872244" lon="10.626729365707638"><ele>153.0</ele><time>2026-03-29T10:03:29Z</time></trkpt><trkpt lat="45.361155209864506" lon="10.62681103135533"><ele>153.0</ele><time>2026-03-29T10:03:30Z</time></trkpt><trkpt lat="45.361235260376255" lon="10.626890108176285"><ele>153.0</ele><time>2026-03-29T10:03:31Z</time></trkpt><trkpt lat="45.36133303893708" lon="10.626987735984022"><ele>153.0</ele><time>2026-03-29T10:03:32Z</time></trkpt><trkpt lat="45.36147786565962" lon="10.626993005458576"><ele>153.0</ele><time>2026-03-29T10:03:33Z</time></trkpt><trkpt lat="45.36157593059543" lon="10.627214748749623"><ele>153.0</ele><time>2026-03-29T10:03:34Z</time></trkpt><trkpt lat="45.361710443977024" lon="10.627292931057308"><ele>153.0</ele><time>2026-03-29T10:03:35Z</time></trkpt><trkpt lat="45.3618280064013" lon="10.627378802598882"><ele>153.0</ele><time>2026-03-29T10:03:36Z</time></trkpt><trkpt lat="45.36193898960998" lon="10.627453554828591"><ele>153.0</ele><time>2026-03-29T10:03:37Z</time></trkpt><trkpt lat="45.36205978289635" lon="10.627520461562208"><ele>153.0</ele><time>2026-03-29T10:03:38Z</time></trkpt><trkpt lat="45.362176518682745" lon="10.62755897728984"><ele>153.0</ele><time>2026-03-29T10:03:39Z</time></trkpt><trkpt lat="45.36227102766516" lon="10.627579231242791"><ele>153.0</ele><time>2026-03-29T10:03:40Z</time></trkpt><trkpt lat="45.36234150580985" lon="10.627598923651217"><ele>153.0</ele><time>2026-03-29T10:03:41Z</time></trkpt><trkpt lat="45.362410040755044" lon="10.627626076656332"><ele>153.0</ele><time>2026-03-29T10:03:42Z</time></trkpt><trkpt lat="45.36247925169851" lon="10.627625452172008"><ele>153.0</ele><time>2026-03-29T10:03:43Z</time></trkpt><trkpt lat="45.36254476693337" lon="10.627587098425707"><ele>153.0</ele><time>2026-03-29T10:03:44Z</time></trkpt><trkpt lat="45.362624024454526" lon="10.627521502771138"><ele>153.0</ele><time>2026-03-29T10:03:45Z</time></trkpt><trkpt lat="45.36270970435703" lon="10.6274478044173"><ele>153.0</ele><time>2026-03-29T10:03:46Z</time></trkpt><trkpt lat="45.362806624478154" lon="10.627368106295732"><ele>153.0</ele><time>2026-03-29T10:03:47Z</time></trkpt><trkpt lat="45.36289894003259" lon="10.627308958500041"><ele>153.0</ele><time>2026-03-29T10:03:48Z</time></trkpt><trkpt lat="45.36298092827406" lon="10.627275888700309"><ele>153.0</ele><time>2026-03-29T10:03:49Z</time></trkpt><trkpt lat="45.3630518134597" lon="10.627227402247119"><ele>153.0</ele><time>2026-03-29T10:03:50Z</time></trkpt><trkpt lat="45.36311021452815" lon="10.62719251987436"><ele>153.0</ele><time>2026-03-29T10:03:51Z</time></trkpt><trkpt lat="45.36314582633133" lon="10.627112914102234"><ele>152.8</ele><time>2026-03-29T10:03:53Z</time></trkpt><trkpt lat="45.36312601377643" lon="10.626973376940297"><ele>152.60000000000002</ele><time>2026-03-29T10:03:55Z</time></trkpt><trkpt lat="45.36310554058481" lon="10.626865352311972"><ele>152.39999999999998</ele><time>2026-03-29T10:03:56Z</time></trkpt><trkpt lat="45.36309160523488" lon="10.62672632212726"><ele>152.2</ele><time>2026-03-29T10:03:57Z</time></trkpt><trkpt lat="45.36308756044483" lon="10.62653891252568"><ele>152.0</ele><time>2026-03-29T10:03:58Z</time></trkpt><trkpt lat="45.36307313687322" lon="10.62632911974502"><ele>152.0</ele><time>2026-03-29T10:03:59Z</time></trkpt><trkpt lat="45.36307458020329" lon="10.626145647765124"><ele>152.0</ele><time>2026-03-29T10:04:00Z</time></trkpt><trkpt lat="45.36306594260434" lon="10.626008522357393"><ele>152.0</ele><time>2026-03-29T10:04:01Z</time></trkpt><trkpt lat="45.36306766594496" lon="10.625859287627765"><ele>152.0</ele><time>2026-03-29T10:04:02Z</time></trkpt><trkpt lat="45.36307628762715" lon="10.625710724351388"><ele>152.0</ele><time>2026-03-29T10:04:03Z</time></trkpt><trkpt lat="45.363105513746255" lon="10.625575644726128"><ele>151.5</ele><time>2026-03-29T10:04:04Z</time></trkpt><trkpt lat="45.36315844758215" lon="10.62545744131469"><ele>151.0</ele><time>2026-03-29T10:04:05Z</time></trkpt><trkpt lat="45.36322578627961" lon="10.625340349788015"><ele>150.5</ele><time>2026-03-29T10:04:06Z</time></trkpt><trkpt lat="45.36330843785873" lon="10.625165811718157"><ele>150.0</ele><time>2026-03-29T10:04:07Z</time></trkpt><trkpt lat="45.36339601374426" lon="10.625013401039821"><ele>150.0</ele><time>2026-03-29T10:04:08Z</time></trkpt><trkpt lat="45.363467691939256" lon="10.624848458332075"><ele>150.0</ele><time>2026-03-29T10:04:09Z</time></trkpt><trkpt lat="45.36353591735424" lon="10.624676086428822"><ele>150.0</ele><time>2026-03-29T10:04:10Z</time></trkpt><trkpt lat="45.36361124005995" lon="10.624496113556374"><ele>150.0</ele><time>2026-03-29T10:04:11Z</time></trkpt><trkpt lat="45.363665071186844" lon="10.624347622260638"><ele>149.25</ele><time>2026-03-29T10:04:12Z</time></trkpt><trkpt lat="45.36371638793612" lon="10.624214217864068"><ele>148.5</ele><time>2026-03-29T10:04:13Z</time></trkpt><trkpt lat="45.363794532301334" lon="10.624055280176655"><ele>147.75</ele><time>2026-03-29T10:04:14Z</time></trkpt><trkpt lat="45.36388817101011" lon="10.623894898185773"><ele>147.0</ele><time>2026-03-29T10:04:15Z</time></trkpt><trkpt lat="45.36397118802825" lon="10.623742471896191"><ele>147.0</ele><time>2026-03-29T10:04:16Z</time></trkpt><trkpt lat="45.36403937776331" lon="10.62365381080524"><ele>147.0</ele><time>2026-03-29T10:04:17Z</time></trkpt><trkpt lat="45.36411954386354" lon="10.623559519178135"><ele>147.0</ele><time>2026-03-29T10:04:18Z</time></trkpt><trkpt lat="45.36419257488545" lon="10.623452325435386"><ele>147.0</ele><time>2026-03-29T10:04:19Z</time></trkpt><trkpt lat="45.36425130024212" lon="10.623339049057552"><ele>147.0</ele><time>2026-03-29T10:04:20Z</time></trkpt><trkpt lat="45.36427199282206" lon="10.623194273999284"><ele>147.25</ele><time>2026-03-29T10:04:22Z</time></trkpt><trkpt lat="45.36419317237693" lon="10.623007328912431"><ele>147.5</ele><time>2026-03-29T10:04:24Z</time></trkpt><trkpt lat="45.36412844845705" lon="10.622845184197574"><ele>147.75</ele><time>2026-03-29T10:04:25Z</time></trkpt><trkpt lat="45.36404455315522" lon="10.622658333973307"><ele>148.0</ele><time>2026-03-29T10:04:26Z</time></trkpt><trkpt lat="45.363969573926354" lon="10.622474952312924"><ele>147.4</ele><time>2026-03-29T10:04:27Z</time></trkpt><trkpt lat="45.36391944092108" lon="10.622329843964058"><ele>146.8</ele><time>2026-03-29T10:04:28Z</time></trkpt><trkpt lat="45.36388784194346" lon="10.622205909417964"><ele>146.2</ele><time>2026-03-29T10:04:29Z</time></trkpt><trkpt lat="45.36388033041422" lon="10.622040530737571"><ele>145.6</ele><time>2026-03-29T10:04:30Z</time></trkpt><trkpt lat="45.36389271628935" lon="10.621862629326001"><ele>145.0</ele><time>2026-03-29T10:04:31Z</time></trkpt><trkpt lat="45.363913279800165" lon="10.62169677274629"><ele>145.0</ele><time>2026-03-29T10:04:32Z</time></trkpt><trkpt lat="45.36394462229853" lon="10.621535395623795"><ele>145.0</ele><time>2026-03-29T10:04:33Z</time></trkpt><trkpt lat="45.363982941356134" lon="10.621372642520337"><ele>145.0</ele><time>2026-03-29T10:04:34Z</time></trkpt><trkpt lat="45.363996537103596" lon="10.621210354183352"><ele>145.0</ele><time>2026-03-29T10:04:35Z</time></trkpt><trkpt lat="45.36398332321708" lon="10.621053038198246"><ele>145.0</ele><time>2026-03-29T10:04:36Z</time></trkpt><trkpt lat="45.36395836811638" lon="10.62090171870077"><ele>145.0</ele><time>2026-03-29T10:04:37Z</time></trkpt><trkpt lat="45.363930215015934" lon="10.620739045743546"><ele>145.0</ele><time>2026-03-29T10:04:38Z</time></trkpt><trkpt lat="45.36390804539847" lon="10.620618783226412"><ele>145.0</ele><time>2026-03-29T10:04:39Z</time></trkpt><trkpt lat="45.36388317249623" lon="10.620533288284854"><ele>145.0</ele><time>2026-03-29T10:04:40Z</time></trkpt><trkpt lat="45.363832631435685" lon="10.620445067974861"><ele>146.0</ele><time>2026-03-29T10:04:41Z</time></trkpt><trkpt lat="45.3637684147215" lon="10.62034964852246"><ele>147.0</ele><time>2026-03-29T10:04:42Z</time></trkpt><trkpt lat="45.363707964772715" lon="10.620262719554106"><ele>148.0</ele><time>2026-03-29T10:04:43Z</time></trkpt><trkpt lat="45.36368330463743" lon="10.620171436653289"><ele>149.0</ele><time>2026-03-29T10:04:44Z</time></trkpt><trkpt lat="45.36366471230152" lon="10.620026942460084"><ele>150.0</ele><time>2026-03-29T10:04:45Z</time></trkpt><trkpt lat="45.363657453251555" lon="10.619830659476333"><ele>150.5</ele><time>2026-03-29T10:04:46Z</time></trkpt><trkpt lat="45.36365632384722" lon="10.619628652687794"><ele>151.0</ele><time>2026-03-29T10:04:47Z</time></trkpt><trkpt lat="45.36364144269053" lon="10.61944129289074"><ele>151.5</ele><time>2026-03-29T10:04:48Z</time></trkpt><trkpt lat="45.36363271451266" lon="10.619297250861903"><ele>152.0</ele><time>2026-03-29T10:04:49Z</time></trkpt><trkpt lat="45.36365212170654" lon="10.619167568035405"><ele>152.25</ele><time>2026-03-29T10:04:51Z</time></trkpt><trkpt lat="45.36369809303632" lon="10.619040570297205"><ele>152.5</ele><time>2026-03-29T10:04:52Z</time></trkpt><trkpt lat="45.36376819893371" lon="10.618862465239344"><ele>152.75</ele><time>2026-03-29T10:04:53Z</time></trkpt><trkpt lat="45.363841313146594" lon="10.61865001868081"><ele>153.0</ele><time>2026-03-29T10:04:54Z</time></trkpt><trkpt lat="45.3639083355443" lon="10.618451078679284"><ele>151.0</ele><time>2026-03-29T10:04:55Z</time></trkpt><trkpt lat="45.36397616768502" lon="10.618272353148592"><ele>149.0</ele><time>2026-03-29T10:04:56Z</time></trkpt><trkpt lat="45.364046635799156" lon="10.618070748430188"><ele>147.0</ele><time>2026-03-29T10:04:57Z</time></trkpt><trkpt lat="45.364121759851464" lon="10.617848354284977"><ele>147.0</ele><time>2026-03-29T10:04:58Z</time></trkpt><trkpt lat="45.36418445008828" lon="10.617658670248776"><ele>147.0</ele><time>2026-03-29T10:04:59Z</time></trkpt><trkpt lat="45.36424181523546" lon="10.617477153173636"><ele>147.0</ele><time>2026-03-29T10:05:00Z</time></trkpt><trkpt lat="45.36430013597511" lon="10.617284693381759"><ele>147.0</ele><time>2026-03-29T10:05:01Z</time></trkpt><trkpt lat="45.36436875360031" lon="10.617081220500788"><ele>146.6</ele><time>2026-03-29T10:05:02Z</time></trkpt><trkpt lat="45.364431575702994" lon="10.616903790186386"><ele>146.2</ele><time>2026-03-29T10:05:03Z</time></trkpt><trkpt lat="45.36448625788929" lon="10.616762588936412"><ele>145.8</ele><time>2026-03-29T10:05:04Z</time></trkpt><trkpt lat="45.364521246534245" lon="10.616677544638275"><ele>145.4</ele><time>2026-03-29T10:05:05Z</time></trkpt><trkpt lat="45.364610537340496" lon="10.616703922899168"><ele>145.0</ele><time>2026-03-29T10:05:12Z</time></trkpt><trkpt lat="45.36469121790816" lon="10.616720447662056"><ele>144.33333333333334</ele><time>2026-03-29T10:05:13Z</time></trkpt><trkpt lat="45.36475465372877" lon="10.616712454956053"><ele>143.66666666666669</ele><time>2026-03-29T10:05:14Z</time></trkpt><trkpt lat="45.36481717188244" lon="10.616687267963666"><ele>143.0</ele><time>2026-03-29T10:05:15Z</time></trkpt><trkpt lat="45.364883211067514" lon="10.616658014663226"><ele>142.33333333333334</ele><time>2026-03-29T10:05:16Z</time></trkpt><trkpt lat="45.364940835817386" lon="10.616570527547408"><ele>141.66666666666666</ele><time>2026-03-29T10:05:18Z</time></trkpt><trkpt lat="45.36495169031675" lon="10.616403261814346"><ele>141.0</ele><time>2026-03-29T10:05:20Z</time></trkpt><trkpt lat="45.364945196951815" lon="10.616268008520837"><ele>140.4</ele><time>2026-03-29T10:05:21Z</time></trkpt><trkpt lat="45.36493226208297" lon="10.616137175964683"><ele>139.8</ele><time>2026-03-29T10:05:22Z</time></trkpt><trkpt lat="45.36497609591715" lon="10.616001682895375"><ele>139.20000000000002</ele><time>2026-03-29T10:05:24Z</time></trkpt><trkpt lat="45.365033079173855" lon="10.615934739710667"><ele>138.6</ele><time>2026-03-29T10:05:25Z</time></trkpt><trkpt lat="45.36508312566436" lon="10.615868716598959"><ele>138.0</ele><time>2026-03-29T10:05:26Z</time></trkpt><trkpt lat="45.36509864078147" lon="10.615708666606048"><ele>138.0</ele><time>2026-03-29T10:05:28Z</time></trkpt><trkpt lat="45.36508177740779" lon="10.615592231482417"><ele>138.0</ele><time>2026-03-29T10:05:29Z</time></trkpt><trkpt lat="45.36506223104382" lon="10.61542081940545"><ele>138.0</ele><time>2026-03-29T10:05:30Z</time></trkpt><trkpt lat="45.36504116577514" lon="10.615212622901492"><ele>138.0</ele><time>2026-03-29T10:05:31Z</time></trkpt><trkpt lat="45.36502630816633" lon="10.614998534317888"><ele>138.0</ele><time>2026-03-29T10:05:32Z</time></trkpt><trkpt lat="45.36502603318678" lon="10.614778112193756"><ele>138.0</ele><time>2026-03-29T10:05:33Z</time></trkpt><trkpt lat="45.365029536594975" lon="10.614568203999307"><ele>138.0</ele><time>2026-03-29T10:05:34Z</time></trkpt><trkpt lat="45.36502746626959" lon="10.614377518919285"><ele>138.0</ele><time>2026-03-29T10:05:35Z</time></trkpt><trkpt lat="45.36504189928689" lon="10.614213953150493"><ele>138.0</ele><time>2026-03-29T10:05:36Z</time></trkpt><trkpt lat="45.36503835396275" lon="10.614072153292529"><ele>138.0</ele><time>2026-03-29T10:05:37Z</time></trkpt><trkpt lat="45.365039798636325" lon="10.613950498736319"><ele>138.0</ele><time>2026-03-29T10:05:38Z</time></trkpt><trkpt lat="45.36504363785965" lon="10.6138332971358"><ele>138.0</ele><time>2026-03-29T10:05:39Z</time></trkpt><trkpt lat="45.36505797960255" lon="10.613696177860314"><ele>138.0</ele><time>2026-03-29T10:05:40Z</time></trkpt><trkpt lat="45.36508740121954" lon="10.613528476865193"><ele>138.5</ele><time>2026-03-29T10:05:41Z</time></trkpt><trkpt lat="45.3650947804539" lon="10.61337680908453"><ele>139.0</ele><time>2026-03-29T10:05:42Z</time></trkpt><trkpt lat="45.365090477388925" lon="10.61324018965164"><ele>139.5</ele><time>2026-03-29T10:05:43Z</time></trkpt><trkpt lat="45.36505789697198" lon="10.613075978358594"><ele>140.0</ele><time>2026-03-29T10:05:44Z</time></trkpt><trkpt lat="45.36499124233385" lon="10.612890016185563"><ele>140.0</ele><time>2026-03-29T10:05:45Z</time></trkpt><trkpt lat="45.364924978985414" lon="10.612674425049441"><ele>140.0</ele><time>2026-03-29T10:05:46Z</time></trkpt><trkpt lat="45.36483109286549" lon="10.612475194456081"><ele>140.0</ele><time>2026-03-29T10:05:47Z</time></trkpt><trkpt lat="45.36473390564391" lon="10.612281409533596"><ele>141.33333333333331</ele><time>2026-03-29T10:05:48Z</time></trkpt><trkpt lat="45.3646505921332" lon="10.612100106274013"><ele>142.66666666666666</ele><time>2026-03-29T10:05:49Z</time></trkpt><trkpt lat="45.364654625950735" lon="10.61187749052459"><ele>144.0</ele><time>2026-03-29T10:05:50Z</time></trkpt><trkpt lat="45.36462594678631" lon="10.611621077553192"><ele>144.0</ele><time>2026-03-29T10:05:51Z</time></trkpt><trkpt lat="45.36459379150843" lon="10.611381289583038"><ele>144.0</ele><time>2026-03-29T10:05:52Z</time></trkpt><trkpt lat="45.36454732541515" lon="10.6111835095826"><ele>144.0</ele><time>2026-03-29T10:05:53Z</time></trkpt><trkpt lat="45.364518554392305" lon="10.61100820667844"><ele>144.0</ele><time>2026-03-29T10:05:54Z</time></trkpt><trkpt lat="45.36450916946987" lon="10.6108465425295"><ele>142.5</ele><time>2026-03-29T10:05:55Z</time></trkpt><trkpt lat="45.36448729885262" lon="10.6107083368227"><ele>141.0</ele><time>2026-03-29T10:05:56Z</time></trkpt><trkpt lat="45.3644701971438" lon="10.610605535023286"><ele>139.5</ele><time>2026-03-29T10:05:57Z</time></trkpt><trkpt lat="45.36465020525326" lon="10.610602755898105"><ele>138.0</ele><time>2026-03-29T10:06:01Z</time></trkpt><trkpt lat="45.364767907710295" lon="10.610639085032291"><ele>137.0</ele><time>2026-03-29T10:06:02Z</time></trkpt><trkpt lat="45.364905844227515" lon="10.610685612437473"><ele>136.0</ele><time>2026-03-29T10:06:03Z</time></trkpt><trkpt lat="45.36507066069011" lon="10.61070657888836"><ele>135.0</ele><time>2026-03-29T10:06:04Z</time></trkpt><trkpt lat="45.365293475607686" lon="10.610736866135365"><ele>135.0</ele><time>2026-03-29T10:06:05Z</time></trkpt><trkpt lat="45.365522904077274" lon="10.610774589295907"><ele>135.0</ele><time>2026-03-29T10:06:06Z</time></trkpt><trkpt lat="45.36572318889183" lon="10.610800725658452"><ele>135.0</ele><time>2026-03-29T10:06:07Z</time></trkpt><trkpt lat="45.36592009953141" lon="10.610828685227348"><ele>136.33333333333334</ele><time>2026-03-29T10:06:08Z</time></trkpt><trkpt lat="45.36611224766333" lon="10.610854042342007"><ele>137.66666666666669</ele><time>2026-03-29T10:06:09Z</time></trkpt><trkpt lat="45.36629495872755" lon="10.610869604145709"><ele>139.0</ele><time>2026-03-29T10:06:10Z</time></trkpt><trkpt lat="45.36645752151642" lon="10.610874644479663"><ele>139.2</ele><time>2026-03-29T10:06:11Z</time></trkpt><trkpt lat="45.36659264502958" lon="10.610876513150627"><ele>139.4</ele><time>2026-03-29T10:06:12Z</time></trkpt><trkpt lat="45.366694331813285" lon="10.61088030240595"><ele>139.6</ele><time>2026-03-29T10:06:13Z</time></trkpt><trkpt lat="45.36676647565639" lon="10.61089111142248"><ele>139.8</ele><time>2026-03-29T10:06:14Z</time></trkpt><trkpt lat="45.3668493759799" lon="10.610870749119213"><ele>140.0</ele><time>2026-03-29T10:06:19Z</time></trkpt><trkpt lat="45.36688310121515" lon="10.610647410249388"><ele>140.0</ele><time>2026-03-29T10:06:21Z</time></trkpt><trkpt lat="45.36692873817954" lon="10.610507642905427"><ele>140.0</ele><time>2026-03-29T10:06:22Z</time></trkpt><trkpt lat="45.36696367320951" lon="10.610341383346158"><ele>140.0</ele><time>2026-03-29T10:06:23Z</time></trkpt><trkpt lat="45.36700862900109" lon="10.610123144722131"><ele>140.0</ele><time>2026-03-29T10:06:24Z</time></trkpt><trkpt lat="45.36706907562619" lon="10.609829705622568"><ele>140.5</ele><time>2026-03-29T10:06:25Z</time></trkpt><trkpt lat="45.36714151587493" lon="10.60947804324895"><ele>141.0</ele><time>2026-03-29T10:06:26Z</time></trkpt><trkpt lat="45.36720189011872" lon="10.609184955527255"><ele>141.0</ele><time>2026-03-29T10:06:27Z</time></trkpt><trkpt lat="45.36725204324336" lon="10.60894148637482"><ele>141.0</ele><time>2026-03-29T10:06:28Z</time></trkpt><trkpt lat="45.367302536280384" lon="10.60868753145112"><ele>141.0</ele><time>2026-03-29T10:06:29Z</time></trkpt><trkpt lat="45.36735568839655" lon="10.60841888663572"><ele>141.0</ele><time>2026-03-29T10:06:30Z</time></trkpt><trkpt lat="45.367404967359306" lon="10.608169817790076"><ele>141.0</ele><time>2026-03-29T10:06:31Z</time></trkpt><trkpt lat="45.36744470865758" lon="10.607977915970782"><ele>141.0</ele><time>2026-03-29T10:06:32Z</time></trkpt><trkpt lat="45.36747994644092" lon="10.607824003974056"><ele>141.0</ele><time>2026-03-29T10:06:33Z</time></trkpt><trkpt lat="45.3675116328416" lon="10.60768873695784"><ele>141.0</ele><time>2026-03-29T10:06:34Z</time></trkpt><trkpt lat="45.36754776633587" lon="10.607586364398978"><ele>141.0</ele><time>2026-03-29T10:06:35Z</time></trkpt><trkpt lat="45.367600007243404" lon="10.607448190026687"><ele>141.0</ele><time>2026-03-29T10:06:37Z</time></trkpt><trkpt lat="45.36773045841937" lon="10.607499393568547"><ele>141.0</ele><time>2026-03-29T10:06:39Z</time></trkpt><trkpt lat="45.36783462245866" lon="10.607561190967452"><ele>141.0</ele><time>2026-03-29T10:06:40Z</time></trkpt><trkpt lat="45.36795667080684" lon="10.607631885945121"><ele>139.6</ele><time>2026-03-29T10:06:41Z</time></trkpt><trkpt lat="45.36806827025196" lon="10.607698307145442"><ele>138.2</ele><time>2026-03-29T10:06:42Z</time></trkpt><trkpt lat="45.368147665057386" lon="10.607742424192288"><ele>136.8</ele><time>2026-03-29T10:06:43Z</time></trkpt><trkpt lat="45.36821872884396" lon="10.607753442026288"><ele>135.4</ele><time>2026-03-29T10:06:44Z</time></trkpt><trkpt lat="45.368344443314605" lon="10.607694525863096"><ele>134.0</ele><time>2026-03-29T10:06:46Z</time></trkpt><trkpt lat="45.368418728567775" lon="10.607594911893317"><ele>134.0</ele><time>2026-03-29T10:06:47Z</time></trkpt><trkpt lat="45.36850953830694" lon="10.607459277284455"><ele>134.0</ele><time>2026-03-29T10:06:48Z</time></trkpt><trkpt lat="45.368598415834846" lon="10.607301537590338"><ele>134.0</ele><time>2026-03-29T10:06:49Z</time></trkpt><trkpt lat="45.36867145708632" lon="10.607152680962567"><ele>134.0</ele><time>2026-03-29T10:06:50Z</time></trkpt><trkpt lat="45.36873789727211" lon="10.607017757316052"><ele>134.6</ele><time>2026-03-29T10:06:51Z</time></trkpt><trkpt lat="45.36877893034332" lon="10.606922717782556"><ele>135.2</ele><time>2026-03-29T10:06:52Z</time></trkpt><trkpt lat="45.368856193046305" lon="10.606854079632223"><ele>135.79999999999998</ele><time>2026-03-29T10:06:54Z</time></trkpt><trkpt lat="45.36891083436593" lon="10.606791240256781"><ele>136.4</ele><time>2026-03-29T10:06:56Z</time></trkpt><trkpt lat="45.36899885326343" lon="10.606701579228613"><ele>137.0</ele><time>2026-03-29T10:06:58Z</time></trkpt><trkpt lat="45.369145742349275" lon="10.60693893545845"><ele>134.5</ele><time>2026-03-29T10:06:59Z</time></trkpt><trkpt lat="45.369204849216814" lon="10.606984746380908"><ele>132.0</ele><time>2026-03-29T10:07:00Z</time></trkpt><trkpt lat="45.369277146744615" lon="10.607045220008768"><ele>129.5</ele><time>2026-03-29T10:07:01Z</time></trkpt><trkpt lat="45.36936604903018" lon="10.607124818841099"><ele>127.0</ele><time>2026-03-29T10:07:02Z</time></trkpt><trkpt lat="45.369436824387385" lon="10.60717312127391"><ele>124.49999999999999</ele><time>2026-03-29T10:07:03Z</time></trkpt><trkpt lat="45.36951720579158" lon="10.607206766648885"><ele>122.0</ele><time>2026-03-29T10:07:04Z</time></trkpt><trkpt lat="45.36959072226117" lon="10.607224020567706"><ele>122.0</ele><time>2026-03-29T10:07:05Z</time></trkpt><trkpt lat="45.36967310146688" lon="10.60726891665069"><ele>121.99999999999999</ele><time>2026-03-29T10:07:07Z</time></trkpt><trkpt lat="45.369683955455706" lon="10.607428136509935"><ele>121.99999999999999</ele><time>2026-03-29T10:07:09Z</time></trkpt><trkpt lat="45.36968537696269" lon="10.607565201266883"><ele>122.0</ele><time>2026-03-29T10:07:10Z</time></trkpt><trkpt lat="45.369682094737506" lon="10.607728973669222"><ele>122.0</ele><time>2026-03-29T10:07:11Z</time></trkpt><trkpt lat="45.36969102864124" lon="10.607882939468242"><ele>121.0</ele><time>2026-03-29T10:07:12Z</time></trkpt><trkpt lat="45.369712047220354" lon="10.608001446915779"><ele>119.99999999999999</ele><time>2026-03-29T10:07:13Z</time></trkpt><trkpt lat="45.36975872000508" lon="10.608131165490287"><ele>118.99999999999999</ele><time>2026-03-29T10:07:14Z</time></trkpt><trkpt lat="45.369805575160214" lon="10.608264797123963"><ele>118.0</ele><time>2026-03-29T10:07:15Z</time></trkpt><trkpt lat="45.36983803552607" lon="10.608389003174196"><ele>117.0</ele><time>2026-03-29T10:07:16Z</time></trkpt><trkpt lat="45.36985912000419" lon="10.608541447195224"><ele>118.75</ele><time>2026-03-29T10:07:17Z</time></trkpt><trkpt lat="45.36986708905093" lon="10.60872513492303"><ele>120.5</ele><time>2026-03-29T10:07:18Z</time></trkpt><trkpt lat="45.36987254171273" lon="10.60891658119901"><ele>122.25</ele><time>2026-03-29T10:07:19Z</time></trkpt><trkpt lat="45.36989103623168" lon="10.60912576843831"><ele>124.0</ele><time>2026-03-29T10:07:20Z</time></trkpt><trkpt lat="45.36991660125249" lon="10.60933863824663"><ele>125.0</ele><time>2026-03-29T10:07:21Z</time></trkpt><trkpt lat="45.369962261098046" lon="10.609553154572465"><ele>126.0</ele><time>2026-03-29T10:07:22Z</time></trkpt><trkpt lat="45.37002567558306" lon="10.609768405247218"><ele>127.0</ele><time>2026-03-29T10:07:23Z</time></trkpt><trkpt lat="45.37007841469611" lon="10.609966332621283"><ele>127.0</ele><time>2026-03-29T10:07:24Z</time></trkpt><trkpt lat="45.37011644247419" lon="10.610133076963042"><ele>127.0</ele><time>2026-03-29T10:07:25Z</time></trkpt><trkpt lat="45.37015743761356" lon="10.610283464542508"><ele>127.0</ele><time>2026-03-29T10:07:26Z</time></trkpt><trkpt lat="45.37019447470184" lon="10.610454750769659"><ele>127.0</ele><time>2026-03-29T10:07:27Z</time></trkpt><trkpt lat="45.37024826697537" lon="10.61066729875278"><ele>127.25</ele><time>2026-03-29T10:07:28Z</time></trkpt><trkpt lat="45.3703101530891" lon="10.610881247950468"><ele>127.5</ele><time>2026-03-29T10:07:29Z</time></trkpt><trkpt lat="45.37035443058257" lon="10.61106432144361"><ele>127.75</ele><time>2026-03-29T10:07:30Z</time></trkpt><trkpt lat="45.370393206950254" lon="10.611222091780915"><ele>128.0</ele><time>2026-03-29T10:07:31Z</time></trkpt><trkpt lat="45.370427840691725" lon="10.611378868354409"><ele>127.75</ele><time>2026-03-29T10:07:32Z</time></trkpt><trkpt lat="45.37046572923557" lon="10.611528419666426"><ele>127.5</ele><time>2026-03-29T10:07:33Z</time></trkpt><trkpt lat="45.370504301268916" lon="10.61170303386749"><ele>127.25</ele><time>2026-03-29T10:07:34Z</time></trkpt><trkpt lat="45.370533739023365" lon="10.611864059743112"><ele>127.0</ele><time>2026-03-29T10:07:35Z</time></trkpt><trkpt lat="45.370523654520234" lon="10.611996563934131"><ele>125.25</ele><time>2026-03-29T10:07:36Z</time></trkpt><trkpt lat="45.37057579720186" lon="10.612164005759642"><ele>123.5</ele><time>2026-03-29T10:07:37Z</time></trkpt><trkpt lat="45.3705621760729" lon="10.612350059256418"><ele>121.75</ele><time>2026-03-29T10:07:38Z</time></trkpt><trkpt lat="45.37054923260973" lon="10.61254113673211"><ele>120.0</ele><time>2026-03-29T10:07:39Z</time></trkpt><trkpt lat="45.37055289973556" lon="10.612709092911668"><ele>118.75</ele><time>2026-03-29T10:07:40Z</time></trkpt><trkpt lat="45.37056615925216" lon="10.61284624241914"><ele>117.5</ele><time>2026-03-29T10:07:41Z</time></trkpt><trkpt lat="45.37058300015911" lon="10.612976162054222"><ele>116.25</ele><time>2026-03-29T10:07:42Z</time></trkpt><trkpt lat="45.37059944744182" lon="10.613108270477719"><ele>115.0</ele><time>2026-03-29T10:07:43Z</time></trkpt><trkpt lat="45.37081547305949" lon="10.613175787166734"><ele>115.0</ele><time>2026-03-29T10:07:44Z</time></trkpt><trkpt lat="45.37095711837605" lon="10.613270552898511"><ele>115.0</ele><time>2026-03-29T10:07:45Z</time></trkpt><trkpt lat="45.371101196480325" lon="10.61337569783415"><ele>115.0</ele><time>2026-03-29T10:07:46Z</time></trkpt><trkpt lat="45.37122712993136" lon="10.613479150786675"><ele>115.0</ele><time>2026-03-29T10:07:47Z</time></trkpt><trkpt lat="45.37134813419786" lon="10.613582043895004"><ele>115.0</ele><time>2026-03-29T10:07:48Z</time></trkpt><trkpt lat="45.37146836477015" lon="10.613679328490244"><ele>115.0</ele><time>2026-03-29T10:07:49Z</time></trkpt><trkpt lat="45.371589900115076" lon="10.613775326377787"><ele>115.0</ele><time>2026-03-29T10:07:50Z</time></trkpt><trkpt lat="45.371709081261024" lon="10.613873319251944"><ele>114.75</ele><time>2026-03-29T10:07:51Z</time></trkpt><trkpt lat="45.371830098423345" lon="10.613973802538771"><ele>114.5</ele><time>2026-03-29T10:07:52Z</time></trkpt><trkpt lat="45.371958217337486" lon="10.614076986144175"><ele>114.25</ele><time>2026-03-29T10:07:53Z</time></trkpt><trkpt lat="45.37209106103068" lon="10.614182862350571"><ele>114.0</ele><time>2026-03-29T10:07:54Z</time></trkpt><trkpt lat="45.37222404550695" lon="10.61428419222734"><ele>113.66666666666666</ele><time>2026-03-29T10:07:55Z</time></trkpt><trkpt lat="45.372362351494644" lon="10.61436410027556"><ele>113.33333333333333</ele><time>2026-03-29T10:07:56Z</time></trkpt><trkpt lat="45.37251365945393" lon="10.61440360521986"><ele>113.0</ele><time>2026-03-29T10:07:57Z</time></trkpt><trkpt lat="45.37266778787938" lon="10.614406024350908"><ele>113.0</ele><time>2026-03-29T10:07:58Z</time></trkpt><trkpt lat="45.37281572267864" lon="10.614391454482858"><ele>113.0</ele><time>2026-03-29T10:07:59Z</time></trkpt><trkpt lat="45.37296612138969" lon="10.61438362332275"><ele>113.0</ele><time>2026-03-29T10:08:00Z</time></trkpt><trkpt lat="45.373116667242535" lon="10.614386045412866"><ele>113.0</ele><time>2026-03-29T10:08:01Z</time></trkpt><trkpt lat="45.37327268784204" lon="10.61440866692023"><ele>113.0</ele><time>2026-03-29T10:08:02Z</time></trkpt><trkpt lat="45.37343141885672" lon="10.614454971682841"><ele>113.0</ele><time>2026-03-29T10:08:03Z</time></trkpt><trkpt lat="45.373595014566384" lon="10.614532889786826"><ele>113.0</ele><time>2026-03-29T10:08:04Z</time></trkpt><trkpt lat="45.373779599779255" lon="10.614654498908001"><ele>113.5</ele><time>2026-03-29T10:08:05Z</time></trkpt><trkpt lat="45.373975052546626" lon="10.61481691930125"><ele>114.0</ele><time>2026-03-29T10:08:06Z</time></trkpt><trkpt lat="45.37417188439031" lon="10.61499919314134"><ele>114.0</ele><time>2026-03-29T10:08:07Z</time></trkpt><trkpt lat="45.37437814482075" lon="10.615174327024071"><ele>114.0</ele><time>2026-03-29T10:08:08Z</time></trkpt><trkpt lat="45.3745995179284" lon="10.61534794111631"><ele>114.5</ele><time>2026-03-29T10:08:09Z</time></trkpt><trkpt lat="45.37481725421747" lon="10.615522419163327"><ele>115.0</ele><time>2026-03-29T10:08:10Z</time></trkpt><trkpt lat="45.37501868720156" lon="10.615689411376273"><ele>115.0</ele><time>2026-03-29T10:08:11Z</time></trkpt><trkpt lat="45.37521083847596" lon="10.615851439373387"><ele>115.0</ele><time>2026-03-29T10:08:12Z</time></trkpt><trkpt lat="45.37538716106797" lon="10.616000715078707"><ele>115.0</ele><time>2026-03-29T10:08:13Z</time></trkpt><trkpt lat="45.375538453717645" lon="10.61613204764734"><ele>115.5</ele><time>2026-03-29T10:08:14Z</time></trkpt><trkpt lat="45.3756633134509" lon="10.616241525196171"><ele>116.0</ele><time>2026-03-29T10:08:15Z</time></trkpt><trkpt lat="45.37576236464386" lon="10.61632704534073"><ele>116.5</ele><time>2026-03-29T10:08:16Z</time></trkpt><trkpt lat="45.37583033949188" lon="10.61640291954893"><ele>117.0</ele><time>2026-03-29T10:08:17Z</time></trkpt><trkpt lat="45.37589768892876" lon="10.616514077736696"><ele>117.0</ele><time>2026-03-29T10:08:19Z</time></trkpt><trkpt lat="45.37599283932153" lon="10.616476407650055"><ele>117.0</ele><time>2026-03-29T10:08:20Z</time></trkpt><trkpt lat="45.37610749666332" lon="10.61642615786457"><ele>117.0</ele><time>2026-03-29T10:08:21Z</time></trkpt><trkpt lat="45.37624550339458" lon="10.616352514609106"><ele>117.0</ele><time>2026-03-29T10:08:22Z</time></trkpt><trkpt lat="45.37638652941606" lon="10.616288647525844"><ele>117.5</ele><time>2026-03-29T10:08:23Z</time></trkpt><trkpt lat="45.37651379798576" lon="10.616264004149722"><ele>118.0</ele><time>2026-03-29T10:08:24Z</time></trkpt><trkpt lat="45.37661982441343" lon="10.616206443206416"><ele>118.5</ele><time>2026-03-29T10:08:25Z</time></trkpt><trkpt lat="45.376746827417804" lon="10.616194593054548"><ele>119.0</ele><time>2026-03-29T10:08:26Z</time></trkpt><trkpt lat="45.376882594040055" lon="10.616210526372152"><ele>119.0</ele><time>2026-03-29T10:08:27Z</time></trkpt><trkpt lat="45.37701586585395" lon="10.616248901404031"><ele>119.0</ele><time>2026-03-29T10:08:28Z</time></trkpt><trkpt lat="45.3771550683581" lon="10.616294080021756"><ele>119.0</ele><time>2026-03-29T10:08:29Z</time></trkpt><trkpt lat="45.377285153902655" lon="10.616338006822897"><ele>119.0</ele><time>2026-03-29T10:08:30Z</time></trkpt><trkpt lat="45.37741772238806" lon="10.616380036186106"><ele>119.0</ele><time>2026-03-29T10:08:31Z</time></trkpt><trkpt lat="45.3775409762355" lon="10.616431403537867"><ele>119.0</ele><time>2026-03-29T10:08:32Z</time></trkpt><trkpt lat="45.37766538548289" lon="10.616478090680367"><ele>119.0</ele><time>2026-03-29T10:08:33Z</time></trkpt><trkpt lat="45.37778105385183" lon="10.616524850181593"><ele>119.0</ele><time>2026-03-29T10:08:34Z</time></trkpt><trkpt lat="45.37789236057294" lon="10.616560919597907"><ele>119.0</ele><time>2026-03-29T10:08:35Z</time></trkpt><trkpt lat="45.37800198647623" lon="10.616539949646553"><ele>119.0</ele><time>2026-03-29T10:08:36Z</time></trkpt><trkpt lat="45.378129106014704" lon="10.616448564099713"><ele>119.0</ele><time>2026-03-29T10:08:37Z</time></trkpt><trkpt lat="45.37823789897986" lon="10.616311173986734"><ele>119.0</ele><time>2026-03-29T10:08:38Z</time></trkpt><trkpt lat="45.3783405955894" lon="10.616142372292865"><ele>116.66666666666666</ele><time>2026-03-29T10:08:39Z</time></trkpt><trkpt lat="45.37844073303855" lon="10.615975422441148"><ele>114.33333333333334</ele><time>2026-03-29T10:08:40Z</time></trkpt><trkpt lat="45.37854641817635" lon="10.615805811979163"><ele>112.0</ele><time>2026-03-29T10:08:41Z</time></trkpt><trkpt lat="45.378660662447686" lon="10.615667032817386"><ele>112.0</ele><time>2026-03-29T10:08:42Z</time></trkpt><trkpt lat="45.37874750700241" lon="10.615553550453193"><ele>111.99999999999999</ele><time>2026-03-29T10:08:43Z</time></trkpt><trkpt lat="45.378821220933766" lon="10.615478143470702"><ele>111.99999999999999</ele><time>2026-03-29T10:08:44Z</time></trkpt><trkpt lat="45.37889992896563" lon="10.615434178616194"><ele>112.0</ele><time>2026-03-29T10:08:45Z</time></trkpt><trkpt lat="45.379005852569534" lon="10.615457811336684"><ele>112.0</ele><time>2026-03-29T10:08:46Z</time></trkpt><trkpt lat="45.37910794520705" lon="10.615529171708603"><ele>111.75</ele><time>2026-03-29T10:08:47Z</time></trkpt><trkpt lat="45.37920177865771" lon="10.615644636536137"><ele>111.5</ele><time>2026-03-29T10:08:48Z</time></trkpt><trkpt lat="45.37929031570673" lon="10.615770865585201"><ele>111.25</ele><time>2026-03-29T10:08:49Z</time></trkpt><trkpt lat="45.37938051518345" lon="10.615861564084724"><ele>111.0</ele><time>2026-03-29T10:08:50Z</time></trkpt><trkpt lat="45.379470814254425" lon="10.615883045012872"><ele>111.0</ele><time>2026-03-29T10:08:51Z</time></trkpt><trkpt lat="45.37955471926653" lon="10.615846427169858"><ele>111.0</ele><time>2026-03-29T10:08:52Z</time></trkpt><trkpt lat="45.37963936206007" lon="10.615766938744315"><ele>111.0</ele><time>2026-03-29T10:08:53Z</time></trkpt><trkpt lat="45.379735105407796" lon="10.615660179906017"><ele>111.0</ele><time>2026-03-29T10:08:54Z</time></trkpt><trkpt lat="45.37982981966915" lon="10.615550540579607"><ele>111.0</ele><time>2026-03-29T10:08:55Z</time></trkpt><trkpt lat="45.37991957574242" lon="10.615467481145108"><ele>109.5</ele><time>2026-03-29T10:08:55.999Z</time></trkpt><trkpt lat="45.38001692114371" lon="10.615425835131921"><ele>108.0</ele><time>2026-03-29T10:08:56.999Z</time></trkpt><trkpt lat="45.38013288686676" lon="10.615455041007491"><ele>106.5</ele><time>2026-03-29T10:08:57.999Z</time></trkpt><trkpt lat="45.380256502485416" lon="10.615521612891083"><ele>105.0</ele><time>2026-03-29T10:08:58.999Z</time></trkpt><trkpt lat="45.38038429745751" lon="10.615597281280985"><ele>104.0</ele><time>2026-03-29T10:09:00Z</time></trkpt><trkpt lat="45.380526159260256" lon="10.61562503438402"><ele>103.0</ele><time>2026-03-29T10:09:01Z</time></trkpt><trkpt lat="45.3806803045045" lon="10.615606878205885"><ele>102.0</ele><time>2026-03-29T10:09:02Z</time></trkpt><trkpt lat="45.380839497341604" lon="10.61555144604468"><ele>102.0</ele><time>2026-03-29T10:09:03Z</time></trkpt><trkpt lat="45.38099410680074" lon="10.615459086923325"><ele>102.0</ele><time>2026-03-29T10:09:04Z</time></trkpt><trkpt lat="45.38114153725841" lon="10.615354329746564"><ele>102.0</ele><time>2026-03-29T10:09:05Z</time></trkpt><trkpt lat="45.381292090207786" lon="10.615274349253463"><ele>102.33333333333334</ele><time>2026-03-29T10:09:06Z</time></trkpt><trkpt lat="45.381413538742194" lon="10.61513266390238"><ele>102.66666666666667</ele><time>2026-03-29T10:09:07Z</time></trkpt><trkpt lat="45.38153587821943" lon="10.61500015180372"><ele>103.0</ele><time>2026-03-29T10:09:08Z</time></trkpt><trkpt lat="45.3816352331868" lon="10.614857811980468"><ele>103.0</ele><time>2026-03-29T10:09:09Z</time></trkpt><trkpt lat="45.38172359306481" lon="10.614749383491029"><ele>103.0</ele><time>2026-03-29T10:09:10Z</time></trkpt><trkpt lat="45.38178495552671" lon="10.614666591810032"><ele>103.0</ele><time>2026-03-29T10:09:11Z</time></trkpt><trkpt lat="45.3818451012669" lon="10.61461408138889"><ele>103.0</ele><time>2026-03-29T10:09:13Z</time></trkpt><trkpt lat="45.38196075797324" lon="10.6147525496493"><ele>103.0</ele><time>2026-03-29T10:09:16Z</time></trkpt><trkpt lat="45.381974921365" lon="10.614841177422555"><ele>103.0</ele><time>2026-03-29T10:09:17Z</time></trkpt><trkpt lat="45.38196781755543" lon="10.614958268068921"><ele>103.0</ele><time>2026-03-29T10:09:18Z</time></trkpt><trkpt lat="45.38195815999486" lon="10.61513768889403"><ele>103.0</ele><time>2026-03-29T10:09:19Z</time></trkpt><trkpt lat="45.38194497374575" lon="10.615357667816442"><ele>103.0</ele><time>2026-03-29T10:09:20Z</time></trkpt><trkpt lat="45.381935076882165" lon="10.61558598272297"><ele>103.0</ele><time>2026-03-29T10:09:21Z</time></trkpt><trkpt lat="45.38192598471655" lon="10.615839079602805"><ele>103.0</ele><time>2026-03-29T10:09:22Z</time></trkpt><trkpt lat="45.38191865183453" lon="10.61611641344275"><ele>103.0</ele><time>2026-03-29T10:09:23Z</time></trkpt><trkpt lat="45.381913846327976" lon="10.616379440921751"><ele>103.0</ele><time>2026-03-29T10:09:24Z</time></trkpt><trkpt lat="45.38191105491978" lon="10.616617707646798"><ele>103.0</ele><time>2026-03-29T10:09:25Z</time></trkpt><trkpt lat="45.38190642091567" lon="10.616835085694904"><ele>103.0</ele><time>2026-03-29T10:09:26Z</time></trkpt><trkpt lat="45.3818994432498" lon="10.617048859289294"><ele>102.25</ele><time>2026-03-29T10:09:27Z</time></trkpt><trkpt lat="45.38189403948175" lon="10.61724710115954"><ele>101.5</ele><time>2026-03-29T10:09:28Z</time></trkpt><trkpt lat="45.38189867393614" lon="10.617443959122784"><ele>100.75</ele><time>2026-03-29T10:09:29Z</time></trkpt><trkpt lat="45.38190107967275" lon="10.617619395040489"><ele>100.0</ele><time>2026-03-29T10:09:30Z</time></trkpt><trkpt lat="45.38191177910186" lon="10.617807044163216"><ele>100.5</ele><time>2026-03-29T10:09:31Z</time></trkpt><trkpt lat="45.3819392649085" lon="10.617995020501667"><ele>101.0</ele><time>2026-03-29T10:09:32Z</time></trkpt><trkpt lat="45.38197842267806" lon="10.618163704964077"><ele>101.5</ele><time>2026-03-29T10:09:33Z</time></trkpt><trkpt lat="45.38200069262806" lon="10.618336657476268"><ele>102.0</ele><time>2026-03-29T10:09:34Z</time></trkpt><trkpt lat="45.38200794723151" lon="10.618523535520904"><ele>102.75</ele><time>2026-03-29T10:09:35Z</time></trkpt><trkpt lat="45.38201826331435" lon="10.618701052148747"><ele>103.5</ele><time>2026-03-29T10:09:36Z</time></trkpt><trkpt lat="45.38205616522364" lon="10.618860790400696"><ele>104.25</ele><time>2026-03-29T10:09:37Z</time></trkpt><trkpt lat="45.38210188846178" lon="10.619044421062428"><ele>105.0</ele><time>2026-03-29T10:09:38Z</time></trkpt><trkpt lat="45.3821255544864" lon="10.619194619821025"><ele>105.0</ele><time>2026-03-29T10:09:39Z</time></trkpt><trkpt lat="45.38212373735193" lon="10.619300879203077"><ele>105.0</ele><time>2026-03-29T10:09:40Z</time></trkpt><trkpt lat="45.38211556494376" lon="10.619426877339263"><ele>105.0</ele><time>2026-03-29T10:09:41Z</time></trkpt><trkpt lat="45.382075498974025" lon="10.619574759336615"><ele>105.0</ele><time>2026-03-29T10:09:42Z</time></trkpt><trkpt lat="45.38203181006955" lon="10.619744719750521"><ele>105.0</ele><time>2026-03-29T10:09:43Z</time></trkpt><trkpt lat="45.38197695278267" lon="10.6199258777232"><ele>104.75</ele><time>2026-03-29T10:09:44Z</time></trkpt><trkpt lat="45.38192515332247" lon="10.620088316821853"><ele>104.5</ele><time>2026-03-29T10:09:45Z</time></trkpt><trkpt lat="45.38187153050802" lon="10.620271447048282"><ele>104.25</ele><time>2026-03-29T10:09:46Z</time></trkpt><trkpt lat="45.38181771324898" lon="10.620421603462226"><ele>104.0</ele><time>2026-03-29T10:09:47Z</time></trkpt><trkpt lat="45.381778593403254" lon="10.62052948779965"><ele>103.25</ele><time>2026-03-29T10:09:48Z</time></trkpt><trkpt lat="45.38175696601347" lon="10.620660944373897"><ele>102.5</ele><time>2026-03-29T10:09:49Z</time></trkpt><trkpt lat="45.38174397209142" lon="10.620846164301696"><ele>101.75</ele><time>2026-03-29T10:09:50Z</time></trkpt><trkpt lat="45.38174228699982" lon="10.621057595272507"><ele>101.0</ele><time>2026-03-29T10:09:51Z</time></trkpt><trkpt lat="45.381744635775" lon="10.621289957467551"><ele>100.66666666666666</ele><time>2026-03-29T10:09:52Z</time></trkpt><trkpt lat="45.38174674929932" lon="10.621519602465316"><ele>100.33333333333334</ele><time>2026-03-29T10:09:53Z</time></trkpt><trkpt lat="45.381752586578585" lon="10.621754467965948"><ele>100.0</ele><time>2026-03-29T10:09:54Z</time></trkpt><trkpt lat="45.38173740612645" lon="10.621986400567717"><ele>100.0</ele><time>2026-03-29T10:09:55Z</time></trkpt><trkpt lat="45.38172280028899" lon="10.622215799076166"><ele>100.0</ele><time>2026-03-29T10:09:56Z</time></trkpt><trkpt lat="45.38170915443389" lon="10.622452246656435"><ele>100.0</ele><time>2026-03-29T10:09:57Z</time></trkpt><trkpt lat="45.38169332444316" lon="10.622642539535933"><ele>100.0</ele><time>2026-03-29T10:09:58Z</time></trkpt><trkpt lat="45.38167307056471" lon="10.62282528267345"><ele>100.0</ele><time>2026-03-29T10:09:59Z</time></trkpt><trkpt lat="45.38165634801381" lon="10.622986208007951"><ele>100.0</ele><time>2026-03-29T10:10:00Z</time></trkpt><trkpt lat="45.38164492520942" lon="10.623132966156094"><ele>100.0</ele><time>2026-03-29T10:10:01Z</time></trkpt><trkpt lat="45.38165765994419" lon="10.623267749996344"><ele>100.0</ele><time>2026-03-29T10:10:02Z</time></trkpt><trkpt lat="45.38167854880486" lon="10.62341919865504"><ele>100.0</ele><time>2026-03-29T10:10:03Z</time></trkpt><trkpt lat="45.381687466220946" lon="10.623611548119165"><ele>100.0</ele><time>2026-03-29T10:10:04Z</time></trkpt><trkpt lat="45.381671457397545" lon="10.623841633264533"><ele>100.0</ele><time>2026-03-29T10:10:05Z</time></trkpt><trkpt lat="45.38164382364268" lon="10.624099347751532"><ele>100.33333333333334</ele><time>2026-03-29T10:10:06Z</time></trkpt><trkpt lat="45.38161668109811" lon="10.624358495670922"><ele>100.66666666666666</ele><time>2026-03-29T10:10:07Z</time></trkpt><trkpt lat="45.38159915548045" lon="10.624609259745581"><ele>101.0</ele><time>2026-03-29T10:10:08Z</time></trkpt><trkpt lat="45.38159373584468" lon="10.624850241403033"><ele>100.66666666666666</ele><time>2026-03-29T10:10:09Z</time></trkpt><trkpt lat="45.3815813744235" lon="10.625105811616251"><ele>100.33333333333334</ele><time>2026-03-29T10:10:10Z</time></trkpt><trkpt lat="45.381550377437335" lon="10.625379833366692"><ele>100.0</ele><time>2026-03-29T10:10:11Z</time></trkpt><trkpt lat="45.38151253595059" lon="10.625636358604586"><ele>100.0</ele><time>2026-03-29T10:10:12Z</time></trkpt><trkpt lat="45.38147834555321" lon="10.625892028174746"><ele>100.0</ele><time>2026-03-29T10:10:13Z</time></trkpt><trkpt lat="45.38145269320245" lon="10.62611833123446"><ele>100.0</ele><time>2026-03-29T10:10:14Z</time></trkpt><trkpt lat="45.38142445666671" lon="10.626317382675929"><ele>100.2</ele><time>2026-03-29T10:10:15Z</time></trkpt><trkpt lat="45.38139436454088" lon="10.626485655355342"><ele>100.4</ele><time>2026-03-29T10:10:16Z</time></trkpt><trkpt lat="45.381375923657075" lon="10.626639007636857"><ele>100.6</ele><time>2026-03-29T10:10:17Z</time></trkpt><trkpt lat="45.3813566284069" lon="10.626789149409845"><ele>100.8</ele><time>2026-03-29T10:10:18Z</time></trkpt><trkpt lat="45.38134710414449" lon="10.626926014411357"><ele>101.0</ele><time>2026-03-29T10:10:19Z</time></trkpt><trkpt lat="45.38133034573201" lon="10.627046122293121"><ele>101.99999999999999</ele><time>2026-03-29T10:10:20Z</time></trkpt><trkpt lat="45.38130938765529" lon="10.627154769828419"><ele>103.0</ele><time>2026-03-29T10:10:21Z</time></trkpt><trkpt lat="45.38130395513878" lon="10.627273477516733"><ele>104.0</ele><time>2026-03-29T10:10:22Z</time></trkpt><trkpt lat="45.38129412035227" lon="10.62738940610042"><ele>105.0</ele><time>2026-03-29T10:10:23Z</time></trkpt><trkpt lat="45.38126622981546" lon="10.627509688905967"><ele>105.99999999999999</ele><time>2026-03-29T10:10:24Z</time></trkpt><trkpt lat="45.38123704742797" lon="10.627638033204324"><ele>107.0</ele><time>2026-03-29T10:10:25Z</time></trkpt><trkpt lat="45.38118400143496" lon="10.62776087117555"><ele>105.6</ele><time>2026-03-29T10:10:27Z</time></trkpt><trkpt lat="45.381099759591706" lon="10.627840894703551"><ele>104.19999999999999</ele><time>2026-03-29T10:10:29Z</time></trkpt><trkpt lat="45.381021534263006" lon="10.627887050686818"><ele>102.8</ele><time>2026-03-29T10:10:30Z</time></trkpt><trkpt lat="45.38091590413873" lon="10.627942186663516"><ele>101.4</ele><time>2026-03-29T10:10:31Z</time></trkpt><trkpt lat="45.380775850123186" lon="10.627987370536342"><ele>100.0</ele><time>2026-03-29T10:10:32Z</time></trkpt><trkpt lat="45.380629413129526" lon="10.62805484813798"><ele>102.0</ele><time>2026-03-29T10:10:33Z</time></trkpt><trkpt lat="45.38048438123231" lon="10.628135831536193"><ele>104.0</ele><time>2026-03-29T10:10:34Z</time></trkpt><trkpt lat="45.38035109913294" lon="10.628232395682494"><ele>106.0</ele><time>2026-03-29T10:10:35Z</time></trkpt><trkpt lat="45.38023170396013" lon="10.628303691113864"><ele>108.0</ele><time>2026-03-29T10:10:36Z</time></trkpt><trkpt lat="45.38012655597132" lon="10.628379111710563"><ele>108.0</ele><time>2026-03-29T10:10:37Z</time></trkpt><trkpt lat="45.38006597487437" lon="10.628427645097378"><ele>108.0</ele><time>2026-03-29T10:10:38Z</time></trkpt><trkpt lat="45.3799985954422" lon="10.628478722815803"><ele>108.0</ele><time>2026-03-29T10:10:39Z</time></trkpt><trkpt lat="45.379921207239576" lon="10.62851159325173"><ele>108.0</ele><time>2026-03-29T10:10:40Z</time></trkpt><trkpt lat="45.37982485271829" lon="10.628528018493071"><ele>108.0</ele><time>2026-03-29T10:10:41Z</time></trkpt><trkpt lat="45.37972624613565" lon="10.628501254934859"><ele>108.0</ele><time>2026-03-29T10:10:42Z</time></trkpt><trkpt lat="45.379630248465475" lon="10.628467327973768"><ele>108.33333333333333</ele><time>2026-03-29T10:10:43Z</time></trkpt><trkpt lat="45.379532073271385" lon="10.628426321559182"><ele>108.66666666666666</ele><time>2026-03-29T10:10:44Z</time></trkpt><trkpt lat="45.37945779588314" lon="10.628390355811002"><ele>109.0</ele><time>2026-03-29T10:10:45Z</time></trkpt><trkpt lat="45.37938427485363" lon="10.628364134031639"><ele>109.33333333333333</ele><time>2026-03-29T10:10:46Z</time></trkpt><trkpt lat="45.379296670770934" lon="10.62831834670446"><ele>109.66666666666666</ele><time>2026-03-29T10:10:48Z</time></trkpt><trkpt lat="45.379370996795785" lon="10.628351563815103"><ele>110.0</ele><time>2026-03-29T10:11:08Z</time></trkpt><trkpt lat="45.37944006627386" lon="10.628403497553474"><ele>109.99999999999999</ele><time>2026-03-29T10:11:10Z</time></trkpt><trkpt lat="45.379513253205026" lon="10.628433550179105"><ele>110.0</ele><time>2026-03-29T10:11:12Z</time></trkpt><trkpt lat="45.3795843196656" lon="10.628464116033756"><ele>110.0</ele><time>2026-03-29T10:11:14Z</time></trkpt><trkpt lat="45.37965361940233" lon="10.628463831825071"><ele>110.0</ele><time>2026-03-29T10:11:16Z</time></trkpt><trkpt lat="45.37973216807598" lon="10.628491404717165"><ele>110.0</ele><time>2026-03-29T10:11:19Z</time></trkpt><trkpt lat="45.37979962102236" lon="10.62851197740327"><ele>109.99999999999999</ele><time>2026-03-29T10:11:22Z</time></trkpt><trkpt lat="45.37987487692124" lon="10.628517472525786"><ele>110.0</ele><time>2026-03-29T10:11:24Z</time></trkpt><trkpt lat="45.37994742115858" lon="10.628502557867916"><ele>107.25</ele><time>2026-03-29T10:11:26Z</time></trkpt><trkpt lat="45.380071136646684" lon="10.628674023355194"><ele>104.5</ele><time>2026-03-29T10:11:29Z</time></trkpt><trkpt lat="45.38015349502541" lon="10.628721335833495"><ele>101.75</ele><time>2026-03-29T10:11:30Z</time></trkpt><trkpt lat="45.38022580240229" lon="10.628764192958453"><ele>99.0</ele><time>2026-03-29T10:11:31Z</time></trkpt><trkpt lat="45.38032162497986" lon="10.628875188062409"><ele>99.0</ele><time>2026-03-29T10:11:32Z</time></trkpt><trkpt lat="45.38045955413566" lon="10.628989417768627"><ele>99.0</ele><time>2026-03-29T10:11:33Z</time></trkpt><trkpt lat="45.380590636486374" lon="10.629101265910515"><ele>99.0</ele><time>2026-03-29T10:11:34Z</time></trkpt><trkpt lat="45.38073861538338" lon="10.62923238331794"><ele>98.66666666666666</ele><time>2026-03-29T10:11:35Z</time></trkpt><trkpt lat="45.38090967503018" lon="10.629387070853161"><ele>98.33333333333333</ele><time>2026-03-29T10:11:36Z</time></trkpt><trkpt lat="45.38108587313496" lon="10.629546222331838"><ele>98.0</ele><time>2026-03-29T10:11:37Z</time></trkpt><trkpt lat="45.381232745344846" lon="10.62967945354695"><ele>99.0</ele><time>2026-03-29T10:11:38Z</time></trkpt><trkpt lat="45.38139026770482" lon="10.629824976766644"><ele>100.0</ele><time>2026-03-29T10:11:39Z</time></trkpt><trkpt lat="45.3815420383023" lon="10.629967194672545"><ele>101.0</ele><time>2026-03-29T10:11:40Z</time></trkpt><trkpt lat="45.38167881783938" lon="10.630093693881037"><ele>101.0</ele><time>2026-03-29T10:11:41Z</time></trkpt><trkpt lat="45.381810695138576" lon="10.630221312658284"><ele>101.0</ele><time>2026-03-29T10:11:42Z</time></trkpt><trkpt lat="45.3819520559895" lon="10.630355979718589"><ele>101.0</ele><time>2026-03-29T10:11:43Z</time></trkpt><trkpt lat="45.38209822242105" lon="10.630475788941363"><ele>102.25</ele><time>2026-03-29T10:11:44Z</time></trkpt><trkpt lat="45.38223109751495" lon="10.63059141505636"><ele>103.5</ele><time>2026-03-29T10:11:45Z</time></trkpt><trkpt lat="45.3823383790748" lon="10.630684332821717"><ele>104.75</ele><time>2026-03-29T10:11:46Z</time></trkpt><trkpt lat="45.38242751818266" lon="10.630759981255398"><ele>106.0</ele><time>2026-03-29T10:11:47Z</time></trkpt><trkpt lat="45.38248223448705" lon="10.630843366419164"><ele>106.0</ele><time>2026-03-29T10:11:48Z</time></trkpt><trkpt lat="45.38252380715538" lon="10.630984709801787"><ele>106.0</ele><time>2026-03-29T10:11:50Z</time></trkpt><trkpt lat="45.3825471144902" lon="10.631078019865093"><ele>106.0</ele><time>2026-03-29T10:11:51Z</time></trkpt><trkpt lat="45.38259731991582" lon="10.631235627466426"><ele>106.0</ele><time>2026-03-29T10:11:53Z</time></trkpt><trkpt lat="45.382382930536394" lon="10.631503732348802"><ele>105.33333333333334</ele><time>2026-03-29T10:11:54Z</time></trkpt><trkpt lat="45.38230599889093" lon="10.631743892576376"><ele>104.66666666666666</ele><time>2026-03-29T10:11:55Z</time></trkpt><trkpt lat="45.38221651446402" lon="10.631983619085723"><ele>104.0</ele><time>2026-03-29T10:11:56Z</time></trkpt><trkpt lat="45.3821301556376" lon="10.632233760914811"><ele>102.33333333333333</ele><time>2026-03-29T10:11:57Z</time></trkpt><trkpt lat="45.3820518804418" lon="10.632462873455395"><ele>100.66666666666666</ele><time>2026-03-29T10:11:58Z</time></trkpt><trkpt lat="45.38197584931081" lon="10.632669748664899"><ele>99.0</ele><time>2026-03-29T10:11:59Z</time></trkpt><trkpt lat="45.381897622900205" lon="10.63289071954438"><ele>99.0</ele><time>2026-03-29T10:12:00Z</time></trkpt><trkpt lat="45.381826581076275" lon="10.6330853411019"><ele>99.0</ele><time>2026-03-29T10:12:01Z</time></trkpt><trkpt lat="45.38175442041665" lon="10.633271877877243"><ele>99.0</ele><time>2026-03-29T10:12:02Z</time></trkpt><trkpt lat="45.381691332664516" lon="10.63345182421432"><ele>99.0</ele><time>2026-03-29T10:12:03Z</time></trkpt><trkpt lat="45.381627040985784" lon="10.633642276736417"><ele>100.0</ele><time>2026-03-29T10:12:04Z</time></trkpt><trkpt lat="45.38156627662013" lon="10.63380936895106"><ele>101.0</ele><time>2026-03-29T10:12:05Z</time></trkpt><trkpt lat="45.38150348868132" lon="10.633999199627743"><ele>102.0</ele><time>2026-03-29T10:12:06Z</time></trkpt><trkpt lat="45.38143453466644" lon="10.634201504906704"><ele>103.0</ele><time>2026-03-29T10:12:07Z</time></trkpt><trkpt lat="45.38135418675113" lon="10.634380475502107"><ele>102.25</ele><time>2026-03-29T10:12:08Z</time></trkpt><trkpt lat="45.38126029467283" lon="10.6345510481294"><ele>101.5</ele><time>2026-03-29T10:12:09Z</time></trkpt><trkpt lat="45.381169786569835" lon="10.634687539164641"><ele>100.75</ele><time>2026-03-29T10:12:10Z</time></trkpt><trkpt lat="45.38106894182819" lon="10.634822921454488"><ele>100.0</ele><time>2026-03-29T10:12:11Z</time></trkpt><trkpt lat="45.38097902777668" lon="10.634931266014783"><ele>100.0</ele><time>2026-03-29T10:12:12Z</time></trkpt><trkpt lat="45.38088610727951" lon="10.635059741295832"><ele>100.0</ele><time>2026-03-29T10:12:13Z</time></trkpt><trkpt lat="45.38079643479938" lon="10.63518913670666"><ele>100.0</ele><time>2026-03-29T10:12:14Z</time></trkpt><trkpt lat="45.380723711169786" lon="10.635327285053334"><ele>100.0</ele><time>2026-03-29T10:12:15Z</time></trkpt><trkpt lat="45.38065041738569" lon="10.63548311581892"><ele>101.25</ele><time>2026-03-29T10:12:16Z</time></trkpt><trkpt lat="45.38058499983954" lon="10.635643954479077"><ele>102.5</ele><time>2026-03-29T10:12:17Z</time></trkpt><trkpt lat="45.3805280845873" lon="10.635798872887147"><ele>103.75</ele><time>2026-03-29T10:12:18Z</time></trkpt><trkpt lat="45.380474078586104" lon="10.635966957224623"><ele>105.0</ele><time>2026-03-29T10:12:19Z</time></trkpt><trkpt lat="45.38044654826799" lon="10.636113297634953"><ele>104.6</ele><time>2026-03-29T10:12:20Z</time></trkpt><trkpt lat="45.38042939747909" lon="10.636244404058587"><ele>104.2</ele><time>2026-03-29T10:12:21Z</time></trkpt><trkpt lat="45.3804299390017" lon="10.636365673001475"><ele>103.80000000000001</ele><time>2026-03-29T10:12:22Z</time></trkpt><trkpt lat="45.380443822008104" lon="10.636516246184257"><ele>103.4</ele><time>2026-03-29T10:12:23Z</time></trkpt><trkpt lat="45.38046114316946" lon="10.636657192359946"><ele>103.0</ele><time>2026-03-29T10:12:24Z</time></trkpt><trkpt lat="45.38050014805369" lon="10.636819527915511"><ele>103.0</ele><time>2026-03-29T10:12:25Z</time></trkpt><trkpt lat="45.380550975691996" lon="10.636988010925998"><ele>103.0</ele><time>2026-03-29T10:12:26Z</time></trkpt><trkpt lat="45.38060961077702" lon="10.63718330915051"><ele>103.0</ele><time>2026-03-29T10:12:27Z</time></trkpt><trkpt lat="45.38065526762543" lon="10.637340954160122"><ele>103.0</ele><time>2026-03-29T10:12:28Z</time></trkpt><trkpt lat="45.38068087382209" lon="10.637428207385186"><ele>103.0</ele><time>2026-03-29T10:12:29Z</time></trkpt><trkpt lat="45.380679663382786" lon="10.63756038263203"><ele>103.0</ele><time>2026-03-29T10:12:31Z</time></trkpt><trkpt lat="45.38074907238505" lon="10.637664328663579"><ele>103.0</ele><time>2026-03-29T10:12:35Z</time></trkpt><trkpt lat="45.38085746696138" lon="10.637705209420755"><ele>103.0</ele><time>2026-03-29T10:12:36Z</time></trkpt><trkpt lat="45.380957954707796" lon="10.63776114700705"><ele>103.0</ele><time>2026-03-29T10:12:37Z</time></trkpt><trkpt lat="45.38105070598767" lon="10.637873392052963"><ele>103.2</ele><time>2026-03-29T10:12:38Z</time></trkpt><trkpt lat="45.38114092839346" lon="10.637994419236387"><ele>103.4</ele><time>2026-03-29T10:12:39Z</time></trkpt><trkpt lat="45.38121812603189" lon="10.63809095449161"><ele>103.60000000000001</ele><time>2026-03-29T10:12:40Z</time></trkpt><trkpt lat="45.38129139891573" lon="10.638181860760598"><ele>103.80000000000001</ele><time>2026-03-29T10:12:41Z</time></trkpt><trkpt lat="45.38136937825644" lon="10.638284909479417"><ele>104.0</ele><time>2026-03-29T10:12:42Z</time></trkpt><trkpt lat="45.38144583539053" lon="10.638392818585858"><ele>104.0</ele><time>2026-03-29T10:12:43Z</time></trkpt><trkpt lat="45.38152138536965" lon="10.638496823701692"><ele>104.0</ele><time>2026-03-29T10:12:44Z</time></trkpt><trkpt lat="45.3816012927903" lon="10.63860419146152"><ele>104.0</ele><time>2026-03-29T10:12:45Z</time></trkpt><trkpt lat="45.38167895496705" lon="10.638717309169241"><ele>104.0</ele><time>2026-03-29T10:12:46Z</time></trkpt><trkpt lat="45.38175574057291" lon="10.638840590714887"><ele>104.0</ele><time>2026-03-29T10:12:47Z</time></trkpt><trkpt lat="45.38182848078338" lon="10.638965417882261"><ele>104.25</ele><time>2026-03-29T10:12:48Z</time></trkpt><trkpt lat="45.38190155590526" lon="10.63909623203392"><ele>104.5</ele><time>2026-03-29T10:12:49Z</time></trkpt><trkpt lat="45.38198021196867" lon="10.639231126398968"><ele>104.75</ele><time>2026-03-29T10:12:50Z</time></trkpt><trkpt lat="45.38207525076615" lon="10.639375689068045"><ele>105.0</ele><time>2026-03-29T10:12:51Z</time></trkpt><trkpt lat="45.382183254602275" lon="10.63953310603985"><ele>105.0</ele><time>2026-03-29T10:12:52Z</time></trkpt><trkpt lat="45.382293108505515" lon="10.639695231515644"><ele>105.0</ele><time>2026-03-29T10:12:53Z</time></trkpt><trkpt lat="45.38241114890633" lon="10.639853230672506"><ele>105.0</ele><time>2026-03-29T10:12:54Z</time></trkpt><trkpt lat="45.38254072645751" lon="10.640007630063156"><ele>105.0</ele><time>2026-03-29T10:12:55Z</time></trkpt><trkpt lat="45.38267551708111" lon="10.640144327810484"><ele>105.0</ele><time>2026-03-29T10:12:56Z</time></trkpt><trkpt lat="45.382822069079246" lon="10.64026581335089"><ele>105.0</ele><time>2026-03-29T10:12:57Z</time></trkpt><trkpt lat="45.382978277717854" lon="10.640371374102896"><ele>105.66666666666666</ele><time>2026-03-29T10:12:58Z</time></trkpt><trkpt lat="45.383134771645814" lon="10.640478177890133"><ele>106.33333333333333</ele><time>2026-03-29T10:12:59Z</time></trkpt><trkpt lat="45.38328791683906" lon="10.640586397490663"><ele>107.0</ele><time>2026-03-29T10:13:00Z</time></trkpt><trkpt lat="45.38343789394382" lon="10.640698539085875"><ele>107.0</ele><time>2026-03-29T10:13:01Z</time></trkpt><trkpt lat="45.38359253764038" lon="10.640809875772057"><ele>107.0</ele><time>2026-03-29T10:13:02Z</time></trkpt><trkpt lat="45.383745374123066" lon="10.64091783833835"><ele>107.0</ele><time>2026-03-29T10:13:03Z</time></trkpt><trkpt lat="45.3838971868327" lon="10.641017970818012"><ele>106.33333333333333</ele><time>2026-03-29T10:13:04Z</time></trkpt><trkpt lat="45.38405530842755" lon="10.641110782705118"><ele>105.66666666666666</ele><time>2026-03-29T10:13:05Z</time></trkpt><trkpt lat="45.384215344050816" lon="10.641198900168773"><ele>105.0</ele><time>2026-03-29T10:13:06Z</time></trkpt><trkpt lat="45.38437287586611" lon="10.641279608826009"><ele>105.0</ele><time>2026-03-29T10:13:07Z</time></trkpt><trkpt lat="45.38453461218978" lon="10.641360561900607"><ele>105.0</ele><time>2026-03-29T10:13:08Z</time></trkpt><trkpt lat="45.38470025381117" lon="10.641447426300543"><ele>105.0</ele><time>2026-03-29T10:13:09Z</time></trkpt><trkpt lat="45.38486196487225" lon="10.641537077839114"><ele>106.0</ele><time>2026-03-29T10:13:10Z</time></trkpt><trkpt lat="45.385025960913495" lon="10.64163096339224"><ele>107.0</ele><time>2026-03-29T10:13:11Z</time></trkpt><trkpt lat="45.38519543141098" lon="10.641721753640448"><ele>108.0</ele><time>2026-03-29T10:13:12Z</time></trkpt><trkpt lat="45.38537469343396" lon="10.641812899929175"><ele>107.66666666666666</ele><time>2026-03-29T10:13:13Z</time></trkpt><trkpt lat="45.38554582369442" lon="10.641907341699799"><ele>107.33333333333333</ele><time>2026-03-29T10:13:14Z</time></trkpt><trkpt lat="45.385705127653736" lon="10.641990906317515"><ele>107.0</ele><time>2026-03-29T10:13:15Z</time></trkpt><trkpt lat="45.38586545949523" lon="10.642072335521739"><ele>106.66666666666666</ele><time>2026-03-29T10:13:16Z</time></trkpt><trkpt lat="45.38603430120184" lon="10.642163697435535"><ele>106.33333333333334</ele><time>2026-03-29T10:13:17Z</time></trkpt><trkpt lat="45.38620626917653" lon="10.64225952472586"><ele>106.0</ele><time>2026-03-29T10:13:18Z</time></trkpt><trkpt lat="45.38638362477959" lon="10.642354864927418"><ele>106.0</ele><time>2026-03-29T10:13:19Z</time></trkpt><trkpt lat="45.38655853638273" lon="10.642447239960013"><ele>106.0</ele><time>2026-03-29T10:13:20Z</time></trkpt><trkpt lat="45.38674087827449" lon="10.642548759164569"><ele>106.0</ele><time>2026-03-29T10:13:21Z</time></trkpt><trkpt lat="45.38692295213299" lon="10.642647691324166"><ele>106.0</ele><time>2026-03-29T10:13:22Z</time></trkpt><trkpt lat="45.38710492981908" lon="10.642741600411433"><ele>106.0</ele><time>2026-03-29T10:13:23Z</time></trkpt><trkpt lat="45.387291014768195" lon="10.64283951528895"><ele>106.0</ele><time>2026-03-29T10:13:24Z</time></trkpt><trkpt lat="45.3874779679727" lon="10.642939771472806"><ele>106.0</ele><time>2026-03-29T10:13:25Z</time></trkpt><trkpt lat="45.38766382904767" lon="10.643033095688773"><ele>106.0</ele><time>2026-03-29T10:13:26Z</time></trkpt><trkpt lat="45.38785138221833" lon="10.64312293476323"><ele>106.0</ele><time>2026-03-29T10:13:27Z</time></trkpt><trkpt lat="45.38803384199876" lon="10.643207340149601"><ele>106.0</ele><time>2026-03-29T10:13:28Z</time></trkpt><trkpt lat="45.388218114262685" lon="10.643295420941913"><ele>106.0</ele><time>2026-03-29T10:13:29Z</time></trkpt><trkpt lat="45.38840411277736" lon="10.643381568767554"><ele>106.0</ele><time>2026-03-29T10:13:30Z</time></trkpt><trkpt lat="45.388595717754306" lon="10.643461566368336"><ele>106.0</ele><time>2026-03-29T10:13:31Z</time></trkpt><trkpt lat="45.38877656323579" lon="10.643525288038418"><ele>106.0</ele><time>2026-03-29T10:13:32Z</time></trkpt><trkpt lat="45.388959739257125" lon="10.643593697932438"><ele>106.0</ele><time>2026-03-29T10:13:33Z</time></trkpt><trkpt lat="45.38914182344534" lon="10.643657419939034"><ele>105.33333333333334</ele><time>2026-03-29T10:13:34Z</time></trkpt><trkpt lat="45.38930723984137" lon="10.643724442300142"><ele>104.66666666666666</ele><time>2026-03-29T10:13:35Z</time></trkpt><trkpt lat="45.38947092374933" lon="10.643792412389805"><ele>104.0</ele><time>2026-03-29T10:13:36Z</time></trkpt><trkpt lat="45.38963037659686" lon="10.643857459816886"><ele>104.0</ele><time>2026-03-29T10:13:37Z</time></trkpt><trkpt lat="45.38977079248727" lon="10.643907034137927"><ele>104.0</ele><time>2026-03-29T10:13:38Z</time></trkpt><trkpt lat="45.38990099686835" lon="10.64393323279851"><ele>104.0</ele><time>2026-03-29T10:13:39Z</time></trkpt><trkpt lat="45.390001499131046" lon="10.64395446736374"><ele>104.0</ele><time>2026-03-29T10:13:40Z</time></trkpt><trkpt lat="45.39009433103836" lon="10.643943159360033"><ele>104.0</ele><time>2026-03-29T10:13:41Z</time></trkpt><trkpt lat="45.390187199180374" lon="10.643890780813885"><ele>104.0</ele><time>2026-03-29T10:13:42Z</time></trkpt><trkpt lat="45.39027793808977" lon="10.643773538465322"><ele>104.0</ele><time>2026-03-29T10:13:43Z</time></trkpt><trkpt lat="45.39035458711524" lon="10.643615901917677"><ele>104.0</ele><time>2026-03-29T10:13:44Z</time></trkpt><trkpt lat="45.390421881727775" lon="10.643430989637114"><ele>105.66666666666666</ele><time>2026-03-29T10:13:45Z</time></trkpt><trkpt lat="45.390489163834076" lon="10.64323976478429"><ele>107.33333333333334</ele><time>2026-03-29T10:13:46Z</time></trkpt><trkpt lat="45.3905551371759" lon="10.643043781612544"><ele>109.0</ele><time>2026-03-29T10:13:47Z</time></trkpt><trkpt lat="45.39063807069307" lon="10.64284149062825"><ele>110.75</ele><time>2026-03-29T10:13:48Z</time></trkpt><trkpt lat="45.39071215923317" lon="10.642645438586154"><ele>112.5</ele><time>2026-03-29T10:13:49Z</time></trkpt><trkpt lat="45.39077970846011" lon="10.6424770152485"><ele>114.25</ele><time>2026-03-29T10:13:50Z</time></trkpt><trkpt lat="45.39083894239477" lon="10.642357446949985"><ele>116.0</ele><time>2026-03-29T10:13:51Z</time></trkpt><trkpt lat="45.390908756950815" lon="10.642271929664176"><ele>116.0</ele><time>2026-03-29T10:13:52Z</time></trkpt><trkpt lat="45.391029858608185" lon="10.642206318046494"><ele>116.0</ele><time>2026-03-29T10:13:53Z</time></trkpt><trkpt lat="45.391176673018606" lon="10.642203238207655"><ele>116.0</ele><time>2026-03-29T10:13:54Z</time></trkpt><trkpt lat="45.391333748703275" lon="10.642194176608479"><ele>116.0</ele><time>2026-03-29T10:13:55Z</time></trkpt><trkpt lat="45.39148981317324" lon="10.642221014819606"><ele>115.75</ele><time>2026-03-29T10:13:56Z</time></trkpt><trkpt lat="45.39163261000945" lon="10.642216848371653"><ele>115.5</ele><time>2026-03-29T10:13:57Z</time></trkpt><trkpt lat="45.39177020969265" lon="10.642166551111002"><ele>115.25</ele><time>2026-03-29T10:13:58Z</time></trkpt><trkpt lat="45.39190470017258" lon="10.642071019791803"><ele>115.0</ele><time>2026-03-29T10:13:59Z</time></trkpt><trkpt lat="45.392048357207834" lon="10.641960110791908"><ele>111.66666666666667</ele><time>2026-03-29T10:14:00Z</time></trkpt><trkpt lat="45.39221265704134" lon="10.641879715515715"><ele>108.33333333333334</ele><time>2026-03-29T10:14:01Z</time></trkpt><trkpt lat="45.392364803562685" lon="10.64178762631978"><ele>105.0</ele><time>2026-03-29T10:14:02Z</time></trkpt><trkpt lat="45.39251895102826" lon="10.64168163372793"><ele>105.0</ele><time>2026-03-29T10:14:03Z</time></trkpt><trkpt lat="45.39267295254175" lon="10.641597708793377"><ele>105.0</ele><time>2026-03-29T10:14:04Z</time></trkpt><trkpt lat="45.392809256839776" lon="10.641516640377729"><ele>105.0</ele><time>2026-03-29T10:14:05Z</time></trkpt><trkpt lat="45.39294640737071" lon="10.641469431620587"><ele>104.5</ele><time>2026-03-29T10:14:06Z</time></trkpt><trkpt lat="45.39307971132909" lon="10.641512401192509"><ele>104.0</ele><time>2026-03-29T10:14:07Z</time></trkpt><trkpt lat="45.393221797781386" lon="10.641570533324696"><ele>103.5</ele><time>2026-03-29T10:14:08Z</time></trkpt><trkpt lat="45.39337307650699" lon="10.64163506114607"><ele>103.0</ele><time>2026-03-29T10:14:09Z</time></trkpt><trkpt lat="45.39351610259045" lon="10.64172987087926"><ele>103.0</ele><time>2026-03-29T10:14:10Z</time></trkpt><trkpt lat="45.39366957346075" lon="10.64181377637377"><ele>103.0</ele><time>2026-03-29T10:14:11Z</time></trkpt><trkpt lat="45.393830388254756" lon="10.641892568683357"><ele>103.0</ele><time>2026-03-29T10:14:12Z</time></trkpt><trkpt lat="45.393997457209615" lon="10.641987846001825"><ele>104.66666666666667</ele><time>2026-03-29T10:14:13Z</time></trkpt><trkpt lat="45.39416573817938" lon="10.642082051763246"><ele>106.33333333333334</ele><time>2026-03-29T10:14:14Z</time></trkpt><trkpt lat="45.39433216935447" lon="10.642172818699041"><ele>108.0</ele><time>2026-03-29T10:14:15Z</time></trkpt><trkpt lat="45.39450476271067" lon="10.642267648317457"><ele>104.33333333333334</ele><time>2026-03-29T10:14:16Z</time></trkpt><trkpt lat="45.39468066349822" lon="10.642366487482299"><ele>100.66666666666667</ele><time>2026-03-29T10:14:17Z</time></trkpt><trkpt lat="45.394855787421996" lon="10.642464455541173"><ele>97.0</ele><time>2026-03-29T10:14:18Z</time></trkpt><trkpt lat="45.39503207252318" lon="10.642559089180942"><ele>97.0</ele><time>2026-03-29T10:14:19Z</time></trkpt><trkpt lat="45.39521107791496" lon="10.642656534075416"><ele>97.0</ele><time>2026-03-29T10:14:20Z</time></trkpt><trkpt lat="45.39539680385628" lon="10.64274449595337"><ele>97.0</ele><time>2026-03-29T10:14:21Z</time></trkpt><trkpt lat="45.3955842327247" lon="10.642829507510905"><ele>97.66666666666667</ele><time>2026-03-29T10:14:22Z</time></trkpt><trkpt lat="45.39577489739368" lon="10.64291235958765"><ele>98.33333333333334</ele><time>2026-03-29T10:14:23Z</time></trkpt><trkpt lat="45.39596512391179" lon="10.642996991683015"><ele>99.0</ele><time>2026-03-29T10:14:24Z</time></trkpt><trkpt lat="45.39614990651054" lon="10.643090868659733"><ele>99.0</ele><time>2026-03-29T10:14:25Z</time></trkpt><trkpt lat="45.396317054124545" lon="10.643171508552877"><ele>99.0</ele><time>2026-03-29T10:14:26Z</time></trkpt><trkpt lat="45.3964786815161" lon="10.643247124124981"><ele>99.0</ele><time>2026-03-29T10:14:27Z</time></trkpt><trkpt lat="45.39664250685482" lon="10.643317602064148"><ele>97.0</ele><time>2026-03-29T10:14:28Z</time></trkpt><trkpt lat="45.39680923337678" lon="10.643400961340092"><ele>95.0</ele><time>2026-03-29T10:14:29Z</time></trkpt><trkpt lat="45.3969641914544" lon="10.643478486797513"><ele>93.0</ele><time>2026-03-29T10:14:30Z</time></trkpt><trkpt lat="45.397108512608256" lon="10.643541386231947"><ele>92.5</ele><time>2026-03-29T10:14:31Z</time></trkpt><trkpt lat="45.3972570757257" lon="10.643582242601578"><ele>92.0</ele><time>2026-03-29T10:14:32Z</time></trkpt><trkpt lat="45.397395176209976" lon="10.643586359874762"><ele>91.5</ele><time>2026-03-29T10:14:33Z</time></trkpt><trkpt lat="45.39752261314863" lon="10.643535542033554"><ele>91.0</ele><time>2026-03-29T10:14:34Z</time></trkpt><trkpt lat="45.39763971116856" lon="10.643426566323274"><ele>91.0</ele><time>2026-03-29T10:14:35Z</time></trkpt><trkpt lat="45.397747459982206" lon="10.643274429658293"><ele>91.0</ele><time>2026-03-29T10:14:36Z</time></trkpt><trkpt lat="45.397878618560604" lon="10.643120274700632"><ele>91.0</ele><time>2026-03-29T10:14:37Z</time></trkpt><trkpt lat="45.398008068165886" lon="10.64295227882014"><ele>90.0</ele><time>2026-03-29T10:14:38Z</time></trkpt><trkpt lat="45.39814769789753" lon="10.642765518785072"><ele>89.0</ele><time>2026-03-29T10:14:39Z</time></trkpt><trkpt lat="45.3982754260594" lon="10.642573291240064"><ele>88.0</ele><time>2026-03-29T10:14:40Z</time></trkpt><trkpt lat="45.39841590976481" lon="10.642393562002184"><ele>88.0</ele><time>2026-03-29T10:14:41Z</time></trkpt><trkpt lat="45.398540451481786" lon="10.64219684245454"><ele>88.0</ele><time>2026-03-29T10:14:42Z</time></trkpt><trkpt lat="45.39863473670144" lon="10.641956425785187"><ele>88.0</ele><time>2026-03-29T10:14:43Z</time></trkpt><trkpt lat="45.398693646839696" lon="10.64168961865721"><ele>88.33333333333333</ele><time>2026-03-29T10:14:44Z</time></trkpt><trkpt lat="45.39873350245782" lon="10.641422582966308"><ele>88.66666666666667</ele><time>2026-03-29T10:14:45Z</time></trkpt><trkpt lat="45.39875813781453" lon="10.641165852520441"><ele>89.0</ele><time>2026-03-29T10:14:46Z</time></trkpt><trkpt lat="45.39875469526871" lon="10.64092317953851"><ele>89.66666666666667</ele><time>2026-03-29T10:14:47Z</time></trkpt><trkpt lat="45.39873722943665" lon="10.64066896729859"><ele>90.33333333333333</ele><time>2026-03-29T10:14:48Z</time></trkpt><trkpt lat="45.398738493128995" lon="10.640428616104467"><ele>91.0</ele><time>2026-03-29T10:14:49Z</time></trkpt><trkpt lat="45.3987083936585" lon="10.640193997827215"><ele>91.33333333333333</ele><time>2026-03-29T10:14:50Z</time></trkpt><trkpt lat="45.398699650512214" lon="10.639953144472601"><ele>91.66666666666667</ele><time>2026-03-29T10:14:51Z</time></trkpt><trkpt lat="45.39868997513756" lon="10.63970455140156"><ele>92.0</ele><time>2026-03-29T10:14:52Z</time></trkpt><trkpt lat="45.39867677045254" lon="10.639453279993292"><ele>92.0</ele><time>2026-03-29T10:14:53Z</time></trkpt><trkpt lat="45.39866752911543" lon="10.63920334304879"><ele>92.0</ele><time>2026-03-29T10:14:54Z</time></trkpt><trkpt lat="45.398658738381215" lon="10.638948347191235"><ele>92.0</ele><time>2026-03-29T10:14:55Z</time></trkpt><trkpt lat="45.398650765432684" lon="10.638685084216258"><ele>91.66666666666667</ele><time>2026-03-29T10:14:56Z</time></trkpt><trkpt lat="45.39864317919813" lon="10.638431393629995"><ele>91.33333333333333</ele><time>2026-03-29T10:14:57Z</time></trkpt><trkpt lat="45.39863462516141" lon="10.638170736312142"><ele>91.0</ele><time>2026-03-29T10:14:58Z</time></trkpt><trkpt lat="45.39863805912826" lon="10.637915364426105"><ele>90.66666666666666</ele><time>2026-03-29T10:14:59Z</time></trkpt><trkpt lat="45.398632002879715" lon="10.637673811198539"><ele>90.33333333333333</ele><time>2026-03-29T10:15:00Z</time></trkpt><trkpt lat="45.398628738481676" lon="10.637439189819517"><ele>90.0</ele><time>2026-03-29T10:15:01Z</time></trkpt><trkpt lat="45.39863043069803" lon="10.637214694100427"><ele>90.0</ele><time>2026-03-29T10:15:02Z</time></trkpt><trkpt lat="45.398629254902" lon="10.63698635273896"><ele>90.0</ele><time>2026-03-29T10:15:03Z</time></trkpt><trkpt lat="45.398679242203706" lon="10.636772331706428"><ele>90.0</ele><time>2026-03-29T10:15:04Z</time></trkpt><trkpt lat="45.398733320932344" lon="10.636556127960061"><ele>90.33333333333333</ele><time>2026-03-29T10:15:05Z</time></trkpt><trkpt lat="45.398804093803754" lon="10.636333674276639"><ele>90.66666666666666</ele><time>2026-03-29T10:15:06Z</time></trkpt><trkpt lat="45.39886092207304" lon="10.636117123416069"><ele>91.0</ele><time>2026-03-29T10:15:07Z</time></trkpt><trkpt lat="45.398939811661656" lon="10.635900342917669"><ele>91.0</ele><time>2026-03-29T10:15:08Z</time></trkpt><trkpt lat="45.39904073989071" lon="10.635705048429447"><ele>91.0</ele><time>2026-03-29T10:15:09Z</time></trkpt><trkpt lat="45.39913677019385" lon="10.635497877344633"><ele>91.0</ele><time>2026-03-29T10:15:10Z</time></trkpt><trkpt lat="45.39923429738779" lon="10.63529582036213"><ele>91.4</ele><time>2026-03-29T10:15:11Z</time></trkpt><trkpt lat="45.39930856897603" lon="10.635115159526974"><ele>91.8</ele><time>2026-03-29T10:15:12Z</time></trkpt><trkpt lat="45.39938441308098" lon="10.634983006194847"><ele>92.2</ele><time>2026-03-29T10:15:13Z</time></trkpt><trkpt lat="45.39944266134496" lon="10.63487692700832"><ele>92.60000000000001</ele><time>2026-03-29T10:15:14Z</time></trkpt><trkpt lat="45.39949767963546" lon="10.634803230886405"><ele>93.0</ele><time>2026-03-29T10:15:15Z</time></trkpt><trkpt lat="45.39957313898408" lon="10.634753391871042"><ele>92.4</ele><time>2026-03-29T10:15:16Z</time></trkpt><trkpt lat="45.399677860918004" lon="10.634714940605555"><ele>91.80000000000001</ele><time>2026-03-29T10:15:17Z</time></trkpt><trkpt lat="45.39977235698907" lon="10.634682465362907"><ele>91.2</ele><time>2026-03-29T10:15:18Z</time></trkpt><trkpt lat="45.399879167669596" lon="10.634761569989031"><ele>90.6</ele><time>2026-03-29T10:15:19Z</time></trkpt><trkpt lat="45.399956943027895" lon="10.63482844616191"><ele>90.0</ele><time>2026-03-29T10:15:20Z</time></trkpt><trkpt lat="45.400044758721606" lon="10.634923491508372"><ele>90.0</ele><time>2026-03-29T10:15:21Z</time></trkpt><trkpt lat="45.40015075967752" lon="10.63503341643212"><ele>90.0</ele><time>2026-03-29T10:15:22Z</time></trkpt><trkpt lat="45.40026796760961" lon="10.635137539170255"><ele>90.0</ele><time>2026-03-29T10:15:23Z</time></trkpt><trkpt lat="45.40039962906164" lon="10.635247254503462"><ele>90.0</ele><time>2026-03-29T10:15:24Z</time></trkpt><trkpt lat="45.40053917743098" lon="10.635369254655247"><ele>89.33333333333333</ele><time>2026-03-29T10:15:25Z</time></trkpt><trkpt lat="45.40068478455854" lon="10.635498802389305"><ele>88.66666666666666</ele><time>2026-03-29T10:15:26Z</time></trkpt><trkpt lat="45.40083998998183" lon="10.63563058079015"><ele>88.0</ele><time>2026-03-29T10:15:27Z</time></trkpt><trkpt lat="45.40100212882275" lon="10.63576847793518"><ele>88.0</ele><time>2026-03-29T10:15:28Z</time></trkpt><trkpt lat="45.401172890620295" lon="10.635911452882889"><ele>88.0</ele><time>2026-03-29T10:15:29Z</time></trkpt><trkpt lat="45.4013474128149" lon="10.636062224957485"><ele>88.0</ele><time>2026-03-29T10:15:30Z</time></trkpt><trkpt lat="45.40152700900639" lon="10.636221046825241"><ele>87.5</ele><time>2026-03-29T10:15:31Z</time></trkpt><trkpt lat="45.40171741346131" lon="10.636393661606661"><ele>87.0</ele><time>2026-03-29T10:15:32Z</time></trkpt><trkpt lat="45.401911085074566" lon="10.636563801694011"><ele>87.0</ele><time>2026-03-29T10:15:33Z</time></trkpt><trkpt lat="45.40210976621957" lon="10.63673967512046"><ele>87.0</ele><time>2026-03-29T10:15:34Z</time></trkpt><trkpt lat="45.40231669925876" lon="10.63691626330337"><ele>86.5</ele><time>2026-03-29T10:15:35Z</time></trkpt><trkpt lat="45.402522563118325" lon="10.637090186194971"><ele>86.0</ele><time>2026-03-29T10:15:36Z</time></trkpt><trkpt lat="45.40272044275715" lon="10.637251891656927"><ele>86.0</ele><time>2026-03-29T10:15:37Z</time></trkpt><trkpt lat="45.402900538781196" lon="10.637399886271396"><ele>86.0</ele><time>2026-03-29T10:15:38Z</time></trkpt><trkpt lat="45.40308160161247" lon="10.637548382089507"><ele>86.0</ele><time>2026-03-29T10:15:39Z</time></trkpt><trkpt lat="45.4032643214353" lon="10.637701661590006"><ele>87.0</ele><time>2026-03-29T10:15:40Z</time></trkpt><trkpt lat="45.40344544183407" lon="10.637860529971226"><ele>88.0</ele><time>2026-03-29T10:15:41Z</time></trkpt><trkpt lat="45.40361498674264" lon="10.63801159050043"><ele>89.0</ele><time>2026-03-29T10:15:42Z</time></trkpt><trkpt lat="45.40378595212214" lon="10.638162121717343"><ele>89.33333333333334</ele><time>2026-03-29T10:15:43Z</time></trkpt><trkpt lat="45.40395863174694" lon="10.638306044245807"><ele>89.66666666666667</ele><time>2026-03-29T10:15:44Z</time></trkpt><trkpt lat="45.40412686122481" lon="10.638447637882104"><ele>90.0</ele><time>2026-03-29T10:15:45Z</time></trkpt><trkpt lat="45.404302974507885" lon="10.638586218725242"><ele>91.0</ele><time>2026-03-29T10:15:46Z</time></trkpt><trkpt lat="45.404495493451314" lon="10.638768874043263"><ele>92.0</ele><time>2026-03-29T10:15:47Z</time></trkpt><trkpt lat="45.404704431159466" lon="10.638949905339869"><ele>92.0</ele><time>2026-03-29T10:15:48Z</time></trkpt><trkpt lat="45.40491313357235" lon="10.639105197004099"><ele>92.0</ele><time>2026-03-29T10:15:49Z</time></trkpt><trkpt lat="45.40511383249234" lon="10.639289747678875"><ele>92.0</ele><time>2026-03-29T10:15:50Z</time></trkpt><trkpt lat="45.405297975974335" lon="10.639447136102794"><ele>92.0</ele><time>2026-03-29T10:15:51Z</time></trkpt><trkpt lat="45.4054294936417" lon="10.639549003849448"><ele>92.0</ele><time>2026-03-29T10:15:52Z</time></trkpt><trkpt lat="45.405518923908424" lon="10.639613504071095"><ele>91.19999999999999</ele><time>2026-03-29T10:15:53Z</time></trkpt><trkpt lat="45.405581088471045" lon="10.639667534065481"><ele>90.4</ele><time>2026-03-29T10:15:54Z</time></trkpt><trkpt lat="45.405647048439434" lon="10.639645831189114"><ele>89.6</ele><time>2026-03-29T10:16:05Z</time></trkpt><trkpt lat="45.40555808908736" lon="10.639608699616424"><ele>88.80000000000001</ele><time>2026-03-29T10:16:07Z</time></trkpt><trkpt lat="45.40549169954654" lon="10.639796369788755"><ele>88.0</ele><time>2026-03-29T10:16:10Z</time></trkpt><trkpt lat="45.40545173479691" lon="10.639891646181075"><ele>88.0</ele><time>2026-03-29T10:16:11Z</time></trkpt><trkpt lat="45.40541153051166" lon="10.639982069316513"><ele>88.0</ele><time>2026-03-29T10:16:12Z</time></trkpt><trkpt lat="45.40537446877167" lon="10.640101200023112"><ele>88.0</ele><time>2026-03-29T10:16:14Z</time></trkpt><trkpt lat="45.40542426879086" lon="10.640230871763903"><ele>88.0</ele><time>2026-03-29T10:16:17Z</time></trkpt><trkpt lat="45.405489720532664" lon="10.64028711543294"><ele>88.0</ele><time>2026-03-29T10:16:18Z</time></trkpt><trkpt lat="45.40557713106813" lon="10.640356821841403"><ele>88.0</ele><time>2026-03-29T10:16:19Z</time></trkpt><trkpt lat="45.40567525407286" lon="10.640425072461454"><ele>87.25</ele><time>2026-03-29T10:16:20Z</time></trkpt><trkpt lat="45.405792063425494" lon="10.640492744906007"><ele>86.5</ele><time>2026-03-29T10:16:21Z</time></trkpt><trkpt lat="45.405917124773445" lon="10.640545611261357"><ele>85.75</ele><time>2026-03-29T10:16:22Z</time></trkpt><trkpt lat="45.40603729563545" lon="10.640603823652272"><ele>85.0</ele><time>2026-03-29T10:16:23Z</time></trkpt><trkpt lat="45.40615561192609" lon="10.64067463425057"><ele>85.0</ele><time>2026-03-29T10:16:24Z</time></trkpt><trkpt lat="45.4062561743548" lon="10.64075275003491"><ele>85.0</ele><time>2026-03-29T10:16:25Z</time></trkpt><trkpt lat="45.40635565464642" lon="10.640818050459188"><ele>85.0</ele><time>2026-03-29T10:16:26Z</time></trkpt><trkpt lat="45.4064354741068" lon="10.64087607612179"><ele>85.0</ele><time>2026-03-29T10:16:27Z</time></trkpt><trkpt lat="45.406531501295774" lon="10.640913179112834"><ele>85.0</ele><time>2026-03-29T10:16:28Z</time></trkpt><trkpt lat="45.406641896010406" lon="10.64093392756296"><ele>85.4</ele><time>2026-03-29T10:16:29Z</time></trkpt><trkpt lat="45.406743832347765" lon="10.640955906101032"><ele>85.8</ele><time>2026-03-29T10:16:30Z</time></trkpt><trkpt lat="45.40685320498319" lon="10.640986756555828"><ele>86.19999999999999</ele><time>2026-03-29T10:16:31Z</time></trkpt><trkpt lat="45.40695509163177" lon="10.640989067547153"><ele>86.6</ele><time>2026-03-29T10:16:32Z</time></trkpt><trkpt lat="45.407059864117" lon="10.640989447428094"><ele>87.0</ele><time>2026-03-29T10:16:33Z</time></trkpt><trkpt lat="45.40717919395019" lon="10.64098291989791"><ele>87.19999999999999</ele><time>2026-03-29T10:16:34Z</time></trkpt><trkpt lat="45.40730187528552" lon="10.640959860567447"><ele>87.4</ele><time>2026-03-29T10:16:35Z</time></trkpt><trkpt lat="45.407401351354075" lon="10.640952273827269"><ele>87.6</ele><time>2026-03-29T10:16:36Z</time></trkpt><trkpt lat="45.40750480356797" lon="10.640968032555454"><ele>87.80000000000001</ele><time>2026-03-29T10:16:37Z</time></trkpt><trkpt lat="45.4076111796186" lon="10.640991172133461"><ele>88.0</ele><time>2026-03-29T10:16:38Z</time></trkpt><trkpt lat="45.40771518772983" lon="10.64101412443773"><ele>88.0</ele><time>2026-03-29T10:16:39Z</time></trkpt><trkpt lat="45.40780766498795" lon="10.641032940956526"><ele>88.0</ele><time>2026-03-29T10:16:40Z</time></trkpt><trkpt lat="45.40789181568327" lon="10.641055285428086"><ele>88.0</ele><time>2026-03-29T10:16:41Z</time></trkpt><trkpt lat="45.407966083323046" lon="10.641091977112191"><ele>88.0</ele><time>2026-03-29T10:16:42Z</time></trkpt><trkpt lat="45.40809410318984" lon="10.641059861917196"><ele>88.0</ele><time>2026-03-29T10:16:43Z</time></trkpt><trkpt lat="45.408179554602235" lon="10.641140954584536"><ele>87.4</ele><time>2026-03-29T10:16:44Z</time></trkpt><trkpt lat="45.40826262738907" lon="10.641219944808102"><ele>86.80000000000001</ele><time>2026-03-29T10:16:45Z</time></trkpt><trkpt lat="45.408359804817394" lon="10.641314365916436"><ele>86.2</ele><time>2026-03-29T10:16:46Z</time></trkpt><trkpt lat="45.40844441907304" lon="10.641396018617748"><ele>85.6</ele><time>2026-03-29T10:16:47Z</time></trkpt><trkpt lat="45.408502892158005" lon="10.641451968445168"><ele>85.0</ele><time>2026-03-29T10:16:48Z</time></trkpt><trkpt lat="45.40858654584221" lon="10.64153233530918"><ele>85.0</ele><time>2026-03-29T10:16:49Z</time></trkpt><trkpt lat="45.40863941502578" lon="10.641596934012634"><ele>85.0</ele><time>2026-03-29T10:16:50Z</time></trkpt><trkpt lat="45.40869882862869" lon="10.64167455431079"><ele>85.0</ele><time>2026-03-29T10:16:51Z</time></trkpt><trkpt lat="45.40876208267375" lon="10.641766325716992"><ele>85.0</ele><time>2026-03-29T10:16:52Z</time></trkpt><trkpt lat="45.40851867780351" lon="10.642549515597826"><ele>85.0</ele><time>2026-03-29T10:16:53Z</time></trkpt><trkpt lat="45.408531042957854" lon="10.642738487247428"><ele>85.0</ele><time>2026-03-29T10:16:54Z</time></trkpt><trkpt lat="45.40854766048794" lon="10.642908293237772"><ele>85.0</ele><time>2026-03-29T10:16:55Z</time></trkpt><trkpt lat="45.408572689078056" lon="10.643079183574605"><ele>85.0</ele><time>2026-03-29T10:16:56Z</time></trkpt><trkpt lat="45.408600267658855" lon="10.643228694253576"><ele>85.5</ele><time>2026-03-29T10:16:57Z</time></trkpt><trkpt lat="45.408628711655325" lon="10.64337325960723"><ele>86.0</ele><time>2026-03-29T10:16:58Z</time></trkpt><trkpt lat="45.40866951308932" lon="10.643545505872012"><ele>86.5</ele><time>2026-03-29T10:16:59Z</time></trkpt><trkpt lat="45.408710784747996" lon="10.643733929473685"><ele>87.0</ele><time>2026-03-29T10:17:00Z</time></trkpt><trkpt lat="45.40875358498611" lon="10.643898471930727"><ele>87.0</ele><time>2026-03-29T10:17:01Z</time></trkpt><trkpt lat="45.408791335110855" lon="10.644043358874109"><ele>87.0</ele><time>2026-03-29T10:17:02Z</time></trkpt><trkpt lat="45.40882608170485" lon="10.644184827260046"><ele>87.0</ele><time>2026-03-29T10:17:03Z</time></trkpt><trkpt lat="45.408857574684205" lon="10.644320975382442"><ele>87.0</ele><time>2026-03-29T10:17:04Z</time></trkpt><trkpt lat="45.408881546621274" lon="10.64445767148883"><ele>87.0</ele><time>2026-03-29T10:17:05Z</time></trkpt><trkpt lat="45.408907940260455" lon="10.644592448142333"><ele>87.0</ele><time>2026-03-29T10:17:06Z</time></trkpt><trkpt lat="45.408928625048226" lon="10.64469478262005"><ele>87.0</ele><time>2026-03-29T10:17:07Z</time></trkpt><trkpt lat="45.40894936852309" lon="10.644786237559932"><ele>87.0</ele><time>2026-03-29T10:17:08Z</time></trkpt><trkpt lat="45.40901019149826" lon="10.644944301380551"><ele>87.0</ele><time>2026-03-29T10:17:10Z</time></trkpt><trkpt lat="45.40907046783073" lon="10.645032527245153"><ele>87.0</ele><time>2026-03-29T10:17:12Z</time></trkpt><trkpt lat="45.409117847398505" lon="10.645108918533477"><ele>87.0</ele><time>2026-03-29T10:17:15Z</time></trkpt><trkpt lat="45.40915551112343" lon="10.645183899980038"><ele>87.0</ele><time>2026-03-29T10:23:36Z</time></trkpt><trkpt lat="45.40922830603893" lon="10.64522279620749"><ele>87.0</ele><time>2026-03-29T10:23:39Z</time></trkpt><trkpt lat="45.40932670116863" lon="10.645345542501115"><ele>87.0</ele><time>2026-03-29T10:23:41Z</time></trkpt><trkpt lat="45.40939052947685" lon="10.645435063176734"><ele>87.0</ele><time>2026-03-29T10:23:42Z</time></trkpt><trkpt lat="45.409475668789916" lon="10.645546392497884"><ele>87.0</ele><time>2026-03-29T10:23:43Z</time></trkpt><trkpt lat="45.409565819979406" lon="10.645653055151163"><ele>87.0</ele><time>2026-03-29T10:23:44Z</time></trkpt><trkpt lat="45.409633794814084" lon="10.645731543320704"><ele>87.0</ele><time>2026-03-29T10:23:45Z</time></trkpt><trkpt lat="45.409711008501205" lon="10.645802622092063"><ele>87.0</ele><time>2026-03-29T10:23:46Z</time></trkpt><trkpt lat="45.409802792815434" lon="10.645877234214312"><ele>87.0</ele><time>2026-03-29T10:23:47Z</time></trkpt><trkpt lat="45.40987595639621" lon="10.645955888471452"><ele>87.0</ele><time>2026-03-29T10:23:48Z</time></trkpt><trkpt lat="45.40993220917394" lon="10.646059802242194"><ele>87.5</ele><time>2026-03-29T10:23:49Z</time></trkpt><trkpt lat="45.40998938517452" lon="10.646201954405301"><ele>88.0</ele><time>2026-03-29T10:23:50Z</time></trkpt><trkpt lat="45.410053233845936" lon="10.646345937247657"><ele>88.5</ele><time>2026-03-29T10:23:51Z</time></trkpt><trkpt lat="45.41014299963709" lon="10.646503272772486"><ele>89.0</ele><time>2026-03-29T10:23:52Z</time></trkpt><trkpt lat="45.410241042641616" lon="10.64665834936761"><ele>89.0</ele><time>2026-03-29T10:23:53Z</time></trkpt><trkpt lat="45.41033517769377" lon="10.64678783370422"><ele>89.0</ele><time>2026-03-29T10:23:54Z</time></trkpt><trkpt lat="45.410414666073784" lon="10.646893880898702"><ele>89.0</ele><time>2026-03-29T10:23:55Z</time></trkpt><trkpt lat="45.410485541752436" lon="10.6470000452199"><ele>89.0</ele><time>2026-03-29T10:23:56Z</time></trkpt><trkpt lat="45.41057543401006" lon="10.647088281892808"><ele>88.25</ele><time>2026-03-29T10:23:57Z</time></trkpt><trkpt lat="45.41065210892529" lon="10.647120138181158"><ele>87.5</ele><time>2026-03-29T10:23:58Z</time></trkpt><trkpt lat="45.410681493989436" lon="10.647282089727767"><ele>86.75</ele><time>2026-03-29T10:23:59Z</time></trkpt><trkpt lat="45.41075096306082" lon="10.647476499892035"><ele>86.0</ele><time>2026-03-29T10:24:00Z</time></trkpt><trkpt lat="45.41079730242335" lon="10.647680766777857"><ele>86.4</ele><time>2026-03-29T10:24:01Z</time></trkpt><trkpt lat="45.410837228543386" lon="10.647861885613239"><ele>86.8</ele><time>2026-03-29T10:24:02Z</time></trkpt><trkpt lat="45.410866513940846" lon="10.64802602465589"><ele>87.2</ele><time>2026-03-29T10:24:03Z</time></trkpt><trkpt lat="45.410880335613186" lon="10.648136010116826"><ele>87.60000000000001</ele><time>2026-03-29T10:24:04Z</time></trkpt><trkpt lat="45.41093296876474" lon="10.648283704423758"><ele>88.0</ele><time>2026-03-29T10:24:06Z</time></trkpt><trkpt lat="45.411042651501845" lon="10.648282440748188"><ele>88.0</ele><time>2026-03-29T10:24:08Z</time></trkpt><trkpt lat="45.411120801066424" lon="10.648257668664636"><ele>88.0</ele><time>2026-03-29T10:24:09Z</time></trkpt><trkpt lat="45.41123308937667" lon="10.648228454329175"><ele>88.0</ele><time>2026-03-29T10:24:10Z</time></trkpt><trkpt lat="45.41136747416249" lon="10.648209810434302"><ele>88.0</ele><time>2026-03-29T10:24:11Z</time></trkpt><trkpt lat="45.411529005323445" lon="10.648180824096679"><ele>89.0</ele><time>2026-03-29T10:24:12Z</time></trkpt><trkpt lat="45.41167629449209" lon="10.648150120243214"><ele>90.0</ele><time>2026-03-29T10:24:13Z</time></trkpt><trkpt lat="45.41177974711288" lon="10.6481251720832"><ele>91.0</ele><time>2026-03-29T10:24:14Z</time></trkpt><trkpt lat="45.41188278314976" lon="10.648098202763732"><ele>92.0</ele><time>2026-03-29T10:24:16Z</time></trkpt><trkpt lat="45.41190799040618" lon="10.647995587442658"><ele>93.0</ele><time>2026-03-29T10:24:18Z</time></trkpt><trkpt lat="45.4119101004506" lon="10.647856130997983"><ele>93.0</ele><time>2026-03-29T10:24:19Z</time></trkpt><trkpt lat="45.4119049409878" lon="10.647632189861875"><ele>93.0</ele><time>2026-03-29T10:24:20Z</time></trkpt><trkpt lat="45.411901820388785" lon="10.64736301326611"><ele>93.0</ele><time>2026-03-29T10:24:21Z</time></trkpt><trkpt lat="45.411916776070335" lon="10.647050747990301"><ele>93.0</ele><time>2026-03-29T10:24:22Z</time></trkpt><trkpt lat="45.411891495918994" lon="10.646793457106922"><ele>93.0</ele><time>2026-03-29T10:24:23Z</time></trkpt><trkpt lat="45.41187373129402" lon="10.646526998067412"><ele>93.0</ele><time>2026-03-29T10:24:24Z</time></trkpt><trkpt lat="45.411838832108366" lon="10.646237802583082"><ele>94.5</ele><time>2026-03-29T10:24:25Z</time></trkpt><trkpt lat="45.41177969553529" lon="10.64590949810498"><ele>96.0</ele><time>2026-03-29T10:24:26Z</time></trkpt><trkpt lat="45.41171010586387" lon="10.64556348533817"><ele>96.5</ele><time>2026-03-29T10:24:27Z</time></trkpt><trkpt lat="45.41164137985951" lon="10.64521136741563"><ele>97.0</ele><time>2026-03-29T10:24:28Z</time></trkpt><trkpt lat="45.41157274857465" lon="10.644845159958514"><ele>97.0</ele><time>2026-03-29T10:24:29Z</time></trkpt><trkpt lat="45.41149870932604" lon="10.64447510197942"><ele>97.0</ele><time>2026-03-29T10:24:30Z</time></trkpt><trkpt lat="45.41142129308885" lon="10.644113373368322"><ele>96.5</ele><time>2026-03-29T10:24:31Z</time></trkpt><trkpt lat="45.41134406933035" lon="10.643762803889146"><ele>96.0</ele><time>2026-03-29T10:24:32Z</time></trkpt><trkpt lat="45.41128731371735" lon="10.643413276923445"><ele>96.0</ele><time>2026-03-29T10:24:33Z</time></trkpt><trkpt lat="45.41120675056145" lon="10.643086804639642"><ele>96.0</ele><time>2026-03-29T10:24:34Z</time></trkpt><trkpt lat="45.411145930604555" lon="10.642754554723908"><ele>95.66666666666667</ele><time>2026-03-29T10:24:35Z</time></trkpt><trkpt lat="45.41108237896974" lon="10.642438059874967"><ele>95.33333333333334</ele><time>2026-03-29T10:24:36Z</time></trkpt><trkpt lat="45.41102765168939" lon="10.642164881373272"><ele>95.0</ele><time>2026-03-29T10:24:37Z</time></trkpt><trkpt lat="45.41097539709976" lon="10.641937708834835"><ele>96.2</ele><time>2026-03-29T10:24:38Z</time></trkpt><trkpt lat="45.410933710196986" lon="10.641738643069083"><ele>97.4</ele><time>2026-03-29T10:24:39Z</time></trkpt><trkpt lat="45.41089921941694" lon="10.641573643661117"><ele>98.6</ele><time>2026-03-29T10:24:40Z</time></trkpt><trkpt lat="45.41086556992639" lon="10.641439223637846"><ele>99.8</ele><time>2026-03-29T10:24:41Z</time></trkpt><trkpt lat="45.41085271094506" lon="10.641336325314636"><ele>101.0</ele><time>2026-03-29T10:24:42Z</time></trkpt><trkpt lat="45.4109215377414" lon="10.641165838942912"><ele>101.19999999999999</ele><time>2026-03-29T10:24:44Z</time></trkpt><trkpt lat="45.410943047850544" lon="10.641012411807782"><ele>101.39999999999999</ele><time>2026-03-29T10:24:45Z</time></trkpt><trkpt lat="45.410950302232266" lon="10.640880527383809"><ele>101.6</ele><time>2026-03-29T10:24:46Z</time></trkpt><trkpt lat="45.41091360701274" lon="10.640775752690024"><ele>101.8</ele><time>2026-03-29T10:24:47Z</time></trkpt><trkpt lat="45.41083940045747" lon="10.640699913273005"><ele>102.0</ele><time>2026-03-29T10:24:48Z</time></trkpt><trkpt lat="45.410743335043335" lon="10.64070485379082"><ele>102.0</ele><time>2026-03-29T10:24:49Z</time></trkpt><trkpt lat="45.41065478983743" lon="10.640632943465937"><ele>102.0</ele><time>2026-03-29T10:24:50Z</time></trkpt><trkpt lat="45.41057320751456" lon="10.640549732708973"><ele>102.0</ele><time>2026-03-29T10:24:51Z</time></trkpt><trkpt lat="45.410518661354935" lon="10.640406319176387"><ele>102.0</ele><time>2026-03-29T10:24:52Z</time></trkpt><trkpt lat="45.41049133542938" lon="10.640186686672546"><ele>101.66666666666666</ele><time>2026-03-29T10:24:53Z</time></trkpt><trkpt lat="45.410457781490486" lon="10.639926273011403"><ele>101.33333333333333</ele><time>2026-03-29T10:24:54Z</time></trkpt><trkpt lat="45.4104112495234" lon="10.639660935898618"><ele>101.0</ele><time>2026-03-29T10:24:55Z</time></trkpt><trkpt lat="45.410366881510825" lon="10.639359349082781"><ele>103.0</ele><time>2026-03-29T10:24:56Z</time></trkpt><trkpt lat="45.410287173344365" lon="10.639039641578513"><ele>105.0</ele><time>2026-03-29T10:24:57Z</time></trkpt><trkpt lat="45.410173692046065" lon="10.638702195496426"><ele>104.0</ele><time>2026-03-29T10:24:58Z</time></trkpt><trkpt lat="45.41004703502317" lon="10.63835870763416"><ele>103.0</ele><time>2026-03-29T10:24:59Z</time></trkpt><trkpt lat="45.40991140411634" lon="10.638010838169377"><ele>103.0</ele><time>2026-03-29T10:25:00Z</time></trkpt><trkpt lat="45.409762664104775" lon="10.637666746301466"><ele>103.0</ele><time>2026-03-29T10:25:01Z</time></trkpt><trkpt lat="45.40963264158746" lon="10.637348131533697"><ele>104.0</ele><time>2026-03-29T10:25:02Z</time></trkpt><trkpt lat="45.409518310255024" lon="10.63705908110552"><ele>105.0</ele><time>2026-03-29T10:25:03Z</time></trkpt><trkpt lat="45.4094067731451" lon="10.636797116244187"><ele>106.0</ele><time>2026-03-29T10:25:04Z</time></trkpt><trkpt lat="45.40929035134475" lon="10.636560917752403"><ele>106.33333333333334</ele><time>2026-03-29T10:25:05Z</time></trkpt><trkpt lat="45.40916817870597" lon="10.636338511223622"><ele>106.66666666666666</ele><time>2026-03-29T10:25:06Z</time></trkpt><trkpt lat="45.409042506825" lon="10.636111874166856"><ele>107.0</ele><time>2026-03-29T10:25:07Z</time></trkpt><trkpt lat="45.408905217690396" lon="10.63587753123057"><ele>107.0</ele><time>2026-03-29T10:25:08Z</time></trkpt><trkpt lat="45.40876394377495" lon="10.63563906123873"><ele>107.0</ele><time>2026-03-29T10:25:09Z</time></trkpt><trkpt lat="45.4086085435665" lon="10.63540311864847"><ele>107.0</ele><time>2026-03-29T10:25:10Z</time></trkpt><trkpt lat="45.408440571575326" lon="10.635178562135483"><ele>107.66666666666666</ele><time>2026-03-29T10:25:11Z</time></trkpt><trkpt lat="45.40826345335567" lon="10.634981342243353"><ele>108.33333333333334</ele><time>2026-03-29T10:25:12Z</time></trkpt><trkpt lat="45.408099247538956" lon="10.634809324692663"><ele>109.0</ele><time>2026-03-29T10:25:13Z</time></trkpt><trkpt lat="45.40795071337987" lon="10.634648660372637"><ele>109.0</ele><time>2026-03-29T10:25:14Z</time></trkpt><trkpt lat="45.40782677277701" lon="10.63452611722935"><ele>109.0</ele><time>2026-03-29T10:25:15Z</time></trkpt><trkpt lat="45.40773904966291" lon="10.634434001388346"><ele>109.0</ele><time>2026-03-29T10:25:16Z</time></trkpt><trkpt lat="45.40769679688633" lon="10.634366933744978"><ele>109.0</ele><time>2026-03-29T10:25:17Z</time></trkpt><trkpt lat="45.407714961025185" lon="10.63416911341349"><ele>109.25</ele><time>2026-03-29T10:25:19Z</time></trkpt><trkpt lat="45.40777570077722" lon="10.634066911105913"><ele>109.5</ele><time>2026-03-29T10:25:20Z</time></trkpt><trkpt lat="45.40787166333539" lon="10.634011401172918"><ele>109.75</ele><time>2026-03-29T10:25:21Z</time></trkpt><trkpt lat="45.408009461720056" lon="10.633967187274527"><ele>110.0</ele><time>2026-03-29T10:25:22Z</time></trkpt><trkpt lat="45.408186519932386" lon="10.633929602097894"><ele>110.33333333333333</ele><time>2026-03-29T10:25:23Z</time></trkpt><trkpt lat="45.40835214690477" lon="10.633825939551235"><ele>110.66666666666666</ele><time>2026-03-29T10:25:24Z</time></trkpt><trkpt lat="45.40851687257673" lon="10.63373215262301"><ele>111.0</ele><time>2026-03-29T10:25:25Z</time></trkpt><trkpt lat="45.40868876511149" lon="10.633610873006326"><ele>112.0</ele><time>2026-03-29T10:25:26Z</time></trkpt><trkpt lat="45.40884985956393" lon="10.633470022359967"><ele>113.0</ele><time>2026-03-29T10:25:27Z</time></trkpt><trkpt lat="45.40901106527899" lon="10.633314155822758"><ele>114.0</ele><time>2026-03-29T10:25:28Z</time></trkpt><trkpt lat="45.40916739059084" lon="10.63315671394901"><ele>114.0</ele><time>2026-03-29T10:25:29Z</time></trkpt><trkpt lat="45.40931920677024" lon="10.633007198979625"><ele>114.0</ele><time>2026-03-29T10:25:30Z</time></trkpt><trkpt lat="45.4094769209249" lon="10.632861728152712"><ele>114.0</ele><time>2026-03-29T10:25:31Z</time></trkpt><trkpt lat="45.409624267773864" lon="10.632712140494883"><ele>113.0</ele><time>2026-03-29T10:25:32Z</time></trkpt><trkpt lat="45.40975341395053" lon="10.632544966194923"><ele>112.0</ele><time>2026-03-29T10:25:33Z</time></trkpt><trkpt lat="45.409870724187726" lon="10.632361835906687"><ele>111.0</ele><time>2026-03-29T10:25:34Z</time></trkpt><trkpt lat="45.41001528729857" lon="10.63220156614282"><ele>111.0</ele><time>2026-03-29T10:25:35Z</time></trkpt><trkpt lat="45.41017821210473" lon="10.632071377458908"><ele>111.0</ele><time>2026-03-29T10:25:36Z</time></trkpt><trkpt lat="45.410354484774935" lon="10.631950136752643"><ele>111.0</ele><time>2026-03-29T10:25:37Z</time></trkpt><trkpt lat="45.41051170160618" lon="10.631846505468237"><ele>109.5</ele><time>2026-03-29T10:25:38Z</time></trkpt><trkpt lat="45.41066488036383" lon="10.631791005075938"><ele>108.0</ele><time>2026-03-29T10:25:39Z</time></trkpt><trkpt lat="45.41079465359527" lon="10.631747321257713"><ele>106.5</ele><time>2026-03-29T10:25:40Z</time></trkpt><trkpt lat="45.41090208279567" lon="10.6317311573228"><ele>105.0</ele><time>2026-03-29T10:25:41Z</time></trkpt><trkpt lat="45.410995965530255" lon="10.631718015693565"><ele>105.0</ele><time>2026-03-29T10:25:42Z</time></trkpt><trkpt lat="45.41107045700874" lon="10.631836925749381"><ele>105.0</ele><time>2026-03-29T10:25:43Z</time></trkpt><trkpt lat="45.411152503395655" lon="10.631909408975003"><ele>105.0</ele><time>2026-03-29T10:25:44Z</time></trkpt><trkpt lat="45.411231511360675" lon="10.631909367314623"><ele>105.0</ele><time>2026-03-29T10:25:45Z</time></trkpt><trkpt lat="45.41129757089269" lon="10.631837634707898"><ele>105.0</ele><time>2026-03-29T10:25:46Z</time></trkpt><trkpt lat="45.41134781260664" lon="10.631717835496172"><ele>104.75</ele><time>2026-03-29T10:25:47Z</time></trkpt><trkpt lat="45.41136163433065" lon="10.631565421687558"><ele>104.5</ele><time>2026-03-29T10:25:48Z</time></trkpt><trkpt lat="45.41134552823568" lon="10.63138029525149"><ele>104.25</ele><time>2026-03-29T10:25:49Z</time></trkpt><trkpt lat="45.41132888969379" lon="10.631167769368542"><ele>104.0</ele><time>2026-03-29T10:25:50Z</time></trkpt><trkpt lat="45.411325311851975" lon="10.630909103158679"><ele>102.33333333333333</ele><time>2026-03-29T10:25:51Z</time></trkpt><trkpt lat="45.41132603320253" lon="10.630610631089942"><ele>100.66666666666666</ele><time>2026-03-29T10:25:52Z</time></trkpt><trkpt lat="45.41135988184992" lon="10.630288094765463"><ele>99.0</ele><time>2026-03-29T10:25:53Z</time></trkpt><trkpt lat="45.411365420939156" lon="10.629942136889078"><ele>99.0</ele><time>2026-03-29T10:25:54Z</time></trkpt><trkpt lat="45.41137093376095" lon="10.629597819413931"><ele>99.0</ele><time>2026-03-29T10:25:55Z</time></trkpt><trkpt lat="45.41137649094879" lon="10.629250730632661"><ele>99.0</ele><time>2026-03-29T10:25:56Z</time></trkpt><trkpt lat="45.411381765414596" lon="10.628904334951379"><ele>99.0</ele><time>2026-03-29T10:25:57Z</time></trkpt><trkpt lat="45.41138510880747" lon="10.628564341612933"><ele>99.5</ele><time>2026-03-29T10:25:58Z</time></trkpt><trkpt lat="45.4113678319103" lon="10.628234620372"><ele>100.0</ele><time>2026-03-29T10:25:59Z</time></trkpt><trkpt lat="45.41135539721505" lon="10.627924498893384"><ele>100.5</ele><time>2026-03-29T10:26:00Z</time></trkpt><trkpt lat="45.411315994596336" lon="10.627609627037428"><ele>101.0</ele><time>2026-03-29T10:26:01Z</time></trkpt><trkpt lat="45.41124929491341" lon="10.627295745395644"><ele>101.0</ele><time>2026-03-29T10:26:02Z</time></trkpt><trkpt lat="45.411162222257836" lon="10.626990994575747"><ele>101.0</ele><time>2026-03-29T10:26:03Z</time></trkpt><trkpt lat="45.41107459012984" lon="10.626725295327244"><ele>101.0</ele><time>2026-03-29T10:26:04Z</time></trkpt><trkpt lat="45.41097607926225" lon="10.626493111104311"><ele>101.33333333333333</ele><time>2026-03-29T10:26:05Z</time></trkpt><trkpt lat="45.41086275829397" lon="10.62628664402674"><ele>101.66666666666666</ele><time>2026-03-29T10:26:06Z</time></trkpt><trkpt lat="45.41075724981593" lon="10.626098888403154"><ele>102.0</ele><time>2026-03-29T10:26:07Z</time></trkpt><trkpt lat="45.41067040872786" lon="10.625931444893414"><ele>101.0</ele><time>2026-03-29T10:26:08Z</time></trkpt><trkpt lat="45.41059529960693" lon="10.625791323686093"><ele>100.0</ele><time>2026-03-29T10:26:09Z</time></trkpt><trkpt lat="45.41053394328104" lon="10.625675957437975"><ele>99.0</ele><time>2026-03-29T10:26:10Z</time></trkpt><trkpt lat="45.41047981975541" lon="10.625593426684603"><ele>98.0</ele><time>2026-03-29T10:26:11Z</time></trkpt><trkpt lat="45.410393089603296" lon="10.625496215496804"><ele>97.0</ele><time>2026-03-29T10:26:13Z</time></trkpt><trkpt lat="45.41029833814848" lon="10.625471240721431"><ele>97.0</ele><time>2026-03-29T10:26:15Z</time></trkpt><trkpt lat="45.41020273102871" lon="10.625586763284607"><ele>97.0</ele><time>2026-03-29T10:26:16Z</time></trkpt><trkpt lat="45.410114297221334" lon="10.62570236948664"><ele>97.0</ele><time>2026-03-29T10:26:17Z</time></trkpt><trkpt lat="45.410004001869254" lon="10.62584110079375"><ele>97.0</ele><time>2026-03-29T10:26:18Z</time></trkpt><trkpt lat="45.40988068417567" lon="10.625982510915296"><ele>97.0</ele><time>2026-03-29T10:26:19Z</time></trkpt><trkpt lat="45.409737215422574" lon="10.626108435500706"><ele>97.0</ele><time>2026-03-29T10:26:20Z</time></trkpt><trkpt lat="45.409583838747544" lon="10.626225928780068"><ele>97.0</ele><time>2026-03-29T10:26:21Z</time></trkpt><trkpt lat="45.409430940610086" lon="10.62634810467342"><ele>96.33333333333334</ele><time>2026-03-29T10:26:22Z</time></trkpt><trkpt lat="45.40927422565316" lon="10.626477589856536"><ele>95.66666666666667</ele><time>2026-03-29T10:26:23Z</time></trkpt><trkpt lat="45.4091172739858" lon="10.626607381596882"><ele>95.0</ele><time>2026-03-29T10:26:24Z</time></trkpt><trkpt lat="45.40895036518588" lon="10.626736035049346"><ele>95.33333333333334</ele><time>2026-03-29T10:26:25Z</time></trkpt><trkpt lat="45.408792309896455" lon="10.626859347452845"><ele>95.66666666666667</ele><time>2026-03-29T10:26:26Z</time></trkpt><trkpt lat="45.40864182432598" lon="10.626975486556537"><ele>96.0</ele><time>2026-03-29T10:26:27Z</time></trkpt><trkpt lat="45.408498628684804" lon="10.627082297090615"><ele>97.33333333333334</ele><time>2026-03-29T10:26:28Z</time></trkpt><trkpt lat="45.40835502414998" lon="10.627175015287417"><ele>98.66666666666667</ele><time>2026-03-29T10:26:29Z</time></trkpt><trkpt lat="45.40820865642569" lon="10.627255753931301"><ele>100.0</ele><time>2026-03-29T10:26:30Z</time></trkpt><trkpt lat="45.40805429012895" lon="10.627302483606103"><ele>100.25</ele><time>2026-03-29T10:26:31Z</time></trkpt><trkpt lat="45.40789799832145" lon="10.627331194087054"><ele>100.5</ele><time>2026-03-29T10:26:32Z</time></trkpt><trkpt lat="45.40775662400424" lon="10.627397832709157"><ele>100.75</ele><time>2026-03-29T10:26:33Z</time></trkpt><trkpt lat="45.40765181931173" lon="10.627467617826248"><ele>101.0</ele><time>2026-03-29T10:26:34Z</time></trkpt><trkpt lat="45.407554050195785" lon="10.62753081879635"><ele>101.0</ele><time>2026-03-29T10:26:35Z</time></trkpt><trkpt lat="45.40744835675984" lon="10.627566542550687"><ele>101.0</ele><time>2026-03-29T10:26:36Z</time></trkpt><trkpt lat="45.407339120773116" lon="10.627608365584775"><ele>101.0</ele><time>2026-03-29T10:26:37Z</time></trkpt><trkpt lat="45.40722841097606" lon="10.62768046342513"><ele>101.0</ele><time>2026-03-29T10:26:38Z</time></trkpt><trkpt lat="45.40709962657659" lon="10.62767668350272"><ele>100.66666666666666</ele><time>2026-03-29T10:26:39Z</time></trkpt><trkpt lat="45.40693991141216" lon="10.627651500709167"><ele>100.33333333333334</ele><time>2026-03-29T10:26:40Z</time></trkpt><trkpt lat="45.40676674574995" lon="10.627621926552306"><ele>100.0</ele><time>2026-03-29T10:26:41Z</time></trkpt><trkpt lat="45.40656978614222" lon="10.627607393063387"><ele>100.0</ele><time>2026-03-29T10:26:42Z</time></trkpt><trkpt lat="45.40638032607959" lon="10.627542049494833"><ele>100.0</ele><time>2026-03-29T10:26:43Z</time></trkpt><trkpt lat="45.406183139526654" lon="10.627490456843715"><ele>100.0</ele><time>2026-03-29T10:26:44Z</time></trkpt><trkpt lat="45.40598135182038" lon="10.627433524354336"><ele>100.33333333333334</ele><time>2026-03-29T10:26:45Z</time></trkpt><trkpt lat="45.40577530383458" lon="10.627393361912283"><ele>100.66666666666666</ele><time>2026-03-29T10:26:46Z</time></trkpt><trkpt lat="45.40557103716686" lon="10.62731782031679"><ele>101.0</ele><time>2026-03-29T10:26:47Z</time></trkpt><trkpt lat="45.405378929577715" lon="10.627210255677767"><ele>103.0</ele><time>2026-03-29T10:26:48Z</time></trkpt><trkpt lat="45.405191051015045" lon="10.627103431572753"><ele>105.0</ele><time>2026-03-29T10:26:49Z</time></trkpt><trkpt lat="45.40501491747009" lon="10.627011102907113"><ele>107.0</ele><time>2026-03-29T10:26:50Z</time></trkpt><trkpt lat="45.40483411746522" lon="10.626967673724353"><ele>110.33333333333333</ele><time>2026-03-29T10:26:51Z</time></trkpt><trkpt lat="45.404670022160396" lon="10.626905634184586"><ele>113.66666666666666</ele><time>2026-03-29T10:26:52Z</time></trkpt><trkpt lat="45.40450629401527" lon="10.626864512731638"><ele>117.0</ele><time>2026-03-29T10:26:53Z</time></trkpt><trkpt lat="45.4043548178075" lon="10.626821938066419"><ele>118.5</ele><time>2026-03-29T10:26:54Z</time></trkpt><trkpt lat="45.40421724342922" lon="10.626793755456195"><ele>120.0</ele><time>2026-03-29T10:26:55Z</time></trkpt><trkpt lat="45.40408174711122" lon="10.626783565592142"><ele>121.5</ele><time>2026-03-29T10:26:56Z</time></trkpt><trkpt lat="45.403936678072604" lon="10.626786176002488"><ele>123.0</ele><time>2026-03-29T10:26:57Z</time></trkpt><trkpt lat="45.40380723467193" lon="10.62681165949364"><ele>123.2</ele><time>2026-03-29T10:26:58Z</time></trkpt><trkpt lat="45.403702695102325" lon="10.626845870757663"><ele>123.4</ele><time>2026-03-29T10:26:59Z</time></trkpt><trkpt lat="45.403609402153904" lon="10.626815537176128"><ele>123.60000000000001</ele><time>2026-03-29T10:27:00Z</time></trkpt><trkpt lat="45.40352334048413" lon="10.626791805731097"><ele>123.80000000000001</ele><time>2026-03-29T10:27:01Z</time></trkpt><trkpt lat="45.40345891306243" lon="10.626759672743527"><ele>124.0</ele><time>2026-03-29T10:27:02Z</time></trkpt><trkpt lat="45.403360161446365" lon="10.626718765245272"><ele>124.00000000000001</ele><time>2026-03-29T10:27:04Z</time></trkpt><trkpt lat="45.40333136645614" lon="10.626625412409314"><ele>124.0</ele><time>2026-03-29T10:27:06Z</time></trkpt><trkpt lat="45.40339385016856" lon="10.62649256037647"><ele>124.0</ele><time>2026-03-29T10:27:08Z</time></trkpt><trkpt lat="45.403426972752825" lon="10.626398780671883"><ele>124.0</ele><time>2026-03-29T10:27:09Z</time></trkpt><trkpt lat="45.40344864659934" lon="10.62629078138032"><ele>124.00000000000001</ele><time>2026-03-29T10:27:10Z</time></trkpt><trkpt lat="45.40347805504158" lon="10.626186207047319"><ele>124.0</ele><time>2026-03-29T10:27:11Z</time></trkpt><trkpt lat="45.40347885640815" lon="10.62609080006358"><ele>124.0</ele><time>2026-03-29T10:27:12Z</time></trkpt><trkpt lat="45.40347367687742" lon="10.6259928812928"><ele>124.00000000000001</ele><time>2026-03-29T10:27:13Z</time></trkpt><trkpt lat="45.403468566703296" lon="10.625899123183975"><ele>124.0</ele><time>2026-03-29T10:27:14Z</time></trkpt><trkpt lat="45.4034602179769" lon="10.625795611034464"><ele>124.0</ele><time>2026-03-29T10:27:15Z</time></trkpt><trkpt lat="45.403454292466286" lon="10.625698062895575"><ele>124.00000000000001</ele><time>2026-03-29T10:27:16Z</time></trkpt><trkpt lat="45.40345179277005" lon="10.625600689697658"><ele>124.0</ele><time>2026-03-29T10:27:17Z</time></trkpt><trkpt lat="45.403456546594924" lon="10.62549897283458"><ele>124.0</ele><time>2026-03-29T10:27:18Z</time></trkpt><trkpt lat="45.40350042332084" lon="10.625395827682386"><ele>123.42857142857143</ele><time>2026-03-29T10:27:19Z</time></trkpt><trkpt lat="45.4035261480594" lon="10.62529422084248"><ele>122.85714285714286</ele><time>2026-03-29T10:27:20Z</time></trkpt><trkpt lat="45.40356540068009" lon="10.625209301114259"><ele>122.28571428571429</ele><time>2026-03-29T10:27:21Z</time></trkpt><trkpt lat="45.40362570730475" lon="10.62517256870009"><ele>121.71428571428572</ele><time>2026-03-29T10:27:22Z</time></trkpt><trkpt lat="45.40367901696045" lon="10.62510531998378"><ele>121.14285714285714</ele><time>2026-03-29T10:27:23Z</time></trkpt><trkpt lat="45.40374293265039" lon="10.625037868368429"><ele>120.57142857142858</ele><time>2026-03-29T10:27:24Z</time></trkpt><trkpt lat="45.40380329774866" lon="10.624965065254463"><ele>120.0</ele><time>2026-03-29T10:27:25Z</time></trkpt><trkpt lat="45.4038597898787" lon="10.624893374446922"><ele>119.5</ele><time>2026-03-29T10:27:26Z</time></trkpt><trkpt lat="45.40391302081244" lon="10.624817087194062"><ele>119.0</ele><time>2026-03-29T10:27:27Z</time></trkpt><trkpt lat="45.403962639587284" lon="10.624747012698307"><ele>118.5</ele><time>2026-03-29T10:27:28Z</time></trkpt><trkpt lat="45.40399256524191" lon="10.624659050773685"><ele>118.0</ele><time>2026-03-29T10:27:29Z</time></trkpt><trkpt lat="45.40398293918199" lon="10.624554580978442"><ele>117.5</ele><time>2026-03-29T10:27:30Z</time></trkpt><trkpt lat="45.403939377969856" lon="10.624432366534265"><ele>117.0</ele><time>2026-03-29T10:27:31Z</time></trkpt><trkpt lat="45.40388908549697" lon="10.6242916715881"><ele>116.19999999999999</ele><time>2026-03-29T10:27:32Z</time></trkpt><trkpt lat="45.4038370066307" lon="10.624150887212291"><ele>115.39999999999999</ele><time>2026-03-29T10:27:33Z</time></trkpt><trkpt lat="45.40378588066033" lon="10.624026359674195"><ele>114.60000000000001</ele><time>2026-03-29T10:27:34Z</time></trkpt><trkpt lat="45.40374214471134" lon="10.623902383833993"><ele>113.80000000000001</ele><time>2026-03-29T10:27:35Z</time></trkpt><trkpt lat="45.40367700269865" lon="10.623789365995318"><ele>113.0</ele><time>2026-03-29T10:27:36Z</time></trkpt><trkpt lat="45.40361386809788" lon="10.623680500839495"><ele>111.80000000000001</ele><time>2026-03-29T10:27:37Z</time></trkpt><trkpt lat="45.403545788834656" lon="10.623562552654796"><ele>110.60000000000001</ele><time>2026-03-29T10:27:38Z</time></trkpt><trkpt lat="45.40348362917833" lon="10.623445462054752"><ele>109.39999999999999</ele><time>2026-03-29T10:27:39Z</time></trkpt><trkpt lat="45.40343172651723" lon="10.62331319598234"><ele>108.19999999999999</ele><time>2026-03-29T10:27:40Z</time></trkpt><trkpt lat="45.40341373271533" lon="10.623176331191248"><ele>107.0</ele><time>2026-03-29T10:27:41Z</time></trkpt><trkpt lat="45.403440711822164" lon="10.62304518341577"><ele>107.0</ele><time>2026-03-29T10:27:42Z</time></trkpt><trkpt lat="45.403497854049434" lon="10.622911727426297"><ele>107.0</ele><time>2026-03-29T10:27:43Z</time></trkpt><trkpt lat="45.40357183781314" lon="10.62273070382505"><ele>107.0</ele><time>2026-03-29T10:27:44Z</time></trkpt><trkpt lat="45.40363025739847" lon="10.622540560197342"><ele>107.0</ele><time>2026-03-29T10:27:45Z</time></trkpt><trkpt lat="45.40365025076731" lon="10.622309640797303"><ele>105.75</ele><time>2026-03-29T10:27:46Z</time></trkpt><trkpt lat="45.40369315342235" lon="10.622109814264775"><ele>104.5</ele><time>2026-03-29T10:27:47Z</time></trkpt><trkpt lat="45.40371772100844" lon="10.621915298958847"><ele>103.25</ele><time>2026-03-29T10:27:48Z</time></trkpt><trkpt lat="45.4037385220568" lon="10.621744407270867"><ele>102.0</ele><time>2026-03-29T10:27:49Z</time></trkpt><trkpt lat="45.403763138561196" lon="10.621557940650277"><ele>100.5</ele><time>2026-03-29T10:27:50Z</time></trkpt><trkpt lat="45.403788896724855" lon="10.621374836864494"><ele>99.0</ele><time>2026-03-29T10:27:51Z</time></trkpt><trkpt lat="45.403813086377795" lon="10.621194279498813"><ele>97.5</ele><time>2026-03-29T10:27:52Z</time></trkpt><trkpt lat="45.40383542628997" lon="10.621012521930005"><ele>96.0</ele><time>2026-03-29T10:27:53Z</time></trkpt><trkpt lat="45.40387369616868" lon="10.620827264586588"><ele>95.25</ele><time>2026-03-29T10:27:54Z</time></trkpt><trkpt lat="45.403932843620886" lon="10.620649398513505"><ele>94.5</ele><time>2026-03-29T10:27:55Z</time></trkpt><trkpt lat="45.404005898518825" lon="10.620497103544714"><ele>93.75</ele><time>2026-03-29T10:27:56Z</time></trkpt><trkpt lat="45.404088495005375" lon="10.620367351414588"><ele>93.0</ele><time>2026-03-29T10:27:57Z</time></trkpt><trkpt lat="45.40418532302657" lon="10.620232685879145"><ele>93.0</ele><time>2026-03-29T10:27:58Z</time></trkpt><trkpt lat="45.40429794943889" lon="10.620086586217154"><ele>93.0</ele><time>2026-03-29T10:27:59Z</time></trkpt><trkpt lat="45.40442020888151" lon="10.619940385527546"><ele>93.0</ele><time>2026-03-29T10:28:00Z</time></trkpt><trkpt lat="45.40452672780504" lon="10.619822496733574"><ele>93.0</ele><time>2026-03-29T10:28:01Z</time></trkpt><trkpt lat="45.40461755720253" lon="10.619731457587648"><ele>92.75</ele><time>2026-03-29T10:28:02Z</time></trkpt><trkpt lat="45.40471192140363" lon="10.61964616479831"><ele>92.5</ele><time>2026-03-29T10:28:03Z</time></trkpt><trkpt lat="45.40482303719302" lon="10.619552735687568"><ele>92.25</ele><time>2026-03-29T10:28:04Z</time></trkpt><trkpt lat="45.40494946514459" lon="10.619454846341094"><ele>92.0</ele><time>2026-03-29T10:28:05Z</time></trkpt><trkpt lat="45.40508611132277" lon="10.619325060550755"><ele>91.8</ele><time>2026-03-29T10:28:06Z</time></trkpt><trkpt lat="45.40520378408595" lon="10.61924247686682"><ele>91.6</ele><time>2026-03-29T10:28:07Z</time></trkpt><trkpt lat="45.40532041185723" lon="10.61919148352112"><ele>91.39999999999999</ele><time>2026-03-29T10:28:08Z</time></trkpt><trkpt lat="45.40538781018798" lon="10.619149795626052"><ele>91.19999999999999</ele><time>2026-03-29T10:28:09Z</time></trkpt><trkpt lat="45.40546755058127" lon="10.619173255810448"><ele>91.0</ele><time>2026-03-29T10:28:10Z</time></trkpt><trkpt lat="45.405599757879095" lon="10.619175019498792"><ele>91.0</ele><time>2026-03-29T10:28:11Z</time></trkpt><trkpt lat="45.40572534136245" lon="10.619228604973918"><ele>91.0</ele><time>2026-03-29T10:28:12Z</time></trkpt><trkpt lat="45.40587389400617" lon="10.619303463376811"><ele>91.0</ele><time>2026-03-29T10:28:13Z</time></trkpt><trkpt lat="45.40601691149293" lon="10.619397266306539"><ele>91.0</ele><time>2026-03-29T10:28:14Z</time></trkpt><trkpt lat="45.4061286059679" lon="10.619461954517925"><ele>91.0</ele><time>2026-03-29T10:28:15Z</time></trkpt><trkpt lat="45.406226985667324" lon="10.619507605450499"><ele>91.0</ele><time>2026-03-29T10:28:16Z</time></trkpt><trkpt lat="45.406325443068994" lon="10.61952319575639"><ele>91.0</ele><time>2026-03-29T10:28:17Z</time></trkpt><trkpt lat="45.40643347337536" lon="10.619518149489041"><ele>91.0</ele><time>2026-03-29T10:28:18Z</time></trkpt><trkpt lat="45.40652310680461" lon="10.619477886861079"><ele>91.0</ele><time>2026-03-29T10:28:19Z</time></trkpt><trkpt lat="45.40659665032328" lon="10.619420610144248"><ele>91.0</ele><time>2026-03-29T10:28:20Z</time></trkpt><trkpt lat="45.406655456328224" lon="10.61933546570727"><ele>91.0</ele><time>2026-03-29T10:28:21Z</time></trkpt><trkpt lat="45.406700173824674" lon="10.619221046900076"><ele>91.0</ele><time>2026-03-29T10:28:22Z</time></trkpt><trkpt lat="45.40671737455643" lon="10.61910830618448"><ele>91.0</ele><time>2026-03-29T10:28:23Z</time></trkpt><trkpt lat="45.40671399915753" lon="10.618967914005474"><ele>91.0</ele><time>2026-03-29T10:28:24Z</time></trkpt><trkpt lat="45.40668768821176" lon="10.618852390040393"><ele>91.0</ele><time>2026-03-29T10:28:25Z</time></trkpt><trkpt lat="45.40663298106498" lon="10.618744101972466"><ele>91.0</ele><time>2026-03-29T10:28:26Z</time></trkpt><trkpt lat="45.40655152149263" lon="10.618644063339197"><ele>91.0</ele><time>2026-03-29T10:28:27Z</time></trkpt><trkpt lat="45.40645104512359" lon="10.618542239469901"><ele>91.0</ele><time>2026-03-29T10:28:28Z</time></trkpt><trkpt lat="45.406353037720194" lon="10.618410580299752"><ele>91.0</ele><time>2026-03-29T10:28:29Z</time></trkpt><trkpt lat="45.40625306190517" lon="10.618282946652814"><ele>91.0</ele><time>2026-03-29T10:28:30Z</time></trkpt><trkpt lat="45.40615225757258" lon="10.618145141103644"><ele>91.0</ele><time>2026-03-29T10:28:31Z</time></trkpt><trkpt lat="45.40605096618671" lon="10.61800512050764"><ele>91.0</ele><time>2026-03-29T10:28:32Z</time></trkpt><trkpt lat="45.40593292964387" lon="10.617904767724403"><ele>91.0</ele><time>2026-03-29T10:28:33Z</time></trkpt><trkpt lat="45.40583781518765" lon="10.617813695610659"><ele>90.8</ele><time>2026-03-29T10:28:34Z</time></trkpt><trkpt lat="45.4057386208852" lon="10.617740471317333"><ele>90.6</ele><time>2026-03-29T10:28:35Z</time></trkpt><trkpt lat="45.40564129090038" lon="10.617674948258975"><ele>90.4</ele><time>2026-03-29T10:28:36Z</time></trkpt><trkpt lat="45.40556662500967" lon="10.617572869213442"><ele>90.2</ele><time>2026-03-29T10:28:37Z</time></trkpt><trkpt lat="45.40551244218116" lon="10.617476022502988"><ele>90.0</ele><time>2026-03-29T10:28:38Z</time></trkpt><trkpt lat="45.4054845647963" lon="10.617371288158873"><ele>90.0</ele><time>2026-03-29T10:28:39Z</time></trkpt><trkpt lat="45.40549040399577" lon="10.617258960997344"><ele>90.0</ele><time>2026-03-29T10:28:40Z</time></trkpt><trkpt lat="45.40549842848048" lon="10.617165680633862"><ele>90.0</ele><time>2026-03-29T10:28:41Z</time></trkpt><trkpt lat="45.40549192536508" lon="10.617025908117059"><ele>90.0</ele><time>2026-03-29T10:28:42Z</time></trkpt><trkpt lat="45.40547197142438" lon="10.616897029379915"><ele>90.0</ele><time>2026-03-29T10:28:43Z</time></trkpt><trkpt lat="45.40543517858963" lon="10.616742061247177"><ele>90.66666666666667</ele><time>2026-03-29T10:28:44Z</time></trkpt><trkpt lat="45.40542067452244" lon="10.61654278871285"><ele>91.33333333333334</ele><time>2026-03-29T10:28:45Z</time></trkpt><trkpt lat="45.405420140390895" lon="10.616325143967275"><ele>92.0</ele><time>2026-03-29T10:28:46Z</time></trkpt><trkpt lat="45.40542491436182" lon="10.616096032891315"><ele>92.33333333333334</ele><time>2026-03-29T10:28:47Z</time></trkpt><trkpt lat="45.405429763248534" lon="10.615827412394683"><ele>92.66666666666667</ele><time>2026-03-29T10:28:48Z</time></trkpt><trkpt lat="45.405433649482696" lon="10.615562358660409"><ele>93.0</ele><time>2026-03-29T10:28:49Z</time></trkpt><trkpt lat="45.40543497161694" lon="10.615341152179091"><ele>93.0</ele><time>2026-03-29T10:28:50Z</time></trkpt><trkpt lat="45.40543622494289" lon="10.615153863963751"><ele>93.0</ele><time>2026-03-29T10:28:51Z</time></trkpt><trkpt lat="45.40544745079914" lon="10.614987188397842"><ele>93.0</ele><time>2026-03-29T10:28:52Z</time></trkpt><trkpt lat="45.40547051215567" lon="10.614817986131078"><ele>93.0</ele><time>2026-03-29T10:28:53Z</time></trkpt><trkpt lat="45.40549915148835" lon="10.614641221358902"><ele>94.75</ele><time>2026-03-29T10:28:54Z</time></trkpt><trkpt lat="45.40552669477759" lon="10.614449539597514"><ele>96.5</ele><time>2026-03-29T10:28:55Z</time></trkpt><trkpt lat="45.40553622692245" lon="10.614236593949204"><ele>98.25</ele><time>2026-03-29T10:28:56Z</time></trkpt><trkpt lat="45.40554007389642" lon="10.614035812297056"><ele>100.0</ele><time>2026-03-29T10:28:57Z</time></trkpt><trkpt lat="45.405536978426156" lon="10.613829894554229"><ele>100.0</ele><time>2026-03-29T10:28:58Z</time></trkpt><trkpt lat="45.405536779678194" lon="10.613628655139877"><ele>100.0</ele><time>2026-03-29T10:28:59Z</time></trkpt><trkpt lat="45.405524244043484" lon="10.613450460696102"><ele>100.0</ele><time>2026-03-29T10:29:00Z</time></trkpt><trkpt lat="45.405515126805604" lon="10.613281174873132"><ele>100.0</ele><time>2026-03-29T10:29:01Z</time></trkpt><trkpt lat="45.405509694489794" lon="10.613127493440144"><ele>100.00000000000001</ele><time>2026-03-29T10:29:02Z</time></trkpt><trkpt lat="45.40551418976792" lon="10.612993881489453"><ele>100.0</ele><time>2026-03-29T10:29:03Z</time></trkpt><trkpt lat="45.40552913051005" lon="10.61286644507036"><ele>100.0</ele><time>2026-03-29T10:29:04Z</time></trkpt><trkpt lat="45.4055459466381" lon="10.612741612793434"><ele>100.0</ele><time>2026-03-29T10:29:05Z</time></trkpt><trkpt lat="45.40553707001377" lon="10.612616372163199"><ele>100.00000000000001</ele><time>2026-03-29T10:29:06Z</time></trkpt><trkpt lat="45.405541432213894" lon="10.612502300070451"><ele>100.0</ele><time>2026-03-29T10:29:07Z</time></trkpt><trkpt lat="45.405516434776445" lon="10.61240309037868"><ele>99.2</ele><time>2026-03-29T10:29:08Z</time></trkpt><trkpt lat="45.40547166954977" lon="10.612309341562488"><ele>98.4</ele><time>2026-03-29T10:29:09Z</time></trkpt><trkpt lat="45.4054340599831" lon="10.61221921077892"><ele>97.6</ele><time>2026-03-29T10:29:10Z</time></trkpt><trkpt lat="45.40537066570072" lon="10.612148098028905"><ele>96.8</ele><time>2026-03-29T10:29:11Z</time></trkpt><trkpt lat="45.40527960018421" lon="10.612072878435583"><ele>96.0</ele><time>2026-03-29T10:29:12Z</time></trkpt><trkpt lat="45.40516690400059" lon="10.612002552131496"><ele>96.33333333333333</ele><time>2026-03-29T10:29:13Z</time></trkpt><trkpt lat="45.405075741983524" lon="10.611911879625062"><ele>96.66666666666666</ele><time>2026-03-29T10:29:14Z</time></trkpt><trkpt lat="45.405000760039734" lon="10.61184026160503"><ele>97.0</ele><time>2026-03-29T10:29:15Z</time></trkpt><trkpt lat="45.40493597942644" lon="10.611760060432587"><ele>97.33333333333333</ele><time>2026-03-29T10:29:16Z</time></trkpt><trkpt lat="45.40491068903672" lon="10.611667300404038"><ele>97.66666666666666</ele><time>2026-03-29T10:29:17Z</time></trkpt><trkpt lat="45.4049287040773" lon="10.611546460229539"><ele>98.0</ele><time>2026-03-29T10:29:18Z</time></trkpt><trkpt lat="45.404913750662075" lon="10.61140174611029"><ele>98.0</ele><time>2026-03-29T10:29:19Z</time></trkpt><trkpt lat="45.40488565561224" lon="10.611228920741114"><ele>98.0</ele><time>2026-03-29T10:29:20Z</time></trkpt><trkpt lat="45.40487039875571" lon="10.611050030756704"><ele>98.0</ele><time>2026-03-29T10:29:21Z</time></trkpt><trkpt lat="45.404850206917125" lon="10.610876394947425"><ele>98.0</ele><time>2026-03-29T10:29:22Z</time></trkpt><trkpt lat="45.404862099934974" lon="10.610701262480031"><ele>98.33333333333333</ele><time>2026-03-29T10:29:23Z</time></trkpt><trkpt lat="45.404850439209085" lon="10.610498779813165"><ele>98.66666666666666</ele><time>2026-03-29T10:29:24Z</time></trkpt><trkpt lat="45.40485762215739" lon="10.610274391007144"><ele>99.0</ele><time>2026-03-29T10:29:25Z</time></trkpt><trkpt lat="45.40486950669797" lon="10.610027117729953"><ele>99.0</ele><time>2026-03-29T10:29:26Z</time></trkpt><trkpt lat="45.40490267344494" lon="10.60977944245735"><ele>99.0</ele><time>2026-03-29T10:29:27Z</time></trkpt><trkpt lat="45.40492414275145" lon="10.609546262519508"><ele>99.0</ele><time>2026-03-29T10:29:28Z</time></trkpt><trkpt lat="45.40493385628477" lon="10.609278107536511"><ele>99.5</ele><time>2026-03-29T10:29:29Z</time></trkpt><trkpt lat="45.404973685096856" lon="10.609052731709573"><ele>100.0</ele><time>2026-03-29T10:29:30Z</time></trkpt><trkpt lat="45.40499509189564" lon="10.608857396922502"><ele>100.5</ele><time>2026-03-29T10:29:31Z</time></trkpt><trkpt lat="45.40499320806885" lon="10.608662326849451"><ele>101.0</ele><time>2026-03-29T10:29:32Z</time></trkpt><trkpt lat="45.40500577314447" lon="10.608462369435804"><ele>101.0</ele><time>2026-03-29T10:29:33Z</time></trkpt><trkpt lat="45.40501629488188" lon="10.608259636473628"><ele>101.0</ele><time>2026-03-29T10:29:34Z</time></trkpt><trkpt lat="45.405017703836286" lon="10.608031396553885"><ele>101.0</ele><time>2026-03-29T10:29:35Z</time></trkpt><trkpt lat="45.405037773675474" lon="10.607792443411709"><ele>100.5</ele><time>2026-03-29T10:29:36Z</time></trkpt><trkpt lat="45.40504437494437" lon="10.607565687963001"><ele>100.0</ele><time>2026-03-29T10:29:37Z</time></trkpt><trkpt lat="45.40504929329211" lon="10.607360864663434"><ele>99.5</ele><time>2026-03-29T10:29:38Z</time></trkpt><trkpt lat="45.40505134546005" lon="10.607185248388395"><ele>99.0</ele><time>2026-03-29T10:29:39Z</time></trkpt><trkpt lat="45.40505546132228" lon="10.607015680801647"><ele>98.5</ele><time>2026-03-29T10:29:40Z</time></trkpt><trkpt lat="45.405076224342324" lon="10.606830078332274"><ele>98.0</ele><time>2026-03-29T10:29:41Z</time></trkpt><trkpt lat="45.40510141589894" lon="10.606637734040023"><ele>97.5</ele><time>2026-03-29T10:29:42Z</time></trkpt><trkpt lat="45.40512599057529" lon="10.606455802184662"><ele>97.0</ele><time>2026-03-29T10:29:43Z</time></trkpt><trkpt lat="45.40514804128806" lon="10.606308566358285"><ele>97.0</ele><time>2026-03-29T10:29:44Z</time></trkpt><trkpt lat="45.40517362750624" lon="10.606184880230499"><ele>97.0</ele><time>2026-03-29T10:29:45Z</time></trkpt><trkpt lat="45.405178727021465" lon="10.606007779552886"><ele>97.0</ele><time>2026-03-29T10:29:46Z</time></trkpt><trkpt lat="45.405223655205766" lon="10.605842356941402"><ele>97.0</ele><time>2026-03-29T10:29:47Z</time></trkpt><trkpt lat="45.4052408436323" lon="10.605678895713528"><ele>97.19999999999999</ele><time>2026-03-29T10:29:48Z</time></trkpt><trkpt lat="45.405251337929535" lon="10.605517504011678"><ele>97.4</ele><time>2026-03-29T10:29:49Z</time></trkpt><trkpt lat="45.405258619781456" lon="10.605352285199725"><ele>97.6</ele><time>2026-03-29T10:29:50Z</time></trkpt><trkpt lat="45.405254178362036" lon="10.605180002957413"><ele>97.80000000000001</ele><time>2026-03-29T10:29:51Z</time></trkpt><trkpt lat="45.40523004193049" lon="10.605067803356844"><ele>98.0</ele><time>2026-03-29T10:29:52Z</time></trkpt><trkpt lat="45.40521829218074" lon="10.604899700221369"><ele>98.0</ele><time>2026-03-29T10:29:54Z</time></trkpt><trkpt lat="45.40512262512976" lon="10.604807168476173"><ele>98.0</ele><time>2026-03-29T10:29:55Z</time></trkpt><trkpt lat="45.40506516396294" lon="10.604660769110604"><ele>98.0</ele><time>2026-03-29T10:29:56Z</time></trkpt><trkpt lat="45.40499771191681" lon="10.60452616905496"><ele>98.0</ele><time>2026-03-29T10:29:57Z</time></trkpt><trkpt lat="45.404948753737344" lon="10.604431121456576"><ele>98.0</ele><time>2026-03-29T10:29:58Z</time></trkpt><trkpt lat="45.404892325526276" lon="10.604328470539699"><ele>97.66666666666666</ele><time>2026-03-29T10:29:59Z</time></trkpt><trkpt lat="45.404824284931024" lon="10.60424544681141"><ele>97.33333333333333</ele><time>2026-03-29T10:30:00Z</time></trkpt><trkpt lat="45.40475694073178" lon="10.604212877029516"><ele>97.0</ele><time>2026-03-29T10:30:01Z</time></trkpt><trkpt lat="45.404654733096464" lon="10.604188947423031"><ele>96.66666666666666</ele><time>2026-03-29T10:30:03Z</time></trkpt><trkpt lat="45.404578795673665" lon="10.604234555373063"><ele>96.33333333333333</ele><time>2026-03-29T10:30:05Z</time></trkpt><trkpt lat="45.40450977740723" lon="10.60425328626441"><ele>96.0</ele><time>2026-03-29T10:30:09Z</time></trkpt><trkpt lat="45.404427105902116" lon="10.604201790515123"><ele>95.4</ele><time>2026-03-29T10:30:16Z</time></trkpt><trkpt lat="45.4043643546399" lon="10.604181118759945"><ele>94.8</ele><time>2026-03-29T10:30:18Z</time></trkpt><trkpt lat="45.40428102108899" lon="10.6040956816712"><ele>94.2</ele><time>2026-03-29T10:30:21Z</time></trkpt><trkpt lat="45.40418390927338" lon="10.604026859392771"><ele>93.60000000000001</ele><time>2026-03-29T10:30:23Z</time></trkpt><trkpt lat="45.40408543438051" lon="10.603978954690465"><ele>93.0</ele><time>2026-03-29T10:30:25Z</time></trkpt><trkpt lat="45.40401313637311" lon="10.603913744809386"><ele>93.0</ele><time>2026-03-29T10:30:26Z</time></trkpt><trkpt lat="45.40394850896465" lon="10.603862259375592"><ele>93.0</ele><time>2026-03-29T10:30:27Z</time></trkpt><trkpt lat="45.403895162023304" lon="10.603737158396157"><ele>93.0</ele><time>2026-03-29T10:30:29Z</time></trkpt><trkpt lat="45.40393417623956" lon="10.603608468254968"><ele>93.0</ele><time>2026-03-29T10:30:31Z</time></trkpt><trkpt lat="45.40396726019836" lon="10.603520103947941"><ele>93.0</ele><time>2026-03-29T10:30:32Z</time></trkpt><trkpt lat="45.404004618914676" lon="10.603394974285926"><ele>93.0</ele><time>2026-03-29T10:30:33Z</time></trkpt><trkpt lat="45.404032773661754" lon="10.603282635592118"><ele>93.0</ele><time>2026-03-29T10:30:34Z</time></trkpt><trkpt lat="45.4040499202412" lon="10.603155758288462"><ele>93.0</ele><time>2026-03-29T10:30:36Z</time></trkpt><trkpt lat="45.40398268670265" lon="10.603078120154327"><ele>93.0</ele><time>2026-03-29T10:30:38Z</time></trkpt><trkpt lat="45.40391238808929" lon="10.603062578949793"><ele>93.0</ele><time>2026-03-29T10:30:40Z</time></trkpt><trkpt lat="45.403847981086386" lon="10.60308568999244"><ele>93.0</ele><time>2026-03-29T10:30:41Z</time></trkpt><trkpt lat="45.40376627884195" lon="10.603096517418836"><ele>93.0</ele><time>2026-03-29T10:30:42Z</time></trkpt><trkpt lat="45.40364421474746" lon="10.603063280160109"><ele>93.33333333333333</ele><time>2026-03-29T10:30:44Z</time></trkpt><trkpt lat="45.40353112979203" lon="10.6030342723375"><ele>93.66666666666667</ele><time>2026-03-29T10:30:46Z</time></trkpt><trkpt lat="45.40346145527055" lon="10.603008262520605"><ele>94.0</ele><time>2026-03-29T10:30:47Z</time></trkpt><trkpt lat="45.40339073659979" lon="10.603015283590153"><ele>94.33333333333334</ele><time>2026-03-29T10:30:48Z</time></trkpt><trkpt lat="45.40330665934014" lon="10.602979446218464"><ele>94.66666666666667</ele><time>2026-03-29T10:30:50Z</time></trkpt><trkpt lat="45.40323139851677" lon="10.602934633306614"><ele>95.0</ele><time>2026-03-29T10:30:52Z</time></trkpt><trkpt lat="45.40314864642844" lon="10.602889561289276"><ele>95.0</ele><time>2026-03-29T10:30:55Z</time></trkpt><trkpt lat="45.40307325681664" lon="10.602873414084048"><ele>95.0</ele><time>2026-03-29T10:30:58Z</time></trkpt><trkpt lat="45.403001618816106" lon="10.602823987896548"><ele>95.0</ele><time>2026-03-29T10:34:12Z</time></trkpt><trkpt lat="45.40295346178304" lon="10.602762830688377"><ele>95.0</ele><time>2026-03-29T10:34:15Z</time></trkpt><trkpt lat="45.4029813993133" lon="10.602592711152196"><ele>95.0</ele><time>2026-03-29T10:34:20Z</time></trkpt><trkpt lat="45.40299397418336" lon="10.602407358464276"><ele>96.16666666666667</ele><time>2026-03-29T10:34:29Z</time></trkpt><trkpt lat="45.40299213434134" lon="10.602292769594468"><ele>97.33333333333334</ele><time>2026-03-29T10:34:30Z</time></trkpt><trkpt lat="45.40299306812506" lon="10.60216036935968"><ele>98.5</ele><time>2026-03-29T10:34:31Z</time></trkpt><trkpt lat="45.40299494344016" lon="10.602032800225446"><ele>99.66666666666667</ele><time>2026-03-29T10:34:32Z</time></trkpt><trkpt lat="45.40299319570321" lon="10.601941849592052"><ele>100.83333333333333</ele><time>2026-03-29T10:34:33Z</time></trkpt><trkpt lat="45.402994011210886" lon="10.601812162612715"><ele>102.0</ele><time>2026-03-29T10:34:35Z</time></trkpt><trkpt lat="45.40299459183531" lon="10.601635093698738"><ele>100.0</ele><time>2026-03-29T10:34:36Z</time></trkpt><trkpt lat="45.40300040671083" lon="10.60142180821509"><ele>98.0</ele><time>2026-03-29T10:34:37Z</time></trkpt><trkpt lat="45.40301431697336" lon="10.601191506747064"><ele>96.0</ele><time>2026-03-29T10:34:38Z</time></trkpt><trkpt lat="45.403036380084274" lon="10.600961579265837"><ele>96.0</ele><time>2026-03-29T10:34:39Z</time></trkpt><trkpt lat="45.403045705999396" lon="10.600756387476684"><ele>96.0</ele><time>2026-03-29T10:34:40Z</time></trkpt><trkpt lat="45.403051008486415" lon="10.600544321604591"><ele>96.0</ele><time>2026-03-29T10:34:41Z</time></trkpt><trkpt lat="45.40305429254959" lon="10.600337118214982"><ele>96.0</ele><time>2026-03-29T10:34:42Z</time></trkpt><trkpt lat="45.40304373803942" lon="10.600153388090439"><ele>96.25</ele><time>2026-03-29T10:34:43Z</time></trkpt><trkpt lat="45.403022783138724" lon="10.59996831956945"><ele>96.5</ele><time>2026-03-29T10:34:44Z</time></trkpt><trkpt lat="45.40300508673025" lon="10.599791881150304"><ele>96.75</ele><time>2026-03-29T10:34:45Z</time></trkpt><trkpt lat="45.40299871714717" lon="10.59962497657208"><ele>97.0</ele><time>2026-03-29T10:34:46Z</time></trkpt><trkpt lat="45.403012014112676" lon="10.599461425953303"><ele>97.0</ele><time>2026-03-29T10:34:47Z</time></trkpt><trkpt lat="45.40303680419008" lon="10.59927996180838"><ele>97.0</ele><time>2026-03-29T10:34:48Z</time></trkpt><trkpt lat="45.40303850002565" lon="10.599085946936416"><ele>97.0</ele><time>2026-03-29T10:34:49Z</time></trkpt><trkpt lat="45.40302693659999" lon="10.598901067318954"><ele>97.0</ele><time>2026-03-29T10:34:50Z</time></trkpt><trkpt lat="45.40302435344122" lon="10.598730133943182"><ele>96.8</ele><time>2026-03-29T10:34:51Z</time></trkpt><trkpt lat="45.40302457947278" lon="10.598587607670282"><ele>96.6</ele><time>2026-03-29T10:34:52Z</time></trkpt><trkpt lat="45.40303459594139" lon="10.598455281631386"><ele>96.39999999999999</ele><time>2026-03-29T10:34:53Z</time></trkpt><trkpt lat="45.40305316665388" lon="10.598321633095853"><ele>96.19999999999999</ele><time>2026-03-29T10:34:54Z</time></trkpt><trkpt lat="45.403056149722126" lon="10.5981944696942"><ele>96.0</ele><time>2026-03-29T10:34:55Z</time></trkpt><trkpt lat="45.40305711613755" lon="10.598048103726217"><ele>96.0</ele><time>2026-03-29T10:34:56Z</time></trkpt><trkpt lat="45.4030530357037" lon="10.597897569256679"><ele>96.0</ele><time>2026-03-29T10:34:57Z</time></trkpt><trkpt lat="45.4030545018555" lon="10.597784969766789"><ele>96.0</ele><time>2026-03-29T10:34:58Z</time></trkpt><trkpt lat="45.40305297541229" lon="10.597679136670353"><ele>96.0</ele><time>2026-03-29T10:34:59Z</time></trkpt><trkpt lat="45.403061398841594" lon="10.597547903612533"><ele>96.0</ele><time>2026-03-29T10:35:01Z</time></trkpt><trkpt lat="45.40318364708994" lon="10.597527572418704"><ele>96.0</ele><time>2026-03-29T10:35:03Z</time></trkpt><trkpt lat="45.40327041018818" lon="10.597540706727466"><ele>96.0</ele><time>2026-03-29T10:35:04Z</time></trkpt><trkpt lat="45.40335427360137" lon="10.59749674784092"><ele>96.0</ele><time>2026-03-29T10:35:06Z</time></trkpt><trkpt lat="45.40336967017789" lon="10.597277586082678"><ele>96.0</ele><time>2026-03-29T10:35:08Z</time></trkpt><trkpt lat="45.40337261340798" lon="10.5971151792502"><ele>96.0</ele><time>2026-03-29T10:35:09Z</time></trkpt><trkpt lat="45.403369776796936" lon="10.597000029077678"><ele>96.0</ele><time>2026-03-29T10:35:10Z</time></trkpt><trkpt lat="45.40330370138603" lon="10.596903406914496"><ele>96.0</ele><time>2026-03-29T10:35:13Z</time></trkpt><trkpt lat="45.40317592861493" lon="10.596893067890637"><ele>96.0</ele><time>2026-03-29T10:35:15Z</time></trkpt><trkpt lat="45.403085110267966" lon="10.596919985369004"><ele>96.0</ele><time>2026-03-29T10:35:16Z</time></trkpt><trkpt lat="45.402975152544606" lon="10.596938357777471"><ele>96.0</ele><time>2026-03-29T10:35:17Z</time></trkpt><trkpt lat="45.40284021280478" lon="10.596936611904724"><ele>97.5</ele><time>2026-03-29T10:35:18Z</time></trkpt><trkpt lat="45.402718204814605" lon="10.596932469947177"><ele>99.0</ele><time>2026-03-29T10:35:19Z</time></trkpt><trkpt lat="45.40259075954351" lon="10.596899637391894"><ele>100.5</ele><time>2026-03-29T10:35:20Z</time></trkpt><trkpt lat="45.40244797479519" lon="10.59686930875075"><ele>102.0</ele><time>2026-03-29T10:35:21Z</time></trkpt><trkpt lat="45.40231065693833" lon="10.596847027886014"><ele>102.0</ele><time>2026-03-29T10:35:22Z</time></trkpt><trkpt lat="45.40218842858876" lon="10.596818016901086"><ele>102.0</ele><time>2026-03-29T10:35:23Z</time></trkpt><trkpt lat="45.40207321641961" lon="10.596786051985344"><ele>102.0</ele><time>2026-03-29T10:35:24Z</time></trkpt><trkpt lat="45.40195098485821" lon="10.596753473441643"><ele>102.0</ele><time>2026-03-29T10:35:25Z</time></trkpt><trkpt lat="45.40185172789393" lon="10.596735505512552"><ele>103.16666666666667</ele><time>2026-03-29T10:35:26Z</time></trkpt><trkpt lat="45.40178363265813" lon="10.596705256642368"><ele>104.33333333333334</ele><time>2026-03-29T10:35:27Z</time></trkpt><trkpt lat="45.40169625243552" lon="10.596751197271402"><ele>105.5</ele><time>2026-03-29T10:35:29Z</time></trkpt><trkpt lat="45.40165407635784" lon="10.596820236059028"><ele>106.66666666666667</ele><time>2026-03-29T10:35:30Z</time></trkpt><trkpt lat="45.40161796588538" lon="10.596910663027746"><ele>107.83333333333334</ele><time>2026-03-29T10:35:31Z</time></trkpt><trkpt lat="45.401595868918946" lon="10.597001607033636"><ele>109.0</ele><time>2026-03-29T10:35:32Z</time></trkpt><trkpt lat="45.401540737675944" lon="10.597091559330613"><ele>109.57142857142857</ele><time>2026-03-29T10:35:34Z</time></trkpt><trkpt lat="45.401453840057044" lon="10.597080559793328"><ele>110.14285714285714</ele><time>2026-03-29T10:35:36Z</time></trkpt><trkpt lat="45.40138209804822" lon="10.597073411812318"><ele>110.71428571428572</ele><time>2026-03-29T10:35:37Z</time></trkpt><trkpt lat="45.401293700869076" lon="10.597061020590091"><ele>111.28571428571428</ele><time>2026-03-29T10:35:39Z</time></trkpt><trkpt lat="45.401230408797" lon="10.597079935687855"><ele>111.85714285714285</ele><time>2026-03-29T10:35:40Z</time></trkpt><trkpt lat="45.401163742694585" lon="10.597086632443718"><ele>112.42857142857143</ele><time>2026-03-29T10:35:41Z</time></trkpt><trkpt lat="45.40109513862378" lon="10.597106619678879"><ele>113.0</ele><time>2026-03-29T10:35:42Z</time></trkpt><trkpt lat="45.4010050559975" lon="10.597188112237484"><ele>114.33333333333333</ele><time>2026-03-29T10:35:44Z</time></trkpt><trkpt lat="45.40094961437359" lon="10.597264836468248"><ele>115.66666666666666</ele><time>2026-03-29T10:35:45Z</time></trkpt><trkpt lat="45.40088100706017" lon="10.597361657354444"><ele>117.0</ele><time>2026-03-29T10:35:46Z</time></trkpt><trkpt lat="45.40081828115975" lon="10.59741962282401"><ele>118.33333333333334</ele><time>2026-03-29T10:35:47Z</time></trkpt><trkpt lat="45.400743435729204" lon="10.59746870892931"><ele>119.66666666666667</ele><time>2026-03-29T10:35:48Z</time></trkpt><trkpt lat="45.4006567378466" lon="10.597517588610511"><ele>121.0</ele><time>2026-03-29T10:35:49Z</time></trkpt><trkpt lat="45.400501652902086" lon="10.597580210019103"><ele>120.0</ele><time>2026-03-29T10:35:50Z</time></trkpt><trkpt lat="45.4003779354834" lon="10.597583932915867"><ele>119.0</ele><time>2026-03-29T10:35:51Z</time></trkpt><trkpt lat="45.40029686721625" lon="10.59761097749847"><ele>118.0</ele><time>2026-03-29T10:35:52Z</time></trkpt><trkpt lat="45.400215382302996" lon="10.597636409155253"><ele>117.0</ele><time>2026-03-29T10:35:54Z</time></trkpt><trkpt lat="45.40015885533547" lon="10.597495037325128"><ele>116.0</ele><time>2026-03-29T10:35:57Z</time></trkpt><trkpt lat="45.40014668229077" lon="10.597313806522083"><ele>116.0</ele><time>2026-03-29T10:35:58Z</time></trkpt><trkpt lat="45.40013781966302" lon="10.597107157620863"><ele>116.0</ele><time>2026-03-29T10:35:59Z</time></trkpt><trkpt lat="45.40012212956683" lon="10.596872073702846"><ele>116.0</ele><time>2026-03-29T10:36:00Z</time></trkpt><trkpt lat="45.40009266656125" lon="10.596631256267035"><ele>116.33333333333333</ele><time>2026-03-29T10:36:01Z</time></trkpt><trkpt lat="45.400075768498894" lon="10.596388041474956"><ele>116.66666666666666</ele><time>2026-03-29T10:36:02Z</time></trkpt><trkpt lat="45.400081250531066" lon="10.596161015107358"><ele>117.0</ele><time>2026-03-29T10:36:03Z</time></trkpt><trkpt lat="45.40009873146305" lon="10.595947125007642"><ele>117.0</ele><time>2026-03-29T10:36:04Z</time></trkpt><trkpt lat="45.400108239824085" lon="10.595723413117128"><ele>117.0</ele><time>2026-03-29T10:36:05Z</time></trkpt><trkpt lat="45.400092201633655" lon="10.595490031316944"><ele>117.0</ele><time>2026-03-29T10:36:06Z</time></trkpt><trkpt lat="45.40004725341746" lon="10.595252821762513"><ele>116.33333333333334</ele><time>2026-03-29T10:36:07Z</time></trkpt><trkpt lat="45.39998129808862" lon="10.595013295480236"><ele>115.66666666666667</ele><time>2026-03-29T10:36:08Z</time></trkpt><trkpt lat="45.3999044064868" lon="10.59477079111866"><ele>115.0</ele><time>2026-03-29T10:36:09Z</time></trkpt><trkpt lat="45.39981143223326" lon="10.59453681542245"><ele>115.33333333333334</ele><time>2026-03-29T10:36:10Z</time></trkpt><trkpt lat="45.39970799887004" lon="10.594311557130306"><ele>115.66666666666666</ele><time>2026-03-29T10:36:11Z</time></trkpt><trkpt lat="45.399617350211976" lon="10.594114062114365"><ele>116.0</ele><time>2026-03-29T10:36:12Z</time></trkpt><trkpt lat="45.39953998487581" lon="10.593928055363227"><ele>115.75</ele><time>2026-03-29T10:36:13Z</time></trkpt><trkpt lat="45.39947610060226" lon="10.593753299323334"><ele>115.5</ele><time>2026-03-29T10:36:14Z</time></trkpt><trkpt lat="45.3994284254823" lon="10.59357905083417"><ele>115.25</ele><time>2026-03-29T10:36:15Z</time></trkpt><trkpt lat="45.39939914416064" lon="10.593399711960346"><ele>115.0</ele><time>2026-03-29T10:36:16Z</time></trkpt><trkpt lat="45.39939074955808" lon="10.593212512209238"><ele>115.0</ele><time>2026-03-29T10:36:17Z</time></trkpt><trkpt lat="45.39940772656705" lon="10.59301525753554"><ele>115.0</ele><time>2026-03-29T10:36:18Z</time></trkpt><trkpt lat="45.39940314132258" lon="10.592812976116457"><ele>115.0</ele><time>2026-03-29T10:36:19Z</time></trkpt><trkpt lat="45.39942347071021" lon="10.592624818940331"><ele>115.0</ele><time>2026-03-29T10:36:20Z</time></trkpt><trkpt lat="45.39943280392042" lon="10.592445200203452"><ele>115.25</ele><time>2026-03-29T10:36:21Z</time></trkpt><trkpt lat="45.39942316881697" lon="10.592264665335376"><ele>115.5</ele><time>2026-03-29T10:36:22Z</time></trkpt><trkpt lat="45.39940315077372" lon="10.592078596945916"><ele>115.75</ele><time>2026-03-29T10:36:23Z</time></trkpt><trkpt lat="45.39938144282608" lon="10.5918896774093"><ele>116.0</ele><time>2026-03-29T10:36:24Z</time></trkpt><trkpt lat="45.39936129937422" lon="10.59170757323179"><ele>115.5</ele><time>2026-03-29T10:36:25Z</time></trkpt><trkpt lat="45.399343529887254" lon="10.59152273618147"><ele>115.0</ele><time>2026-03-29T10:36:26Z</time></trkpt><trkpt lat="45.39931804306349" lon="10.591334630240343"><ele>114.5</ele><time>2026-03-29T10:36:27Z</time></trkpt><trkpt lat="45.399298437173755" lon="10.591149651552596"><ele>114.0</ele><time>2026-03-29T10:36:28Z</time></trkpt><trkpt lat="45.399276885828186" lon="10.590967654271633"><ele>113.0</ele><time>2026-03-29T10:36:29Z</time></trkpt><trkpt lat="45.39925336785381" lon="10.5907798793129"><ele>112.0</ele><time>2026-03-29T10:36:30Z</time></trkpt><trkpt lat="45.39922611625713" lon="10.590595752715874"><ele>111.0</ele><time>2026-03-29T10:36:31Z</time></trkpt><trkpt lat="45.39920073093459" lon="10.590411875806177"><ele>110.0</ele><time>2026-03-29T10:36:32Z</time></trkpt><trkpt lat="45.3991754119843" lon="10.590229193356896"><ele>110.0</ele><time>2026-03-29T10:36:33Z</time></trkpt><trkpt lat="45.3991589273232" lon="10.590039563562376"><ele>110.0</ele><time>2026-03-29T10:36:34Z</time></trkpt><trkpt lat="45.39913439703426" lon="10.589853214634168"><ele>110.0</ele><time>2026-03-29T10:36:35Z</time></trkpt><trkpt lat="45.399106670804294" lon="10.589674986302736"><ele>110.0</ele><time>2026-03-29T10:36:36Z</time></trkpt><trkpt lat="45.39907185450742" lon="10.589496439644346"><ele>109.5</ele><time>2026-03-29T10:36:37Z</time></trkpt><trkpt lat="45.39903557556061" lon="10.589316748190532"><ele>109.0</ele><time>2026-03-29T10:36:38Z</time></trkpt><trkpt lat="45.39899815113351" lon="10.589134862354072"><ele>108.5</ele><time>2026-03-29T10:36:39Z</time></trkpt><trkpt lat="45.398958115257976" lon="10.588953259005697"><ele>108.0</ele><time>2026-03-29T10:36:40Z</time></trkpt><trkpt lat="45.398914744647655" lon="10.588769458984459"><ele>108.0</ele><time>2026-03-29T10:36:41Z</time></trkpt><trkpt lat="45.39886921509699" lon="10.588588010415396"><ele>108.0</ele><time>2026-03-29T10:36:42Z</time></trkpt><trkpt lat="45.39882240905847" lon="10.588405927991625"><ele>108.0</ele><time>2026-03-29T10:36:43Z</time></trkpt><trkpt lat="45.39878076875504" lon="10.588216050563082"><ele>108.0</ele><time>2026-03-29T10:36:44Z</time></trkpt><trkpt lat="45.398734710500094" lon="10.588027293377678"><ele>107.5</ele><time>2026-03-29T10:36:45Z</time></trkpt><trkpt lat="45.39869712454308" lon="10.58783104355223"><ele>107.0</ele><time>2026-03-29T10:36:46Z</time></trkpt><trkpt lat="45.39864751625567" lon="10.587642538949396"><ele>106.5</ele><time>2026-03-29T10:36:47Z</time></trkpt><trkpt lat="45.39859951461037" lon="10.587450741266487"><ele>106.0</ele><time>2026-03-29T10:36:48Z</time></trkpt><trkpt lat="45.39855693576324" lon="10.587257503440185"><ele>106.0</ele><time>2026-03-29T10:36:49Z</time></trkpt><trkpt lat="45.39851956936767" lon="10.587066606463452"><ele>106.0</ele><time>2026-03-29T10:36:50Z</time></trkpt><trkpt lat="45.398475621975194" lon="10.58687648982144"><ele>106.0</ele><time>2026-03-29T10:36:51Z</time></trkpt><trkpt lat="45.39842847035568" lon="10.586693640205267"><ele>106.0</ele><time>2026-03-29T10:36:52Z</time></trkpt><trkpt lat="45.39837992445868" lon="10.586503583379697"><ele>106.0</ele><time>2026-03-29T10:36:53Z</time></trkpt><trkpt lat="45.398328210912105" lon="10.586318745794651"><ele>106.0</ele><time>2026-03-29T10:36:54Z</time></trkpt><trkpt lat="45.398273198621034" lon="10.586135570563634"><ele>106.0</ele><time>2026-03-29T10:36:55Z</time></trkpt><trkpt lat="45.398216035358445" lon="10.58594815001668"><ele>106.0</ele><time>2026-03-29T10:36:56Z</time></trkpt><trkpt lat="45.39816108488318" lon="10.585760284834151"><ele>105.75</ele><time>2026-03-29T10:36:57Z</time></trkpt><trkpt lat="45.39810667381997" lon="10.58557688944782"><ele>105.5</ele><time>2026-03-29T10:36:58Z</time></trkpt><trkpt lat="45.398055945765854" lon="10.585400883783137"><ele>105.25</ele><time>2026-03-29T10:36:59Z</time></trkpt><trkpt lat="45.39800762307393" lon="10.585239468932686"><ele>105.0</ele><time>2026-03-29T10:37:00Z</time></trkpt><trkpt lat="45.397963924120134" lon="10.585114694923767"><ele>104.6</ele><time>2026-03-29T10:37:01Z</time></trkpt><trkpt lat="45.39792805591557" lon="10.584999805170998"><ele>104.2</ele><time>2026-03-29T10:37:02Z</time></trkpt><trkpt lat="45.397906606247375" lon="10.58486742165889"><ele>103.80000000000001</ele><time>2026-03-29T10:37:04Z</time></trkpt><trkpt lat="45.39800300681398" lon="10.58486573478083"><ele>103.4</ele><time>2026-03-29T10:37:06Z</time></trkpt><trkpt lat="45.398076999027914" lon="10.584835370836617"><ele>103.0</ele><time>2026-03-29T10:37:07Z</time></trkpt><trkpt lat="45.398176238781474" lon="10.584853608145213"><ele>103.0</ele><time>2026-03-29T10:37:08Z</time></trkpt><trkpt lat="45.398298441490894" lon="10.584846962094417"><ele>103.0</ele><time>2026-03-29T10:37:09Z</time></trkpt><trkpt lat="45.39843457015093" lon="10.584833339007622"><ele>103.0</ele><time>2026-03-29T10:37:10Z</time></trkpt><trkpt lat="45.39857753221666" lon="10.584830908884184"><ele>103.0</ele><time>2026-03-29T10:37:11Z</time></trkpt><trkpt lat="45.39871135943131" lon="10.584839266577921"><ele>102.25</ele><time>2026-03-29T10:37:12Z</time></trkpt><trkpt lat="45.39883728776212" lon="10.584852023281071"><ele>101.5</ele><time>2026-03-29T10:37:13Z</time></trkpt><trkpt lat="45.39895636106893" lon="10.584870899356089"><ele>100.75</ele><time>2026-03-29T10:37:14Z</time></trkpt><trkpt lat="45.39908058339425" lon="10.58488703851787"><ele>100.0</ele><time>2026-03-29T10:37:15Z</time></trkpt><trkpt lat="45.39921499701635" lon="10.58490468011268"><ele>100.0</ele><time>2026-03-29T10:37:16Z</time></trkpt><trkpt lat="45.399348038425515" lon="10.584916215963057"><ele>100.0</ele><time>2026-03-29T10:37:17Z</time></trkpt><trkpt lat="45.39948238359869" lon="10.584916739307427"><ele>100.0</ele><time>2026-03-29T10:37:18Z</time></trkpt><trkpt lat="45.39961696736764" lon="10.584917497637793"><ele>100.0</ele><time>2026-03-29T10:37:19Z</time></trkpt><trkpt lat="45.3997521251704" lon="10.58491534917174"><ele>99.5</ele><time>2026-03-29T10:37:20Z</time></trkpt><trkpt lat="45.39989173194332" lon="10.584913334494047"><ele>99.0</ele><time>2026-03-29T10:37:21Z</time></trkpt><trkpt lat="45.400031488669335" lon="10.584913592178498"><ele>98.5</ele><time>2026-03-29T10:37:22Z</time></trkpt><trkpt lat="45.40017054894603" lon="10.58490713997594"><ele>98.0</ele><time>2026-03-29T10:37:23Z</time></trkpt><trkpt lat="45.400314656840166" lon="10.584896360124043"><ele>98.0</ele><time>2026-03-29T10:37:24Z</time></trkpt><trkpt lat="45.40047083911943" lon="10.584874809290802"><ele>98.0</ele><time>2026-03-29T10:37:25Z</time></trkpt><trkpt lat="45.40061728270276" lon="10.584852589080295"><ele>98.0</ele><time>2026-03-29T10:37:26Z</time></trkpt><trkpt lat="45.400733519498665" lon="10.584828232064696"><ele>98.0</ele><time>2026-03-29T10:37:27Z</time></trkpt><trkpt lat="45.40084341608733" lon="10.584802526708552"><ele>98.0</ele><time>2026-03-29T10:37:28Z</time></trkpt><trkpt lat="45.400948058643955" lon="10.584796148869417"><ele>98.0</ele><time>2026-03-29T10:37:29Z</time></trkpt><trkpt lat="45.4010491417474" lon="10.584786443292609"><ele>98.0</ele><time>2026-03-29T10:37:30Z</time></trkpt><trkpt lat="45.40114801494399" lon="10.584788903934747"><ele>98.0</ele><time>2026-03-29T10:37:31Z</time></trkpt><trkpt lat="45.40124910159687" lon="10.5848091775328"><ele>98.0</ele><time>2026-03-29T10:37:32Z</time></trkpt><trkpt lat="45.40135614092605" lon="10.584818018918481"><ele>98.0</ele><time>2026-03-29T10:37:33Z</time></trkpt><trkpt lat="45.40146908486089" lon="10.584833364340666"><ele>98.0</ele><time>2026-03-29T10:37:34Z</time></trkpt><trkpt lat="45.40158007741947" lon="10.584836442126383"><ele>98.0</ele><time>2026-03-29T10:37:35Z</time></trkpt><trkpt lat="45.401694278553094" lon="10.584860337861548"><ele>98.0</ele><time>2026-03-29T10:37:36Z</time></trkpt><trkpt lat="45.40181024054933" lon="10.584897996340413"><ele>98.0</ele><time>2026-03-29T10:37:37Z</time></trkpt><trkpt lat="45.401924034888296" lon="10.58494224140053"><ele>98.0</ele><time>2026-03-29T10:37:38Z</time></trkpt><trkpt lat="45.402030726596884" lon="10.584971282030768"><ele>98.0</ele><time>2026-03-29T10:37:39Z</time></trkpt><trkpt lat="45.40212898667177" lon="10.584995427738312"><ele>98.0</ele><time>2026-03-29T10:37:40Z</time></trkpt><trkpt lat="45.40220888959963" lon="10.585015543117223"><ele>98.0</ele><time>2026-03-29T10:37:41Z</time></trkpt><trkpt lat="45.40231106788439" lon="10.58498747739412"><ele>97.75</ele><time>2026-03-29T10:37:43Z</time></trkpt><trkpt lat="45.40236631327196" lon="10.584784974574372"><ele>97.5</ele><time>2026-03-29T10:37:45Z</time></trkpt><trkpt lat="45.40240015838071" lon="10.584629047408322"><ele>97.25</ele><time>2026-03-29T10:37:46Z</time></trkpt><trkpt lat="45.40245549026849" lon="10.584466565800907"><ele>97.0</ele><time>2026-03-29T10:37:47Z</time></trkpt><trkpt lat="45.40249920768742" lon="10.584292923954038"><ele>97.0</ele><time>2026-03-29T10:37:48Z</time></trkpt><trkpt lat="45.402536468879724" lon="10.584099762371753"><ele>97.0</ele><time>2026-03-29T10:37:49Z</time></trkpt><trkpt lat="45.40260924346556" lon="10.583914968583391"><ele>97.0</ele><time>2026-03-29T10:37:50Z</time></trkpt><trkpt lat="45.402682095256594" lon="10.5837174806464"><ele>97.0</ele><time>2026-03-29T10:37:51Z</time></trkpt><trkpt lat="45.402748250617776" lon="10.583510356346565"><ele>97.33333333333334</ele><time>2026-03-29T10:37:52Z</time></trkpt><trkpt lat="45.402824419435106" lon="10.583323597145313"><ele>97.66666666666666</ele><time>2026-03-29T10:37:53Z</time></trkpt><trkpt lat="45.402897818872354" lon="10.583135409827209"><ele>98.0</ele><time>2026-03-29T10:37:54Z</time></trkpt><trkpt lat="45.40297222941878" lon="10.582942271418169"><ele>97.25</ele><time>2026-03-29T10:37:55Z</time></trkpt><trkpt lat="45.4030472158031" lon="10.582772577082256"><ele>96.5</ele><time>2026-03-29T10:37:56Z</time></trkpt><trkpt lat="45.40311814830672" lon="10.582601879984182"><ele>95.75</ele><time>2026-03-29T10:37:57Z</time></trkpt><trkpt lat="45.4032196284472" lon="10.582435873016559"><ele>95.0</ele><time>2026-03-29T10:37:58Z</time></trkpt><trkpt lat="45.40331469387874" lon="10.582245650271483"><ele>95.0</ele><time>2026-03-29T10:37:59Z</time></trkpt><trkpt lat="45.40338929818102" lon="10.582035663604989"><ele>95.0</ele><time>2026-03-29T10:38:00Z</time></trkpt><trkpt lat="45.403462779479064" lon="10.581836771234903"><ele>95.0</ele><time>2026-03-29T10:38:01Z</time></trkpt><trkpt lat="45.40352400592749" lon="10.581651133508652"><ele>95.0</ele><time>2026-03-29T10:38:02Z</time></trkpt><trkpt lat="45.4035939299076" lon="10.581488257087276"><ele>95.0</ele><time>2026-03-29T10:38:03Z</time></trkpt><trkpt lat="45.403643288517294" lon="10.5813205823503"><ele>95.0</ele><time>2026-03-29T10:38:04Z</time></trkpt><trkpt lat="45.40370889995007" lon="10.581187014256333"><ele>95.0</ele><time>2026-03-29T10:38:05Z</time></trkpt><trkpt lat="45.403750934968954" lon="10.581040116617459"><ele>95.2</ele><time>2026-03-29T10:38:06Z</time></trkpt><trkpt lat="45.403817884839995" lon="10.580934227671662"><ele>95.4</ele><time>2026-03-29T10:38:07Z</time></trkpt><trkpt lat="45.40386834786384" lon="10.580822432969068"><ele>95.6</ele><time>2026-03-29T10:38:08Z</time></trkpt><trkpt lat="45.403905594808776" lon="10.58070754670395"><ele>95.8</ele><time>2026-03-29T10:38:09Z</time></trkpt><trkpt lat="45.4039492254303" lon="10.580571112972738"><ele>96.0</ele><time>2026-03-29T10:38:10Z</time></trkpt><trkpt lat="45.403996588537" lon="10.580432095958178"><ele>96.0</ele><time>2026-03-29T10:38:11Z</time></trkpt><trkpt lat="45.40405416727223" lon="10.580262810643395"><ele>96.0</ele><time>2026-03-29T10:38:12Z</time></trkpt><trkpt lat="45.40411981327358" lon="10.580078067336112"><ele>96.0</ele><time>2026-03-29T10:38:13Z</time></trkpt><trkpt lat="45.40418978878742" lon="10.57988784446352"><ele>96.0</ele><time>2026-03-29T10:38:14Z</time></trkpt><trkpt lat="45.40424807571649" lon="10.579691335250933"><ele>96.25</ele><time>2026-03-29T10:38:15Z</time></trkpt><trkpt lat="45.40432636035856" lon="10.579507650961435"><ele>96.5</ele><time>2026-03-29T10:38:16Z</time></trkpt><trkpt lat="45.40440290330677" lon="10.579331256516621"><ele>96.75</ele><time>2026-03-29T10:38:17Z</time></trkpt><trkpt lat="45.40447995801286" lon="10.579152044396956"><ele>97.0</ele><time>2026-03-29T10:38:18Z</time></trkpt><trkpt lat="45.40455889115304" lon="10.578962121271568"><ele>97.0</ele><time>2026-03-29T10:38:19Z</time></trkpt><trkpt lat="45.40464551174775" lon="10.578800017013286"><ele>97.0</ele><time>2026-03-29T10:38:20Z</time></trkpt><trkpt lat="45.404714445445336" lon="10.578596463307061"><ele>97.0</ele><time>2026-03-29T10:38:21Z</time></trkpt><trkpt lat="45.40480502344211" lon="10.578432959115139"><ele>97.0</ele><time>2026-03-29T10:38:22Z</time></trkpt><trkpt lat="45.4048795322215" lon="10.57826938830569"><ele>96.5</ele><time>2026-03-29T10:38:23Z</time></trkpt><trkpt lat="45.40495380785726" lon="10.57810519079968"><ele>96.0</ele><time>2026-03-29T10:38:24Z</time></trkpt><trkpt lat="45.40502415287137" lon="10.577946328823364"><ele>95.5</ele><time>2026-03-29T10:38:25Z</time></trkpt><trkpt lat="45.40509542870824" lon="10.577781588426229"><ele>95.0</ele><time>2026-03-29T10:38:26Z</time></trkpt><trkpt lat="45.40516401497137" lon="10.577601028844361"><ele>95.0</ele><time>2026-03-29T10:38:27Z</time></trkpt><trkpt lat="45.405214857521855" lon="10.577402639072423"><ele>95.0</ele><time>2026-03-29T10:38:28Z</time></trkpt><trkpt lat="45.40526996546189" lon="10.577209744039067"><ele>95.0</ele><time>2026-03-29T10:38:29Z</time></trkpt><trkpt lat="45.40532253510025" lon="10.577029643714528"><ele>95.0</ele><time>2026-03-29T10:38:30Z</time></trkpt><trkpt lat="45.405368387472" lon="10.57687146634475"><ele>95.2</ele><time>2026-03-29T10:38:31Z</time></trkpt><trkpt lat="45.405405792210615" lon="10.576739567815986"><ele>95.4</ele><time>2026-03-29T10:38:32Z</time></trkpt><trkpt lat="45.40542304037795" lon="10.576652144343118"><ele>95.6</ele><time>2026-03-29T10:38:33Z</time></trkpt><trkpt lat="45.40544227184531" lon="10.576511128565773"><ele>95.8</ele><time>2026-03-29T10:38:35Z</time></trkpt><trkpt lat="45.405306366269556" lon="10.57645336052525"><ele>96.0</ele><time>2026-03-29T10:38:36Z</time></trkpt><trkpt lat="45.405204475898074" lon="10.576393927068631"><ele>96.0</ele><time>2026-03-29T10:38:37Z</time></trkpt><trkpt lat="45.40508052335105" lon="10.576304152336983"><ele>96.0</ele><time>2026-03-29T10:38:38Z</time></trkpt><trkpt lat="45.40494744517008" lon="10.576217851122312"><ele>96.0</ele><time>2026-03-29T10:38:39Z</time></trkpt><trkpt lat="45.40482531424733" lon="10.57614176495373"><ele>96.0</ele><time>2026-03-29T10:38:40Z</time></trkpt><trkpt lat="45.40471324288755" lon="10.576073338245106"><ele>96.25</ele><time>2026-03-29T10:38:41Z</time></trkpt><trkpt lat="45.4046006268183" lon="10.576005480543893"><ele>96.5</ele><time>2026-03-29T10:38:42Z</time></trkpt><trkpt lat="45.40448603671439" lon="10.575936433420576"><ele>96.75</ele><time>2026-03-29T10:38:43Z</time></trkpt><trkpt lat="45.40437910838626" lon="10.575872002964525"><ele>97.0</ele><time>2026-03-29T10:38:44Z</time></trkpt><trkpt lat="45.40426624733562" lon="10.575829197070957"><ele>97.0</ele><time>2026-03-29T10:38:45Z</time></trkpt><trkpt lat="45.404167692815285" lon="10.575744277393698"><ele>97.0</ele><time>2026-03-29T10:38:46Z</time></trkpt><trkpt lat="45.404061366115826" lon="10.575678369477522"><ele>97.0</ele><time>2026-03-29T10:38:47Z</time></trkpt><trkpt lat="45.403959964069415" lon="10.575615514231966"><ele>97.0</ele><time>2026-03-29T10:38:48Z</time></trkpt><trkpt lat="45.40385878162263" lon="10.575553841476042"><ele>97.19999999999999</ele><time>2026-03-29T10:38:49Z</time></trkpt><trkpt lat="45.40376426166844" lon="10.575497104669259"><ele>97.4</ele><time>2026-03-29T10:38:50Z</time></trkpt><trkpt lat="45.40368312620885" lon="10.575448388481908"><ele>97.6</ele><time>2026-03-29T10:38:51Z</time></trkpt><trkpt lat="45.40359564917243" lon="10.575394816677644"><ele>97.80000000000001</ele><time>2026-03-29T10:38:52Z</time></trkpt><trkpt lat="45.40350899284775" lon="10.57534174753261"><ele>98.0</ele><time>2026-03-29T10:38:53Z</time></trkpt><trkpt lat="45.40341007275924" lon="10.575306415265674"><ele>97.99999999999999</ele><time>2026-03-29T10:38:54Z</time></trkpt><trkpt lat="45.40332295092895" lon="10.575242521134408"><ele>98.0</ele><time>2026-03-29T10:38:55Z</time></trkpt><trkpt lat="45.403228403607955" lon="10.57519307653822"><ele>98.0</ele><time>2026-03-29T10:38:56Z</time></trkpt><trkpt lat="45.40314722966541" lon="10.575136510893234"><ele>98.0</ele><time>2026-03-29T10:38:57Z</time></trkpt><trkpt lat="45.40306966774611" lon="10.575094594437799"><ele>97.99999999999999</ele><time>2026-03-29T10:38:58Z</time></trkpt><trkpt lat="45.40300180513136" lon="10.57505214078319"><ele>98.0</ele><time>2026-03-29T10:38:59Z</time></trkpt><trkpt lat="45.40293727888964" lon="10.575011808223058"><ele>98.0</ele><time>2026-03-29T10:39:00Z</time></trkpt><trkpt lat="45.40286504390317" lon="10.574983006624892"><ele>98.0</ele><time>2026-03-29T10:39:01Z</time></trkpt><trkpt lat="45.40280202922618" lon="10.574964821981238"><ele>98.0</ele><time>2026-03-29T10:39:03Z</time></trkpt><trkpt lat="45.40268310742976" lon="10.574951002265236"><ele>98.0</ele><time>2026-03-29T10:39:06Z</time></trkpt><trkpt lat="45.4025954978994" lon="10.574938894656553"><ele>98.0</ele><time>2026-03-29T10:39:07Z</time></trkpt><trkpt lat="45.40249444156332" lon="10.574899300555153"><ele>98.0</ele><time>2026-03-29T10:39:08Z</time></trkpt><trkpt lat="45.40242983424371" lon="10.57480757968548"><ele>98.0</ele><time>2026-03-29T10:39:09Z</time></trkpt><trkpt lat="45.402375251245225" lon="10.574748072771056"><ele>98.0</ele><time>2026-03-29T10:39:10Z</time></trkpt><trkpt lat="45.40231544375159" lon="10.574671308017656"><ele>98.0</ele><time>2026-03-29T10:39:11Z</time></trkpt><trkpt lat="45.40222707680026" lon="10.57454853850677"><ele>98.0</ele><time>2026-03-29T10:39:12Z</time></trkpt><trkpt lat="45.40211195184098" lon="10.574387794104068"><ele>98.0</ele><time>2026-03-29T10:39:13Z</time></trkpt><trkpt lat="45.40197422488347" lon="10.57422488057242"><ele>98.0</ele><time>2026-03-29T10:39:14Z</time></trkpt><trkpt lat="45.40184344957874" lon="10.574038152139105"><ele>98.0</ele><time>2026-03-29T10:39:15Z</time></trkpt><trkpt lat="45.401738326362356" lon="10.573853952737112"><ele>97.66666666666666</ele><time>2026-03-29T10:39:16Z</time></trkpt><trkpt lat="45.401601813717335" lon="10.573656559489628"><ele>97.33333333333334</ele><time>2026-03-29T10:39:17Z</time></trkpt><trkpt lat="45.401441939330276" lon="10.573425600849985"><ele>97.0</ele><time>2026-03-29T10:39:18Z</time></trkpt><trkpt lat="45.401292657020825" lon="10.573220392178484"><ele>97.0</ele><time>2026-03-29T10:39:19Z</time></trkpt><trkpt lat="45.401174210790636" lon="10.573031115027906"><ele>97.0</ele><time>2026-03-29T10:39:20Z</time></trkpt><trkpt lat="45.40106100915012" lon="10.572868910736622"><ele>97.0</ele><time>2026-03-29T10:39:21Z</time></trkpt><trkpt lat="45.40095993437057" lon="10.572726965580989"><ele>97.6</ele><time>2026-03-29T10:39:22Z</time></trkpt><trkpt lat="45.40087674127219" lon="10.572603667613132"><ele>98.19999999999999</ele><time>2026-03-29T10:39:23Z</time></trkpt><trkpt lat="45.40082715219124" lon="10.572471169974108"><ele>98.8</ele><time>2026-03-29T10:39:24Z</time></trkpt><trkpt lat="45.40082730689723" lon="10.572332475673017"><ele>99.4</ele><time>2026-03-29T10:39:25Z</time></trkpt><trkpt lat="45.40090483909578" lon="10.572197063535933"><ele>100.0</ele><time>2026-03-29T10:39:26Z</time></trkpt><trkpt lat="45.40090685785389" lon="10.572041248650915"><ele>101.75</ele><time>2026-03-29T10:39:27Z</time></trkpt><trkpt lat="45.400918155768885" lon="10.571879044574148"><ele>103.5</ele><time>2026-03-29T10:39:28Z</time></trkpt><trkpt lat="45.40089852937244" lon="10.57170180668332"><ele>105.25</ele><time>2026-03-29T10:39:29Z</time></trkpt><trkpt lat="45.40083449030142" lon="10.571551222382169"><ele>107.0</ele><time>2026-03-29T10:39:30Z</time></trkpt><trkpt lat="45.40076010339634" lon="10.571444684828153"><ele>107.0</ele><time>2026-03-29T10:39:31Z</time></trkpt><trkpt lat="45.400702080434506" lon="10.571373640043868"><ele>106.99999999999999</ele><time>2026-03-29T10:39:32Z</time></trkpt><trkpt lat="45.40065276137982" lon="10.571260489345802"><ele>106.99999999999999</ele><time>2026-03-29T10:39:34Z</time></trkpt><trkpt lat="45.400708181515164" lon="10.571384183959516"><ele>107.0</ele><time>2026-03-29T10:39:40Z</time></trkpt><trkpt lat="45.400748806702396" lon="10.571483035309093"><ele>107.0</ele><time>2026-03-29T10:39:41Z</time></trkpt><trkpt lat="45.40081893463922" lon="10.571592366398118"><ele>106.99999999999999</ele><time>2026-03-29T10:39:43Z</time></trkpt><trkpt lat="45.40086081589998" lon="10.571687638872925"><ele>107.0</ele><time>2026-03-29T10:39:44Z</time></trkpt><trkpt lat="45.40089824134703" lon="10.57180459601869"><ele>107.0</ele><time>2026-03-29T10:39:45Z</time></trkpt><trkpt lat="45.400912226995246" lon="10.571922929745371"><ele>107.0</ele><time>2026-03-29T10:39:46Z</time></trkpt><trkpt lat="45.40090886443801" lon="10.572050826934442"><ele>106.99999999999999</ele><time>2026-03-29T10:39:47Z</time></trkpt><trkpt lat="45.400897445966564" lon="10.572149873057809"><ele>107.0</ele><time>2026-03-29T10:39:48Z</time></trkpt><trkpt lat="45.40094110342738" lon="10.572221440328313"><ele>106.99999999999999</ele><time>2026-03-29T10:39:51Z</time></trkpt><trkpt lat="45.4009976390998" lon="10.572178088381142"><ele>107.0</ele><time>2026-03-29T10:39:53Z</time></trkpt><trkpt lat="45.401092605372114" lon="10.572109250976608"><ele>107.0</ele><time>2026-03-29T10:39:55Z</time></trkpt><trkpt lat="45.40115354261568" lon="10.572045040262351"><ele>107.0</ele><time>2026-03-29T10:39:59Z</time></trkpt><trkpt lat="45.40121887542521" lon="10.571978406381508"><ele>106.99999999999999</ele><time>2026-03-29T10:40:02Z</time></trkpt><trkpt lat="45.40127010449748" lon="10.571926157009841"><ele>107.0</ele><time>2026-03-29T10:40:04Z</time></trkpt><trkpt lat="45.40133990566506" lon="10.571854960840234"><ele>105.8</ele><time>2026-03-29T10:40:08Z</time></trkpt><trkpt lat="45.401425564654424" lon="10.571772299193702"><ele>104.6</ele><time>2026-03-29T10:40:10Z</time></trkpt><trkpt lat="45.40149406457595" lon="10.571693197226537"><ele>103.39999999999999</ele><time>2026-03-29T10:40:11Z</time></trkpt><trkpt lat="45.40155016003135" lon="10.57160492541873"><ele>102.19999999999999</ele><time>2026-03-29T10:40:12Z</time></trkpt><trkpt lat="45.401600323823644" lon="10.571508811254635"><ele>101.0</ele><time>2026-03-29T10:40:13Z</time></trkpt><trkpt lat="45.401636586050124" lon="10.57137358746695"><ele>101.0</ele><time>2026-03-29T10:40:14Z</time></trkpt><trkpt lat="45.401806643381015" lon="10.571313241697517"><ele>101.0</ele><time>2026-03-29T10:40:15Z</time></trkpt><trkpt lat="45.40194591574966" lon="10.571147252016834"><ele>101.0</ele><time>2026-03-29T10:40:16Z</time></trkpt><trkpt lat="45.402106296359676" lon="10.570945721943906"><ele>99.5</ele><time>2026-03-29T10:40:17Z</time></trkpt><trkpt lat="45.40228429412785" lon="10.570727152014275"><ele>98.0</ele><time>2026-03-29T10:40:18Z</time></trkpt><trkpt lat="45.4024655842956" lon="10.570504235000396"><ele>98.66666666666666</ele><time>2026-03-29T10:40:19Z</time></trkpt><trkpt lat="45.402625335294445" lon="10.570311064544441"><ele>99.33333333333334</ele><time>2026-03-29T10:40:20Z</time></trkpt><trkpt lat="45.40277070647629" lon="10.570143264521265"><ele>100.0</ele><time>2026-03-29T10:40:21Z</time></trkpt><trkpt lat="45.40294623660434" lon="10.569939940296521"><ele>99.0</ele><time>2026-03-29T10:40:22Z</time></trkpt><trkpt lat="45.403109509766594" lon="10.569756202947074"><ele>98.0</ele><time>2026-03-29T10:40:23Z</time></trkpt><trkpt lat="45.40325395767435" lon="10.569594281757269"><ele>97.0</ele><time>2026-03-29T10:40:24Z</time></trkpt><trkpt lat="45.40338693318546" lon="10.569439590863677"><ele>97.0</ele><time>2026-03-29T10:40:25Z</time></trkpt><trkpt lat="45.403528538534914" lon="10.56927738822534"><ele>97.0</ele><time>2026-03-29T10:40:26Z</time></trkpt><trkpt lat="45.40366882737865" lon="10.56911825206133"><ele>97.0</ele><time>2026-03-29T10:40:27Z</time></trkpt><trkpt lat="45.40379581831503" lon="10.56897654803415"><ele>97.33333333333334</ele><time>2026-03-29T10:40:28Z</time></trkpt><trkpt lat="45.4039138044726" lon="10.568845409523714"><ele>97.66666666666666</ele><time>2026-03-29T10:40:29Z</time></trkpt><trkpt lat="45.404042682520306" lon="10.568698996748937"><ele>98.0</ele><time>2026-03-29T10:40:30Z</time></trkpt><trkpt lat="45.404170266322716" lon="10.568546903209503"><ele>98.0</ele><time>2026-03-29T10:40:31Z</time></trkpt><trkpt lat="45.404296397452434" lon="10.568380806507912"><ele>98.0</ele><time>2026-03-29T10:40:32Z</time></trkpt><trkpt lat="45.404409730057516" lon="10.568216237206592"><ele>98.0</ele><time>2026-03-29T10:40:33Z</time></trkpt><trkpt lat="45.40451703348525" lon="10.568051895780831"><ele>98.0</ele><time>2026-03-29T10:40:34Z</time></trkpt><trkpt lat="45.40462538767762" lon="10.567887824955912"><ele>98.0</ele><time>2026-03-29T10:40:35Z</time></trkpt><trkpt lat="45.40473473661508" lon="10.567715028323885"><ele>98.0</ele><time>2026-03-29T10:40:36Z</time></trkpt><trkpt lat="45.404856869225206" lon="10.567507178379579"><ele>97.33333333333333</ele><time>2026-03-29T10:40:37Z</time></trkpt><trkpt lat="45.40498783313545" lon="10.56726820425629"><ele>96.66666666666666</ele><time>2026-03-29T10:40:38Z</time></trkpt><trkpt lat="45.40510711884127" lon="10.567053176120352"><ele>96.0</ele><time>2026-03-29T10:40:39Z</time></trkpt><trkpt lat="45.40521498256375" lon="10.566858601578188"><ele>96.0</ele><time>2026-03-29T10:40:40Z</time></trkpt><trkpt lat="45.405340391484884" lon="10.566642138993975"><ele>96.0</ele><time>2026-03-29T10:40:41Z</time></trkpt><trkpt lat="45.40546166332977" lon="10.566429832438125"><ele>96.0</ele><time>2026-03-29T10:40:42Z</time></trkpt><trkpt lat="45.405577252688" lon="10.566215701778574"><ele>96.0</ele><time>2026-03-29T10:40:43Z</time></trkpt><trkpt lat="45.4056885352682" lon="10.566027016540993"><ele>96.0</ele><time>2026-03-29T10:40:44Z</time></trkpt><trkpt lat="45.40579193041602" lon="10.565858972641179"><ele>96.0</ele><time>2026-03-29T10:40:45Z</time></trkpt><trkpt lat="45.40590102411855" lon="10.565704111704793"><ele>96.0</ele><time>2026-03-29T10:40:46Z</time></trkpt><trkpt lat="45.40599950567008" lon="10.56555899268544"><ele>96.0</ele><time>2026-03-29T10:40:47Z</time></trkpt><trkpt lat="45.406057097556875" lon="10.565453495343833"><ele>96.0</ele><time>2026-03-29T10:40:48Z</time></trkpt><trkpt lat="45.40609673048164" lon="10.565381674557562"><ele>96.0</ele><time>2026-03-29T10:40:49Z</time></trkpt><trkpt lat="45.40614033107347" lon="10.565315572729036"><ele>96.0</ele><time>2026-03-29T10:40:50Z</time></trkpt><trkpt lat="45.40613929048769" lon="10.565186932364341"><ele>96.16666666666667</ele><time>2026-03-29T10:40:52Z</time></trkpt><trkpt lat="45.40609306083261" lon="10.565099435016341"><ele>96.33333333333334</ele><time>2026-03-29T10:40:54Z</time></trkpt><trkpt lat="45.40604893588068" lon="10.56499409238359"><ele>96.5</ele><time>2026-03-29T10:40:56Z</time></trkpt><trkpt lat="45.40602843031947" lon="10.564892871797817"><ele>96.66666666666667</ele><time>2026-03-29T10:40:57Z</time></trkpt><trkpt lat="45.40600182871398" lon="10.564767650461032"><ele>96.83333333333334</ele><time>2026-03-29T10:40:58Z</time></trkpt><trkpt lat="45.40599383184381" lon="10.564675903325805"><ele>97.0</ele><time>2026-03-29T10:40:59Z</time></trkpt><trkpt lat="45.406079518401626" lon="10.564570465825666"><ele>97.0</ele><time>2026-03-29T10:41:01Z</time></trkpt><trkpt lat="45.406166977146775" lon="10.564509905655825"><ele>97.0</ele><time>2026-03-29T10:41:02Z</time></trkpt><trkpt lat="45.40628876860692" lon="10.564422608150617"><ele>97.0</ele><time>2026-03-29T10:41:03Z</time></trkpt><trkpt lat="45.40642514229016" lon="10.564308356295106"><ele>97.0</ele><time>2026-03-29T10:41:04Z</time></trkpt><trkpt lat="45.406575546678575" lon="10.564185571534473"><ele>97.0</ele><time>2026-03-29T10:41:05Z</time></trkpt><trkpt lat="45.40674484404959" lon="10.564055399127376"><ele>97.0</ele><time>2026-03-29T10:41:06Z</time></trkpt><trkpt lat="45.40691686741928" lon="10.563922023666775"><ele>97.0</ele><time>2026-03-29T10:41:07Z</time></trkpt><trkpt lat="45.40707754665413" lon="10.563800039389491"><ele>97.33333333333334</ele><time>2026-03-29T10:41:08Z</time></trkpt><trkpt lat="45.407257962316585" lon="10.563679638492976"><ele>97.66666666666666</ele><time>2026-03-29T10:41:09Z</time></trkpt><trkpt lat="45.40744470468638" lon="10.563553318143224"><ele>98.0</ele><time>2026-03-29T10:41:10Z</time></trkpt><trkpt lat="45.407603647899094" lon="10.563438400276373"><ele>98.0</ele><time>2026-03-29T10:41:11Z</time></trkpt><trkpt lat="45.407751483062185" lon="10.563339951843993"><ele>98.0</ele><time>2026-03-29T10:41:12Z</time></trkpt><trkpt lat="45.40789467928683" lon="10.56327126348297"><ele>98.0</ele><time>2026-03-29T10:41:13Z</time></trkpt><trkpt lat="45.408069083792626" lon="10.56318453044441"><ele>97.66666666666666</ele><time>2026-03-29T10:41:14Z</time></trkpt><trkpt lat="45.40825603113977" lon="10.563094375161953"><ele>97.33333333333334</ele><time>2026-03-29T10:41:15Z</time></trkpt><trkpt lat="45.40845189859552" lon="10.563005029376452"><ele>97.0</ele><time>2026-03-29T10:41:16Z</time></trkpt><trkpt lat="45.40865418707995" lon="10.562922663102729"><ele>96.66666666666667</ele><time>2026-03-29T10:41:17Z</time></trkpt><trkpt lat="45.40883891200828" lon="10.562847051773405"><ele>96.33333333333334</ele><time>2026-03-29T10:41:18Z</time></trkpt><trkpt lat="45.409027456275055" lon="10.562773699779484"><ele>96.0</ele><time>2026-03-29T10:41:19Z</time></trkpt><trkpt lat="45.40921873815902" lon="10.56269996411379"><ele>96.0</ele><time>2026-03-29T10:41:20Z</time></trkpt><trkpt lat="45.40939797761097" lon="10.562622676645391"><ele>96.0</ele><time>2026-03-29T10:41:21Z</time></trkpt><trkpt lat="45.409559729420046" lon="10.562555610535746"><ele>96.0</ele><time>2026-03-29T10:41:22Z</time></trkpt><trkpt lat="45.409708042797085" lon="10.562492059580343"><ele>96.0</ele><time>2026-03-29T10:41:23Z</time></trkpt><trkpt lat="45.40982824663246" lon="10.562426322058556"><ele>96.0</ele><time>2026-03-29T10:41:24Z</time></trkpt><trkpt lat="45.40992923707264" lon="10.562368750071267"><ele>96.0</ele><time>2026-03-29T10:41:25Z</time></trkpt><trkpt lat="45.41003527173703" lon="10.562361030868038"><ele>96.0</ele><time>2026-03-29T10:41:26Z</time></trkpt><trkpt lat="45.41012809105564" lon="10.562324472895883"><ele>96.0</ele><time>2026-03-29T10:41:27Z</time></trkpt><trkpt lat="45.41023771914704" lon="10.562298614928773"><ele>96.0</ele><time>2026-03-29T10:41:28Z</time></trkpt><trkpt lat="45.410365717558854" lon="10.56228148759073"><ele>96.0</ele><time>2026-03-29T10:41:29Z</time></trkpt><trkpt lat="45.410496516612255" lon="10.562323778901302"><ele>96.0</ele><time>2026-03-29T10:41:30Z</time></trkpt><trkpt lat="45.41065054244326" lon="10.562354860727076"><ele>96.0</ele><time>2026-03-29T10:41:31Z</time></trkpt><trkpt lat="45.41082632420148" lon="10.56240465311204"><ele>96.75</ele><time>2026-03-29T10:41:32Z</time></trkpt><trkpt lat="45.410963314821636" lon="10.562488871512047"><ele>97.5</ele><time>2026-03-29T10:41:33Z</time></trkpt><trkpt lat="45.411104191455046" lon="10.562530348817718"><ele>98.25</ele><time>2026-03-29T10:41:34Z</time></trkpt><trkpt lat="45.41122544176314" lon="10.562621025255359"><ele>99.0</ele><time>2026-03-29T10:41:35Z</time></trkpt><trkpt lat="45.41136680373401" lon="10.562718555035177"><ele>98.66666666666666</ele><time>2026-03-29T10:41:36Z</time></trkpt><trkpt lat="45.411536365227526" lon="10.562851528777202"><ele>98.33333333333333</ele><time>2026-03-29T10:41:37Z</time></trkpt><trkpt lat="45.41171606224866" lon="10.562985745886492"><ele>98.0</ele><time>2026-03-29T10:41:38Z</time></trkpt><trkpt lat="45.4118595890767" lon="10.56311318671684"><ele>98.0</ele><time>2026-03-29T10:41:39Z</time></trkpt><trkpt lat="45.41199909091401" lon="10.563230086803621"><ele>98.0</ele><time>2026-03-29T10:41:40Z</time></trkpt><trkpt lat="45.412154070562586" lon="10.563372025079113"><ele>98.0</ele><time>2026-03-29T10:41:41Z</time></trkpt><trkpt lat="45.41229980288726" lon="10.563515498649922"><ele>97.66666666666666</ele><time>2026-03-29T10:41:42Z</time></trkpt><trkpt lat="45.41243607099308" lon="10.563659204624686"><ele>97.33333333333334</ele><time>2026-03-29T10:41:43Z</time></trkpt><trkpt lat="45.412551314321654" lon="10.563792393922613"><ele>97.0</ele><time>2026-03-29T10:41:44Z</time></trkpt><trkpt lat="45.41266465272669" lon="10.56393967719247"><ele>97.0</ele><time>2026-03-29T10:41:45Z</time></trkpt><trkpt lat="45.41276366644655" lon="10.56406569896704"><ele>97.0</ele><time>2026-03-29T10:41:46Z</time></trkpt><trkpt lat="45.41287248666587" lon="10.564191031262075"><ele>97.0</ele><time>2026-03-29T10:41:47Z</time></trkpt><trkpt lat="45.41300028200698" lon="10.564308591274596"><ele>97.0</ele><time>2026-03-29T10:41:48Z</time></trkpt><trkpt lat="45.41314575858276" lon="10.56442282370042"><ele>97.0</ele><time>2026-03-29T10:41:49Z</time></trkpt><trkpt lat="45.41328407100217" lon="10.564508728971346"><ele>97.0</ele><time>2026-03-29T10:41:50Z</time></trkpt><trkpt lat="45.41340660085814" lon="10.564587173946979"><ele>97.0</ele><time>2026-03-29T10:41:51Z</time></trkpt><trkpt lat="45.413510160974376" lon="10.564658306747049"><ele>97.0</ele><time>2026-03-29T10:41:52Z</time></trkpt><trkpt lat="45.41360872935731" lon="10.56469002856378"><ele>97.19999999999999</ele><time>2026-03-29T10:41:53Z</time></trkpt><trkpt lat="45.413680047306606" lon="10.564721329834002"><ele>97.4</ele><time>2026-03-29T10:41:54Z</time></trkpt><trkpt lat="45.41374248109436" lon="10.564748202749369"><ele>97.6</ele><time>2026-03-29T10:41:55Z</time></trkpt><trkpt lat="45.41384212009192" lon="10.564822223133618"><ele>97.80000000000001</ele><time>2026-03-29T10:41:57Z</time></trkpt><trkpt lat="45.41393273407884" lon="10.564657190485569"><ele>98.0</ele><time>2026-03-29T10:41:58Z</time></trkpt><trkpt lat="45.414019676612156" lon="10.564553472161464"><ele>98.66666666666666</ele><time>2026-03-29T10:41:59Z</time></trkpt><trkpt lat="45.41417039965821" lon="10.564453556896124"><ele>99.33333333333334</ele><time>2026-03-29T10:42:00Z</time></trkpt><trkpt lat="45.4143331856732" lon="10.564362457089324"><ele>100.0</ele><time>2026-03-29T10:42:01Z</time></trkpt><trkpt lat="45.41449895156887" lon="10.564269689661083"><ele>101.66666666666667</ele><time>2026-03-29T10:42:02Z</time></trkpt><trkpt lat="45.41465843389128" lon="10.564163287774877"><ele>103.33333333333334</ele><time>2026-03-29T10:42:03Z</time></trkpt><trkpt lat="45.41480177432122" lon="10.5640862532625"><ele>105.0</ele><time>2026-03-29T10:42:04Z</time></trkpt><trkpt lat="45.4149314380657" lon="10.56401786803532"><ele>105.0</ele><time>2026-03-29T10:42:05Z</time></trkpt><trkpt lat="45.41505729592781" lon="10.56400554384814"><ele>105.0</ele><time>2026-03-29T10:42:06Z</time></trkpt><trkpt lat="45.41517073251163" lon="10.563978060019961"><ele>105.0</ele><time>2026-03-29T10:42:07Z</time></trkpt><trkpt lat="45.41528620873914" lon="10.563992196341998"><ele>105.0</ele><time>2026-03-29T10:42:08Z</time></trkpt><trkpt lat="45.415405152552324" lon="10.564000727961409"><ele>105.5</ele><time>2026-03-29T10:42:09Z</time></trkpt><trkpt lat="45.41551979115491" lon="10.563987160459417"><ele>106.0</ele><time>2026-03-29T10:42:10Z</time></trkpt><trkpt lat="45.41563194005832" lon="10.563953979116148"><ele>106.5</ele><time>2026-03-29T10:42:11Z</time></trkpt><trkpt lat="45.415737347348674" lon="10.563902852583118"><ele>107.0</ele><time>2026-03-29T10:42:12Z</time></trkpt><trkpt lat="45.41583821571812" lon="10.56384391274072"><ele>107.0</ele><time>2026-03-29T10:42:13Z</time></trkpt><trkpt lat="45.41593502980214" lon="10.563782101528082"><ele>106.99999999999999</ele><time>2026-03-29T10:42:14Z</time></trkpt><trkpt lat="45.41602380617927" lon="10.563729205914262"><ele>106.99999999999999</ele><time>2026-03-29T10:42:15Z</time></trkpt><trkpt lat="45.41611494070192" lon="10.563674490129216"><ele>107.0</ele><time>2026-03-29T10:42:16Z</time></trkpt><trkpt lat="45.41620832885502" lon="10.563625610016924"><ele>107.0</ele><time>2026-03-29T10:42:17Z</time></trkpt><trkpt lat="45.416301544480085" lon="10.563576105757509"><ele>107.16666666666666</ele><time>2026-03-29T10:42:18Z</time></trkpt><trkpt lat="45.416395946654504" lon="10.563528017786464"><ele>107.33333333333333</ele><time>2026-03-29T10:42:19Z</time></trkpt><trkpt lat="45.416482382928955" lon="10.563490529162086"><ele>107.5</ele><time>2026-03-29T10:42:20Z</time></trkpt><trkpt lat="45.41655242773871" lon="10.563500866132815"><ele>107.66666666666666</ele><time>2026-03-29T10:42:21Z</time></trkpt><trkpt lat="45.416615274395284" lon="10.563386480686647"><ele>107.83333333333333</ele><time>2026-03-29T10:42:23Z</time></trkpt><trkpt lat="45.41667236675848" lon="10.563325209387271"><ele>108.0</ele><time>2026-03-29T10:42:53Z</time></trkpt><trkpt lat="45.41678272594195" lon="10.563197410941962"><ele>108.0</ele><time>2026-03-29T10:42:55Z</time></trkpt><trkpt lat="45.41686222946448" lon="10.563097728118242"><ele>108.0</ele><time>2026-03-29T10:42:56Z</time></trkpt><trkpt lat="45.41697358095847" lon="10.563024861371792"><ele>108.0</ele><time>2026-03-29T10:42:57Z</time></trkpt><trkpt lat="45.41710277157451" lon="10.562962418625686"><ele>108.0</ele><time>2026-03-29T10:42:58Z</time></trkpt><trkpt lat="45.41726321693509" lon="10.562892025223476"><ele>108.0</ele><time>2026-03-29T10:42:59Z</time></trkpt><trkpt lat="45.41741312951863" lon="10.562854504562933"><ele>108.0</ele><time>2026-03-29T10:43:00Z</time></trkpt><trkpt lat="45.417536880099064" lon="10.562790406599914"><ele>108.0</ele><time>2026-03-29T10:43:01Z</time></trkpt><trkpt lat="45.417632215650414" lon="10.562729014909998"><ele>108.0</ele><time>2026-03-29T10:43:02Z</time></trkpt><trkpt lat="45.417709058487404" lon="10.562651083486823"><ele>108.0</ele><time>2026-03-29T10:43:03Z</time></trkpt><trkpt lat="45.41782206491412" lon="10.562500752521611"><ele>108.0</ele><time>2026-03-29T10:43:04Z</time></trkpt><trkpt lat="45.41794334260121" lon="10.562317049076622"><ele>108.0</ele><time>2026-03-29T10:43:05Z</time></trkpt><trkpt lat="45.41806369166369" lon="10.562095802226585"><ele>108.0</ele><time>2026-03-29T10:43:06Z</time></trkpt><trkpt lat="45.418194336852075" lon="10.561871518309562"><ele>108.0</ele><time>2026-03-29T10:43:07Z</time></trkpt><trkpt lat="45.41832758876824" lon="10.561668958400084"><ele>108.0</ele><time>2026-03-29T10:43:08Z</time></trkpt><trkpt lat="45.418482390256116" lon="10.561485624186153"><ele>108.0</ele><time>2026-03-29T10:43:09Z</time></trkpt><trkpt lat="45.41862454273392" lon="10.561291177782357"><ele>108.0</ele><time>2026-03-29T10:43:10Z</time></trkpt><trkpt lat="45.418733644080994" lon="10.561125522539736"><ele>108.0</ele><time>2026-03-29T10:43:11Z</time></trkpt><trkpt lat="45.41885122742743" lon="10.560983475674671"><ele>109.66666666666666</ele><time>2026-03-29T10:43:12Z</time></trkpt><trkpt lat="45.41898018072256" lon="10.560839358392027"><ele>111.33333333333333</ele><time>2026-03-29T10:43:13Z</time></trkpt><trkpt lat="45.41911320217354" lon="10.560696835586386"><ele>113.0</ele><time>2026-03-29T10:43:14Z</time></trkpt><trkpt lat="45.419274386648496" lon="10.560586394838582"><ele>113.0</ele><time>2026-03-29T10:43:15Z</time></trkpt><trkpt lat="45.41943971008662" lon="10.560458801504087"><ele>113.0</ele><time>2026-03-29T10:43:16Z</time></trkpt><trkpt lat="45.4195866369578" lon="10.560342425048846"><ele>113.0</ele><time>2026-03-29T10:43:17Z</time></trkpt><trkpt lat="45.41973507039295" lon="10.560227182073838"><ele>113.5</ele><time>2026-03-29T10:43:18Z</time></trkpt><trkpt lat="45.41988403935519" lon="10.56013032014796"><ele>114.0</ele><time>2026-03-29T10:43:19Z</time></trkpt><trkpt lat="45.420015396442885" lon="10.560059896103597"><ele>114.5</ele><time>2026-03-29T10:43:20Z</time></trkpt><trkpt lat="45.42012463800546" lon="10.560004156730749"><ele>115.0</ele><time>2026-03-29T10:43:21Z</time></trkpt><trkpt lat="45.42022025906947" lon="10.559926590637556"><ele>115.0</ele><time>2026-03-29T10:43:22Z</time></trkpt><trkpt lat="45.42030522628412" lon="10.55984995563295"><ele>115.0</ele><time>2026-03-29T10:43:23Z</time></trkpt><trkpt lat="45.42038977268499" lon="10.559741206813767"><ele>115.0</ele><time>2026-03-29T10:43:24Z</time></trkpt><trkpt lat="45.42047764336533" lon="10.559596247132248"><ele>115.0</ele><time>2026-03-29T10:43:25Z</time></trkpt><trkpt lat="45.42057368611616" lon="10.55944047326735"><ele>115.0</ele><time>2026-03-29T10:43:26Z</time></trkpt><trkpt lat="45.42069190574669" lon="10.559263385141293"><ele>115.0</ele><time>2026-03-29T10:43:27Z</time></trkpt><trkpt lat="45.4207884159641" lon="10.559072531331937"><ele>115.0</ele><time>2026-03-29T10:43:28Z</time></trkpt><trkpt lat="45.420889156141904" lon="10.558898735686354"><ele>115.0</ele><time>2026-03-29T10:43:29Z</time></trkpt><trkpt lat="45.42098578406216" lon="10.558734912486644"><ele>115.0</ele><time>2026-03-29T10:43:30Z</time></trkpt><trkpt lat="45.42108446480279" lon="10.558592030689441"><ele>115.0</ele><time>2026-03-29T10:43:31Z</time></trkpt><trkpt lat="45.42121254990134" lon="10.558437088467752"><ele>115.33333333333334</ele><time>2026-03-29T10:43:32Z</time></trkpt><trkpt lat="45.421333398036204" lon="10.558232215698569"><ele>115.66666666666666</ele><time>2026-03-29T10:43:33Z</time></trkpt><trkpt lat="45.42142155714686" lon="10.558016473288745"><ele>116.0</ele><time>2026-03-29T10:43:34Z</time></trkpt><trkpt lat="45.421531693197004" lon="10.557840766044722"><ele>115.5</ele><time>2026-03-29T10:43:35Z</time></trkpt><trkpt lat="45.42161176571842" lon="10.557672038137676"><ele>115.0</ele><time>2026-03-29T10:43:36Z</time></trkpt><trkpt lat="45.42165954124628" lon="10.557506850627755"><ele>114.5</ele><time>2026-03-29T10:43:37Z</time></trkpt><trkpt lat="45.421718189935405" lon="10.55736442930938"><ele>114.0</ele><time>2026-03-29T10:43:38Z</time></trkpt><trkpt lat="45.42177942327879" lon="10.557171364161443"><ele>113.33333333333334</ele><time>2026-03-29T10:43:39Z</time></trkpt><trkpt lat="45.42185704211657" lon="10.556950550062979"><ele>112.66666666666667</ele><time>2026-03-29T10:43:40Z</time></trkpt><trkpt lat="45.42191141776057" lon="10.556759429452597"><ele>112.0</ele><time>2026-03-29T10:43:41Z</time></trkpt><trkpt lat="45.42196485942604" lon="10.55658138775197"><ele>112.0</ele><time>2026-03-29T10:43:42Z</time></trkpt><trkpt lat="45.42200142929773" lon="10.556376449280894"><ele>112.0</ele><time>2026-03-29T10:43:43Z</time></trkpt><trkpt lat="45.42203167262389" lon="10.55617854761014"><ele>112.0</ele><time>2026-03-29T10:43:44Z</time></trkpt><trkpt lat="45.422033937420004" lon="10.55598392653402"><ele>112.0</ele><time>2026-03-29T10:43:45Z</time></trkpt><trkpt lat="45.42203989018264" lon="10.555817633519542"><ele>111.5</ele><time>2026-03-29T10:43:46Z</time></trkpt><trkpt lat="45.422060242322544" lon="10.555659883994986"><ele>111.0</ele><time>2026-03-29T10:43:47Z</time></trkpt><trkpt lat="45.42209910339394" lon="10.555506902430908"><ele>110.5</ele><time>2026-03-29T10:43:48Z</time></trkpt><trkpt lat="45.42218275714667" lon="10.555378474323943"><ele>110.0</ele><time>2026-03-29T10:43:49Z</time></trkpt><trkpt lat="45.42224741280805" lon="10.555259556863584"><ele>109.8</ele><time>2026-03-29T10:43:50Z</time></trkpt><trkpt lat="45.42230488942673" lon="10.555150197578829"><ele>109.6</ele><time>2026-03-29T10:43:51Z</time></trkpt><trkpt lat="45.42234696724872" lon="10.555066949335073"><ele>109.4</ele><time>2026-03-29T10:43:52Z</time></trkpt><trkpt lat="45.42233846344204" lon="10.554865823426239"><ele>109.2</ele><time>2026-03-29T10:43:54Z</time></trkpt><trkpt lat="45.42223372243385" lon="10.554788107017336"><ele>109.0</ele><time>2026-03-29T10:43:55Z</time></trkpt><trkpt lat="45.42211709483669" lon="10.554710902924596"><ele>109.0</ele><time>2026-03-29T10:43:56Z</time></trkpt><trkpt lat="45.42198112411985" lon="10.554578129046538"><ele>109.0</ele><time>2026-03-29T10:43:57Z</time></trkpt><trkpt lat="45.42188860461348" lon="10.554406432837016"><ele>109.0</ele><time>2026-03-29T10:43:58Z</time></trkpt><trkpt lat="45.42180688983582" lon="10.554251592099995"><ele>108.5</ele><time>2026-03-29T10:43:59Z</time></trkpt><trkpt lat="45.42172043104809" lon="10.554125698171363"><ele>108.0</ele><time>2026-03-29T10:44:00Z</time></trkpt><trkpt lat="45.42163289619287" lon="10.554014280723099"><ele>107.5</ele><time>2026-03-29T10:44:01Z</time></trkpt><trkpt lat="45.421525188391016" lon="10.553939118527294"><ele>107.0</ele><time>2026-03-29T10:44:02Z</time></trkpt><trkpt lat="45.42141530427086" lon="10.55387944970871"><ele>106.0</ele><time>2026-03-29T10:44:03Z</time></trkpt><trkpt lat="45.42129622973089" lon="10.553800985720956"><ele>105.0</ele><time>2026-03-29T10:44:04Z</time></trkpt><trkpt lat="45.42116056146556" lon="10.553713417352197"><ele>104.0</ele><time>2026-03-29T10:44:05Z</time></trkpt><trkpt lat="45.421025887160695" lon="10.553621576468121"><ele>103.0</ele><time>2026-03-29T10:44:06Z</time></trkpt><trkpt lat="45.42090189210631" lon="10.553538060909908"><ele>103.0</ele><time>2026-03-29T10:44:07Z</time></trkpt><trkpt lat="45.42080545982219" lon="10.553474403878147"><ele>103.0</ele><time>2026-03-29T10:44:08Z</time></trkpt><trkpt lat="45.42073408611947" lon="10.553430916273301"><ele>103.0</ele><time>2026-03-29T10:44:09Z</time></trkpt><trkpt lat="45.42067931004863" lon="10.553291243107756"><ele>103.0</ele><time>2026-03-29T10:44:11Z</time></trkpt><trkpt lat="45.42070952198135" lon="10.553180453180644"><ele>103.0</ele><time>2026-03-29T10:44:12Z</time></trkpt><trkpt lat="45.42081033467646" lon="10.5530747619218"><ele>103.0</ele><time>2026-03-29T10:44:13Z</time></trkpt><trkpt lat="45.420851290418376" lon="10.55294422901383"><ele>103.0</ele><time>2026-03-29T10:44:14Z</time></trkpt><trkpt lat="45.42087287939681" lon="10.552836396081682"><ele>103.0</ele><time>2026-03-29T10:44:15Z</time></trkpt><trkpt lat="45.42074833975615" lon="10.552692628018601"><ele>103.0</ele><time>2026-03-29T10:44:18Z</time></trkpt><trkpt lat="45.42062419331203" lon="10.552635658555099"><ele>102.66666666666667</ele><time>2026-03-29T10:44:19Z</time></trkpt><trkpt lat="45.42049564683401" lon="10.552556175107695"><ele>102.33333333333334</ele><time>2026-03-29T10:44:20Z</time></trkpt><trkpt lat="45.420350453949766" lon="10.552458252462289"><ele>102.0</ele><time>2026-03-29T10:44:21Z</time></trkpt><trkpt lat="45.42017798247744" lon="10.552334232567933"><ele>101.33333333333334</ele><time>2026-03-29T10:44:22Z</time></trkpt><trkpt lat="45.42004921530795" lon="10.552159216537795"><ele>100.66666666666667</ele><time>2026-03-29T10:44:23Z</time></trkpt><trkpt lat="45.41990878223104" lon="10.55198840426285"><ele>100.0</ele><time>2026-03-29T10:44:24Z</time></trkpt><trkpt lat="45.41975919393736" lon="10.551819729966557"><ele>99.33333333333334</ele><time>2026-03-29T10:44:25Z</time></trkpt><trkpt lat="45.41962742315584" lon="10.551655757011948"><ele>98.66666666666666</ele><time>2026-03-29T10:44:26Z</time></trkpt><trkpt lat="45.4195325016872" lon="10.551484654062293"><ele>98.0</ele><time>2026-03-29T10:44:27Z</time></trkpt><trkpt lat="45.41945067695303" lon="10.551300124715791"><ele>99.0</ele><time>2026-03-29T10:44:28Z</time></trkpt><trkpt lat="45.41939979029395" lon="10.551099612370951"><ele>100.0</ele><time>2026-03-29T10:44:29Z</time></trkpt><trkpt lat="45.4193580751316" lon="10.55090080579946"><ele>101.0</ele><time>2026-03-29T10:44:30Z</time></trkpt><trkpt lat="45.41930839430625" lon="10.55068307766585"><ele>101.0</ele><time>2026-03-29T10:44:31Z</time></trkpt><trkpt lat="45.419235252243595" lon="10.55046836863717"><ele>101.0</ele><time>2026-03-29T10:44:32Z</time></trkpt><trkpt lat="45.419169473485" lon="10.550259783672018"><ele>101.0</ele><time>2026-03-29T10:44:33Z</time></trkpt><trkpt lat="45.41909928316784" lon="10.550091205523657"><ele>101.75</ele><time>2026-03-29T10:44:34Z</time></trkpt><trkpt lat="45.41902502345802" lon="10.549914613867404"><ele>102.5</ele><time>2026-03-29T10:44:35Z</time></trkpt><trkpt lat="45.418943206395106" lon="10.549774601640358"><ele>103.25</ele><time>2026-03-29T10:44:36Z</time></trkpt><trkpt lat="45.418856012040685" lon="10.549637402063619"><ele>104.0</ele><time>2026-03-29T10:44:37Z</time></trkpt><trkpt lat="45.41876854895511" lon="10.549499883051265"><ele>104.83333333333333</ele><time>2026-03-29T10:44:38Z</time></trkpt><trkpt lat="45.41869485909279" lon="10.549376519006833"><ele>105.66666666666666</ele><time>2026-03-29T10:44:39Z</time></trkpt><trkpt lat="45.418632553195295" lon="10.549292936310577"><ele>106.5</ele><time>2026-03-29T10:44:40Z</time></trkpt><trkpt lat="45.41858314066542" lon="10.549219966543944"><ele>107.33333333333334</ele><time>2026-03-29T10:44:41Z</time></trkpt><trkpt lat="45.41853226443018" lon="10.549143264149416"><ele>108.16666666666667</ele><time>2026-03-29T10:44:42Z</time></trkpt><trkpt lat="45.418469793879325" lon="10.54911109630716"><ele>109.0</ele><time>2026-03-29T10:44:43Z</time></trkpt><trkpt lat="45.41840135048872" lon="10.549137990097828"><ele>109.0</ele><time>2026-03-29T10:44:44Z</time></trkpt><trkpt lat="45.41829277593356" lon="10.549206043034067"><ele>109.0</ele><time>2026-03-29T10:44:46Z</time></trkpt><trkpt lat="45.41820287060427" lon="10.54927056359255"><ele>109.0</ele><time>2026-03-29T10:44:47Z</time></trkpt><trkpt lat="45.418106078283216" lon="10.549329867965128"><ele>109.0</ele><time>2026-03-29T10:44:48Z</time></trkpt><trkpt lat="45.41803600767391" lon="10.549363260262743"><ele>109.0</ele><time>2026-03-29T10:44:49Z</time></trkpt><trkpt lat="45.41792790487009" lon="10.549283068523316"><ele>108.75</ele><time>2026-03-29T10:44:51Z</time></trkpt><trkpt lat="45.4179214244425" lon="10.54915989640504"><ele>108.5</ele><time>2026-03-29T10:44:52Z</time></trkpt><trkpt lat="45.417868149878394" lon="10.549029130436015"><ele>108.25</ele><time>2026-03-29T10:44:53Z</time></trkpt><trkpt lat="45.41780878141293" lon="10.548868584617006"><ele>108.0</ele><time>2026-03-29T10:44:54Z</time></trkpt><trkpt lat="45.41773435962733" lon="10.548679504833826"><ele>108.0</ele><time>2026-03-29T10:44:55Z</time></trkpt><trkpt lat="45.417637325619474" lon="10.548481869663147"><ele>108.0</ele><time>2026-03-29T10:44:56Z</time></trkpt><trkpt lat="45.41754498998834" lon="10.548251173313119"><ele>108.0</ele><time>2026-03-29T10:44:57Z</time></trkpt><trkpt lat="45.41743976712272" lon="10.548005430205832"><ele>107.66666666666666</ele><time>2026-03-29T10:44:58Z</time></trkpt><trkpt lat="45.417370371970456" lon="10.547774899514195"><ele>107.33333333333333</ele><time>2026-03-29T10:44:59Z</time></trkpt><trkpt lat="45.417284605823156" lon="10.547548776491983"><ele>107.0</ele><time>2026-03-29T10:45:00Z</time></trkpt><trkpt lat="45.41718666807034" lon="10.547352554083394"><ele>106.66666666666666</ele><time>2026-03-29T10:45:01Z</time></trkpt><trkpt lat="45.4170933337739" lon="10.547138320055245"><ele>106.33333333333334</ele><time>2026-03-29T10:45:02Z</time></trkpt><trkpt lat="45.41699641322677" lon="10.546926517626733"><ele>106.0</ele><time>2026-03-29T10:45:03Z</time></trkpt><trkpt lat="45.4168899700992" lon="10.546733969183146"><ele>106.0</ele><time>2026-03-29T10:45:04Z</time></trkpt><trkpt lat="45.41677745320859" lon="10.546539866630049"><ele>106.0</ele><time>2026-03-29T10:45:05Z</time></trkpt><trkpt lat="45.416641160963145" lon="10.546350024715883"><ele>106.0</ele><time>2026-03-29T10:45:06Z</time></trkpt><trkpt lat="45.41648058517075" lon="10.546161525467918"><ele>107.33333333333334</ele><time>2026-03-29T10:45:07Z</time></trkpt><trkpt lat="45.41630696130362" lon="10.545963700018174"><ele>108.66666666666666</ele><time>2026-03-29T10:45:08Z</time></trkpt><trkpt lat="45.41617511469305" lon="10.545762914886543"><ele>110.0</ele><time>2026-03-29T10:45:09Z</time></trkpt><trkpt lat="45.41604793447446" lon="10.545583873310848"><ele>110.0</ele><time>2026-03-29T10:45:10Z</time></trkpt><trkpt lat="45.41593922301365" lon="10.545420037508181"><ele>110.0</ele><time>2026-03-29T10:45:11Z</time></trkpt><trkpt lat="45.41584641029974" lon="10.545270030688481"><ele>110.0</ele><time>2026-03-29T10:45:12Z</time></trkpt><trkpt lat="45.415754989381185" lon="10.545101191906058"><ele>110.0</ele><time>2026-03-29T10:45:13Z</time></trkpt><trkpt lat="45.415660895882496" lon="10.54492448647557"><ele>110.4</ele><time>2026-03-29T10:45:14Z</time></trkpt><trkpt lat="45.41555683866454" lon="10.544770235310189"><ele>110.8</ele><time>2026-03-29T10:45:15Z</time></trkpt><trkpt lat="45.41548045961764" lon="10.544619387584975"><ele>111.19999999999999</ele><time>2026-03-29T10:45:16Z</time></trkpt><trkpt lat="45.415434843562224" lon="10.544488162879324"><ele>111.6</ele><time>2026-03-29T10:45:17Z</time></trkpt><trkpt lat="45.4154020608697" lon="10.544406594734452"><ele>112.0</ele><time>2026-03-29T10:45:18Z</time></trkpt><trkpt lat="45.4154320729001" lon="10.544327670299321"><ele>112.5</ele><time>2026-03-29T10:45:22Z</time></trkpt><trkpt lat="45.415527789146346" lon="10.544305422106302"><ele>113.0</ele><time>2026-03-29T10:45:23Z</time></trkpt><trkpt lat="45.41565777081315" lon="10.544283798190952"><ele>113.5</ele><time>2026-03-29T10:45:24Z</time></trkpt><trkpt lat="45.415813299213845" lon="10.544242500608636"><ele>114.0</ele><time>2026-03-29T10:45:25Z</time></trkpt><trkpt lat="45.41599363264791" lon="10.544187236922184"><ele>114.0</ele><time>2026-03-29T10:45:26Z</time></trkpt><trkpt lat="45.416161227466915" lon="10.54416286916378"><ele>114.0</ele><time>2026-03-29T10:45:27Z</time></trkpt><trkpt lat="45.416316521930796" lon="10.544127774135822"><ele>114.0</ele><time>2026-03-29T10:45:28Z</time></trkpt><trkpt lat="45.416449253401076" lon="10.544095202574045"><ele>112.75</ele><time>2026-03-29T10:45:29Z</time></trkpt><trkpt lat="45.41658030595053" lon="10.544049177939096"><ele>111.5</ele><time>2026-03-29T10:45:30Z</time></trkpt><trkpt lat="45.41671449412996" lon="10.543984113286717"><ele>110.25</ele><time>2026-03-29T10:45:31Z</time></trkpt><trkpt lat="45.41684494430144" lon="10.543882482399326"><ele>109.0</ele><time>2026-03-29T10:45:32Z</time></trkpt><trkpt lat="45.416973731905436" lon="10.543805192043498"><ele>108.66666666666667</ele><time>2026-03-29T10:45:33Z</time></trkpt><trkpt lat="45.4170985558654" lon="10.543684559839427"><ele>108.33333333333334</ele><time>2026-03-29T10:45:34Z</time></trkpt><trkpt lat="45.41721875731172" lon="10.543524831790938"><ele>108.0</ele><time>2026-03-29T10:45:35Z</time></trkpt><trkpt lat="45.41730681308043" lon="10.543309298156572"><ele>108.0</ele><time>2026-03-29T10:45:36Z</time></trkpt><trkpt lat="45.41740509907773" lon="10.543117399349894"><ele>108.0</ele><time>2026-03-29T10:45:37Z</time></trkpt><trkpt lat="45.417500765080185" lon="10.542913156237933"><ele>108.0</ele><time>2026-03-29T10:45:38Z</time></trkpt><trkpt lat="45.41760159196108" lon="10.542691958746977"><ele>108.33333333333334</ele><time>2026-03-29T10:45:39Z</time></trkpt><trkpt lat="45.41773212003995" lon="10.54246268024963"><ele>108.66666666666667</ele><time>2026-03-29T10:45:40Z</time></trkpt><trkpt lat="45.41783611111069" lon="10.542245377594192"><ele>109.0</ele><time>2026-03-29T10:45:41Z</time></trkpt><trkpt lat="45.417936917366056" lon="10.542033885970111"><ele>109.0</ele><time>2026-03-29T10:45:42Z</time></trkpt><trkpt lat="45.418028369046816" lon="10.54184024765447"><ele>109.0</ele><time>2026-03-29T10:45:43Z</time></trkpt><trkpt lat="45.41809633440155" lon="10.541658037192965"><ele>109.0</ele><time>2026-03-29T10:45:44Z</time></trkpt><trkpt lat="45.418185465850115" lon="10.541500223698353"><ele>109.0</ele><time>2026-03-29T10:45:45Z</time></trkpt><trkpt lat="45.41828664857326" lon="10.541345136345274"><ele>109.0</ele><time>2026-03-29T10:45:46Z</time></trkpt><trkpt lat="45.41841983447441" lon="10.541237949679617"><ele>109.0</ele><time>2026-03-29T10:45:47Z</time></trkpt><trkpt lat="45.41856009996908" lon="10.541113598860749"><ele>110.33333333333334</ele><time>2026-03-29T10:45:48Z</time></trkpt><trkpt lat="45.41869269688321" lon="10.540963213502023"><ele>111.66666666666666</ele><time>2026-03-29T10:45:49Z</time></trkpt><trkpt lat="45.41883889100743" lon="10.54081779533847"><ele>113.0</ele><time>2026-03-29T10:45:50Z</time></trkpt><trkpt lat="45.41896536589221" lon="10.540690708145428"><ele>113.0</ele><time>2026-03-29T10:45:51Z</time></trkpt><trkpt lat="45.419093333778264" lon="10.540576966635214"><ele>113.0</ele><time>2026-03-29T10:45:52Z</time></trkpt><trkpt lat="45.41923092258471" lon="10.540477214472505"><ele>113.0</ele><time>2026-03-29T10:45:53Z</time></trkpt><trkpt lat="45.419392382552246" lon="10.54042933319642"><ele>113.66666666666666</ele><time>2026-03-29T10:45:54Z</time></trkpt><trkpt lat="45.419555969504316" lon="10.54033525628485"><ele>114.33333333333334</ele><time>2026-03-29T10:45:55Z</time></trkpt><trkpt lat="45.419722815707196" lon="10.540259519730496"><ele>115.0</ele><time>2026-03-29T10:45:56Z</time></trkpt><trkpt lat="45.41986695769347" lon="10.5401686747598"><ele>115.33333333333334</ele><time>2026-03-29T10:45:57Z</time></trkpt><trkpt lat="45.42001354502783" lon="10.540056254494477"><ele>115.66666666666666</ele><time>2026-03-29T10:45:58Z</time></trkpt><trkpt lat="45.42014949488203" lon="10.539931865623242"><ele>116.0</ele><time>2026-03-29T10:45:59Z</time></trkpt><trkpt lat="45.4202657489098" lon="10.539812578373978"><ele>116.0</ele><time>2026-03-29T10:46:00Z</time></trkpt><trkpt lat="45.42037921799362" lon="10.539686448342662"><ele>116.0</ele><time>2026-03-29T10:46:01Z</time></trkpt><trkpt lat="45.420483682916526" lon="10.539586030111822"><ele>116.0</ele><time>2026-03-29T10:46:02Z</time></trkpt><trkpt lat="45.42057074528852" lon="10.539478419740263"><ele>116.0</ele><time>2026-03-29T10:46:03Z</time></trkpt><trkpt lat="45.42065858823146" lon="10.53939915411663"><ele>117.25</ele><time>2026-03-29T10:46:04Z</time></trkpt><trkpt lat="45.420754179818765" lon="10.53934173453095"><ele>118.5</ele><time>2026-03-29T10:46:05Z</time></trkpt><trkpt lat="45.420894189533826" lon="10.539258875896396"><ele>119.75</ele><time>2026-03-29T10:46:06Z</time></trkpt><trkpt lat="45.421061912868076" lon="10.53919484744569"><ele>121.0</ele><time>2026-03-29T10:46:07Z</time></trkpt><trkpt lat="45.421236777399" lon="10.539126974147363"><ele>120.33333333333334</ele><time>2026-03-29T10:46:08Z</time></trkpt><trkpt lat="45.42141317446399" lon="10.539048615358231"><ele>119.66666666666666</ele><time>2026-03-29T10:46:09Z</time></trkpt><trkpt lat="45.42157082612592" lon="10.538989881721886"><ele>119.0</ele><time>2026-03-29T10:46:10Z</time></trkpt><trkpt lat="45.421720497903586" lon="10.538937086754155"><ele>119.0</ele><time>2026-03-29T10:46:11Z</time></trkpt><trkpt lat="45.42184254184349" lon="10.538847463539888"><ele>119.0</ele><time>2026-03-29T10:46:12Z</time></trkpt><trkpt lat="45.42194374512098" lon="10.538792435709308"><ele>119.0</ele><time>2026-03-29T10:46:13Z</time></trkpt><trkpt lat="45.422029256146665" lon="10.538734903843721"><ele>119.0</ele><time>2026-03-29T10:46:14Z</time></trkpt><trkpt lat="45.42214569510821" lon="10.538686588087666"><ele>120.66666666666666</ele><time>2026-03-29T10:46:15Z</time></trkpt><trkpt lat="45.42229260491808" lon="10.538600592424432"><ele>122.33333333333334</ele><time>2026-03-29T10:46:16Z</time></trkpt><trkpt lat="45.42244904486689" lon="10.538503532363638"><ele>124.0</ele><time>2026-03-29T10:46:17Z</time></trkpt><trkpt lat="45.422616120745694" lon="10.538405686873167"><ele>124.0</ele><time>2026-03-29T10:46:18Z</time></trkpt><trkpt lat="45.42278005088942" lon="10.538358951363692"><ele>124.0</ele><time>2026-03-29T10:46:19Z</time></trkpt><trkpt lat="45.422942462721714" lon="10.538282463173928"><ele>124.0</ele><time>2026-03-29T10:46:20Z</time></trkpt><trkpt lat="45.42311636589034" lon="10.538233657994969"><ele>124.66666666666667</ele><time>2026-03-29T10:46:21Z</time></trkpt><trkpt lat="45.42331016946476" lon="10.538185366734222"><ele>125.33333333333334</ele><time>2026-03-29T10:46:22Z</time></trkpt><trkpt lat="45.42348893527417" lon="10.538111654946496"><ele>126.0</ele><time>2026-03-29T10:46:23Z</time></trkpt><trkpt lat="45.42365191806583" lon="10.538021507991456"><ele>126.0</ele><time>2026-03-29T10:46:24Z</time></trkpt><trkpt lat="45.42378797056749" lon="10.537973614089626"><ele>126.0</ele><time>2026-03-29T10:46:25Z</time></trkpt><trkpt lat="45.42393636211732" lon="10.537969152136514"><ele>126.0</ele><time>2026-03-29T10:46:26Z</time></trkpt><trkpt lat="45.42407257631538" lon="10.537961089540342"><ele>126.0</ele><time>2026-03-29T10:46:27Z</time></trkpt><trkpt lat="45.42419030684304" lon="10.537937696006537"><ele>125.5</ele><time>2026-03-29T10:46:28Z</time></trkpt><trkpt lat="45.42430457840424" lon="10.537946591974224"><ele>125.0</ele><time>2026-03-29T10:46:29Z</time></trkpt><trkpt lat="45.42443659414424" lon="10.53796600645685"><ele>124.5</ele><time>2026-03-29T10:46:30Z</time></trkpt><trkpt lat="45.42457630915622" lon="10.53801422310121"><ele>124.0</ele><time>2026-03-29T10:46:31Z</time></trkpt><trkpt lat="45.424690606053424" lon="10.538128792046116"><ele>122.66666666666667</ele><time>2026-03-29T10:46:32Z</time></trkpt><trkpt lat="45.424810753995644" lon="10.538273646310614"><ele>121.33333333333334</ele><time>2026-03-29T10:46:33Z</time></trkpt><trkpt lat="45.424960057289255" lon="10.53840276335471"><ele>120.0</ele><time>2026-03-29T10:46:34Z</time></trkpt><trkpt lat="45.425112647278766" lon="10.538544698990036"><ele>120.0</ele><time>2026-03-29T10:46:35Z</time></trkpt><trkpt lat="45.425282043690245" lon="10.53864402889271"><ele>120.0</ele><time>2026-03-29T10:46:36Z</time></trkpt><trkpt lat="45.42545166884201" lon="10.538716730601701"><ele>120.0</ele><time>2026-03-29T10:46:37Z</time></trkpt><trkpt lat="45.425645001773766" lon="10.538781201307447"><ele>117.66666666666666</ele><time>2026-03-29T10:46:38Z</time></trkpt><trkpt lat="45.42583612809488" lon="10.538826964384281"><ele>115.33333333333333</ele><time>2026-03-29T10:46:39Z</time></trkpt><trkpt lat="45.425986984542405" lon="10.538850956467313"><ele>113.0</ele><time>2026-03-29T10:46:40Z</time></trkpt><trkpt lat="45.42612497253693" lon="10.53885351352084"><ele>113.0</ele><time>2026-03-29T10:46:41Z</time></trkpt><trkpt lat="45.42629063381481" lon="10.538840809451033"><ele>113.0</ele><time>2026-03-29T10:46:42Z</time></trkpt><trkpt lat="45.42651610785003" lon="10.538803908398396"><ele>113.0</ele><time>2026-03-29T10:46:43Z</time></trkpt><trkpt lat="45.426761987481825" lon="10.538770491546245"><ele>113.0</ele><time>2026-03-29T10:46:44Z</time></trkpt><trkpt lat="45.4269588540892" lon="10.538757465939055"><ele>113.0</ele><time>2026-03-29T10:46:45Z</time></trkpt><trkpt lat="45.42712529708108" lon="10.53876649574708"><ele>113.0</ele><time>2026-03-29T10:46:46Z</time></trkpt><trkpt lat="45.42725954064594" lon="10.53873671386015"><ele>112.80000000000001</ele><time>2026-03-29T10:46:47Z</time></trkpt><trkpt lat="45.42734925350563" lon="10.53872736629672"><ele>112.60000000000001</ele><time>2026-03-29T10:46:48Z</time></trkpt><trkpt lat="45.42743264336572" lon="10.53871716508148"><ele>112.39999999999999</ele><time>2026-03-29T10:46:50Z</time></trkpt><trkpt lat="45.42750238104844" lon="10.538813131493331"><ele>112.19999999999999</ele><time>2026-03-29T10:46:51Z</time></trkpt><trkpt lat="45.427562824538" lon="10.53895336145442"><ele>112.0</ele><time>2026-03-29T10:46:52Z</time></trkpt><trkpt lat="45.427656975802776" lon="10.539122029662776"><ele>112.0</ele><time>2026-03-29T10:46:53Z</time></trkpt><trkpt lat="45.42776261612287" lon="10.53931585852086"><ele>112.0</ele><time>2026-03-29T10:46:54Z</time></trkpt><trkpt lat="45.42787687648363" lon="10.539522522871042"><ele>112.0</ele><time>2026-03-29T10:46:55Z</time></trkpt><trkpt lat="45.42800244218481" lon="10.539733059917555"><ele>110.66666666666667</ele><time>2026-03-29T10:46:56Z</time></trkpt><trkpt lat="45.428120758467735" lon="10.539938844967896"><ele>109.33333333333334</ele><time>2026-03-29T10:46:57Z</time></trkpt><trkpt lat="45.42823470785808" lon="10.54013685295906"><ele>108.0</ele><time>2026-03-29T10:46:58Z</time></trkpt><trkpt lat="45.428346241359606" lon="10.540329996598986"><ele>106.66666666666666</ele><time>2026-03-29T10:46:59Z</time></trkpt><trkpt lat="45.42845587883646" lon="10.540521164115384"><ele>105.33333333333333</ele><time>2026-03-29T10:47:00Z</time></trkpt><trkpt lat="45.42855989802352" lon="10.540700719852872"><ele>104.0</ele><time>2026-03-29T10:47:01Z</time></trkpt><trkpt lat="45.42866113827145" lon="10.54087931010735"><ele>104.0</ele><time>2026-03-29T10:47:02Z</time></trkpt><trkpt lat="45.42876588125871" lon="10.541071991524733"><ele>104.0</ele><time>2026-03-29T10:47:03Z</time></trkpt><trkpt lat="45.428876592596914" lon="10.541271155425003"><ele>104.0</ele><time>2026-03-29T10:47:04Z</time></trkpt><trkpt lat="45.428996314983586" lon="10.54147685277017"><ele>104.66666666666666</ele><time>2026-03-29T10:47:05Z</time></trkpt><trkpt lat="45.42911644453675" lon="10.54168515374791"><ele>105.33333333333334</ele><time>2026-03-29T10:47:06Z</time></trkpt><trkpt lat="45.42922840098641" lon="10.54188627514766"><ele>106.0</ele><time>2026-03-29T10:47:07Z</time></trkpt><trkpt lat="45.42933976503308" lon="10.542076559699126"><ele>106.0</ele><time>2026-03-29T10:47:08Z</time></trkpt><trkpt lat="45.42944866651049" lon="10.542277964571381"><ele>106.0</ele><time>2026-03-29T10:47:09Z</time></trkpt><trkpt lat="45.42956031761152" lon="10.542477355456517"><ele>106.0</ele><time>2026-03-29T10:47:10Z</time></trkpt><trkpt lat="45.42967736097594" lon="10.542677517359257"><ele>105.66666666666667</ele><time>2026-03-29T10:47:11Z</time></trkpt><trkpt lat="45.42979550240374" lon="10.542882939634804"><ele>105.33333333333334</ele><time>2026-03-29T10:47:12Z</time></trkpt><trkpt lat="45.42991395279302" lon="10.54308691080021"><ele>105.0</ele><time>2026-03-29T10:47:13Z</time></trkpt><trkpt lat="45.43001817779881" lon="10.54328144979753"><ele>105.0</ele><time>2026-03-29T10:47:14Z</time></trkpt><trkpt lat="45.43011497963146" lon="10.543459515846145"><ele>105.0</ele><time>2026-03-29T10:47:15Z</time></trkpt><trkpt lat="45.4302044746162" lon="10.543620636431882"><ele>105.0</ele><time>2026-03-29T10:47:16Z</time></trkpt><trkpt lat="45.43028185410317" lon="10.543786541439443"><ele>105.0</ele><time>2026-03-29T10:47:17Z</time></trkpt><trkpt lat="45.43037267931467" lon="10.543958744749665"><ele>105.0</ele><time>2026-03-29T10:47:18Z</time></trkpt><trkpt lat="45.43046917608092" lon="10.544143889315503"><ele>105.0</ele><time>2026-03-29T10:47:19Z</time></trkpt><trkpt lat="45.43057356120464" lon="10.544335399122481"><ele>105.0</ele><time>2026-03-29T10:47:20Z</time></trkpt><trkpt lat="45.4306785897527" lon="10.544532062876746"><ele>105.0</ele><time>2026-03-29T10:47:21Z</time></trkpt><trkpt lat="45.430778269598115" lon="10.544729751486479"><ele>105.0</ele><time>2026-03-29T10:47:22Z</time></trkpt><trkpt lat="45.430857106794846" lon="10.544922484952146"><ele>105.0</ele><time>2026-03-29T10:47:23Z</time></trkpt><trkpt lat="45.43092864306665" lon="10.545113764608494"><ele>105.0</ele><time>2026-03-29T10:47:24Z</time></trkpt><trkpt lat="45.430993261634725" lon="10.545312748983944"><ele>105.0</ele><time>2026-03-29T10:47:25Z</time></trkpt><trkpt lat="45.43106680050801" lon="10.545508499040336"><ele>105.0</ele><time>2026-03-29T10:47:26Z</time></trkpt><trkpt lat="45.431145833339826" lon="10.545706560145149"><ele>105.0</ele><time>2026-03-29T10:47:27Z</time></trkpt><trkpt lat="45.43121615007493" lon="10.545892121187169"><ele>105.0</ele><time>2026-03-29T10:47:28Z</time></trkpt><trkpt lat="45.43127278152152" lon="10.546040176055925"><ele>105.0</ele><time>2026-03-29T10:47:29Z</time></trkpt><trkpt lat="45.4313189038126" lon="10.546163811062089"><ele>105.0</ele><time>2026-03-29T10:47:30Z</time></trkpt><trkpt lat="45.431351823682235" lon="10.546268430466638"><ele>105.0</ele><time>2026-03-29T10:47:31Z</time></trkpt><trkpt lat="45.431348539511724" lon="10.54635849033461"><ele>105.25</ele><time>2026-03-29T10:47:32Z</time></trkpt><trkpt lat="45.43126179920122" lon="10.546495623646559"><ele>105.5</ele><time>2026-03-29T10:47:34Z</time></trkpt><trkpt lat="45.43129805517262" lon="10.546674732360882"><ele>105.75</ele><time>2026-03-29T10:47:36Z</time></trkpt><trkpt lat="45.431370181948736" lon="10.546784744863784"><ele>106.0</ele><time>2026-03-29T10:47:37Z</time></trkpt><trkpt lat="45.431444060892574" lon="10.546946090397604"><ele>106.5</ele><time>2026-03-29T10:47:38Z</time></trkpt><trkpt lat="45.43155016748296" lon="10.547090843407952"><ele>107.0</ele><time>2026-03-29T10:47:39Z</time></trkpt><trkpt lat="45.43164267752953" lon="10.547243367001549"><ele>107.5</ele><time>2026-03-29T10:47:40Z</time></trkpt><trkpt lat="45.43173166947226" lon="10.547409403685293"><ele>108.0</ele><time>2026-03-29T10:47:41Z</time></trkpt><trkpt lat="45.431847396639604" lon="10.547570718017216"><ele>108.0</ele><time>2026-03-29T10:47:42Z</time></trkpt><trkpt lat="45.43198198575786" lon="10.547712923440697"><ele>108.0</ele><time>2026-03-29T10:47:43Z</time></trkpt><trkpt lat="45.432098927393234" lon="10.547892195352743"><ele>108.0</ele><time>2026-03-29T10:47:44Z</time></trkpt><trkpt lat="45.432244589132736" lon="10.54805135747045"><ele>108.33333333333334</ele><time>2026-03-29T10:47:45Z</time></trkpt><trkpt lat="45.43237731443842" lon="10.548217821745903"><ele>108.66666666666667</ele><time>2026-03-29T10:47:46Z</time></trkpt><trkpt lat="45.43247921761112" lon="10.548389176907266"><ele>109.0</ele><time>2026-03-29T10:47:47Z</time></trkpt><trkpt lat="45.4326015256059" lon="10.548521075309734"><ele>109.0</ele><time>2026-03-29T10:47:48Z</time></trkpt><trkpt lat="45.43270794539728" lon="10.548665483356084"><ele>109.0</ele><time>2026-03-29T10:47:49Z</time></trkpt><trkpt lat="45.432815241248505" lon="10.548773596651161"><ele>109.0</ele><time>2026-03-29T10:47:50Z</time></trkpt><trkpt lat="45.432939437266235" lon="10.548855200974536"><ele>109.0</ele><time>2026-03-29T10:47:51Z</time></trkpt><trkpt lat="45.43304367381954" lon="10.548961242395945"><ele>109.16666666666667</ele><time>2026-03-29T10:47:52Z</time></trkpt><trkpt lat="45.43312785461121" lon="10.549012580976376"><ele>109.33333333333334</ele><time>2026-03-29T10:47:53Z</time></trkpt><trkpt lat="45.43319140043265" lon="10.549069099493178"><ele>109.5</ele><time>2026-03-29T10:47:54Z</time></trkpt><trkpt lat="45.43327364723183" lon="10.549100789983155"><ele>109.66666666666666</ele><time>2026-03-29T10:47:55Z</time></trkpt><trkpt lat="45.43332450852318" lon="10.549184182342968"><ele>109.83333333333333</ele><time>2026-03-29T10:47:56Z</time></trkpt><trkpt lat="45.433371231060015" lon="10.549297265036694"><ele>110.0</ele><time>2026-03-29T10:47:57Z</time></trkpt><trkpt lat="45.43349641764528" lon="10.549309720732538"><ele>110.0</ele><time>2026-03-29T10:48:00Z</time></trkpt><trkpt lat="45.43360120253489" lon="10.549209566544157"><ele>110.0</ele><time>2026-03-29T10:48:01Z</time></trkpt><trkpt lat="45.433728251385936" lon="10.549127142740911"><ele>110.0</ele><time>2026-03-29T10:48:02Z</time></trkpt><trkpt lat="45.43386603683068" lon="10.549042975698606"><ele>110.0</ele><time>2026-03-29T10:48:03Z</time></trkpt><trkpt lat="45.434003654903826" lon="10.54894396176665"><ele>110.33333333333333</ele><time>2026-03-29T10:48:04Z</time></trkpt><trkpt lat="45.4341394861159" lon="10.548835339886548"><ele>110.66666666666666</ele><time>2026-03-29T10:48:05Z</time></trkpt><trkpt lat="45.434275773441804" lon="10.548718003412931"><ele>111.0</ele><time>2026-03-29T10:48:06Z</time></trkpt><trkpt lat="45.434398047500515" lon="10.548587775040394"><ele>111.0</ele><time>2026-03-29T10:48:07Z</time></trkpt><trkpt lat="45.43452063155347" lon="10.548460815409888"><ele>111.0</ele><time>2026-03-29T10:48:08Z</time></trkpt><trkpt lat="45.43464594401784" lon="10.548325580984006"><ele>111.0</ele><time>2026-03-29T10:48:09Z</time></trkpt><trkpt lat="45.43475971164841" lon="10.548202148063863"><ele>111.0</ele><time>2026-03-29T10:48:10Z</time></trkpt><trkpt lat="45.43482960634791" lon="10.548108430301507"><ele>111.0</ele><time>2026-03-29T10:48:11Z</time></trkpt><trkpt lat="45.43488027238069" lon="10.548040849978854"><ele>111.0</ele><time>2026-03-29T10:48:12Z</time></trkpt><trkpt lat="45.43494967330968" lon="10.547952013826821"><ele>111.0</ele><time>2026-03-29T10:48:14Z</time></trkpt><trkpt lat="45.435000519783706" lon="10.547894907218742"><ele>111.0</ele><time>2026-03-29T10:48:16Z</time></trkpt><trkpt lat="45.43507979998093" lon="10.547847245010269"><ele>111.0</ele><time>2026-03-29T10:48:18Z</time></trkpt><trkpt lat="45.435075001539865" lon="10.547676756032887"><ele>110.8</ele><time>2026-03-29T10:48:19Z</time></trkpt><trkpt lat="45.43511097738874" lon="10.547563250744098"><ele>110.6</ele><time>2026-03-29T10:48:20Z</time></trkpt><trkpt lat="45.43515274062683" lon="10.54744478991448"><ele>110.4</ele><time>2026-03-29T10:48:21Z</time></trkpt><trkpt lat="45.43520854712562" lon="10.547298713181052"><ele>110.2</ele><time>2026-03-29T10:48:22Z</time></trkpt><trkpt lat="45.43527843760061" lon="10.547126686619828"><ele>110.0</ele><time>2026-03-29T10:48:23Z</time></trkpt><trkpt lat="45.43534395489009" lon="10.546980040009103"><ele>110.0</ele><time>2026-03-29T10:48:24Z</time></trkpt><trkpt lat="45.43542214884818" lon="10.546823371986067"><ele>110.0</ele><time>2026-03-29T10:48:25Z</time></trkpt><trkpt lat="45.4355089419297" lon="10.546645239498357"><ele>110.0</ele><time>2026-03-29T10:48:26Z</time></trkpt><trkpt lat="45.43563472052556" lon="10.546451979543827"><ele>109.0</ele><time>2026-03-29T10:48:27Z</time></trkpt><trkpt lat="45.43577796072735" lon="10.546240789802004"><ele>108.0</ele><time>2026-03-29T10:48:28Z</time></trkpt><trkpt lat="45.43592451032584" lon="10.54602543684669"><ele>107.0</ele><time>2026-03-29T10:48:29Z</time></trkpt><trkpt lat="45.436085517666655" lon="10.545783254344125"><ele>107.0</ele><time>2026-03-29T10:48:30Z</time></trkpt><trkpt lat="45.436256879978004" lon="10.545543291769519"><ele>107.0</ele><time>2026-03-29T10:48:31Z</time></trkpt><trkpt lat="45.43640524736903" lon="10.545328369165954"><ele>107.0</ele><time>2026-03-29T10:48:32Z</time></trkpt><trkpt lat="45.436544426132976" lon="10.545120996682734"><ele>107.0</ele><time>2026-03-29T10:48:33Z</time></trkpt><trkpt lat="45.43668534482201" lon="10.544918326184506"><ele>107.0</ele><time>2026-03-29T10:48:34Z</time></trkpt><trkpt lat="45.43683275153958" lon="10.544713439707635"><ele>106.33333333333333</ele><time>2026-03-29T10:48:35Z</time></trkpt><trkpt lat="45.43696855567611" lon="10.544513287505616"><ele>105.66666666666666</ele><time>2026-03-29T10:48:36Z</time></trkpt><trkpt lat="45.43711444500382" lon="10.5443273176846"><ele>105.0</ele><time>2026-03-29T10:48:37Z</time></trkpt><trkpt lat="45.43725627148655" lon="10.544110695275629"><ele>105.0</ele><time>2026-03-29T10:48:38Z</time></trkpt><trkpt lat="45.437387916162415" lon="10.543875736180768"><ele>105.0</ele><time>2026-03-29T10:48:39Z</time></trkpt><trkpt lat="45.43750437600961" lon="10.543622672374275"><ele>105.0</ele><time>2026-03-29T10:48:40Z</time></trkpt><trkpt lat="45.43764289099951" lon="10.543344258137276"><ele>106.0</ele><time>2026-03-29T10:48:41Z</time></trkpt><trkpt lat="45.43778519768489" lon="10.543065544416699"><ele>107.0</ele><time>2026-03-29T10:48:42Z</time></trkpt><trkpt lat="45.43794328422794" lon="10.542795575452933"><ele>107.0</ele><time>2026-03-29T10:48:43Z</time></trkpt><trkpt lat="45.43805801803916" lon="10.542536106503729"><ele>107.0</ele><time>2026-03-29T10:48:44Z</time></trkpt><trkpt lat="45.438172644376856" lon="10.5423034671529"><ele>107.0</ele><time>2026-03-29T10:48:45Z</time></trkpt><trkpt lat="45.43830183008134" lon="10.542084896580931"><ele>106.66666666666666</ele><time>2026-03-29T10:48:46Z</time></trkpt><trkpt lat="45.43841334354326" lon="10.541867412862057"><ele>106.33333333333334</ele><time>2026-03-29T10:48:47Z</time></trkpt><trkpt lat="45.438529073013214" lon="10.541648618792449"><ele>106.0</ele><time>2026-03-29T10:48:48Z</time></trkpt><trkpt lat="45.43865745400467" lon="10.541419837850533"><ele>106.66666666666667</ele><time>2026-03-29T10:48:49Z</time></trkpt><trkpt lat="45.43879282615308" lon="10.541198308341226"><ele>107.33333333333334</ele><time>2026-03-29T10:48:50Z</time></trkpt><trkpt lat="45.43891564650522" lon="10.541006707866742"><ele>108.0</ele><time>2026-03-29T10:48:51Z</time></trkpt><trkpt lat="45.439029324787846" lon="10.540839664976351"><ele>108.0</ele><time>2026-03-29T10:48:52Z</time></trkpt><trkpt lat="45.439142461702076" lon="10.54066674597814"><ele>108.0</ele><time>2026-03-29T10:48:53Z</time></trkpt><trkpt lat="45.43924964509662" lon="10.54048154916038"><ele>108.0</ele><time>2026-03-29T10:48:54Z</time></trkpt><trkpt lat="45.43935230834859" lon="10.540280242069649"><ele>107.66666666666666</ele><time>2026-03-29T10:48:55Z</time></trkpt><trkpt lat="45.43944490737381" lon="10.540064285555541"><ele>107.33333333333333</ele><time>2026-03-29T10:48:56Z</time></trkpt><trkpt lat="45.439521362003575" lon="10.539864300377198"><ele>107.0</ele><time>2026-03-29T10:48:57Z</time></trkpt><trkpt lat="45.43958229077142" lon="10.53966218965129"><ele>106.66666666666666</ele><time>2026-03-29T10:48:58Z</time></trkpt><trkpt lat="45.43963557422181" lon="10.539455916133882"><ele>106.33333333333334</ele><time>2026-03-29T10:48:59Z</time></trkpt><trkpt lat="45.4396878533637" lon="10.539253524086503"><ele>106.0</ele><time>2026-03-29T10:49:00Z</time></trkpt><trkpt lat="45.43975642296724" lon="10.539043917622205"><ele>106.0</ele><time>2026-03-29T10:49:01Z</time></trkpt><trkpt lat="45.439841099589735" lon="10.538831394371213"><ele>106.0</ele><time>2026-03-29T10:49:02Z</time></trkpt><trkpt lat="45.4399316549756" lon="10.538597193830359"><ele>106.0</ele><time>2026-03-29T10:49:03Z</time></trkpt><trkpt lat="45.440013340355755" lon="10.538374522733072"><ele>106.0</ele><time>2026-03-29T10:49:04Z</time></trkpt><trkpt lat="45.44009657114531" lon="10.538154168718204"><ele>106.0</ele><time>2026-03-29T10:49:05Z</time></trkpt><trkpt lat="45.44018043242085" lon="10.537937526619618"><ele>106.0</ele><time>2026-03-29T10:49:06Z</time></trkpt><trkpt lat="45.440266523457495" lon="10.537698337496227"><ele>106.0</ele><time>2026-03-29T10:49:07Z</time></trkpt><trkpt lat="45.440382744634235" lon="10.53746704762567"><ele>106.0</ele><time>2026-03-29T10:49:08Z</time></trkpt><trkpt lat="45.44049132460315" lon="10.537246144684223"><ele>106.0</ele><time>2026-03-29T10:49:09Z</time></trkpt><trkpt lat="45.44060260822015" lon="10.537016513679243"><ele>106.66666666666667</ele><time>2026-03-29T10:49:10Z</time></trkpt><trkpt lat="45.44072926159901" lon="10.536763500338353"><ele>107.33333333333334</ele><time>2026-03-29T10:49:11Z</time></trkpt><trkpt lat="45.440858710706316" lon="10.536501018002271"><ele>108.0</ele><time>2026-03-29T10:49:12Z</time></trkpt><trkpt lat="45.44099208027989" lon="10.536238696699664"><ele>108.33333333333334</ele><time>2026-03-29T10:49:13Z</time></trkpt><trkpt lat="45.44112765625327" lon="10.535963564403149"><ele>108.66666666666667</ele><time>2026-03-29T10:49:14Z</time></trkpt><trkpt lat="45.44125373724962" lon="10.535719471502487"><ele>109.0</ele><time>2026-03-29T10:49:15Z</time></trkpt><trkpt lat="45.441375859015785" lon="10.535489987220382"><ele>108.66666666666667</ele><time>2026-03-29T10:49:16Z</time></trkpt><trkpt lat="45.441484720241704" lon="10.535287691165406"><ele>108.33333333333334</ele><time>2026-03-29T10:49:17Z</time></trkpt><trkpt lat="45.44157302907813" lon="10.535110879615278"><ele>108.0</ele><time>2026-03-29T10:49:18Z</time></trkpt><trkpt lat="45.4416553155356" lon="10.534948557410448"><ele>108.0</ele><time>2026-03-29T10:49:19Z</time></trkpt><trkpt lat="45.44173595077402" lon="10.534800665890021"><ele>108.00000000000001</ele><time>2026-03-29T10:49:20Z</time></trkpt><trkpt lat="45.44180980551416" lon="10.534667868558925"><ele>108.00000000000001</ele><time>2026-03-29T10:49:21Z</time></trkpt><trkpt lat="45.44187427668611" lon="10.534554483549236"><ele>108.0</ele><time>2026-03-29T10:49:22Z</time></trkpt><trkpt lat="45.44192577362646" lon="10.534461095097676"><ele>108.0</ele><time>2026-03-29T10:49:23Z</time></trkpt><trkpt lat="45.44196241080372" lon="10.534381089612566"><ele>108.2</ele><time>2026-03-29T10:49:24Z</time></trkpt><trkpt lat="45.44196905833114" lon="10.534230344321651"><ele>108.4</ele><time>2026-03-29T10:49:26Z</time></trkpt><trkpt lat="45.44191940343363" lon="10.534121377646676"><ele>108.60000000000001</ele><time>2026-03-29T10:49:28Z</time></trkpt><trkpt lat="45.44181909808648" lon="10.533996209261527"><ele>108.80000000000001</ele><time>2026-03-29T10:49:30Z</time></trkpt><trkpt lat="45.44174002989205" lon="10.533893075747145"><ele>109.0</ele><time>2026-03-29T10:49:31Z</time></trkpt><trkpt lat="45.441628884624606" lon="10.533762683001743"><ele>109.66666666666667</ele><time>2026-03-29T10:49:32Z</time></trkpt><trkpt lat="45.44148390584752" lon="10.533604208897813"><ele>110.33333333333334</ele><time>2026-03-29T10:49:33Z</time></trkpt><trkpt lat="45.44131682725624" lon="10.533426668671371"><ele>111.0</ele><time>2026-03-29T10:49:34Z</time></trkpt><trkpt lat="45.44114372542354" lon="10.533240618632483"><ele>110.33333333333334</ele><time>2026-03-29T10:49:35Z</time></trkpt><trkpt lat="45.44098990568893" lon="10.533080505415025"><ele>109.66666666666667</ele><time>2026-03-29T10:49:36Z</time></trkpt><trkpt lat="45.44085037252484" lon="10.532931706097246"><ele>109.0</ele><time>2026-03-29T10:49:37Z</time></trkpt><trkpt lat="45.44072965887471" lon="10.532793165882616"><ele>109.0</ele><time>2026-03-29T10:49:38Z</time></trkpt><trkpt lat="45.44062135464844" lon="10.532666701077483"><ele>109.0</ele><time>2026-03-29T10:49:39Z</time></trkpt><trkpt lat="45.44052773470254" lon="10.532563010878244"><ele>109.0</ele><time>2026-03-29T10:49:40Z</time></trkpt><trkpt lat="45.44044354835494" lon="10.532472732503573"><ele>109.0</ele><time>2026-03-29T10:49:41Z</time></trkpt><trkpt lat="45.44037037404455" lon="10.532396801180358"><ele>108.75</ele><time>2026-03-29T10:49:42Z</time></trkpt><trkpt lat="45.44031776184989" lon="10.532302298026487"><ele>108.5</ele><time>2026-03-29T10:49:43Z</time></trkpt><trkpt lat="45.44015921276261" lon="10.532261303107145"><ele>108.25</ele><time>2026-03-29T10:49:45Z</time></trkpt><trkpt lat="45.44005301306384" lon="10.532269821003135"><ele>108.0</ele><time>2026-03-29T10:49:46Z</time></trkpt><trkpt lat="45.43991790352534" lon="10.53230020991695"><ele>108.0</ele><time>2026-03-29T10:49:47Z</time></trkpt><trkpt lat="45.43974952844655" lon="10.532348528455445"><ele>108.0</ele><time>2026-03-29T10:49:48Z</time></trkpt><trkpt lat="45.43954928530994" lon="10.5324032787893"><ele>108.0</ele><time>2026-03-29T10:49:49Z</time></trkpt><trkpt lat="45.43931386266059" lon="10.532464500930905"><ele>109.0</ele><time>2026-03-29T10:49:50Z</time></trkpt><trkpt lat="45.43905351904996" lon="10.532522180762564"><ele>110.0</ele><time>2026-03-29T10:49:51Z</time></trkpt><trkpt lat="45.4388155242819" lon="10.532574788623627"><ele>110.0</ele><time>2026-03-29T10:49:52Z</time></trkpt><trkpt lat="45.438597584981764" lon="10.532619872135157"><ele>110.0</ele><time>2026-03-29T10:49:53Z</time></trkpt><trkpt lat="45.43841823488178" lon="10.532660302480162"><ele>110.0</ele><time>2026-03-29T10:49:54Z</time></trkpt><trkpt lat="45.43824628543966" lon="10.532697921962647"><ele>110.0</ele><time>2026-03-29T10:49:55Z</time></trkpt><trkpt lat="45.43808384310981" lon="10.532731332026184"><ele>110.0</ele><time>2026-03-29T10:49:56Z</time></trkpt><trkpt lat="45.4379273362252" lon="10.532764161467622"><ele>110.0</ele><time>2026-03-29T10:49:57Z</time></trkpt><trkpt lat="45.43778830877817" lon="10.532803094258714"><ele>109.5</ele><time>2026-03-29T10:49:58Z</time></trkpt><trkpt lat="45.43765293918207" lon="10.532850547412117"><ele>109.0</ele><time>2026-03-29T10:49:59Z</time></trkpt><trkpt lat="45.43752862780959" lon="10.532891782199956"><ele>108.5</ele><time>2026-03-29T10:50:00Z</time></trkpt><trkpt lat="45.437414971829064" lon="10.532922697789703"><ele>108.0</ele><time>2026-03-29T10:50:01Z</time></trkpt><trkpt lat="45.43730563648939" lon="10.53294605835101"><ele>107.80000000000001</ele><time>2026-03-29T10:50:02Z</time></trkpt><trkpt lat="45.43719951252304" lon="10.532967588944626"><ele>107.60000000000001</ele><time>2026-03-29T10:50:03Z</time></trkpt><trkpt lat="45.437092355758296" lon="10.532995760197315"><ele>107.39999999999999</ele><time>2026-03-29T10:50:04Z</time></trkpt><trkpt lat="45.43699678313336" lon="10.533014892706117"><ele>107.19999999999999</ele><time>2026-03-29T10:50:05Z</time></trkpt><trkpt lat="45.43690234160473" lon="10.533035836623903"><ele>107.0</ele><time>2026-03-29T10:50:06Z</time></trkpt><trkpt lat="45.436805207776054" lon="10.53305731975229"><ele>107.0</ele><time>2026-03-29T10:50:07Z</time></trkpt><trkpt lat="45.43669464360582" lon="10.533080672693496"><ele>107.0</ele><time>2026-03-29T10:50:08Z</time></trkpt><trkpt lat="45.43657186456995" lon="10.533101785975777"><ele>107.0</ele><time>2026-03-29T10:50:09Z</time></trkpt><trkpt lat="45.43644922109171" lon="10.533123174920258"><ele>107.0</ele><time>2026-03-29T10:50:10Z</time></trkpt><trkpt lat="45.43631481848769" lon="10.533157182739576"><ele>107.16666666666666</ele><time>2026-03-29T10:50:11Z</time></trkpt><trkpt lat="45.436207615613505" lon="10.533199912534165"><ele>107.33333333333333</ele><time>2026-03-29T10:50:12Z</time></trkpt><trkpt lat="45.43612203679408" lon="10.533216527317425"><ele>107.5</ele><time>2026-03-29T10:50:13Z</time></trkpt><trkpt lat="45.43605258421273" lon="10.533235856000875"><ele>107.66666666666666</ele><time>2026-03-29T10:50:14Z</time></trkpt><trkpt lat="45.43599252210958" lon="10.533267882852652"><ele>107.83333333333333</ele><time>2026-03-29T10:50:15Z</time></trkpt><trkpt lat="45.43592754304405" lon="10.533271035623969"><ele>108.0</ele><time>2026-03-29T10:50:17Z</time></trkpt><trkpt lat="45.43597589266993" lon="10.533063978314418"><ele>107.66666666666666</ele><time>2026-03-29T10:50:21Z</time></trkpt><trkpt lat="45.43603550865976" lon="10.532877011533651"><ele>107.33333333333333</ele><time>2026-03-29T10:50:22Z</time></trkpt><trkpt lat="45.43608569435642" lon="10.532673205469223"><ele>107.0</ele><time>2026-03-29T10:50:23Z</time></trkpt><trkpt lat="45.43616266934013" lon="10.532482172824949"><ele>107.0</ele><time>2026-03-29T10:50:24Z</time></trkpt><trkpt lat="45.43623732585112" lon="10.532233712700709"><ele>107.0</ele><time>2026-03-29T10:50:25Z</time></trkpt><trkpt lat="45.4363269244118" lon="10.531946648248333"><ele>107.0</ele><time>2026-03-29T10:50:26Z</time></trkpt><trkpt lat="45.43641944586669" lon="10.531698076970807"><ele>106.33333333333333</ele><time>2026-03-29T10:50:27Z</time></trkpt><trkpt lat="45.43649399556642" lon="10.531483920116681"><ele>105.66666666666666</ele><time>2026-03-29T10:50:28Z</time></trkpt><trkpt lat="45.43656258345848" lon="10.531288674482889"><ele>105.0</ele><time>2026-03-29T10:50:29Z</time></trkpt><trkpt lat="45.43662318507644" lon="10.531102406815346"><ele>106.75</ele><time>2026-03-29T10:50:30Z</time></trkpt><trkpt lat="45.43667732360817" lon="10.530936621075952"><ele>108.5</ele><time>2026-03-29T10:50:31Z</time></trkpt><trkpt lat="45.43674086811259" lon="10.530784828940464"><ele>110.25</ele><time>2026-03-29T10:50:32Z</time></trkpt><trkpt lat="45.43679818483892" lon="10.530627018864386"><ele>112.0</ele><time>2026-03-29T10:50:33Z</time></trkpt><trkpt lat="45.436851083956626" lon="10.530466911914514"><ele>112.75</ele><time>2026-03-29T10:50:34Z</time></trkpt><trkpt lat="45.43690066324943" lon="10.53030602515045"><ele>113.5</ele><time>2026-03-29T10:50:35Z</time></trkpt><trkpt lat="45.436951816344255" lon="10.530142433458112"><ele>114.25</ele><time>2026-03-29T10:50:36Z</time></trkpt><trkpt lat="45.43700540000326" lon="10.529980992165417"><ele>115.0</ele><time>2026-03-29T10:50:37Z</time></trkpt><trkpt lat="45.43705663085054" lon="10.529805610393046"><ele>115.0</ele><time>2026-03-29T10:50:38Z</time></trkpt><trkpt lat="45.43707363659903" lon="10.529711441249127"><ele>115.0</ele><time>2026-03-29T10:50:39Z</time></trkpt><trkpt lat="45.437055990176766" lon="10.529400683504642"><ele>115.0</ele><time>2026-03-29T10:50:41Z</time></trkpt><trkpt lat="45.437010099677835" lon="10.529253599760045"><ele>115.0</ele><time>2026-03-29T10:50:42Z</time></trkpt><trkpt lat="45.43696216660728" lon="10.529093498426839"><ele>117.5</ele><time>2026-03-29T10:50:43Z</time></trkpt><trkpt lat="45.436921156878654" lon="10.52891402822946"><ele>120.0</ele><time>2026-03-29T10:50:44Z</time></trkpt><trkpt lat="45.4368655441653" lon="10.528743257044717"><ele>122.5</ele><time>2026-03-29T10:50:45Z</time></trkpt><trkpt lat="45.436803049859336" lon="10.528569973646398"><ele>125.0</ele><time>2026-03-29T10:50:46Z</time></trkpt><trkpt lat="45.436751618466474" lon="10.528391220500973"><ele>127.0</ele><time>2026-03-29T10:50:47Z</time></trkpt><trkpt lat="45.436704139848736" lon="10.528214875343291"><ele>129.0</ele><time>2026-03-29T10:50:48Z</time></trkpt><trkpt lat="45.4366608019032" lon="10.528048097898843"><ele>131.0</ele><time>2026-03-29T10:50:49Z</time></trkpt><trkpt lat="45.4366428890128" lon="10.527888246913019"><ele>133.0</ele><time>2026-03-29T10:50:50Z</time></trkpt><trkpt lat="45.436656053609155" lon="10.527747745222507"><ele>133.8</ele><time>2026-03-29T10:50:51Z</time></trkpt><trkpt lat="45.4367069090443" lon="10.527630503092588"><ele>134.60000000000002</ele><time>2026-03-29T10:50:52Z</time></trkpt><trkpt lat="45.4367401261888" lon="10.527501649422275"><ele>135.39999999999998</ele><time>2026-03-29T10:50:53Z</time></trkpt><trkpt lat="45.43676046046816" lon="10.52737310162431"><ele>136.2</ele><time>2026-03-29T10:50:54Z</time></trkpt><trkpt lat="45.4367829794881" lon="10.527232011078056"><ele>137.0</ele><time>2026-03-29T10:50:55Z</time></trkpt><trkpt lat="45.43680456032118" lon="10.527082231544686"><ele>137.2</ele><time>2026-03-29T10:50:56Z</time></trkpt><trkpt lat="45.436823250510436" lon="10.52693603738756"><ele>137.39999999999998</ele><time>2026-03-29T10:50:57Z</time></trkpt><trkpt lat="45.43683765870787" lon="10.526799889265286"><ele>137.60000000000002</ele><time>2026-03-29T10:50:58Z</time></trkpt><trkpt lat="45.43685750862386" lon="10.526664757894304"><ele>137.8</ele><time>2026-03-29T10:50:59Z</time></trkpt><trkpt lat="45.436885550457504" lon="10.526524821651815"><ele>138.0</ele><time>2026-03-29T10:51:00Z</time></trkpt><trkpt lat="45.43691472076393" lon="10.52637139919404"><ele>138.20000000000002</ele><time>2026-03-29T10:51:01Z</time></trkpt><trkpt lat="45.43694115280497" lon="10.526210870081202"><ele>138.4</ele><time>2026-03-29T10:51:02Z</time></trkpt><trkpt lat="45.436965483774806" lon="10.52604439936162"><ele>138.60000000000002</ele><time>2026-03-29T10:51:03Z</time></trkpt><trkpt lat="45.43699720651941" lon="10.525899060543143"><ele>138.8</ele><time>2026-03-29T10:51:04Z</time></trkpt><trkpt lat="45.437016932202376" lon="10.525765280100208"><ele>139.0</ele><time>2026-03-29T10:51:05Z</time></trkpt><trkpt lat="45.437032246163376" lon="10.525633310880623"><ele>139.0</ele><time>2026-03-29T10:51:06Z</time></trkpt><trkpt lat="45.43705278874977" lon="10.525479759054223"><ele>139.0</ele><time>2026-03-29T10:51:07Z</time></trkpt><trkpt lat="45.43707856386388" lon="10.525340706284576"><ele>139.0</ele><time>2026-03-29T10:51:08Z</time></trkpt><trkpt lat="45.437095962491945" lon="10.525211944704214"><ele>139.0</ele><time>2026-03-29T10:51:09Z</time></trkpt><trkpt lat="45.437112125770966" lon="10.525083737252384"><ele>139.0</ele><time>2026-03-29T10:51:10Z</time></trkpt><trkpt lat="45.43713213007643" lon="10.524950804904648"><ele>139.0</ele><time>2026-03-29T10:51:11Z</time></trkpt><trkpt lat="45.437147561749526" lon="10.524820867293226"><ele>139.0</ele><time>2026-03-29T10:51:12Z</time></trkpt><trkpt lat="45.437165895179405" lon="10.52468063322127"><ele>139.0</ele><time>2026-03-29T10:51:13Z</time></trkpt><trkpt lat="45.43717904116272" lon="10.524539004920397"><ele>139.0</ele><time>2026-03-29T10:51:14Z</time></trkpt><trkpt lat="45.43719309167388" lon="10.52439205079163"><ele>139.0</ele><time>2026-03-29T10:51:15Z</time></trkpt><trkpt lat="45.43720473807107" lon="10.524233247651322"><ele>138.75</ele><time>2026-03-29T10:51:16Z</time></trkpt><trkpt lat="45.43721201510045" lon="10.524064807857725"><ele>138.5</ele><time>2026-03-29T10:51:17Z</time></trkpt><trkpt lat="45.43722269362261" lon="10.523890877137166"><ele>138.25</ele><time>2026-03-29T10:51:18Z</time></trkpt><trkpt lat="45.437229267067764" lon="10.523720111621174"><ele>138.0</ele><time>2026-03-29T10:51:19Z</time></trkpt><trkpt lat="45.4372419426441" lon="10.523553393309712"><ele>135.5</ele><time>2026-03-29T10:51:20Z</time></trkpt><trkpt lat="45.43725347713085" lon="10.523379563531375"><ele>133.0</ele><time>2026-03-29T10:51:21Z</time></trkpt><trkpt lat="45.4372546222867" lon="10.523213427394674"><ele>130.5</ele><time>2026-03-29T10:51:22Z</time></trkpt><trkpt lat="45.437261331712456" lon="10.523066209668533"><ele>128.0</ele><time>2026-03-29T10:51:23Z</time></trkpt><trkpt lat="45.43726550627886" lon="10.52291165473709"><ele>127.2</ele><time>2026-03-29T10:51:24Z</time></trkpt><trkpt lat="45.43727302747645" lon="10.522761598999622"><ele>126.4</ele><time>2026-03-29T10:51:25Z</time></trkpt><trkpt lat="45.43727792366863" lon="10.522612436749743"><ele>125.60000000000001</ele><time>2026-03-29T10:51:26Z</time></trkpt><trkpt lat="45.43727177420775" lon="10.522455799313946"><ele>124.80000000000001</ele><time>2026-03-29T10:51:27Z</time></trkpt><trkpt lat="45.43728302495759" lon="10.522299734921154"><ele>124.0</ele><time>2026-03-29T10:51:28Z</time></trkpt><trkpt lat="45.43728701830208" lon="10.52214671654249"><ele>124.0</ele><time>2026-03-29T10:51:29Z</time></trkpt><trkpt lat="45.437280195610725" lon="10.52199034060368"><ele>124.0</ele><time>2026-03-29T10:51:30Z</time></trkpt><trkpt lat="45.43729294361644" lon="10.52182378420473"><ele>124.0</ele><time>2026-03-29T10:51:31Z</time></trkpt><trkpt lat="45.4373011741683" lon="10.521652566573724"><ele>124.0</ele><time>2026-03-29T10:51:32Z</time></trkpt><trkpt lat="45.43730103041068" lon="10.5214850807478"><ele>124.0</ele><time>2026-03-29T10:51:33Z</time></trkpt><trkpt lat="45.43729504294503" lon="10.521309997951102"><ele>124.0</ele><time>2026-03-29T10:51:34Z</time></trkpt><trkpt lat="45.43729736499535" lon="10.52113467454427"><ele>124.0</ele><time>2026-03-29T10:51:35Z</time></trkpt><trkpt lat="45.43730648812679" lon="10.520952710947679"><ele>124.0</ele><time>2026-03-29T10:51:36Z</time></trkpt><trkpt lat="45.43731929698055" lon="10.520791247604931"><ele>123.0</ele><time>2026-03-29T10:51:37Z</time></trkpt><trkpt lat="45.43732412560969" lon="10.5206308602691"><ele>122.0</ele><time>2026-03-29T10:51:38Z</time></trkpt><trkpt lat="45.43732886914749" lon="10.520463538114601"><ele>121.0</ele><time>2026-03-29T10:51:39Z</time></trkpt><trkpt lat="45.43732623711429" lon="10.520298926218327"><ele>120.0</ele><time>2026-03-29T10:51:40Z</time></trkpt><trkpt lat="45.4373326491053" lon="10.520141105627918"><ele>120.0</ele><time>2026-03-29T10:51:41Z</time></trkpt><trkpt lat="45.43734207160855" lon="10.519987628992974"><ele>120.0</ele><time>2026-03-29T10:51:42Z</time></trkpt><trkpt lat="45.43734659583755" lon="10.519827353610177"><ele>120.0</ele><time>2026-03-29T10:51:43Z</time></trkpt><trkpt lat="45.43734579158836" lon="10.519676983007583"><ele>120.0</ele><time>2026-03-29T10:51:44Z</time></trkpt><trkpt lat="45.437345402312786" lon="10.519524075288716"><ele>120.0</ele><time>2026-03-29T10:51:45Z</time></trkpt><trkpt lat="45.43734559198324" lon="10.519372494021615"><ele>120.6</ele><time>2026-03-29T10:51:46Z</time></trkpt><trkpt lat="45.43735328160478" lon="10.519217747290645"><ele>121.2</ele><time>2026-03-29T10:51:47Z</time></trkpt><trkpt lat="45.43735228426109" lon="10.519075916451266"><ele>121.80000000000001</ele><time>2026-03-29T10:51:48Z</time></trkpt><trkpt lat="45.43735589842019" lon="10.518935998611143"><ele>122.4</ele><time>2026-03-29T10:51:49Z</time></trkpt><trkpt lat="45.43735994948762" lon="10.518809636607125"><ele>123.0</ele><time>2026-03-29T10:51:50Z</time></trkpt><trkpt lat="45.437361731348524" lon="10.518698833319705"><ele>123.66666666666667</ele><time>2026-03-29T10:51:51Z</time></trkpt><trkpt lat="45.43737406505928" lon="10.518579885708927"><ele>124.33333333333334</ele><time>2026-03-29T10:51:53Z</time></trkpt><trkpt lat="45.43749107727365" lon="10.51854420271426"><ele>125.0</ele><time>2026-03-29T10:51:57Z</time></trkpt><trkpt lat="45.43755431070324" lon="10.518547983848231"><ele>125.66666666666667</ele><time>2026-03-29T10:52:00Z</time></trkpt><trkpt lat="45.437633484576786" lon="10.518525350108735"><ele>126.33333333333334</ele><time>2026-03-29T10:52:02Z</time></trkpt><trkpt lat="45.4377071865814" lon="10.51851979151181"><ele>127.0</ele><time>2026-03-29T10:52:03Z</time></trkpt><trkpt lat="45.4377850091946" lon="10.51850684563494"><ele>127.00000000000001</ele><time>2026-03-29T10:52:04Z</time></trkpt><trkpt lat="45.43786155062442" lon="10.518488425798296"><ele>127.0</ele><time>2026-03-29T10:52:05Z</time></trkpt><trkpt lat="45.437946277909795" lon="10.518459734575083"><ele>127.0</ele><time>2026-03-29T10:52:06Z</time></trkpt><trkpt lat="45.43803283075907" lon="10.518436124733208"><ele>127.0</ele><time>2026-03-29T10:52:07Z</time></trkpt><trkpt lat="45.43812102714255" lon="10.518428361813543"><ele>127.00000000000001</ele><time>2026-03-29T10:52:08Z</time></trkpt><trkpt lat="45.43821286541484" lon="10.518430817507825"><ele>127.0</ele><time>2026-03-29T10:52:09Z</time></trkpt><trkpt lat="45.43830261420804" lon="10.518442052697795"><ele>126.39999999999999</ele><time>2026-03-29T10:52:10Z</time></trkpt><trkpt lat="45.438393563886336" lon="10.518450736445274"><ele>125.79999999999998</ele><time>2026-03-29T10:52:11Z</time></trkpt><trkpt lat="45.43848469357001" lon="10.518457733724464"><ele>125.2</ele><time>2026-03-29T10:52:12Z</time></trkpt><trkpt lat="45.43857961613883" lon="10.51847020150924"><ele>124.6</ele><time>2026-03-29T10:52:13Z</time></trkpt><trkpt lat="45.43867399171608" lon="10.518476920668395"><ele>124.0</ele><time>2026-03-29T10:52:14Z</time></trkpt><trkpt lat="45.43876996336022" lon="10.518487616850841"><ele>124.4</ele><time>2026-03-29T10:52:15Z</time></trkpt><trkpt lat="45.43886615616653" lon="10.518506391085374"><ele>124.80000000000001</ele><time>2026-03-29T10:52:16Z</time></trkpt><trkpt lat="45.43896611827467" lon="10.518516448785952"><ele>125.19999999999999</ele><time>2026-03-29T10:52:17Z</time></trkpt><trkpt lat="45.4390672960334" lon="10.518531998717183"><ele>125.6</ele><time>2026-03-29T10:52:18Z</time></trkpt><trkpt lat="45.439157916251276" lon="10.518554294288021"><ele>126.0</ele><time>2026-03-29T10:52:19Z</time></trkpt><trkpt lat="45.43925008889659" lon="10.51857730312514"><ele>126.0</ele><time>2026-03-29T10:52:20Z</time></trkpt><trkpt lat="45.43934047029014" lon="10.518615405838375"><ele>126.0</ele><time>2026-03-29T10:52:21Z</time></trkpt><trkpt lat="45.43943144948981" lon="10.518666082541126"><ele>126.0</ele><time>2026-03-29T10:52:22Z</time></trkpt><trkpt lat="45.43952465930062" lon="10.518712415561573"><ele>126.0</ele><time>2026-03-29T10:52:23Z</time></trkpt><trkpt lat="45.439613649816486" lon="10.518767817426243"><ele>126.0</ele><time>2026-03-29T10:52:24Z</time></trkpt><trkpt lat="45.439694071887644" lon="10.51882091326155"><ele>126.66666666666667</ele><time>2026-03-29T10:52:25Z</time></trkpt><trkpt lat="45.43975952842824" lon="10.518875325787151"><ele>127.33333333333334</ele><time>2026-03-29T10:52:26Z</time></trkpt><trkpt lat="45.43982079748049" lon="10.51893767321314"><ele>128.0</ele><time>2026-03-29T10:52:27Z</time></trkpt><trkpt lat="45.43990282679555" lon="10.51901021453442"><ele>128.66666666666669</ele><time>2026-03-29T10:52:28Z</time></trkpt><trkpt lat="45.439975346475514" lon="10.519096936796043"><ele>129.33333333333334</ele><time>2026-03-29T10:52:29Z</time></trkpt><trkpt lat="45.440033088546244" lon="10.519201874335206"><ele>130.0</ele><time>2026-03-29T10:52:30Z</time></trkpt><trkpt lat="45.44009290401588" lon="10.519303903512153"><ele>130.0</ele><time>2026-03-29T10:52:31Z</time></trkpt><trkpt lat="45.44015192557039" lon="10.51940475449256"><ele>130.0</ele><time>2026-03-29T10:52:32Z</time></trkpt><trkpt lat="45.44020659104572" lon="10.519510500950982"><ele>130.0</ele><time>2026-03-29T10:52:33Z</time></trkpt><trkpt lat="45.44026354127704" lon="10.519608727523373"><ele>130.0</ele><time>2026-03-29T10:52:34Z</time></trkpt><trkpt lat="45.44031849304208" lon="10.519706382043621"><ele>130.0</ele><time>2026-03-29T10:52:35Z</time></trkpt><trkpt lat="45.44037719466918" lon="10.51981511513693"><ele>129.8</ele><time>2026-03-29T10:52:36Z</time></trkpt><trkpt lat="45.44043195361907" lon="10.51992060594556"><ele>129.6</ele><time>2026-03-29T10:52:37Z</time></trkpt><trkpt lat="45.44048933268821" lon="10.520014248514759"><ele>129.4</ele><time>2026-03-29T10:52:38Z</time></trkpt><trkpt lat="45.440554884920616" lon="10.520100554890282"><ele>129.2</ele><time>2026-03-29T10:52:39Z</time></trkpt><trkpt lat="45.440638582619414" lon="10.520170597908395"><ele>129.0</ele><time>2026-03-29T10:52:40Z</time></trkpt><trkpt lat="45.44073287959797" lon="10.520233011234339"><ele>129.75</ele><time>2026-03-29T10:52:41Z</time></trkpt><trkpt lat="45.44084234677423" lon="10.520271178444284"><ele>130.5</ele><time>2026-03-29T10:52:42Z</time></trkpt><trkpt lat="45.440960028245875" lon="10.520276450361548"><ele>131.25</ele><time>2026-03-29T10:52:43Z</time></trkpt><trkpt lat="45.44107590013773" lon="10.520281900855142"><ele>132.0</ele><time>2026-03-29T10:52:44Z</time></trkpt><trkpt lat="45.441223952580565" lon="10.520296022895764"><ele>131.66666666666666</ele><time>2026-03-29T10:52:45Z</time></trkpt><trkpt lat="45.44139242114337" lon="10.520281115167753"><ele>131.33333333333331</ele><time>2026-03-29T10:52:46Z</time></trkpt><trkpt lat="45.44155109626401" lon="10.520280131758888"><ele>131.0</ele><time>2026-03-29T10:52:47Z</time></trkpt><trkpt lat="45.44171042348432" lon="10.520274058686251"><ele>131.0</ele><time>2026-03-29T10:52:48Z</time></trkpt><trkpt lat="45.44186073147564" lon="10.520319718809628"><ele>131.0</ele><time>2026-03-29T10:52:49Z</time></trkpt><trkpt lat="45.442009897426374" lon="10.520323062504595"><ele>131.0</ele><time>2026-03-29T10:52:50Z</time></trkpt><trkpt lat="45.44214686174944" lon="10.520326132670744"><ele>131.0</ele><time>2026-03-29T10:52:51Z</time></trkpt><trkpt lat="45.44227789155603" lon="10.520325365465228"><ele>130.8</ele><time>2026-03-29T10:52:52Z</time></trkpt><trkpt lat="45.442400549865546" lon="10.520326047337296"><ele>130.6</ele><time>2026-03-29T10:52:53Z</time></trkpt><trkpt lat="45.44251580342644" lon="10.520326688047493"><ele>130.4</ele><time>2026-03-29T10:52:54Z</time></trkpt><trkpt lat="45.44262125855392" lon="10.520305901602002"><ele>130.2</ele><time>2026-03-29T10:52:55Z</time></trkpt><trkpt lat="45.442710211016255" lon="10.520331359118646"><ele>130.0</ele><time>2026-03-29T10:52:56Z</time></trkpt><trkpt lat="45.442789169272416" lon="10.520334969268825"><ele>130.0</ele><time>2026-03-29T10:52:57Z</time></trkpt><trkpt lat="45.44285718470387" lon="10.520317696687489"><ele>130.0</ele><time>2026-03-29T10:52:58Z</time></trkpt><trkpt lat="45.442926496085825" lon="10.520321436104782"><ele>130.0</ele><time>2026-03-29T10:53:01Z</time></trkpt><trkpt lat="45.443015590029674" lon="10.520344344849942"><ele>130.0</ele><time>2026-03-29T10:53:03Z</time></trkpt><trkpt lat="45.44311049986994" lon="10.520347054751621"><ele>130.0</ele><time>2026-03-29T10:53:04Z</time></trkpt><trkpt lat="45.443204931284846" lon="10.520350087641013"><ele>130.0</ele><time>2026-03-29T10:53:05Z</time></trkpt><trkpt lat="45.443272465517104" lon="10.520352256650932"><ele>130.4</ele><time>2026-03-29T10:53:06Z</time></trkpt><trkpt lat="45.443336463154516" lon="10.520355070155684"><ele>130.8</ele><time>2026-03-29T10:53:07Z</time></trkpt><trkpt lat="45.44343434176086" lon="10.520360001272701"><ele>131.2</ele><time>2026-03-29T10:53:09Z</time></trkpt><trkpt lat="45.44346322443556" lon="10.520149501022992"><ele>131.6</ele><time>2026-03-29T10:53:10Z</time></trkpt><trkpt lat="45.44348727156258" lon="10.520039277941935"><ele>132.0</ele><time>2026-03-29T10:53:11Z</time></trkpt><trkpt lat="45.44353170562193" lon="10.519946368978738"><ele>132.0</ele><time>2026-03-29T10:53:12Z</time></trkpt><trkpt lat="45.44360906386318" lon="10.519910602285764"><ele>132.0</ele><time>2026-03-29T10:53:13Z</time></trkpt><trkpt lat="45.44373251911472" lon="10.519926601222835"><ele>132.0</ele><time>2026-03-29T10:53:14Z</time></trkpt><trkpt lat="45.44385918344985" lon="10.519894811291326"><ele>132.0</ele><time>2026-03-29T10:53:15Z</time></trkpt><trkpt lat="45.44398309235248" lon="10.519887808398845"><ele>132.2</ele><time>2026-03-29T10:53:16Z</time></trkpt><trkpt lat="45.44409814188301" lon="10.5198628367165"><ele>132.39999999999998</ele><time>2026-03-29T10:53:17Z</time></trkpt><trkpt lat="45.44419277682909" lon="10.51980825066469"><ele>132.60000000000002</ele><time>2026-03-29T10:53:18Z</time></trkpt><trkpt lat="45.444260073780704" lon="10.519718274058539"><ele>132.8</ele><time>2026-03-29T10:53:19Z</time></trkpt><trkpt lat="45.44430393419639" lon="10.519587043040127"><ele>133.0</ele><time>2026-03-29T10:53:20Z</time></trkpt><trkpt lat="45.444326434865424" lon="10.519431159842147"><ele>133.4</ele><time>2026-03-29T10:53:21Z</time></trkpt><trkpt lat="45.4443388647114" lon="10.519276351880253"><ele>133.8</ele><time>2026-03-29T10:53:22Z</time></trkpt><trkpt lat="45.44436674799484" lon="10.519160386698545"><ele>134.2</ele><time>2026-03-29T10:53:23Z</time></trkpt><trkpt lat="45.44442410280887" lon="10.519089035600203"><ele>134.6</ele><time>2026-03-29T10:53:24Z</time></trkpt><trkpt lat="45.44450761743959" lon="10.51907431185511"><ele>135.0</ele><time>2026-03-29T10:53:25Z</time></trkpt><trkpt lat="45.44460923792796" lon="10.519149394574281"><ele>134.75</ele><time>2026-03-29T10:53:26Z</time></trkpt><trkpt lat="45.44472605483545" lon="10.519214328033513"><ele>134.5</ele><time>2026-03-29T10:53:27Z</time></trkpt><trkpt lat="45.44485852934109" lon="10.519274160022272"><ele>134.25</ele><time>2026-03-29T10:53:28Z</time></trkpt><trkpt lat="45.444996931865454" lon="10.519356823904825"><ele>134.0</ele><time>2026-03-29T10:53:29Z</time></trkpt><trkpt lat="45.4451384796697" lon="10.519423541574145"><ele>134.0</ele><time>2026-03-29T10:53:30Z</time></trkpt><trkpt lat="45.445264707058904" lon="10.519485266548221"><ele>134.0</ele><time>2026-03-29T10:53:31Z</time></trkpt><trkpt lat="45.445380054753315" lon="10.519544866093707"><ele>134.0</ele><time>2026-03-29T10:53:32Z</time></trkpt><trkpt lat="45.44548388272756" lon="10.519602131631745"><ele>134.0</ele><time>2026-03-29T10:53:33Z</time></trkpt><trkpt lat="45.445577080061646" lon="10.519653894487988"><ele>133.83333333333331</ele><time>2026-03-29T10:53:34Z</time></trkpt><trkpt lat="45.445666233872885" lon="10.51969152343748"><ele>133.66666666666666</ele><time>2026-03-29T10:53:35Z</time></trkpt><trkpt lat="45.44575302670698" lon="10.519703350314199"><ele>133.5</ele><time>2026-03-29T10:53:36Z</time></trkpt><trkpt lat="45.44583513286297" lon="10.51969500008874"><ele>133.33333333333334</ele><time>2026-03-29T10:53:37Z</time></trkpt><trkpt lat="45.44590541664608" lon="10.519692345490931"><ele>133.16666666666669</ele><time>2026-03-29T10:53:38Z</time></trkpt><trkpt lat="45.445979834342836" lon="10.519718578496809"><ele>133.0</ele><time>2026-03-29T10:53:40Z</time></trkpt><trkpt lat="45.44593615110296" lon="10.519603894353512"><ele>133.0</ele><time>2026-03-29T10:53:43Z</time></trkpt><trkpt lat="45.445870295122525" lon="10.519512408369847"><ele>133.0</ele><time>2026-03-29T10:54:05Z</time></trkpt><trkpt lat="45.44589487592749" lon="10.519705677490707"><ele>133.0</ele><time>2026-03-29T10:54:09Z</time></trkpt><trkpt lat="45.445991531832775" lon="10.51979238221134"><ele>133.0</ele><time>2026-03-29T10:54:10Z</time></trkpt><trkpt lat="45.44608176495333" lon="10.519877135634133"><ele>133.0</ele><time>2026-03-29T10:54:11Z</time></trkpt><trkpt lat="45.4461950167657" lon="10.519955067982407"><ele>133.0</ele><time>2026-03-29T10:54:12Z</time></trkpt><trkpt lat="45.44629529591536" lon="10.519995466624913"><ele>133.0</ele><time>2026-03-29T10:54:13Z</time></trkpt><trkpt lat="45.446375663756584" lon="10.5200112788109"><ele>133.0</ele><time>2026-03-29T10:54:14Z</time></trkpt><trkpt lat="45.44645025890707" lon="10.520024657159853"><ele>133.0</ele><time>2026-03-29T10:54:15Z</time></trkpt><trkpt lat="45.446535506337845" lon="10.52004429056776"><ele>133.33333333333334</ele><time>2026-03-29T10:54:16Z</time></trkpt><trkpt lat="45.44663952606601" lon="10.52007284869525"><ele>133.66666666666666</ele><time>2026-03-29T10:54:17Z</time></trkpt><trkpt lat="45.4468042990933" lon="10.520118244210511"><ele>134.0</ele><time>2026-03-29T10:54:18Z</time></trkpt><trkpt lat="45.44705057704488" lon="10.520191440717426"><ele>134.0</ele><time>2026-03-29T10:54:19Z</time></trkpt><trkpt lat="45.44729413113913" lon="10.520264466388321"><ele>134.0</ele><time>2026-03-29T10:54:20Z</time></trkpt><trkpt lat="45.447485726668226" lon="10.520317326113421"><ele>134.0</ele><time>2026-03-29T10:54:21Z</time></trkpt><trkpt lat="45.44764562205938" lon="10.520372826285334"><ele>134.0</ele><time>2026-03-29T10:54:22Z</time></trkpt><trkpt lat="45.44776204312659" lon="10.520410393731025"><ele>134.0</ele><time>2026-03-29T10:54:23Z</time></trkpt><trkpt lat="45.44785095708129" lon="10.52040331173063"><ele>134.0</ele><time>2026-03-29T10:54:24Z</time></trkpt><trkpt lat="45.44793713758963" lon="10.5203428744348"><ele>134.0</ele><time>2026-03-29T10:54:25Z</time></trkpt><trkpt lat="45.448014946093785" lon="10.520233294193458"><ele>134.0</ele><time>2026-03-29T10:54:26Z</time></trkpt><trkpt lat="45.44808712316881" lon="10.520080083712887"><ele>134.33333333333331</ele><time>2026-03-29T10:54:27Z</time></trkpt><trkpt lat="45.44817394144194" lon="10.519908436313706"><ele>134.66666666666666</ele><time>2026-03-29T10:54:28Z</time></trkpt><trkpt lat="45.44826747704573" lon="10.519741762527675"><ele>135.0</ele><time>2026-03-29T10:54:29Z</time></trkpt><trkpt lat="45.44837319073805" lon="10.519580726361838"><ele>135.0</ele><time>2026-03-29T10:54:30Z</time></trkpt><trkpt lat="45.44846436775562" lon="10.519428871128758"><ele>135.0</ele><time>2026-03-29T10:54:31Z</time></trkpt><trkpt lat="45.44853683315673" lon="10.51928987872758"><ele>135.0</ele><time>2026-03-29T10:54:32Z</time></trkpt><trkpt lat="45.44858416925522" lon="10.51917478212382"><ele>135.0</ele><time>2026-03-29T10:54:33Z</time></trkpt><trkpt lat="45.4485930130782" lon="10.519044574235382"><ele>135.0</ele><time>2026-03-29T10:54:34Z</time></trkpt><trkpt lat="45.44853438319679" lon="10.518913522432326"><ele>135.0</ele><time>2026-03-29T10:54:35Z</time></trkpt><trkpt lat="45.44848146212574" lon="10.518735568853536"><ele>135.0</ele><time>2026-03-29T10:54:36Z</time></trkpt><trkpt lat="45.44843717179537" lon="10.518534240529798"><ele>135.0</ele><time>2026-03-29T10:54:37Z</time></trkpt><trkpt lat="45.448404401036626" lon="10.518362724395692"><ele>135.0</ele><time>2026-03-29T10:54:38Z</time></trkpt><trkpt lat="45.448411121205076" lon="10.518180936055284"><ele>134.75</ele><time>2026-03-29T10:54:39Z</time></trkpt><trkpt lat="45.44844670191495" lon="10.517985196824043"><ele>134.5</ele><time>2026-03-29T10:54:40Z</time></trkpt><trkpt lat="45.448508295439424" lon="10.517800636708325"><ele>134.25</ele><time>2026-03-29T10:54:41Z</time></trkpt><trkpt lat="45.448590665141936" lon="10.517644713483454"><ele>134.0</ele><time>2026-03-29T10:54:42Z</time></trkpt><trkpt lat="45.44869497228405" lon="10.51750718141175"><ele>134.0</ele><time>2026-03-29T10:54:43Z</time></trkpt><trkpt lat="45.448815913972595" lon="10.51738910196498"><ele>134.0</ele><time>2026-03-29T10:54:44Z</time></trkpt><trkpt lat="45.44894659933046" lon="10.517278751187416"><ele>134.0</ele><time>2026-03-29T10:54:45Z</time></trkpt><trkpt lat="45.44907865498288" lon="10.517151342609187"><ele>134.0</ele><time>2026-03-29T10:54:46Z</time></trkpt><trkpt lat="45.44918887004339" lon="10.51700159472084"><ele>134.0</ele><time>2026-03-29T10:54:47Z</time></trkpt><trkpt lat="45.44925910227196" lon="10.516844765116968"><ele>134.0</ele><time>2026-03-29T10:54:48Z</time></trkpt><trkpt lat="45.449298277735906" lon="10.516697745858394"><ele>134.0</ele><time>2026-03-29T10:54:49Z</time></trkpt><trkpt lat="45.44932956909939" lon="10.5165804688037"><ele>134.0</ele><time>2026-03-29T10:54:50Z</time></trkpt><trkpt lat="45.44936464685675" lon="10.516415751546486"><ele>134.0</ele><time>2026-03-29T10:54:52Z</time></trkpt><trkpt lat="45.449401733305855" lon="10.5163267705069"><ele>134.0</ele><time>2026-03-29T10:54:53Z</time></trkpt><trkpt lat="45.44944728238505" lon="10.516211697358761"><ele>134.0</ele><time>2026-03-29T10:54:54Z</time></trkpt><trkpt lat="45.449473498196944" lon="10.516062813153939"><ele>134.0</ele><time>2026-03-29T10:54:55Z</time></trkpt><trkpt lat="45.44949487257152" lon="10.515883949068064"><ele>133.75</ele><time>2026-03-29T10:54:56Z</time></trkpt><trkpt lat="45.44954076117183" lon="10.515720862532175"><ele>133.5</ele><time>2026-03-29T10:54:57Z</time></trkpt><trkpt lat="45.44960672163415" lon="10.51558201537409"><ele>133.25</ele><time>2026-03-29T10:54:58Z</time></trkpt><trkpt lat="45.44967567361628" lon="10.515453317081075"><ele>133.0</ele><time>2026-03-29T10:54:59Z</time></trkpt><trkpt lat="45.44973954904724" lon="10.515330595068761"><ele>133.5</ele><time>2026-03-29T10:55:00Z</time></trkpt><trkpt lat="45.44980100684137" lon="10.51519761418947"><ele>134.0</ele><time>2026-03-29T10:55:01Z</time></trkpt><trkpt lat="45.44984333567033" lon="10.51504233768535"><ele>134.5</ele><time>2026-03-29T10:55:02Z</time></trkpt><trkpt lat="45.44985851802975" lon="10.51486194155428"><ele>135.0</ele><time>2026-03-29T10:55:03Z</time></trkpt><trkpt lat="45.449863540410234" lon="10.514645109788054"><ele>135.33333333333334</ele><time>2026-03-29T10:55:04Z</time></trkpt><trkpt lat="45.44987662600346" lon="10.514414152131012"><ele>135.66666666666669</ele><time>2026-03-29T10:55:05Z</time></trkpt><trkpt lat="45.44989485593589" lon="10.514176636812287"><ele>136.0</ele><time>2026-03-29T10:55:06Z</time></trkpt><trkpt lat="45.449913317202835" lon="10.51395301174742"><ele>137.0</ele><time>2026-03-29T10:55:07Z</time></trkpt><trkpt lat="45.44993206600513" lon="10.513734721113755"><ele>138.0</ele><time>2026-03-29T10:55:08Z</time></trkpt><trkpt lat="45.44994845701918" lon="10.51350642325309"><ele>139.0</ele><time>2026-03-29T10:55:09Z</time></trkpt><trkpt lat="45.44996368983422" lon="10.513279908441161"><ele>139.0</ele><time>2026-03-29T10:55:10Z</time></trkpt><trkpt lat="45.44998077277742" lon="10.513048491756695"><ele>139.0</ele><time>2026-03-29T10:55:11Z</time></trkpt><trkpt lat="45.44999936817392" lon="10.51282058547517"><ele>139.0</ele><time>2026-03-29T10:55:12Z</time></trkpt><trkpt lat="45.45001687160122" lon="10.512593796002527"><ele>139.25</ele><time>2026-03-29T10:55:13Z</time></trkpt><trkpt lat="45.450064631464386" lon="10.512391264172395"><ele>139.5</ele><time>2026-03-29T10:55:14Z</time></trkpt><trkpt lat="45.45010916028953" lon="10.512189109127831"><ele>139.75</ele><time>2026-03-29T10:55:15Z</time></trkpt><trkpt lat="45.45014620494047" lon="10.511998336205288"><ele>140.0</ele><time>2026-03-29T10:55:16Z</time></trkpt><trkpt lat="45.45019118694887" lon="10.511820377921557"><ele>141.25</ele><time>2026-03-29T10:55:17Z</time></trkpt><trkpt lat="45.450226154793164" lon="10.511617987276884"><ele>142.5</ele><time>2026-03-29T10:55:18Z</time></trkpt><trkpt lat="45.450236168704365" lon="10.51145041379138"><ele>143.75</ele><time>2026-03-29T10:55:19Z</time></trkpt><trkpt lat="45.45025741821165" lon="10.51134767552934"><ele>145.0</ele><time>2026-03-29T10:55:20Z</time></trkpt><trkpt lat="45.45040414652577" lon="10.511358362720095"><ele>145.0</ele><time>2026-03-29T10:55:23Z</time></trkpt><trkpt lat="45.450482861476665" lon="10.511362527967945"><ele>145.0</ele><time>2026-03-29T10:55:24Z</time></trkpt><trkpt lat="45.45055591372511" lon="10.511386113291215"><ele>145.0</ele><time>2026-03-29T10:55:25Z</time></trkpt><trkpt lat="45.45067228896369" lon="10.511418127556492"><ele>145.0</ele><time>2026-03-29T10:55:27Z</time></trkpt><trkpt lat="45.45078326770698" lon="10.5114249079497"><ele>145.0</ele><time>2026-03-29T10:55:29Z</time></trkpt><trkpt lat="45.45088457691495" lon="10.511367587118421"><ele>146.0</ele><time>2026-03-29T10:55:31Z</time></trkpt><trkpt lat="45.45084781581296" lon="10.511200265012256"><ele>147.0</ele><time>2026-03-29T10:55:33Z</time></trkpt><trkpt lat="45.45079929991051" lon="10.511082617017843"><ele>148.0</ele><time>2026-03-29T10:55:34Z</time></trkpt><trkpt lat="45.450768398253054" lon="10.51093475582495"><ele>149.0</ele><time>2026-03-29T10:55:35Z</time></trkpt><trkpt lat="45.45077203724616" lon="10.51076407178043"><ele>150.0</ele><time>2026-03-29T10:55:36Z</time></trkpt><trkpt lat="45.45079482208143" lon="10.510575149909368"><ele>151.75</ele><time>2026-03-29T10:55:37Z</time></trkpt><trkpt lat="45.45081823831037" lon="10.51038672813108"><ele>153.5</ele><time>2026-03-29T10:55:38Z</time></trkpt><trkpt lat="45.45083602374865" lon="10.510199998310593"><ele>155.25</ele><time>2026-03-29T10:55:39Z</time></trkpt><trkpt lat="45.450846697161836" lon="10.510008631367494"><ele>157.0</ele><time>2026-03-29T10:55:40Z</time></trkpt><trkpt lat="45.45086235008859" lon="10.509807976784032"><ele>157.0</ele><time>2026-03-29T10:55:41Z</time></trkpt><trkpt lat="45.45087649220159" lon="10.509604589912268"><ele>157.0</ele><time>2026-03-29T10:55:42Z</time></trkpt><trkpt lat="45.45089186477652" lon="10.509404802549899"><ele>157.0</ele><time>2026-03-29T10:55:43Z</time></trkpt><trkpt lat="45.450907839737205" lon="10.509204242274123"><ele>157.0</ele><time>2026-03-29T10:55:44Z</time></trkpt><trkpt lat="45.450923355644115" lon="10.508999033760324"><ele>158.0</ele><time>2026-03-29T10:55:45Z</time></trkpt><trkpt lat="45.450938522406844" lon="10.50880383543286"><ele>159.0</ele><time>2026-03-29T10:55:46Z</time></trkpt><trkpt lat="45.45095284832672" lon="10.508609410254522"><ele>160.0</ele><time>2026-03-29T10:55:47Z</time></trkpt><trkpt lat="45.45096840521571" lon="10.508418181379476"><ele>161.0</ele><time>2026-03-29T10:55:48Z</time></trkpt><trkpt lat="45.45098701800861" lon="10.508246071418316"><ele>161.4</ele><time>2026-03-29T10:55:49Z</time></trkpt><trkpt lat="45.45100520242845" lon="10.508114766471557"><ele>161.8</ele><time>2026-03-29T10:55:50Z</time></trkpt><trkpt lat="45.451036115742745" lon="10.50800307151218"><ele>162.20000000000002</ele><time>2026-03-29T10:55:51Z</time></trkpt><trkpt lat="45.45109322059777" lon="10.507878845704008"><ele>162.60000000000002</ele><time>2026-03-29T10:55:52Z</time></trkpt><trkpt lat="45.451163473903414" lon="10.50775378119961"><ele>163.0</ele><time>2026-03-29T10:55:53Z</time></trkpt><trkpt lat="45.45123172300937" lon="10.50762133170331"><ele>163.25</ele><time>2026-03-29T10:55:54Z</time></trkpt><trkpt lat="45.45128984030799" lon="10.50747353080514"><ele>163.5</ele><time>2026-03-29T10:55:55Z</time></trkpt><trkpt lat="45.4513383704073" lon="10.507303424068153"><ele>163.75</ele><time>2026-03-29T10:55:56Z</time></trkpt><trkpt lat="45.45137534435249" lon="10.507121637091986"><ele>164.0</ele><time>2026-03-29T10:55:57Z</time></trkpt><trkpt lat="45.451402812983545" lon="10.50693882555479"><ele>168.0</ele><time>2026-03-29T10:55:58Z</time></trkpt><trkpt lat="45.451438759436606" lon="10.506767428798119"><ele>172.0</ele><time>2026-03-29T10:55:59Z</time></trkpt><trkpt lat="45.45147281286475" lon="10.506602495222223"><ele>176.0</ele><time>2026-03-29T10:56:00Z</time></trkpt><trkpt lat="45.451516910032446" lon="10.50643674476532"><ele>180.0</ele><time>2026-03-29T10:56:01Z</time></trkpt><trkpt lat="45.45156274139615" lon="10.506272335538862"><ele>180.75</ele><time>2026-03-29T10:56:02Z</time></trkpt><trkpt lat="45.451599873261614" lon="10.506108870028017"><ele>181.5</ele><time>2026-03-29T10:56:03Z</time></trkpt><trkpt lat="45.45164072963984" lon="10.505948644600243"><ele>182.25</ele><time>2026-03-29T10:56:04Z</time></trkpt><trkpt lat="45.45168177289167" lon="10.50578829399967"><ele>183.0</ele><time>2026-03-29T10:56:05Z</time></trkpt><trkpt lat="45.45173727303412" lon="10.505635022028219"><ele>183.0</ele><time>2026-03-29T10:56:06Z</time></trkpt><trkpt lat="45.451806066752894" lon="10.505489720686422"><ele>183.0</ele><time>2026-03-29T10:56:07Z</time></trkpt><trkpt lat="45.45187252708646" lon="10.50532071390456"><ele>183.0</ele><time>2026-03-29T10:56:08Z</time></trkpt><trkpt lat="45.451956374038105" lon="10.505164595691852"><ele>183.0</ele><time>2026-03-29T10:56:09Z</time></trkpt><trkpt lat="45.452017045106885" lon="10.504987653785461"><ele>183.75</ele><time>2026-03-29T10:56:10Z</time></trkpt><trkpt lat="45.45206944860228" lon="10.504800113075436"><ele>184.5</ele><time>2026-03-29T10:56:11Z</time></trkpt><trkpt lat="45.45212072568305" lon="10.504604429404893"><ele>185.25</ele><time>2026-03-29T10:56:12Z</time></trkpt><trkpt lat="45.452156769555245" lon="10.504399557703605"><ele>186.0</ele><time>2026-03-29T10:56:13Z</time></trkpt><trkpt lat="45.45219072911949" lon="10.504191498024182"><ele>186.0</ele><time>2026-03-29T10:56:14Z</time></trkpt><trkpt lat="45.45221333079225" lon="10.503982051971507"><ele>186.0</ele><time>2026-03-29T10:56:15Z</time></trkpt><trkpt lat="45.45222927164798" lon="10.503773538448973"><ele>186.0</ele><time>2026-03-29T10:56:16Z</time></trkpt><trkpt lat="45.452239136490874" lon="10.503589648534126"><ele>186.0</ele><time>2026-03-29T10:56:17Z</time></trkpt><trkpt lat="45.45225426729583" lon="10.503416642946336"><ele>186.0</ele><time>2026-03-29T10:56:18Z</time></trkpt><trkpt lat="45.45226643866549" lon="10.50326742152421"><ele>186.0</ele><time>2026-03-29T10:56:19Z</time></trkpt><trkpt lat="45.452289000928225" lon="10.503110767660992"><ele>186.0</ele><time>2026-03-29T10:56:20Z</time></trkpt><trkpt lat="45.45231997957413" lon="10.502937628962735"><ele>186.0</ele><time>2026-03-29T10:56:21Z</time></trkpt><trkpt lat="45.45237028204272" lon="10.502756661967606"><ele>185.75</ele><time>2026-03-29T10:56:22Z</time></trkpt><trkpt lat="45.452449047866736" lon="10.502591938458327"><ele>185.5</ele><time>2026-03-29T10:56:23Z</time></trkpt><trkpt lat="45.452533580577686" lon="10.502438521845477"><ele>185.25</ele><time>2026-03-29T10:56:24Z</time></trkpt><trkpt lat="45.45263443136221" lon="10.50227994433372"><ele>185.0</ele><time>2026-03-29T10:56:25Z</time></trkpt><trkpt lat="45.45274057739269" lon="10.50209999974986"><ele>184.33333333333331</ele><time>2026-03-29T10:56:26Z</time></trkpt><trkpt lat="45.452859062381265" lon="10.501928943070007"><ele>183.66666666666666</ele><time>2026-03-29T10:56:27Z</time></trkpt><trkpt lat="45.45298174715606" lon="10.501735297403876"><ele>183.0</ele><time>2026-03-29T10:56:28Z</time></trkpt><trkpt lat="45.453102752607265" lon="10.501540401093893"><ele>182.33333333333334</ele><time>2026-03-29T10:56:29Z</time></trkpt><trkpt lat="45.45322120973081" lon="10.501329064087157"><ele>181.66666666666669</ele><time>2026-03-29T10:56:30Z</time></trkpt><trkpt lat="45.45331377460696" lon="10.501103179458905"><ele>181.0</ele><time>2026-03-29T10:56:31Z</time></trkpt><trkpt lat="45.45339534083089" lon="10.50087450293438"><ele>181.0</ele><time>2026-03-29T10:56:32Z</time></trkpt><trkpt lat="45.45347275855011" lon="10.50066437436507"><ele>181.0</ele><time>2026-03-29T10:56:33Z</time></trkpt><trkpt lat="45.45354709056761" lon="10.500459411547258"><ele>181.0</ele><time>2026-03-29T10:56:34Z</time></trkpt><trkpt lat="45.45360638013039" lon="10.500261924103333"><ele>182.0</ele><time>2026-03-29T10:56:35Z</time></trkpt><trkpt lat="45.45364830702315" lon="10.500072261495879"><ele>183.0</ele><time>2026-03-29T10:56:36Z</time></trkpt><trkpt lat="45.45370104451031" lon="10.499869293608128"><ele>184.0</ele><time>2026-03-29T10:56:37Z</time></trkpt><trkpt lat="45.453794073591695" lon="10.499684237021484"><ele>184.66666666666669</ele><time>2026-03-29T10:56:38Z</time></trkpt><trkpt lat="45.45388332502586" lon="10.49949988997691"><ele>185.33333333333334</ele><time>2026-03-29T10:56:39Z</time></trkpt><trkpt lat="45.45399450902068" lon="10.499324025942345"><ele>186.0</ele><time>2026-03-29T10:56:40Z</time></trkpt><trkpt lat="45.454100278720574" lon="10.49914733977808"><ele>186.0</ele><time>2026-03-29T10:56:41Z</time></trkpt><trkpt lat="45.45419238411712" lon="10.498986844854224"><ele>186.0</ele><time>2026-03-29T10:56:42Z</time></trkpt><trkpt lat="45.45428674689301" lon="10.498853840272933"><ele>186.0</ele><time>2026-03-29T10:56:43Z</time></trkpt><trkpt lat="45.454404264890535" lon="10.498735347918746"><ele>186.0</ele><time>2026-03-29T10:56:44Z</time></trkpt><trkpt lat="45.45453243609172" lon="10.498618336447013"><ele>185.66666666666666</ele><time>2026-03-29T10:56:45Z</time></trkpt><trkpt lat="45.45466092049387" lon="10.498498202826392"><ele>185.33333333333331</ele><time>2026-03-29T10:56:46Z</time></trkpt><trkpt lat="45.45477582210288" lon="10.49835504498877"><ele>185.0</ele><time>2026-03-29T10:56:47Z</time></trkpt><trkpt lat="45.454879854313305" lon="10.498181994765075"><ele>185.0</ele><time>2026-03-29T10:56:48Z</time></trkpt><trkpt lat="45.4549703949467" lon="10.497991115588293"><ele>185.0</ele><time>2026-03-29T10:56:49Z</time></trkpt><trkpt lat="45.455046262732694" lon="10.497802666124407"><ele>185.0</ele><time>2026-03-29T10:56:50Z</time></trkpt><trkpt lat="45.45509248067765" lon="10.497619112424646"><ele>183.66666666666666</ele><time>2026-03-29T10:56:51Z</time></trkpt><trkpt lat="45.45512569332494" lon="10.49741844165793"><ele>182.33333333333334</ele><time>2026-03-29T10:56:52Z</time></trkpt><trkpt lat="45.455157927789806" lon="10.497190621761279"><ele>181.0</ele><time>2026-03-29T10:56:53Z</time></trkpt><trkpt lat="45.4551858293702" lon="10.49696892446956"><ele>179.66666666666669</ele><time>2026-03-29T10:56:54Z</time></trkpt><trkpt lat="45.45523139050479" lon="10.496742547419048"><ele>178.33333333333334</ele><time>2026-03-29T10:56:55Z</time></trkpt><trkpt lat="45.45528402525928" lon="10.496520230660844"><ele>177.0</ele><time>2026-03-29T10:56:56Z</time></trkpt><trkpt lat="45.45533044601153" lon="10.49628905478939"><ele>177.0</ele><time>2026-03-29T10:56:57Z</time></trkpt><trkpt lat="45.45537750774314" lon="10.496061522042863"><ele>177.0</ele><time>2026-03-29T10:56:58Z</time></trkpt><trkpt lat="45.45542188882031" lon="10.495842288968932"><ele>177.0</ele><time>2026-03-29T10:56:59Z</time></trkpt><trkpt lat="45.455461885776074" lon="10.49561909970445"><ele>176.33333333333334</ele><time>2026-03-29T10:57:00Z</time></trkpt><trkpt lat="45.45548617595273" lon="10.495396047606913"><ele>175.66666666666669</ele><time>2026-03-29T10:57:01Z</time></trkpt><trkpt lat="45.45549997292021" lon="10.495167101051075"><ele>175.0</ele><time>2026-03-29T10:57:02Z</time></trkpt><trkpt lat="45.45550876925815" lon="10.49493906747017"><ele>175.0</ele><time>2026-03-29T10:57:03Z</time></trkpt><trkpt lat="45.45552868306582" lon="10.49470689993073"><ele>175.0</ele><time>2026-03-29T10:57:04Z</time></trkpt><trkpt lat="45.45555294918881" lon="10.494479733507278"><ele>175.0</ele><time>2026-03-29T10:57:05Z</time></trkpt><trkpt lat="45.45558567749014" lon="10.49425177023308"><ele>174.75</ele><time>2026-03-29T10:57:06Z</time></trkpt><trkpt lat="45.45561840452383" lon="10.494036780813056"><ele>174.5</ele><time>2026-03-29T10:57:07Z</time></trkpt><trkpt lat="45.455655368941144" lon="10.49383554358348"><ele>174.25</ele><time>2026-03-29T10:57:08Z</time></trkpt><trkpt lat="45.45569668561151" lon="10.493654174694829"><ele>174.0</ele><time>2026-03-29T10:57:09Z</time></trkpt><trkpt lat="45.45574339941927" lon="10.493481708290187"><ele>173.0</ele><time>2026-03-29T10:57:10Z</time></trkpt><trkpt lat="45.45579863272691" lon="10.493311809257088"><ele>172.0</ele><time>2026-03-29T10:57:11Z</time></trkpt><trkpt lat="45.455864893639514" lon="10.49313831481987"><ele>171.0</ele><time>2026-03-29T10:57:12Z</time></trkpt><trkpt lat="45.45594182547834" lon="10.492974457378514"><ele>170.0</ele><time>2026-03-29T10:57:13Z</time></trkpt><trkpt lat="45.45601255362001" lon="10.492817000244516"><ele>169.25</ele><time>2026-03-29T10:57:14Z</time></trkpt><trkpt lat="45.45608698053559" lon="10.492659743906584"><ele>168.5</ele><time>2026-03-29T10:57:15Z</time></trkpt><trkpt lat="45.45615969360982" lon="10.492518817776674"><ele>167.75</ele><time>2026-03-29T10:57:16Z</time></trkpt><trkpt lat="45.456213486026" lon="10.49236714126076"><ele>167.0</ele><time>2026-03-29T10:57:17Z</time></trkpt><trkpt lat="45.456221240908974" lon="10.492207932804375"><ele>166.16666666666666</ele><time>2026-03-29T10:57:18Z</time></trkpt><trkpt lat="45.45621479578632" lon="10.49206125638569"><ele>165.33333333333331</ele><time>2026-03-29T10:57:19Z</time></trkpt><trkpt lat="45.456205992193304" lon="10.491956262879725"><ele>164.5</ele><time>2026-03-29T10:57:20Z</time></trkpt><trkpt lat="45.456194432865594" lon="10.49181359351411"><ele>163.66666666666666</ele><time>2026-03-29T10:57:22Z</time></trkpt><trkpt lat="45.45618719134017" lon="10.491720403697844"><ele>162.83333333333334</ele><time>2026-03-29T10:57:24Z</time></trkpt><trkpt lat="45.45618878095705" lon="10.491623563662033"><ele>162.0</ele><time>2026-03-29T10:57:51Z</time></trkpt><trkpt lat="45.45618764768999" lon="10.49153297860328"><ele>162.0</ele><time>2026-03-29T10:57:52Z</time></trkpt><trkpt lat="45.45621339876992" lon="10.491405107854494"><ele>162.0</ele><time>2026-03-29T10:57:53Z</time></trkpt><trkpt lat="45.45622177956084" lon="10.491263252595047"><ele>162.0</ele><time>2026-03-29T10:57:54Z</time></trkpt><trkpt lat="45.456303047659425" lon="10.491144660784673"><ele>162.0</ele><time>2026-03-29T10:57:55Z</time></trkpt><trkpt lat="45.45637061473187" lon="10.491031283693745"><ele>162.0</ele><time>2026-03-29T10:57:56Z</time></trkpt><trkpt lat="45.45643904270978" lon="10.490920918509795"><ele>161.8</ele><time>2026-03-29T10:57:57Z</time></trkpt><trkpt lat="45.45651925941607" lon="10.49081671037299"><ele>161.6</ele><time>2026-03-29T10:57:58Z</time></trkpt><trkpt lat="45.456596340434196" lon="10.490722238050738"><ele>161.4</ele><time>2026-03-29T10:57:59Z</time></trkpt><trkpt lat="45.4566694986901" lon="10.490625955832446"><ele>161.20000000000002</ele><time>2026-03-29T10:58:00Z</time></trkpt><trkpt lat="45.45675020163758" lon="10.490536303199434"><ele>161.0</ele><time>2026-03-29T10:58:01Z</time></trkpt><trkpt lat="45.45684023425475" lon="10.490437459319834"><ele>161.0</ele><time>2026-03-29T10:58:02Z</time></trkpt><trkpt lat="45.45693637316645" lon="10.490337961824288"><ele>161.0</ele><time>2026-03-29T10:58:03Z</time></trkpt><trkpt lat="45.45703678559061" lon="10.49024485380389"><ele>161.0</ele><time>2026-03-29T10:58:04Z</time></trkpt><trkpt lat="45.457126577279496" lon="10.490138207487922"><ele>161.0</ele><time>2026-03-29T10:58:05Z</time></trkpt><trkpt lat="45.457208176815854" lon="10.490042478861483"><ele>161.5</ele><time>2026-03-29T10:58:06Z</time></trkpt><trkpt lat="45.45727505989742" lon="10.489960528264568"><ele>162.0</ele><time>2026-03-29T10:58:07Z</time></trkpt><trkpt lat="45.4573296480823" lon="10.489902027821405"><ele>162.5</ele><time>2026-03-29T10:58:08Z</time></trkpt><trkpt lat="45.457410260830144" lon="10.489863460526559"><ele>163.0</ele><time>2026-03-29T10:58:10Z</time></trkpt><trkpt lat="45.457500944729546" lon="10.489811137688136"><ele>163.5</ele><time>2026-03-29T10:58:13Z</time></trkpt><trkpt lat="45.45756302477586" lon="10.489761848929867"><ele>164.0</ele><time>2026-03-29T10:58:14Z</time></trkpt><trkpt lat="45.457643373414896" lon="10.489723606089754"><ele>164.0</ele><time>2026-03-29T10:58:15Z</time></trkpt><trkpt lat="45.457732509456754" lon="10.489663383147272"><ele>164.0</ele><time>2026-03-29T10:58:16Z</time></trkpt><trkpt lat="45.4578158560993" lon="10.489605191394817"><ele>164.0</ele><time>2026-03-29T10:58:17Z</time></trkpt><trkpt lat="45.45790341270956" lon="10.489543030978034"><ele>164.0</ele><time>2026-03-29T10:58:18Z</time></trkpt><trkpt lat="45.45798207818022" lon="10.489486269762287"><ele>164.0</ele><time>2026-03-29T10:58:19Z</time></trkpt><trkpt lat="45.458042720636755" lon="10.489444008061376"><ele>164.0</ele><time>2026-03-29T10:58:20Z</time></trkpt><trkpt lat="45.458141690962684" lon="10.489381950848973"><ele>163.79999999999998</ele><time>2026-03-29T10:58:22Z</time></trkpt><trkpt lat="45.45824190611757" lon="10.48930695124937"><ele>163.6</ele><time>2026-03-29T10:58:24Z</time></trkpt><trkpt lat="45.458313041659316" lon="10.489264410327005"><ele>163.4</ele><time>2026-03-29T10:58:25Z</time></trkpt><trkpt lat="45.458393873936565" lon="10.48921653687933"><ele>163.2</ele><time>2026-03-29T10:58:26Z</time></trkpt><trkpt lat="45.458489521669414" lon="10.489163391972232"><ele>163.0</ele><time>2026-03-29T10:58:27Z</time></trkpt><trkpt lat="45.45859743206296" lon="10.48910602030712"><ele>163.0</ele><time>2026-03-29T10:58:28Z</time></trkpt><trkpt lat="45.458703570914295" lon="10.489066665425927"><ele>163.0</ele><time>2026-03-29T10:58:29Z</time></trkpt><trkpt lat="45.458802844432896" lon="10.48903450147057"><ele>163.0</ele><time>2026-03-29T10:58:30Z</time></trkpt><trkpt lat="45.45890570278313" lon="10.489015681967425"><ele>163.0</ele><time>2026-03-29T10:58:31Z</time></trkpt><trkpt lat="45.459012018005325" lon="10.489007194533755"><ele>163.0</ele><time>2026-03-29T10:58:32Z</time></trkpt><trkpt lat="45.45911977555792" lon="10.489002092412122"><ele>163.4</ele><time>2026-03-29T10:58:33Z</time></trkpt><trkpt lat="45.459225373531275" lon="10.489041125487411"><ele>163.8</ele><time>2026-03-29T10:58:34Z</time></trkpt><trkpt lat="45.45932619716746" lon="10.489065201077368"><ele>164.2</ele><time>2026-03-29T10:58:35Z</time></trkpt><trkpt lat="45.459425486905204" lon="10.489099164567685"><ele>164.6</ele><time>2026-03-29T10:58:36Z</time></trkpt><trkpt lat="45.459517556004435" lon="10.489138278164091"><ele>165.0</ele><time>2026-03-29T10:58:37Z</time></trkpt><trkpt lat="45.45961367045266" lon="10.489161896760994"><ele>164.4</ele><time>2026-03-29T10:58:38Z</time></trkpt><trkpt lat="45.45971155451599" lon="10.489220779366864"><ele>163.8</ele><time>2026-03-29T10:58:39Z</time></trkpt><trkpt lat="45.45981821804255" lon="10.489275020839358"><ele>163.2</ele><time>2026-03-29T10:58:40Z</time></trkpt><trkpt lat="45.45991749878856" lon="10.489332551755867"><ele>162.6</ele><time>2026-03-29T10:58:41Z</time></trkpt><trkpt lat="45.460001594672235" lon="10.489407567688133"><ele>162.0</ele><time>2026-03-29T10:58:42Z</time></trkpt><trkpt lat="45.46007847030339" lon="10.489485089175119"><ele>162.0</ele><time>2026-03-29T10:58:43Z</time></trkpt><trkpt lat="45.460153871807634" lon="10.489570113289453"><ele>162.0</ele><time>2026-03-29T10:58:44Z</time></trkpt><trkpt lat="45.460211751561594" lon="10.489683588440618"><ele>162.0</ele><time>2026-03-29T10:58:45Z</time></trkpt><trkpt lat="45.46027148164152" lon="10.489770488443387"><ele>162.0</ele><time>2026-03-29T10:58:46Z</time></trkpt><trkpt lat="45.46032628665892" lon="10.489826179447723"><ele>162.0</ele><time>2026-03-29T10:58:47Z</time></trkpt><trkpt lat="45.46037108922473" lon="10.489912795108875"><ele>162.0</ele><time>2026-03-29T10:58:48Z</time></trkpt><trkpt lat="45.46041122695125" lon="10.489989983723795"><ele>161.8</ele><time>2026-03-29T10:58:49Z</time></trkpt><trkpt lat="45.46049828582291" lon="10.490140280561869"><ele>161.6</ele><time>2026-03-29T10:58:51Z</time></trkpt><trkpt lat="45.46053957280979" lon="10.4902363581954"><ele>161.4</ele><time>2026-03-29T10:58:52Z</time></trkpt><trkpt lat="45.46058316128218" lon="10.490334219746964"><ele>161.20000000000002</ele><time>2026-03-29T10:58:53Z</time></trkpt><trkpt lat="45.460616490376744" lon="10.490418204115066"><ele>161.0</ele><time>2026-03-29T10:58:54Z</time></trkpt><trkpt lat="45.460645756612074" lon="10.490553142411292"><ele>161.5</ele><time>2026-03-29T10:58:56Z</time></trkpt><trkpt lat="45.46064759292682" lon="10.490652955194903"><ele>162.0</ele><time>2026-03-29T10:58:57Z</time></trkpt><trkpt lat="45.460624413580994" lon="10.49076642941223"><ele>162.5</ele><time>2026-03-29T10:58:58Z</time></trkpt><trkpt lat="45.46057477760692" lon="10.490854416968775"><ele>163.0</ele><time>2026-03-29T10:58:59Z</time></trkpt><trkpt lat="45.46051441202788" lon="10.490902636761314"><ele>163.5</ele><time>2026-03-29T10:59:00Z</time></trkpt><trkpt lat="45.46040530206461" lon="10.490868292829989"><ele>164.0</ele><time>2026-03-29T10:59:02Z</time></trkpt><trkpt lat="45.460404738781214" lon="10.4907101192049"><ele>164.0</ele><time>2026-03-29T10:59:04Z</time></trkpt><trkpt lat="45.46042449732865" lon="10.490559710837857"><ele>164.0</ele><time>2026-03-29T10:59:06Z</time></trkpt><trkpt lat="45.46045099389824" lon="10.490454407202087"><ele>164.0</ele><time>2026-03-29T10:59:08Z</time></trkpt><trkpt lat="45.46044873387302" lon="10.490353204376857"><ele>164.0</ele><time>2026-03-29T10:59:11Z</time></trkpt><trkpt lat="45.46046122020522" lon="10.490256899325312"><ele>164.0</ele><time>2026-03-29T10:59:15Z</time></trkpt><trkpt lat="45.46031865690061" lon="10.490244327701536"><ele>164.16666666666666</ele><time>2026-03-29T11:02:41Z</time></trkpt><trkpt lat="45.460229394067504" lon="10.490238463658326"><ele>164.33333333333331</ele><time>2026-03-29T11:02:46Z</time></trkpt><trkpt lat="45.46016350637315" lon="10.49024065604267"><ele>164.5</ele><time>2026-03-29T11:02:48Z</time></trkpt><trkpt lat="45.460133429776064" lon="10.490379858908707"><ele>164.66666666666666</ele><time>2026-03-29T11:02:51Z</time></trkpt><trkpt lat="45.460129013337045" lon="10.490491182341602"><ele>164.83333333333334</ele><time>2026-03-29T11:02:53Z</time></trkpt><trkpt lat="45.46014601888562" lon="10.49060639138499"><ele>165.0</ele><time>2026-03-29T11:02:55Z</time></trkpt><trkpt lat="45.460152112967315" lon="10.49076506659617"><ele>164.8</ele><time>2026-03-29T11:02:57Z</time></trkpt><trkpt lat="45.46021594182739" lon="10.490871682681142"><ele>164.6</ele><time>2026-03-29T11:02:59Z</time></trkpt><trkpt lat="45.4603227525304" lon="10.49086226250494"><ele>164.39999999999998</ele><time>2026-03-29T11:03:01Z</time></trkpt><trkpt lat="45.4604062008037" lon="10.490859618776765"><ele>164.2</ele><time>2026-03-29T11:03:03Z</time></trkpt><trkpt lat="45.46047989897738" lon="10.490902509314575"><ele>164.0</ele><time>2026-03-29T11:03:05Z</time></trkpt><trkpt lat="45.460558637455044" lon="10.49094169092163"><ele>164.0</ele><time>2026-03-29T11:03:07Z</time></trkpt><trkpt lat="45.460643629891045" lon="10.490979014524225"><ele>164.0</ele><time>2026-03-29T11:03:09Z</time></trkpt><trkpt lat="45.460743807370356" lon="10.491089132529506"><ele>164.0</ele><time>2026-03-29T11:03:11Z</time></trkpt><trkpt lat="45.46079991155958" lon="10.491136764559805"><ele>164.0</ele><time>2026-03-29T11:03:12Z</time></trkpt><trkpt lat="45.46088227805104" lon="10.491144367258022"><ele>164.0</ele><time>2026-03-29T11:03:13Z</time></trkpt><trkpt lat="45.4609715259796" lon="10.491105094155904"><ele>164.0</ele><time>2026-03-29T11:03:14Z</time></trkpt><trkpt lat="45.46103736126429" lon="10.491021218806972"><ele>164.0</ele><time>2026-03-29T11:03:15Z</time></trkpt><trkpt lat="45.46107729818894" lon="10.490903736898131"><ele>164.0</ele><time>2026-03-29T11:03:16Z</time></trkpt><trkpt lat="45.461102718888064" lon="10.490769088712849"><ele>164.0</ele><time>2026-03-29T11:03:17Z</time></trkpt><trkpt lat="45.46112607743859" lon="10.490606990276756"><ele>164.0</ele><time>2026-03-29T11:03:18Z</time></trkpt><trkpt lat="45.461171389462095" lon="10.490448610075566"><ele>164.5</ele><time>2026-03-29T11:03:19Z</time></trkpt><trkpt lat="45.46125087923829" lon="10.490307253142259"><ele>165.0</ele><time>2026-03-29T11:03:20Z</time></trkpt><trkpt lat="45.461346184216474" lon="10.490177541167089"><ele>165.5</ele><time>2026-03-29T11:03:21Z</time></trkpt><trkpt lat="45.46143111818879" lon="10.490030683718366"><ele>166.0</ele><time>2026-03-29T11:03:22Z</time></trkpt><trkpt lat="45.46149757219503" lon="10.489913493531978"><ele>166.0</ele><time>2026-03-29T11:03:23Z</time></trkpt><trkpt lat="45.46157066641188" lon="10.489838426129017"><ele>166.0</ele><time>2026-03-29T11:03:24Z</time></trkpt><trkpt lat="45.46166951870894" lon="10.48977929329768"><ele>166.0</ele><time>2026-03-29T11:03:25Z</time></trkpt><trkpt lat="45.46178937289778" lon="10.489745711321044"><ele>166.0</ele><time>2026-03-29T11:03:26Z</time></trkpt><trkpt lat="45.46190959961491" lon="10.489756459286468"><ele>166.0</ele><time>2026-03-29T11:03:27Z</time></trkpt><trkpt lat="45.46202643752644" lon="10.489818257959303"><ele>167.0</ele><time>2026-03-29T11:03:28Z</time></trkpt><trkpt lat="45.46216032609013" lon="10.48991171884772"><ele>168.0</ele><time>2026-03-29T11:03:29Z</time></trkpt><trkpt lat="45.46229960875295" lon="10.490034182383251"><ele>169.0</ele><time>2026-03-29T11:03:30Z</time></trkpt><trkpt lat="45.462439714986395" lon="10.490140438092604"><ele>169.0</ele><time>2026-03-29T11:03:31Z</time></trkpt><trkpt lat="45.46259167756809" lon="10.490196875055418"><ele>169.0</ele><time>2026-03-29T11:03:32Z</time></trkpt><trkpt lat="45.46275702297493" lon="10.490192393379948"><ele>169.0</ele><time>2026-03-29T11:03:33Z</time></trkpt><trkpt lat="45.46291850727298" lon="10.49013888127997"><ele>168.66666666666669</ele><time>2026-03-29T11:03:34Z</time></trkpt><trkpt lat="45.463090152933866" lon="10.490027990572374"><ele>168.33333333333334</ele><time>2026-03-29T11:03:35Z</time></trkpt><trkpt lat="45.46326302141588" lon="10.489893162139944"><ele>168.0</ele><time>2026-03-29T11:03:36Z</time></trkpt><trkpt lat="45.463430271765176" lon="10.48974400676514"><ele>168.0</ele><time>2026-03-29T11:03:37Z</time></trkpt><trkpt lat="45.463603237813956" lon="10.489592224420546"><ele>168.0</ele><time>2026-03-29T11:03:38Z</time></trkpt><trkpt lat="45.46377213744678" lon="10.48945337376987"><ele>168.0</ele><time>2026-03-29T11:03:39Z</time></trkpt><trkpt lat="45.463947327465675" lon="10.489313585871184"><ele>168.0</ele><time>2026-03-29T11:03:40Z</time></trkpt><trkpt lat="45.464127224269205" lon="10.489177701032359"><ele>168.0</ele><time>2026-03-29T11:03:41Z</time></trkpt><trkpt lat="45.46430414681999" lon="10.48905766177303"><ele>168.0</ele><time>2026-03-29T11:03:42Z</time></trkpt><trkpt lat="45.464490048487505" lon="10.48895584813684"><ele>167.0</ele><time>2026-03-29T11:03:43Z</time></trkpt><trkpt lat="45.464685533653636" lon="10.488876547569838"><ele>166.0</ele><time>2026-03-29T11:03:44Z</time></trkpt><trkpt lat="45.46488842035687" lon="10.488822030940055"><ele>165.0</ele><time>2026-03-29T11:03:45Z</time></trkpt><trkpt lat="45.46510007686578" lon="10.48879378814165"><ele>165.0</ele><time>2026-03-29T11:03:46Z</time></trkpt><trkpt lat="45.465318278393596" lon="10.488820547822268"><ele>165.0</ele><time>2026-03-29T11:03:47Z</time></trkpt><trkpt lat="45.46554144186509" lon="10.488836497803524"><ele>165.0</ele><time>2026-03-29T11:03:48Z</time></trkpt><trkpt lat="45.46576599452225" lon="10.488885921963625"><ele>162.0</ele><time>2026-03-29T11:03:49Z</time></trkpt><trkpt lat="45.46599225438767" lon="10.488946681800929"><ele>159.0</ele><time>2026-03-29T11:03:50Z</time></trkpt><trkpt lat="45.46622113889719" lon="10.489005231942079"><ele>162.5</ele><time>2026-03-29T11:03:51Z</time></trkpt><trkpt lat="45.466452276298725" lon="10.489059289427034"><ele>166.0</ele><time>2026-03-29T11:03:52Z</time></trkpt><trkpt lat="45.466680689885756" lon="10.489110765658644"><ele>166.0</ele><time>2026-03-29T11:03:53Z</time></trkpt><trkpt lat="45.46690133182447" lon="10.489165767969524"><ele>166.0</ele><time>2026-03-29T11:03:54Z</time></trkpt><trkpt lat="45.4671134937367" lon="10.489222059752429"><ele>166.0</ele><time>2026-03-29T11:03:55Z</time></trkpt><trkpt lat="45.46732757425323" lon="10.489282963079546"><ele>166.66666666666669</ele><time>2026-03-29T11:03:56Z</time></trkpt><trkpt lat="45.467524521354996" lon="10.489380590833077"><ele>167.33333333333334</ele><time>2026-03-29T11:03:57Z</time></trkpt><trkpt lat="45.46773210112479" lon="10.489440485248567"><ele>168.0</ele><time>2026-03-29T11:03:58Z</time></trkpt><trkpt lat="45.467936452967756" lon="10.489529412277367"><ele>167.0</ele><time>2026-03-29T11:03:59Z</time></trkpt><trkpt lat="45.4681359727057" lon="10.489618293769636"><ele>166.0</ele><time>2026-03-29T11:04:00Z</time></trkpt><trkpt lat="45.46833989655049" lon="10.48970967155012"><ele>165.0</ele><time>2026-03-29T11:04:01Z</time></trkpt><trkpt lat="45.46853802562059" lon="10.489796830558763"><ele>165.0</ele><time>2026-03-29T11:04:02Z</time></trkpt><trkpt lat="45.468733440203415" lon="10.489880347567185"><ele>165.0</ele><time>2026-03-29T11:04:03Z</time></trkpt><trkpt lat="45.468933040237786" lon="10.489963951841784"><ele>165.0</ele><time>2026-03-29T11:04:04Z</time></trkpt><trkpt lat="45.469114268343475" lon="10.490035499191935"><ele>163.66666666666666</ele><time>2026-03-29T11:04:05Z</time></trkpt><trkpt lat="45.469288062874185" lon="10.490110375587804"><ele>162.33333333333331</ele><time>2026-03-29T11:04:06Z</time></trkpt><trkpt lat="45.46945397614085" lon="10.490186640559621"><ele>161.0</ele><time>2026-03-29T11:04:07Z</time></trkpt><trkpt lat="45.4696352486375" lon="10.490266504498175"><ele>160.33333333333331</ele><time>2026-03-29T11:04:08Z</time></trkpt><trkpt lat="45.469815327154805" lon="10.490385231601014"><ele>159.66666666666666</ele><time>2026-03-29T11:04:09Z</time></trkpt><trkpt lat="45.469996533432834" lon="10.490463713871197"><ele>159.0</ele><time>2026-03-29T11:04:10Z</time></trkpt><trkpt lat="45.47018444161527" lon="10.490545098875117"><ele>158.66666666666666</ele><time>2026-03-29T11:04:11Z</time></trkpt><trkpt lat="45.470365967425856" lon="10.490624954783668"><ele>158.33333333333331</ele><time>2026-03-29T11:04:12Z</time></trkpt><trkpt lat="45.47055687262809" lon="10.490710074476977"><ele>158.0</ele><time>2026-03-29T11:04:13Z</time></trkpt><trkpt lat="45.47075577777402" lon="10.490775409283916"><ele>157.33333333333331</ele><time>2026-03-29T11:04:14Z</time></trkpt><trkpt lat="45.47094491738769" lon="10.490880695335367"><ele>156.66666666666666</ele><time>2026-03-29T11:04:15Z</time></trkpt><trkpt lat="45.47114140388751" lon="10.490966843706602"><ele>156.0</ele><time>2026-03-29T11:04:16Z</time></trkpt><trkpt lat="45.471334422814856" lon="10.491052624525478"><ele>155.33333333333334</ele><time>2026-03-29T11:04:17Z</time></trkpt><trkpt lat="45.47153266808535" lon="10.491117563066561"><ele>154.66666666666669</ele><time>2026-03-29T11:04:18Z</time></trkpt><trkpt lat="45.47172684019374" lon="10.491204908266482"><ele>154.0</ele><time>2026-03-29T11:04:19Z</time></trkpt><trkpt lat="45.471910842518824" lon="10.491282036694983"><ele>153.33333333333334</ele><time>2026-03-29T11:04:20Z</time></trkpt><trkpt lat="45.472081141417114" lon="10.491379379862726"><ele>152.66666666666666</ele><time>2026-03-29T11:04:21Z</time></trkpt><trkpt lat="45.47224697623393" lon="10.49145264022713"><ele>152.0</ele><time>2026-03-29T11:04:22Z</time></trkpt><trkpt lat="45.472401476873976" lon="10.491520893522102"><ele>152.0</ele><time>2026-03-29T11:04:23Z</time></trkpt><trkpt lat="45.47252973776153" lon="10.491577804739352"><ele>152.0</ele><time>2026-03-29T11:04:24Z</time></trkpt><trkpt lat="45.472635530692074" lon="10.491602295257815"><ele>152.0</ele><time>2026-03-29T11:04:25Z</time></trkpt><trkpt lat="45.4727029695689" lon="10.49164457559616"><ele>152.0</ele><time>2026-03-29T11:04:26Z</time></trkpt><trkpt lat="45.47276548625916" lon="10.491696179511807"><ele>152.0</ele><time>2026-03-29T11:04:28Z</time></trkpt><trkpt lat="45.472792772120485" lon="10.491777644858944"><ele>152.0</ele><time>2026-03-29T11:04:31Z</time></trkpt><trkpt lat="45.47272794147913" lon="10.49186318309758"><ele>152.0</ele><time>2026-03-29T11:27:18Z</time></trkpt><trkpt lat="45.472689660405706" lon="10.491788086269525"><ele>152.0</ele><time>2026-03-29T11:27:20Z</time></trkpt><trkpt lat="45.472721671227944" lon="10.49168979782556"><ele>152.0</ele><time>2026-03-29T11:27:22Z</time></trkpt><trkpt lat="45.47280726234278" lon="10.491605203346275"><ele>152.0</ele><time>2026-03-29T11:27:24Z</time></trkpt><trkpt lat="45.472862784618414" lon="10.491515756418423"><ele>152.0</ele><time>2026-03-29T11:27:25Z</time></trkpt><trkpt lat="45.472892283611166" lon="10.491402769987998"><ele>152.0</ele><time>2026-03-29T11:27:26Z</time></trkpt><trkpt lat="45.472904341631676" lon="10.491262168606053"><ele>152.0</ele><time>2026-03-29T11:27:27Z</time></trkpt><trkpt lat="45.47291875312475" lon="10.491078989572234"><ele>152.0</ele><time>2026-03-29T11:27:28Z</time></trkpt><trkpt lat="45.47294022185111" lon="10.490921253192377"><ele>152.0</ele><time>2026-03-29T11:27:29Z</time></trkpt><trkpt lat="45.472967196486884" lon="10.490810041242792"><ele>152.0</ele><time>2026-03-29T11:27:30Z</time></trkpt><trkpt lat="45.4730660153903" lon="10.49079820079312"><ele>153.25</ele><time>2026-03-29T11:27:32Z</time></trkpt><trkpt lat="45.47312840381186" lon="10.490848392522865"><ele>154.5</ele><time>2026-03-29T11:27:33Z</time></trkpt><trkpt lat="45.47326727968357" lon="10.490895950727058"><ele>155.75</ele><time>2026-03-29T11:27:34Z</time></trkpt><trkpt lat="45.47341896694804" lon="10.490897628190174"><ele>157.0</ele><time>2026-03-29T11:27:35Z</time></trkpt><trkpt lat="45.473527768486015" lon="10.490898054257627"><ele>157.0</ele><time>2026-03-29T11:27:36Z</time></trkpt><trkpt lat="45.47361015091867" lon="10.490840366301963"><ele>157.0</ele><time>2026-03-29T11:27:37Z</time></trkpt><trkpt lat="45.473686125139444" lon="10.49072805727936"><ele>157.0</ele><time>2026-03-29T11:27:38Z</time></trkpt><trkpt lat="45.47374726849479" lon="10.490629855401476"><ele>157.0</ele><time>2026-03-29T11:27:39Z</time></trkpt><trkpt lat="45.4738346834382" lon="10.490577053358948"><ele>157.0</ele><time>2026-03-29T11:27:40Z</time></trkpt><trkpt lat="45.473943036808215" lon="10.490638453517434"><ele>158.0</ele><time>2026-03-29T11:27:41Z</time></trkpt><trkpt lat="45.47411907062795" lon="10.490675968801924"><ele>159.0</ele><time>2026-03-29T11:27:42Z</time></trkpt><trkpt lat="45.47433289860478" lon="10.490687323772226"><ele>160.0</ele><time>2026-03-29T11:27:43Z</time></trkpt><trkpt lat="45.47450109733467" lon="10.490720043136658"><ele>160.75</ele><time>2026-03-29T11:27:44Z</time></trkpt><trkpt lat="45.47463763616073" lon="10.490744717866288"><ele>161.5</ele><time>2026-03-29T11:27:45Z</time></trkpt><trkpt lat="45.474757622552936" lon="10.490752238715247"><ele>162.25</ele><time>2026-03-29T11:27:46Z</time></trkpt><trkpt lat="45.47487406424695" lon="10.49071185946429"><ele>163.0</ele><time>2026-03-29T11:27:47Z</time></trkpt><trkpt lat="45.475002177404555" lon="10.490622231595049"><ele>163.0</ele><time>2026-03-29T11:27:48Z</time></trkpt><trkpt lat="45.475142890830554" lon="10.490518063717984"><ele>163.0</ele><time>2026-03-29T11:27:49Z</time></trkpt><trkpt lat="45.47523680621873" lon="10.49044221289149"><ele>163.0</ele><time>2026-03-29T11:27:50Z</time></trkpt><trkpt lat="45.47533372715661" lon="10.490442962326988"><ele>163.0</ele><time>2026-03-29T11:27:51Z</time></trkpt><trkpt lat="45.47542575372092" lon="10.490499751398781"><ele>164.33333333333334</ele><time>2026-03-29T11:27:52Z</time></trkpt><trkpt lat="45.47556009914715" lon="10.490568101136278"><ele>165.66666666666666</ele><time>2026-03-29T11:27:53Z</time></trkpt><trkpt lat="45.47573583669308" lon="10.4906292518774"><ele>167.0</ele><time>2026-03-29T11:27:54Z</time></trkpt><trkpt lat="45.47586302744756" lon="10.490674697308162"><ele>167.0</ele><time>2026-03-29T11:27:55Z</time></trkpt><trkpt lat="45.47596652544127" lon="10.49073849254191"><ele>167.0</ele><time>2026-03-29T11:27:56Z</time></trkpt><trkpt lat="45.47606553228834" lon="10.490839021830272"><ele>167.0</ele><time>2026-03-29T11:27:57Z</time></trkpt><trkpt lat="45.47616603007162" lon="10.490933039311857"><ele>167.0</ele><time>2026-03-29T11:27:58Z</time></trkpt><trkpt lat="45.476267855315896" lon="10.491024011636641"><ele>167.0</ele><time>2026-03-29T11:27:59Z</time></trkpt><trkpt lat="45.47639110058788" lon="10.491089424438742"><ele>167.0</ele><time>2026-03-29T11:28:00Z</time></trkpt><trkpt lat="45.47650642219091" lon="10.49118608241636"><ele>167.0</ele><time>2026-03-29T11:28:01Z</time></trkpt><trkpt lat="45.47665402868492" lon="10.491255526280213"><ele>167.0</ele><time>2026-03-29T11:28:02Z</time></trkpt><trkpt lat="45.47677987638409" lon="10.49137037461659"><ele>167.0</ele><time>2026-03-29T11:28:03Z</time></trkpt><trkpt lat="45.47689196854826" lon="10.491471336965041"><ele>167.0</ele><time>2026-03-29T11:28:04Z</time></trkpt><trkpt lat="45.477001324561535" lon="10.49160402300815"><ele>167.0</ele><time>2026-03-29T11:28:05Z</time></trkpt><trkpt lat="45.47711769919876" lon="10.491715982437631"><ele>167.0</ele><time>2026-03-29T11:28:06Z</time></trkpt><trkpt lat="45.47721686195661" lon="10.49184278458534"><ele>168.0</ele><time>2026-03-29T11:28:07Z</time></trkpt><trkpt lat="45.47730210135571" lon="10.491981985235883"><ele>169.0</ele><time>2026-03-29T11:28:08Z</time></trkpt><trkpt lat="45.47740636265028" lon="10.492110471409365"><ele>170.0</ele><time>2026-03-29T11:28:09Z</time></trkpt><trkpt lat="45.47750669106574" lon="10.49223073192384"><ele>171.0</ele><time>2026-03-29T11:28:10Z</time></trkpt><trkpt lat="45.477607198104494" lon="10.492347989556384"><ele>171.0</ele><time>2026-03-29T11:28:11Z</time></trkpt><trkpt lat="45.477735002338505" lon="10.49249169760473"><ele>171.0</ele><time>2026-03-29T11:28:12Z</time></trkpt><trkpt lat="45.477843825014276" lon="10.492606495438977"><ele>171.0</ele><time>2026-03-29T11:28:13Z</time></trkpt><trkpt lat="45.4779374672066" lon="10.492674247412575"><ele>171.0</ele><time>2026-03-29T11:28:14Z</time></trkpt><trkpt lat="45.47800709243717" lon="10.492771537744062"><ele>170.7142857142857</ele><time>2026-03-29T11:28:15Z</time></trkpt><trkpt lat="45.47807673060129" lon="10.492845723320741"><ele>170.42857142857142</ele><time>2026-03-29T11:28:16Z</time></trkpt><trkpt lat="45.47814429785606" lon="10.492895825349274"><ele>170.14285714285714</ele><time>2026-03-29T11:28:17Z</time></trkpt><trkpt lat="45.47820143517652" lon="10.492957355803183"><ele>169.85714285714283</ele><time>2026-03-29T11:28:18Z</time></trkpt><trkpt lat="45.47824992338969" lon="10.493019546778303"><ele>169.57142857142856</ele><time>2026-03-29T11:28:19Z</time></trkpt><trkpt lat="45.47830314545616" lon="10.493081023066722"><ele>169.28571428571428</ele><time>2026-03-29T11:28:20Z</time></trkpt><trkpt lat="45.478353101991395" lon="10.493149524725757"><ele>169.0</ele><time>2026-03-29T11:28:21Z</time></trkpt><trkpt lat="45.4784109364173" lon="10.493197776209533"><ele>169.0</ele><time>2026-03-29T11:28:22Z</time></trkpt><trkpt lat="45.47847784676029" lon="10.493249729357977"><ele>169.0</ele><time>2026-03-29T11:28:23Z</time></trkpt><trkpt lat="45.47852436231787" lon="10.49331352685282"><ele>169.0</ele><time>2026-03-29T11:28:24Z</time></trkpt><trkpt lat="45.47859062994055" lon="10.493368838543335"><ele>169.0</ele><time>2026-03-29T11:28:26Z</time></trkpt><trkpt lat="45.47870563858838" lon="10.493167218948814"><ele>169.0</ele><time>2026-03-29T11:28:27Z</time></trkpt><trkpt lat="45.47874313554332" lon="10.493030437270953"><ele>170.25</ele><time>2026-03-29T11:28:28Z</time></trkpt><trkpt lat="45.4787728303847" lon="10.492856603758199"><ele>171.5</ele><time>2026-03-29T11:28:29Z</time></trkpt><trkpt lat="45.478805953509536" lon="10.492663277033431"><ele>172.75</ele><time>2026-03-29T11:28:30Z</time></trkpt><trkpt lat="45.47883635676515" lon="10.492493759308585"><ele>174.0</ele><time>2026-03-29T11:28:31Z</time></trkpt><trkpt lat="45.478864140287435" lon="10.492353250620633"><ele>174.0</ele><time>2026-03-29T11:28:32Z</time></trkpt><trkpt lat="45.47890006500343" lon="10.492197442728946"><ele>174.0</ele><time>2026-03-29T11:28:33Z</time></trkpt><trkpt lat="45.47893478275431" lon="10.492042116968381"><ele>174.0</ele><time>2026-03-29T11:28:34Z</time></trkpt><trkpt lat="45.47896561665383" lon="10.491920246607458"><ele>174.0</ele><time>2026-03-29T11:28:35Z</time></trkpt><trkpt lat="45.47900202691938" lon="10.491818683658021"><ele>174.0</ele><time>2026-03-29T11:28:36Z</time></trkpt><trkpt lat="45.47904814785221" lon="10.491721927369072"><ele>174.5</ele><time>2026-03-29T11:28:37Z</time></trkpt><trkpt lat="45.479105853294804" lon="10.491639997688479"><ele>175.0</ele><time>2026-03-29T11:28:38Z</time></trkpt><trkpt lat="45.479173167970416" lon="10.491585914631107"><ele>175.5</ele><time>2026-03-29T11:28:39Z</time></trkpt><trkpt lat="45.479251318582115" lon="10.491555053269506"><ele>176.0</ele><time>2026-03-29T11:28:40Z</time></trkpt><trkpt lat="45.47933691273238" lon="10.49155891392635"><ele>176.5</ele><time>2026-03-29T11:28:41Z</time></trkpt><trkpt lat="45.47943129142347" lon="10.49157657738695"><ele>177.0</ele><time>2026-03-29T11:28:42Z</time></trkpt><trkpt lat="45.479539469807946" lon="10.491600291253238"><ele>177.5</ele><time>2026-03-29T11:28:43Z</time></trkpt><trkpt lat="45.47965271728538" lon="10.491623046905243"><ele>178.0</ele><time>2026-03-29T11:28:44Z</time></trkpt><trkpt lat="45.47977612495688" lon="10.491650296571272"><ele>178.5</ele><time>2026-03-29T11:28:45Z</time></trkpt><trkpt lat="45.47988988138462" lon="10.49167889038828"><ele>179.0</ele><time>2026-03-29T11:28:46Z</time></trkpt><trkpt lat="45.479996014219125" lon="10.491695863596735"><ele>179.0</ele><time>2026-03-29T11:28:47Z</time></trkpt><trkpt lat="45.48009616818518" lon="10.491677979346008"><ele>179.0</ele><time>2026-03-29T11:28:48Z</time></trkpt><trkpt lat="45.4802060388093" lon="10.491699693042609"><ele>179.0</ele><time>2026-03-29T11:28:49Z</time></trkpt><trkpt lat="45.48032052327941" lon="10.49167650982266"><ele>179.0</ele><time>2026-03-29T11:28:50Z</time></trkpt><trkpt lat="45.480436264655154" lon="10.491675687142129"><ele>179.0</ele><time>2026-03-29T11:28:51Z</time></trkpt><trkpt lat="45.480561418406936" lon="10.491687316236558"><ele>179.5</ele><time>2026-03-29T11:28:52Z</time></trkpt><trkpt lat="45.48068351081769" lon="10.49173056198963"><ele>180.0</ele><time>2026-03-29T11:28:53Z</time></trkpt><trkpt lat="45.4807990462168" lon="10.491790524220816"><ele>180.5</ele><time>2026-03-29T11:28:54Z</time></trkpt><trkpt lat="45.480909908548995" lon="10.491865397536083"><ele>181.0</ele><time>2026-03-29T11:28:55Z</time></trkpt><trkpt lat="45.48102704756951" lon="10.491921304764192"><ele>181.0</ele><time>2026-03-29T11:28:56Z</time></trkpt><trkpt lat="45.48113724088786" lon="10.491956500989136"><ele>181.0</ele><time>2026-03-29T11:28:57Z</time></trkpt><trkpt lat="45.48124556933706" lon="10.491972270586608"><ele>181.0</ele><time>2026-03-29T11:28:58Z</time></trkpt><trkpt lat="45.48137607643503" lon="10.491984610765641"><ele>181.0</ele><time>2026-03-29T11:28:59Z</time></trkpt><trkpt lat="45.48149842600519" lon="10.491994577612"><ele>180.60000000000002</ele><time>2026-03-29T11:29:00Z</time></trkpt><trkpt lat="45.48160686377055" lon="10.49200898811941"><ele>180.2</ele><time>2026-03-29T11:29:01Z</time></trkpt><trkpt lat="45.48170740694128" lon="10.492034192650202"><ele>179.8</ele><time>2026-03-29T11:29:02Z</time></trkpt><trkpt lat="45.48180533990078" lon="10.492062068419825"><ele>179.39999999999998</ele><time>2026-03-29T11:29:03Z</time></trkpt><trkpt lat="45.48188731421918" lon="10.492081792508518"><ele>179.0</ele><time>2026-03-29T11:29:04Z</time></trkpt><trkpt lat="45.48196445622838" lon="10.492103157069991"><ele>179.0</ele><time>2026-03-29T11:29:05Z</time></trkpt><trkpt lat="45.48205445769758" lon="10.492121588434651"><ele>179.0</ele><time>2026-03-29T11:29:06Z</time></trkpt><trkpt lat="45.48212885475792" lon="10.49213900032428"><ele>179.0</ele><time>2026-03-29T11:29:07Z</time></trkpt><trkpt lat="45.48219500974245" lon="10.492144747823167"><ele>179.0</ele><time>2026-03-29T11:29:08Z</time></trkpt><trkpt lat="45.48226084342389" lon="10.492143386205353"><ele>179.0</ele><time>2026-03-29T11:29:09Z</time></trkpt><trkpt lat="45.48237892342736" lon="10.4921190368574"><ele>179.0</ele><time>2026-03-29T11:29:11Z</time></trkpt><trkpt lat="45.482440088855505" lon="10.49206463114828"><ele>180.39999999999998</ele><time>2026-03-29T11:29:13Z</time></trkpt><trkpt lat="45.48237614842428" lon="10.491920813604857"><ele>181.8</ele><time>2026-03-29T11:29:15Z</time></trkpt><trkpt lat="45.482321030080676" lon="10.491851382746432"><ele>183.2</ele><time>2026-03-29T11:29:16Z</time></trkpt><trkpt lat="45.482255150147004" lon="10.491759607018835"><ele>184.60000000000002</ele><time>2026-03-29T11:29:17Z</time></trkpt><trkpt lat="45.48217211258297" lon="10.491601852139443"><ele>186.0</ele><time>2026-03-29T11:29:18Z</time></trkpt><trkpt lat="45.48206469019617" lon="10.49142931718068"><ele>186.0</ele><time>2026-03-29T11:29:19Z</time></trkpt><trkpt lat="45.481974044190025" lon="10.49128616835709"><ele>186.0</ele><time>2026-03-29T11:29:20Z</time></trkpt><trkpt lat="45.481876827428806" lon="10.491164047546443"><ele>186.0</ele><time>2026-03-29T11:29:21Z</time></trkpt><trkpt lat="45.481792388571634" lon="10.491023435018443"><ele>186.0</ele><time>2026-03-29T11:29:22Z</time></trkpt><trkpt lat="45.481713627513166" lon="10.490878779753062"><ele>187.16666666666666</ele><time>2026-03-29T11:29:23Z</time></trkpt><trkpt lat="45.48164012177866" lon="10.490763789448993"><ele>188.33333333333331</ele><time>2026-03-29T11:29:24Z</time></trkpt><trkpt lat="45.48157224865684" lon="10.490657610702078"><ele>189.5</ele><time>2026-03-29T11:29:25Z</time></trkpt><trkpt lat="45.481515990888674" lon="10.49056880405249"><ele>190.66666666666666</ele><time>2026-03-29T11:29:26Z</time></trkpt><trkpt lat="45.481468764649875" lon="10.490491892625533"><ele>191.83333333333331</ele><time>2026-03-29T11:29:27Z</time></trkpt><trkpt lat="45.48142221375883" lon="10.490416081168636"><ele>193.0</ele><time>2026-03-29T11:29:28Z</time></trkpt><trkpt lat="45.48137182342407" lon="10.490334019107442"><ele>192.2</ele><time>2026-03-29T11:29:29Z</time></trkpt><trkpt lat="45.48127989979443" lon="10.49025556717689"><ele>191.4</ele><time>2026-03-29T11:29:30Z</time></trkpt><trkpt lat="45.48121312919491" lon="10.490121961196522"><ele>190.6</ele><time>2026-03-29T11:29:31Z</time></trkpt><trkpt lat="45.481148863919984" lon="10.490013395796845"><ele>189.79999999999998</ele><time>2026-03-29T11:29:32Z</time></trkpt><trkpt lat="45.48108131082392" lon="10.489917879689589"><ele>189.0</ele><time>2026-03-29T11:29:33Z</time></trkpt><trkpt lat="45.48101319937524" lon="10.489803204235274"><ele>189.0</ele><time>2026-03-29T11:29:34Z</time></trkpt><trkpt lat="45.48094495691947" lon="10.48969628242161"><ele>189.0</ele><time>2026-03-29T11:29:35Z</time></trkpt><trkpt lat="45.480861655682475" lon="10.489623883923842"><ele>189.0</ele><time>2026-03-29T11:29:36Z</time></trkpt><trkpt lat="45.48076685157615" lon="10.489593728245396"><ele>189.0</ele><time>2026-03-29T11:29:37Z</time></trkpt><trkpt lat="45.48066719608305" lon="10.489584234911755"><ele>189.0</ele><time>2026-03-29T11:29:38Z</time></trkpt><trkpt lat="45.48055196529481" lon="10.489568969033312"><ele>190.39999999999998</ele><time>2026-03-29T11:29:39Z</time></trkpt><trkpt lat="45.48044455625258" lon="10.489552647873872"><ele>191.8</ele><time>2026-03-29T11:29:40Z</time></trkpt><trkpt lat="45.48035367641897" lon="10.489519684321852"><ele>193.2</ele><time>2026-03-29T11:29:41Z</time></trkpt><trkpt lat="45.48027064733416" lon="10.489453247022455"><ele>194.60000000000002</ele><time>2026-03-29T11:29:42Z</time></trkpt><trkpt lat="45.480181331814805" lon="10.4893733342676"><ele>196.0</ele><time>2026-03-29T11:29:43Z</time></trkpt><trkpt lat="45.4800962383689" lon="10.489281684457916"><ele>196.5</ele><time>2026-03-29T11:29:44Z</time></trkpt><trkpt lat="45.4800166759115" lon="10.489180629493628"><ele>197.0</ele><time>2026-03-29T11:29:45Z</time></trkpt><trkpt lat="45.47993979737503" lon="10.489059268539116"><ele>197.5</ele><time>2026-03-29T11:29:46Z</time></trkpt><trkpt lat="45.47986771456168" lon="10.488916379336173"><ele>198.0</ele><time>2026-03-29T11:29:47Z</time></trkpt><trkpt lat="45.479799897743135" lon="10.488755229285672"><ele>197.60000000000002</ele><time>2026-03-29T11:29:48Z</time></trkpt><trkpt lat="45.47975065486906" lon="10.488616430656913"><ele>197.20000000000002</ele><time>2026-03-29T11:29:49Z</time></trkpt><trkpt lat="45.47971083133994" lon="10.4884930342634"><ele>196.8</ele><time>2026-03-29T11:29:50Z</time></trkpt><trkpt lat="45.47966356597073" lon="10.488343563000564"><ele>196.4</ele><time>2026-03-29T11:29:51Z</time></trkpt><trkpt lat="45.479614843290335" lon="10.488186537646259"><ele>196.0</ele><time>2026-03-29T11:29:52Z</time></trkpt><trkpt lat="45.47956484073703" lon="10.488018352852087"><ele>197.75</ele><time>2026-03-29T11:29:53Z</time></trkpt><trkpt lat="45.47951712091838" lon="10.487880078919941"><ele>199.5</ele><time>2026-03-29T11:29:54Z</time></trkpt><trkpt lat="45.47943750109718" lon="10.487743332561768"><ele>201.25</ele><time>2026-03-29T11:29:55Z</time></trkpt><trkpt lat="45.47937058564508" lon="10.487625074360238"><ele>203.0</ele><time>2026-03-29T11:29:56Z</time></trkpt><trkpt lat="45.479288065406465" lon="10.487510118761161"><ele>203.0</ele><time>2026-03-29T11:29:57Z</time></trkpt><trkpt lat="45.47922370043473" lon="10.487446932421653"><ele>203.0</ele><time>2026-03-29T11:29:58Z</time></trkpt><trkpt lat="45.479176757732276" lon="10.487362988951965"><ele>203.0</ele><time>2026-03-29T11:30:02Z</time></trkpt><trkpt lat="45.47924821030252" lon="10.487225751247074"><ele>203.0</ele><time>2026-03-29T11:30:03Z</time></trkpt><trkpt lat="45.47930247185676" lon="10.48709403800799"><ele>203.0</ele><time>2026-03-29T11:30:04Z</time></trkpt><trkpt lat="45.47936127984069" lon="10.486950152277858"><ele>203.5</ele><time>2026-03-29T11:30:05Z</time></trkpt><trkpt lat="45.47941918418561" lon="10.486781125581443"><ele>204.0</ele><time>2026-03-29T11:30:06Z</time></trkpt><trkpt lat="45.47947568245455" lon="10.486594730689916"><ele>204.5</ele><time>2026-03-29T11:30:07Z</time></trkpt><trkpt lat="45.47953028369297" lon="10.486417984850801"><ele>205.0</ele><time>2026-03-29T11:30:08Z</time></trkpt><trkpt lat="45.47959496702561" lon="10.486255525986348"><ele>206.66666666666666</ele><time>2026-03-29T11:30:09Z</time></trkpt><trkpt lat="45.47966767924666" lon="10.486083134874354"><ele>208.33333333333331</ele><time>2026-03-29T11:30:10Z</time></trkpt><trkpt lat="45.479763490387114" lon="10.485865006888686"><ele>210.0</ele><time>2026-03-29T11:30:11Z</time></trkpt><trkpt lat="45.47984467024171" lon="10.485692155876071"><ele>210.0</ele><time>2026-03-29T11:30:12Z</time></trkpt><trkpt lat="45.47991487718509" lon="10.485548173053717"><ele>210.0</ele><time>2026-03-29T11:30:13Z</time></trkpt><trkpt lat="45.4799679716562" lon="10.48543223257448"><ele>210.0</ele><time>2026-03-29T11:30:14Z</time></trkpt><trkpt lat="45.48002349975053" lon="10.48530695305604"><ele>210.0</ele><time>2026-03-29T11:30:15Z</time></trkpt><trkpt lat="45.48007038211106" lon="10.485175100114443"><ele>210.0</ele><time>2026-03-29T11:30:16Z</time></trkpt><trkpt lat="45.48010506575593" lon="10.485065732073311"><ele>210.66666666666666</ele><time>2026-03-29T11:30:17Z</time></trkpt><trkpt lat="45.48014811378051" lon="10.484963175668128"><ele>211.33333333333331</ele><time>2026-03-29T11:30:18Z</time></trkpt><trkpt lat="45.48019289675431" lon="10.48482743996125"><ele>212.0</ele><time>2026-03-29T11:30:19Z</time></trkpt><trkpt lat="45.480224940046995" lon="10.484706084397894"><ele>212.66666666666666</ele><time>2026-03-29T11:30:20Z</time></trkpt><trkpt lat="45.480248202648305" lon="10.484594877716573"><ele>213.33333333333331</ele><time>2026-03-29T11:30:21Z</time></trkpt><trkpt lat="45.48025496946627" lon="10.48447469227885"><ele>214.0</ele><time>2026-03-29T11:30:22Z</time></trkpt><trkpt lat="45.48025274492177" lon="10.484374746904228"><ele>214.79999999999998</ele><time>2026-03-29T11:30:23Z</time></trkpt><trkpt lat="45.480221179082164" lon="10.48426704157061"><ele>215.59999999999997</ele><time>2026-03-29T11:30:24Z</time></trkpt><trkpt lat="45.48021585893728" lon="10.484164727112287"><ele>216.4</ele><time>2026-03-29T11:30:25Z</time></trkpt><trkpt lat="45.48018680690472" lon="10.484030414915562"><ele>217.2</ele><time>2026-03-29T11:30:26Z</time></trkpt><trkpt lat="45.480145223161365" lon="10.48388944678892"><ele>218.0</ele><time>2026-03-29T11:30:27Z</time></trkpt><trkpt lat="45.48008468278741" lon="10.483777402569434"><ele>219.0</ele><time>2026-03-29T11:30:28Z</time></trkpt><trkpt lat="45.480043303921306" lon="10.483669685980866"><ele>220.0</ele><time>2026-03-29T11:30:29Z</time></trkpt><trkpt lat="45.479980047716346" lon="10.48355482125466"><ele>221.0</ele><time>2026-03-29T11:30:30Z</time></trkpt><trkpt lat="45.47990859834692" lon="10.483465150848527"><ele>222.0</ele><time>2026-03-29T11:30:31Z</time></trkpt><trkpt lat="45.479863082323526" lon="10.483368638179842"><ele>223.0</ele><time>2026-03-29T11:30:32Z</time></trkpt><trkpt lat="45.47978968619354" lon="10.48323196426137"><ele>223.0</ele><time>2026-03-29T11:30:34Z</time></trkpt><trkpt lat="45.47975594241314" lon="10.483066829416991"><ele>223.0</ele><time>2026-03-29T11:30:36Z</time></trkpt><trkpt lat="45.47974021598932" lon="10.48294480892913"><ele>223.0</ele><time>2026-03-29T11:30:37Z</time></trkpt><trkpt lat="45.47973381836784" lon="10.482794530979074"><ele>223.0</ele><time>2026-03-29T11:30:38Z</time></trkpt><trkpt lat="45.47971046407189" lon="10.482651723990262"><ele>223.0</ele><time>2026-03-29T11:30:39Z</time></trkpt><trkpt lat="45.47967631738031" lon="10.482529451284403"><ele>223.33333333333331</ele><time>2026-03-29T11:30:40Z</time></trkpt><trkpt lat="45.47966143925186" lon="10.48242582348698"><ele>223.66666666666666</ele><time>2026-03-29T11:30:41Z</time></trkpt><trkpt lat="45.47966547390597" lon="10.482257231729873"><ele>224.0</ele><time>2026-03-29T11:30:43Z</time></trkpt><trkpt lat="45.47967368077241" lon="10.482149808947858"><ele>224.33333333333331</ele><time>2026-03-29T11:30:44Z</time></trkpt><trkpt lat="45.47966099154917" lon="10.4820345998667"><ele>224.66666666666666</ele><time>2026-03-29T11:30:45Z</time></trkpt><trkpt lat="45.47963966026742" lon="10.481927663303365"><ele>225.0</ele><time>2026-03-29T11:30:46Z</time></trkpt><trkpt lat="45.47960474193526" lon="10.48185187965452"><ele>224.83333333333334</ele><time>2026-03-29T11:30:47Z</time></trkpt><trkpt lat="45.47956021197342" lon="10.481743335935237"><ele>224.66666666666669</ele><time>2026-03-29T11:30:49Z</time></trkpt><trkpt lat="45.479525910826816" lon="10.48166515999204"><ele>224.5</ele><time>2026-03-29T11:31:25Z</time></trkpt><trkpt lat="45.47946974241567" lon="10.481559801490654"><ele>224.33333333333334</ele><time>2026-03-29T11:31:28Z</time></trkpt><trkpt lat="45.47942928838346" lon="10.48145866853676"><ele>224.16666666666669</ele><time>2026-03-29T11:31:30Z</time></trkpt><trkpt lat="45.479391015842545" lon="10.481354850153528"><ele>224.0</ele><time>2026-03-29T11:31:32Z</time></trkpt><trkpt lat="45.479357465755065" lon="10.481263897335312"><ele>222.66666666666669</ele><time>2026-03-29T11:31:34Z</time></trkpt><trkpt lat="45.479329485713784" lon="10.481182448864137"><ele>221.33333333333334</ele><time>2026-03-29T11:31:36Z</time></trkpt><trkpt lat="45.47930806848789" lon="10.481096001628666"><ele>220.0</ele><time>2026-03-29T11:31:38Z</time></trkpt><trkpt lat="45.4792739813697" lon="10.48097294074373"><ele>218.66666666666669</ele><time>2026-03-29T11:31:41Z</time></trkpt><trkpt lat="45.479242219580556" lon="10.480859688044012"><ele>217.33333333333334</ele><time>2026-03-29T11:31:44Z</time></trkpt><trkpt lat="45.479230950793834" lon="10.480770207972395"><ele>216.0</ele><time>2026-03-29T11:31:46Z</time></trkpt><trkpt lat="45.4792107532323" lon="10.480651299816094"><ele>216.0</ele><time>2026-03-29T11:31:49Z</time></trkpt><trkpt lat="45.479159468462996" lon="10.480588628801684"><ele>216.0</ele><time>2026-03-29T11:31:53Z</time></trkpt><trkpt lat="45.47919595889762" lon="10.480667032015907"><ele>216.0</ele><time>2026-03-29T11:33:28Z</time></trkpt><trkpt lat="45.47924053095243" lon="10.480849865245743"><ele>216.0</ele><time>2026-03-29T11:33:31Z</time></trkpt><trkpt lat="45.47927771331023" lon="10.480958291905493"><ele>216.0</ele><time>2026-03-29T11:33:32Z</time></trkpt><trkpt lat="45.47930739760346" lon="10.481087011273427"><ele>216.0</ele><time>2026-03-29T11:33:33Z</time></trkpt><trkpt lat="45.47932866847831" lon="10.481225632036713"><ele>217.33333333333334</ele><time>2026-03-29T11:33:34Z</time></trkpt><trkpt lat="45.479376561442564" lon="10.48133876460719"><ele>218.66666666666669</ele><time>2026-03-29T11:33:35Z</time></trkpt><trkpt lat="45.47942275648717" lon="10.481452895387806"><ele>220.0</ele><time>2026-03-29T11:33:36Z</time></trkpt><trkpt lat="45.47946935644591" lon="10.481566673207004"><ele>221.33333333333334</ele><time>2026-03-29T11:33:37Z</time></trkpt><trkpt lat="45.47950941573317" lon="10.481670698976902"><ele>222.66666666666669</ele><time>2026-03-29T11:33:38Z</time></trkpt><trkpt lat="45.47955296684424" lon="10.481763832489252"><ele>224.0</ele><time>2026-03-29T11:33:39Z</time></trkpt><trkpt lat="45.479613573293086" lon="10.481833512191276"><ele>224.16666666666669</ele><time>2026-03-29T11:33:40Z</time></trkpt><trkpt lat="45.47965404094977" lon="10.481911198851684"><ele>224.33333333333334</ele><time>2026-03-29T11:33:41Z</time></trkpt><trkpt lat="45.479698317756956" lon="10.482070001985756"><ele>224.5</ele><time>2026-03-29T11:33:43Z</time></trkpt><trkpt lat="45.4797052179695" lon="10.482165087201986"><ele>224.66666666666669</ele><time>2026-03-29T11:33:44Z</time></trkpt><trkpt lat="45.4796936061385" lon="10.482266639415608"><ele>224.83333333333334</ele><time>2026-03-29T11:33:45Z</time></trkpt><trkpt lat="45.47966968601759" lon="10.482373843472699"><ele>225.0</ele><time>2026-03-29T11:33:46Z</time></trkpt><trkpt lat="45.479657528018805" lon="10.48246852923154"><ele>224.66666666666666</ele><time>2026-03-29T11:33:47Z</time></trkpt><trkpt lat="45.47967284735433" lon="10.48255686111394"><ele>224.33333333333331</ele><time>2026-03-29T11:33:48Z</time></trkpt><trkpt lat="45.47968822952529" lon="10.4826631567005"><ele>224.0</ele><time>2026-03-29T11:33:49Z</time></trkpt><trkpt lat="45.47971254690942" lon="10.48275153874815"><ele>223.66666666666666</ele><time>2026-03-29T11:33:50Z</time></trkpt><trkpt lat="45.479752877146375" lon="10.482837152879627"><ele>223.33333333333331</ele><time>2026-03-29T11:33:51Z</time></trkpt><trkpt lat="45.4797748392338" lon="10.482928941331066"><ele>223.0</ele><time>2026-03-29T11:33:52Z</time></trkpt><trkpt lat="45.47975869031972" lon="10.483094422770506"><ele>222.99999999999997</ele><time>2026-03-29T11:33:54Z</time></trkpt><trkpt lat="45.47976285327335" lon="10.48321003586283"><ele>223.0</ele><time>2026-03-29T11:33:56Z</time></trkpt><trkpt lat="45.479796191734756" lon="10.483336274867943"><ele>223.0</ele><time>2026-03-29T11:33:58Z</time></trkpt><trkpt lat="45.479839742182264" lon="10.483402816868564"><ele>223.0</ele><time>2026-03-29T11:33:59Z</time></trkpt><trkpt lat="45.47981975985302" lon="10.483492023593916"><ele>222.99999999999997</ele><time>2026-03-29T11:34:00Z</time></trkpt><trkpt lat="45.47994244977605" lon="10.4835497700123"><ele>223.0</ele><time>2026-03-29T11:34:01Z</time></trkpt><trkpt lat="45.47999584422437" lon="10.483627416310396"><ele>222.99999999999997</ele><time>2026-03-29T11:34:02Z</time></trkpt><trkpt lat="45.48004996923941" lon="10.48373608178632"><ele>223.0</ele><time>2026-03-29T11:34:04Z</time></trkpt><trkpt lat="45.48008689419665" lon="10.48384435303795"><ele>223.0</ele><time>2026-03-29T11:34:06Z</time></trkpt><trkpt lat="45.48012836188893" lon="10.483931911734777"><ele>223.0</ele><time>2026-03-29T11:34:07Z</time></trkpt><trkpt lat="45.480150457861754" lon="10.484020269430914"><ele>222.99999999999997</ele><time>2026-03-29T11:34:08Z</time></trkpt><trkpt lat="45.480187516823875" lon="10.484171266521203"><ele>223.0</ele><time>2026-03-29T11:34:10Z</time></trkpt><trkpt lat="45.48021444310154" lon="10.48433680702505"><ele>222.0</ele><time>2026-03-29T11:34:12Z</time></trkpt><trkpt lat="45.48022053675863" lon="10.484491015638685"><ele>221.0</ele><time>2026-03-29T11:34:14Z</time></trkpt><trkpt lat="45.48019658936372" lon="10.4846450507736"><ele>220.0</ele><time>2026-03-29T11:34:16Z</time></trkpt><trkpt lat="45.48016126132626" lon="10.484770441299528"><ele>219.0</ele><time>2026-03-29T11:34:18Z</time></trkpt><trkpt lat="45.480127523996025" lon="10.48489687043338"><ele>218.0</ele><time>2026-03-29T11:34:20Z</time></trkpt><trkpt lat="45.48010592129731" lon="10.485001362344907"><ele>217.33333333333334</ele><time>2026-03-29T11:34:23Z</time></trkpt><trkpt lat="45.480121262828334" lon="10.485113338560618"><ele>216.66666666666669</ele><time>2026-03-29T11:34:27Z</time></trkpt><trkpt lat="45.48018900036397" lon="10.485102610457918"><ele>216.0</ele><time>2026-03-29T11:34:31Z</time></trkpt><trkpt lat="45.48013570140871" lon="10.485033159624523"><ele>215.33333333333331</ele><time>2026-03-29T11:39:45Z</time></trkpt><trkpt lat="45.480139610339734" lon="10.484934892214357"><ele>214.66666666666666</ele><time>2026-03-29T11:40:03Z</time></trkpt><trkpt lat="45.48020637915767" lon="10.484784633251536"><ele>214.0</ele><time>2026-03-29T11:40:05Z</time></trkpt><trkpt lat="45.48023124885298" lon="10.484681991084846"><ele>214.66666666666666</ele><time>2026-03-29T11:40:06Z</time></trkpt><trkpt lat="45.480250019354045" lon="10.484569689147946"><ele>215.33333333333331</ele><time>2026-03-29T11:40:07Z</time></trkpt><trkpt lat="45.48025661847971" lon="10.484446740561703"><ele>216.0</ele><time>2026-03-29T11:40:08Z</time></trkpt><trkpt lat="45.4802391253648" lon="10.484332586523125"><ele>216.66666666666669</ele><time>2026-03-29T11:40:09Z</time></trkpt><trkpt lat="45.480224807660555" lon="10.484225813013655"><ele>217.33333333333334</ele><time>2026-03-29T11:40:10Z</time></trkpt><trkpt lat="45.48019984384121" lon="10.484133992515023"><ele>218.0</ele><time>2026-03-29T11:40:11Z</time></trkpt><trkpt lat="45.48017535626604" lon="10.483984379836082"><ele>218.0</ele><time>2026-03-29T11:40:12Z</time></trkpt><trkpt lat="45.48011042824841" lon="10.48383432465232"><ele>218.0</ele><time>2026-03-29T11:40:13Z</time></trkpt><trkpt lat="45.48005354776623" lon="10.48369204832466"><ele>218.0</ele><time>2026-03-29T11:40:14Z</time></trkpt><trkpt lat="45.4799936262919" lon="10.483578206940486"><ele>218.0</ele><time>2026-03-29T11:40:15Z</time></trkpt><trkpt lat="45.47991389908639" lon="10.483473877544853"><ele>218.0</ele><time>2026-03-29T11:40:16Z</time></trkpt><trkpt lat="45.479853668347246" lon="10.483354587155745"><ele>219.0</ele><time>2026-03-29T11:40:17Z</time></trkpt><trkpt lat="45.479803636906034" lon="10.483260512934683"><ele>220.0</ele><time>2026-03-29T11:40:18Z</time></trkpt><trkpt lat="45.479767396063885" lon="10.483169839235796"><ele>221.0</ele><time>2026-03-29T11:40:19Z</time></trkpt><trkpt lat="45.47975238714847" lon="10.483002600891572"><ele>222.0</ele><time>2026-03-29T11:40:21Z</time></trkpt><trkpt lat="45.47974257223377" lon="10.482850574611597"><ele>223.0</ele><time>2026-03-29T11:40:22Z</time></trkpt><trkpt lat="45.47972799009914" lon="10.482710442458556"><ele>223.33333333333331</ele><time>2026-03-29T11:40:23Z</time></trkpt><trkpt lat="45.47969713658475" lon="10.482586654782722"><ele>223.66666666666666</ele><time>2026-03-29T11:40:24Z</time></trkpt><trkpt lat="45.47966968523926" lon="10.482477773607073"><ele>224.0</ele><time>2026-03-29T11:40:25Z</time></trkpt><trkpt lat="45.479663573477374" lon="10.482351155292369"><ele>224.33333333333331</ele><time>2026-03-29T11:40:26Z</time></trkpt><trkpt lat="45.47965225541244" lon="10.482235867654255"><ele>224.66666666666666</ele><time>2026-03-29T11:40:28Z</time></trkpt><trkpt lat="45.47966336869078" lon="10.482140532052844"><ele>225.0</ele><time>2026-03-29T11:40:29Z</time></trkpt><trkpt lat="45.479663822383905" lon="10.482048274551923"><ele>225.0</ele><time>2026-03-29T11:40:30Z</time></trkpt><trkpt lat="45.479646474832805" lon="10.481961085373799"><ele>225.0</ele><time>2026-03-29T11:40:31Z</time></trkpt><trkpt lat="45.47962026437191" lon="10.481876619045835"><ele>225.0</ele><time>2026-03-29T11:40:32Z</time></trkpt><trkpt lat="45.4795773096472" lon="10.481773634854195"><ele>225.0</ele><time>2026-03-29T11:40:33Z</time></trkpt><trkpt lat="45.47951534025274" lon="10.481657544005538"><ele>225.0</ele><time>2026-03-29T11:40:34Z</time></trkpt><trkpt lat="45.479460593990375" lon="10.481535875354762"><ele>225.0</ele><time>2026-03-29T11:40:35Z</time></trkpt><trkpt lat="45.479405417291034" lon="10.481408177527673"><ele>224.8</ele><time>2026-03-29T11:40:36Z</time></trkpt><trkpt lat="45.47935108868051" lon="10.481280599721359"><ele>224.6</ele><time>2026-03-29T11:40:37Z</time></trkpt><trkpt lat="45.47930925306055" lon="10.481141770545658"><ele>224.39999999999998</ele><time>2026-03-29T11:40:38Z</time></trkpt><trkpt lat="45.47927550576616" lon="10.481006974923"><ele>224.2</ele><time>2026-03-29T11:40:39Z</time></trkpt><trkpt lat="45.47924887667848" lon="10.480876381569827"><ele>224.0</ele><time>2026-03-29T11:40:40Z</time></trkpt><trkpt lat="45.47922733398464" lon="10.480757867707167"><ele>222.39999999999998</ele><time>2026-03-29T11:40:41Z</time></trkpt><trkpt lat="45.47920710008764" lon="10.48066270087247"><ele>220.79999999999998</ele><time>2026-03-29T11:40:42Z</time></trkpt><trkpt lat="45.47914053502376" lon="10.480585561795126"><ele>219.20000000000002</ele><time>2026-03-29T11:40:44Z</time></trkpt><trkpt lat="45.47901201680838" lon="10.480556662089686"><ele>217.60000000000002</ele><time>2026-03-29T11:40:46Z</time></trkpt><trkpt lat="45.478926879334786" lon="10.480543926160912"><ele>216.0</ele><time>2026-03-29T11:40:47Z</time></trkpt><trkpt lat="45.478814902550866" lon="10.480533024055422"><ele>216.20000000000002</ele><time>2026-03-29T11:40:48Z</time></trkpt><trkpt lat="45.47871455955596" lon="10.48052610345498"><ele>216.40000000000003</ele><time>2026-03-29T11:40:49Z</time></trkpt><trkpt lat="45.47862040540603" lon="10.480502264387065"><ele>216.6</ele><time>2026-03-29T11:40:50Z</time></trkpt><trkpt lat="45.47853391923266" lon="10.480469643676782"><ele>216.8</ele><time>2026-03-29T11:40:51Z</time></trkpt><trkpt lat="45.478468501474275" lon="10.480438845370575"><ele>217.0</ele><time>2026-03-29T11:40:52Z</time></trkpt><trkpt lat="45.47843268767126" lon="10.480292929719132"><ele>216.49999999999997</ele><time>2026-03-29T11:40:54Z</time></trkpt><trkpt lat="45.478433782699106" lon="10.480186051178572"><ele>216.0</ele><time>2026-03-29T11:40:55Z</time></trkpt><trkpt lat="45.47841789747972" lon="10.480052133333192"><ele>215.5</ele><time>2026-03-29T11:40:56Z</time></trkpt><trkpt lat="45.47838359299388" lon="10.479938217359216"><ele>215.0</ele><time>2026-03-29T11:40:57Z</time></trkpt><trkpt lat="45.478343630551585" lon="10.479803373771853"><ele>214.49999999999997</ele><time>2026-03-29T11:40:59Z</time></trkpt><trkpt lat="45.47827351817285" lon="10.479750375458604"><ele>214.0</ele><time>2026-03-29T11:41:00Z</time></trkpt><trkpt lat="45.47818836115818" lon="10.479727610165272"><ele>214.0</ele><time>2026-03-29T11:41:01Z</time></trkpt><trkpt lat="45.47809137032234" lon="10.479723118744419"><ele>213.99999999999997</ele><time>2026-03-29T11:41:02Z</time></trkpt><trkpt lat="45.47796905096507" lon="10.479728907413522"><ele>213.99999999999997</ele><time>2026-03-29T11:41:03Z</time></trkpt><trkpt lat="45.477853183407476" lon="10.479726426409437"><ele>214.0</ele><time>2026-03-29T11:41:04Z</time></trkpt><trkpt lat="45.47775472359482" lon="10.47972981540025"><ele>214.0</ele><time>2026-03-29T11:41:05Z</time></trkpt><trkpt lat="45.4776745502277" lon="10.479725814579242"><ele>213.5</ele><time>2026-03-29T11:41:06Z</time></trkpt><trkpt lat="45.47759403511251" lon="10.479684798698313"><ele>213.0</ele><time>2026-03-29T11:41:07Z</time></trkpt><trkpt lat="45.47750206250841" lon="10.47959939003873"><ele>212.5</ele><time>2026-03-29T11:41:08Z</time></trkpt><trkpt lat="45.47738739320908" lon="10.479510420436066"><ele>212.0</ele><time>2026-03-29T11:41:09Z</time></trkpt><trkpt lat="45.4772577514699" lon="10.479428560169353"><ele>211.39999999999998</ele><time>2026-03-29T11:41:10Z</time></trkpt><trkpt lat="45.477173333180254" lon="10.479351137815637"><ele>210.79999999999998</ele><time>2026-03-29T11:41:11Z</time></trkpt><trkpt lat="45.477118883825185" lon="10.479290021740416"><ele>210.2</ele><time>2026-03-29T11:41:12Z</time></trkpt><trkpt lat="45.47708981955667" lon="10.479138624544097"><ele>209.6</ele><time>2026-03-29T11:41:14Z</time></trkpt><trkpt lat="45.47706302160528" lon="10.479011535164542"><ele>209.0</ele><time>2026-03-29T11:41:15Z</time></trkpt><trkpt lat="45.47702393815973" lon="10.47889155473606"><ele>208.79999999999998</ele><time>2026-03-29T11:41:16Z</time></trkpt><trkpt lat="45.47699023512896" lon="10.478779698406484"><ele>208.6</ele><time>2026-03-29T11:41:17Z</time></trkpt><trkpt lat="45.476936026019935" lon="10.478711396169148"><ele>208.4</ele><time>2026-03-29T11:41:18Z</time></trkpt><trkpt lat="45.476863291161564" lon="10.478628519098441"><ele>208.2</ele><time>2026-03-29T11:41:19Z</time></trkpt><trkpt lat="45.476780068765954" lon="10.478559396372592"><ele>208.0</ele><time>2026-03-29T11:41:20Z</time></trkpt><trkpt lat="45.476681336050625" lon="10.478480636089564"><ele>207.75</ele><time>2026-03-29T11:41:21Z</time></trkpt><trkpt lat="45.47657834870942" lon="10.478376648001952"><ele>207.5</ele><time>2026-03-29T11:41:22Z</time></trkpt><trkpt lat="45.476481815575305" lon="10.478274401034694"><ele>207.25</ele><time>2026-03-29T11:41:23Z</time></trkpt><trkpt lat="45.47640700062476" lon="10.478199125163153"><ele>207.0</ele><time>2026-03-29T11:41:24Z</time></trkpt><trkpt lat="45.47630561322685" lon="10.47810669186925"><ele>207.0</ele><time>2026-03-29T11:41:26Z</time></trkpt><trkpt lat="45.47628240452067" lon="10.47800071962402"><ele>207.0</ele><time>2026-03-29T11:41:27Z</time></trkpt><trkpt lat="45.47623211087592" lon="10.477903062046163"><ele>207.0</ele><time>2026-03-29T11:41:28Z</time></trkpt><trkpt lat="45.47619871438877" lon="10.477791900966327"><ele>207.0</ele><time>2026-03-29T11:41:29Z</time></trkpt><trkpt lat="45.476172117026955" lon="10.477707276577508"><ele>207.0</ele><time>2026-03-29T11:41:30Z</time></trkpt><trkpt lat="45.476130452571546" lon="10.477593435266867"><ele>207.0</ele><time>2026-03-29T11:41:31Z</time></trkpt><trkpt lat="45.47608492010555" lon="10.477506968266212"><ele>205.5</ele><time>2026-03-29T11:41:35Z</time></trkpt><trkpt lat="45.47588589865424" lon="10.47760047898727"><ele>204.0</ele><time>2026-03-29T11:41:38Z</time></trkpt><trkpt lat="45.475802574639744" lon="10.477690723185846"><ele>202.5</ele><time>2026-03-29T11:41:39Z</time></trkpt><trkpt lat="45.47572354711344" lon="10.477768113244105"><ele>201.0</ele><time>2026-03-29T11:41:40Z</time></trkpt><trkpt lat="45.47565395729419" lon="10.477818633677218"><ele>201.0</ele><time>2026-03-29T11:41:41Z</time></trkpt><trkpt lat="45.47559884742874" lon="10.477878268604377"><ele>201.0</ele><time>2026-03-29T11:41:42Z</time></trkpt><trkpt lat="45.47553779830989" lon="10.477932011651038"><ele>201.0</ele><time>2026-03-29T11:41:43Z</time></trkpt><trkpt lat="45.475458137634114" lon="10.478000378815391"><ele>201.0</ele><time>2026-03-29T11:41:44Z</time></trkpt><trkpt lat="45.475342192390166" lon="10.478078610618002"><ele>201.0</ele><time>2026-03-29T11:41:45Z</time></trkpt><trkpt lat="45.47521231876616" lon="10.478140904049534"><ele>200.4</ele><time>2026-03-29T11:41:46Z</time></trkpt><trkpt lat="45.4750896562756" lon="10.478176089495554"><ele>199.8</ele><time>2026-03-29T11:41:47Z</time></trkpt><trkpt lat="45.474977113554694" lon="10.478192383895689"><ele>199.20000000000002</ele><time>2026-03-29T11:41:48Z</time></trkpt><trkpt lat="45.47488120806389" lon="10.478174562463476"><ele>198.60000000000002</ele><time>2026-03-29T11:41:49Z</time></trkpt><trkpt lat="45.474793473680386" lon="10.478158062378586"><ele>198.0</ele><time>2026-03-29T11:41:50Z</time></trkpt><trkpt lat="45.47470689072194" lon="10.47815395387249"><ele>197.75</ele><time>2026-03-29T11:41:51Z</time></trkpt><trkpt lat="45.47462981398779" lon="10.477920826110099"><ele>197.5</ele><time>2026-03-29T11:41:52Z</time></trkpt><trkpt lat="45.4745864153363" lon="10.477773422038902"><ele>197.25</ele><time>2026-03-29T11:41:53Z</time></trkpt><trkpt lat="45.47454739012774" lon="10.477641630094874"><ele>197.0</ele><time>2026-03-29T11:41:54Z</time></trkpt><trkpt lat="45.47463031560807" lon="10.4774261074408"><ele>197.0</ele><time>2026-03-29T11:41:55Z</time></trkpt><trkpt lat="45.47464103416" lon="10.477209051217615"><ele>197.0</ele><time>2026-03-29T11:41:56Z</time></trkpt><trkpt lat="45.47467594607739" lon="10.476975333358597"><ele>197.0</ele><time>2026-03-29T11:41:57Z</time></trkpt><trkpt lat="45.47469911342366" lon="10.476716277036163"><ele>196.33333333333334</ele><time>2026-03-29T11:41:58Z</time></trkpt><trkpt lat="45.47472435263926" lon="10.476428617509876"><ele>195.66666666666669</ele><time>2026-03-29T11:41:59Z</time></trkpt><trkpt lat="45.474745725175495" lon="10.476142577938257"><ele>195.0</ele><time>2026-03-29T11:42:00Z</time></trkpt><trkpt lat="45.4747422130282" lon="10.475854865442837"><ele>194.33333333333331</ele><time>2026-03-29T11:42:01Z</time></trkpt><trkpt lat="45.4747143861367" lon="10.475565113714062"><ele>193.66666666666666</ele><time>2026-03-29T11:42:02Z</time></trkpt><trkpt lat="45.474669789104965" lon="10.475267811069886"><ele>193.0</ele><time>2026-03-29T11:42:03Z</time></trkpt><trkpt lat="45.47461734659281" lon="10.47499288955255"><ele>191.33333333333331</ele><time>2026-03-29T11:42:04Z</time></trkpt><trkpt lat="45.474569795524836" lon="10.474735231094742"><ele>189.66666666666666</ele><time>2026-03-29T11:42:05Z</time></trkpt><trkpt lat="45.474525756962336" lon="10.474487163365518"><ele>188.0</ele><time>2026-03-29T11:42:06Z</time></trkpt><trkpt lat="45.47448660567998" lon="10.474252678915594"><ele>187.0</ele><time>2026-03-29T11:42:07Z</time></trkpt><trkpt lat="45.47444261049241" lon="10.474034374926475"><ele>186.0</ele><time>2026-03-29T11:42:08Z</time></trkpt><trkpt lat="45.47439103365453" lon="10.473833541021095"><ele>185.0</ele><time>2026-03-29T11:42:09Z</time></trkpt><trkpt lat="45.474335623181766" lon="10.473640914166843"><ele>184.25</ele><time>2026-03-29T11:42:10Z</time></trkpt><trkpt lat="45.474283143002864" lon="10.473457420960607"><ele>183.5</ele><time>2026-03-29T11:42:11Z</time></trkpt><trkpt lat="45.47423116059596" lon="10.473280215487122"><ele>182.75</ele><time>2026-03-29T11:42:12Z</time></trkpt><trkpt lat="45.47418518844683" lon="10.473110035218955"><ele>182.0</ele><time>2026-03-29T11:42:13Z</time></trkpt><trkpt lat="45.474142163688526" lon="10.472944297391178"><ele>181.8</ele><time>2026-03-29T11:42:14Z</time></trkpt><trkpt lat="45.47409806959461" lon="10.472783462741727"><ele>181.6</ele><time>2026-03-29T11:42:15Z</time></trkpt><trkpt lat="45.47406181344715" lon="10.472622807714599"><ele>181.4</ele><time>2026-03-29T11:42:16Z</time></trkpt><trkpt lat="45.47403197376891" lon="10.472468643608531"><ele>181.20000000000002</ele><time>2026-03-29T11:42:17Z</time></trkpt><trkpt lat="45.47401975420327" lon="10.472334294187993"><ele>181.0</ele><time>2026-03-29T11:42:18Z</time></trkpt><trkpt lat="45.47399918630591" lon="10.472215743591066"><ele>180.0</ele><time>2026-03-29T11:42:19Z</time></trkpt><trkpt lat="45.47407386322513" lon="10.472089504930695"><ele>179.0</ele><time>2026-03-29T11:42:20Z</time></trkpt><trkpt lat="45.474139606660316" lon="10.47196598139936"><ele>178.0</ele><time>2026-03-29T11:42:21Z</time></trkpt><trkpt lat="45.474212071870774" lon="10.471814227212239"><ele>177.0</ele><time>2026-03-29T11:42:22Z</time></trkpt><trkpt lat="45.474385805512064" lon="10.47176276200853"><ele>177.0</ele><time>2026-03-29T11:42:23Z</time></trkpt><trkpt lat="45.4745520447957" lon="10.471661307975472"><ele>177.0</ele><time>2026-03-29T11:42:24Z</time></trkpt><trkpt lat="45.47471018230659" lon="10.4715442216021"><ele>177.0</ele><time>2026-03-29T11:42:25Z</time></trkpt><trkpt lat="45.474831335076146" lon="10.471465329206328"><ele>177.25</ele><time>2026-03-29T11:42:26Z</time></trkpt><trkpt lat="45.4749173124544" lon="10.471348779770024"><ele>177.5</ele><time>2026-03-29T11:42:27Z</time></trkpt><trkpt lat="45.474991705545946" lon="10.471183705218287"><ele>177.75</ele><time>2026-03-29T11:42:28Z</time></trkpt><trkpt lat="45.47504738284112" lon="10.470984709500675"><ele>178.0</ele><time>2026-03-29T11:42:29Z</time></trkpt><trkpt lat="45.47508476133749" lon="10.4707594539271"><ele>175.33333333333334</ele><time>2026-03-29T11:42:30Z</time></trkpt><trkpt lat="45.475097485689574" lon="10.47051218132462"><ele>172.66666666666666</ele><time>2026-03-29T11:42:31Z</time></trkpt><trkpt lat="45.47509953216753" lon="10.470228844046696"><ele>170.0</ele><time>2026-03-29T11:42:32Z</time></trkpt><trkpt lat="45.475102380850174" lon="10.469918356776956"><ele>168.0</ele><time>2026-03-29T11:42:33Z</time></trkpt><trkpt lat="45.475113739755585" lon="10.469594601520146"><ele>166.0</ele><time>2026-03-29T11:42:34Z</time></trkpt><trkpt lat="45.47512454294665" lon="10.469272477363498"><ele>166.0</ele><time>2026-03-29T11:42:35Z</time></trkpt><trkpt lat="45.475136613734165" lon="10.468953656127859"><ele>166.0</ele><time>2026-03-29T11:42:36Z</time></trkpt><trkpt lat="45.47514528460857" lon="10.468665259339543"><ele>166.0</ele><time>2026-03-29T11:42:37Z</time></trkpt><trkpt lat="45.475153266179234" lon="10.46838737583382"><ele>165.33333333333334</ele><time>2026-03-29T11:42:38Z</time></trkpt><trkpt lat="45.47516043202482" lon="10.468098425211606"><ele>164.66666666666666</ele><time>2026-03-29T11:42:39Z</time></trkpt><trkpt lat="45.47516897101352" lon="10.467797713819992"><ele>164.0</ele><time>2026-03-29T11:42:40Z</time></trkpt><trkpt lat="45.475180295797664" lon="10.467499318419001"><ele>163.33333333333331</ele><time>2026-03-29T11:42:41Z</time></trkpt><trkpt lat="45.47519603511804" lon="10.467185871928464"><ele>162.66666666666666</ele><time>2026-03-29T11:42:42Z</time></trkpt><trkpt lat="45.475217336436216" lon="10.466869793803076"><ele>162.0</ele><time>2026-03-29T11:42:43Z</time></trkpt><trkpt lat="45.4752587699181" lon="10.466561023177707"><ele>161.0</ele><time>2026-03-29T11:42:44Z</time></trkpt><trkpt lat="45.475286297280604" lon="10.466253255743585"><ele>160.0</ele><time>2026-03-29T11:42:45Z</time></trkpt><trkpt lat="45.475312686725395" lon="10.465951439368139"><ele>159.0</ele><time>2026-03-29T11:42:46Z</time></trkpt><trkpt lat="45.475334231807196" lon="10.465663680927081"><ele>158.66666666666666</ele><time>2026-03-29T11:42:47Z</time></trkpt><trkpt lat="45.47533938109001" lon="10.465373841072351"><ele>158.33333333333331</ele><time>2026-03-29T11:42:48Z</time></trkpt><trkpt lat="45.475359842779845" lon="10.465087582695485"><ele>158.0</ele><time>2026-03-29T11:42:49Z</time></trkpt><trkpt lat="45.47539010270356" lon="10.464802125363484"><ele>157.66666666666666</ele><time>2026-03-29T11:42:50Z</time></trkpt><trkpt lat="45.47537783865863" lon="10.464520177614316"><ele>157.33333333333334</ele><time>2026-03-29T11:42:51Z</time></trkpt><trkpt lat="45.475372611425" lon="10.464259750670104"><ele>157.0</ele><time>2026-03-29T11:42:52Z</time></trkpt><trkpt lat="45.47535951974675" lon="10.464009858685392"><ele>156.66666666666669</ele><time>2026-03-29T11:42:53Z</time></trkpt><trkpt lat="45.47535923801263" lon="10.46375934552724"><ele>156.33333333333334</ele><time>2026-03-29T11:42:54Z</time></trkpt><trkpt lat="45.475347467335936" lon="10.463523266480994"><ele>156.0</ele><time>2026-03-29T11:42:55Z</time></trkpt><trkpt lat="45.475323826207045" lon="10.463296060883517"><ele>156.0</ele><time>2026-03-29T11:42:56Z</time></trkpt><trkpt lat="45.47535130434997" lon="10.46307956228286"><ele>156.0</ele><time>2026-03-29T11:42:57Z</time></trkpt><trkpt lat="45.47538700621408" lon="10.462876681525943"><ele>156.0</ele><time>2026-03-29T11:42:58Z</time></trkpt><trkpt lat="45.475444601666396" lon="10.462698445797484"><ele>156.0</ele><time>2026-03-29T11:42:59Z</time></trkpt><trkpt lat="45.47551557255017" lon="10.46255667402305"><ele>155.5</ele><time>2026-03-29T11:43:00Z</time></trkpt><trkpt lat="45.47561381519488" lon="10.462425241001133"><ele>155.0</ele><time>2026-03-29T11:43:01Z</time></trkpt><trkpt lat="45.475726766116004" lon="10.462290401447204"><ele>154.5</ele><time>2026-03-29T11:43:02Z</time></trkpt><trkpt lat="45.47582854688429" lon="10.46213752892037"><ele>154.0</ele><time>2026-03-29T11:43:03Z</time></trkpt><trkpt lat="45.4759212058113" lon="10.461977327123325"><ele>154.0</ele><time>2026-03-29T11:43:04Z</time></trkpt><trkpt lat="45.47598688927491" lon="10.461811299497706"><ele>154.0</ele><time>2026-03-29T11:43:05Z</time></trkpt><trkpt lat="45.476051833558685" lon="10.461638333961224"><ele>154.0</ele><time>2026-03-29T11:43:06Z</time></trkpt><trkpt lat="45.476112244088306" lon="10.461464342446934"><ele>154.0</ele><time>2026-03-29T11:43:07Z</time></trkpt><trkpt lat="45.47617221650671" lon="10.46128192455533"><ele>154.0</ele><time>2026-03-29T11:43:08Z</time></trkpt><trkpt lat="45.47623148122026" lon="10.461091329987555"><ele>154.0</ele><time>2026-03-29T11:43:09Z</time></trkpt><trkpt lat="45.476302692710775" lon="10.460906010856123"><ele>154.0</ele><time>2026-03-29T11:43:10Z</time></trkpt><trkpt lat="45.476341514761494" lon="10.460695859604384"><ele>154.0</ele><time>2026-03-29T11:43:11Z</time></trkpt><trkpt lat="45.47639032993172" lon="10.460506005789075"><ele>154.25</ele><time>2026-03-29T11:43:12Z</time></trkpt><trkpt lat="45.476440777017444" lon="10.460318473135638"><ele>154.5</ele><time>2026-03-29T11:43:13Z</time></trkpt><trkpt lat="45.4764796712424" lon="10.460125539616854"><ele>154.75</ele><time>2026-03-29T11:43:14Z</time></trkpt><trkpt lat="45.47652400241571" lon="10.459934510666763"><ele>155.0</ele><time>2026-03-29T11:43:15Z</time></trkpt><trkpt lat="45.47656978424459" lon="10.459745879485753"><ele>155.0</ele><time>2026-03-29T11:43:16Z</time></trkpt><trkpt lat="45.47661877487661" lon="10.459568911940814"><ele>155.0</ele><time>2026-03-29T11:43:17Z</time></trkpt><trkpt lat="45.4766704873395" lon="10.459395303916045"><ele>155.0</ele><time>2026-03-29T11:43:18Z</time></trkpt><trkpt lat="45.47672976541468" lon="10.459215912578161"><ele>155.0</ele><time>2026-03-29T11:43:19Z</time></trkpt><trkpt lat="45.4767816193901" lon="10.459032454503156"><ele>155.0</ele><time>2026-03-29T11:43:20Z</time></trkpt><trkpt lat="45.476828380670725" lon="10.458844495434555"><ele>155.0</ele><time>2026-03-29T11:43:21Z</time></trkpt><trkpt lat="45.476870274863664" lon="10.458648241906207"><ele>155.0</ele><time>2026-03-29T11:43:22Z</time></trkpt><trkpt lat="45.47690262662188" lon="10.45846533186597"><ele>155.0</ele><time>2026-03-29T11:43:23Z</time></trkpt><trkpt lat="45.47693317055233" lon="10.458293766428183"><ele>155.0</ele><time>2026-03-29T11:43:24Z</time></trkpt><trkpt lat="45.47696375342126" lon="10.458137281973858"><ele>155.0</ele><time>2026-03-29T11:43:25Z</time></trkpt><trkpt lat="45.47698856799165" lon="10.457961747476334"><ele>155.0</ele><time>2026-03-29T11:43:26Z</time></trkpt><trkpt lat="45.47702264318001" lon="10.457784857229242"><ele>155.0</ele><time>2026-03-29T11:43:27Z</time></trkpt><trkpt lat="45.4770587241494" lon="10.457605406542513"><ele>155.0</ele><time>2026-03-29T11:43:28Z</time></trkpt><trkpt lat="45.47709204665961" lon="10.457419876190045"><ele>155.0</ele><time>2026-03-29T11:43:29Z</time></trkpt><trkpt lat="45.477125567097794" lon="10.457229914767314"><ele>155.0</ele><time>2026-03-29T11:43:30Z</time></trkpt><trkpt lat="45.477162650311215" lon="10.457041358918499"><ele>155.0</ele><time>2026-03-29T11:43:31Z</time></trkpt><trkpt lat="45.47720091919823" lon="10.456844115691567"><ele>154.75</ele><time>2026-03-29T11:43:32Z</time></trkpt><trkpt lat="45.47724421368456" lon="10.45667587892252"><ele>154.5</ele><time>2026-03-29T11:43:33Z</time></trkpt><trkpt lat="45.47728824790826" lon="10.456521516358821"><ele>154.25</ele><time>2026-03-29T11:43:34Z</time></trkpt><trkpt lat="45.47733134456643" lon="10.456367266765993"><ele>154.0</ele><time>2026-03-29T11:43:35Z</time></trkpt><trkpt lat="45.47736718101314" lon="10.456229824915352"><ele>154.0</ele><time>2026-03-29T11:43:36Z</time></trkpt><trkpt lat="45.477403215731876" lon="10.456128523716735"><ele>154.0</ele><time>2026-03-29T11:43:37Z</time></trkpt><trkpt lat="45.477428867413245" lon="10.456038135616046"><ele>154.0</ele><time>2026-03-29T11:43:38Z</time></trkpt><trkpt lat="45.47753818902695" lon="10.455971978072643"><ele>154.0</ele><time>2026-03-29T11:43:39Z</time></trkpt><trkpt lat="45.477622876409995" lon="10.455899930309693"><ele>154.0</ele><time>2026-03-29T11:43:40Z</time></trkpt><trkpt lat="45.47770893052281" lon="10.455810631735707"><ele>154.0</ele><time>2026-03-29T11:43:41Z</time></trkpt><trkpt lat="45.477793098368274" lon="10.455705843202487"><ele>154.0</ele><time>2026-03-29T11:43:42Z</time></trkpt><trkpt lat="45.47751828765555" lon="10.455316727714788"><ele>153.66666666666669</ele><time>2026-03-29T11:43:43Z</time></trkpt><trkpt lat="45.47756000665766" lon="10.455196191628755"><ele>153.33333333333334</ele><time>2026-03-29T11:43:44Z</time></trkpt><trkpt lat="45.47762836099926" lon="10.45500532451933"><ele>153.0</ele><time>2026-03-29T11:43:45Z</time></trkpt><trkpt lat="45.478276725432536" lon="10.455105498887724"><ele>152.33333333333334</ele><time>2026-03-29T11:43:46Z</time></trkpt><trkpt lat="45.4784512970561" lon="10.45487916436484"><ele>151.66666666666669</ele><time>2026-03-29T11:43:47Z</time></trkpt><trkpt lat="45.47860424964049" lon="10.454684513349656"><ele>151.0</ele><time>2026-03-29T11:43:48Z</time></trkpt><trkpt lat="45.4787264998355" lon="10.454528905038606"><ele>151.0</ele><time>2026-03-29T11:43:49Z</time></trkpt><trkpt lat="45.478837009623284" lon="10.454389798359841"><ele>151.0</ele><time>2026-03-29T11:43:50Z</time></trkpt><trkpt lat="45.47888178406525" lon="10.454168797441199"><ele>151.0</ele><time>2026-03-29T11:43:51Z</time></trkpt><trkpt lat="45.478988403195075" lon="10.453921018103014"><ele>151.0</ele><time>2026-03-29T11:43:52Z</time></trkpt><trkpt lat="45.4791247137445" lon="10.453762911965736"><ele>151.0</ele><time>2026-03-29T11:43:53Z</time></trkpt><trkpt lat="45.47926276951429" lon="10.453600806079702"><ele>151.0</ele><time>2026-03-29T11:43:54Z</time></trkpt><trkpt lat="45.47940909632475" lon="10.453428990318857"><ele>151.0</ele><time>2026-03-29T11:43:55Z</time></trkpt><trkpt lat="45.47955652182755" lon="10.453255870187087"><ele>151.0</ele><time>2026-03-29T11:43:56Z</time></trkpt><trkpt lat="45.479693316673924" lon="10.45309523702614"><ele>151.0</ele><time>2026-03-29T11:43:57Z</time></trkpt><trkpt lat="45.479964338829966" lon="10.45326951819841"><ele>151.0</ele><time>2026-03-29T11:43:58Z</time></trkpt><trkpt lat="45.480024302273755" lon="10.453228362950778"><ele>151.0</ele><time>2026-03-29T11:43:59Z</time></trkpt><trkpt lat="45.48010957594278" lon="10.453271691488464"><ele>151.0</ele><time>2026-03-29T11:44:03Z</time></trkpt><trkpt lat="45.48019654788335" lon="10.45332593631831"><ele>151.0</ele><time>2026-03-29T11:44:05Z</time></trkpt><trkpt lat="45.48027630319835" lon="10.453327169179238"><ele>151.0</ele><time>2026-03-29T11:44:06Z</time></trkpt><trkpt lat="45.48038985707453" lon="10.453333206267546"><ele>151.0</ele><time>2026-03-29T11:44:07Z</time></trkpt><trkpt lat="45.48052554228863" lon="10.453349836168318"><ele>151.0</ele><time>2026-03-29T11:44:08Z</time></trkpt><trkpt lat="45.48069370515648" lon="10.453377653024997"><ele>151.0</ele><time>2026-03-29T11:44:09Z</time></trkpt><trkpt lat="45.48090071553279" lon="10.453407045604168"><ele>151.0</ele><time>2026-03-29T11:44:10Z</time></trkpt><trkpt lat="45.481061442776436" lon="10.453429985637394"><ele>151.0</ele><time>2026-03-29T11:44:11Z</time></trkpt><trkpt lat="45.481208296812206" lon="10.453451034631593"><ele>151.0</ele><time>2026-03-29T11:44:12Z</time></trkpt><trkpt lat="45.48136792463169" lon="10.45347519313494"><ele>151.0</ele><time>2026-03-29T11:44:13Z</time></trkpt><trkpt lat="45.48151275583448" lon="10.453500297987567"><ele>151.33333333333334</ele><time>2026-03-29T11:44:14Z</time></trkpt><trkpt lat="45.4816756643276" lon="10.453518635929317"><ele>151.66666666666666</ele><time>2026-03-29T11:44:15Z</time></trkpt><trkpt lat="45.48184510184273" lon="10.453551688098893"><ele>152.0</ele><time>2026-03-29T11:44:16Z</time></trkpt><trkpt lat="45.4820020557346" lon="10.45358001417915"><ele>152.0</ele><time>2026-03-29T11:44:17Z</time></trkpt><trkpt lat="45.4821575308559" lon="10.45360807471177"><ele>152.0</ele><time>2026-03-29T11:44:18Z</time></trkpt><trkpt lat="45.482345057280405" lon="10.453629681698622"><ele>152.0</ele><time>2026-03-29T11:44:19Z</time></trkpt><trkpt lat="45.482547506847546" lon="10.453655033924505"><ele>152.0</ele><time>2026-03-29T11:44:20Z</time></trkpt><trkpt lat="45.48274029024592" lon="10.453686619907659"><ele>152.0</ele><time>2026-03-29T11:44:21Z</time></trkpt><trkpt lat="45.48294783387845" lon="10.453717512174357"><ele>152.0</ele><time>2026-03-29T11:44:22Z</time></trkpt><trkpt lat="45.48314737373329" lon="10.453746453008238"><ele>152.33333333333331</ele><time>2026-03-29T11:44:23Z</time></trkpt><trkpt lat="45.483317781777444" lon="10.453768353985266"><ele>152.66666666666666</ele><time>2026-03-29T11:44:24Z</time></trkpt><trkpt lat="45.483491229198094" lon="10.453799341271202"><ele>153.0</ele><time>2026-03-29T11:44:25Z</time></trkpt><trkpt lat="45.48365534053865" lon="10.453824404140272"><ele>153.5</ele><time>2026-03-29T11:44:26Z</time></trkpt><trkpt lat="45.48378755892932" lon="10.453846264295784"><ele>154.0</ele><time>2026-03-29T11:44:27Z</time></trkpt><trkpt lat="45.48392502448852" lon="10.45386488634852"><ele>154.5</ele><time>2026-03-29T11:44:28Z</time></trkpt><trkpt lat="45.484062255538966" lon="10.45389191711604"><ele>155.0</ele><time>2026-03-29T11:44:29Z</time></trkpt><trkpt lat="45.48417491734838" lon="10.453911403122717"><ele>155.0</ele><time>2026-03-29T11:44:30Z</time></trkpt><trkpt lat="45.484275136328264" lon="10.453926643867918"><ele>155.0</ele><time>2026-03-29T11:44:31Z</time></trkpt><trkpt lat="45.484363314702044" lon="10.453933473359331"><ele>155.0</ele><time>2026-03-29T11:44:32Z</time></trkpt><trkpt lat="45.4844363439543" lon="10.45394380963479"><ele>155.0</ele><time>2026-03-29T11:44:33Z</time></trkpt><trkpt lat="45.48450262147368" lon="10.45395321354227"><ele>155.0</ele><time>2026-03-29T11:44:34Z</time></trkpt><trkpt lat="45.484575882989795" lon="10.454001338571198"><ele>155.0</ele><time>2026-03-29T11:44:36Z</time></trkpt><trkpt lat="45.484574643980984" lon="10.4541609895492"><ele>155.0</ele><time>2026-03-29T11:44:38Z</time></trkpt><trkpt lat="45.484571184205066" lon="10.454314448360211"><ele>155.0</ele><time>2026-03-29T11:44:39Z</time></trkpt><trkpt lat="45.484559174297885" lon="10.454477839340463"><ele>155.0</ele><time>2026-03-29T11:44:40Z</time></trkpt><trkpt lat="45.484549007215925" lon="10.454660439873932"><ele>155.0</ele><time>2026-03-29T11:44:41Z</time></trkpt><trkpt lat="45.48454479513056" lon="10.454838880188474"><ele>155.33333333333331</ele><time>2026-03-29T11:44:42Z</time></trkpt><trkpt lat="45.484543880560196" lon="10.45506749423251"><ele>155.66666666666666</ele><time>2026-03-29T11:44:43Z</time></trkpt><trkpt lat="45.48453870844855" lon="10.455313647342019"><ele>156.0</ele><time>2026-03-29T11:44:44Z</time></trkpt><trkpt lat="45.484536072294084" lon="10.455578527793993"><ele>156.33333333333334</ele><time>2026-03-29T11:44:45Z</time></trkpt><trkpt lat="45.48453442131298" lon="10.455823350731729"><ele>156.66666666666669</ele><time>2026-03-29T11:44:46Z</time></trkpt><trkpt lat="45.48453854312688" lon="10.45604096017037"><ele>157.0</ele><time>2026-03-29T11:44:47Z</time></trkpt><trkpt lat="45.48454335894134" lon="10.456258435980189"><ele>157.33333333333334</ele><time>2026-03-29T11:44:48Z</time></trkpt><trkpt lat="45.484545131115816" lon="10.456487495760364"><ele>157.66666666666666</ele><time>2026-03-29T11:44:49Z</time></trkpt><trkpt lat="45.484544184641194" lon="10.456721777608637"><ele>158.0</ele><time>2026-03-29T11:44:50Z</time></trkpt><trkpt lat="45.48454330847188" lon="10.45695857329592"><ele>157.66666666666666</ele><time>2026-03-29T11:44:51Z</time></trkpt><trkpt lat="45.484543180015756" lon="10.457182214507338"><ele>157.33333333333334</ele><time>2026-03-29T11:44:52Z</time></trkpt><trkpt lat="45.484545261518235" lon="10.457400330911291"><ele>157.0</ele><time>2026-03-29T11:44:53Z</time></trkpt><trkpt lat="45.48453869475448" lon="10.457604322203506"><ele>157.0</ele><time>2026-03-29T11:44:54Z</time></trkpt><trkpt lat="45.48453427070204" lon="10.457771906849807"><ele>157.0</ele><time>2026-03-29T11:44:55Z</time></trkpt><trkpt lat="45.48453469060725" lon="10.457912423739906"><ele>157.0</ele><time>2026-03-29T11:44:56Z</time></trkpt><trkpt lat="45.4845367124855" lon="10.458010583714499"><ele>157.0</ele><time>2026-03-29T11:44:57Z</time></trkpt><trkpt lat="45.484509739757414" lon="10.458101350549018"><ele>157.0</ele><time>2026-03-29T11:44:58Z</time></trkpt><trkpt lat="45.484463287097824" lon="10.458213566932772"><ele>157.0</ele><time>2026-03-29T11:44:59Z</time></trkpt><trkpt lat="45.48440659303094" lon="10.458320102726727"><ele>157.2</ele><time>2026-03-29T11:45:00Z</time></trkpt><trkpt lat="45.484347030780555" lon="10.458408295873019"><ele>157.39999999999998</ele><time>2026-03-29T11:45:01Z</time></trkpt><trkpt lat="45.48428575650283" lon="10.458471912201425"><ele>157.60000000000002</ele><time>2026-03-29T11:45:02Z</time></trkpt><trkpt lat="45.48420905354965" lon="10.458563847974814"><ele>157.8</ele><time>2026-03-29T11:45:03Z</time></trkpt><trkpt lat="45.48413142010034" lon="10.458687496315953"><ele>158.0</ele><time>2026-03-29T11:45:04Z</time></trkpt><trkpt lat="45.48405299465038" lon="10.458819426270995"><ele>158.20000000000002</ele><time>2026-03-29T11:45:05Z</time></trkpt><trkpt lat="45.48396958729495" lon="10.458947018108102"><ele>158.4</ele><time>2026-03-29T11:45:06Z</time></trkpt><trkpt lat="45.48389463482955" lon="10.459068202553711"><ele>158.60000000000002</ele><time>2026-03-29T11:45:07Z</time></trkpt><trkpt lat="45.48383511685667" lon="10.45916224303664"><ele>158.8</ele><time>2026-03-29T11:45:08Z</time></trkpt><trkpt lat="45.4837800693404" lon="10.459257413784432"><ele>159.0</ele><time>2026-03-29T11:45:09Z</time></trkpt><trkpt lat="45.48374897664243" lon="10.459383830669038"><ele>159.5</ele><time>2026-03-29T11:45:11Z</time></trkpt><trkpt lat="45.4837888173943" lon="10.459573963220668"><ele>160.0</ele><time>2026-03-29T11:45:13Z</time></trkpt><trkpt lat="45.483824930734" lon="10.459727050506748"><ele>160.5</ele><time>2026-03-29T11:45:14Z</time></trkpt><trkpt lat="45.48385776020479" lon="10.45991216730864"><ele>161.0</ele><time>2026-03-29T11:45:15Z</time></trkpt><trkpt lat="45.48388278963141" lon="10.460099539421364"><ele>161.33333333333331</ele><time>2026-03-29T11:45:16Z</time></trkpt><trkpt lat="45.48390510434186" lon="10.460303775461863"><ele>161.66666666666666</ele><time>2026-03-29T11:45:17Z</time></trkpt><trkpt lat="45.4839242459697" lon="10.460530052109936"><ele>162.0</ele><time>2026-03-29T11:45:18Z</time></trkpt><trkpt lat="45.48393432569271" lon="10.460747767489234"><ele>162.0</ele><time>2026-03-29T11:45:19Z</time></trkpt><trkpt lat="45.4839408135493" lon="10.460972960882613"><ele>162.0</ele><time>2026-03-29T11:45:20Z</time></trkpt><trkpt lat="45.483932594352595" lon="10.461199581054421"><ele>162.0</ele><time>2026-03-29T11:45:21Z</time></trkpt><trkpt lat="45.48392730035318" lon="10.461370233373723"><ele>162.0</ele><time>2026-03-29T11:45:22Z</time></trkpt><trkpt lat="45.48392526387255" lon="10.461525338242627"><ele>162.0</ele><time>2026-03-29T11:45:23Z</time></trkpt><trkpt lat="45.48391958504856" lon="10.46163965547986"><ele>162.0</ele><time>2026-03-29T11:45:24Z</time></trkpt><trkpt lat="45.48391131384613" lon="10.461749032413353"><ele>162.0</ele><time>2026-03-29T11:45:25Z</time></trkpt><trkpt lat="45.48396187157642" lon="10.461894088254263"><ele>162.0</ele><time>2026-03-29T11:45:27Z</time></trkpt><trkpt lat="45.48401206604373" lon="10.461971551811017"><ele>162.0</ele><time>2026-03-29T11:45:28Z</time></trkpt><trkpt lat="45.48407426365112" lon="10.462094665299006"><ele>162.25</ele><time>2026-03-29T11:45:29Z</time></trkpt><trkpt lat="45.484145846903786" lon="10.462248593426818"><ele>162.5</ele><time>2026-03-29T11:45:30Z</time></trkpt><trkpt lat="45.484214409839495" lon="10.462408359692798"><ele>162.75</ele><time>2026-03-29T11:45:31Z</time></trkpt><trkpt lat="45.48426960407061" lon="10.462556354706676"><ele>163.0</ele><time>2026-03-29T11:45:32Z</time></trkpt><trkpt lat="45.4842991361096" lon="10.462692418794107"><ele>163.0</ele><time>2026-03-29T11:45:33Z</time></trkpt><trkpt lat="45.48432393735575" lon="10.462820973972544"><ele>163.0</ele><time>2026-03-29T11:45:34Z</time></trkpt><trkpt lat="45.48436676598401" lon="10.462928958430128"><ele>163.0</ele><time>2026-03-29T11:45:35Z</time></trkpt><trkpt lat="45.484428226344754" lon="10.463030748353864"><ele>163.0</ele><time>2026-03-29T11:45:36Z</time></trkpt><trkpt lat="45.484497355685065" lon="10.463096668451858"><ele>163.0</ele><time>2026-03-29T11:45:37Z</time></trkpt><trkpt lat="45.48456686963153" lon="10.463218560928988"><ele>163.25</ele><time>2026-03-29T11:45:39Z</time></trkpt><trkpt lat="45.48456937853508" lon="10.463442279893956"><ele>163.5</ele><time>2026-03-29T11:45:41Z</time></trkpt><trkpt lat="45.48457087380342" lon="10.463615296486054"><ele>163.75</ele><time>2026-03-29T11:45:42Z</time></trkpt><trkpt lat="45.48457009189972" lon="10.463771936027461"><ele>164.0</ele><time>2026-03-29T11:45:43Z</time></trkpt><trkpt lat="45.484584207568645" lon="10.463968692155483"><ele>164.33333333333331</ele><time>2026-03-29T11:45:44Z</time></trkpt><trkpt lat="45.484607262058944" lon="10.464183390541088"><ele>164.66666666666666</ele><time>2026-03-29T11:45:45Z</time></trkpt><trkpt lat="45.484633835319976" lon="10.46441700752959"><ele>165.0</ele><time>2026-03-29T11:45:46Z</time></trkpt><trkpt lat="45.48465733839382" lon="10.4646557006803"><ele>165.33333333333334</ele><time>2026-03-29T11:45:47Z</time></trkpt><trkpt lat="45.48468239919626" lon="10.464881291498537"><ele>165.66666666666669</ele><time>2026-03-29T11:45:48Z</time></trkpt><trkpt lat="45.48470443844416" lon="10.465076009674355"><ele>166.0</ele><time>2026-03-29T11:45:49Z</time></trkpt><trkpt lat="45.48473027849345" lon="10.465289312979523"><ele>166.33333333333334</ele><time>2026-03-29T11:45:50Z</time></trkpt><trkpt lat="45.48476419174864" lon="10.465528626886252"><ele>166.66666666666666</ele><time>2026-03-29T11:45:51Z</time></trkpt><trkpt lat="45.484793947207656" lon="10.465780737853697"><ele>167.0</ele><time>2026-03-29T11:45:52Z</time></trkpt><trkpt lat="45.48482156213337" lon="10.466042567444862"><ele>167.66666666666666</ele><time>2026-03-29T11:45:53Z</time></trkpt><trkpt lat="45.48484168981934" lon="10.466288611302796"><ele>168.33333333333334</ele><time>2026-03-29T11:45:54Z</time></trkpt><trkpt lat="45.48486792304513" lon="10.466522224018094"><ele>169.0</ele><time>2026-03-29T11:45:55Z</time></trkpt><trkpt lat="45.484896931134095" lon="10.466722402201183"><ele>169.0</ele><time>2026-03-29T11:45:56Z</time></trkpt><trkpt lat="45.484933274847876" lon="10.466920402348402"><ele>169.0</ele><time>2026-03-29T11:45:57Z</time></trkpt><trkpt lat="45.48496838580188" lon="10.467114918610552"><ele>169.0</ele><time>2026-03-29T11:45:58Z</time></trkpt><trkpt lat="45.48499483050323" lon="10.467328219151106"><ele>169.0</ele><time>2026-03-29T11:45:59Z</time></trkpt><trkpt lat="45.48501509895153" lon="10.467544841228898"><ele>169.0</ele><time>2026-03-29T11:46:00Z</time></trkpt><trkpt lat="45.4850327822174" lon="10.467776335304684"><ele>169.0</ele><time>2026-03-29T11:46:01Z</time></trkpt><trkpt lat="45.48504964315931" lon="10.46803007044315"><ele>169.0</ele><time>2026-03-29T11:46:02Z</time></trkpt><trkpt lat="45.48505959516503" lon="10.468274356957174"><ele>169.33333333333334</ele><time>2026-03-29T11:46:03Z</time></trkpt><trkpt lat="45.485073510280586" lon="10.468499493917943"><ele>169.66666666666666</ele><time>2026-03-29T11:46:04Z</time></trkpt><trkpt lat="45.48509036950486" lon="10.468715139465484"><ele>170.0</ele><time>2026-03-29T11:46:05Z</time></trkpt><trkpt lat="45.485100462589386" lon="10.468924642982058"><ele>170.2</ele><time>2026-03-29T11:46:06Z</time></trkpt><trkpt lat="45.48510780531838" lon="10.469095959718679"><ele>170.4</ele><time>2026-03-29T11:46:07Z</time></trkpt><trkpt lat="45.48510500451474" lon="10.469248105568042"><ele>170.60000000000002</ele><time>2026-03-29T11:46:08Z</time></trkpt><trkpt lat="45.485096339082205" lon="10.469383093292437"><ele>170.8</ele><time>2026-03-29T11:46:09Z</time></trkpt><trkpt lat="45.48509418049118" lon="10.469493516686295"><ele>171.0</ele><time>2026-03-29T11:46:10Z</time></trkpt><trkpt lat="45.48509076303102" lon="10.469635117117537"><ele>171.16666666666666</ele><time>2026-03-29T11:46:12Z</time></trkpt><trkpt lat="45.4850901337495" lon="10.46973969866083"><ele>171.33333333333334</ele><time>2026-03-29T11:46:14Z</time></trkpt><trkpt lat="45.48512424211976" lon="10.469892353030529"><ele>171.5</ele><time>2026-03-29T11:46:16Z</time></trkpt><trkpt lat="45.485139667430495" lon="10.469988133526424"><ele>171.66666666666669</ele><time>2026-03-29T11:46:17Z</time></trkpt><trkpt lat="45.48515397626756" lon="10.470089758921183"><ele>171.83333333333334</ele><time>2026-03-29T11:46:18Z</time></trkpt><trkpt lat="45.48517050774061" lon="10.470205321854618"><ele>172.0</ele><time>2026-03-29T11:46:19Z</time></trkpt><trkpt lat="45.48519037848448" lon="10.470342411255796"><ele>172.6</ele><time>2026-03-29T11:46:20Z</time></trkpt><trkpt lat="45.48521316960672" lon="10.470489379275799"><ele>173.2</ele><time>2026-03-29T11:46:21Z</time></trkpt><trkpt lat="45.48523513411796" lon="10.470638947774301"><ele>173.8</ele><time>2026-03-29T11:46:22Z</time></trkpt><trkpt lat="45.48525847246804" lon="10.47079508425887"><ele>174.4</ele><time>2026-03-29T11:46:23Z</time></trkpt><trkpt lat="45.4852792617449" lon="10.470944024568539"><ele>175.0</ele><time>2026-03-29T11:46:24Z</time></trkpt><trkpt lat="45.485304776493074" lon="10.471097815589273"><ele>175.0</ele><time>2026-03-29T11:46:25Z</time></trkpt><trkpt lat="45.48532939788905" lon="10.47123988409743"><ele>175.0</ele><time>2026-03-29T11:46:26Z</time></trkpt><trkpt lat="45.48536282541173" lon="10.471382651045031"><ele>175.0</ele><time>2026-03-29T11:46:27Z</time></trkpt><trkpt lat="45.4854033539075" lon="10.471524693802506"><ele>175.0</ele><time>2026-03-29T11:46:28Z</time></trkpt><trkpt lat="45.485447171409795" lon="10.471676686883463"><ele>175.0</ele><time>2026-03-29T11:46:29Z</time></trkpt><trkpt lat="45.48548585438233" lon="10.471837130147494"><ele>176.0</ele><time>2026-03-29T11:46:30Z</time></trkpt><trkpt lat="45.48551391604985" lon="10.47198757020243"><ele>177.0</ele><time>2026-03-29T11:46:31Z</time></trkpt><trkpt lat="45.485539303665476" lon="10.472141520848531"><ele>178.0</ele><time>2026-03-29T11:46:32Z</time></trkpt><trkpt lat="45.48556998013184" lon="10.472271501846846"><ele>179.0</ele><time>2026-03-29T11:46:33Z</time></trkpt><trkpt lat="45.485595766134196" lon="10.472367096302191"><ele>180.0</ele><time>2026-03-29T11:46:34Z</time></trkpt><trkpt lat="45.48573483251506" lon="10.472367536785194"><ele>180.6</ele><time>2026-03-29T11:46:37Z</time></trkpt><trkpt lat="45.485847107470036" lon="10.47232030956466"><ele>181.2</ele><time>2026-03-29T11:46:39Z</time></trkpt><trkpt lat="45.48589615269185" lon="10.472445732460091"><ele>181.8</ele><time>2026-03-29T11:46:41Z</time></trkpt><trkpt lat="45.48597356066431" lon="10.472539810067515"><ele>182.4</ele><time>2026-03-29T11:46:42Z</time></trkpt><trkpt lat="45.48605379154549" lon="10.472606301168508"><ele>183.0</ele><time>2026-03-29T11:46:43Z</time></trkpt><trkpt lat="45.48610714810171" lon="10.47267133211526"><ele>183.0</ele><time>2026-03-29T11:46:44Z</time></trkpt><trkpt lat="45.48614690429305" lon="10.472742577077538"><ele>183.0</ele><time>2026-03-29T11:46:45Z</time></trkpt><trkpt lat="45.48620384181411" lon="10.472870234943978"><ele>183.0</ele><time>2026-03-29T11:46:47Z</time></trkpt><trkpt lat="45.486234257373034" lon="10.472949112575078"><ele>183.0</ele><time>2026-03-29T11:47:07Z</time></trkpt><trkpt lat="45.48628042778162" lon="10.473044734041144"><ele>183.0</ele><time>2026-03-29T11:47:09Z</time></trkpt><trkpt lat="45.486481740960706" lon="10.472870660122357"><ele>182.25</ele><time>2026-03-29T11:47:10Z</time></trkpt><trkpt lat="45.4865573645878" lon="10.472753691753967"><ele>181.5</ele><time>2026-03-29T11:47:11Z</time></trkpt><trkpt lat="45.48665956168335" lon="10.472603745543832"><ele>180.75</ele><time>2026-03-29T11:47:12Z</time></trkpt><trkpt lat="45.486749243961945" lon="10.472466885538964"><ele>180.0</ele><time>2026-03-29T11:47:13Z</time></trkpt><trkpt lat="45.48685234274268" lon="10.472319171218185"><ele>180.0</ele><time>2026-03-29T11:47:14Z</time></trkpt><trkpt lat="45.48696677182318" lon="10.472167565000294"><ele>180.0</ele><time>2026-03-29T11:47:15Z</time></trkpt><trkpt lat="45.48708602025058" lon="10.472009668965947"><ele>180.0</ele><time>2026-03-29T11:47:16Z</time></trkpt><trkpt lat="45.48720519561922" lon="10.47184138885678"><ele>179.0</ele><time>2026-03-29T11:47:17Z</time></trkpt><trkpt lat="45.48732197961932" lon="10.471660276159932"><ele>178.0</ele><time>2026-03-29T11:47:18Z</time></trkpt><trkpt lat="45.48742912218484" lon="10.471465747178362"><ele>177.0</ele><time>2026-03-29T11:47:19Z</time></trkpt><trkpt lat="45.4875252429613" lon="10.471264189810661"><ele>176.66666666666666</ele><time>2026-03-29T11:47:20Z</time></trkpt><trkpt lat="45.48761560927929" lon="10.471060357999223"><ele>176.33333333333331</ele><time>2026-03-29T11:47:21Z</time></trkpt><trkpt lat="45.48770928480155" lon="10.470872244649172"><ele>176.0</ele><time>2026-03-29T11:47:22Z</time></trkpt><trkpt lat="45.48779671677028" lon="10.470704765815437"><ele>176.0</ele><time>2026-03-29T11:47:23Z</time></trkpt><trkpt lat="45.48788218314983" lon="10.470547780368019"><ele>176.0</ele><time>2026-03-29T11:47:24Z</time></trkpt><trkpt lat="45.48795074061942" lon="10.470418650528433"><ele>176.0</ele><time>2026-03-29T11:47:25Z</time></trkpt><trkpt lat="45.48801172055177" lon="10.470301521374513"><ele>176.0</ele><time>2026-03-29T11:47:26Z</time></trkpt><trkpt lat="45.488062763366635" lon="10.470202191067632"><ele>176.0</ele><time>2026-03-29T11:47:27Z</time></trkpt><trkpt lat="45.48813829000208" lon="10.470111845437689"><ele>176.0</ele><time>2026-03-29T11:47:29Z</time></trkpt><trkpt lat="45.48805411360044" lon="10.469975594938408"><ele>176.0</ele><time>2026-03-29T11:47:30Z</time></trkpt><trkpt lat="45.48802982661499" lon="10.46983192241578"><ele>176.0</ele><time>2026-03-29T11:47:31Z</time></trkpt><trkpt lat="45.48802433129624" lon="10.46964156796851"><ele>176.0</ele><time>2026-03-29T11:47:32Z</time></trkpt><trkpt lat="45.48801707198743" lon="10.469432008419911"><ele>175.33333333333331</ele><time>2026-03-29T11:47:33Z</time></trkpt><trkpt lat="45.48799663616665" lon="10.469201968112428"><ele>174.66666666666666</ele><time>2026-03-29T11:47:34Z</time></trkpt><trkpt lat="45.48799775324257" lon="10.468964133114333"><ele>174.0</ele><time>2026-03-29T11:47:35Z</time></trkpt><trkpt lat="45.487991065754564" lon="10.468708351733628"><ele>173.33333333333334</ele><time>2026-03-29T11:47:36Z</time></trkpt><trkpt lat="45.487981191031444" lon="10.468443033750576"><ele>172.66666666666669</ele><time>2026-03-29T11:47:37Z</time></trkpt><trkpt lat="45.487969154428406" lon="10.468169834204662"><ele>172.0</ele><time>2026-03-29T11:47:38Z</time></trkpt><trkpt lat="45.48795300813658" lon="10.46789919200118"><ele>172.0</ele><time>2026-03-29T11:47:39Z</time></trkpt><trkpt lat="45.48793665006852" lon="10.467619680006187"><ele>172.0</ele><time>2026-03-29T11:47:40Z</time></trkpt><trkpt lat="45.48792236827776" lon="10.467335452211206"><ele>172.0</ele><time>2026-03-29T11:47:41Z</time></trkpt><trkpt lat="45.487904536147646" lon="10.467053022239542"><ele>172.0</ele><time>2026-03-29T11:47:42Z</time></trkpt><trkpt lat="45.487888698651105" lon="10.466766725294802"><ele>172.0</ele><time>2026-03-29T11:47:43Z</time></trkpt><trkpt lat="45.48787933148146" lon="10.466479607609301"><ele>172.0</ele><time>2026-03-29T11:47:44Z</time></trkpt><trkpt lat="45.48788023906853" lon="10.466200184330923"><ele>171.33333333333334</ele><time>2026-03-29T11:47:45Z</time></trkpt><trkpt lat="45.487881082947084" lon="10.465896876885314"><ele>170.66666666666666</ele><time>2026-03-29T11:47:46Z</time></trkpt><trkpt lat="45.4878834595368" lon="10.465604019766195"><ele>170.0</ele><time>2026-03-29T11:47:47Z</time></trkpt><trkpt lat="45.48788863401516" lon="10.465307811424415"><ele>169.66666666666666</ele><time>2026-03-29T11:47:48Z</time></trkpt><trkpt lat="45.487910698903384" lon="10.465009363627981"><ele>169.33333333333334</ele><time>2026-03-29T11:47:49Z</time></trkpt><trkpt lat="45.487920732337926" lon="10.464709627480122"><ele>169.0</ele><time>2026-03-29T11:47:50Z</time></trkpt><trkpt lat="45.48792009724014" lon="10.464398863240142"><ele>168.33333333333334</ele><time>2026-03-29T11:47:51Z</time></trkpt><trkpt lat="45.48788596095028" lon="10.464087887393553"><ele>167.66666666666666</ele><time>2026-03-29T11:47:52Z</time></trkpt><trkpt lat="45.48785206679315" lon="10.46377035803974"><ele>167.0</ele><time>2026-03-29T11:47:53Z</time></trkpt><trkpt lat="45.48784054309637" lon="10.463463205343839"><ele>166.66666666666666</ele><time>2026-03-29T11:47:54Z</time></trkpt><trkpt lat="45.48781582818247" lon="10.463195196841308"><ele>166.33333333333334</ele><time>2026-03-29T11:47:55Z</time></trkpt><trkpt lat="45.487777791728746" lon="10.462960499240996"><ele>166.0</ele><time>2026-03-29T11:47:56Z</time></trkpt><trkpt lat="45.487753644499115" lon="10.462690331207007"><ele>165.66666666666669</ele><time>2026-03-29T11:47:57Z</time></trkpt><trkpt lat="45.487741093084466" lon="10.4623999051186"><ele>165.33333333333334</ele><time>2026-03-29T11:47:58Z</time></trkpt><trkpt lat="45.48770803763902" lon="10.462094482292168"><ele>165.0</ele><time>2026-03-29T11:47:59Z</time></trkpt><trkpt lat="45.4876739874931" lon="10.461822164532393"><ele>164.33333333333334</ele><time>2026-03-29T11:48:00Z</time></trkpt><trkpt lat="45.48764929218994" lon="10.461582795803004"><ele>163.66666666666669</ele><time>2026-03-29T11:48:01Z</time></trkpt><trkpt lat="45.4876404466384" lon="10.461334195577884"><ele>163.0</ele><time>2026-03-29T11:48:02Z</time></trkpt><trkpt lat="45.487665334363285" lon="10.461066460359149"><ele>162.66666666666669</ele><time>2026-03-29T11:48:03Z</time></trkpt><trkpt lat="45.48769980804759" lon="10.460782774735506"><ele>162.33333333333334</ele><time>2026-03-29T11:48:04Z</time></trkpt><trkpt lat="45.48773041448357" lon="10.460485486283208"><ele>162.0</ele><time>2026-03-29T11:48:05Z</time></trkpt><trkpt lat="45.48775762718471" lon="10.460177963026652"><ele>161.5</ele><time>2026-03-29T11:48:06Z</time></trkpt><trkpt lat="45.4877666767188" lon="10.45984833438328"><ele>161.0</ele><time>2026-03-29T11:48:07Z</time></trkpt><trkpt lat="45.48776056537259" lon="10.45952344846411"><ele>161.0</ele><time>2026-03-29T11:48:08Z</time></trkpt><trkpt lat="45.487745687427925" lon="10.459196759918253"><ele>161.0</ele><time>2026-03-29T11:48:09Z</time></trkpt><trkpt lat="45.4877345808029" lon="10.458901147014549"><ele>161.0</ele><time>2026-03-29T11:48:10Z</time></trkpt><trkpt lat="45.48773660298073" lon="10.458628683467909"><ele>160.33333333333331</ele><time>2026-03-29T11:48:11Z</time></trkpt><trkpt lat="45.4877556877099" lon="10.45834500548237"><ele>159.66666666666666</ele><time>2026-03-29T11:48:12Z</time></trkpt><trkpt lat="45.48778572701219" lon="10.458056392297715"><ele>159.0</ele><time>2026-03-29T11:48:13Z</time></trkpt><trkpt lat="45.48781502936747" lon="10.457779017978641"><ele>159.0</ele><time>2026-03-29T11:48:14Z</time></trkpt><trkpt lat="45.48784500361068" lon="10.457510718672406"><ele>159.0</ele><time>2026-03-29T11:48:15Z</time></trkpt><trkpt lat="45.48786651896312" lon="10.457242529457062"><ele>159.0</ele><time>2026-03-29T11:48:16Z</time></trkpt><trkpt lat="45.487880137745286" lon="10.456968337580118"><ele>159.0</ele><time>2026-03-29T11:48:17Z</time></trkpt><trkpt lat="45.48788889299914" lon="10.456698490966414"><ele>159.0</ele><time>2026-03-29T11:48:18Z</time></trkpt><trkpt lat="45.48788634293843" lon="10.45642241327801"><ele>159.0</ele><time>2026-03-29T11:48:19Z</time></trkpt><trkpt lat="45.487878615309704" lon="10.456141241496677"><ele>159.0</ele><time>2026-03-29T11:48:20Z</time></trkpt><trkpt lat="45.48788292751991" lon="10.455852504579582"><ele>159.0</ele><time>2026-03-29T11:48:21Z</time></trkpt><trkpt lat="45.48790688995433" lon="10.45555792744706"><ele>159.0</ele><time>2026-03-29T11:48:22Z</time></trkpt><trkpt lat="45.487926121454414" lon="10.455247632533686"><ele>159.5</ele><time>2026-03-29T11:48:23Z</time></trkpt><trkpt lat="45.4879454454401" lon="10.45493584532512"><ele>160.0</ele><time>2026-03-29T11:48:24Z</time></trkpt><trkpt lat="45.48796693420235" lon="10.454602956123423"><ele>160.0</ele><time>2026-03-29T11:48:25Z</time></trkpt><trkpt lat="45.48798968874066" lon="10.45427132564589"><ele>160.0</ele><time>2026-03-29T11:48:26Z</time></trkpt><trkpt lat="45.48801446814218" lon="10.453939887112089"><ele>159.66666666666669</ele><time>2026-03-29T11:48:27Z</time></trkpt><trkpt lat="45.48803969179541" lon="10.453613854860167"><ele>159.33333333333334</ele><time>2026-03-29T11:48:28Z</time></trkpt><trkpt lat="45.488062040909504" lon="10.453303978855931"><ele>159.0</ele><time>2026-03-29T11:48:29Z</time></trkpt><trkpt lat="45.488083673278794" lon="10.453004040699113"><ele>158.66666666666666</ele><time>2026-03-29T11:48:30Z</time></trkpt><trkpt lat="45.48810716531879" lon="10.452729375163464"><ele>158.33333333333331</ele><time>2026-03-29T11:48:31Z</time></trkpt><trkpt lat="45.488139785817104" lon="10.452472211806132"><ele>158.0</ele><time>2026-03-29T11:48:32Z</time></trkpt><trkpt lat="45.48818050718417" lon="10.452227518534132"><ele>157.66666666666666</ele><time>2026-03-29T11:48:33Z</time></trkpt><trkpt lat="45.48822909791644" lon="10.451991594870302"><ele>157.33333333333334</ele><time>2026-03-29T11:48:34Z</time></trkpt><trkpt lat="45.48826826452906" lon="10.45175647685246"><ele>157.0</ele><time>2026-03-29T11:48:35Z</time></trkpt><trkpt lat="45.48828886726179" lon="10.45150374665394"><ele>156.66666666666669</ele><time>2026-03-29T11:48:36Z</time></trkpt><trkpt lat="45.488282082675404" lon="10.451230139845384"><ele>156.33333333333334</ele><time>2026-03-29T11:48:37Z</time></trkpt><trkpt lat="45.48830210807867" lon="10.450941932671762"><ele>156.0</ele><time>2026-03-29T11:48:38Z</time></trkpt><trkpt lat="45.48830821012267" lon="10.450639917386617"><ele>156.0</ele><time>2026-03-29T11:48:39Z</time></trkpt><trkpt lat="45.48831478578497" lon="10.450339304328105"><ele>156.0</ele><time>2026-03-29T11:48:40Z</time></trkpt><trkpt lat="45.48832439268749" lon="10.450053540347952"><ele>156.0</ele><time>2026-03-29T11:48:41Z</time></trkpt><trkpt lat="45.48833555488627" lon="10.449789126135071"><ele>155.66666666666666</ele><time>2026-03-29T11:48:42Z</time></trkpt><trkpt lat="45.488346669414554" lon="10.44953204798074"><ele>155.33333333333331</ele><time>2026-03-29T11:48:43Z</time></trkpt><trkpt lat="45.48835437278163" lon="10.44929285728396"><ele>155.0</ele><time>2026-03-29T11:48:44Z</time></trkpt><trkpt lat="45.488347899103076" lon="10.449040447445599"><ele>154.66666666666666</ele><time>2026-03-29T11:48:45Z</time></trkpt><trkpt lat="45.48831821808061" lon="10.448790583166149"><ele>154.33333333333334</ele><time>2026-03-29T11:48:46Z</time></trkpt><trkpt lat="45.48826460864842" lon="10.448564505315495"><ele>154.0</ele><time>2026-03-29T11:48:47Z</time></trkpt><trkpt lat="45.48826106062589" lon="10.448315562076989"><ele>154.0</ele><time>2026-03-29T11:48:48Z</time></trkpt><trkpt lat="45.48827930209039" lon="10.448042974941695"><ele>154.0</ele><time>2026-03-29T11:48:49Z</time></trkpt><trkpt lat="45.48829243848056" lon="10.447749361459818"><ele>154.0</ele><time>2026-03-29T11:48:50Z</time></trkpt><trkpt lat="45.4883002386156" lon="10.447457719251503"><ele>154.0</ele><time>2026-03-29T11:48:51Z</time></trkpt><trkpt lat="45.48830984411611" lon="10.4471938689925"><ele>154.0</ele><time>2026-03-29T11:48:52Z</time></trkpt><trkpt lat="45.488325942482454" lon="10.446943658558132"><ele>154.0</ele><time>2026-03-29T11:48:53Z</time></trkpt><trkpt lat="45.48834709992132" lon="10.446702036439962"><ele>154.0</ele><time>2026-03-29T11:48:54Z</time></trkpt><trkpt lat="45.488371057935524" lon="10.446478712907899"><ele>154.0</ele><time>2026-03-29T11:48:55Z</time></trkpt><trkpt lat="45.48839400712379" lon="10.44627105416042"><ele>154.0</ele><time>2026-03-29T11:48:56Z</time></trkpt><trkpt lat="45.48841569125634" lon="10.446090347950362"><ele>154.0</ele><time>2026-03-29T11:48:57Z</time></trkpt><trkpt lat="45.48843732830532" lon="10.445925265511063"><ele>154.2</ele><time>2026-03-29T11:48:58Z</time></trkpt><trkpt lat="45.488454821900255" lon="10.445797421621604"><ele>154.4</ele><time>2026-03-29T11:48:59Z</time></trkpt><trkpt lat="45.48845428947971" lon="10.445701401290696"><ele>154.6</ele><time>2026-03-29T11:49:00Z</time></trkpt><trkpt lat="45.488488243170615" lon="10.445618775859911"><ele>154.8</ele><time>2026-03-29T11:49:04Z</time></trkpt><trkpt lat="45.48851056310912" lon="10.445526509018519"><ele>155.0</ele><time>2026-03-29T11:49:07Z</time></trkpt><trkpt lat="45.48866684396817" lon="10.445592137630575"><ele>155.5</ele><time>2026-03-29T11:49:10Z</time></trkpt><trkpt lat="45.48879598405689" lon="10.445647174954"><ele>156.0</ele><time>2026-03-29T11:49:11Z</time></trkpt><trkpt lat="45.48891834524731" lon="10.445709639017716"><ele>156.5</ele><time>2026-03-29T11:49:12Z</time></trkpt><trkpt lat="45.489046873027405" lon="10.445769981809653"><ele>157.0</ele><time>2026-03-29T11:49:13Z</time></trkpt><trkpt lat="45.489184268421496" lon="10.445833196303717"><ele>157.0</ele><time>2026-03-29T11:49:14Z</time></trkpt><trkpt lat="45.48932463479316" lon="10.445897473984532"><ele>157.0</ele><time>2026-03-29T11:49:15Z</time></trkpt><trkpt lat="45.489470673679925" lon="10.445969006007225"><ele>157.0</ele><time>2026-03-29T11:49:16Z</time></trkpt><trkpt lat="45.48962779917504" lon="10.446043953578734"><ele>156.66666666666669</ele><time>2026-03-29T11:49:17Z</time></trkpt><trkpt lat="45.489782874216694" lon="10.4461163318946"><ele>156.33333333333334</ele><time>2026-03-29T11:49:18Z</time></trkpt><trkpt lat="45.489947003174734" lon="10.446191002957999"><ele>156.0</ele><time>2026-03-29T11:49:19Z</time></trkpt><trkpt lat="45.490111838890435" lon="10.446258845914626"><ele>156.33333333333334</ele><time>2026-03-29T11:49:20Z</time></trkpt><trkpt lat="45.490285939191956" lon="10.446317560668652"><ele>156.66666666666669</ele><time>2026-03-29T11:49:21Z</time></trkpt><trkpt lat="45.490464432209684" lon="10.446366079864445"><ele>157.0</ele><time>2026-03-29T11:49:22Z</time></trkpt><trkpt lat="45.49065210247093" lon="10.446404512271322"><ele>157.33333333333334</ele><time>2026-03-29T11:49:23Z</time></trkpt><trkpt lat="45.490843311315565" lon="10.446441754334156"><ele>157.66666666666666</ele><time>2026-03-29T11:49:24Z</time></trkpt><trkpt lat="45.49103527244314" lon="10.4464778908417"><ele>158.0</ele><time>2026-03-29T11:49:25Z</time></trkpt><trkpt lat="45.49123073752813" lon="10.446514635061149"><ele>158.0</ele><time>2026-03-29T11:49:26Z</time></trkpt><trkpt lat="45.491431793489255" lon="10.446560015257138"><ele>158.0</ele><time>2026-03-29T11:49:27Z</time></trkpt><trkpt lat="45.49163426054579" lon="10.446616123808587"><ele>158.0</ele><time>2026-03-29T11:49:28Z</time></trkpt><trkpt lat="45.49182964015871" lon="10.44668178847873"><ele>158.0</ele><time>2026-03-29T11:49:29Z</time></trkpt><trkpt lat="45.49202932182051" lon="10.446756161302316"><ele>158.0</ele><time>2026-03-29T11:49:30Z</time></trkpt><trkpt lat="45.49223190151542" lon="10.446839613902004"><ele>158.0</ele><time>2026-03-29T11:49:31Z</time></trkpt><trkpt lat="45.49243140517468" lon="10.446924365867867"><ele>158.66666666666666</ele><time>2026-03-29T11:49:32Z</time></trkpt><trkpt lat="45.49263711191865" lon="10.447009838621678"><ele>159.33333333333334</ele><time>2026-03-29T11:49:33Z</time></trkpt><trkpt lat="45.49284271085769" lon="10.447090561454345"><ele>160.0</ele><time>2026-03-29T11:49:34Z</time></trkpt><trkpt lat="45.493043738298034" lon="10.447169168994153"><ele>160.33333333333334</ele><time>2026-03-29T11:49:35Z</time></trkpt><trkpt lat="45.49324597557021" lon="10.44725436941521"><ele>160.66666666666666</ele><time>2026-03-29T11:49:36Z</time></trkpt><trkpt lat="45.49344646841399" lon="10.447342736184543"><ele>161.0</ele><time>2026-03-29T11:49:37Z</time></trkpt><trkpt lat="45.49364949135845" lon="10.447429983098326"><ele>161.0</ele><time>2026-03-29T11:49:38Z</time></trkpt><trkpt lat="45.493854008242145" lon="10.447517098868703"><ele>161.0</ele><time>2026-03-29T11:49:39Z</time></trkpt><trkpt lat="45.49405257942852" lon="10.447596761152116"><ele>161.0</ele><time>2026-03-29T11:49:40Z</time></trkpt><trkpt lat="45.49423202854413" lon="10.447674240049457"><ele>161.0</ele><time>2026-03-29T11:49:41Z</time></trkpt><trkpt lat="45.49439235870868" lon="10.447741609091343"><ele>161.0</ele><time>2026-03-29T11:49:42Z</time></trkpt><trkpt lat="45.49454604819362" lon="10.447805001288954"><ele>161.0</ele><time>2026-03-29T11:49:43Z</time></trkpt><trkpt lat="45.4946884733862" lon="10.447863881355113"><ele>161.5</ele><time>2026-03-29T11:49:44Z</time></trkpt><trkpt lat="45.494819333296725" lon="10.447919288508707"><ele>162.0</ele><time>2026-03-29T11:49:45Z</time></trkpt><trkpt lat="45.49493946738901" lon="10.447968186382043"><ele>162.5</ele><time>2026-03-29T11:49:46Z</time></trkpt><trkpt lat="45.4950544667906" lon="10.448017291271027"><ele>163.0</ele><time>2026-03-29T11:49:47Z</time></trkpt><trkpt lat="45.49516142817365" lon="10.44805768496985"><ele>163.0</ele><time>2026-03-29T11:49:48Z</time></trkpt><trkpt lat="45.4952492942819" lon="10.448109677065618"><ele>163.0</ele><time>2026-03-29T11:49:49Z</time></trkpt><trkpt lat="45.49531349903473" lon="10.448136648927878"><ele>163.0</ele><time>2026-03-29T11:49:50Z</time></trkpt><trkpt lat="45.49542042836262" lon="10.4481815688115"><ele>163.0</ele><time>2026-03-29T11:49:52Z</time></trkpt><trkpt lat="45.495524414086425" lon="10.44822533989811"><ele>163.0</ele><time>2026-03-29T11:49:53Z</time></trkpt><trkpt lat="45.49564780294106" lon="10.448277234279765"><ele>163.2</ele><time>2026-03-29T11:49:54Z</time></trkpt><trkpt lat="45.49574048842236" lon="10.448316215557218"><ele>163.4</ele><time>2026-03-29T11:49:55Z</time></trkpt><trkpt lat="45.49580142122777" lon="10.448341842354917"><ele>163.6</ele><time>2026-03-29T11:49:56Z</time></trkpt><trkpt lat="45.49592723645343" lon="10.448183890545774"><ele>163.79999999999998</ele><time>2026-03-29T11:49:59Z</time></trkpt><trkpt lat="45.49593888733647" lon="10.448068840749006"><ele>164.0</ele><time>2026-03-29T11:50:02Z</time></trkpt><trkpt lat="45.495876273569806" lon="10.448024917449185"><ele>164.0</ele><time>2026-03-29T11:50:05Z</time></trkpt><trkpt lat="45.49580331936275" lon="10.448050899696074"><ele>164.0</ele><time>2026-03-29T11:50:08Z</time></trkpt><trkpt lat="45.495691908312864" lon="10.448070755588438"><ele>164.0</ele><time>2026-03-29T11:50:10Z</time></trkpt><trkpt lat="45.49560895368843" lon="10.448082192427623"><ele>164.0</ele><time>2026-03-29T11:50:11Z</time></trkpt><trkpt lat="45.49554081516782" lon="10.448050599132891"><ele>164.0</ele><time>2026-03-29T11:50:12Z</time></trkpt><trkpt lat="45.495473709296824" lon="10.448026771831927"><ele>164.0</ele><time>2026-03-29T11:50:13Z</time></trkpt><trkpt lat="45.495387923431515" lon="10.447976641544429"><ele>163.66666666666666</ele><time>2026-03-29T11:50:15Z</time></trkpt><trkpt lat="45.49553233279" lon="10.447790792230958"><ele>163.33333333333334</ele><time>2026-03-29T11:50:20Z</time></trkpt><trkpt lat="45.49543668862928" lon="10.44757413127494"><ele>163.0</ele><time>2026-03-29T11:50:21Z</time></trkpt><trkpt lat="45.49547317934727" lon="10.44740909792015"><ele>163.0</ele><time>2026-03-29T11:50:22Z</time></trkpt><trkpt lat="45.49551010691569" lon="10.44724796174931"><ele>163.0</ele><time>2026-03-29T11:50:23Z</time></trkpt><trkpt lat="45.49553964083844" lon="10.447107244057708"><ele>163.0</ele><time>2026-03-29T11:50:24Z</time></trkpt><trkpt lat="45.49557101104787" lon="10.446984286128345"><ele>163.0</ele><time>2026-03-29T11:50:25Z</time></trkpt><trkpt lat="45.495598984310234" lon="10.446898868286047"><ele>163.0</ele><time>2026-03-29T11:50:26Z</time></trkpt><trkpt lat="45.49565315377563" lon="10.446850428130679"><ele>163.0</ele><time>2026-03-29T11:50:27Z</time></trkpt><trkpt lat="45.49574294442614" lon="10.446827035595815"><ele>163.4</ele><time>2026-03-29T11:50:30Z</time></trkpt><trkpt lat="45.49584503543666" lon="10.44681025014919"><ele>163.8</ele><time>2026-03-29T11:50:32Z</time></trkpt><trkpt lat="45.495965476372895" lon="10.446805850882757"><ele>164.2</ele><time>2026-03-29T11:50:34Z</time></trkpt><trkpt lat="45.496036382570665" lon="10.446675328544776"><ele>164.6</ele><time>2026-03-29T11:50:36Z</time></trkpt><trkpt lat="45.49610434840349" lon="10.446596413387093"><ele>165.0</ele><time>2026-03-29T11:50:37Z</time></trkpt><trkpt lat="45.49616753941662" lon="10.446490559281859"><ele>165.0</ele><time>2026-03-29T11:50:38Z</time></trkpt><trkpt lat="45.49622896248764" lon="10.446360924821388"><ele>165.0</ele><time>2026-03-29T11:50:39Z</time></trkpt><trkpt lat="45.496331678936045" lon="10.446268739761825"><ele>165.0</ele><time>2026-03-29T11:50:40Z</time></trkpt><trkpt lat="45.49641932073733" lon="10.446167739811516"><ele>165.0</ele><time>2026-03-29T11:50:41Z</time></trkpt><trkpt lat="45.496490608564855" lon="10.4460859985447"><ele>165.0</ele><time>2026-03-29T11:50:42Z</time></trkpt><trkpt lat="45.49655743957464" lon="10.446004648824136"><ele>164.5</ele><time>2026-03-29T11:50:43Z</time></trkpt><trkpt lat="45.49663569870556" lon="10.445903077458818"><ele>164.0</ele><time>2026-03-29T11:50:44Z</time></trkpt><trkpt lat="45.49669638303018" lon="10.445756760434241"><ele>163.5</ele><time>2026-03-29T11:50:45Z</time></trkpt><trkpt lat="45.496772086188635" lon="10.445614604629009"><ele>163.0</ele><time>2026-03-29T11:50:46Z</time></trkpt><trkpt lat="45.49685652425278" lon="10.4454881126307"><ele>162.75</ele><time>2026-03-29T11:50:47Z</time></trkpt><trkpt lat="45.49695142087085" lon="10.445343642238141"><ele>162.5</ele><time>2026-03-29T11:50:48Z</time></trkpt><trkpt lat="45.49705238718123" lon="10.445183919408576"><ele>162.25</ele><time>2026-03-29T11:50:49Z</time></trkpt><trkpt lat="45.49714445304399" lon="10.445006301386293"><ele>162.0</ele><time>2026-03-29T11:50:50Z</time></trkpt><trkpt lat="45.49723899649721" lon="10.444867734665266"><ele>161.75</ele><time>2026-03-29T11:50:51Z</time></trkpt><trkpt lat="45.497349127068134" lon="10.44470940888016"><ele>161.5</ele><time>2026-03-29T11:50:52Z</time></trkpt><trkpt lat="45.49744370940683" lon="10.444583806987243"><ele>161.25</ele><time>2026-03-29T11:50:53Z</time></trkpt><trkpt lat="45.49756022851817" lon="10.444463909196847"><ele>161.0</ele><time>2026-03-29T11:50:54Z</time></trkpt><trkpt lat="45.49770656328526" lon="10.444353893152632"><ele>161.0</ele><time>2026-03-29T11:50:55Z</time></trkpt><trkpt lat="45.49784517127413" lon="10.444239783559459"><ele>161.0</ele><time>2026-03-29T11:50:56Z</time></trkpt><trkpt lat="45.49797818009912" lon="10.444130283525974"><ele>161.0</ele><time>2026-03-29T11:50:57Z</time></trkpt><trkpt lat="45.49809327589633" lon="10.44400865231714"><ele>162.0</ele><time>2026-03-29T11:50:58Z</time></trkpt><trkpt lat="45.49821667740205" lon="10.443916150751686"><ele>163.0</ele><time>2026-03-29T11:50:59Z</time></trkpt><trkpt lat="45.4983280814357" lon="10.443844927262056"><ele>164.0</ele><time>2026-03-29T11:51:00Z</time></trkpt><trkpt lat="45.498434877016564" lon="10.443747752786605"><ele>165.0</ele><time>2026-03-29T11:51:01Z</time></trkpt><trkpt lat="45.49853761166662" lon="10.443640599276245"><ele>165.0</ele><time>2026-03-29T11:51:02Z</time></trkpt><trkpt lat="45.49863310056982" lon="10.44348535299947"><ele>165.0</ele><time>2026-03-29T11:51:03Z</time></trkpt><trkpt lat="45.4987531399654" lon="10.443328637482402"><ele>165.0</ele><time>2026-03-29T11:51:04Z</time></trkpt><trkpt lat="45.498868167019964" lon="10.443157042451814"><ele>165.25</ele><time>2026-03-29T11:51:05Z</time></trkpt><trkpt lat="45.49897591690214" lon="10.442998061538232"><ele>165.5</ele><time>2026-03-29T11:51:06Z</time></trkpt><trkpt lat="45.49907879228463" lon="10.44284280280579"><ele>165.75</ele><time>2026-03-29T11:51:07Z</time></trkpt><trkpt lat="45.49917757441902" lon="10.442695114150263"><ele>166.0</ele><time>2026-03-29T11:51:08Z</time></trkpt><trkpt lat="45.49926144363448" lon="10.442573369596216"><ele>166.0</ele><time>2026-03-29T11:51:09Z</time></trkpt><trkpt lat="45.49937305456207" lon="10.442432412837324"><ele>166.0</ele><time>2026-03-29T11:51:10Z</time></trkpt><trkpt lat="45.49944793223719" lon="10.442337724317321"><ele>166.0</ele><time>2026-03-29T11:51:11Z</time></trkpt><trkpt lat="45.499532889268" lon="10.442222525395001"><ele>166.0</ele><time>2026-03-29T11:51:12Z</time></trkpt><trkpt lat="45.499585023478275" lon="10.442111149153673"><ele>166.0</ele><time>2026-03-29T11:51:13Z</time></trkpt><trkpt lat="45.499639876500815" lon="10.442030668258754"><ele>166.0</ele><time>2026-03-29T11:51:14Z</time></trkpt><trkpt lat="45.49969696565768" lon="10.44192540339165"><ele>166.0</ele><time>2026-03-29T11:51:16Z</time></trkpt><trkpt lat="45.49975501940127" lon="10.441859919760311"><ele>166.0</ele><time>2026-03-29T11:51:19Z</time></trkpt><trkpt lat="45.499817641218776" lon="10.441835132205732"><ele>166.0</ele><time>2026-03-29T11:51:21Z</time></trkpt><trkpt lat="45.49989240975286" lon="10.441797852146339"><ele>166.0</ele><time>2026-03-29T11:51:23Z</time></trkpt><trkpt lat="45.49996454544424" lon="10.441741738340495"><ele>166.0</ele><time>2026-03-29T11:51:25Z</time></trkpt><trkpt lat="45.50005920228797" lon="10.441639373158022"><ele>166.0</ele><time>2026-03-29T11:51:27Z</time></trkpt><trkpt lat="45.500139524449615" lon="10.441515327508855"><ele>166.0</ele><time>2026-03-29T11:51:29Z</time></trkpt><trkpt lat="45.50019965352445" lon="10.441398023952651"><ele>166.0</ele><time>2026-03-29T11:51:31Z</time></trkpt><trkpt lat="45.50024316332188" lon="10.441289375915623"><ele>166.0</ele><time>2026-03-29T11:51:32Z</time></trkpt><trkpt lat="45.50029266671105" lon="10.441153219574783"><ele>165.8</ele><time>2026-03-29T11:51:33Z</time></trkpt><trkpt lat="45.50034052069866" lon="10.441041610547064"><ele>165.60000000000002</ele><time>2026-03-29T11:51:34Z</time></trkpt><trkpt lat="45.500388217033404" lon="10.440961557369492"><ele>165.4</ele><time>2026-03-29T11:51:35Z</time></trkpt><trkpt lat="45.50050759478471" lon="10.440996092485967"><ele>165.2</ele><time>2026-03-29T11:51:37Z</time></trkpt><trkpt lat="45.50060617176215" lon="10.441059473781856"><ele>165.0</ele><time>2026-03-29T11:51:38Z</time></trkpt><trkpt lat="45.50073397669025" lon="10.441094948258305"><ele>165.0</ele><time>2026-03-29T11:51:39Z</time></trkpt><trkpt lat="45.500869357940196" lon="10.441081473455858"><ele>165.0</ele><time>2026-03-29T11:51:40Z</time></trkpt><trkpt lat="45.5010081813688" lon="10.441072872473937"><ele>165.0</ele><time>2026-03-29T11:51:41Z</time></trkpt><trkpt lat="45.50115408815995" lon="10.44106164373776"><ele>165.0</ele><time>2026-03-29T11:51:42Z</time></trkpt><trkpt lat="45.501319062989204" lon="10.441057945819656"><ele>164.75</ele><time>2026-03-29T11:51:43Z</time></trkpt><trkpt lat="45.50149291155813" lon="10.441051650705562"><ele>164.5</ele><time>2026-03-29T11:51:44Z</time></trkpt><trkpt lat="45.50163096889719" lon="10.441064396632884"><ele>164.25</ele><time>2026-03-29T11:51:45Z</time></trkpt><trkpt lat="45.501734059292254" lon="10.441057389202522"><ele>164.0</ele><time>2026-03-29T11:51:46Z</time></trkpt><trkpt lat="45.501811494344494" lon="10.441065900129066"><ele>164.0</ele><time>2026-03-29T11:51:47Z</time></trkpt><trkpt lat="45.50190929213512" lon="10.44116036287705"><ele>164.0</ele><time>2026-03-29T11:51:49Z</time></trkpt><trkpt lat="45.501925465898324" lon="10.441267161847762"><ele>164.0</ele><time>2026-03-29T11:51:50Z</time></trkpt><trkpt lat="45.50190578592979" lon="10.441412424422857"><ele>164.0</ele><time>2026-03-29T11:51:51Z</time></trkpt><trkpt lat="45.50192330278305" lon="10.44159066712634"><ele>164.0</ele><time>2026-03-29T11:51:52Z</time></trkpt><trkpt lat="45.501913560391564" lon="10.441795280810423"><ele>164.25</ele><time>2026-03-29T11:51:53Z</time></trkpt><trkpt lat="45.50191798003219" lon="10.442005991417764"><ele>164.5</ele><time>2026-03-29T11:51:54Z</time></trkpt><trkpt lat="45.50191702432277" lon="10.442197043264796"><ele>164.75</ele><time>2026-03-29T11:51:55Z</time></trkpt><trkpt lat="45.50191793313286" lon="10.442364268372893"><ele>165.0</ele><time>2026-03-29T11:51:56Z</time></trkpt><trkpt lat="45.501923487028805" lon="10.44248355684747"><ele>165.25</ele><time>2026-03-29T11:51:57Z</time></trkpt><trkpt lat="45.50199211856142" lon="10.44257993552977"><ele>165.5</ele><time>2026-03-29T11:51:59Z</time></trkpt><trkpt lat="45.50211814275455" lon="10.442549403748895"><ele>165.75</ele><time>2026-03-29T11:52:01Z</time></trkpt><trkpt lat="45.50223005341799" lon="10.442568810998308"><ele>166.0</ele><time>2026-03-29T11:52:02Z</time></trkpt><trkpt lat="45.50237334488395" lon="10.442550798509039"><ele>166.16666666666669</ele><time>2026-03-29T11:52:03Z</time></trkpt><trkpt lat="45.502499605018166" lon="10.442541049911965"><ele>166.33333333333334</ele><time>2026-03-29T11:52:04Z</time></trkpt><trkpt lat="45.502595901064424" lon="10.442540915992025"><ele>166.5</ele><time>2026-03-29T11:52:05Z</time></trkpt><trkpt lat="45.502674167153366" lon="10.442546465150825"><ele>166.66666666666666</ele><time>2026-03-29T11:52:06Z</time></trkpt><trkpt lat="45.50274445296536" lon="10.442552573906708"><ele>166.83333333333331</ele><time>2026-03-29T11:52:07Z</time></trkpt><trkpt lat="45.50281082904226" lon="10.442562688076064"><ele>167.0</ele><time>2026-03-29T11:52:09Z</time></trkpt><trkpt lat="45.5027936084887" lon="10.442767111266935"><ele>167.0</ele><time>2026-03-29T11:52:12Z</time></trkpt><trkpt lat="45.50274974352415" lon="10.44290397295683"><ele>167.0</ele><time>2026-03-29T11:52:13Z</time></trkpt><trkpt lat="45.50270640269344" lon="10.44304816851613"><ele>167.0</ele><time>2026-03-29T11:52:14Z</time></trkpt><trkpt lat="45.50264283928115" lon="10.443227024298297"><ele>167.0</ele><time>2026-03-29T11:52:15Z</time></trkpt><trkpt lat="45.50257453515128" lon="10.443417184568956"><ele>167.0</ele><time>2026-03-29T11:52:16Z</time></trkpt><trkpt lat="45.50251493178898" lon="10.443595255812465"><ele>167.0</ele><time>2026-03-29T11:52:17Z</time></trkpt><trkpt lat="45.50245732382803" lon="10.443763544280587"><ele>167.0</ele><time>2026-03-29T11:52:18Z</time></trkpt><trkpt lat="45.50238068802439" lon="10.443954410513332"><ele>167.0</ele><time>2026-03-29T11:52:19Z</time></trkpt><trkpt lat="45.5023089241422" lon="10.444125264029587"><ele>167.0</ele><time>2026-03-29T11:52:20Z</time></trkpt><trkpt lat="45.50223667258798" lon="10.444298746867531"><ele>167.0</ele><time>2026-03-29T11:52:21Z</time></trkpt><trkpt lat="45.50216545548428" lon="10.444451896294044"><ele>167.0</ele><time>2026-03-29T11:52:22Z</time></trkpt><trkpt lat="45.5020926555053" lon="10.444610701195097"><ele>167.0</ele><time>2026-03-29T11:52:23Z</time></trkpt><trkpt lat="45.50202031020567" lon="10.444776235492634"><ele>167.0</ele><time>2026-03-29T11:52:24Z</time></trkpt><trkpt lat="45.50193192107506" lon="10.444965785015691"><ele>167.0</ele><time>2026-03-29T11:52:25Z</time></trkpt><trkpt lat="45.50185445703288" lon="10.445138735152396"><ele>167.0</ele><time>2026-03-29T11:52:26Z</time></trkpt><trkpt lat="45.50178400827442" lon="10.445290826065946"><ele>167.0</ele><time>2026-03-29T11:52:27Z</time></trkpt><trkpt lat="45.501700163502285" lon="10.44545950984261"><ele>167.5</ele><time>2026-03-29T11:52:28Z</time></trkpt><trkpt lat="45.50163428853629" lon="10.445606823959254"><ele>168.0</ele><time>2026-03-29T11:52:29Z</time></trkpt><trkpt lat="45.501557928136506" lon="10.445769076902836"><ele>168.5</ele><time>2026-03-29T11:52:30Z</time></trkpt><trkpt lat="45.50148262561413" lon="10.445934682008694"><ele>169.0</ele><time>2026-03-29T11:52:31Z</time></trkpt><trkpt lat="45.501420161445644" lon="10.446074900076997"><ele>169.0</ele><time>2026-03-29T11:52:32Z</time></trkpt><trkpt lat="45.50136378021713" lon="10.446223247791961"><ele>169.0</ele><time>2026-03-29T11:52:33Z</time></trkpt><trkpt lat="45.50132076488662" lon="10.446350605039381"><ele>169.0</ele><time>2026-03-29T11:52:34Z</time></trkpt><trkpt lat="45.50130022610699" lon="10.446455242514658"><ele>169.0</ele><time>2026-03-29T11:52:35Z</time></trkpt><trkpt lat="45.50129651919532" lon="10.446561022590302"><ele>169.0</ele><time>2026-03-29T11:52:36Z</time></trkpt><trkpt lat="45.50130869403275" lon="10.446672365682096"><ele>169.0</ele><time>2026-03-29T11:52:37Z</time></trkpt><trkpt lat="45.50133834324209" lon="10.44681717872239"><ele>169.0</ele><time>2026-03-29T11:52:38Z</time></trkpt><trkpt lat="45.501347205666825" lon="10.446937651824745"><ele>169.0</ele><time>2026-03-29T11:52:39Z</time></trkpt><trkpt lat="45.501319070593524" lon="10.447048918816689"><ele>169.0</ele><time>2026-03-29T11:52:40Z</time></trkpt><trkpt lat="45.50125186274329" lon="10.447176374501629"><ele>169.0</ele><time>2026-03-29T11:52:41Z</time></trkpt><trkpt lat="45.50116117061583" lon="10.447326660593204"><ele>169.0</ele><time>2026-03-29T11:52:42Z</time></trkpt><trkpt lat="45.50105400500907" lon="10.447500958442035"><ele>168.66666666666669</ele><time>2026-03-29T11:52:43Z</time></trkpt><trkpt lat="45.50095640090663" lon="10.447681922388092"><ele>168.33333333333334</ele><time>2026-03-29T11:52:44Z</time></trkpt><trkpt lat="45.50087189960472" lon="10.447866437100476"><ele>168.0</ele><time>2026-03-29T11:52:45Z</time></trkpt><trkpt lat="45.50078856319867" lon="10.448055269556496"><ele>168.0</ele><time>2026-03-29T11:52:46Z</time></trkpt><trkpt lat="45.50071787077644" lon="10.448221677058468"><ele>168.0</ele><time>2026-03-29T11:52:47Z</time></trkpt><trkpt lat="45.500646436977384" lon="10.448388945861254"><ele>168.0</ele><time>2026-03-29T11:52:48Z</time></trkpt><trkpt lat="45.50057969896864" lon="10.448556651196643"><ele>168.0</ele><time>2026-03-29T11:52:49Z</time></trkpt><trkpt lat="45.50051545983547" lon="10.44871252234372"><ele>168.0</ele><time>2026-03-29T11:52:50Z</time></trkpt><trkpt lat="45.50046889455305" lon="10.448850578270664"><ele>168.0</ele><time>2026-03-29T11:52:51Z</time></trkpt><trkpt lat="45.50042629385097" lon="10.448965373987994"><ele>168.0</ele><time>2026-03-29T11:52:52Z</time></trkpt><trkpt lat="45.50039351899879" lon="10.449062920659934"><ele>168.0</ele><time>2026-03-29T11:52:53Z</time></trkpt><trkpt lat="45.50037241073443" lon="10.449205256321015"><ele>168.0</ele><time>2026-03-29T11:52:55Z</time></trkpt><trkpt lat="45.500417031781474" lon="10.449330586960645"><ele>168.0</ele><time>2026-03-29T11:52:57Z</time></trkpt><trkpt lat="45.50054946184332" lon="10.449450423421277"><ele>168.0</ele><time>2026-03-29T11:52:59Z</time></trkpt><trkpt lat="45.5006383361736" lon="10.449542912747892"><ele>168.0</ele><time>2026-03-29T11:53:00Z</time></trkpt><trkpt lat="45.50073995240735" lon="10.449649522493027"><ele>168.0</ele><time>2026-03-29T11:53:01Z</time></trkpt><trkpt lat="45.5008143348064" lon="10.44973315667161"><ele>168.0</ele><time>2026-03-29T11:53:02Z</time></trkpt><trkpt lat="45.500914257836854" lon="10.449783557050566"><ele>168.0</ele><time>2026-03-29T11:53:04Z</time></trkpt><trkpt lat="45.50101157615855" lon="10.449719283543294"><ele>168.0</ele><time>2026-03-29T11:53:06Z</time></trkpt><trkpt lat="45.501066281294676" lon="10.449510899957867"><ele>168.0</ele><time>2026-03-29T11:53:08Z</time></trkpt><trkpt lat="45.501098426694966" lon="10.449393455877395"><ele>168.0</ele><time>2026-03-29T11:53:09Z</time></trkpt><trkpt lat="45.50113823582086" lon="10.449321870133602"><ele>168.0</ele><time>2026-03-29T11:53:10Z</time></trkpt><trkpt lat="45.5012739708015" lon="10.449303988260564"><ele>168.0</ele><time>2026-03-29T11:53:12Z</time></trkpt><trkpt lat="45.501357284900514" lon="10.449320032276535"><ele>168.0</ele><time>2026-03-29T11:53:13Z</time></trkpt><trkpt lat="45.50143757032665" lon="10.449372120558484"><ele>168.0</ele><time>2026-03-29T11:53:14Z</time></trkpt><trkpt lat="45.501556211721436" lon="10.449448945539114"><ele>168.33333333333334</ele><time>2026-03-29T11:53:15Z</time></trkpt><trkpt lat="45.50169774197118" lon="10.449520394340274"><ele>168.66666666666669</ele><time>2026-03-29T11:53:16Z</time></trkpt><trkpt lat="45.50185484766462" lon="10.449595062844384"><ele>169.0</ele><time>2026-03-29T11:53:17Z</time></trkpt><trkpt lat="45.502007284667094" lon="10.449660490541035"><ele>169.33333333333334</ele><time>2026-03-29T11:53:18Z</time></trkpt><trkpt lat="45.50216282598325" lon="10.449719221739993"><ele>169.66666666666666</ele><time>2026-03-29T11:53:19Z</time></trkpt><trkpt lat="45.502316251826464" lon="10.449763843740453"><ele>170.0</ele><time>2026-03-29T11:53:20Z</time></trkpt><trkpt lat="45.50247350000808" lon="10.4497983210246"><ele>170.0</ele><time>2026-03-29T11:53:21Z</time></trkpt><trkpt lat="45.50260550004638" lon="10.449816025528804"><ele>170.0</ele><time>2026-03-29T11:53:22Z</time></trkpt><trkpt lat="45.502741266691245" lon="10.44983064286399"><ele>170.0</ele><time>2026-03-29T11:53:23Z</time></trkpt><trkpt lat="45.50288846165823" lon="10.449848117883295"><ele>170.0</ele><time>2026-03-29T11:53:24Z</time></trkpt><trkpt lat="45.50301919715304" lon="10.449854328198718"><ele>170.0</ele><time>2026-03-29T11:53:25Z</time></trkpt><trkpt lat="45.50313515477229" lon="10.449843161507106"><ele>170.0</ele><time>2026-03-29T11:53:26Z</time></trkpt><trkpt lat="45.503251405971774" lon="10.449812790744662"><ele>170.0</ele><time>2026-03-29T11:53:27Z</time></trkpt><trkpt lat="45.5033749737431" lon="10.449744160044965"><ele>170.0</ele><time>2026-03-29T11:53:28Z</time></trkpt><trkpt lat="45.50351745911387" lon="10.449627736951584"><ele>170.0</ele><time>2026-03-29T11:53:29Z</time></trkpt><trkpt lat="45.503690296283814" lon="10.449490767596341"><ele>170.0</ele><time>2026-03-29T11:53:30Z</time></trkpt><trkpt lat="45.50383654230253" lon="10.449397746742264"><ele>170.0</ele><time>2026-03-29T11:53:31Z</time></trkpt><trkpt lat="45.50399081875597" lon="10.449303462652331"><ele>170.33333333333331</ele><time>2026-03-29T11:53:32Z</time></trkpt><trkpt lat="45.504160010187" lon="10.449202990593667"><ele>170.66666666666666</ele><time>2026-03-29T11:53:33Z</time></trkpt><trkpt lat="45.5043172721085" lon="10.449118958272672"><ele>171.0</ele><time>2026-03-29T11:53:34Z</time></trkpt><trkpt lat="45.50448758930053" lon="10.449039191721733"><ele>171.66666666666666</ele><time>2026-03-29T11:53:35Z</time></trkpt><trkpt lat="45.50465814499665" lon="10.44896799860964"><ele>172.33333333333331</ele><time>2026-03-29T11:53:36Z</time></trkpt><trkpt lat="45.50482242348355" lon="10.448901976398524"><ele>173.0</ele><time>2026-03-29T11:53:37Z</time></trkpt><trkpt lat="45.5049846418837" lon="10.448841276379229"><ele>173.0</ele><time>2026-03-29T11:53:38Z</time></trkpt><trkpt lat="45.505161994609786" lon="10.448775626789889"><ele>173.0</ele><time>2026-03-29T11:53:39Z</time></trkpt><trkpt lat="45.50531207097375" lon="10.448720764424076"><ele>173.0</ele><time>2026-03-29T11:53:40Z</time></trkpt><trkpt lat="45.50545055173438" lon="10.4486758107562"><ele>173.2</ele><time>2026-03-29T11:53:41Z</time></trkpt><trkpt lat="45.50556468570151" lon="10.448625083133583"><ele>173.4</ele><time>2026-03-29T11:53:42Z</time></trkpt><trkpt lat="45.50567444422537" lon="10.448577688584065"><ele>173.6</ele><time>2026-03-29T11:53:43Z</time></trkpt><trkpt lat="45.50577103959439" lon="10.44853537044774"><ele>173.79999999999998</ele><time>2026-03-29T11:53:44Z</time></trkpt><trkpt lat="45.50586020045596" lon="10.448488924214017"><ele>174.0</ele><time>2026-03-29T11:53:46Z</time></trkpt><trkpt lat="45.50594711973684" lon="10.448448282604037"><ele>174.0</ele><time>2026-03-29T11:53:48Z</time></trkpt><trkpt lat="45.50608019736069" lon="10.448552299873008"><ele>174.0</ele><time>2026-03-29T11:53:49Z</time></trkpt><trkpt lat="45.50617548798808" lon="10.448455676307164"><ele>174.0</ele><time>2026-03-29T11:53:51Z</time></trkpt><trkpt lat="45.506255614669" lon="10.448374428802143"><ele>174.0</ele><time>2026-03-29T11:53:53Z</time></trkpt><trkpt lat="45.506248607540954" lon="10.448248467039544"><ele>174.25</ele><time>2026-03-29T11:53:54Z</time></trkpt><trkpt lat="45.506345862843666" lon="10.448140221304559"><ele>174.5</ele><time>2026-03-29T11:53:56Z</time></trkpt><trkpt lat="45.5064207747726" lon="10.448079538541577"><ele>174.75</ele><time>2026-03-29T11:53:57Z</time></trkpt><trkpt lat="45.50653086419268" lon="10.447992831582782"><ele>175.0</ele><time>2026-03-29T11:53:58Z</time></trkpt><trkpt lat="45.50666807638428" lon="10.447891482417987"><ele>175.0</ele><time>2026-03-29T11:53:59Z</time></trkpt><trkpt lat="45.50679451341316" lon="10.447784467029113"><ele>175.0</ele><time>2026-03-29T11:54:00Z</time></trkpt><trkpt lat="45.50692080918459" lon="10.447659794520526"><ele>175.0</ele><time>2026-03-29T11:54:01Z</time></trkpt><trkpt lat="45.507062622947885" lon="10.447544853545187"><ele>174.66666666666669</ele><time>2026-03-29T11:54:02Z</time></trkpt><trkpt lat="45.507195287873564" lon="10.447420062091005"><ele>174.33333333333334</ele><time>2026-03-29T11:54:03Z</time></trkpt><trkpt lat="45.50731605305305" lon="10.447275302202142"><ele>174.0</ele><time>2026-03-29T11:54:04Z</time></trkpt><trkpt lat="45.507446546225935" lon="10.447145001926682"><ele>174.66666666666666</ele><time>2026-03-29T11:54:05Z</time></trkpt><trkpt lat="45.50756663790654" lon="10.447000537372457"><ele>175.33333333333331</ele><time>2026-03-29T11:54:06Z</time></trkpt><trkpt lat="45.50769964446091" lon="10.446844255140155"><ele>176.0</ele><time>2026-03-29T11:54:07Z</time></trkpt><trkpt lat="45.507836712221774" lon="10.446682217008169"><ele>175.66666666666666</ele><time>2026-03-29T11:54:08Z</time></trkpt><trkpt lat="45.50797499501027" lon="10.44651672436027"><ele>175.33333333333334</ele><time>2026-03-29T11:54:09Z</time></trkpt><trkpt lat="45.50811285242598" lon="10.446367881851277"><ele>175.0</ele><time>2026-03-29T11:54:10Z</time></trkpt><trkpt lat="45.50825647054836" lon="10.446209340734601"><ele>175.0</ele><time>2026-03-29T11:54:11Z</time></trkpt><trkpt lat="45.508393641875934" lon="10.446048647794786"><ele>175.0</ele><time>2026-03-29T11:54:12Z</time></trkpt><trkpt lat="45.508532530213046" lon="10.445886849061933"><ele>175.0</ele><time>2026-03-29T11:54:13Z</time></trkpt><trkpt lat="45.5086694309938" lon="10.445718455539899"><ele>175.66666666666669</ele><time>2026-03-29T11:54:14Z</time></trkpt><trkpt lat="45.50882750821746" lon="10.445562904811943"><ele>176.33333333333334</ele><time>2026-03-29T11:54:15Z</time></trkpt><trkpt lat="45.508971729189724" lon="10.445397827313668"><ele>177.0</ele><time>2026-03-29T11:54:16Z</time></trkpt><trkpt lat="45.50910860815314" lon="10.445218920919235"><ele>177.0</ele><time>2026-03-29T11:54:17Z</time></trkpt><trkpt lat="45.509250626168736" lon="10.445056723495183"><ele>177.0</ele><time>2026-03-29T11:54:18Z</time></trkpt><trkpt lat="45.50937561204977" lon="10.444876078269187"><ele>177.0</ele><time>2026-03-29T11:54:19Z</time></trkpt><trkpt lat="45.50948595400087" lon="10.444665312896454"><ele>176.66666666666666</ele><time>2026-03-29T11:54:20Z</time></trkpt><trkpt lat="45.509591647478594" lon="10.444430182013491"><ele>176.33333333333331</ele><time>2026-03-29T11:54:21Z</time></trkpt><trkpt lat="45.50969204696857" lon="10.444196984064897"><ele>176.0</ele><time>2026-03-29T11:54:22Z</time></trkpt><trkpt lat="45.50979460871192" lon="10.443973917676724"><ele>176.0</ele><time>2026-03-29T11:54:23Z</time></trkpt><trkpt lat="45.50990089941603" lon="10.443751577732023"><ele>176.0</ele><time>2026-03-29T11:54:24Z</time></trkpt><trkpt lat="45.51000121885314" lon="10.443544575607795"><ele>176.0</ele><time>2026-03-29T11:54:25Z</time></trkpt><trkpt lat="45.51009706245046" lon="10.443346345193817"><ele>176.0</ele><time>2026-03-29T11:54:26Z</time></trkpt><trkpt lat="45.51018481609227" lon="10.443168367436074"><ele>176.0</ele><time>2026-03-29T11:54:27Z</time></trkpt><trkpt lat="45.510267441649006" lon="10.443003101392266"><ele>176.0</ele><time>2026-03-29T11:54:28Z</time></trkpt><trkpt lat="45.5103342150852" lon="10.442870909532076"><ele>176.0</ele><time>2026-03-29T11:54:29Z</time></trkpt><trkpt lat="45.51038640476046" lon="10.442791105972868"><ele>176.60000000000002</ele><time>2026-03-29T11:54:30Z</time></trkpt><trkpt lat="45.51045607790029" lon="10.442725783318133"><ele>177.2</ele><time>2026-03-29T11:54:31Z</time></trkpt><trkpt lat="45.51054812323038" lon="10.442680538582241"><ele>177.8</ele><time>2026-03-29T11:54:32Z</time></trkpt><trkpt lat="45.51066334622318" lon="10.442658208057187"><ele>178.39999999999998</ele><time>2026-03-29T11:54:33Z</time></trkpt><trkpt lat="45.51078657728395" lon="10.442699469786866"><ele>179.0</ele><time>2026-03-29T11:54:34Z</time></trkpt><trkpt lat="45.510922658301" lon="10.442693987296128"><ele>179.0</ele><time>2026-03-29T11:54:35Z</time></trkpt><trkpt lat="45.51105985829945" lon="10.442726780348993"><ele>179.0</ele><time>2026-03-29T11:54:36Z</time></trkpt><trkpt lat="45.511180767003744" lon="10.442747651227078"><ele>179.0</ele><time>2026-03-29T11:54:37Z</time></trkpt><trkpt lat="45.51128456814078" lon="10.442783129655144"><ele>179.0</ele><time>2026-03-29T11:54:38Z</time></trkpt><trkpt lat="45.51135789008431" lon="10.442844674055657"><ele>178.6</ele><time>2026-03-29T11:54:39Z</time></trkpt><trkpt lat="45.51140838859503" lon="10.44293815804859"><ele>178.2</ele><time>2026-03-29T11:54:40Z</time></trkpt><trkpt lat="45.511434923446316" lon="10.443052675648326"><ele>177.79999999999998</ele><time>2026-03-29T11:54:41Z</time></trkpt><trkpt lat="45.511448811914526" lon="10.443190484201565"><ele>177.39999999999998</ele><time>2026-03-29T11:54:42Z</time></trkpt><trkpt lat="45.51148509630808" lon="10.443317577606937"><ele>177.0</ele><time>2026-03-29T11:54:43Z</time></trkpt><trkpt lat="45.51156847725864" lon="10.443407746108555"><ele>177.0</ele><time>2026-03-29T11:54:44Z</time></trkpt><trkpt lat="45.51167073943688" lon="10.443426321643594"><ele>177.0</ele><time>2026-03-29T11:54:45Z</time></trkpt><trkpt lat="45.51176667313066" lon="10.443379013907007"><ele>177.0</ele><time>2026-03-29T11:54:46Z</time></trkpt><trkpt lat="45.51184755451435" lon="10.44327573550404"><ele>177.0</ele><time>2026-03-29T11:54:47Z</time></trkpt><trkpt lat="45.51189068003177" lon="10.44312059246708"><ele>177.0</ele><time>2026-03-29T11:54:48Z</time></trkpt><trkpt lat="45.51191812453736" lon="10.44292216562277"><ele>177.0</ele><time>2026-03-29T11:54:49Z</time></trkpt><trkpt lat="45.51196182899033" lon="10.44269531810931"><ele>177.0</ele><time>2026-03-29T11:54:50Z</time></trkpt><trkpt lat="45.51198177023199" lon="10.44250345482843"><ele>177.0</ele><time>2026-03-29T11:54:51Z</time></trkpt><trkpt lat="45.51218369805508" lon="10.442391239187293"><ele>177.33333333333334</ele><time>2026-03-29T11:54:52Z</time></trkpt><trkpt lat="45.51231216289117" lon="10.442209454293318"><ele>177.66666666666669</ele><time>2026-03-29T11:54:53Z</time></trkpt><trkpt lat="45.5124542884102" lon="10.44198791391408"><ele>178.0</ele><time>2026-03-29T11:54:54Z</time></trkpt><trkpt lat="45.51261983182939" lon="10.441752499344123"><ele>178.0</ele><time>2026-03-29T11:54:55Z</time></trkpt><trkpt lat="45.5127782682323" lon="10.44151496122692"><ele>178.0</ele><time>2026-03-29T11:54:56Z</time></trkpt><trkpt lat="45.512944859977495" lon="10.44129461072838"><ele>178.33333333333334</ele><time>2026-03-29T11:54:57Z</time></trkpt><trkpt lat="45.5130948853666" lon="10.441053906585873"><ele>178.66666666666666</ele><time>2026-03-29T11:54:58Z</time></trkpt><trkpt lat="45.513221294655544" lon="10.44079805359568"><ele>179.0</ele><time>2026-03-29T11:54:59Z</time></trkpt><trkpt lat="45.513336757162705" lon="10.44056860092971"><ele>178.66666666666666</ele><time>2026-03-29T11:55:00Z</time></trkpt><trkpt lat="45.51345004799005" lon="10.440336702630448"><ele>178.33333333333334</ele><time>2026-03-29T11:55:01Z</time></trkpt><trkpt lat="45.513566642892776" lon="10.440092693031525"><ele>178.0</ele><time>2026-03-29T11:55:02Z</time></trkpt><trkpt lat="45.51367331034374" lon="10.439849063266005"><ele>178.66666666666669</ele><time>2026-03-29T11:55:03Z</time></trkpt><trkpt lat="45.51376990943479" lon="10.439600057648994"><ele>179.33333333333334</ele><time>2026-03-29T11:55:04Z</time></trkpt><trkpt lat="45.513876995685656" lon="10.43935867372674"><ele>180.0</ele><time>2026-03-29T11:55:05Z</time></trkpt><trkpt lat="45.5139558475416" lon="10.439123079666512"><ele>180.0</ele><time>2026-03-29T11:55:06Z</time></trkpt><trkpt lat="45.51401351125146" lon="10.438879566196151"><ele>180.0</ele><time>2026-03-29T11:55:07Z</time></trkpt><trkpt lat="45.514089458823314" lon="10.438635768453079"><ele>180.0</ele><time>2026-03-29T11:55:08Z</time></trkpt><trkpt lat="45.51415103038883" lon="10.438418597965102"><ele>180.0</ele><time>2026-03-29T11:55:09Z</time></trkpt><trkpt lat="45.51420402953413" lon="10.43821509615101"><ele>180.0</ele><time>2026-03-29T11:55:10Z</time></trkpt><trkpt lat="45.5142507186589" lon="10.438012505021513"><ele>180.0</ele><time>2026-03-29T11:55:11Z</time></trkpt><trkpt lat="45.51431344513248" lon="10.437833953119393"><ele>180.0</ele><time>2026-03-29T11:55:12Z</time></trkpt><trkpt lat="45.5143585903009" lon="10.437661113269321"><ele>180.25</ele><time>2026-03-29T11:55:13Z</time></trkpt><trkpt lat="45.5143891924243" lon="10.437491376670453"><ele>180.5</ele><time>2026-03-29T11:55:14Z</time></trkpt><trkpt lat="45.51444546229966" lon="10.437345715010608"><ele>180.75</ele><time>2026-03-29T11:55:15Z</time></trkpt><trkpt lat="45.51451435506029" lon="10.43721502428271"><ele>181.0</ele><time>2026-03-29T11:55:16Z</time></trkpt><trkpt lat="45.51459461990525" lon="10.4371057946016"><ele>181.4</ele><time>2026-03-29T11:55:17Z</time></trkpt><trkpt lat="45.514685506081555" lon="10.437007179004446"><ele>181.8</ele><time>2026-03-29T11:55:18Z</time></trkpt><trkpt lat="45.51476374665079" lon="10.43690939245493"><ele>182.20000000000002</ele><time>2026-03-29T11:55:19Z</time></trkpt><trkpt lat="45.51480566792231" lon="10.436771811684647"><ele>182.60000000000002</ele><time>2026-03-29T11:55:20Z</time></trkpt><trkpt lat="45.514801930239024" lon="10.43661736480262"><ele>183.0</ele><time>2026-03-29T11:55:21Z</time></trkpt><trkpt lat="45.514761592529304" lon="10.436455941401872"><ele>183.0</ele><time>2026-03-29T11:55:22Z</time></trkpt><trkpt lat="45.51469212882992" lon="10.436268790950274"><ele>183.0</ele><time>2026-03-29T11:55:23Z</time></trkpt><trkpt lat="45.5146263689976" lon="10.43604514899841"><ele>183.0</ele><time>2026-03-29T11:55:24Z</time></trkpt><trkpt lat="45.51462716655317" lon="10.4357818984628"><ele>183.0</ele><time>2026-03-29T11:55:25Z</time></trkpt><trkpt lat="45.514620400323935" lon="10.435497977644694"><ele>183.0</ele><time>2026-03-29T11:55:26Z</time></trkpt><trkpt lat="45.51459670293171" lon="10.435211821933658"><ele>183.0</ele><time>2026-03-29T11:55:27Z</time></trkpt><trkpt lat="45.51458585090005" lon="10.434904685886652"><ele>182.33333333333334</ele><time>2026-03-29T11:55:28Z</time></trkpt><trkpt lat="45.514568631345526" lon="10.43459217346932"><ele>181.66666666666669</ele><time>2026-03-29T11:55:29Z</time></trkpt><trkpt lat="45.51455583798657" lon="10.434279725754179"><ele>181.0</ele><time>2026-03-29T11:55:30Z</time></trkpt><trkpt lat="45.514544210223285" lon="10.433979971741563"><ele>182.0</ele><time>2026-03-29T11:55:31Z</time></trkpt><trkpt lat="45.51452927417187" lon="10.43368096926677"><ele>183.0</ele><time>2026-03-29T11:55:32Z</time></trkpt><trkpt lat="45.5145143096424" lon="10.433380526444008"><ele>184.0</ele><time>2026-03-29T11:55:33Z</time></trkpt><trkpt lat="45.51450003500236" lon="10.43307644406471"><ele>184.0</ele><time>2026-03-29T11:55:34Z</time></trkpt><trkpt lat="45.514484460633525" lon="10.43276135879217"><ele>184.0</ele><time>2026-03-29T11:55:35Z</time></trkpt><trkpt lat="45.51447798303242" lon="10.43243940889677"><ele>184.0</ele><time>2026-03-29T11:55:36Z</time></trkpt><trkpt lat="45.51447654148266" lon="10.432119008382683"><ele>183.5</ele><time>2026-03-29T11:55:37Z</time></trkpt><trkpt lat="45.51448007816276" lon="10.431800395960297"><ele>183.0</ele><time>2026-03-29T11:55:38Z</time></trkpt><trkpt lat="45.514485142739346" lon="10.431472406040234"><ele>182.5</ele><time>2026-03-29T11:55:39Z</time></trkpt><trkpt lat="45.514515056257586" lon="10.431145450404394"><ele>182.0</ele><time>2026-03-29T11:55:40Z</time></trkpt><trkpt lat="45.514534088843824" lon="10.430821099990721"><ele>182.0</ele><time>2026-03-29T11:55:41Z</time></trkpt><trkpt lat="45.5145409523148" lon="10.430511034118453"><ele>182.0</ele><time>2026-03-29T11:55:42Z</time></trkpt><trkpt lat="45.514571898218975" lon="10.43019775983182"><ele>182.0</ele><time>2026-03-29T11:55:43Z</time></trkpt><trkpt lat="45.51459512961817" lon="10.42989867746237"><ele>182.66666666666666</ele><time>2026-03-29T11:55:44Z</time></trkpt><trkpt lat="45.514633877389116" lon="10.429622701259374"><ele>183.33333333333334</ele><time>2026-03-29T11:55:45Z</time></trkpt><trkpt lat="45.51465872432749" lon="10.42933504962593"><ele>184.0</ele><time>2026-03-29T11:55:46Z</time></trkpt><trkpt lat="45.51468273531808" lon="10.429042128356247"><ele>184.0</ele><time>2026-03-29T11:55:47Z</time></trkpt><trkpt lat="45.514707136444905" lon="10.428746583952929"><ele>184.0</ele><time>2026-03-29T11:55:48Z</time></trkpt><trkpt lat="45.514716578511695" lon="10.428437158929647"><ele>184.0</ele><time>2026-03-29T11:55:49Z</time></trkpt><trkpt lat="45.5147432371648" lon="10.428126665591305"><ele>184.0</ele><time>2026-03-29T11:55:50Z</time></trkpt><trkpt lat="45.51478567172327" lon="10.427823059509205"><ele>184.0</ele><time>2026-03-29T11:55:51Z</time></trkpt><trkpt lat="45.51480988243478" lon="10.427542730445898"><ele>184.0</ele><time>2026-03-29T11:55:52Z</time></trkpt><trkpt lat="45.51483333530183" lon="10.427267633193269"><ele>183.33333333333334</ele><time>2026-03-29T11:55:53Z</time></trkpt><trkpt lat="45.51485782776688" lon="10.426980341917771"><ele>182.66666666666666</ele><time>2026-03-29T11:55:54Z</time></trkpt><trkpt lat="45.514883124396505" lon="10.42668361779516"><ele>182.0</ele><time>2026-03-29T11:55:55Z</time></trkpt><trkpt lat="45.51490872469923" lon="10.426386157382872"><ele>182.33333333333331</ele><time>2026-03-29T11:55:56Z</time></trkpt><trkpt lat="45.51493518399899" lon="10.426086468118328"><ele>182.66666666666666</ele><time>2026-03-29T11:55:57Z</time></trkpt><trkpt lat="45.514959933185416" lon="10.425793479341833"><ele>183.0</ele><time>2026-03-29T11:55:58Z</time></trkpt><trkpt lat="45.5149843380033" lon="10.42550129429797"><ele>182.33333333333334</ele><time>2026-03-29T11:55:59Z</time></trkpt><trkpt lat="45.515008750944936" lon="10.42520901200442"><ele>181.66666666666669</ele><time>2026-03-29T11:56:00Z</time></trkpt><trkpt lat="45.51503383597682" lon="10.424908683159538"><ele>181.0</ele><time>2026-03-29T11:56:01Z</time></trkpt><trkpt lat="45.515059891454165" lon="10.424601305211235"><ele>181.0</ele><time>2026-03-29T11:56:02Z</time></trkpt><trkpt lat="45.515086283387696" lon="10.424293724311203"><ele>181.0</ele><time>2026-03-29T11:56:03Z</time></trkpt><trkpt lat="45.515096996638576" lon="10.424008447103132"><ele>181.0</ele><time>2026-03-29T11:56:04Z</time></trkpt><trkpt lat="45.51512022770666" lon="10.42376538330242"><ele>181.0</ele><time>2026-03-29T11:56:05Z</time></trkpt><trkpt lat="45.515139944864174" lon="10.423564964745335"><ele>181.0</ele><time>2026-03-29T11:56:06Z</time></trkpt><trkpt lat="45.51516960472726" lon="10.423389579266642"><ele>181.0</ele><time>2026-03-29T11:56:07Z</time></trkpt><trkpt lat="45.5152234585976" lon="10.423226935149865"><ele>181.0</ele><time>2026-03-29T11:56:08Z</time></trkpt><trkpt lat="45.51530012348349" lon="10.423090446044156"><ele>181.4</ele><time>2026-03-29T11:56:09Z</time></trkpt><trkpt lat="45.51536521417257" lon="10.42295364325619"><ele>181.8</ele><time>2026-03-29T11:56:10Z</time></trkpt><trkpt lat="45.515396324975065" lon="10.422807650450622"><ele>182.20000000000002</ele><time>2026-03-29T11:56:11Z</time></trkpt><trkpt lat="45.51538321866994" lon="10.422659674822583"><ele>182.60000000000002</ele><time>2026-03-29T11:56:12Z</time></trkpt><trkpt lat="45.515317945832585" lon="10.422521100745072"><ele>183.0</ele><time>2026-03-29T11:56:13Z</time></trkpt><trkpt lat="45.51527119846773" lon="10.422372587012392"><ele>183.0</ele><time>2026-03-29T11:56:14Z</time></trkpt><trkpt lat="45.51522725156841" lon="10.422231440586927"><ele>183.0</ele><time>2026-03-29T11:56:15Z</time></trkpt><trkpt lat="45.51518588954815" lon="10.422055215639157"><ele>183.0</ele><time>2026-03-29T11:56:16Z</time></trkpt><trkpt lat="45.515256272755224" lon="10.42176750546358"><ele>183.0</ele><time>2026-03-29T11:56:17Z</time></trkpt><trkpt lat="45.515271366993474" lon="10.421449392938515"><ele>183.0</ele><time>2026-03-29T11:56:18Z</time></trkpt><trkpt lat="45.51528758896819" lon="10.421107513337942"><ele>183.0</ele><time>2026-03-29T11:56:19Z</time></trkpt><trkpt lat="45.51529640796922" lon="10.420748318687275"><ele>183.0</ele><time>2026-03-29T11:56:20Z</time></trkpt><trkpt lat="45.51531863053414" lon="10.420364368293443"><ele>183.0</ele><time>2026-03-29T11:56:21Z</time></trkpt><trkpt lat="45.51533212469494" lon="10.419987025024055"><ele>183.0</ele><time>2026-03-29T11:56:22Z</time></trkpt><trkpt lat="45.51534653258492" lon="10.419650567888748"><ele>183.0</ele><time>2026-03-29T11:56:23Z</time></trkpt><trkpt lat="45.51536415624035" lon="10.419343849332227"><ele>183.0</ele><time>2026-03-29T11:56:24Z</time></trkpt><trkpt lat="45.51537387602236" lon="10.419056515329952"><ele>183.0</ele><time>2026-03-29T11:56:25Z</time></trkpt><trkpt lat="45.51537278087031" lon="10.41874622249418"><ele>183.0</ele><time>2026-03-29T11:56:26Z</time></trkpt><trkpt lat="45.51535367520935" lon="10.418434913023475"><ele>183.0</ele><time>2026-03-29T11:56:27Z</time></trkpt><trkpt lat="45.51530440742454" lon="10.418119345773968"><ele>183.0</ele><time>2026-03-29T11:56:28Z</time></trkpt><trkpt lat="45.515226621915474" lon="10.417817432141128"><ele>182.33333333333334</ele><time>2026-03-29T11:56:29Z</time></trkpt><trkpt lat="45.515133083479334" lon="10.417520528246175"><ele>181.66666666666669</ele><time>2026-03-29T11:56:30Z</time></trkpt><trkpt lat="45.515027044260734" lon="10.417254068365233"><ele>181.0</ele><time>2026-03-29T11:56:31Z</time></trkpt><trkpt lat="45.51490706945254" lon="10.417011121150972"><ele>179.5</ele><time>2026-03-29T11:56:32Z</time></trkpt><trkpt lat="45.514765830663286" lon="10.416765352334798"><ele>178.0</ele><time>2026-03-29T11:56:33Z</time></trkpt><trkpt lat="45.51460155168523" lon="10.41653055603381"><ele>178.0</ele><time>2026-03-29T11:56:34Z</time></trkpt><trkpt lat="45.51443085264128" lon="10.416347726031377"><ele>178.0</ele><time>2026-03-29T11:56:35Z</time></trkpt><trkpt lat="45.514240109639225" lon="10.4161863741047"><ele>178.0</ele><time>2026-03-29T11:56:36Z</time></trkpt><trkpt lat="45.514019145927236" lon="10.416026883772824"><ele>178.0</ele><time>2026-03-29T11:56:37Z</time></trkpt><trkpt lat="45.51377792023011" lon="10.415875505946346"><ele>178.0</ele><time>2026-03-29T11:56:38Z</time></trkpt><trkpt lat="45.51355648172246" lon="10.41574868103738"><ele>178.33333333333334</ele><time>2026-03-29T11:56:39Z</time></trkpt><trkpt lat="45.5133619122885" lon="10.415626834747103"><ele>178.66666666666666</ele><time>2026-03-29T11:56:40Z</time></trkpt><trkpt lat="45.51320440655059" lon="10.415525176831107"><ele>179.0</ele><time>2026-03-29T11:56:41Z</time></trkpt><trkpt lat="45.513076773460284" lon="10.415442932677383"><ele>179.0</ele><time>2026-03-29T11:56:42Z</time></trkpt><trkpt lat="45.512983446304396" lon="10.415382039575212"><ele>179.0</ele><time>2026-03-29T11:56:43Z</time></trkpt><trkpt lat="45.51291169484379" lon="10.415295084219283"><ele>179.0</ele><time>2026-03-29T11:56:45Z</time></trkpt><trkpt lat="45.51295979633838" lon="10.415170853727467"><ele>179.0</ele><time>2026-03-29T11:56:47Z</time></trkpt><trkpt lat="45.51300394682659" lon="10.41508148034667"><ele>179.0</ele><time>2026-03-29T11:56:48Z</time></trkpt><trkpt lat="45.5130639483232" lon="10.414963933999758"><ele>179.0</ele><time>2026-03-29T11:56:49Z</time></trkpt><trkpt lat="45.5131218714902" lon="10.41484748971561"><ele>179.0</ele><time>2026-03-29T11:56:50Z</time></trkpt><trkpt lat="45.513199304157716" lon="10.414795865942066"><ele>179.0</ele><time>2026-03-29T11:56:51Z</time></trkpt><trkpt lat="45.513302779648676" lon="10.414824705635874"><ele>179.0</ele><time>2026-03-29T11:56:52Z</time></trkpt><trkpt lat="45.5134251328401" lon="10.414796284857932"><ele>179.0</ele><time>2026-03-29T11:56:53Z</time></trkpt><trkpt lat="45.51357085014546" lon="10.414749217030801"><ele>179.0</ele><time>2026-03-29T11:56:54Z</time></trkpt><trkpt lat="45.513696253842184" lon="10.414716625531874"><ele>179.0</ele><time>2026-03-29T11:56:55Z</time></trkpt><trkpt lat="45.513774553488865" lon="10.414665492755589"><ele>179.0</ele><time>2026-03-29T11:56:56Z</time></trkpt><trkpt lat="45.513836795230866" lon="10.414639194825273"><ele>179.0</ele><time>2026-03-29T11:56:57Z</time></trkpt><trkpt lat="45.51395494721781" lon="10.414743955707292"><ele>179.0</ele><time>2026-03-29T11:56:59Z</time></trkpt><trkpt lat="45.51405274809322" lon="10.414797957590993"><ele>180.75</ele><time>2026-03-29T11:57:00Z</time></trkpt><trkpt lat="45.51417965015538" lon="10.414840555884854"><ele>182.5</ele><time>2026-03-29T11:57:01Z</time></trkpt><trkpt lat="45.51427855017614" lon="10.414900916165978"><ele>184.25</ele><time>2026-03-29T11:57:02Z</time></trkpt><trkpt lat="45.514392469184" lon="10.414962634358647"><ele>186.0</ele><time>2026-03-29T11:57:03Z</time></trkpt><trkpt lat="45.514497181782644" lon="10.415027172955485"><ele>186.5</ele><time>2026-03-29T11:57:04Z</time></trkpt><trkpt lat="45.51459479536401" lon="10.415095953596165"><ele>187.0</ele><time>2026-03-29T11:57:05Z</time></trkpt><trkpt lat="45.51468416709974" lon="10.415148911891142"><ele>187.5</ele><time>2026-03-29T11:57:06Z</time></trkpt><trkpt lat="45.514773565791906" lon="10.415240406071645"><ele>188.0</ele><time>2026-03-29T11:57:07Z</time></trkpt><trkpt lat="45.51492136454683" lon="10.415271678562068"><ele>188.0</ele><time>2026-03-29T11:57:08Z</time></trkpt><trkpt lat="45.515102728430776" lon="10.415295115008007"><ele>188.0</ele><time>2026-03-29T11:57:09Z</time></trkpt><trkpt lat="45.51527844896962" lon="10.41529628902649"><ele>188.0</ele><time>2026-03-29T11:57:10Z</time></trkpt><trkpt lat="45.51544206372122" lon="10.415284125113358"><ele>189.66666666666666</ele><time>2026-03-29T11:57:11Z</time></trkpt><trkpt lat="45.51560674705196" lon="10.415258971711472"><ele>191.33333333333331</ele><time>2026-03-29T11:57:12Z</time></trkpt><trkpt lat="45.51577375260216" lon="10.415191844124033"><ele>193.0</ele><time>2026-03-29T11:57:13Z</time></trkpt><trkpt lat="45.51597599836745" lon="10.415108044752659"><ele>193.0</ele><time>2026-03-29T11:57:14Z</time></trkpt><trkpt lat="45.516184144656066" lon="10.415015605295146"><ele>193.0</ele><time>2026-03-29T11:57:15Z</time></trkpt><trkpt lat="45.51635068743926" lon="10.414940382748002"><ele>193.0</ele><time>2026-03-29T11:57:16Z</time></trkpt><trkpt lat="45.51650220136607" lon="10.414885738462877"><ele>193.0</ele><time>2026-03-29T11:57:17Z</time></trkpt><trkpt lat="45.51663587799869" lon="10.414832117324329"><ele>193.0</ele><time>2026-03-29T11:57:18Z</time></trkpt><trkpt lat="45.51675620609103" lon="10.414783002838861"><ele>193.0</ele><time>2026-03-29T11:57:19Z</time></trkpt><trkpt lat="45.51687681943651" lon="10.414717948272928"><ele>193.0</ele><time>2026-03-29T11:57:20Z</time></trkpt><trkpt lat="45.51700561377286" lon="10.414696818568732"><ele>193.2</ele><time>2026-03-29T11:57:21Z</time></trkpt><trkpt lat="45.51710188075626" lon="10.414657743666124"><ele>193.4</ele><time>2026-03-29T11:57:22Z</time></trkpt><trkpt lat="45.51718043896964" lon="10.414688860914744"><ele>193.6</ele><time>2026-03-29T11:57:23Z</time></trkpt><trkpt lat="45.517258204259946" lon="10.414696398288363"><ele>193.79999999999998</ele><time>2026-03-29T11:57:25Z</time></trkpt><trkpt lat="45.517276144121645" lon="10.414534783245823"><ele>194.0</ele><time>2026-03-29T11:57:26Z</time></trkpt><trkpt lat="45.51725348586331" lon="10.414351794376657"><ele>194.50000000000003</ele><time>2026-03-29T11:57:28Z</time></trkpt><trkpt lat="45.51724227285632" lon="10.41423717501146"><ele>195.0</ele><time>2026-03-29T11:57:29Z</time></trkpt><trkpt lat="45.517223927576616" lon="10.414108575578409"><ele>195.5</ele><time>2026-03-29T11:57:30Z</time></trkpt><trkpt lat="45.51722553441914" lon="10.413979577337354"><ele>196.0</ele><time>2026-03-29T11:57:31Z</time></trkpt><trkpt lat="45.517218123280145" lon="10.413856239840989"><ele>196.50000000000003</ele><time>2026-03-29T11:57:32Z</time></trkpt><trkpt lat="45.51719773004675" lon="10.413754204359842"><ele>197.0</ele><time>2026-03-29T11:57:33Z</time></trkpt><trkpt lat="45.517240511786966" lon="10.413651934453263"><ele>197.00000000000003</ele><time>2026-03-29T11:57:35Z</time></trkpt><trkpt lat="45.517342661950046" lon="10.413662674417067"><ele>197.0</ele><time>2026-03-29T11:57:38Z</time></trkpt><trkpt lat="45.517408889140285" lon="10.413675994054211"><ele>197.0</ele><time>2026-03-29T11:57:40Z</time></trkpt><trkpt lat="45.51749791279052" lon="10.413692448848378"><ele>197.0</ele><time>2026-03-29T11:57:42Z</time></trkpt><trkpt lat="45.51756812467209" lon="10.413705426542476"><ele>197.00000000000003</ele><time>2026-03-29T11:57:48Z</time></trkpt><trkpt lat="45.517648472910786" lon="10.413720277808327"><ele>197.0</ele><time>2026-03-29T11:57:52Z</time></trkpt><trkpt lat="45.51771284372584" lon="10.413732175863117"><ele>197.0</ele><time>2026-03-29T11:57:55Z</time></trkpt><trkpt lat="45.51771393548944" lon="10.414083900381378"><ele>197.0</ele><time>2026-03-29T11:58:04Z</time></trkpt><trkpt lat="45.517627550745104" lon="10.414078052194233"><ele>197.0</ele><time>2026-03-29T11:58:06Z</time></trkpt><trkpt lat="45.51754941561043" lon="10.414042265616283"><ele>197.0</ele><time>2026-03-29T11:58:09Z</time></trkpt><trkpt lat="45.517555778690735" lon="10.413948106949148"><ele>197.0</ele><time>2026-03-29T11:59:40Z</time></trkpt><trkpt lat="45.517547218263175" lon="10.41384857426545"><ele>197.0</ele><time>2026-03-29T11:59:46Z</time></trkpt><trkpt lat="45.51755891911907" lon="10.41374954219987"><ele>197.0</ele><time>2026-03-29T11:59:53Z</time></trkpt><trkpt lat="45.51754486222035" lon="10.41364757477865"><ele>197.0</ele><time>2026-03-29T11:59:59Z</time></trkpt><trkpt lat="45.51757148897955" lon="10.41355929352865"><ele>197.0</ele><time>2026-03-29T12:00:45Z</time></trkpt><trkpt lat="45.51757982012788" lon="10.413468362165226"><ele>197.0</ele><time>2026-03-29T12:00:52Z</time></trkpt><trkpt lat="45.5176296848356" lon="10.41341008766996"><ele>197.0</ele><time>2026-03-29T12:02:13Z</time></trkpt><trkpt lat="45.517665757115786" lon="10.413491945532318"><ele>197.0</ele><time>2026-03-29T12:03:23Z</time></trkpt><trkpt lat="45.51769580798322" lon="10.41357780211242"><ele>197.0</ele><time>2026-03-29T12:03:37Z</time></trkpt><trkpt lat="45.51764998676878" lon="10.413502076465996"><ele>197.0</ele><time>2026-03-29T12:13:45Z</time></trkpt><trkpt lat="45.517580667314334" lon="10.413489281880686"><ele>197.0</ele><time>2026-03-29T12:13:59Z</time></trkpt><trkpt lat="45.517547600616204" lon="10.413577724316399"><ele>197.0</ele><time>2026-03-29T12:14:07Z</time></trkpt><trkpt lat="45.51759694139783" lon="10.413500195948048"><ele>197.0</ele><time>2026-03-29T12:19:13Z</time></trkpt><trkpt lat="45.517657157148896" lon="10.413465546070446"><ele>197.0</ele><time>2026-03-29T12:19:18Z</time></trkpt><trkpt lat="45.51769193985787" lon="10.413545997264668"><ele>197.00000000000003</ele><time>2026-03-29T12:20:03Z</time></trkpt><trkpt lat="45.517624888479105" lon="10.41350218838049"><ele>197.0</ele><time>2026-03-29T12:20:07Z</time></trkpt><trkpt lat="45.51758541146606" lon="10.413608613061479"><ele>197.0</ele><time>2026-03-29T12:20:15Z</time></trkpt><trkpt lat="45.5175563643772" lon="10.413729628764479"><ele>197.0</ele><time>2026-03-29T12:20:50Z</time></trkpt><trkpt lat="45.517556675164606" lon="10.413829808481792"><ele>197.00000000000003</ele><time>2026-03-29T12:20:54Z</time></trkpt><trkpt lat="45.517579826617286" lon="10.413922680228737"><ele>197.0</ele><time>2026-03-29T12:20:59Z</time></trkpt><trkpt lat="45.5175586316858" lon="10.414031485570256"><ele>197.00000000000003</ele><time>2026-03-29T12:21:06Z</time></trkpt><trkpt lat="45.5174914360223" lon="10.413968585329256"><ele>197.0</ele><time>2026-03-29T12:21:59Z</time></trkpt><trkpt lat="45.517405089116636" lon="10.413964019947224"><ele>197.0</ele><time>2026-03-29T12:22:01Z</time></trkpt><trkpt lat="45.517413433261126" lon="10.414074359546376"><ele>197.0</ele><time>2026-03-29T12:22:06Z</time></trkpt><trkpt lat="45.517484176162625" lon="10.4140625791319"><ele>197.00000000000003</ele><time>2026-03-29T12:22:08Z</time></trkpt><trkpt lat="45.51756110122305" lon="10.414067871930962"><ele>197.0</ele><time>2026-03-29T12:22:10Z</time></trkpt><trkpt lat="45.517625323567835" lon="10.414079939971268"><ele>197.00000000000003</ele><time>2026-03-29T12:22:12Z</time></trkpt><trkpt lat="45.517705044586336" lon="10.4140964083254"><ele>197.0</ele><time>2026-03-29T12:22:14Z</time></trkpt><trkpt lat="45.51777829169774" lon="10.414065901934784"><ele>197.0</ele><time>2026-03-29T12:22:16Z</time></trkpt><trkpt lat="45.51778180038705" lon="10.413942373130507"><ele>197.0</ele><time>2026-03-29T12:22:19Z</time></trkpt><trkpt lat="45.5177253939293" lon="10.413870162014463"><ele>197.00000000000003</ele><time>2026-03-29T12:22:21Z</time></trkpt><trkpt lat="45.51764451312352" lon="10.413833564801656"><ele>197.0</ele><time>2026-03-29T12:22:23Z</time></trkpt><trkpt lat="45.51758834109476" lon="10.413792252681754"><ele>197.0</ele><time>2026-03-29T12:22:26Z</time></trkpt><trkpt lat="45.51753550573221" lon="10.413687118802963"><ele>197.0</ele><time>2026-03-29T12:22:32Z</time></trkpt><trkpt lat="45.51740349640249" lon="10.41364818404969"><ele>197.0</ele><time>2026-03-29T12:22:34Z</time></trkpt><trkpt lat="45.517333217814496" lon="10.413646174701023"><ele>197.0</ele><time>2026-03-29T12:22:35Z</time></trkpt><trkpt lat="45.51725483492442" lon="10.41360881523971"><ele>197.0</ele><time>2026-03-29T12:22:37Z</time></trkpt><trkpt lat="45.517178080420436" lon="10.41369200519712"><ele>197.00000000000003</ele><time>2026-03-29T12:22:39Z</time></trkpt><trkpt lat="45.51717223316231" lon="10.41379322055506"><ele>197.0</ele><time>2026-03-29T12:22:40Z</time></trkpt><trkpt lat="45.51720152134807" lon="10.413920184638249"><ele>197.0</ele><time>2026-03-29T12:22:41Z</time></trkpt><trkpt lat="45.51719718145429" lon="10.41404628769189"><ele>197.0</ele><time>2026-03-29T12:22:42Z</time></trkpt><trkpt lat="45.5172068316082" lon="10.414161120918411"><ele>197.00000000000003</ele><time>2026-03-29T12:22:43Z</time></trkpt><trkpt lat="45.51721844498297" lon="10.414277736812831"><ele>197.0</ele><time>2026-03-29T12:22:44Z</time></trkpt><trkpt lat="45.51724750644515" lon="10.414393811301315"><ele>197.0</ele><time>2026-03-29T12:22:45Z</time></trkpt><trkpt lat="45.51723646623956" lon="10.41450395358632"><ele>197.0</ele><time>2026-03-29T12:22:46Z</time></trkpt><trkpt lat="45.517218902129265" lon="10.414602138844828"><ele>197.0</ele><time>2026-03-29T12:22:48Z</time></trkpt><trkpt lat="45.51719650281764" lon="10.414703827879503"><ele>197.0</ele><time>2026-03-29T12:22:50Z</time></trkpt><trkpt lat="45.51701468685264" lon="10.414647680775493"><ele>197.0</ele><time>2026-03-29T12:22:51Z</time></trkpt><trkpt lat="45.51691696823978" lon="10.414678498338116"><ele>196.33333333333334</ele><time>2026-03-29T12:22:52Z</time></trkpt><trkpt lat="45.51684381279847" lon="10.414703574411172"><ele>195.66666666666669</ele><time>2026-03-29T12:22:53Z</time></trkpt><trkpt lat="45.51678060418463" lon="10.414725240512078"><ele>195.0</ele><time>2026-03-29T12:22:54Z</time></trkpt><trkpt lat="45.51671630752505" lon="10.414752061894367"><ele>194.33333333333331</ele><time>2026-03-29T12:22:55Z</time></trkpt><trkpt lat="45.516570883686654" lon="10.414813854741235"><ele>193.66666666666666</ele><time>2026-03-29T12:22:57Z</time></trkpt><trkpt lat="45.51648761908539" lon="10.414847316448816"><ele>193.0</ele><time>2026-03-29T12:22:58Z</time></trkpt><trkpt lat="45.51640122537167" lon="10.414881029726638"><ele>193.0</ele><time>2026-03-29T12:22:59Z</time></trkpt><trkpt lat="45.51628456655928" lon="10.41492174573556"><ele>193.0</ele><time>2026-03-29T12:23:00Z</time></trkpt><trkpt lat="45.51615714055206" lon="10.414968890311064"><ele>193.0</ele><time>2026-03-29T12:23:01Z</time></trkpt><trkpt lat="45.516034855311005" lon="10.415041591387054"><ele>193.0</ele><time>2026-03-29T12:23:02Z</time></trkpt><trkpt lat="45.51589874955316" lon="10.415088971885645"><ele>193.0</ele><time>2026-03-29T12:23:03Z</time></trkpt><trkpt lat="45.51577903452291" lon="10.415139198433712"><ele>193.0</ele><time>2026-03-29T12:23:04Z</time></trkpt><trkpt lat="45.51566474476203" lon="10.415188092984026"><ele>193.0</ele><time>2026-03-29T12:23:05Z</time></trkpt><trkpt lat="45.515555090966345" lon="10.415220427836058"><ele>193.0</ele><time>2026-03-29T12:23:06Z</time></trkpt><trkpt lat="45.51544691285958" lon="10.415240751435947"><ele>191.75</ele><time>2026-03-29T12:23:07Z</time></trkpt><trkpt lat="45.515339826220206" lon="10.415252763157445"><ele>190.5</ele><time>2026-03-29T12:23:08Z</time></trkpt><trkpt lat="45.51522850509154" lon="10.41524206434575"><ele>189.25</ele><time>2026-03-29T12:23:09Z</time></trkpt><trkpt lat="45.51509574586556" lon="10.415234895510375"><ele>188.0</ele><time>2026-03-29T12:23:10Z</time></trkpt><trkpt lat="45.514944985897266" lon="10.415239325464213"><ele>188.0</ele><time>2026-03-29T12:23:11Z</time></trkpt><trkpt lat="45.51482282767146" lon="10.415202835787886"><ele>188.0</ele><time>2026-03-29T12:23:12Z</time></trkpt><trkpt lat="45.51470709171633" lon="10.415127435805891"><ele>188.0</ele><time>2026-03-29T12:23:13Z</time></trkpt><trkpt lat="45.514590565312396" lon="10.415062971280115"><ele>188.0</ele><time>2026-03-29T12:23:14Z</time></trkpt><trkpt lat="45.514474444166886" lon="10.415002392877827"><ele>187.5</ele><time>2026-03-29T12:23:15Z</time></trkpt><trkpt lat="45.51435286185487" lon="10.41490386623535"><ele>187.0</ele><time>2026-03-29T12:23:16Z</time></trkpt><trkpt lat="45.514201661240556" lon="10.41482579858347"><ele>186.5</ele><time>2026-03-29T12:23:17Z</time></trkpt><trkpt lat="45.5140763986392" lon="10.414758835400768"><ele>186.0</ele><time>2026-03-29T12:23:18Z</time></trkpt><trkpt lat="45.51398303347632" lon="10.414702053416153"><ele>186.0</ele><time>2026-03-29T12:23:19Z</time></trkpt><trkpt lat="45.5139181665125" lon="10.41467982325117"><ele>186.0</ele><time>2026-03-29T12:23:20Z</time></trkpt><trkpt lat="45.51382345030922" lon="10.414624690247699"><ele>186.0</ele><time>2026-03-29T12:23:22Z</time></trkpt><trkpt lat="45.51370050696979" lon="10.41467436407237"><ele>186.0</ele><time>2026-03-29T12:23:24Z</time></trkpt><trkpt lat="45.51358722975601" lon="10.414710059495384"><ele>186.0</ele><time>2026-03-29T12:23:25Z</time></trkpt><trkpt lat="45.513463901479795" lon="10.414739688431931"><ele>184.60000000000002</ele><time>2026-03-29T12:23:26Z</time></trkpt><trkpt lat="45.513336439154976" lon="10.41476824973458"><ele>183.2</ele><time>2026-03-29T12:23:27Z</time></trkpt><trkpt lat="45.51322535894466" lon="10.414812469192682"><ele>181.8</ele><time>2026-03-29T12:23:28Z</time></trkpt><trkpt lat="45.513138836746606" lon="10.414832845458227"><ele>180.39999999999998</ele><time>2026-03-29T12:23:29Z</time></trkpt><trkpt lat="45.51307569371536" lon="10.41488720797986"><ele>179.0</ele><time>2026-03-29T12:23:30Z</time></trkpt><trkpt lat="45.51302518580987" lon="10.41498158086267"><ele>179.0</ele><time>2026-03-29T12:23:31Z</time></trkpt><trkpt lat="45.51296479472338" lon="10.415078442284583"><ele>179.0</ele><time>2026-03-29T12:23:32Z</time></trkpt><trkpt lat="45.51291634102306" lon="10.415179028543845"><ele>179.0</ele><time>2026-03-29T12:23:33Z</time></trkpt><trkpt lat="45.51287211297107" lon="10.415275716710507"><ele>179.0</ele><time>2026-03-29T12:23:35Z</time></trkpt><trkpt lat="45.51299402970201" lon="10.415491062676852"><ele>177.66666666666666</ele><time>2026-03-29T12:23:39Z</time></trkpt><trkpt lat="45.513104111065424" lon="10.41555387553183"><ele>176.33333333333334</ele><time>2026-03-29T12:23:40Z</time></trkpt><trkpt lat="45.51326326056518" lon="10.41563283926522"><ele>175.0</ele><time>2026-03-29T12:23:41Z</time></trkpt><trkpt lat="45.51343835695961" lon="10.415728595041388"><ele>175.0</ele><time>2026-03-29T12:23:42Z</time></trkpt><trkpt lat="45.51361869527364" lon="10.415834281062688"><ele>175.0</ele><time>2026-03-29T12:23:43Z</time></trkpt><trkpt lat="45.51381210229305" lon="10.415953851002232"><ele>175.0</ele><time>2026-03-29T12:23:44Z</time></trkpt><trkpt lat="45.514012525542356" lon="10.416083300746068"><ele>175.0</ele><time>2026-03-29T12:23:45Z</time></trkpt><trkpt lat="45.51419055002955" lon="10.416207749186883"><ele>175.0</ele><time>2026-03-29T12:23:46Z</time></trkpt><trkpt lat="45.51434916186344" lon="10.416343648336584"><ele>175.0</ele><time>2026-03-29T12:23:47Z</time></trkpt><trkpt lat="45.514498475977035" lon="10.416493295817046"><ele>176.0</ele><time>2026-03-29T12:23:48Z</time></trkpt><trkpt lat="45.51464414918234" lon="10.416666896084047"><ele>177.0</ele><time>2026-03-29T12:23:49Z</time></trkpt><trkpt lat="45.5147790875238" lon="10.416864758907264"><ele>178.0</ele><time>2026-03-29T12:23:50Z</time></trkpt><trkpt lat="45.5149041973217" lon="10.417078671236062"><ele>179.0</ele><time>2026-03-29T12:23:51Z</time></trkpt><trkpt lat="45.51502042346959" lon="10.417306792131523"><ele>180.0</ele><time>2026-03-29T12:23:52Z</time></trkpt><trkpt lat="45.515121989042704" lon="10.417553170499822"><ele>181.0</ele><time>2026-03-29T12:23:53Z</time></trkpt><trkpt lat="45.515203883716346" lon="10.417813677537257"><ele>181.66666666666669</ele><time>2026-03-29T12:23:54Z</time></trkpt><trkpt lat="45.51527497553691" lon="10.418091761451233"><ele>182.33333333333334</ele><time>2026-03-29T12:23:55Z</time></trkpt><trkpt lat="45.51530946786212" lon="10.418379813979332"><ele>183.0</ele><time>2026-03-29T12:23:56Z</time></trkpt><trkpt lat="45.515338145596495" lon="10.418672343306177"><ele>183.66666666666666</ele><time>2026-03-29T12:23:57Z</time></trkpt><trkpt lat="45.51534928439306" lon="10.418972645535591"><ele>184.33333333333331</ele><time>2026-03-29T12:23:58Z</time></trkpt><trkpt lat="45.51534116284241" lon="10.419271873082605"><ele>185.0</ele><time>2026-03-29T12:23:59Z</time></trkpt><trkpt lat="45.515326984247835" lon="10.419581186972257"><ele>184.33333333333331</ele><time>2026-03-29T12:24:00Z</time></trkpt><trkpt lat="45.51532539278198" lon="10.419889639341507"><ele>183.66666666666666</ele><time>2026-03-29T12:24:01Z</time></trkpt><trkpt lat="45.515310116016416" lon="10.420200665700003"><ele>183.0</ele><time>2026-03-29T12:24:02Z</time></trkpt><trkpt lat="45.5152945523349" lon="10.420508010247714"><ele>182.66666666666666</ele><time>2026-03-29T12:24:03Z</time></trkpt><trkpt lat="45.51527856092391" lon="10.420796009009432"><ele>182.33333333333331</ele><time>2026-03-29T12:24:04Z</time></trkpt><trkpt lat="45.51526398240592" lon="10.421062051656293"><ele>182.0</ele><time>2026-03-29T12:24:05Z</time></trkpt><trkpt lat="45.515251666346984" lon="10.421300922584376"><ele>182.25</ele><time>2026-03-29T12:24:06Z</time></trkpt><trkpt lat="45.51524111278909" lon="10.421516157636981"><ele>182.5</ele><time>2026-03-29T12:24:07Z</time></trkpt><trkpt lat="45.51523112851698" lon="10.42171303553524"><ele>182.75</ele><time>2026-03-29T12:24:08Z</time></trkpt><trkpt lat="45.51522216471468" lon="10.421888935764638"><ele>183.0</ele><time>2026-03-29T12:24:09Z</time></trkpt><trkpt lat="45.51521549888758" lon="10.422042175089627"><ele>183.0</ele><time>2026-03-29T12:24:10Z</time></trkpt><trkpt lat="45.51520549259923" lon="10.422172502516752"><ele>183.0</ele><time>2026-03-29T12:24:11Z</time></trkpt><trkpt lat="45.515187337767074" lon="10.42228459762326"><ele>183.0</ele><time>2026-03-29T12:24:12Z</time></trkpt><trkpt lat="45.515152939099245" lon="10.42238978622853"><ele>183.0</ele><time>2026-03-29T12:24:13Z</time></trkpt><trkpt lat="45.51510820136075" lon="10.422510465880674"><ele>183.0</ele><time>2026-03-29T12:24:14Z</time></trkpt><trkpt lat="45.515061144253366" lon="10.422637976372942"><ele>183.0</ele><time>2026-03-29T12:24:15Z</time></trkpt><trkpt lat="45.51502311164935" lon="10.422768884745395"><ele>183.0</ele><time>2026-03-29T12:24:16Z</time></trkpt><trkpt lat="45.514999670566375" lon="10.422895547459097"><ele>183.0</ele><time>2026-03-29T12:24:17Z</time></trkpt><trkpt lat="45.51500350559233" lon="10.423020174296662"><ele>183.0</ele><time>2026-03-29T12:24:18Z</time></trkpt><trkpt lat="45.51503816296745" lon="10.423146652101709"><ele>183.0</ele><time>2026-03-29T12:24:19Z</time></trkpt><trkpt lat="45.515079551188805" lon="10.423277119851859"><ele>182.5</ele><time>2026-03-29T12:24:20Z</time></trkpt><trkpt lat="45.515116483537106" lon="10.423441388999121"><ele>182.0</ele><time>2026-03-29T12:24:21Z</time></trkpt><trkpt lat="45.51518677911751" lon="10.423598183570348"><ele>181.5</ele><time>2026-03-29T12:24:22Z</time></trkpt><trkpt lat="45.515094338884374" lon="10.423808992345243"><ele>181.0</ele><time>2026-03-29T12:24:23Z</time></trkpt><trkpt lat="45.51509180381964" lon="10.424005667475493"><ele>181.0</ele><time>2026-03-29T12:24:24Z</time></trkpt><trkpt lat="45.51506489352581" lon="10.424226922837658"><ele>181.0</ele><time>2026-03-29T12:24:25Z</time></trkpt><trkpt lat="45.51504437839688" lon="10.424468163396469"><ele>181.0</ele><time>2026-03-29T12:24:26Z</time></trkpt><trkpt lat="45.51502564600983" lon="10.424729959086527"><ele>181.0</ele><time>2026-03-29T12:24:27Z</time></trkpt><trkpt lat="45.51500055665041" lon="10.425005940696725"><ele>181.0</ele><time>2026-03-29T12:24:28Z</time></trkpt><trkpt lat="45.51498356167328" lon="10.425295427089456"><ele>181.0</ele><time>2026-03-29T12:24:29Z</time></trkpt><trkpt lat="45.51495681326999" lon="10.425588626244386"><ele>181.33333333333334</ele><time>2026-03-29T12:24:30Z</time></trkpt><trkpt lat="45.5149289866307" lon="10.425893570341776"><ele>181.66666666666666</ele><time>2026-03-29T12:24:31Z</time></trkpt><trkpt lat="45.51490024721028" lon="10.426205755170018"><ele>182.0</ele><time>2026-03-29T12:24:32Z</time></trkpt><trkpt lat="45.51487301857379" lon="10.426509907095781"><ele>182.0</ele><time>2026-03-29T12:24:33Z</time></trkpt><trkpt lat="45.51484308152583" lon="10.426813410329077"><ele>182.0</ele><time>2026-03-29T12:24:34Z</time></trkpt><trkpt lat="45.51481298924762" lon="10.427113378039726"><ele>182.0</ele><time>2026-03-29T12:24:35Z</time></trkpt><trkpt lat="45.51478644253562" lon="10.427416523845867"><ele>182.66666666666666</ele><time>2026-03-29T12:24:36Z</time></trkpt><trkpt lat="45.51475852225607" lon="10.427719083761852"><ele>183.33333333333334</ele><time>2026-03-29T12:24:37Z</time></trkpt><trkpt lat="45.514731947471496" lon="10.428020039666208"><ele>184.0</ele><time>2026-03-29T12:24:38Z</time></trkpt><trkpt lat="45.514704651017674" lon="10.428318769539182"><ele>184.0</ele><time>2026-03-29T12:24:39Z</time></trkpt><trkpt lat="45.514679760005656" lon="10.428625309292443"><ele>184.0</ele><time>2026-03-29T12:24:40Z</time></trkpt><trkpt lat="45.514654761521605" lon="10.428934498187493"><ele>184.0</ele><time>2026-03-29T12:24:41Z</time></trkpt><trkpt lat="45.51463165294952" lon="10.429244166211696"><ele>184.0</ele><time>2026-03-29T12:24:42Z</time></trkpt><trkpt lat="45.5146097599082" lon="10.4295624778946"><ele>184.0</ele><time>2026-03-29T12:24:43Z</time></trkpt><trkpt lat="45.5145861758353" lon="10.42988178089347"><ele>184.0</ele><time>2026-03-29T12:24:44Z</time></trkpt><trkpt lat="45.51456098346971" lon="10.430201621613543"><ele>183.0</ele><time>2026-03-29T12:24:45Z</time></trkpt><trkpt lat="45.51453360851575" lon="10.430525237884128"><ele>182.0</ele><time>2026-03-29T12:24:46Z</time></trkpt><trkpt lat="45.51450623853643" lon="10.430845998872337"><ele>182.0</ele><time>2026-03-29T12:24:47Z</time></trkpt><trkpt lat="45.51448272395897" lon="10.431167481469423"><ele>182.0</ele><time>2026-03-29T12:24:48Z</time></trkpt><trkpt lat="45.51446966961723" lon="10.43149611788837"><ele>182.5</ele><time>2026-03-29T12:24:49Z</time></trkpt><trkpt lat="45.51445985783876" lon="10.431825204150192"><ele>183.0</ele><time>2026-03-29T12:24:50Z</time></trkpt><trkpt lat="45.514454726810186" lon="10.432153919759292"><ele>183.5</ele><time>2026-03-29T12:24:51Z</time></trkpt><trkpt lat="45.514457308357606" lon="10.43247984174863"><ele>184.0</ele><time>2026-03-29T12:24:52Z</time></trkpt><trkpt lat="45.514465327121286" lon="10.432804828959494"><ele>184.0</ele><time>2026-03-29T12:24:53Z</time></trkpt><trkpt lat="45.51447685496688" lon="10.433127422905402"><ele>184.0</ele><time>2026-03-29T12:24:54Z</time></trkpt><trkpt lat="45.51449071505772" lon="10.433460484225726"><ele>184.0</ele><time>2026-03-29T12:24:55Z</time></trkpt><trkpt lat="45.5145091475036" lon="10.433788895335788"><ele>184.0</ele><time>2026-03-29T12:24:56Z</time></trkpt><trkpt lat="45.514526603986326" lon="10.434109206815995"><ele>183.0</ele><time>2026-03-29T12:24:57Z</time></trkpt><trkpt lat="45.51453869727191" lon="10.434407714063687"><ele>182.0</ele><time>2026-03-29T12:24:58Z</time></trkpt><trkpt lat="45.51454988608959" lon="10.434697654587028"><ele>181.0</ele><time>2026-03-29T12:24:59Z</time></trkpt><trkpt lat="45.51456377189413" lon="10.434988599744003"><ele>180.66666666666669</ele><time>2026-03-29T12:25:00Z</time></trkpt><trkpt lat="45.514579210897764" lon="10.435271871536003"><ele>180.33333333333334</ele><time>2026-03-29T12:25:01Z</time></trkpt><trkpt lat="45.514589091622966" lon="10.435509262250708"><ele>180.0</ele><time>2026-03-29T12:25:02Z</time></trkpt><trkpt lat="45.51459574373616" lon="10.435711979084694"><ele>179.75</ele><time>2026-03-29T12:25:03Z</time></trkpt><trkpt lat="45.51459387754725" lon="10.435904610225505"><ele>179.5</ele><time>2026-03-29T12:25:04Z</time></trkpt><trkpt lat="45.51458032859378" lon="10.436097696917361"><ele>179.25</ele><time>2026-03-29T12:25:05Z</time></trkpt><trkpt lat="45.51454797631385" lon="10.436244238895696"><ele>179.0</ele><time>2026-03-29T12:25:06Z</time></trkpt><trkpt lat="45.51449379155706" lon="10.436391740047883"><ele>179.5</ele><time>2026-03-29T12:25:07Z</time></trkpt><trkpt lat="45.51442596359155" lon="10.43656410673104"><ele>180.0</ele><time>2026-03-29T12:25:08Z</time></trkpt><trkpt lat="45.51438687790605" lon="10.436746842925297"><ele>180.5</ele><time>2026-03-29T12:25:09Z</time></trkpt><trkpt lat="45.51438754782516" lon="10.436948708130242"><ele>181.0</ele><time>2026-03-29T12:25:10Z</time></trkpt><trkpt lat="45.514407781652444" lon="10.437168981190508"><ele>181.0</ele><time>2026-03-29T12:25:11Z</time></trkpt><trkpt lat="45.514397791510774" lon="10.437390598315176"><ele>181.0</ele><time>2026-03-29T12:25:12Z</time></trkpt><trkpt lat="45.514334650989944" lon="10.437616802664138"><ele>181.0</ele><time>2026-03-29T12:25:13Z</time></trkpt><trkpt lat="45.514270738526406" lon="10.437861494396143"><ele>180.66666666666669</ele><time>2026-03-29T12:25:14Z</time></trkpt><trkpt lat="45.51421513556177" lon="10.438129242961633"><ele>180.33333333333334</ele><time>2026-03-29T12:25:15Z</time></trkpt><trkpt lat="45.51413861683408" lon="10.438397702511134"><ele>180.0</ele><time>2026-03-29T12:25:16Z</time></trkpt><trkpt lat="45.51405955647356" lon="10.43867279135319"><ele>180.0</ele><time>2026-03-29T12:25:17Z</time></trkpt><trkpt lat="45.51397748831469" lon="10.438950444895543"><ele>180.0</ele><time>2026-03-29T12:25:18Z</time></trkpt><trkpt lat="45.5138893790686" lon="10.439219140025783"><ele>180.0</ele><time>2026-03-29T12:25:19Z</time></trkpt><trkpt lat="45.51379628595638" lon="10.439473477030099"><ele>179.33333333333334</ele><time>2026-03-29T12:25:20Z</time></trkpt><trkpt lat="45.513700511591885" lon="10.43972295404535"><ele>178.66666666666669</ele><time>2026-03-29T12:25:21Z</time></trkpt><trkpt lat="45.51360062408495" lon="10.439980343223866"><ele>178.0</ele><time>2026-03-29T12:25:22Z</time></trkpt><trkpt lat="45.513491684267905" lon="10.440231265537307"><ele>178.33333333333334</ele><time>2026-03-29T12:25:23Z</time></trkpt><trkpt lat="45.513378536214795" lon="10.440467115850849"><ele>178.66666666666666</ele><time>2026-03-29T12:25:24Z</time></trkpt><trkpt lat="45.5132730867265" lon="10.440673767981949"><ele>179.0</ele><time>2026-03-29T12:25:25Z</time></trkpt><trkpt lat="45.51315961703883" lon="10.440884407131831"><ele>179.0</ele><time>2026-03-29T12:25:26Z</time></trkpt><trkpt lat="45.51303848799009" lon="10.441098768175886"><ele>179.0</ele><time>2026-03-29T12:25:27Z</time></trkpt><trkpt lat="45.512901187851895" lon="10.441292145176732"><ele>179.0</ele><time>2026-03-29T12:25:28Z</time></trkpt><trkpt lat="45.51277060317245" lon="10.441488542212234"><ele>178.66666666666666</ele><time>2026-03-29T12:25:29Z</time></trkpt><trkpt lat="45.512637534929446" lon="10.441679976315848"><ele>178.33333333333334</ele><time>2026-03-29T12:25:30Z</time></trkpt><trkpt lat="45.51251846079711" lon="10.441849881140906"><ele>178.0</ele><time>2026-03-29T12:25:31Z</time></trkpt><trkpt lat="45.512410601147955" lon="10.442003368661037"><ele>178.25</ele><time>2026-03-29T12:25:32Z</time></trkpt><trkpt lat="45.51231155192262" lon="10.442143528632737"><ele>178.5</ele><time>2026-03-29T12:25:33Z</time></trkpt><trkpt lat="45.512223748615305" lon="10.442294402571145"><ele>178.75</ele><time>2026-03-29T12:25:34Z</time></trkpt><trkpt lat="45.512121801987135" lon="10.442423163910867"><ele>179.0</ele><time>2026-03-29T12:25:35Z</time></trkpt><trkpt lat="45.5120300101906" lon="10.442543500242275"><ele>178.6</ele><time>2026-03-29T12:25:36Z</time></trkpt><trkpt lat="45.511945189486205" lon="10.44264445335263"><ele>178.2</ele><time>2026-03-29T12:25:37Z</time></trkpt><trkpt lat="45.51185812374762" lon="10.442712395833121"><ele>177.79999999999998</ele><time>2026-03-29T12:25:38Z</time></trkpt><trkpt lat="45.51175386127962" lon="10.44275244885673"><ele>177.39999999999998</ele><time>2026-03-29T12:25:39Z</time></trkpt><trkpt lat="45.51163790795181" lon="10.442779879619083"><ele>177.0</ele><time>2026-03-29T12:25:40Z</time></trkpt><trkpt lat="45.51153759357164" lon="10.442831202186708"><ele>177.0</ele><time>2026-03-29T12:25:41Z</time></trkpt><trkpt lat="45.51146270278656" lon="10.442948934080558"><ele>177.0</ele><time>2026-03-29T12:25:42Z</time></trkpt><trkpt lat="45.51140354857265" lon="10.443105287054683"><ele>177.0</ele><time>2026-03-29T12:25:43Z</time></trkpt><trkpt lat="45.51136833304071" lon="10.443288052292745"><ele>177.0</ele><time>2026-03-29T12:25:44Z</time></trkpt><trkpt lat="45.51132825904802" lon="10.443462719037845"><ele>177.0</ele><time>2026-03-29T12:25:45Z</time></trkpt><trkpt lat="45.51127262261133" lon="10.443605154529799"><ele>177.0</ele><time>2026-03-29T12:25:46Z</time></trkpt><trkpt lat="45.51117804938842" lon="10.443724062425996"><ele>177.0</ele><time>2026-03-29T12:25:47Z</time></trkpt><trkpt lat="45.511078102114524" lon="10.443889032401858"><ele>177.0</ele><time>2026-03-29T12:25:48Z</time></trkpt><trkpt lat="45.51095683117743" lon="10.444054365954441"><ele>177.0</ele><time>2026-03-29T12:25:49Z</time></trkpt><trkpt lat="45.510839745008575" lon="10.444228974460795"><ele>177.0</ele><time>2026-03-29T12:25:50Z</time></trkpt><trkpt lat="45.5107306210243" lon="10.444418597700647"><ele>177.0</ele><time>2026-03-29T12:25:51Z</time></trkpt><trkpt lat="45.51062063634883" lon="10.444618424264016"><ele>177.33333333333334</ele><time>2026-03-29T12:25:52Z</time></trkpt><trkpt lat="45.51050994994023" lon="10.444826353009923"><ele>177.66666666666669</ele><time>2026-03-29T12:25:53Z</time></trkpt><trkpt lat="45.51040039024593" lon="10.44504355722978"><ele>178.0</ele><time>2026-03-29T12:25:54Z</time></trkpt><trkpt lat="45.51029639529194" lon="10.445264875442243"><ele>178.0</ele><time>2026-03-29T12:25:55Z</time></trkpt><trkpt lat="45.51019130209834" lon="10.445493073884535"><ele>178.0</ele><time>2026-03-29T12:25:56Z</time></trkpt><trkpt lat="45.51008591005235" lon="10.445723624600625"><ele>178.0</ele><time>2026-03-29T12:25:57Z</time></trkpt><trkpt lat="45.509980963574726" lon="10.445957952391344"><ele>178.0</ele><time>2026-03-29T12:25:58Z</time></trkpt><trkpt lat="45.509878612806475" lon="10.446193897191701"><ele>178.0</ele><time>2026-03-29T12:25:59Z</time></trkpt><trkpt lat="45.50978034091134" lon="10.446416971679387"><ele>178.0</ele><time>2026-03-29T12:26:00Z</time></trkpt><trkpt lat="45.50967844185747" lon="10.446645554581925"><ele>178.0</ele><time>2026-03-29T12:26:01Z</time></trkpt><trkpt lat="45.509575480091584" lon="10.44687701480864"><ele>178.0</ele><time>2026-03-29T12:26:02Z</time></trkpt><trkpt lat="45.50946724883818" lon="10.447122113128975"><ele>178.0</ele><time>2026-03-29T12:26:03Z</time></trkpt><trkpt lat="45.50936281639621" lon="10.447358960139038"><ele>177.66666666666669</ele><time>2026-03-29T12:26:04Z</time></trkpt><trkpt lat="45.509267502576265" lon="10.447607891818274"><ele>177.33333333333334</ele><time>2026-03-29T12:26:05Z</time></trkpt><trkpt lat="45.50913735986369" lon="10.44788280729376"><ele>177.0</ele><time>2026-03-29T12:26:06Z</time></trkpt><trkpt lat="45.508998532592734" lon="10.448201147251856"><ele>177.0</ele><time>2026-03-29T12:26:07Z</time></trkpt><trkpt lat="45.50885993948494" lon="10.448518739030687"><ele>177.0</ele><time>2026-03-29T12:26:08Z</time></trkpt><trkpt lat="45.50871298379311" lon="10.448854382513723"><ele>177.0</ele><time>2026-03-29T12:26:09Z</time></trkpt><trkpt lat="45.5085625122576" lon="10.449205498997864"><ele>177.0</ele><time>2026-03-29T12:26:10Z</time></trkpt><trkpt lat="45.508410300590825" lon="10.449540607272265"><ele>176.5</ele><time>2026-03-29T12:26:11Z</time></trkpt><trkpt lat="45.50826039021888" lon="10.44987383762705"><ele>176.0</ele><time>2026-03-29T12:26:12Z</time></trkpt><trkpt lat="45.508114194283095" lon="10.450201294443977"><ele>176.0</ele><time>2026-03-29T12:26:13Z</time></trkpt><trkpt lat="45.50797816714811" lon="10.45051621627621"><ele>176.0</ele><time>2026-03-29T12:26:14Z</time></trkpt><trkpt lat="45.50785002694501" lon="10.450808250615083"><ele>175.5</ele><time>2026-03-29T12:26:15Z</time></trkpt><trkpt lat="45.50773021353133" lon="10.451082763581311"><ele>175.0</ele><time>2026-03-29T12:26:16Z</time></trkpt><trkpt lat="45.507607193471735" lon="10.45135810976127"><ele>176.0</ele><time>2026-03-29T12:26:17Z</time></trkpt><trkpt lat="45.50747656021891" lon="10.45162775691858"><ele>177.0</ele><time>2026-03-29T12:26:18Z</time></trkpt><trkpt lat="45.507344071865106" lon="10.451879132977199"><ele>177.0</ele><time>2026-03-29T12:26:19Z</time></trkpt><trkpt lat="45.50720790340733" lon="10.452121434480455"><ele>177.0</ele><time>2026-03-29T12:26:20Z</time></trkpt><trkpt lat="45.50706674903906" lon="10.452346348549957"><ele>177.0</ele><time>2026-03-29T12:26:21Z</time></trkpt><trkpt lat="45.50691294157723" lon="10.452557113644955"><ele>177.0</ele><time>2026-03-29T12:26:22Z</time></trkpt><trkpt lat="45.506747417974864" lon="10.452756141681313"><ele>177.0</ele><time>2026-03-29T12:26:23Z</time></trkpt><trkpt lat="45.5065806958279" lon="10.452946275429762"><ele>177.0</ele><time>2026-03-29T12:26:24Z</time></trkpt><trkpt lat="45.50642926130615" lon="10.45310661375103"><ele>176.75</ele><time>2026-03-29T12:26:25Z</time></trkpt><trkpt lat="45.50630534860011" lon="10.45322616124207"><ele>176.5</ele><time>2026-03-29T12:26:26Z</time></trkpt><trkpt lat="45.50619356254915" lon="10.453321051469901"><ele>176.25</ele><time>2026-03-29T12:26:27Z</time></trkpt><trkpt lat="45.50609571932326" lon="10.453376737388579"><ele>176.0</ele><time>2026-03-29T12:26:28Z</time></trkpt><trkpt lat="45.50599361205499" lon="10.453396572366964"><ele>176.0</ele><time>2026-03-29T12:26:29Z</time></trkpt><trkpt lat="45.505888741370576" lon="10.453380490828302"><ele>176.0</ele><time>2026-03-29T12:26:30Z</time></trkpt><trkpt lat="45.50577810320727" lon="10.453351658381811"><ele>176.0</ele><time>2026-03-29T12:26:31Z</time></trkpt><trkpt lat="45.50567413955653" lon="10.453367856226148"><ele>176.0</ele><time>2026-03-29T12:26:32Z</time></trkpt><trkpt lat="45.50558045757649" lon="10.453447372346728"><ele>176.0</ele><time>2026-03-29T12:26:33Z</time></trkpt><trkpt lat="45.505512200493285" lon="10.453569955860038"><ele>176.0</ele><time>2026-03-29T12:26:34Z</time></trkpt><trkpt lat="45.50549038496045" lon="10.453715439611239"><ele>176.0</ele><time>2026-03-29T12:26:35Z</time></trkpt><trkpt lat="45.50550078529651" lon="10.453854286579155"><ele>176.0</ele><time>2026-03-29T12:26:36Z</time></trkpt><trkpt lat="45.50554096599509" lon="10.454011173620444"><ele>176.0</ele><time>2026-03-29T12:26:37Z</time></trkpt><trkpt lat="45.505582011078154" lon="10.454194250285259"><ele>176.33333333333331</ele><time>2026-03-29T12:26:38Z</time></trkpt><trkpt lat="45.50559499949432" lon="10.454409083827157"><ele>176.66666666666666</ele><time>2026-03-29T12:26:39Z</time></trkpt><trkpt lat="45.505587074433635" lon="10.454639323276519"><ele>177.0</ele><time>2026-03-29T12:26:40Z</time></trkpt><trkpt lat="45.50558024170167" lon="10.454875720035165"><ele>177.33333333333334</ele><time>2026-03-29T12:26:41Z</time></trkpt><trkpt lat="45.50558725405012" lon="10.455119019397946"><ele>177.66666666666669</ele><time>2026-03-29T12:26:42Z</time></trkpt><trkpt lat="45.50559373614729" lon="10.455380469280652"><ele>178.0</ele><time>2026-03-29T12:26:43Z</time></trkpt><trkpt lat="45.50560725853681" lon="10.45564305384796"><ele>178.0</ele><time>2026-03-29T12:26:44Z</time></trkpt><trkpt lat="45.50562276043646" lon="10.455904743417006"><ele>178.0</ele><time>2026-03-29T12:26:45Z</time></trkpt><trkpt lat="45.505650103041496" lon="10.456167327466956"><ele>178.0</ele><time>2026-03-29T12:26:46Z</time></trkpt><trkpt lat="45.50567710718797" lon="10.456431642926853"><ele>178.0</ele><time>2026-03-29T12:26:47Z</time></trkpt><trkpt lat="45.505703406391746" lon="10.45670256160637"><ele>178.0</ele><time>2026-03-29T12:26:48Z</time></trkpt><trkpt lat="45.50574108030569" lon="10.45697715294531"><ele>178.0</ele><time>2026-03-29T12:26:49Z</time></trkpt><trkpt lat="45.50576913520068" lon="10.457253096486204"><ele>178.0</ele><time>2026-03-29T12:26:50Z</time></trkpt><trkpt lat="45.505803485667734" lon="10.457529003206346"><ele>178.0</ele><time>2026-03-29T12:26:51Z</time></trkpt><trkpt lat="45.50583925705523" lon="10.457809229265578"><ele>178.0</ele><time>2026-03-29T12:26:52Z</time></trkpt><trkpt lat="45.505869701838655" lon="10.458086729480396"><ele>178.33333333333334</ele><time>2026-03-29T12:26:53Z</time></trkpt><trkpt lat="45.50590154324499" lon="10.458373375231927"><ele>178.66666666666666</ele><time>2026-03-29T12:26:54Z</time></trkpt><trkpt lat="45.50593554994873" lon="10.458659536191956"><ele>179.0</ele><time>2026-03-29T12:26:55Z</time></trkpt><trkpt lat="45.50597481698436" lon="10.458946232057757"><ele>179.33333333333331</ele><time>2026-03-29T12:26:56Z</time></trkpt><trkpt lat="45.50601365267362" lon="10.459215919668791"><ele>179.66666666666666</ele><time>2026-03-29T12:26:57Z</time></trkpt><trkpt lat="45.5060520338724" lon="10.45947749884537"><ele>180.0</ele><time>2026-03-29T12:26:58Z</time></trkpt><trkpt lat="45.506078240459296" lon="10.459728342604599"><ele>180.0</ele><time>2026-03-29T12:26:59Z</time></trkpt><trkpt lat="45.50611752627819" lon="10.459983430297884"><ele>180.0</ele><time>2026-03-29T12:27:00Z</time></trkpt><trkpt lat="45.50616013536948" lon="10.460239058243708"><ele>180.0</ele><time>2026-03-29T12:27:01Z</time></trkpt><trkpt lat="45.50619684439213" lon="10.460502373877185"><ele>180.0</ele><time>2026-03-29T12:27:02Z</time></trkpt><trkpt lat="45.50623415900597" lon="10.460760080199998"><ele>180.0</ele><time>2026-03-29T12:27:03Z</time></trkpt><trkpt lat="45.506274874301006" lon="10.46101823682337"><ele>180.0</ele><time>2026-03-29T12:27:04Z</time></trkpt><trkpt lat="45.50633239130199" lon="10.461265972586862"><ele>180.33333333333334</ele><time>2026-03-29T12:27:05Z</time></trkpt><trkpt lat="45.5063761108904" lon="10.46151659216787"><ele>180.66666666666669</ele><time>2026-03-29T12:27:06Z</time></trkpt><trkpt lat="45.50640620833662" lon="10.46176162871969"><ele>181.0</ele><time>2026-03-29T12:27:07Z</time></trkpt><trkpt lat="45.50644875872845" lon="10.461970056482933"><ele>181.25</ele><time>2026-03-29T12:27:08Z</time></trkpt><trkpt lat="45.50648805712219" lon="10.462162554795952"><ele>181.5</ele><time>2026-03-29T12:27:09Z</time></trkpt><trkpt lat="45.50653495598209" lon="10.462333217241554"><ele>181.75</ele><time>2026-03-29T12:27:10Z</time></trkpt><trkpt lat="45.50656562105522" lon="10.462522813064192"><ele>182.0</ele><time>2026-03-29T12:27:11Z</time></trkpt><trkpt lat="45.506603266430396" lon="10.4627221559006"><ele>182.0</ele><time>2026-03-29T12:27:12Z</time></trkpt><trkpt lat="45.5066343112406" lon="10.462893664402177"><ele>182.0</ele><time>2026-03-29T12:27:13Z</time></trkpt><trkpt lat="45.50666149820259" lon="10.463048788423876"><ele>182.0</ele><time>2026-03-29T12:27:14Z</time></trkpt><trkpt lat="45.50668309867758" lon="10.463189884983786"><ele>182.0</ele><time>2026-03-29T12:27:15Z</time></trkpt><trkpt lat="45.50669327555068" lon="10.463302044735498"><ele>182.0</ele><time>2026-03-29T12:27:16Z</time></trkpt><trkpt lat="45.506699127160736" lon="10.463398858433399"><ele>182.0</ele><time>2026-03-29T12:27:17Z</time></trkpt><trkpt lat="45.506694941173606" lon="10.463510779286446"><ele>182.0</ele><time>2026-03-29T12:27:19Z</time></trkpt><trkpt lat="45.50667775840039" lon="10.463605746163232"><ele>182.0</ele><time>2026-03-29T12:27:22Z</time></trkpt><trkpt lat="45.506595500602664" lon="10.463774141143304"><ele>182.0</ele><time>2026-03-29T12:27:25Z</time></trkpt><trkpt lat="45.5065182989461" lon="10.463863363762604"><ele>182.0</ele><time>2026-03-29T12:27:26Z</time></trkpt><trkpt lat="45.506426895096304" lon="10.463954381244216"><ele>182.0</ele><time>2026-03-29T12:27:27Z</time></trkpt><trkpt lat="45.50629215976227" lon="10.463956011257265"><ele>182.0</ele><time>2026-03-29T12:27:28Z</time></trkpt><trkpt lat="45.50614557595647" lon="10.463990445411145"><ele>182.0</ele><time>2026-03-29T12:27:29Z</time></trkpt><trkpt lat="45.50598042100619" lon="10.464049538402158"><ele>181.33333333333331</ele><time>2026-03-29T12:27:30Z</time></trkpt><trkpt lat="45.50579619002356" lon="10.46407953868079"><ele>180.66666666666666</ele><time>2026-03-29T12:27:31Z</time></trkpt><trkpt lat="45.505608865510474" lon="10.464110421103742"><ele>180.0</ele><time>2026-03-29T12:27:32Z</time></trkpt><trkpt lat="45.505421722686215" lon="10.464151373074538"><ele>180.66666666666666</ele><time>2026-03-29T12:27:33Z</time></trkpt><trkpt lat="45.505221050080706" lon="10.46419539542954"><ele>181.33333333333331</ele><time>2026-03-29T12:27:34Z</time></trkpt><trkpt lat="45.505016541098705" lon="10.464241803013005"><ele>182.0</ele><time>2026-03-29T12:27:35Z</time></trkpt><trkpt lat="45.50480327799698" lon="10.464291479493182"><ele>182.0</ele><time>2026-03-29T12:27:36Z</time></trkpt><trkpt lat="45.50458553199545" lon="10.464341840373402"><ele>182.0</ele><time>2026-03-29T12:27:37Z</time></trkpt><trkpt lat="45.504368398676455" lon="10.464392448824823"><ele>182.0</ele><time>2026-03-29T12:27:38Z</time></trkpt><trkpt lat="45.50415048883431" lon="10.464440415042978"><ele>181.33333333333331</ele><time>2026-03-29T12:27:39Z</time></trkpt><trkpt lat="45.503932571273815" lon="10.464489407209399"><ele>180.66666666666666</ele><time>2026-03-29T12:27:40Z</time></trkpt><trkpt lat="45.503720380851114" lon="10.464538280242921"><ele>180.0</ele><time>2026-03-29T12:27:41Z</time></trkpt><trkpt lat="45.50352004073129" lon="10.464586526299852"><ele>180.33333333333334</ele><time>2026-03-29T12:27:42Z</time></trkpt><trkpt lat="45.50332731700571" lon="10.464629506050969"><ele>180.66666666666669</ele><time>2026-03-29T12:27:43Z</time></trkpt><trkpt lat="45.50313494517655" lon="10.464673355211394"><ele>181.0</ele><time>2026-03-29T12:27:44Z</time></trkpt><trkpt lat="45.50294506390699" lon="10.464716293654257"><ele>181.0</ele><time>2026-03-29T12:27:45Z</time></trkpt><trkpt lat="45.50275154953048" lon="10.464763016288867"><ele>181.0</ele><time>2026-03-29T12:27:46Z</time></trkpt><trkpt lat="45.50255030447549" lon="10.46481571142337"><ele>181.0</ele><time>2026-03-29T12:27:47Z</time></trkpt><trkpt lat="45.50234722712469" lon="10.464838129466735"><ele>181.0</ele><time>2026-03-29T12:27:48Z</time></trkpt><trkpt lat="45.502138259421905" lon="10.46488501666042"><ele>181.0</ele><time>2026-03-29T12:27:49Z</time></trkpt><trkpt lat="45.50192858108636" lon="10.46493361985418"><ele>181.0</ele><time>2026-03-29T12:27:50Z</time></trkpt><trkpt lat="45.501719269713554" lon="10.465002694856857"><ele>181.33333333333334</ele><time>2026-03-29T12:27:51Z</time></trkpt><trkpt lat="45.50149812695483" lon="10.465044327559344"><ele>181.66666666666666</ele><time>2026-03-29T12:27:52Z</time></trkpt><trkpt lat="45.501284693498654" lon="10.465085759835006"><ele>182.0</ele><time>2026-03-29T12:27:53Z</time></trkpt><trkpt lat="45.5010687752065" lon="10.465129258018342"><ele>181.33333333333331</ele><time>2026-03-29T12:27:54Z</time></trkpt><trkpt lat="45.50085530931154" lon="10.465175658720748"><ele>180.66666666666666</ele><time>2026-03-29T12:27:55Z</time></trkpt><trkpt lat="45.500636410662835" lon="10.465226754744393"><ele>180.0</ele><time>2026-03-29T12:27:56Z</time></trkpt><trkpt lat="45.500413354464364" lon="10.465274275036025"><ele>178.5</ele><time>2026-03-29T12:27:57Z</time></trkpt><trkpt lat="45.50019316549655" lon="10.465323812692521"><ele>177.0</ele><time>2026-03-29T12:27:58Z</time></trkpt><trkpt lat="45.499968999492566" lon="10.465375628819057"><ele>177.0</ele><time>2026-03-29T12:27:59Z</time></trkpt><trkpt lat="45.49974046267951" lon="10.46543091534203"><ele>177.0</ele><time>2026-03-29T12:28:00Z</time></trkpt><trkpt lat="45.49951425106238" lon="10.46548325957927"><ele>178.0</ele><time>2026-03-29T12:28:01Z</time></trkpt><trkpt lat="45.49928955849384" lon="10.465531469712435"><ele>179.0</ele><time>2026-03-29T12:28:02Z</time></trkpt><trkpt lat="45.499072777635476" lon="10.465573159627272"><ele>180.0</ele><time>2026-03-29T12:28:03Z</time></trkpt><trkpt lat="45.498854842556824" lon="10.465609409805772"><ele>180.66666666666666</ele><time>2026-03-29T12:28:04Z</time></trkpt><trkpt lat="45.49863272525059" lon="10.465627454126494"><ele>181.33333333333331</ele><time>2026-03-29T12:28:05Z</time></trkpt><trkpt lat="45.498406794788224" lon="10.46561732781994"><ele>182.0</ele><time>2026-03-29T12:28:06Z</time></trkpt><trkpt lat="45.498178548206646" lon="10.465596332526239"><ele>182.0</ele><time>2026-03-29T12:28:07Z</time></trkpt><trkpt lat="45.49794849704458" lon="10.46558007286939"><ele>182.0</ele><time>2026-03-29T12:28:08Z</time></trkpt><trkpt lat="45.49772089282346" lon="10.46556835399969"><ele>181.33333333333331</ele><time>2026-03-29T12:28:09Z</time></trkpt><trkpt lat="45.497509076035456" lon="10.465560453802231"><ele>180.66666666666666</ele><time>2026-03-29T12:28:10Z</time></trkpt><trkpt lat="45.497305065586694" lon="10.465555155195844"><ele>180.0</ele><time>2026-03-29T12:28:11Z</time></trkpt><trkpt lat="45.49709782389613" lon="10.465546189449801"><ele>180.0</ele><time>2026-03-29T12:28:12Z</time></trkpt><trkpt lat="45.49688539427355" lon="10.465535953103156"><ele>180.0</ele><time>2026-03-29T12:28:13Z</time></trkpt><trkpt lat="45.49667172634344" lon="10.465523506051502"><ele>180.0</ele><time>2026-03-29T12:28:14Z</time></trkpt><trkpt lat="45.49646227955367" lon="10.46551167987694"><ele>180.0</ele><time>2026-03-29T12:28:15Z</time></trkpt><trkpt lat="45.49626731660758" lon="10.465500795508209"><ele>180.0</ele><time>2026-03-29T12:28:16Z</time></trkpt><trkpt lat="45.49608048624874" lon="10.46549308395335"><ele>180.0</ele><time>2026-03-29T12:28:17Z</time></trkpt><trkpt lat="45.495890525508024" lon="10.465483315766942"><ele>179.0</ele><time>2026-03-29T12:28:18Z</time></trkpt><trkpt lat="45.49569459019494" lon="10.465476848261893"><ele>178.0</ele><time>2026-03-29T12:28:19Z</time></trkpt><trkpt lat="45.495497946409664" lon="10.46548344926182"><ele>177.0</ele><time>2026-03-29T12:28:20Z</time></trkpt><trkpt lat="45.49530013113072" lon="10.465502327136313"><ele>176.66666666666666</ele><time>2026-03-29T12:28:21Z</time></trkpt><trkpt lat="45.4950976103884" lon="10.465546214392589"><ele>176.33333333333331</ele><time>2026-03-29T12:28:22Z</time></trkpt><trkpt lat="45.49490125885699" lon="10.465601319497866"><ele>176.0</ele><time>2026-03-29T12:28:23Z</time></trkpt><trkpt lat="45.4947090324555" lon="10.465663047060463"><ele>175.66666666666666</ele><time>2026-03-29T12:28:24Z</time></trkpt><trkpt lat="45.494522110425244" lon="10.465714020543349"><ele>175.33333333333334</ele><time>2026-03-29T12:28:25Z</time></trkpt><trkpt lat="45.49434402216248" lon="10.465764281475467"><ele>175.0</ele><time>2026-03-29T12:28:26Z</time></trkpt><trkpt lat="45.494166654923816" lon="10.465815950362307"><ele>175.0</ele><time>2026-03-29T12:28:27Z</time></trkpt><trkpt lat="45.4940101067687" lon="10.465866577536268"><ele>175.0</ele><time>2026-03-29T12:28:28Z</time></trkpt><trkpt lat="45.493855638252626" lon="10.465919942776072"><ele>175.0</ele><time>2026-03-29T12:28:29Z</time></trkpt><trkpt lat="45.49369802552614" lon="10.465982594009505"><ele>174.0</ele><time>2026-03-29T12:28:30Z</time></trkpt><trkpt lat="45.49353921650203" lon="10.466057819618808"><ele>173.0</ele><time>2026-03-29T12:28:31Z</time></trkpt><trkpt lat="45.49337725607605" lon="10.466167599034838"><ele>172.0</ele><time>2026-03-29T12:28:32Z</time></trkpt><trkpt lat="45.493217830038276" lon="10.46630675135339"><ele>172.0</ele><time>2026-03-29T12:28:33Z</time></trkpt><trkpt lat="45.49305903732799" lon="10.466462344455818"><ele>172.0</ele><time>2026-03-29T12:28:34Z</time></trkpt><trkpt lat="45.49290681982482" lon="10.46661380528799"><ele>172.0</ele><time>2026-03-29T12:28:35Z</time></trkpt><trkpt lat="45.492753417941316" lon="10.46676593438774"><ele>171.0</ele><time>2026-03-29T12:28:36Z</time></trkpt><trkpt lat="45.49260988525335" lon="10.466905604294315"><ele>170.0</ele><time>2026-03-29T12:28:37Z</time></trkpt><trkpt lat="45.49246986502316" lon="10.467047070250887"><ele>169.0</ele><time>2026-03-29T12:28:38Z</time></trkpt><trkpt lat="45.492332378894915" lon="10.467190648289673"><ele>169.0</ele><time>2026-03-29T12:28:39Z</time></trkpt><trkpt lat="45.49219660458768" lon="10.467337916361837"><ele>169.0</ele><time>2026-03-29T12:28:40Z</time></trkpt><trkpt lat="45.492070704114056" lon="10.467472359442326"><ele>169.0</ele><time>2026-03-29T12:28:41Z</time></trkpt><trkpt lat="45.49193431962102" lon="10.46760282743986"><ele>169.0</ele><time>2026-03-29T12:28:42Z</time></trkpt><trkpt lat="45.49179435137037" lon="10.467722984146942"><ele>169.0</ele><time>2026-03-29T12:28:43Z</time></trkpt><trkpt lat="45.491648284950294" lon="10.467839796489649"><ele>169.0</ele><time>2026-03-29T12:28:44Z</time></trkpt><trkpt lat="45.49149786013946" lon="10.467948857063362"><ele>170.0</ele><time>2026-03-29T12:28:45Z</time></trkpt><trkpt lat="45.49134373836569" lon="10.468049395777001"><ele>171.0</ele><time>2026-03-29T12:28:46Z</time></trkpt><trkpt lat="45.491183625242634" lon="10.468146629468615"><ele>172.0</ele><time>2026-03-29T12:28:47Z</time></trkpt><trkpt lat="45.49101924836461" lon="10.468238531223625"><ele>172.0</ele><time>2026-03-29T12:28:48Z</time></trkpt><trkpt lat="45.490852530889526" lon="10.46832746240281"><ele>172.0</ele><time>2026-03-29T12:28:49Z</time></trkpt><trkpt lat="45.49069282520269" lon="10.468410655861744"><ele>172.0</ele><time>2026-03-29T12:28:50Z</time></trkpt><trkpt lat="45.49053144707294" lon="10.46849722454024"><ele>172.0</ele><time>2026-03-29T12:28:51Z</time></trkpt><trkpt lat="45.4903838374838" lon="10.468579806329092"><ele>172.0</ele><time>2026-03-29T12:28:52Z</time></trkpt><trkpt lat="45.490247494853435" lon="10.468660744805044"><ele>172.0</ele><time>2026-03-29T12:28:53Z</time></trkpt><trkpt lat="45.49011423354507" lon="10.468740329114143"><ele>172.0</ele><time>2026-03-29T12:28:54Z</time></trkpt><trkpt lat="45.48998614324993" lon="10.46881712477428"><ele>172.0</ele><time>2026-03-29T12:28:55Z</time></trkpt><trkpt lat="45.48986115185329" lon="10.468898734529851"><ele>172.0</ele><time>2026-03-29T12:28:56Z</time></trkpt><trkpt lat="45.489725333271274" lon="10.468988352488463"><ele>172.0</ele><time>2026-03-29T12:28:57Z</time></trkpt><trkpt lat="45.489589977502064" lon="10.469074860646657"><ele>172.0</ele><time>2026-03-29T12:28:58Z</time></trkpt><trkpt lat="45.48945505542664" lon="10.469163398349188"><ele>172.0</ele><time>2026-03-29T12:28:59Z</time></trkpt><trkpt lat="45.489335524739204" lon="10.469239293593075"><ele>172.0</ele><time>2026-03-29T12:29:00Z</time></trkpt><trkpt lat="45.48921402932534" lon="10.469311984533665"><ele>172.0</ele><time>2026-03-29T12:29:01Z</time></trkpt><trkpt lat="45.489085767340356" lon="10.46938244236082"><ele>172.0</ele><time>2026-03-29T12:29:02Z</time></trkpt><trkpt lat="45.48895558826521" lon="10.469452920260279"><ele>172.0</ele><time>2026-03-29T12:29:03Z</time></trkpt><trkpt lat="45.48882892259454" lon="10.46952348507063"><ele>172.0</ele><time>2026-03-29T12:29:04Z</time></trkpt><trkpt lat="45.48870679981894" lon="10.469597705178918"><ele>172.0</ele><time>2026-03-29T12:29:05Z</time></trkpt><trkpt lat="45.48858606015909" lon="10.469673123453411"><ele>173.0</ele><time>2026-03-29T12:29:06Z</time></trkpt><trkpt lat="45.48847763150498" lon="10.46975375697319"><ele>174.0</ele><time>2026-03-29T12:29:07Z</time></trkpt><trkpt lat="45.48837453793133" lon="10.469829941340631"><ele>175.0</ele><time>2026-03-29T12:29:08Z</time></trkpt><trkpt lat="45.488279735574054" lon="10.469914165583049"><ele>176.0</ele><time>2026-03-29T12:29:09Z</time></trkpt><trkpt lat="45.488184513013735" lon="10.470021286884514"><ele>176.0</ele><time>2026-03-29T12:29:10Z</time></trkpt><trkpt lat="45.48809309722886" lon="10.47013833050554"><ele>176.0</ele><time>2026-03-29T12:29:11Z</time></trkpt><trkpt lat="45.48800275163687" lon="10.470267343120135"><ele>176.0</ele><time>2026-03-29T12:29:12Z</time></trkpt><trkpt lat="45.48791650101021" lon="10.47041323335206"><ele>176.0</ele><time>2026-03-29T12:29:13Z</time></trkpt><trkpt lat="45.48783325061279" lon="10.470574177277571"><ele>176.0</ele><time>2026-03-29T12:29:14Z</time></trkpt><trkpt lat="45.487755740605294" lon="10.47073389182409"><ele>176.0</ele><time>2026-03-29T12:29:15Z</time></trkpt><trkpt lat="45.48768977002828" lon="10.470876035811386"><ele>176.0</ele><time>2026-03-29T12:29:16Z</time></trkpt><trkpt lat="45.48762181930416" lon="10.47100759589196"><ele>176.0</ele><time>2026-03-29T12:29:17Z</time></trkpt><trkpt lat="45.487558232656994" lon="10.471125209318169"><ele>176.0</ele><time>2026-03-29T12:29:18Z</time></trkpt><trkpt lat="45.487497708113686" lon="10.471238139806742"><ele>176.0</ele><time>2026-03-29T12:29:19Z</time></trkpt><trkpt lat="45.487440449402285" lon="10.471351716502237"><ele>176.0</ele><time>2026-03-29T12:29:20Z</time></trkpt><trkpt lat="45.48738043351771" lon="10.47147578700332"><ele>176.0</ele><time>2026-03-29T12:29:21Z</time></trkpt><trkpt lat="45.48731536930139" lon="10.471601911022912"><ele>176.0</ele><time>2026-03-29T12:29:22Z</time></trkpt><trkpt lat="45.4872490981104" lon="10.471723069181232"><ele>176.0</ele><time>2026-03-29T12:29:23Z</time></trkpt><trkpt lat="45.48717549893176" lon="10.471839238376042"><ele>176.0</ele><time>2026-03-29T12:29:24Z</time></trkpt><trkpt lat="45.48709701425707" lon="10.471955469395553"><ele>176.0</ele><time>2026-03-29T12:29:25Z</time></trkpt><trkpt lat="45.48702017710058" lon="10.47206706324982"><ele>176.0</ele><time>2026-03-29T12:29:26Z</time></trkpt><trkpt lat="45.486940559957496" lon="10.472169724562708"><ele>176.0</ele><time>2026-03-29T12:29:27Z</time></trkpt><trkpt lat="45.48686476103159" lon="10.472262873086393"><ele>176.66666666666666</ele><time>2026-03-29T12:29:28Z</time></trkpt><trkpt lat="45.486795746905145" lon="10.472354031052344"><ele>177.33333333333331</ele><time>2026-03-29T12:29:29Z</time></trkpt><trkpt lat="45.486731756146845" lon="10.472439156476861"><ele>178.0</ele><time>2026-03-29T12:29:30Z</time></trkpt><trkpt lat="45.48666788170416" lon="10.4725284585246"><ele>178.66666666666666</ele><time>2026-03-29T12:29:31Z</time></trkpt><trkpt lat="45.486606828313" lon="10.472611695146558"><ele>179.33333333333334</ele><time>2026-03-29T12:29:32Z</time></trkpt><trkpt lat="45.48654546523181" lon="10.472691698677409"><ele>180.0</ele><time>2026-03-29T12:29:33Z</time></trkpt><trkpt lat="45.48647738755855" lon="10.472778143329913"><ele>180.0</ele><time>2026-03-29T12:29:34Z</time></trkpt><trkpt lat="45.48640639355698" lon="10.472863660005942"><ele>180.0</ele><time>2026-03-29T12:29:35Z</time></trkpt><trkpt lat="45.48633435710793" lon="10.472919603269682"><ele>180.0</ele><time>2026-03-29T12:29:36Z</time></trkpt><trkpt lat="45.48627585239528" lon="10.472974567705439"><ele>180.0</ele><time>2026-03-29T12:29:37Z</time></trkpt><trkpt lat="45.48622509820316" lon="10.47304849818125"><ele>180.0</ele><time>2026-03-29T12:29:38Z</time></trkpt><trkpt lat="45.48616271402849" lon="10.473074144673676"><ele>180.0</ele><time>2026-03-29T12:29:39Z</time></trkpt><trkpt lat="45.4860755473518" lon="10.473171936665803"><ele>180.66666666666666</ele><time>2026-03-29T12:29:41Z</time></trkpt><trkpt lat="45.48601929472229" lon="10.473214424417225"><ele>181.33333333333334</ele><time>2026-03-29T12:29:42Z</time></trkpt><trkpt lat="45.485959278697116" lon="10.473262591788586"><ele>182.0</ele><time>2026-03-29T12:29:43Z</time></trkpt><trkpt lat="45.48588672335206" lon="10.473323567494058"><ele>182.66666666666669</ele><time>2026-03-29T12:29:44Z</time></trkpt><trkpt lat="45.48580072821999" lon="10.473386787601987"><ele>183.33333333333334</ele><time>2026-03-29T12:29:45Z</time></trkpt><trkpt lat="45.48570022477171" lon="10.473436172999241"><ele>184.0</ele><time>2026-03-29T12:29:46Z</time></trkpt><trkpt lat="45.48560412581816" lon="10.473505205918912"><ele>184.0</ele><time>2026-03-29T12:29:47Z</time></trkpt><trkpt lat="45.485519495520954" lon="10.473563984916423"><ele>184.0</ele><time>2026-03-29T12:29:48Z</time></trkpt><trkpt lat="45.485437066544876" lon="10.47362047485838"><ele>184.0</ele><time>2026-03-29T12:29:49Z</time></trkpt><trkpt lat="45.485364865350526" lon="10.473693365970666"><ele>184.0</ele><time>2026-03-29T12:29:50Z</time></trkpt><trkpt lat="45.485269461003874" lon="10.473725062406999"><ele>184.0</ele><time>2026-03-29T12:29:51Z</time></trkpt><trkpt lat="45.48517797752132" lon="10.473796846164666"><ele>184.25</ele><time>2026-03-29T12:29:52Z</time></trkpt><trkpt lat="45.48507644505022" lon="10.473848139211611"><ele>184.5</ele><time>2026-03-29T12:29:53Z</time></trkpt><trkpt lat="45.484969885741194" lon="10.473905618845306"><ele>184.75</ele><time>2026-03-29T12:29:54Z</time></trkpt><trkpt lat="45.48485468836136" lon="10.473967909825356"><ele>185.0</ele><time>2026-03-29T12:29:55Z</time></trkpt><trkpt lat="45.4847390555093" lon="10.474029504326381"><ele>185.0</ele><time>2026-03-29T12:29:56Z</time></trkpt><trkpt lat="45.48461878769427" lon="10.474092399342164"><ele>185.0</ele><time>2026-03-29T12:29:57Z</time></trkpt><trkpt lat="45.48449920465814" lon="10.474154208918206"><ele>185.0</ele><time>2026-03-29T12:29:58Z</time></trkpt><trkpt lat="45.48437698441583" lon="10.47421718234137"><ele>185.0</ele><time>2026-03-29T12:29:59Z</time></trkpt><trkpt lat="45.48426946586407" lon="10.474269541634264"><ele>185.5</ele><time>2026-03-29T12:30:00Z</time></trkpt><trkpt lat="45.484171568468625" lon="10.474320225784757"><ele>186.0</ele><time>2026-03-29T12:30:01Z</time></trkpt><trkpt lat="45.48406420020714" lon="10.474369352165306"><ele>186.5</ele><time>2026-03-29T12:30:02Z</time></trkpt><trkpt lat="45.48395572965584" lon="10.474433562634433"><ele>187.0</ele><time>2026-03-29T12:30:03Z</time></trkpt><trkpt lat="45.48384767706521" lon="10.474492405664098"><ele>187.0</ele><time>2026-03-29T12:30:04Z</time></trkpt><trkpt lat="45.4837309864457" lon="10.47455321775257"><ele>187.0</ele><time>2026-03-29T12:30:05Z</time></trkpt><trkpt lat="45.48361157660856" lon="10.474615465608233"><ele>187.0</ele><time>2026-03-29T12:30:06Z</time></trkpt><trkpt lat="45.48350076091824" lon="10.474672133694646"><ele>187.0</ele><time>2026-03-29T12:30:07Z</time></trkpt><trkpt lat="45.48338921900636" lon="10.47473117346313"><ele>186.75</ele><time>2026-03-29T12:30:08Z</time></trkpt><trkpt lat="45.48326922135431" lon="10.474793927356018"><ele>186.5</ele><time>2026-03-29T12:30:09Z</time></trkpt><trkpt lat="45.48314322804334" lon="10.474863524319401"><ele>186.25</ele><time>2026-03-29T12:30:10Z</time></trkpt><trkpt lat="45.48301276710889" lon="10.474932406598356"><ele>186.0</ele><time>2026-03-29T12:30:11Z</time></trkpt><trkpt lat="45.482875624275145" lon="10.474994291912203"><ele>187.0</ele><time>2026-03-29T12:30:12Z</time></trkpt><trkpt lat="45.48275267815649" lon="10.475055112669184"><ele>188.0</ele><time>2026-03-29T12:30:13Z</time></trkpt><trkpt lat="45.48264246524912" lon="10.475108858187069"><ele>189.0</ele><time>2026-03-29T12:30:14Z</time></trkpt><trkpt lat="45.48252837831042" lon="10.475170130495306"><ele>190.0</ele><time>2026-03-29T12:30:15Z</time></trkpt><trkpt lat="45.482406047464934" lon="10.475236392829249"><ele>190.0</ele><time>2026-03-29T12:30:16Z</time></trkpt><trkpt lat="45.48227800014873" lon="10.475305438543522"><ele>190.0</ele><time>2026-03-29T12:30:17Z</time></trkpt><trkpt lat="45.48216164314391" lon="10.475368975464944"><ele>190.0</ele><time>2026-03-29T12:30:18Z</time></trkpt><trkpt lat="45.48205533204501" lon="10.475427222318684"><ele>190.0</ele><time>2026-03-29T12:30:19Z</time></trkpt><trkpt lat="45.481938114542714" lon="10.47548709728941"><ele>189.75</ele><time>2026-03-29T12:30:20Z</time></trkpt><trkpt lat="45.481814499645296" lon="10.475548382266124"><ele>189.5</ele><time>2026-03-29T12:30:21Z</time></trkpt><trkpt lat="45.48169288510415" lon="10.475610701979175"><ele>189.25</ele><time>2026-03-29T12:30:22Z</time></trkpt><trkpt lat="45.48156583168922" lon="10.475679248719334"><ele>189.0</ele><time>2026-03-29T12:30:23Z</time></trkpt><trkpt lat="45.48143559719361" lon="10.47574974957535"><ele>189.0</ele><time>2026-03-29T12:30:24Z</time></trkpt><trkpt lat="45.48129300307011" lon="10.475827229192815"><ele>189.0</ele><time>2026-03-29T12:30:25Z</time></trkpt><trkpt lat="45.481142697158184" lon="10.475908986713732"><ele>189.0</ele><time>2026-03-29T12:30:26Z</time></trkpt><trkpt lat="45.48098602775888" lon="10.475991192939787"><ele>189.66666666666666</ele><time>2026-03-29T12:30:27Z</time></trkpt><trkpt lat="45.48082872184971" lon="10.476070327933567"><ele>190.33333333333331</ele><time>2026-03-29T12:30:28Z</time></trkpt><trkpt lat="45.480667689134506" lon="10.476156154581076"><ele>191.0</ele><time>2026-03-29T12:30:29Z</time></trkpt><trkpt lat="45.48051814724391" lon="10.476235212922473"><ele>192.66666666666666</ele><time>2026-03-29T12:30:30Z</time></trkpt><trkpt lat="45.48036945827984" lon="10.47631583544062"><ele>194.33333333333331</ele><time>2026-03-29T12:30:31Z</time></trkpt><trkpt lat="45.480225614480894" lon="10.476393236075873"><ele>196.0</ele><time>2026-03-29T12:30:32Z</time></trkpt><trkpt lat="45.48008779684042" lon="10.476466667607466"><ele>196.0</ele><time>2026-03-29T12:30:33Z</time></trkpt><trkpt lat="45.479955972448984" lon="10.476533139534514"><ele>196.0</ele><time>2026-03-29T12:30:34Z</time></trkpt><trkpt lat="45.47983888938936" lon="10.476590872285438"><ele>196.0</ele><time>2026-03-29T12:30:35Z</time></trkpt><trkpt lat="45.47973011606131" lon="10.476643187211298"><ele>196.0</ele><time>2026-03-29T12:30:36Z</time></trkpt><trkpt lat="45.47963013412104" lon="10.47667542276859"><ele>196.25</ele><time>2026-03-29T12:30:37Z</time></trkpt><trkpt lat="45.47952751050768" lon="10.476692081979191"><ele>196.5</ele><time>2026-03-29T12:30:38Z</time></trkpt><trkpt lat="45.47940795838238" lon="10.47669755143733"><ele>196.75</ele><time>2026-03-29T12:30:39Z</time></trkpt><trkpt lat="45.479274699600936" lon="10.476693046785039"><ele>197.0</ele><time>2026-03-29T12:30:40Z</time></trkpt><trkpt lat="45.47913469031075" lon="10.476678918555344"><ele>197.0</ele><time>2026-03-29T12:30:41Z</time></trkpt><trkpt lat="45.478987577284954" lon="10.476662154125046"><ele>197.0</ele><time>2026-03-29T12:30:42Z</time></trkpt><trkpt lat="45.478836664049325" lon="10.476641123533055"><ele>197.0</ele><time>2026-03-29T12:30:43Z</time></trkpt><trkpt lat="45.47868250412712" lon="10.476619352811115"><ele>197.0</ele><time>2026-03-29T12:30:44Z</time></trkpt><trkpt lat="45.478524998022046" lon="10.47659535801628"><ele>197.0</ele><time>2026-03-29T12:30:45Z</time></trkpt><trkpt lat="45.47836696507838" lon="10.476573850511615"><ele>197.0</ele><time>2026-03-29T12:30:46Z</time></trkpt><trkpt lat="45.47821633447929" lon="10.476559276780494"><ele>197.0</ele><time>2026-03-29T12:30:47Z</time></trkpt><trkpt lat="45.47806145423264" lon="10.476549747290886"><ele>197.0</ele><time>2026-03-29T12:30:48Z</time></trkpt><trkpt lat="45.47790690058918" lon="10.476549150214689"><ele>197.0</ele><time>2026-03-29T12:30:49Z</time></trkpt><trkpt lat="45.47774172769606" lon="10.476571992924983"><ele>197.33333333333334</ele><time>2026-03-29T12:30:50Z</time></trkpt><trkpt lat="45.47758492356881" lon="10.476623555327338"><ele>197.66666666666669</ele><time>2026-03-29T12:30:51Z</time></trkpt><trkpt lat="45.4774369066678" lon="10.476699763728636"><ele>198.0</ele><time>2026-03-29T12:30:52Z</time></trkpt><trkpt lat="45.47727286391919" lon="10.47678330419648"><ele>198.0</ele><time>2026-03-29T12:30:53Z</time></trkpt><trkpt lat="45.477107257720924" lon="10.476869357555104"><ele>198.0</ele><time>2026-03-29T12:30:54Z</time></trkpt><trkpt lat="45.47693816328648" lon="10.476956469594201"><ele>198.0</ele><time>2026-03-29T12:30:55Z</time></trkpt><trkpt lat="45.4767797161634" lon="10.477040726149419"><ele>199.66666666666669</ele><time>2026-03-29T12:30:56Z</time></trkpt><trkpt lat="45.476629882414315" lon="10.477112961859495"><ele>201.33333333333334</ele><time>2026-03-29T12:30:57Z</time></trkpt><trkpt lat="45.47648154454332" lon="10.477183843416823"><ele>203.0</ele><time>2026-03-29T12:30:58Z</time></trkpt><trkpt lat="45.476329472304585" lon="10.477265611047152"><ele>202.33333333333334</ele><time>2026-03-29T12:30:59Z</time></trkpt><trkpt lat="45.47618511707222" lon="10.477348686748082"><ele>201.66666666666669</ele><time>2026-03-29T12:31:00Z</time></trkpt><trkpt lat="45.476045195050204" lon="10.477456634836065"><ele>201.0</ele><time>2026-03-29T12:31:01Z</time></trkpt><trkpt lat="45.47591279897106" lon="10.477571781057462"><ele>201.0</ele><time>2026-03-29T12:31:02Z</time></trkpt><trkpt lat="45.47578068098779" lon="10.477694587782395"><ele>201.0</ele><time>2026-03-29T12:31:03Z</time></trkpt><trkpt lat="45.475663052812784" lon="10.47780458735466"><ele>201.0</ele><time>2026-03-29T12:31:04Z</time></trkpt><trkpt lat="45.475559321764706" lon="10.477912919294456"><ele>201.0</ele><time>2026-03-29T12:31:05Z</time></trkpt><trkpt lat="45.47544240474112" lon="10.478016515690223"><ele>200.25</ele><time>2026-03-29T12:31:06Z</time></trkpt><trkpt lat="45.47532018772176" lon="10.478102827123207"><ele>199.5</ele><time>2026-03-29T12:31:07Z</time></trkpt><trkpt lat="45.475195692466826" lon="10.478164713326484"><ele>198.75</ele><time>2026-03-29T12:31:08Z</time></trkpt><trkpt lat="45.47507447027467" lon="10.478203665274664"><ele>198.0</ele><time>2026-03-29T12:31:09Z</time></trkpt><trkpt lat="45.474967826653014" lon="10.478211551935216"><ele>198.0</ele><time>2026-03-29T12:31:10Z</time></trkpt><trkpt lat="45.47487409810944" lon="10.478183335100269"><ele>198.0</ele><time>2026-03-29T12:31:11Z</time></trkpt><trkpt lat="45.47479403236055" lon="10.478137400824101"><ele>198.0</ele><time>2026-03-29T12:31:12Z</time></trkpt><trkpt lat="45.47472583834259" lon="10.478154852401516"><ele>198.0</ele><time>2026-03-29T12:31:13Z</time></trkpt><trkpt lat="45.47465480812833" lon="10.477967873357736"><ele>198.0</ele><time>2026-03-29T12:31:14Z</time></trkpt><trkpt lat="45.47460488395633" lon="10.477842183285869"><ele>197.75</ele><time>2026-03-29T12:31:15Z</time></trkpt><trkpt lat="45.474571150463994" lon="10.477713351261821"><ele>197.5</ele><time>2026-03-29T12:31:16Z</time></trkpt><trkpt lat="45.47461986295752" lon="10.477525358595344"><ele>197.25</ele><time>2026-03-29T12:31:17Z</time></trkpt><trkpt lat="45.474628521435605" lon="10.47732780175873"><ele>197.0</ele><time>2026-03-29T12:31:18Z</time></trkpt><trkpt lat="45.47466678030797" lon="10.477112002026827"><ele>196.33333333333334</ele><time>2026-03-29T12:31:19Z</time></trkpt><trkpt lat="45.47469140100571" lon="10.476890500853438"><ele>195.66666666666669</ele><time>2026-03-29T12:31:20Z</time></trkpt><trkpt lat="45.47471330245925" lon="10.476648216377763"><ele>195.0</ele><time>2026-03-29T12:31:21Z</time></trkpt><trkpt lat="45.474732415521544" lon="10.476401458939542"><ele>194.33333333333331</ele><time>2026-03-29T12:31:22Z</time></trkpt><trkpt lat="45.47474998554424" lon="10.476151437612133"><ele>193.66666666666666</ele><time>2026-03-29T12:31:23Z</time></trkpt><trkpt lat="45.47474420827827" lon="10.475908415528652"><ele>193.0</ele><time>2026-03-29T12:31:24Z</time></trkpt><trkpt lat="45.47472261493446" lon="10.475655515109183"><ele>192.0</ele><time>2026-03-29T12:31:25Z</time></trkpt><trkpt lat="45.47468775121688" lon="10.475417469516133"><ele>191.0</ele><time>2026-03-29T12:31:26Z</time></trkpt><trkpt lat="45.47464649447578" lon="10.475178158898856"><ele>190.0</ele><time>2026-03-29T12:31:27Z</time></trkpt><trkpt lat="45.47460751994386" lon="10.474941785162091"><ele>189.33333333333334</ele><time>2026-03-29T12:31:28Z</time></trkpt><trkpt lat="45.47456764772058" lon="10.474710477248188"><ele>188.66666666666666</ele><time>2026-03-29T12:31:29Z</time></trkpt><trkpt lat="45.47452267678263" lon="10.474470473772735"><ele>188.0</ele><time>2026-03-29T12:31:30Z</time></trkpt><trkpt lat="45.47448066950272" lon="10.474238120061955"><ele>187.0</ele><time>2026-03-29T12:31:31Z</time></trkpt><trkpt lat="45.47443438221418" lon="10.474004014460478"><ele>186.0</ele><time>2026-03-29T12:31:32Z</time></trkpt><trkpt lat="45.474377943678455" lon="10.473776454217315"><ele>185.0</ele><time>2026-03-29T12:31:33Z</time></trkpt><trkpt lat="45.47431052793629" lon="10.473547866386074"><ele>184.0</ele><time>2026-03-29T12:31:34Z</time></trkpt><trkpt lat="45.474244522794685" lon="10.473328080642101"><ele>183.0</ele><time>2026-03-29T12:31:35Z</time></trkpt><trkpt lat="45.474182474579074" lon="10.47310954289057"><ele>182.0</ele><time>2026-03-29T12:31:36Z</time></trkpt><trkpt lat="45.474124239636325" lon="10.472898966744388"><ele>181.75</ele><time>2026-03-29T12:31:37Z</time></trkpt><trkpt lat="45.474075549567765" lon="10.472715612011937"><ele>181.5</ele><time>2026-03-29T12:31:38Z</time></trkpt><trkpt lat="45.47403721579912" lon="10.472534204472652"><ele>181.25</ele><time>2026-03-29T12:31:39Z</time></trkpt><trkpt lat="45.474000531947325" lon="10.472338673761024"><ele>181.0</ele><time>2026-03-29T12:31:40Z</time></trkpt><trkpt lat="45.473973856349886" lon="10.472127106641837"><ele>179.66666666666669</ele><time>2026-03-29T12:31:41Z</time></trkpt><trkpt lat="45.47395429918363" lon="10.471895004544228"><ele>178.33333333333334</ele><time>2026-03-29T12:31:42Z</time></trkpt><trkpt lat="45.473941112069646" lon="10.4716581002692"><ele>177.0</ele><time>2026-03-29T12:31:43Z</time></trkpt><trkpt lat="45.473930734461895" lon="10.471423543540602"><ele>175.75</ele><time>2026-03-29T12:31:44Z</time></trkpt><trkpt lat="45.47392148796467" lon="10.471208307692933"><ele>174.5</ele><time>2026-03-29T12:31:45Z</time></trkpt><trkpt lat="45.47391765779143" lon="10.47100125350367"><ele>173.25</ele><time>2026-03-29T12:31:46Z</time></trkpt><trkpt lat="45.473913687183604" lon="10.47080465872643"><ele>172.0</ele><time>2026-03-29T12:31:47Z</time></trkpt><trkpt lat="45.47391012705169" lon="10.470607897172746"><ele>170.5</ele><time>2026-03-29T12:31:48Z</time></trkpt><trkpt lat="45.473904915132636" lon="10.470418326917335"><ele>169.0</ele><time>2026-03-29T12:31:49Z</time></trkpt><trkpt lat="45.47389958409754" lon="10.47023392921302"><ele>167.5</ele><time>2026-03-29T12:31:50Z</time></trkpt><trkpt lat="45.4738935931643" lon="10.470040015244981"><ele>166.0</ele><time>2026-03-29T12:31:51Z</time></trkpt><trkpt lat="45.47389020605821" lon="10.469855695195925"><ele>166.0</ele><time>2026-03-29T12:31:52Z</time></trkpt><trkpt lat="45.47388616985503" lon="10.469679523061"><ele>166.0</ele><time>2026-03-29T12:31:53Z</time></trkpt><trkpt lat="45.47389123861417" lon="10.469532048889269"><ele>166.0</ele><time>2026-03-29T12:31:54Z</time></trkpt><trkpt lat="45.47391714506524" lon="10.46941269169592"><ele>166.0</ele><time>2026-03-29T12:31:55Z</time></trkpt><trkpt lat="45.473970625852026" lon="10.469315671643434"><ele>166.0</ele><time>2026-03-29T12:31:56Z</time></trkpt><trkpt lat="45.47404315702927" lon="10.469244026131483"><ele>165.60000000000002</ele><time>2026-03-29T12:31:57Z</time></trkpt><trkpt lat="45.474129577105" lon="10.469208749377318"><ele>165.2</ele><time>2026-03-29T12:31:58Z</time></trkpt><trkpt lat="45.47422623261915" lon="10.469214162370365"><ele>164.8</ele><time>2026-03-29T12:31:59Z</time></trkpt><trkpt lat="45.47432017634115" lon="10.469258876230182"><ele>164.39999999999998</ele><time>2026-03-29T12:32:00Z</time></trkpt><trkpt lat="45.47439653571939" lon="10.469341562943688"><ele>164.0</ele><time>2026-03-29T12:32:01Z</time></trkpt><trkpt lat="45.474453483302035" lon="10.469455453134731"><ele>164.0</ele><time>2026-03-29T12:32:02Z</time></trkpt><trkpt lat="45.47449267947994" lon="10.469605308320633"><ele>164.0</ele><time>2026-03-29T12:32:03Z</time></trkpt><trkpt lat="45.47452042909099" lon="10.469797916389453"><ele>164.0</ele><time>2026-03-29T12:32:04Z</time></trkpt><trkpt lat="45.47455106222808" lon="10.470024266431682"><ele>164.0</ele><time>2026-03-29T12:32:05Z</time></trkpt><trkpt lat="45.474586221482944" lon="10.47029377843443"><ele>166.0</ele><time>2026-03-29T12:32:06Z</time></trkpt><trkpt lat="45.47462158002452" lon="10.470570239126685"><ele>168.0</ele><time>2026-03-29T12:32:07Z</time></trkpt><trkpt lat="45.47465349258325" lon="10.470875418966825"><ele>170.0</ele><time>2026-03-29T12:32:08Z</time></trkpt><trkpt lat="45.47468532443683" lon="10.471191290473529"><ele>172.66666666666666</ele><time>2026-03-29T12:32:09Z</time></trkpt><trkpt lat="45.47471744534998" lon="10.471499543195863"><ele>175.33333333333334</ele><time>2026-03-29T12:32:10Z</time></trkpt><trkpt lat="45.47474503411119" lon="10.471794286845807"><ele>178.0</ele><time>2026-03-29T12:32:11Z</time></trkpt><trkpt lat="45.47477336719557" lon="10.472078262969838"><ele>180.33333333333334</ele><time>2026-03-29T12:32:12Z</time></trkpt><trkpt lat="45.47480191710411" lon="10.472364412522474"><ele>182.66666666666666</ele><time>2026-03-29T12:32:13.019Z</time></trkpt><trkpt lat="45.474831598017275" lon="10.472647910890684"><ele>185.0</ele><time>2026-03-29T12:32:14.016Z</time></trkpt><trkpt lat="45.47486226571687" lon="10.472935489462644"><ele>186.0</ele><time>2026-03-29T12:32:15.015Z</time></trkpt><trkpt lat="45.47489381742242" lon="10.473232227965898"><ele>187.0</ele><time>2026-03-29T12:32:16.019Z</time></trkpt><trkpt lat="45.47492447966612" lon="10.473532992309423"><ele>188.0</ele><time>2026-03-29T12:32:17.019Z</time></trkpt><trkpt lat="45.47494924225657" lon="10.473821543919275"><ele>193.0</ele><time>2026-03-29T12:32:18.02Z</time></trkpt><trkpt lat="45.47495853463872" lon="10.476039623362006"><ele>194.0</ele><time>2026-03-29T12:32:21.509Z</time></trkpt><trkpt lat="45.47487738076288" lon="10.476667300167446"><ele>195.0</ele><time>2026-03-29T12:32:22.508Z</time></trkpt><trkpt lat="45.47478283454745" lon="10.477291522354962"><ele>196.0</ele><time>2026-03-29T12:32:23.506Z</time></trkpt><trkpt lat="45.47468248358516" lon="10.477916140881211"><ele>197.0</ele><time>2026-03-29T12:32:24.508Z</time></trkpt><trkpt lat="45.470918705729275" lon="10.491528874272937"><ele>185.75</ele><time>2026-03-29T12:33:52.999Z</time></trkpt><trkpt lat="45.47081177400405" lon="10.491668327730304"><ele>174.5</ele><time>2026-03-29T12:33:53.999Z</time></trkpt><trkpt lat="45.47069476247027" lon="10.491813501457397"><ele>163.25</ele><time>2026-03-29T12:33:54.999Z</time></trkpt><trkpt lat="45.4705940568146" lon="10.49194865808245"><ele>152.0</ele><time>2026-03-29T12:33:55.999Z</time></trkpt><trkpt lat="45.47050063380793" lon="10.49207561448339"><ele>151.75</ele><time>2026-03-29T12:33:56.999Z</time></trkpt><trkpt lat="45.47041139760463" lon="10.492196144704316"><ele>151.5</ele><time>2026-03-29T12:33:57.999Z</time></trkpt><trkpt lat="45.4703231895119" lon="10.492316151403225"><ele>151.25</ele><time>2026-03-29T12:33:59Z</time></trkpt><trkpt lat="45.47023960857354" lon="10.492428163061321"><ele>151.0</ele><time>2026-03-29T12:34:00Z</time></trkpt><trkpt lat="45.47014921897647" lon="10.492543530072394"><ele>151.0</ele><time>2026-03-29T12:34:01Z</time></trkpt><trkpt lat="45.47005012088764" lon="10.492666617643515"><ele>151.0</ele><time>2026-03-29T12:34:02Z</time></trkpt><trkpt lat="45.46994254208887" lon="10.492800321596045"><ele>151.0</ele><time>2026-03-29T12:34:03Z</time></trkpt><trkpt lat="45.469829186037295" lon="10.492940568329907"><ele>151.0</ele><time>2026-03-29T12:34:04Z</time></trkpt><trkpt lat="45.46972143052766" lon="10.493074648829154"><ele>151.25</ele><time>2026-03-29T12:34:05Z</time></trkpt><trkpt lat="45.46962451863774" lon="10.493186356058459"><ele>151.5</ele><time>2026-03-29T12:34:06Z</time></trkpt><trkpt lat="45.469546571074865" lon="10.493265911446684"><ele>151.75</ele><time>2026-03-29T12:34:07Z</time></trkpt><trkpt lat="45.46946632706772" lon="10.493301752970195"><ele>152.0</ele><time>2026-03-29T12:34:08Z</time></trkpt><trkpt lat="45.46928888918066" lon="10.493216696947568"><ele>152.0</ele><time>2026-03-29T12:34:10Z</time></trkpt><trkpt lat="45.46921192424257" lon="10.493120233956407"><ele>152.0</ele><time>2026-03-29T12:34:11Z</time></trkpt><trkpt lat="45.469166811342276" lon="10.492998151147637"><ele>152.0</ele><time>2026-03-29T12:34:12Z</time></trkpt><trkpt lat="45.469152513891906" lon="10.4928420070333"><ele>152.0</ele><time>2026-03-29T12:34:13Z</time></trkpt><trkpt lat="45.46911412216125" lon="10.492683782421771"><ele>152.0</ele><time>2026-03-29T12:34:14Z</time></trkpt><trkpt lat="45.46919805359531" lon="10.492473790850747"><ele>152.33333333333331</ele><time>2026-03-29T12:34:15Z</time></trkpt><trkpt lat="45.469239756900066" lon="10.492264096911363"><ele>152.66666666666666</ele><time>2026-03-29T12:34:16Z</time></trkpt><trkpt lat="45.46927419296392" lon="10.492026120460777"><ele>153.0</ele><time>2026-03-29T12:34:17Z</time></trkpt><trkpt lat="45.46928895440957" lon="10.491786263264142"><ele>154.0</ele><time>2026-03-29T12:34:18Z</time></trkpt><trkpt lat="45.469284507606" lon="10.491535324789867"><ele>155.0</ele><time>2026-03-29T12:34:19Z</time></trkpt><trkpt lat="45.46926053503248" lon="10.49128453172888"><ele>156.0</ele><time>2026-03-29T12:34:20Z</time></trkpt><trkpt lat="45.4692325574269" lon="10.4910404290559"><ele>156.6</ele><time>2026-03-29T12:34:21Z</time></trkpt><trkpt lat="45.4692129861218" lon="10.490831069639839"><ele>157.2</ele><time>2026-03-29T12:34:22Z</time></trkpt><trkpt lat="45.46920387753246" lon="10.490666406662719"><ele>157.8</ele><time>2026-03-29T12:34:23Z</time></trkpt><trkpt lat="45.46920121136546" lon="10.490531626776638"><ele>158.4</ele><time>2026-03-29T12:34:24Z</time></trkpt><trkpt lat="45.469209877897754" lon="10.49044192892349"><ele>159.0</ele><time>2026-03-29T12:34:25Z</time></trkpt><trkpt lat="45.469216496006744" lon="10.490277053744409"><ele>159.4</ele><time>2026-03-29T12:34:27Z</time></trkpt><trkpt lat="45.46923398530428" lon="10.490159789076396"><ele>159.8</ele><time>2026-03-29T12:34:29Z</time></trkpt><trkpt lat="45.469227013123415" lon="10.490062348394732"><ele>160.20000000000002</ele><time>2026-03-29T12:34:35Z</time></trkpt><trkpt lat="45.469097311061" lon="10.489993105329972"><ele>160.60000000000002</ele><time>2026-03-29T12:34:36Z</time></trkpt><trkpt lat="45.468973028596636" lon="10.489955821497167"><ele>161.0</ele><time>2026-03-29T12:34:37Z</time></trkpt><trkpt lat="45.46883349482587" lon="10.489910985289537"><ele>162.33333333333331</ele><time>2026-03-29T12:34:38Z</time></trkpt><trkpt lat="45.46868717627167" lon="10.489855474408452"><ele>163.66666666666666</ele><time>2026-03-29T12:34:39Z</time></trkpt><trkpt lat="45.46852776709462" lon="10.489782477311538"><ele>165.0</ele><time>2026-03-29T12:34:40Z</time></trkpt><trkpt lat="45.46836223302249" lon="10.489710537835755"><ele>165.0</ele><time>2026-03-29T12:34:41Z</time></trkpt><trkpt lat="45.46819920979288" lon="10.489641014699936"><ele>165.0</ele><time>2026-03-29T12:34:42Z</time></trkpt><trkpt lat="45.46803818465218" lon="10.489569707438392"><ele>165.0</ele><time>2026-03-29T12:34:43Z</time></trkpt><trkpt lat="45.467879663009434" lon="10.489497317542183"><ele>166.0</ele><time>2026-03-29T12:34:44Z</time></trkpt><trkpt lat="45.46771722689448" lon="10.489426749909235"><ele>167.0</ele><time>2026-03-29T12:34:45Z</time></trkpt><trkpt lat="45.46754922209498" lon="10.489358363295782"><ele>168.0</ele><time>2026-03-29T12:34:46Z</time></trkpt><trkpt lat="45.467385920305226" lon="10.489293319067862"><ele>168.0</ele><time>2026-03-29T12:34:47Z</time></trkpt><trkpt lat="45.46722039506669" lon="10.489234012668483"><ele>168.0</ele><time>2026-03-29T12:34:48Z</time></trkpt><trkpt lat="45.46705700865491" lon="10.48918040747402"><ele>168.0</ele><time>2026-03-29T12:34:49Z</time></trkpt><trkpt lat="45.466886024910906" lon="10.48913146707628"><ele>167.33333333333334</ele><time>2026-03-29T12:34:50Z</time></trkpt><trkpt lat="45.46670544784603" lon="10.489082099636006"><ele>166.66666666666669</ele><time>2026-03-29T12:34:51Z</time></trkpt><trkpt lat="45.46651612768237" lon="10.489032732318819"><ele>166.0</ele><time>2026-03-29T12:34:52Z</time></trkpt><trkpt lat="45.4663300481054" lon="10.48899148723348"><ele>163.66666666666669</ele><time>2026-03-29T12:34:53Z</time></trkpt><trkpt lat="45.466142433120744" lon="10.488955614750717"><ele>161.33333333333334</ele><time>2026-03-29T12:34:54Z</time></trkpt><trkpt lat="45.465952532600646" lon="10.488895046742519"><ele>159.0</ele><time>2026-03-29T12:34:55Z</time></trkpt><trkpt lat="45.46575793949697" lon="10.488852579136003"><ele>159.0</ele><time>2026-03-29T12:34:56Z</time></trkpt><trkpt lat="45.4655623297251" lon="10.488836269906976"><ele>159.0</ele><time>2026-03-29T12:34:57Z</time></trkpt><trkpt lat="45.465363685551516" lon="10.48879421044881"><ele>159.0</ele><time>2026-03-29T12:34:58Z</time></trkpt><trkpt lat="45.465170609123504" lon="10.48877121550427"><ele>161.0</ele><time>2026-03-29T12:34:59Z</time></trkpt><trkpt lat="45.464976314844165" lon="10.488781722834135"><ele>163.0</ele><time>2026-03-29T12:35:00Z</time></trkpt><trkpt lat="45.46478558267965" lon="10.488818110897734"><ele>165.0</ele><time>2026-03-29T12:35:01Z</time></trkpt><trkpt lat="45.46459990079876" lon="10.488877376236019"><ele>166.0</ele><time>2026-03-29T12:35:02Z</time></trkpt><trkpt lat="45.4644223105626" lon="10.488956300157438"><ele>167.0</ele><time>2026-03-29T12:35:03Z</time></trkpt><trkpt lat="45.46425626124266" lon="10.489048810717748"><ele>168.0</ele><time>2026-03-29T12:35:04Z</time></trkpt><trkpt lat="45.46410581274918" lon="10.489153610788588"><ele>168.0</ele><time>2026-03-29T12:35:05Z</time></trkpt><trkpt lat="45.46396480790136" lon="10.489262941707393"><ele>168.0</ele><time>2026-03-29T12:35:06Z</time></trkpt><trkpt lat="45.463818578091136" lon="10.489383638046942"><ele>168.0</ele><time>2026-03-29T12:35:07Z</time></trkpt><trkpt lat="45.463685704685716" lon="10.48949169022518"><ele>168.0</ele><time>2026-03-29T12:35:08Z</time></trkpt><trkpt lat="45.46355482515102" lon="10.48959547330337"><ele>168.0</ele><time>2026-03-29T12:35:09Z</time></trkpt><trkpt lat="45.46342720649475" lon="10.489699127379543"><ele>168.0</ele><time>2026-03-29T12:35:10Z</time></trkpt><trkpt lat="45.46329431076275" lon="10.489803575151393"><ele>168.0</ele><time>2026-03-29T12:35:11Z</time></trkpt><trkpt lat="45.46315468350536" lon="10.489911927872837"><ele>168.0</ele><time>2026-03-29T12:35:12Z</time></trkpt><trkpt lat="45.463016696281066" lon="10.49001881248597"><ele>168.0</ele><time>2026-03-29T12:35:13Z</time></trkpt><trkpt lat="45.462869401349835" lon="10.49008981931905"><ele>168.0</ele><time>2026-03-29T12:35:14Z</time></trkpt><trkpt lat="45.462728628338525" lon="10.490140908646604"><ele>168.25</ele><time>2026-03-29T12:35:15Z</time></trkpt><trkpt lat="45.46260440709675" lon="10.490141569268202"><ele>168.5</ele><time>2026-03-29T12:35:16Z</time></trkpt><trkpt lat="45.4624832236758" lon="10.490109239016876"><ele>168.75</ele><time>2026-03-29T12:35:17Z</time></trkpt><trkpt lat="45.46235898368126" lon="10.490063499877389"><ele>169.0</ele><time>2026-03-29T12:35:18Z</time></trkpt><trkpt lat="45.46225316751197" lon="10.489990573256906"><ele>169.0</ele><time>2026-03-29T12:35:19Z</time></trkpt><trkpt lat="45.462157164923106" lon="10.489914296938256"><ele>169.0</ele><time>2026-03-29T12:35:20Z</time></trkpt><trkpt lat="45.46207046761252" lon="10.489857850438701"><ele>169.0</ele><time>2026-03-29T12:35:21Z</time></trkpt><trkpt lat="45.46199339202662" lon="10.489791186030905"><ele>169.0</ele><time>2026-03-29T12:35:22Z</time></trkpt><trkpt lat="45.46192276682107" lon="10.48971826230212"><ele>169.0</ele><time>2026-03-29T12:35:23Z</time></trkpt><trkpt lat="45.461864400654996" lon="10.48964491334654"><ele>168.83333333333334</ele><time>2026-03-29T12:35:24Z</time></trkpt><trkpt lat="45.46181819348601" lon="10.489565997061895"><ele>168.66666666666669</ele><time>2026-03-29T12:35:25Z</time></trkpt><trkpt lat="45.46178723075937" lon="10.489469560909122"><ele>168.5</ele><time>2026-03-29T12:35:26Z</time></trkpt><trkpt lat="45.46176013001441" lon="10.489362089397082"><ele>168.33333333333334</ele><time>2026-03-29T12:35:27Z</time></trkpt><trkpt lat="45.461711719458755" lon="10.489264122183005"><ele>168.16666666666666</ele><time>2026-03-29T12:35:28Z</time></trkpt><trkpt lat="45.46163899953564" lon="10.489210531207021"><ele>168.0</ele><time>2026-03-29T12:35:29Z</time></trkpt><trkpt lat="45.461546685901894" lon="10.489214703171957"><ele>168.0</ele><time>2026-03-29T12:35:30Z</time></trkpt><trkpt lat="45.461446737652274" lon="10.48926696579122"><ele>168.0</ele><time>2026-03-29T12:35:31Z</time></trkpt><trkpt lat="45.461384310500335" lon="10.489374516943156"><ele>168.0</ele><time>2026-03-29T12:35:32Z</time></trkpt><trkpt lat="45.461349999532274" lon="10.489520878285056"><ele>168.0</ele><time>2026-03-29T12:35:33Z</time></trkpt><trkpt lat="45.46136411159527" lon="10.489701040010987"><ele>168.0</ele><time>2026-03-29T12:35:34Z</time></trkpt><trkpt lat="45.46137818561086" lon="10.48989756998817"><ele>167.5</ele><time>2026-03-29T12:35:35Z</time></trkpt><trkpt lat="45.461355455475356" lon="10.490058778896366"><ele>167.0</ele><time>2026-03-29T12:35:36Z</time></trkpt><trkpt lat="45.46128874636532" lon="10.490188514607247"><ele>166.5</ele><time>2026-03-29T12:35:37Z</time></trkpt><trkpt lat="45.46120145954484" lon="10.490320184795674"><ele>166.0</ele><time>2026-03-29T12:35:38Z</time></trkpt><trkpt lat="45.46113054224205" lon="10.490416940322838"><ele>165.66666666666669</ele><time>2026-03-29T12:35:39Z</time></trkpt><trkpt lat="45.461075900595695" lon="10.49047785712102"><ele>165.33333333333334</ele><time>2026-03-29T12:35:40Z</time></trkpt><trkpt lat="45.46101599177641" lon="10.490514178903005"><ele>165.0</ele><time>2026-03-29T12:35:41Z</time></trkpt><trkpt lat="45.46094345619478" lon="10.490513601564334"><ele>164.66666666666666</ele><time>2026-03-29T12:35:44Z</time></trkpt><trkpt lat="45.460817471291264" lon="10.490530551493656"><ele>164.33333333333331</ele><time>2026-03-29T12:35:46Z</time></trkpt><trkpt lat="45.46073261467953" lon="10.490582794694346"><ele>164.0</ele><time>2026-03-29T12:35:47Z</time></trkpt><trkpt lat="45.46065986213098" lon="10.490664943006038"><ele>164.0</ele><time>2026-03-29T12:35:48Z</time></trkpt><trkpt lat="45.46060990316488" lon="10.490755620219511"><ele>164.0</ele><time>2026-03-29T12:35:49Z</time></trkpt><trkpt lat="45.46056274154957" lon="10.490841174642972"><ele>164.0</ele><time>2026-03-29T12:35:50Z</time></trkpt><trkpt lat="45.460516994485005" lon="10.490902996030492"><ele>164.0</ele><time>2026-03-29T12:35:51Z</time></trkpt><trkpt lat="45.46041995806638" lon="10.490918017847184"><ele>164.0</ele><time>2026-03-29T12:35:53Z</time></trkpt><trkpt lat="45.46039796794644" lon="10.490687617801512"><ele>164.16666666666666</ele><time>2026-03-29T12:35:56Z</time></trkpt><trkpt lat="45.460432185498654" lon="10.490584703564656"><ele>164.33333333333331</ele><time>2026-03-29T12:35:57Z</time></trkpt><trkpt lat="45.460446814636946" lon="10.490485387052319"><ele>164.5</ele><time>2026-03-29T12:35:58Z</time></trkpt><trkpt lat="45.46044286504959" lon="10.490323247706991"><ele>164.66666666666666</ele><time>2026-03-29T12:36:00Z</time></trkpt><trkpt lat="45.4604667057503" lon="10.49021460248796"><ele>164.83333333333334</ele><time>2026-03-29T12:36:03Z</time></trkpt><trkpt lat="45.46037410571096" lon="10.490146636973359"><ele>165.0</ele><time>2026-03-29T12:36:04Z</time></trkpt><trkpt lat="45.46024517718703" lon="10.490035948038509"><ele>165.0</ele><time>2026-03-29T12:36:07Z</time></trkpt><trkpt lat="45.46018655889185" lon="10.490209206757838"><ele>165.0</ele><time>2026-03-29T12:36:08Z</time></trkpt><trkpt lat="45.46013348767973" lon="10.490315389779365"><ele>165.0</ele><time>2026-03-29T12:36:10Z</time></trkpt><trkpt lat="45.460119385279604" lon="10.4904584078923"><ele>165.0</ele><time>2026-03-29T12:36:12Z</time></trkpt><trkpt lat="45.46015109916386" lon="10.49056668420741"><ele>165.0</ele><time>2026-03-29T12:36:14Z</time></trkpt><trkpt lat="45.46020566520403" lon="10.490612944829946"><ele>164.8</ele><time>2026-03-29T12:36:17Z</time></trkpt><trkpt lat="45.460275461923956" lon="10.490745333264119"><ele>164.6</ele><time>2026-03-29T12:39:00Z</time></trkpt><trkpt lat="45.46033629215538" lon="10.490830179836053"><ele>164.39999999999998</ele><time>2026-03-29T12:39:03Z</time></trkpt><trkpt lat="45.46042522865071" lon="10.490926366784233"><ele>164.2</ele><time>2026-03-29T12:39:05Z</time></trkpt><trkpt lat="45.46048967892396" lon="10.49094111835112"><ele>164.0</ele><time>2026-03-29T12:39:06Z</time></trkpt><trkpt lat="45.46059554615291" lon="10.490978624287882"><ele>164.0</ele><time>2026-03-29T12:39:08Z</time></trkpt><trkpt lat="45.460668843912096" lon="10.491039568112592"><ele>164.0</ele><time>2026-03-29T12:39:09Z</time></trkpt><trkpt lat="45.46073891002553" lon="10.491111946046123"><ele>164.0</ele><time>2026-03-29T12:39:10Z</time></trkpt><trkpt lat="45.46081375609157" lon="10.491144872930262"><ele>164.0</ele><time>2026-03-29T12:39:11Z</time></trkpt><trkpt lat="45.46091354544623" lon="10.491126669754102"><ele>164.0</ele><time>2026-03-29T12:39:12Z</time></trkpt><trkpt lat="45.46101128571527" lon="10.491066174446104"><ele>164.0</ele><time>2026-03-29T12:39:13Z</time></trkpt><trkpt lat="45.46109037355504" lon="10.491022807880627"><ele>164.0</ele><time>2026-03-29T12:39:14Z</time></trkpt><trkpt lat="45.46112430001527" lon="10.490931937050936"><ele>164.0</ele><time>2026-03-29T12:39:15Z</time></trkpt><trkpt lat="45.46122430486183" lon="10.490811776931277"><ele>164.0</ele><time>2026-03-29T12:39:17Z</time></trkpt><trkpt lat="45.46127053639984" lon="10.490675359303395"><ele>164.0</ele><time>2026-03-29T12:39:19Z</time></trkpt><trkpt lat="45.46130861655623" lon="10.490524440022375"><ele>164.33333333333331</ele><time>2026-03-29T12:44:01Z</time></trkpt><trkpt lat="45.46127903917837" lon="10.490395969345274"><ele>164.66666666666666</ele><time>2026-03-29T12:44:03Z</time></trkpt><trkpt lat="45.461290073505154" lon="10.490290502694595"><ele>165.0</ele><time>2026-03-29T12:44:10Z</time></trkpt><trkpt lat="45.461341059266694" lon="10.490204252009978"><ele>165.33333333333334</ele><time>2026-03-29T12:44:11Z</time></trkpt><trkpt lat="45.461395236200254" lon="10.490116205632548"><ele>165.66666666666669</ele><time>2026-03-29T12:44:12Z</time></trkpt><trkpt lat="45.46143557447851" lon="10.490024113491625"><ele>166.0</ele><time>2026-03-29T12:44:13Z</time></trkpt><trkpt lat="45.46147352760733" lon="10.489936401184424"><ele>166.0</ele><time>2026-03-29T12:44:14Z</time></trkpt><trkpt lat="45.46153316415546" lon="10.489877141773954"><ele>166.0</ele><time>2026-03-29T12:44:15Z</time></trkpt><trkpt lat="45.46161458743378" lon="10.489846493707319"><ele>166.0</ele><time>2026-03-29T12:44:16Z</time></trkpt><trkpt lat="45.46168171716821" lon="10.489818519996962"><ele>166.0</ele><time>2026-03-29T12:44:17Z</time></trkpt><trkpt lat="45.46173827441157" lon="10.489768506099164"><ele>166.0</ele><time>2026-03-29T12:44:18Z</time></trkpt><trkpt lat="45.461781759495466" lon="10.489699907457611"><ele>166.0</ele><time>2026-03-29T12:44:19Z</time></trkpt><trkpt lat="45.46181075524866" lon="10.48960687721092"><ele>166.0</ele><time>2026-03-29T12:44:20Z</time></trkpt><trkpt lat="45.46181899365603" lon="10.489490967848749"><ele>166.4</ele><time>2026-03-29T12:44:21Z</time></trkpt><trkpt lat="45.4617893684137" lon="10.489368978649825"><ele>166.8</ele><time>2026-03-29T12:44:22Z</time></trkpt><trkpt lat="45.461737936967396" lon="10.489275019338919"><ele>167.20000000000002</ele><time>2026-03-29T12:44:23Z</time></trkpt><trkpt lat="45.46167549634397" lon="10.4892281877017"><ele>167.60000000000002</ele><time>2026-03-29T12:44:24Z</time></trkpt><trkpt lat="45.46155964822428" lon="10.489209525976719"><ele>168.0</ele><time>2026-03-29T12:44:26Z</time></trkpt><trkpt lat="45.46143989158443" lon="10.489284220885397"><ele>168.0</ele><time>2026-03-29T12:44:28Z</time></trkpt><trkpt lat="45.46138945337895" lon="10.489392625971497"><ele>168.0</ele><time>2026-03-29T12:44:29Z</time></trkpt><trkpt lat="45.461361265487" lon="10.489521537555706"><ele>168.0</ele><time>2026-03-29T12:44:30Z</time></trkpt><trkpt lat="45.461360067784305" lon="10.489657890026885"><ele>168.0</ele><time>2026-03-29T12:44:31Z</time></trkpt><trkpt lat="45.46139219571712" lon="10.489803923521563"><ele>168.0</ele><time>2026-03-29T12:44:32Z</time></trkpt><trkpt lat="45.46136973447088" lon="10.489939227114885"><ele>167.66666666666666</ele><time>2026-03-29T12:44:33Z</time></trkpt><trkpt lat="45.461333285432275" lon="10.490054629643339"><ele>167.33333333333334</ele><time>2026-03-29T12:44:34Z</time></trkpt><trkpt lat="45.46128425893661" lon="10.49015991765239"><ele>167.0</ele><time>2026-03-29T12:44:35Z</time></trkpt><trkpt lat="45.46122570354538" lon="10.490252202816974"><ele>166.66666666666669</ele><time>2026-03-29T12:44:36Z</time></trkpt><trkpt lat="45.46117056218634" lon="10.49033344059666"><ele>166.33333333333334</ele><time>2026-03-29T12:44:37Z</time></trkpt><trkpt lat="45.4611211585073" lon="10.490401402033378"><ele>166.0</ele><time>2026-03-29T12:44:38Z</time></trkpt><trkpt lat="45.46107622566627" lon="10.490465337325064"><ele>165.66666666666669</ele><time>2026-03-29T12:44:39Z</time></trkpt><trkpt lat="45.46101530072209" lon="10.490512186917659"><ele>165.33333333333334</ele><time>2026-03-29T12:44:40Z</time></trkpt><trkpt lat="45.460942521725435" lon="10.490520003135295"><ele>165.0</ele><time>2026-03-29T12:44:41Z</time></trkpt><trkpt lat="45.46085549304432" lon="10.490508438363486"><ele>164.66666666666666</ele><time>2026-03-29T12:44:42Z</time></trkpt><trkpt lat="45.46077069864381" lon="10.490527123950253"><ele>164.33333333333331</ele><time>2026-03-29T12:44:43Z</time></trkpt><trkpt lat="45.46070160337124" lon="10.490580914744063"><ele>164.0</ele><time>2026-03-29T12:44:44Z</time></trkpt><trkpt lat="45.460650385893" lon="10.490651166873034"><ele>164.0</ele><time>2026-03-29T12:44:45Z</time></trkpt><trkpt lat="45.46061083144845" lon="10.490735861443808"><ele>164.0</ele><time>2026-03-29T12:44:46Z</time></trkpt><trkpt lat="45.46056966704025" lon="10.490836010886282"><ele>164.0</ele><time>2026-03-29T12:44:47Z</time></trkpt><trkpt lat="45.46051884480458" lon="10.490904014251166"><ele>164.0</ele><time>2026-03-29T12:44:48Z</time></trkpt><trkpt lat="45.46045628859044" lon="10.490935494291215"><ele>164.0</ele><time>2026-03-29T12:44:49Z</time></trkpt><trkpt lat="45.46036588550622" lon="10.490872051728457"><ele>164.0</ele><time>2026-03-29T12:44:51Z</time></trkpt><trkpt lat="45.46040574470855" lon="10.490701156611065"><ele>164.0</ele><time>2026-03-29T12:44:53Z</time></trkpt><trkpt lat="45.46041739530691" lon="10.490594822936423"><ele>164.0</ele><time>2026-03-29T12:44:54Z</time></trkpt><trkpt lat="45.460452188791955" lon="10.490491142425766"><ele>164.0</ele><time>2026-03-29T12:44:55Z</time></trkpt><trkpt lat="45.46045374582768" lon="10.490394789295086"><ele>164.0</ele><time>2026-03-29T12:44:56Z</time></trkpt><trkpt lat="45.46046412102399" lon="10.490234535968044"><ele>164.0</ele><time>2026-03-29T12:44:58Z</time></trkpt><trkpt lat="45.46041579649454" lon="10.490152663444213"><ele>164.0</ele><time>2026-03-29T12:44:59Z</time></trkpt><trkpt lat="45.460344806689626" lon="10.490052768432049"><ele>164.2</ele><time>2026-03-29T12:45:01Z</time></trkpt><trkpt lat="45.46026282844928" lon="10.490054690189861"><ele>164.39999999999998</ele><time>2026-03-29T12:45:03Z</time></trkpt><trkpt lat="45.46024250268922" lon="10.490154265403469"><ele>164.6</ele><time>2026-03-29T12:45:07Z</time></trkpt><trkpt lat="45.46014783440737" lon="10.490279783534156"><ele>164.8</ele><time>2026-03-29T12:45:10Z</time></trkpt><trkpt lat="45.460130259028354" lon="10.49044962532855"><ele>165.0</ele><time>2026-03-29T12:45:12Z</time></trkpt><trkpt lat="45.460134560983036" lon="10.49054026031751"><ele>165.5</ele><time>2026-03-29T12:45:13Z</time></trkpt><trkpt lat="45.4601470938847" lon="10.490634222411948"><ele>166.0</ele><time>2026-03-29T12:45:14Z</time></trkpt><trkpt lat="45.46014170569523" lon="10.490727266755496"><ele>166.5</ele><time>2026-03-29T12:45:15Z</time></trkpt><trkpt lat="45.46010792153877" lon="10.49080827114268"><ele>167.0</ele><time>2026-03-29T12:45:16Z</time></trkpt><trkpt lat="45.46016523079507" lon="10.490905738806804"><ele>167.5</ele><time>2026-03-29T12:45:17Z</time></trkpt><trkpt lat="45.46026451358659" lon="10.490957918796934"><ele>168.0</ele><time>2026-03-29T12:45:19Z</time></trkpt><trkpt lat="45.46032732973499" lon="10.490778297988705"><ele>168.0</ele><time>2026-03-29T12:45:23Z</time></trkpt><trkpt lat="45.46040826506751" lon="10.490949486144686"><ele>168.0</ele><time>2026-03-29T12:45:30Z</time></trkpt><trkpt lat="45.460482708656606" lon="10.490946397422288"><ele>168.0</ele><time>2026-03-29T12:45:32Z</time></trkpt><trkpt lat="45.46055625289747" lon="10.490945638586588"><ele>168.0</ele><time>2026-03-29T12:45:34Z</time></trkpt><trkpt lat="45.46055832458845" lon="10.49118235021526"><ele>167.2</ele><time>2026-03-29T12:45:36Z</time></trkpt><trkpt lat="45.46062130750497" lon="10.490989056103572"><ele>166.4</ele><time>2026-03-29T12:45:37Z</time></trkpt><trkpt lat="45.460713781156535" lon="10.491114478405319"><ele>165.6</ele><time>2026-03-29T12:45:39Z</time></trkpt><trkpt lat="45.460785417393566" lon="10.491168318380634"><ele>164.79999999999998</ele><time>2026-03-29T12:45:40Z</time></trkpt><trkpt lat="45.46086627049241" lon="10.491180373286278"><ele>164.0</ele><time>2026-03-29T12:45:41Z</time></trkpt><trkpt lat="45.46095119182993" lon="10.49114960294565"><ele>164.0</ele><time>2026-03-29T12:45:42Z</time></trkpt><trkpt lat="45.46103155447718" lon="10.491078134075815"><ele>164.0</ele><time>2026-03-29T12:45:43Z</time></trkpt><trkpt lat="45.461086625340734" lon="10.490979227911366"><ele>164.0</ele><time>2026-03-29T12:45:44Z</time></trkpt><trkpt lat="45.46114729281772" lon="10.490903075495659"><ele>164.0</ele><time>2026-03-29T12:45:45Z</time></trkpt><trkpt lat="45.46116033039724" lon="10.490806593124548"><ele>164.0</ele><time>2026-03-29T12:45:46Z</time></trkpt><trkpt lat="45.46125347774226" lon="10.490785438327567"><ele>164.0</ele><time>2026-03-29T12:45:47Z</time></trkpt><trkpt lat="45.46129159199652" lon="10.490653866760187"><ele>164.0</ele><time>2026-03-29T12:45:49Z</time></trkpt><trkpt lat="45.461306399540824" lon="10.490537366894696"><ele>164.0</ele><time>2026-03-29T13:10:25Z</time></trkpt><trkpt lat="45.461267772051805" lon="10.490428087692228"><ele>164.0</ele><time>2026-03-29T13:10:27Z</time></trkpt><trkpt lat="45.46129609971625" lon="10.490311766748938"><ele>164.0</ele><time>2026-03-29T13:11:40Z</time></trkpt><trkpt lat="45.46131965758802" lon="10.490223173023535"><ele>164.0</ele><time>2026-03-29T13:11:41Z</time></trkpt><trkpt lat="45.461362942098155" lon="10.49014152604748"><ele>164.0</ele><time>2026-03-29T13:11:42Z</time></trkpt><trkpt lat="45.46140219266582" lon="10.490071220986561"><ele>164.39999999999998</ele><time>2026-03-29T13:11:43Z</time></trkpt><trkpt lat="45.461467767985695" lon="10.489948230713402"><ele>164.8</ele><time>2026-03-29T13:11:45Z</time></trkpt><trkpt lat="45.46153296463847" lon="10.489883029497637"><ele>165.2</ele><time>2026-03-29T13:11:47Z</time></trkpt><trkpt lat="45.46164951797994" lon="10.489834121149478"><ele>165.60000000000002</ele><time>2026-03-29T13:11:49Z</time></trkpt><trkpt lat="45.46171450471911" lon="10.489803127659982"><ele>166.0</ele><time>2026-03-29T13:11:50Z</time></trkpt><trkpt lat="45.46180187675465" lon="10.48977061370544"><ele>166.0</ele><time>2026-03-29T13:11:51Z</time></trkpt><trkpt lat="45.46189711263781" lon="10.489781234329532"><ele>166.0</ele><time>2026-03-29T13:11:52Z</time></trkpt><trkpt lat="45.46200204280254" lon="10.489844216097454"><ele>166.0</ele><time>2026-03-29T13:11:53Z</time></trkpt><trkpt lat="45.462120162064934" lon="10.48994168156368"><ele>166.0</ele><time>2026-03-29T13:11:54Z</time></trkpt><trkpt lat="45.46225201132862" lon="10.490040699645892"><ele>166.75</ele><time>2026-03-29T13:11:55Z</time></trkpt><trkpt lat="45.462398624972394" lon="10.490125453788842"><ele>167.5</ele><time>2026-03-29T13:11:56Z</time></trkpt><trkpt lat="45.462536869887266" lon="10.490179145295192"><ele>168.25</ele><time>2026-03-29T13:11:57Z</time></trkpt><trkpt lat="45.46268392203444" lon="10.490189992232128"><ele>169.0</ele><time>2026-03-29T13:11:58Z</time></trkpt><trkpt lat="45.46283141550684" lon="10.490157689621503"><ele>168.66666666666669</ele><time>2026-03-29T13:11:59Z</time></trkpt><trkpt lat="45.46298620794454" lon="10.490082553894592"><ele>168.33333333333334</ele><time>2026-03-29T13:12:00Z</time></trkpt><trkpt lat="45.463165089173344" lon="10.489937029454033"><ele>168.0</ele><time>2026-03-29T13:12:01Z</time></trkpt><trkpt lat="45.463344178760785" lon="10.489799154424968"><ele>168.0</ele><time>2026-03-29T13:12:02Z</time></trkpt><trkpt lat="45.463513772078436" lon="10.489663611505572"><ele>168.0</ele><time>2026-03-29T13:12:03Z</time></trkpt><trkpt lat="45.46367955880462" lon="10.489530739426634"><ele>168.0</ele><time>2026-03-29T13:12:04Z</time></trkpt><trkpt lat="45.463850817868625" lon="10.489396081898986"><ele>168.0</ele><time>2026-03-29T13:12:05Z</time></trkpt><trkpt lat="45.464007508593085" lon="10.489275648708064"><ele>168.0</ele><time>2026-03-29T13:12:06Z</time></trkpt><trkpt lat="45.464162429863826" lon="10.489154964831629"><ele>168.0</ele><time>2026-03-29T13:12:07Z</time></trkpt><trkpt lat="45.46431691578331" lon="10.489043340910685"><ele>168.0</ele><time>2026-03-29T13:12:08Z</time></trkpt><trkpt lat="45.464478887535336" lon="10.488952368108283"><ele>168.0</ele><time>2026-03-29T13:12:09Z</time></trkpt><trkpt lat="45.46465775237124" lon="10.488883496639204"><ele>168.0</ele><time>2026-03-29T13:12:10Z</time></trkpt><trkpt lat="45.4648329146297" lon="10.488832356302316"><ele>167.0</ele><time>2026-03-29T13:12:11Z</time></trkpt><trkpt lat="45.46500023755535" lon="10.488797981219633"><ele>166.0</ele><time>2026-03-29T13:12:12Z</time></trkpt><trkpt lat="45.46517751315971" lon="10.488790291674768"><ele>165.0</ele><time>2026-03-29T13:12:13Z</time></trkpt><trkpt lat="45.465358241184155" lon="10.488803514697336"><ele>163.0</ele><time>2026-03-29T13:12:14Z</time></trkpt><trkpt lat="45.46553053600285" lon="10.48883414772379"><ele>161.0</ele><time>2026-03-29T13:12:15Z</time></trkpt><trkpt lat="45.46569653135323" lon="10.488870543478258"><ele>159.0</ele><time>2026-03-29T13:12:16Z</time></trkpt><trkpt lat="45.46584535510219" lon="10.488910052330477"><ele>159.0</ele><time>2026-03-29T13:12:17Z</time></trkpt><trkpt lat="45.46595418108528" lon="10.488941113557651"><ele>159.0</ele><time>2026-03-29T13:12:18Z</time></trkpt><trkpt lat="45.46604590355287" lon="10.488965841705983"><ele>159.0</ele><time>2026-03-29T13:12:19Z</time></trkpt><trkpt lat="45.46611230477012" lon="10.488990603893466"><ele>159.0</ele><time>2026-03-29T13:12:20Z</time></trkpt><trkpt lat="45.4661755853301" lon="10.489018869943735"><ele>159.0</ele><time>2026-03-29T13:12:21Z</time></trkpt><trkpt lat="45.46627378127938" lon="10.489039370068372"><ele>159.0</ele><time>2026-03-29T13:12:23Z</time></trkpt><trkpt lat="45.46635197826028" lon="10.489053040677474"><ele>160.75</ele><time>2026-03-29T13:12:50Z</time></trkpt><trkpt lat="45.466491186950506" lon="10.489082116051138"><ele>162.5</ele><time>2026-03-29T13:12:54Z</time></trkpt><trkpt lat="45.46659416202936" lon="10.489097901933928"><ele>164.25</ele><time>2026-03-29T13:12:55Z</time></trkpt><trkpt lat="45.46673146825866" lon="10.489125759813186"><ele>166.0</ele><time>2026-03-29T13:12:56Z</time></trkpt><trkpt lat="45.46689330120396" lon="10.48916321933486"><ele>166.0</ele><time>2026-03-29T13:12:57Z</time></trkpt><trkpt lat="45.467055442097084" lon="10.489206666664257"><ele>166.0</ele><time>2026-03-29T13:12:58Z</time></trkpt><trkpt lat="45.467233103074996" lon="10.48926520324214"><ele>166.0</ele><time>2026-03-29T13:12:59Z</time></trkpt><trkpt lat="45.467408730741646" lon="10.489329913401107"><ele>166.66666666666669</ele><time>2026-03-29T13:13:00Z</time></trkpt><trkpt lat="45.467587968222745" lon="10.489400087897883"><ele>167.33333333333334</ele><time>2026-03-29T13:13:01Z</time></trkpt><trkpt lat="45.46776337360089" lon="10.489475127991051"><ele>168.0</ele><time>2026-03-29T13:13:02Z</time></trkpt><trkpt lat="45.46794419660401" lon="10.489551880300658"><ele>167.0</ele><time>2026-03-29T13:13:03Z</time></trkpt><trkpt lat="45.468118577791174" lon="10.48963124650585"><ele>166.0</ele><time>2026-03-29T13:13:04Z</time></trkpt><trkpt lat="45.46829490053367" lon="10.489707570593517"><ele>165.0</ele><time>2026-03-29T13:13:05Z</time></trkpt><trkpt lat="45.46847760646168" lon="10.489787617969736"><ele>165.0</ele><time>2026-03-29T13:13:06Z</time></trkpt><trkpt lat="45.46866372686303" lon="10.489869260722859"><ele>165.0</ele><time>2026-03-29T13:13:07Z</time></trkpt><trkpt lat="45.46884428230523" lon="10.489948652874457"><ele>165.0</ele><time>2026-03-29T13:13:08Z</time></trkpt><trkpt lat="45.469021346466" lon="10.49002283930343"><ele>163.66666666666666</ele><time>2026-03-29T13:13:09Z</time></trkpt><trkpt lat="45.46919277013691" lon="10.4900979835953"><ele>162.33333333333331</ele><time>2026-03-29T13:13:10Z</time></trkpt><trkpt lat="45.46937559219176" lon="10.490180562670988"><ele>161.0</ele><time>2026-03-29T13:13:11Z</time></trkpt><trkpt lat="45.46956417384278" lon="10.490263791849033"><ele>160.33333333333331</ele><time>2026-03-29T13:13:12Z</time></trkpt><trkpt lat="45.469749071561075" lon="10.490342259398988"><ele>159.66666666666666</ele><time>2026-03-29T13:13:13Z</time></trkpt><trkpt lat="45.46994551584234" lon="10.490431333190076"><ele>159.0</ele><time>2026-03-29T13:13:14Z</time></trkpt><trkpt lat="45.47014115864516" lon="10.490519568788006"><ele>158.66666666666666</ele><time>2026-03-29T13:13:15Z</time></trkpt><trkpt lat="45.470338268941255" lon="10.490606305773504"><ele>158.33333333333331</ele><time>2026-03-29T13:13:16Z</time></trkpt><trkpt lat="45.470538257035244" lon="10.490689588431952"><ele>158.0</ele><time>2026-03-29T13:13:17Z</time></trkpt><trkpt lat="45.47073018971718" lon="10.490769896081709"><ele>157.33333333333331</ele><time>2026-03-29T13:13:18Z</time></trkpt><trkpt lat="45.470922611598795" lon="10.490853087973981"><ele>156.66666666666666</ele><time>2026-03-29T13:13:19Z</time></trkpt><trkpt lat="45.471111430895064" lon="10.490937024178853"><ele>156.0</ele><time>2026-03-29T13:13:20Z</time></trkpt><trkpt lat="45.47129916217072" lon="10.49102382432897"><ele>155.33333333333334</ele><time>2026-03-29T13:13:21Z</time></trkpt><trkpt lat="45.47146898492343" lon="10.491105265249251"><ele>154.66666666666669</ele><time>2026-03-29T13:13:22Z</time></trkpt><trkpt lat="45.471633891999346" lon="10.491174940055359"><ele>154.0</ele><time>2026-03-29T13:13:23Z</time></trkpt><trkpt lat="45.47181605575063" lon="10.49125328287736"><ele>153.33333333333334</ele><time>2026-03-29T13:13:24Z</time></trkpt><trkpt lat="45.471986753269306" lon="10.491327225451442"><ele>152.66666666666666</ele><time>2026-03-29T13:13:25Z</time></trkpt><trkpt lat="45.47214200492577" lon="10.49139742348317"><ele>152.0</ele><time>2026-03-29T13:13:26Z</time></trkpt><trkpt lat="45.47230321901448" lon="10.491462734515611"><ele>152.0</ele><time>2026-03-29T13:13:27Z</time></trkpt><trkpt lat="45.472451475572484" lon="10.49152475824521"><ele>152.0</ele><time>2026-03-29T13:13:28Z</time></trkpt><trkpt lat="45.472580820259864" lon="10.491585523796852"><ele>152.0</ele><time>2026-03-29T13:13:29Z</time></trkpt><trkpt lat="45.472682674559046" lon="10.491630322550309"><ele>152.0</ele><time>2026-03-29T13:13:30Z</time></trkpt><trkpt lat="45.47275024947785" lon="10.49165921788895"><ele>152.0</ele><time>2026-03-29T13:13:31Z</time></trkpt><trkpt lat="45.47281579369145" lon="10.4917010824936"><ele>152.0</ele><time>2026-03-29T13:13:33Z</time></trkpt><trkpt lat="45.472857778196875" lon="10.4914770425253"><ele>152.0</ele><time>2026-03-29T13:13:35Z</time></trkpt><trkpt lat="45.47286724251017" lon="10.491326480130505"><ele>152.0</ele><time>2026-03-29T13:13:36Z</time></trkpt><trkpt lat="45.47288620454264" lon="10.491172909456454"><ele>152.79999999999998</ele><time>2026-03-29T13:13:37Z</time></trkpt><trkpt lat="45.472924214258356" lon="10.491017309090564"><ele>153.6</ele><time>2026-03-29T13:13:38Z</time></trkpt><trkpt lat="45.47295154348297" lon="10.490886676988364"><ele>154.39999999999998</ele><time>2026-03-29T13:13:39Z</time></trkpt><trkpt lat="45.47297288797161" lon="10.49080138059493"><ele>155.2</ele><time>2026-03-29T13:13:40Z</time></trkpt><trkpt lat="45.473098423896104" lon="10.490797221617123"><ele>156.0</ele><time>2026-03-29T13:13:42Z</time></trkpt><trkpt lat="45.473197311190994" lon="10.490876420047993"><ele>156.2</ele><time>2026-03-29T13:13:43Z</time></trkpt><trkpt lat="45.4733265533773" lon="10.490889468397032"><ele>156.39999999999998</ele><time>2026-03-29T13:13:44Z</time></trkpt><trkpt lat="45.473450135435705" lon="10.490909876929285"><ele>156.6</ele><time>2026-03-29T13:13:45Z</time></trkpt><trkpt lat="45.473543863414946" lon="10.490876405904755"><ele>156.79999999999998</ele><time>2026-03-29T13:13:46Z</time></trkpt><trkpt lat="45.47361112215747" lon="10.490798100475947"><ele>157.0</ele><time>2026-03-29T13:13:47Z</time></trkpt><trkpt lat="45.473663874328984" lon="10.490688299069996"><ele>157.0</ele><time>2026-03-29T13:13:48Z</time></trkpt><trkpt lat="45.47373468629075" lon="10.490602486145699"><ele>157.0</ele><time>2026-03-29T13:13:49Z</time></trkpt><trkpt lat="45.47382687958577" lon="10.49057795032442"><ele>157.0</ele><time>2026-03-29T13:13:50Z</time></trkpt><trkpt lat="45.47394269957081" lon="10.490638393062067"><ele>157.0</ele><time>2026-03-29T13:13:51Z</time></trkpt><trkpt lat="45.4740936353731" lon="10.49067170343955"><ele>158.0</ele><time>2026-03-29T13:13:52Z</time></trkpt><trkpt lat="45.474259352707094" lon="10.490696589024958"><ele>159.0</ele><time>2026-03-29T13:13:53Z</time></trkpt><trkpt lat="45.47443340882122" lon="10.490716726071172"><ele>160.0</ele><time>2026-03-29T13:13:54Z</time></trkpt><trkpt lat="45.47457955307845" lon="10.490733772316908"><ele>160.75</ele><time>2026-03-29T13:13:55Z</time></trkpt><trkpt lat="45.47469506072848" lon="10.490741651453934"><ele>161.5</ele><time>2026-03-29T13:13:56Z</time></trkpt><trkpt lat="45.474790262391195" lon="10.490725198703963"><ele>162.25</ele><time>2026-03-29T13:13:57Z</time></trkpt><trkpt lat="45.47489534708096" lon="10.490652887707725"><ele>163.0</ele><time>2026-03-29T13:13:58Z</time></trkpt><trkpt lat="45.47500997555765" lon="10.49055132327381"><ele>163.0</ele><time>2026-03-29T13:13:59Z</time></trkpt><trkpt lat="45.47513725309138" lon="10.490505109631965"><ele>163.0</ele><time>2026-03-29T13:14:00Z</time></trkpt><trkpt lat="45.47523603222574" lon="10.490459419208168"><ele>163.0</ele><time>2026-03-29T13:14:01Z</time></trkpt><trkpt lat="45.47532792488504" lon="10.490443880241981"><ele>163.0</ele><time>2026-03-29T13:14:02Z</time></trkpt><trkpt lat="45.475421178174486" lon="10.49049757532078"><ele>163.0</ele><time>2026-03-29T13:14:03Z</time></trkpt><trkpt lat="45.47554002417694" lon="10.490559244641545"><ele>164.0</ele><time>2026-03-29T13:14:04Z</time></trkpt><trkpt lat="45.47571457438152" lon="10.490600774745616"><ele>165.0</ele><time>2026-03-29T13:14:05Z</time></trkpt><trkpt lat="45.47586014179584" lon="10.490673484726603"><ele>166.0</ele><time>2026-03-29T13:14:06Z</time></trkpt><trkpt lat="45.47596977988188" lon="10.490733702794227"><ele>167.0</ele><time>2026-03-29T13:14:07Z</time></trkpt><trkpt lat="45.476093233852886" lon="10.490867041550725"><ele>167.0</ele><time>2026-03-29T13:14:08Z</time></trkpt><trkpt lat="45.47623489638263" lon="10.490994601617922"><ele>167.0</ele><time>2026-03-29T13:14:09Z</time></trkpt><trkpt lat="45.47638364578169" lon="10.491085088675659"><ele>167.0</ele><time>2026-03-29T13:14:10Z</time></trkpt><trkpt lat="45.47651871888307" lon="10.49119367518062"><ele>167.0</ele><time>2026-03-29T13:14:11Z</time></trkpt><trkpt lat="45.47666238619962" lon="10.491286540209861"><ele>167.0</ele><time>2026-03-29T13:14:12Z</time></trkpt><trkpt lat="45.476796995477876" lon="10.491384800840907"><ele>167.0</ele><time>2026-03-29T13:14:13Z</time></trkpt><trkpt lat="45.47692374348934" lon="10.49151071608611"><ele>167.0</ele><time>2026-03-29T13:14:14Z</time></trkpt><trkpt lat="45.47705449685345" lon="10.491668581953661"><ele>167.0</ele><time>2026-03-29T13:14:15Z</time></trkpt><trkpt lat="45.47720048897457" lon="10.491848482982368"><ele>167.0</ele><time>2026-03-29T13:14:16Z</time></trkpt><trkpt lat="45.47733776334258" lon="10.492025933352584"><ele>168.33333333333331</ele><time>2026-03-29T13:14:17Z</time></trkpt><trkpt lat="45.477454287728705" lon="10.492168129184648"><ele>169.66666666666666</ele><time>2026-03-29T13:14:18Z</time></trkpt><trkpt lat="45.47757690939459" lon="10.492312951775341"><ele>171.0</ele><time>2026-03-29T13:14:19Z</time></trkpt><trkpt lat="45.47770437225905" lon="10.492457719510782"><ele>171.0</ele><time>2026-03-29T13:14:20Z</time></trkpt><trkpt lat="45.477814342628335" lon="10.49257669585717"><ele>171.0</ele><time>2026-03-29T13:14:21Z</time></trkpt><trkpt lat="45.477912436036995" lon="10.492675845465568"><ele>171.0</ele><time>2026-03-29T13:14:22Z</time></trkpt><trkpt lat="45.47801618918218" lon="10.492781228686741"><ele>171.0</ele><time>2026-03-29T13:14:23Z</time></trkpt><trkpt lat="45.478120341796355" lon="10.492894608414487"><ele>170.60000000000002</ele><time>2026-03-29T13:14:24Z</time></trkpt><trkpt lat="45.478230882712595" lon="10.49301957990702"><ele>170.2</ele><time>2026-03-29T13:14:25Z</time></trkpt><trkpt lat="45.478316596423184" lon="10.493117074278638"><ele>169.8</ele><time>2026-03-29T13:14:26Z</time></trkpt><trkpt lat="45.478391097413166" lon="10.493194641060494"><ele>169.39999999999998</ele><time>2026-03-29T13:14:27Z</time></trkpt><trkpt lat="45.47847607404147" lon="10.493247563303147"><ele>169.0</ele><time>2026-03-29T13:14:28Z</time></trkpt><trkpt lat="45.47853401953979" lon="10.493321587905065"><ele>169.0</ele><time>2026-03-29T13:14:29Z</time></trkpt><trkpt lat="45.478672973180686" lon="10.493237466779986"><ele>169.0</ele><time>2026-03-29T13:14:31Z</time></trkpt><trkpt lat="45.478720303779255" lon="10.493127276821417"><ele>169.0</ele><time>2026-03-29T13:14:32Z</time></trkpt><trkpt lat="45.47874051046826" lon="10.492969556518144"><ele>169.0</ele><time>2026-03-29T13:14:33Z</time></trkpt><trkpt lat="45.47877418307565" lon="10.492775390965559"><ele>170.25</ele><time>2026-03-29T13:14:34Z</time></trkpt><trkpt lat="45.47881839420766" lon="10.492559469384908"><ele>171.5</ele><time>2026-03-29T13:14:35Z</time></trkpt><trkpt lat="45.47885086166768" lon="10.492347569550793"><ele>172.75</ele><time>2026-03-29T13:14:36Z</time></trkpt><trkpt lat="45.4789062265436" lon="10.492171266925109"><ele>174.0</ele><time>2026-03-29T13:14:37Z</time></trkpt><trkpt lat="45.478941625375946" lon="10.492010510542245"><ele>174.5</ele><time>2026-03-29T13:14:38Z</time></trkpt><trkpt lat="45.47897875007002" lon="10.491873956391968"><ele>175.0</ele><time>2026-03-29T13:14:39Z</time></trkpt><trkpt lat="45.47902906509661" lon="10.491749039330605"><ele>175.5</ele><time>2026-03-29T13:14:40Z</time></trkpt><trkpt lat="45.47909453243291" lon="10.491656121734065"><ele>176.0</ele><time>2026-03-29T13:14:41Z</time></trkpt><trkpt lat="45.479164229908214" lon="10.491594156070859"><ele>176.5</ele><time>2026-03-29T13:14:42Z</time></trkpt><trkpt lat="45.47922472350779" lon="10.491562142243248"><ele>177.0</ele><time>2026-03-29T13:14:43Z</time></trkpt><trkpt lat="45.479291735986465" lon="10.491553543233753"><ele>177.0</ele><time>2026-03-29T13:14:44Z</time></trkpt><trkpt lat="45.47938002605355" lon="10.49156560697189"><ele>177.0</ele><time>2026-03-29T13:14:45Z</time></trkpt><trkpt lat="45.47949802831692" lon="10.49159157989348"><ele>177.0</ele><time>2026-03-29T13:14:46Z</time></trkpt><trkpt lat="45.479611988676645" lon="10.491614863074794"><ele>177.0</ele><time>2026-03-29T13:14:47Z</time></trkpt><trkpt lat="45.47972773643797" lon="10.491638133720468"><ele>177.0</ele><time>2026-03-29T13:14:48Z</time></trkpt><trkpt lat="45.47983286544946" lon="10.49164053631147"><ele>177.33333333333334</ele><time>2026-03-29T13:14:49Z</time></trkpt><trkpt lat="45.47992320185843" lon="10.491668435810109"><ele>177.66666666666666</ele><time>2026-03-29T13:14:50Z</time></trkpt><trkpt lat="45.48000024096872" lon="10.491680482940481"><ele>178.0</ele><time>2026-03-29T13:14:51Z</time></trkpt><trkpt lat="45.48006762253279" lon="10.491674326238448"><ele>178.33333333333331</ele><time>2026-03-29T13:14:52Z</time></trkpt><trkpt lat="45.48013689978141" lon="10.491699140654815"><ele>178.66666666666666</ele><time>2026-03-29T13:14:53Z</time></trkpt><trkpt lat="45.48023706152729" lon="10.491701167058112"><ele>179.0</ele><time>2026-03-29T13:14:55Z</time></trkpt><trkpt lat="45.480355391588674" lon="10.491692697939127"><ele>179.0</ele><time>2026-03-29T13:14:57Z</time></trkpt><trkpt lat="45.48043282241076" lon="10.491690235261409"><ele>179.0</ele><time>2026-03-29T13:14:58Z</time></trkpt><trkpt lat="45.48052354724667" lon="10.49169538992408"><ele>179.0</ele><time>2026-03-29T13:14:59Z</time></trkpt><trkpt lat="45.48063398437977" lon="10.491722659008573"><ele>179.0</ele><time>2026-03-29T13:15:00Z</time></trkpt><trkpt lat="45.48075923100156" lon="10.491784356421178"><ele>179.0</ele><time>2026-03-29T13:15:01Z</time></trkpt><trkpt lat="45.48087804623809" lon="10.49185183319996"><ele>179.39999999999998</ele><time>2026-03-29T13:15:02Z</time></trkpt><trkpt lat="45.48099430849601" lon="10.491915446813172"><ele>179.8</ele><time>2026-03-29T13:15:03Z</time></trkpt><trkpt lat="45.48111052429152" lon="10.491945065227295"><ele>180.2</ele><time>2026-03-29T13:15:04Z</time></trkpt><trkpt lat="45.48121642303698" lon="10.491943451212014"><ele>180.60000000000002</ele><time>2026-03-29T13:15:05Z</time></trkpt><trkpt lat="45.48129682029979" lon="10.491952585439103"><ele>181.0</ele><time>2026-03-29T13:15:06Z</time></trkpt><trkpt lat="45.48137163199685" lon="10.491954777018275"><ele>182.0</ele><time>2026-03-29T13:15:07Z</time></trkpt><trkpt lat="45.481452650038094" lon="10.491988870977078"><ele>183.0</ele><time>2026-03-29T13:15:08Z</time></trkpt><trkpt lat="45.48154034273457" lon="10.492005371000515"><ele>184.0</ele><time>2026-03-29T13:15:09Z</time></trkpt><trkpt lat="45.481630145030756" lon="10.492024008338676"><ele>185.0</ele><time>2026-03-29T13:15:10Z</time></trkpt><trkpt lat="45.481732704335606" lon="10.4920464509915"><ele>186.0</ele><time>2026-03-29T13:15:11Z</time></trkpt><trkpt lat="45.48185606507326" lon="10.492078371121082"><ele>185.0</ele><time>2026-03-29T13:15:12Z</time></trkpt><trkpt lat="45.48197082216766" lon="10.49211504606632"><ele>184.0</ele><time>2026-03-29T13:15:13Z</time></trkpt><trkpt lat="45.48207374935484" lon="10.492121591837556"><ele>183.0</ele><time>2026-03-29T13:15:14Z</time></trkpt><trkpt lat="45.48215627584077" lon="10.492140107161399"><ele>182.0</ele><time>2026-03-29T13:15:15Z</time></trkpt><trkpt lat="45.4822273387924" lon="10.492147272225973"><ele>181.0</ele><time>2026-03-29T13:15:16Z</time></trkpt><trkpt lat="45.482339696175444" lon="10.492145844461216"><ele>184.25</ele><time>2026-03-29T13:15:18Z</time></trkpt><trkpt lat="45.482440720477776" lon="10.491995954677673"><ele>187.5</ele><time>2026-03-29T13:15:21Z</time></trkpt><trkpt lat="45.48234409208884" lon="10.491897673681253"><ele>190.75</ele><time>2026-03-29T13:15:22Z</time></trkpt><trkpt lat="45.48226768935415" lon="10.491786421549293"><ele>194.0</ele><time>2026-03-29T13:15:23Z</time></trkpt><trkpt lat="45.482190433915434" lon="10.491631278591353"><ele>193.66666666666669</ele><time>2026-03-29T13:15:24Z</time></trkpt><trkpt lat="45.48208698485464" lon="10.491465125373123"><ele>193.33333333333331</ele><time>2026-03-29T13:15:25Z</time></trkpt><trkpt lat="45.481965167827816" lon="10.491272282426477"><ele>193.0</ele><time>2026-03-29T13:15:26Z</time></trkpt><trkpt lat="45.48184464538868" lon="10.491083740482642"><ele>193.0</ele><time>2026-03-29T13:15:27Z</time></trkpt><trkpt lat="45.48171655334007" lon="10.4909136283994"><ele>193.0</ele><time>2026-03-29T13:15:28Z</time></trkpt><trkpt lat="45.481621349496685" lon="10.4907682094953"><ele>193.0</ele><time>2026-03-29T13:15:29Z</time></trkpt><trkpt lat="45.48153099962524" lon="10.490625908246914"><ele>193.0</ele><time>2026-03-29T13:15:30Z</time></trkpt><trkpt lat="45.48145538549204" lon="10.490491314930301"><ele>192.2</ele><time>2026-03-29T13:15:31Z</time></trkpt><trkpt lat="45.48139414548151" lon="10.49039208577248"><ele>191.4</ele><time>2026-03-29T13:15:32Z</time></trkpt><trkpt lat="45.48132711055586" lon="10.490279189418622"><ele>190.6</ele><time>2026-03-29T13:15:33Z</time></trkpt><trkpt lat="45.48124925298574" lon="10.49016010840431"><ele>189.79999999999998</ele><time>2026-03-29T13:15:34Z</time></trkpt><trkpt lat="45.481156811343276" lon="10.490019456577723"><ele>189.0</ele><time>2026-03-29T13:15:35Z</time></trkpt><trkpt lat="45.48107532825652" lon="10.4898722507293"><ele>189.0</ele><time>2026-03-29T13:15:36Z</time></trkpt><trkpt lat="45.48098463257262" lon="10.489747331233506"><ele>189.0</ele><time>2026-03-29T13:15:37Z</time></trkpt><trkpt lat="45.4809023370907" lon="10.489656728951067"><ele>189.0</ele><time>2026-03-29T13:15:38Z</time></trkpt><trkpt lat="45.48081151823831" lon="10.489604542473675"><ele>189.0</ele><time>2026-03-29T13:15:39Z</time></trkpt><trkpt lat="45.48071659283052" lon="10.489592365152998"><ele>189.0</ele><time>2026-03-29T13:15:40Z</time></trkpt><trkpt lat="45.480603291296646" lon="10.489594360801194"><ele>190.39999999999998</ele><time>2026-03-29T13:15:41Z</time></trkpt><trkpt lat="45.480487170376136" lon="10.489561994284664"><ele>191.8</ele><time>2026-03-29T13:15:42Z</time></trkpt><trkpt lat="45.48038609605131" lon="10.48953791097901"><ele>193.2</ele><time>2026-03-29T13:15:43Z</time></trkpt><trkpt lat="45.48031106283931" lon="10.489485857477737"><ele>194.60000000000002</ele><time>2026-03-29T13:15:44Z</time></trkpt><trkpt lat="45.480230708766946" lon="10.489419036025861"><ele>196.0</ele><time>2026-03-29T13:15:45Z</time></trkpt><trkpt lat="45.48014002701813" lon="10.489330766215167"><ele>196.5</ele><time>2026-03-29T13:15:46Z</time></trkpt><trkpt lat="45.48004633225125" lon="10.489220750114006"><ele>197.0</ele><time>2026-03-29T13:15:47Z</time></trkpt><trkpt lat="45.479970148755996" lon="10.489110664513179"><ele>197.5</ele><time>2026-03-29T13:15:48Z</time></trkpt><trkpt lat="45.479900910773964" lon="10.488987319222803"><ele>198.0</ele><time>2026-03-29T13:15:49Z</time></trkpt><trkpt lat="45.47983098491085" lon="10.488833739455488"><ele>198.75</ele><time>2026-03-29T13:15:50Z</time></trkpt><trkpt lat="45.479772759122056" lon="10.488683757886873"><ele>199.5</ele><time>2026-03-29T13:15:51Z</time></trkpt><trkpt lat="45.47972173588089" lon="10.488527518635626"><ele>200.25</ele><time>2026-03-29T13:15:52Z</time></trkpt><trkpt lat="45.47966493994936" lon="10.488347908019458"><ele>201.0</ele><time>2026-03-29T13:15:53Z</time></trkpt><trkpt lat="45.47960367433334" lon="10.488148691985758"><ele>201.5</ele><time>2026-03-29T13:15:54Z</time></trkpt><trkpt lat="45.47954708665061" lon="10.48796213164134"><ele>202.0</ele><time>2026-03-29T13:15:55Z</time></trkpt><trkpt lat="45.47947994188995" lon="10.487822567971731"><ele>202.5</ele><time>2026-03-29T13:15:56Z</time></trkpt><trkpt lat="45.479410596782316" lon="10.48768261159938"><ele>203.0</ele><time>2026-03-29T13:15:57Z</time></trkpt><trkpt lat="45.479342525520785" lon="10.487572403290526"><ele>203.0</ele><time>2026-03-29T13:15:58Z</time></trkpt><trkpt lat="45.47927227707408" lon="10.487509417811667"><ele>203.0</ele><time>2026-03-29T13:15:59Z</time></trkpt><trkpt lat="45.479196418553904" lon="10.487432252871683"><ele>203.0</ele><time>2026-03-29T13:16:01Z</time></trkpt><trkpt lat="45.479241451804064" lon="10.487248750857821"><ele>203.0</ele><time>2026-03-29T13:16:04Z</time></trkpt><trkpt lat="45.47928658570439" lon="10.487128554058698"><ele>203.0</ele><time>2026-03-29T13:16:05Z</time></trkpt><trkpt lat="45.47933686237182" lon="10.486982222471399"><ele>203.75</ele><time>2026-03-29T13:16:06Z</time></trkpt><trkpt lat="45.479399245625444" lon="10.486805875495264"><ele>204.5</ele><time>2026-03-29T13:16:07Z</time></trkpt><trkpt lat="45.479459032286094" lon="10.486621968207595"><ele>205.25</ele><time>2026-03-29T13:16:08Z</time></trkpt><trkpt lat="45.479520382624266" lon="10.486442230379545"><ele>206.0</ele><time>2026-03-29T13:16:09Z</time></trkpt><trkpt lat="45.47958594704628" lon="10.486263558336413"><ele>207.33333333333334</ele><time>2026-03-29T13:16:10Z</time></trkpt><trkpt lat="45.479667351729375" lon="10.48607847484861"><ele>208.66666666666669</ele><time>2026-03-29T13:16:11Z</time></trkpt><trkpt lat="45.47976007935207" lon="10.485860214336512"><ele>210.0</ele><time>2026-03-29T13:16:12Z</time></trkpt><trkpt lat="45.47985364178593" lon="10.48565789598432"><ele>210.0</ele><time>2026-03-29T13:16:13Z</time></trkpt><trkpt lat="45.47993284621221" lon="10.48549110104276"><ele>210.0</ele><time>2026-03-29T13:16:14Z</time></trkpt><trkpt lat="45.480000563973725" lon="10.485333388765191"><ele>210.0</ele><time>2026-03-29T13:16:15Z</time></trkpt><trkpt lat="45.480069998236644" lon="10.485166003648057"><ele>210.0</ele><time>2026-03-29T13:16:16Z</time></trkpt><trkpt lat="45.48012482207042" lon="10.48503090750072"><ele>210.8</ele><time>2026-03-29T13:16:17Z</time></trkpt><trkpt lat="45.48015907914069" lon="10.484931288727688"><ele>211.6</ele><time>2026-03-29T13:16:18Z</time></trkpt><trkpt lat="45.48019927521742" lon="10.48481469652773"><ele>212.39999999999998</ele><time>2026-03-29T13:16:19Z</time></trkpt><trkpt lat="45.48024195741979" lon="10.48462696637955"><ele>213.2</ele><time>2026-03-29T13:16:20Z</time></trkpt><trkpt lat="45.4802541985045" lon="10.484487756172166"><ele>214.0</ele><time>2026-03-29T13:16:21Z</time></trkpt><trkpt lat="45.48023908915536" lon="10.484343624963412"><ele>215.0</ele><time>2026-03-29T13:16:22Z</time></trkpt><trkpt lat="45.480217844631554" lon="10.484207647722265"><ele>216.0</ele><time>2026-03-29T13:16:23Z</time></trkpt><trkpt lat="45.480185992830485" lon="10.484055973909816"><ele>217.0</ele><time>2026-03-29T13:16:24Z</time></trkpt><trkpt lat="45.48012950172854" lon="10.483894301464238"><ele>218.0</ele><time>2026-03-29T13:16:25Z</time></trkpt><trkpt lat="45.48007618146153" lon="10.483736801878965"><ele>219.0</ele><time>2026-03-29T13:16:26Z</time></trkpt><trkpt lat="45.480017238876215" lon="10.483607138763794"><ele>220.0</ele><time>2026-03-29T13:16:27Z</time></trkpt><trkpt lat="45.47993546993247" lon="10.483493100790295"><ele>221.0</ele><time>2026-03-29T13:16:28Z</time></trkpt><trkpt lat="45.47985364234028" lon="10.483354548286988"><ele>222.0</ele><time>2026-03-29T13:16:29Z</time></trkpt><trkpt lat="45.47979453387777" lon="10.483241885985253"><ele>223.0</ele><time>2026-03-29T13:16:30Z</time></trkpt><trkpt lat="45.47976597822576" lon="10.483154725374918"><ele>223.0</ele><time>2026-03-29T13:16:31Z</time></trkpt><trkpt lat="45.479755100572746" lon="10.483062047524406"><ele>223.0</ele><time>2026-03-29T13:16:32Z</time></trkpt><trkpt lat="45.479753761103154" lon="10.482957520103655"><ele>223.0</ele><time>2026-03-29T13:16:33Z</time></trkpt><trkpt lat="45.479731260908224" lon="10.482799618061662"><ele>223.0</ele><time>2026-03-29T13:16:34Z</time></trkpt><trkpt lat="45.479706196872634" lon="10.482656000287676"><ele>223.0</ele><time>2026-03-29T13:16:35Z</time></trkpt><trkpt lat="45.47968722350511" lon="10.482500829464403"><ele>223.16666666666666</ele><time>2026-03-29T13:16:36Z</time></trkpt><trkpt lat="45.47967298016474" lon="10.482395859663102"><ele>223.33333333333331</ele><time>2026-03-29T13:16:37Z</time></trkpt><trkpt lat="45.47966504437419" lon="10.482301154127988"><ele>223.5</ele><time>2026-03-29T13:16:38Z</time></trkpt><trkpt lat="45.47967121558213" lon="10.482189680891812"><ele>223.66666666666669</ele><time>2026-03-29T13:16:39Z</time></trkpt><trkpt lat="45.47967487182389" lon="10.482051495398201"><ele>223.83333333333334</ele><time>2026-03-29T13:16:40Z</time></trkpt><trkpt lat="45.47965260060946" lon="10.481912471232535"><ele>224.0</ele><time>2026-03-29T13:16:41Z</time></trkpt><trkpt lat="45.47958376881211" lon="10.481789183187209"><ele>224.0</ele><time>2026-03-29T13:16:42Z</time></trkpt><trkpt lat="45.47949093625944" lon="10.48162315055291"><ele>224.0</ele><time>2026-03-29T13:16:43Z</time></trkpt><trkpt lat="45.479413555533384" lon="10.481418545329662"><ele>224.0</ele><time>2026-03-29T13:16:44Z</time></trkpt><trkpt lat="45.47934256321648" lon="10.481205961023786"><ele>222.0</ele><time>2026-03-29T13:16:45Z</time></trkpt><trkpt lat="45.47928918487456" lon="10.4810073893704"><ele>220.0</ele><time>2026-03-29T13:16:46Z</time></trkpt><trkpt lat="45.479248197888346" lon="10.480831043148507"><ele>218.0</ele><time>2026-03-29T13:16:47Z</time></trkpt><trkpt lat="45.47920425054662" lon="10.480701761142855"><ele>216.0</ele><time>2026-03-29T13:16:48Z</time></trkpt><trkpt lat="45.47916335106028" lon="10.480587529843701"><ele>216.0</ele><time>2026-03-29T13:16:50Z</time></trkpt><trkpt lat="45.479034548205725" lon="10.480567200395107"><ele>216.00000000000003</ele><time>2026-03-29T13:16:52Z</time></trkpt><trkpt lat="45.47894136210416" lon="10.48056132469922"><ele>216.00000000000003</ele><time>2026-03-29T13:16:53Z</time></trkpt><trkpt lat="45.4788270185864" lon="10.480521686502746"><ele>216.0</ele><time>2026-03-29T13:16:54Z</time></trkpt><trkpt lat="45.47872618547042" lon="10.480506917025064"><ele>216.0</ele><time>2026-03-29T13:16:55Z</time></trkpt><trkpt lat="45.47860600423324" lon="10.480503683117808"><ele>216.16666666666666</ele><time>2026-03-29T13:16:56Z</time></trkpt><trkpt lat="45.478522309225475" lon="10.480478403688853"><ele>216.33333333333331</ele><time>2026-03-29T13:16:57Z</time></trkpt><trkpt lat="45.47845941539762" lon="10.480450953373296"><ele>216.5</ele><time>2026-03-29T13:16:58Z</time></trkpt><trkpt lat="45.47842060824274" lon="10.480366129859274"><ele>216.66666666666666</ele><time>2026-03-29T13:17:00Z</time></trkpt><trkpt lat="45.478431830587404" lon="10.480277285061613"><ele>216.83333333333331</ele><time>2026-03-29T13:17:01Z</time></trkpt><trkpt lat="45.47843312219305" lon="10.480177804346225"><ele>217.0</ele><time>2026-03-29T13:17:02Z</time></trkpt><trkpt lat="45.47841544442073" lon="10.48003580448301"><ele>216.49999999999997</ele><time>2026-03-29T13:17:03Z</time></trkpt><trkpt lat="45.478391134272286" lon="10.479916018991053"><ele>216.0</ele><time>2026-03-29T13:17:04Z</time></trkpt><trkpt lat="45.478365834824075" lon="10.479833661041924"><ele>215.5</ele><time>2026-03-29T13:17:05Z</time></trkpt><trkpt lat="45.4783173337572" lon="10.479769752096075"><ele>215.0</ele><time>2026-03-29T13:17:06Z</time></trkpt><trkpt lat="45.478235883728296" lon="10.47975186526759"><ele>214.49999999999997</ele><time>2026-03-29T13:17:07Z</time></trkpt><trkpt lat="45.478153023163884" lon="10.479731952189262"><ele>214.0</ele><time>2026-03-29T13:17:08Z</time></trkpt><trkpt lat="45.47805665163203" lon="10.479730034584618"><ele>214.0</ele><time>2026-03-29T13:17:09Z</time></trkpt><trkpt lat="45.47794072348656" lon="10.479731336854375"><ele>213.99999999999997</ele><time>2026-03-29T13:17:10Z</time></trkpt><trkpt lat="45.47781390618122" lon="10.47973608772035"><ele>213.99999999999997</ele><time>2026-03-29T13:17:11Z</time></trkpt><trkpt lat="45.47772422276878" lon="10.479730468384513"><ele>214.0</ele><time>2026-03-29T13:17:12Z</time></trkpt><trkpt lat="45.47763720707865" lon="10.479711766796944"><ele>214.0</ele><time>2026-03-29T13:17:13Z</time></trkpt><trkpt lat="45.47755637842672" lon="10.479643917439775"><ele>213.0</ele><time>2026-03-29T13:17:14Z</time></trkpt><trkpt lat="45.47745558822981" lon="10.479562125004133"><ele>211.99999999999997</ele><time>2026-03-29T13:17:15Z</time></trkpt><trkpt lat="45.47734985919317" lon="10.479481962566833"><ele>211.0</ele><time>2026-03-29T13:17:16Z</time></trkpt><trkpt lat="45.477247786701014" lon="10.479398808046003"><ele>210.0</ele><time>2026-03-29T13:17:17Z</time></trkpt><trkpt lat="45.47717431493169" lon="10.479335002801196"><ele>209.0</ele><time>2026-03-29T13:17:18Z</time></trkpt><trkpt lat="45.47709122029621" lon="10.479274912838159"><ele>208.79999999999998</ele><time>2026-03-29T13:17:19Z</time></trkpt><trkpt lat="45.4770789975026" lon="10.479085373100025"><ele>208.6</ele><time>2026-03-29T13:17:21Z</time></trkpt><trkpt lat="45.47704694519527" lon="10.478937232172305"><ele>208.4</ele><time>2026-03-29T13:17:22Z</time></trkpt><trkpt lat="45.477013582467684" lon="10.478809063198792"><ele>208.2</ele><time>2026-03-29T13:17:23Z</time></trkpt><trkpt lat="45.47697311864997" lon="10.478725607006416"><ele>208.0</ele><time>2026-03-29T13:17:24Z</time></trkpt><trkpt lat="45.476909899966586" lon="10.478686008852693"><ele>207.8</ele><time>2026-03-29T13:17:25Z</time></trkpt><trkpt lat="45.476848303909804" lon="10.478639467832767"><ele>207.60000000000002</ele><time>2026-03-29T13:17:26Z</time></trkpt><trkpt lat="45.4767596321753" lon="10.478557822877095"><ele>207.39999999999998</ele><time>2026-03-29T13:17:27Z</time></trkpt><trkpt lat="45.47666126850642" lon="10.478436362394092"><ele>207.2</ele><time>2026-03-29T13:17:28Z</time></trkpt><trkpt lat="45.47654837767104" lon="10.478330175995948"><ele>207.0</ele><time>2026-03-29T13:17:29Z</time></trkpt><trkpt lat="45.47644753385744" lon="10.478260372213366"><ele>207.0</ele><time>2026-03-29T13:17:30Z</time></trkpt><trkpt lat="45.47638362735118" lon="10.478191305924755"><ele>207.0</ele><time>2026-03-29T13:17:31Z</time></trkpt><trkpt lat="45.47633599476304" lon="10.478121216921176"><ele>207.0</ele><time>2026-03-29T13:17:32Z</time></trkpt><trkpt lat="45.47629441216496" lon="10.478038160701665"><ele>207.0</ele><time>2026-03-29T13:17:33Z</time></trkpt><trkpt lat="45.47625337624602" lon="10.477929503459201"><ele>207.0</ele><time>2026-03-29T13:17:34Z</time></trkpt><trkpt lat="45.476208059043984" lon="10.47779734902059"><ele>207.0</ele><time>2026-03-29T13:17:35Z</time></trkpt><trkpt lat="45.476152130070254" lon="10.477680838877133"><ele>205.8</ele><time>2026-03-29T13:17:36Z</time></trkpt><trkpt lat="45.476120192002156" lon="10.477583868337852"><ele>204.6</ele><time>2026-03-29T13:17:37Z</time></trkpt><trkpt lat="45.47607281504725" lon="10.477493555511556"><ele>203.4</ele><time>2026-03-29T13:17:39Z</time></trkpt><trkpt lat="45.47594801177005" lon="10.47751233809315"><ele>202.20000000000002</ele><time>2026-03-29T13:17:42Z</time></trkpt><trkpt lat="45.47586888728997" lon="10.477619192224989"><ele>201.0</ele><time>2026-03-29T13:17:43Z</time></trkpt><trkpt lat="45.475740777523164" lon="10.47772623820928"><ele>201.0</ele><time>2026-03-29T13:17:44Z</time></trkpt><trkpt lat="45.47558783766066" lon="10.4778741987703"><ele>201.0</ele><time>2026-03-29T13:17:45Z</time></trkpt><trkpt lat="45.47543425759251" lon="10.478013348717068"><ele>201.0</ele><time>2026-03-29T13:17:46Z</time></trkpt><trkpt lat="45.47529537714641" lon="10.478110358035076"><ele>200.25</ele><time>2026-03-29T13:17:47Z</time></trkpt><trkpt lat="45.475159516390114" lon="10.478168695114121"><ele>199.5</ele><time>2026-03-29T13:17:48Z</time></trkpt><trkpt lat="45.47502853211732" lon="10.478201673915896"><ele>198.75</ele><time>2026-03-29T13:17:49Z</time></trkpt><trkpt lat="45.47490590126516" lon="10.478194980701891"><ele>198.0</ele><time>2026-03-29T13:17:50Z</time></trkpt><trkpt lat="45.474788207163634" lon="10.478136212808126"><ele>198.0</ele><time>2026-03-29T13:17:51Z</time></trkpt><trkpt lat="45.47469341989579" lon="10.478037767626617"><ele>198.0</ele><time>2026-03-29T13:17:52Z</time></trkpt><trkpt lat="45.47462170787434" lon="10.477907919988644"><ele>198.0</ele><time>2026-03-29T13:17:53Z</time></trkpt><trkpt lat="45.47459339152911" lon="10.477749582831343"><ele>198.0</ele><time>2026-03-29T13:17:54Z</time></trkpt><trkpt lat="45.47461600301962" lon="10.477562009915491"><ele>197.66666666666669</ele><time>2026-03-29T13:17:55Z</time></trkpt><trkpt lat="45.47464046375135" lon="10.477329748170838"><ele>197.33333333333334</ele><time>2026-03-29T13:17:56Z</time></trkpt><trkpt lat="45.47465502546565" lon="10.477060661650858"><ele>197.0</ele><time>2026-03-29T13:17:57Z</time></trkpt><trkpt lat="45.4746967735375" lon="10.476780155158512"><ele>196.33333333333334</ele><time>2026-03-29T13:17:58Z</time></trkpt><trkpt lat="45.47472593201135" lon="10.476485888802838"><ele>195.66666666666669</ele><time>2026-03-29T13:17:59Z</time></trkpt><trkpt lat="45.474741806739715" lon="10.476177685030866"><ele>195.0</ele><time>2026-03-29T13:18:00Z</time></trkpt><trkpt lat="45.4747332640329" lon="10.475865020732574"><ele>194.0</ele><time>2026-03-29T13:18:01Z</time></trkpt><trkpt lat="45.47470121454971" lon="10.47554568957205"><ele>193.0</ele><time>2026-03-29T13:18:02Z</time></trkpt><trkpt lat="45.47464427739791" lon="10.475182773925315"><ele>190.5</ele><time>2026-03-29T13:18:03Z</time></trkpt><trkpt lat="45.47457537077242" lon="10.47482961754211"><ele>188.0</ele><time>2026-03-29T13:18:04Z</time></trkpt><trkpt lat="45.47453265436632" lon="10.474500995288142"><ele>187.0</ele><time>2026-03-29T13:18:05Z</time></trkpt><trkpt lat="45.47448509479158" lon="10.474209044909404"><ele>186.0</ele><time>2026-03-29T13:18:06Z</time></trkpt><trkpt lat="45.47441180930856" lon="10.473941611209625"><ele>185.0</ele><time>2026-03-29T13:18:07Z</time></trkpt><trkpt lat="45.47433974710163" lon="10.473652694169017"><ele>184.0</ele><time>2026-03-29T13:18:08Z</time></trkpt><trkpt lat="45.474250630373426" lon="10.47336200389142"><ele>183.0</ele><time>2026-03-29T13:18:09Z</time></trkpt><trkpt lat="45.47416421652676" lon="10.473078311049278"><ele>182.0</ele><time>2026-03-29T13:18:10Z</time></trkpt><trkpt lat="45.4741109438813" lon="10.472822107429101"><ele>181.8</ele><time>2026-03-29T13:18:11Z</time></trkpt><trkpt lat="45.474047488613884" lon="10.472639782265349"><ele>181.6</ele><time>2026-03-29T13:18:12Z</time></trkpt><trkpt lat="45.47401712135261" lon="10.472486840685821"><ele>181.4</ele><time>2026-03-29T13:18:13Z</time></trkpt><trkpt lat="45.47400533259304" lon="10.472368905446736"><ele>181.20000000000002</ele><time>2026-03-29T13:18:14Z</time></trkpt><trkpt lat="45.474006638563594" lon="10.472273588546038"><ele>181.0</ele><time>2026-03-29T13:18:15Z</time></trkpt><trkpt lat="45.474046739463795" lon="10.472140152307206"><ele>180.33333333333334</ele><time>2026-03-29T13:18:17Z</time></trkpt><trkpt lat="45.47408061216981" lon="10.472056438110815"><ele>179.66666666666669</ele><time>2026-03-29T13:18:19Z</time></trkpt><trkpt lat="45.474115528566806" lon="10.471979533461282"><ele>179.0</ele><time>2026-03-29T13:18:25Z</time></trkpt><trkpt lat="45.474169114521644" lon="10.471910986288664"><ele>178.33333333333334</ele><time>2026-03-29T13:18:26Z</time></trkpt><trkpt lat="45.47430834730478" lon="10.47182067586816"><ele>177.66666666666666</ele><time>2026-03-29T13:18:28Z</time></trkpt><trkpt lat="45.47439019471893" lon="10.47178108373046"><ele>177.0</ele><time>2026-03-29T13:18:29Z</time></trkpt><trkpt lat="45.474480323487015" lon="10.4717310133211"><ele>177.0</ele><time>2026-03-29T13:18:30Z</time></trkpt><trkpt lat="45.47457487529438" lon="10.47166585232347"><ele>177.0</ele><time>2026-03-29T13:18:31Z</time></trkpt><trkpt lat="45.47468134502639" lon="10.47159173223467"><ele>177.0</ele><time>2026-03-29T13:18:32Z</time></trkpt><trkpt lat="45.47479520318937" lon="10.471494480518636"><ele>177.0</ele><time>2026-03-29T13:18:33Z</time></trkpt><trkpt lat="45.47489492156646" lon="10.471392584642672"><ele>174.66666666666666</ele><time>2026-03-29T13:18:34Z</time></trkpt><trkpt lat="45.47497565880564" lon="10.471239378640293"><ele>172.33333333333331</ele><time>2026-03-29T13:18:35Z</time></trkpt><trkpt lat="45.4750423028894" lon="10.471041319063294"><ele>170.0</ele><time>2026-03-29T13:18:36Z</time></trkpt><trkpt lat="45.47508483976004" lon="10.470788840260347"><ele>170.0</ele><time>2026-03-29T13:18:37Z</time></trkpt><trkpt lat="45.4751014338071" lon="10.47047443634687"><ele>170.0</ele><time>2026-03-29T13:18:38Z</time></trkpt><trkpt lat="45.47510577002037" lon="10.470100415429522"><ele>168.0</ele><time>2026-03-29T13:18:39Z</time></trkpt><trkpt lat="45.47511001237889" lon="10.469703674815594"><ele>166.0</ele><time>2026-03-29T13:18:40Z</time></trkpt><trkpt lat="45.47511640946643" lon="10.469285351531484"><ele>166.0</ele><time>2026-03-29T13:18:41Z</time></trkpt><trkpt lat="45.47514676167582" lon="10.468886073412603"><ele>166.0</ele><time>2026-03-29T13:18:42Z</time></trkpt><trkpt lat="45.4751452578835" lon="10.468520404955099"><ele>165.0</ele><time>2026-03-29T13:18:43Z</time></trkpt><trkpt lat="45.475157935226854" lon="10.468168732120372"><ele>164.0</ele><time>2026-03-29T13:18:44Z</time></trkpt><trkpt lat="45.4751698768069" lon="10.46780957795326"><ele>163.0</ele><time>2026-03-29T13:18:45Z</time></trkpt><trkpt lat="45.47518457730832" lon="10.467445324915866"><ele>162.0</ele><time>2026-03-29T13:18:46Z</time></trkpt><trkpt lat="45.475202291602024" lon="10.46708311640545"><ele>161.5</ele><time>2026-03-29T13:18:47Z</time></trkpt><trkpt lat="45.47524433585736" lon="10.466722402023738"><ele>161.0</ele><time>2026-03-29T13:18:48Z</time></trkpt><trkpt lat="45.47527638125528" lon="10.46636412106027"><ele>160.0</ele><time>2026-03-29T13:18:49Z</time></trkpt><trkpt lat="45.47530755685531" lon="10.466015564783492"><ele>159.0</ele><time>2026-03-29T13:18:50Z</time></trkpt><trkpt lat="45.47532094934763" lon="10.46565588578244"><ele>158.5</ele><time>2026-03-29T13:18:51Z</time></trkpt><trkpt lat="45.47535358368794" lon="10.465308197118764"><ele>158.0</ele><time>2026-03-29T13:18:52Z</time></trkpt><trkpt lat="45.475367919479254" lon="10.464994317152936"><ele>158.0</ele><time>2026-03-29T13:18:53Z</time></trkpt><trkpt lat="45.47539193099857" lon="10.464658169404116"><ele>158.0</ele><time>2026-03-29T13:18:54Z</time></trkpt><trkpt lat="45.475389838974806" lon="10.464314418915801"><ele>157.5</ele><time>2026-03-29T13:18:55Z</time></trkpt><trkpt lat="45.475356938770084" lon="10.463969891322154"><ele>157.0</ele><time>2026-03-29T13:18:56Z</time></trkpt><trkpt lat="45.47535374131645" lon="10.463650583057031"><ele>156.66666666666669</ele><time>2026-03-29T13:18:57Z</time></trkpt><trkpt lat="45.47532745244461" lon="10.463388153940263"><ele>156.33333333333334</ele><time>2026-03-29T13:18:58Z</time></trkpt><trkpt lat="45.47532779913727" lon="10.463153930915436"><ele>156.0</ele><time>2026-03-29T13:18:59Z</time></trkpt><trkpt lat="45.475368262833435" lon="10.462964748853079"><ele>156.0</ele><time>2026-03-29T13:19:00Z</time></trkpt><trkpt lat="45.47541055074963" lon="10.462795803552153"><ele>156.0</ele><time>2026-03-29T13:19:01Z</time></trkpt><trkpt lat="45.475475372272705" lon="10.462626283699707"><ele>156.0</ele><time>2026-03-29T13:19:02Z</time></trkpt><trkpt lat="45.475563872874446" lon="10.462486741502206"><ele>156.0</ele><time>2026-03-29T13:19:03Z</time></trkpt><trkpt lat="45.47567686281033" lon="10.462349354401884"><ele>155.33333333333334</ele><time>2026-03-29T13:19:04Z</time></trkpt><trkpt lat="45.47579342697791" lon="10.462178755763468"><ele>154.66666666666669</ele><time>2026-03-29T13:19:05Z</time></trkpt><trkpt lat="45.47590642096381" lon="10.462007268394569"><ele>154.0</ele><time>2026-03-29T13:19:06Z</time></trkpt><trkpt lat="45.475986837883056" lon="10.461832527488752"><ele>154.0</ele><time>2026-03-29T13:19:07Z</time></trkpt><trkpt lat="45.47605136145807" lon="10.461666031062324"><ele>154.0</ele><time>2026-03-29T13:19:08Z</time></trkpt><trkpt lat="45.47610866872027" lon="10.461502434327176"><ele>154.0</ele><time>2026-03-29T13:19:09Z</time></trkpt><trkpt lat="45.4761596048887" lon="10.46133196090616"><ele>154.0</ele><time>2026-03-29T13:19:10Z</time></trkpt><trkpt lat="45.476209065709" lon="10.46116246078212"><ele>154.33333333333334</ele><time>2026-03-29T13:19:11Z</time></trkpt><trkpt lat="45.476281239653865" lon="10.460977701733166"><ele>154.66666666666666</ele><time>2026-03-29T13:19:12Z</time></trkpt><trkpt lat="45.47634484727538" lon="10.460752890782546"><ele>155.0</ele><time>2026-03-29T13:19:13Z</time></trkpt><trkpt lat="45.47638587357354" lon="10.460527319122804"><ele>155.0</ele><time>2026-03-29T13:19:14Z</time></trkpt><trkpt lat="45.476441771716196" lon="10.460292563613987"><ele>155.0</ele><time>2026-03-29T13:19:15Z</time></trkpt><trkpt lat="45.476492008820365" lon="10.460064647638788"><ele>155.0</ele><time>2026-03-29T13:19:16Z</time></trkpt><trkpt lat="45.47654226547123" lon="10.45984245115205"><ele>155.0</ele><time>2026-03-29T13:19:17Z</time></trkpt><trkpt lat="45.4766015868601" lon="10.459607243686312"><ele>155.0</ele><time>2026-03-29T13:19:18Z</time></trkpt><trkpt lat="45.47667712303925" lon="10.459357581974723"><ele>155.0</ele><time>2026-03-29T13:19:19Z</time></trkpt><trkpt lat="45.47676028137337" lon="10.459103316617952"><ele>155.0</ele><time>2026-03-29T13:19:20Z</time></trkpt><trkpt lat="45.476832351193956" lon="10.458865369077184"><ele>155.0</ele><time>2026-03-29T13:19:21Z</time></trkpt><trkpt lat="45.476879150576075" lon="10.458638429422907"><ele>155.0</ele><time>2026-03-29T13:19:22Z</time></trkpt><trkpt lat="45.47691301259028" lon="10.458434155603642"><ele>155.0</ele><time>2026-03-29T13:19:23Z</time></trkpt><trkpt lat="45.47694733543275" lon="10.458223123936826"><ele>155.0</ele><time>2026-03-29T13:19:24Z</time></trkpt><trkpt lat="45.476985870954515" lon="10.457995211166399"><ele>155.0</ele><time>2026-03-29T13:19:25Z</time></trkpt><trkpt lat="45.47702993059053" lon="10.45775848004142"><ele>155.0</ele><time>2026-03-29T13:19:26Z</time></trkpt><trkpt lat="45.47707584359955" lon="10.457522606084364"><ele>155.0</ele><time>2026-03-29T13:19:27Z</time></trkpt><trkpt lat="45.477120872051096" lon="10.457275409397214"><ele>155.0</ele><time>2026-03-29T13:19:28Z</time></trkpt><trkpt lat="45.47716579715317" lon="10.457041050223788"><ele>154.5</ele><time>2026-03-29T13:19:29Z</time></trkpt><trkpt lat="45.47720901330098" lon="10.45682275644848"><ele>154.0</ele><time>2026-03-29T13:19:30Z</time></trkpt><trkpt lat="45.477258626990015" lon="10.456628441689471"><ele>153.5</ele><time>2026-03-29T13:19:31Z</time></trkpt><trkpt lat="45.47730481169904" lon="10.456455988138167"><ele>153.0</ele><time>2026-03-29T13:19:32Z</time></trkpt><trkpt lat="45.477343731370254" lon="10.456301130725883"><ele>153.25</ele><time>2026-03-29T13:19:33Z</time></trkpt><trkpt lat="45.477379592717675" lon="10.456184548088945"><ele>153.5</ele><time>2026-03-29T13:19:34Z</time></trkpt><trkpt lat="45.47741982581635" lon="10.456087184232924"><ele>153.75</ele><time>2026-03-29T13:19:35Z</time></trkpt><trkpt lat="45.47753113435478" lon="10.45598766679755"><ele>154.0</ele><time>2026-03-29T13:19:36Z</time></trkpt><trkpt lat="45.47766141835559" lon="10.455847419445051"><ele>154.0</ele><time>2026-03-29T13:19:37Z</time></trkpt><trkpt lat="45.477827220446926" lon="10.455659462525624"><ele>154.0</ele><time>2026-03-29T13:19:38Z</time></trkpt><trkpt lat="45.4780067729082" lon="10.455435106088997"><ele>152.5</ele><time>2026-03-29T13:19:39Z</time></trkpt><trkpt lat="45.4781994732478" lon="10.455196027090556"><ele>151.0</ele><time>2026-03-29T13:19:40Z</time></trkpt><trkpt lat="45.4783760395656" lon="10.454967755824981"><ele>151.0</ele><time>2026-03-29T13:19:41Z</time></trkpt><trkpt lat="45.47853589969379" lon="10.454771224235326"><ele>151.0</ele><time>2026-03-29T13:19:42Z</time></trkpt><trkpt lat="45.47868546082594" lon="10.454583567205665"><ele>151.0</ele><time>2026-03-29T13:19:43Z</time></trkpt><trkpt lat="45.47882676429864" lon="10.454405429544336"><ele>151.0</ele><time>2026-03-29T13:19:44Z</time></trkpt><trkpt lat="45.47895926248165" lon="10.454236633834308"><ele>151.0</ele><time>2026-03-29T13:19:45Z</time></trkpt><trkpt lat="45.47909104192628" lon="10.454076048378875"><ele>151.0</ele><time>2026-03-29T13:19:46Z</time></trkpt><trkpt lat="45.47922574931292" lon="10.453916712522663"><ele>151.0</ele><time>2026-03-29T13:19:47Z</time></trkpt><trkpt lat="45.479352411327824" lon="10.453779894911694"><ele>151.0</ele><time>2026-03-29T13:19:48Z</time></trkpt><trkpt lat="45.47948784078774" lon="10.453651837493968"><ele>151.0</ele><time>2026-03-29T13:19:49Z</time></trkpt><trkpt lat="45.47960905715999" lon="10.453549670154633"><ele>151.2</ele><time>2026-03-29T13:19:50Z</time></trkpt><trkpt lat="45.47972382427458" lon="10.453454052594333"><ele>151.39999999999998</ele><time>2026-03-29T13:19:51Z</time></trkpt><trkpt lat="45.479823545229934" lon="10.453376979296"><ele>151.6</ele><time>2026-03-29T13:19:52Z</time></trkpt><trkpt lat="45.47990096440587" lon="10.453321707619281"><ele>151.79999999999998</ele><time>2026-03-29T13:19:53Z</time></trkpt><trkpt lat="45.47997291103629" lon="10.45329536057238"><ele>152.0</ele><time>2026-03-29T13:19:54Z</time></trkpt><trkpt lat="45.48006034196636" lon="10.45328917765768"><ele>152.0</ele><time>2026-03-29T13:19:55Z</time></trkpt><trkpt lat="45.48017532468797" lon="10.453295450230515"><ele>152.0</ele><time>2026-03-29T13:19:56Z</time></trkpt><trkpt lat="45.480321260327315" lon="10.45330581015456"><ele>152.0</ele><time>2026-03-29T13:19:57Z</time></trkpt><trkpt lat="45.48045473498661" lon="10.453334612409236"><ele>152.0</ele><time>2026-03-29T13:19:58Z</time></trkpt><trkpt lat="45.48063855989019" lon="10.453359182666192"><ele>151.66666666666666</ele><time>2026-03-29T13:19:59Z</time></trkpt><trkpt lat="45.48083499793801" lon="10.453395032977499"><ele>151.33333333333334</ele><time>2026-03-29T13:20:00Z</time></trkpt><trkpt lat="45.481027068191615" lon="10.453419526099156"><ele>151.0</ele><time>2026-03-29T13:20:01Z</time></trkpt><trkpt lat="45.48122054419777" lon="10.453446750070876"><ele>151.33333333333334</ele><time>2026-03-29T13:20:02Z</time></trkpt><trkpt lat="45.48139423088423" lon="10.453477046497165"><ele>151.66666666666666</ele><time>2026-03-29T13:20:03Z</time></trkpt><trkpt lat="45.48157390705105" lon="10.453507379059355"><ele>152.0</ele><time>2026-03-29T13:20:04Z</time></trkpt><trkpt lat="45.481731662857634" lon="10.453533328043378"><ele>152.0</ele><time>2026-03-29T13:20:05Z</time></trkpt><trkpt lat="45.4819070700102" lon="10.453557561865559"><ele>152.0</ele><time>2026-03-29T13:20:06Z</time></trkpt><trkpt lat="45.482087193487395" lon="10.453592852358803"><ele>152.0</ele><time>2026-03-29T13:20:07Z</time></trkpt><trkpt lat="45.48228209175341" lon="10.453622862532004"><ele>152.0</ele><time>2026-03-29T13:20:08Z</time></trkpt><trkpt lat="45.482469001989074" lon="10.45364454889845"><ele>152.0</ele><time>2026-03-29T13:20:09Z</time></trkpt><trkpt lat="45.48263104080236" lon="10.45367286896103"><ele>152.0</ele><time>2026-03-29T13:20:10Z</time></trkpt><trkpt lat="45.482826187846044" lon="10.453698439156668"><ele>152.33333333333331</ele><time>2026-03-29T13:20:11Z</time></trkpt><trkpt lat="45.48302788887535" lon="10.453733837146117"><ele>152.66666666666666</ele><time>2026-03-29T13:20:12Z</time></trkpt><trkpt lat="45.4832215528714" lon="10.453755881408703"><ele>153.0</ele><time>2026-03-29T13:20:13Z</time></trkpt><trkpt lat="45.4833981383244" lon="10.45378181266777"><ele>153.33333333333334</ele><time>2026-03-29T13:20:14Z</time></trkpt><trkpt lat="45.48357996321915" lon="10.453806172036064"><ele>153.66666666666669</ele><time>2026-03-29T13:20:15Z</time></trkpt><trkpt lat="45.48375318874693" lon="10.453837180876242"><ele>154.0</ele><time>2026-03-29T13:20:16Z</time></trkpt><trkpt lat="45.48391622342923" lon="10.45386268397845"><ele>154.25</ele><time>2026-03-29T13:20:17Z</time></trkpt><trkpt lat="45.484051358576686" lon="10.453885122068757"><ele>154.5</ele><time>2026-03-29T13:20:18Z</time></trkpt><trkpt lat="45.48418208364813" lon="10.453910094624382"><ele>154.75</ele><time>2026-03-29T13:20:19Z</time></trkpt><trkpt lat="45.484289498538786" lon="10.453922813470372"><ele>155.0</ele><time>2026-03-29T13:20:20Z</time></trkpt><trkpt lat="45.48437981030389" lon="10.45393248449792"><ele>155.0</ele><time>2026-03-29T13:20:21Z</time></trkpt><trkpt lat="45.48445007235138" lon="10.45394178761629"><ele>155.0</ele><time>2026-03-29T13:20:22Z</time></trkpt><trkpt lat="45.48454172206049" lon="10.453962366520871"><ele>155.0</ele><time>2026-03-29T13:20:24Z</time></trkpt><trkpt lat="45.48456295926415" lon="10.454094645622757"><ele>155.0</ele><time>2026-03-29T13:20:26Z</time></trkpt><trkpt lat="45.48456307379419" lon="10.454206498552226"><ele>155.0</ele><time>2026-03-29T13:20:27Z</time></trkpt><trkpt lat="45.484543029694336" lon="10.454349202834614"><ele>155.0</ele><time>2026-03-29T13:20:28Z</time></trkpt><trkpt lat="45.484531668001395" lon="10.454447170258097"><ele>155.0</ele><time>2026-03-29T13:20:29Z</time></trkpt><trkpt lat="45.484524292279055" lon="10.454570287540157"><ele>155.0</ele><time>2026-03-29T13:20:30Z</time></trkpt><trkpt lat="45.484523693258026" lon="10.45472740170636"><ele>155.0</ele><time>2026-03-29T13:20:31Z</time></trkpt><trkpt lat="45.48452115785229" lon="10.454928959289083"><ele>155.0</ele><time>2026-03-29T13:20:32Z</time></trkpt><trkpt lat="45.48451733396449" lon="10.455133067250005"><ele>155.33333333333331</ele><time>2026-03-29T13:20:33Z</time></trkpt><trkpt lat="45.484521166750405" lon="10.455355495775835"><ele>155.66666666666666</ele><time>2026-03-29T13:20:34Z</time></trkpt><trkpt lat="45.48451988209246" lon="10.455587838745293"><ele>156.0</ele><time>2026-03-29T13:20:35Z</time></trkpt><trkpt lat="45.484516570401894" lon="10.455826166312645"><ele>156.25</ele><time>2026-03-29T13:20:36Z</time></trkpt><trkpt lat="45.48451858235676" lon="10.456011708484478"><ele>156.5</ele><time>2026-03-29T13:20:37Z</time></trkpt><trkpt lat="45.48452552840285" lon="10.456213335300543"><ele>156.75</ele><time>2026-03-29T13:20:38Z</time></trkpt><trkpt lat="45.484526299141024" lon="10.456430581316967"><ele>157.0</ele><time>2026-03-29T13:20:39Z</time></trkpt><trkpt lat="45.48452531071778" lon="10.456663996513749"><ele>157.0</ele><time>2026-03-29T13:20:40Z</time></trkpt><trkpt lat="45.48452363436138" lon="10.456890259150377"><ele>157.0</ele><time>2026-03-29T13:20:41Z</time></trkpt><trkpt lat="45.484520993052406" lon="10.45712395490187"><ele>157.0</ele><time>2026-03-29T13:20:42Z</time></trkpt><trkpt lat="45.48451802536698" lon="10.4573156719541"><ele>157.0</ele><time>2026-03-29T13:20:43Z</time></trkpt><trkpt lat="45.48451980118633" lon="10.457513188615028"><ele>157.0</ele><time>2026-03-29T13:20:44Z</time></trkpt><trkpt lat="45.48451461433546" lon="10.457719352231384"><ele>157.0</ele><time>2026-03-29T13:20:45Z</time></trkpt><trkpt lat="45.48451334822537" lon="10.457890070151112"><ele>157.0</ele><time>2026-03-29T13:20:46Z</time></trkpt><trkpt lat="45.484508839982716" lon="10.458007474943022"><ele>157.2</ele><time>2026-03-29T13:20:47Z</time></trkpt><trkpt lat="45.48449375025449" lon="10.45809969718147"><ele>157.39999999999998</ele><time>2026-03-29T13:20:48Z</time></trkpt><trkpt lat="45.48445513436965" lon="10.4582057117099"><ele>157.60000000000002</ele><time>2026-03-29T13:20:49Z</time></trkpt><trkpt lat="45.48438693859316" lon="10.45832775536851"><ele>157.8</ele><time>2026-03-29T13:20:50Z</time></trkpt><trkpt lat="45.48430029739257" lon="10.458469402774984"><ele>158.0</ele><time>2026-03-29T13:20:51Z</time></trkpt><trkpt lat="45.4842056845772" lon="10.45859110685878"><ele>158.0</ele><time>2026-03-29T13:20:52Z</time></trkpt><trkpt lat="45.48412456205899" lon="10.45869838565676"><ele>158.0</ele><time>2026-03-29T13:20:53Z</time></trkpt><trkpt lat="45.48403835552472" lon="10.458833445074477"><ele>158.0</ele><time>2026-03-29T13:20:54Z</time></trkpt><trkpt lat="45.483946852064356" lon="10.458969934088435"><ele>158.0</ele><time>2026-03-29T13:20:55Z</time></trkpt><trkpt lat="45.48386144207365" lon="10.459108744119298"><ele>158.16666666666666</ele><time>2026-03-29T13:20:56Z</time></trkpt><trkpt lat="45.483799242716984" lon="10.459206060023503"><ele>158.33333333333331</ele><time>2026-03-29T13:20:57Z</time></trkpt><trkpt lat="45.48375325941739" lon="10.459280350477544"><ele>158.5</ele><time>2026-03-29T13:20:58Z</time></trkpt><trkpt lat="45.48373765785586" lon="10.459411385743147"><ele>158.66666666666666</ele><time>2026-03-29T13:21:00Z</time></trkpt><trkpt lat="45.48374757464939" lon="10.459500141863229"><ele>158.83333333333334</ele><time>2026-03-29T13:21:01Z</time></trkpt><trkpt lat="45.48377632805385" lon="10.459614159334235"><ele>159.0</ele><time>2026-03-29T13:21:02Z</time></trkpt><trkpt lat="45.48381925295002" lon="10.45979481077712"><ele>160.0</ele><time>2026-03-29T13:21:03Z</time></trkpt><trkpt lat="45.48385228157729" lon="10.460000701682556"><ele>161.0</ele><time>2026-03-29T13:21:04Z</time></trkpt><trkpt lat="45.48388018220694" lon="10.460215516411115"><ele>162.0</ele><time>2026-03-29T13:21:05Z</time></trkpt><trkpt lat="45.48390220689887" lon="10.460439815674194"><ele>162.25</ele><time>2026-03-29T13:21:06Z</time></trkpt><trkpt lat="45.483915966276165" lon="10.460646646489264"><ele>162.5</ele><time>2026-03-29T13:21:07Z</time></trkpt><trkpt lat="45.48392279300518" lon="10.460840348920865"><ele>162.75</ele><time>2026-03-29T13:21:08Z</time></trkpt><trkpt lat="45.48392210262297" lon="10.461064390669806"><ele>163.0</ele><time>2026-03-29T13:21:09Z</time></trkpt><trkpt lat="45.48391684878758" lon="10.461282112047066"><ele>162.8</ele><time>2026-03-29T13:21:10Z</time></trkpt><trkpt lat="45.48391125354932" lon="10.46145601810934"><ele>162.60000000000002</ele><time>2026-03-29T13:21:11Z</time></trkpt><trkpt lat="45.48390824791561" lon="10.461586194342871"><ele>162.39999999999998</ele><time>2026-03-29T13:21:12Z</time></trkpt><trkpt lat="45.48389667900338" lon="10.461698656360166"><ele>162.2</ele><time>2026-03-29T13:21:13Z</time></trkpt><trkpt lat="45.48392386187169" lon="10.461848327537421"><ele>162.0</ele><time>2026-03-29T13:21:15Z</time></trkpt><trkpt lat="45.48396556427194" lon="10.461925088971443"><ele>162.0</ele><time>2026-03-29T13:21:16Z</time></trkpt><trkpt lat="45.48402578417296" lon="10.462010798748004"><ele>162.0</ele><time>2026-03-29T13:21:17Z</time></trkpt><trkpt lat="45.48409807179363" lon="10.462161539386587"><ele>162.0</ele><time>2026-03-29T13:21:18Z</time></trkpt><trkpt lat="45.48416551264617" lon="10.462321157516783"><ele>162.0</ele><time>2026-03-29T13:21:19Z</time></trkpt><trkpt lat="45.48422982410429" lon="10.462482980473693"><ele>162.2</ele><time>2026-03-29T13:21:20Z</time></trkpt><trkpt lat="45.48428273858362" lon="10.4626372690235"><ele>162.39999999999998</ele><time>2026-03-29T13:21:21Z</time></trkpt><trkpt lat="45.48431320672078" lon="10.462766933625597"><ele>162.60000000000002</ele><time>2026-03-29T13:21:22Z</time></trkpt><trkpt lat="45.484337923583034" lon="10.462884993041063"><ele>162.8</ele><time>2026-03-29T13:21:23Z</time></trkpt><trkpt lat="45.484396510868265" lon="10.46302382534497"><ele>163.0</ele><time>2026-03-29T13:21:24Z</time></trkpt><trkpt lat="45.484480242021405" lon="10.463110926618702"><ele>163.2</ele><time>2026-03-29T13:21:25Z</time></trkpt><trkpt lat="45.48452909065876" lon="10.46316971075484"><ele>163.4</ele><time>2026-03-29T13:21:26Z</time></trkpt><trkpt lat="45.484561822660645" lon="10.46328752025733"><ele>163.6</ele><time>2026-03-29T13:21:28Z</time></trkpt><trkpt lat="45.48456565942511" lon="10.46341424001913"><ele>163.79999999999998</ele><time>2026-03-29T13:21:29Z</time></trkpt><trkpt lat="45.48456390534334" lon="10.463593127953569"><ele>164.0</ele><time>2026-03-29T13:21:30Z</time></trkpt><trkpt lat="45.484562686865594" lon="10.463771764448293"><ele>164.33333333333331</ele><time>2026-03-29T13:21:31Z</time></trkpt><trkpt lat="45.48457827124989" lon="10.463990502447716"><ele>164.66666666666666</ele><time>2026-03-29T13:21:32Z</time></trkpt><trkpt lat="45.48460880812718" lon="10.46420998673897"><ele>165.0</ele><time>2026-03-29T13:21:33Z</time></trkpt><trkpt lat="45.484633409366296" lon="10.464472837840274"><ele>165.33333333333334</ele><time>2026-03-29T13:21:34Z</time></trkpt><trkpt lat="45.48465410028914" lon="10.464713178332804"><ele>165.66666666666669</ele><time>2026-03-29T13:21:35Z</time></trkpt><trkpt lat="45.484678414148746" lon="10.46490909152367"><ele>166.0</ele><time>2026-03-29T13:21:36Z</time></trkpt><trkpt lat="45.48470450405511" lon="10.465113230403611"><ele>166.0</ele><time>2026-03-29T13:21:37Z</time></trkpt><trkpt lat="45.4847296684272" lon="10.46533820871867"><ele>166.0</ele><time>2026-03-29T13:21:38Z</time></trkpt><trkpt lat="45.48476145927565" lon="10.465590810624342"><ele>166.0</ele><time>2026-03-29T13:21:39Z</time></trkpt><trkpt lat="45.48478907818677" lon="10.465806536657139"><ele>166.33333333333334</ele><time>2026-03-29T13:21:40Z</time></trkpt><trkpt lat="45.484815903747084" lon="10.466048427157087"><ele>166.66666666666666</ele><time>2026-03-29T13:21:41Z</time></trkpt><trkpt lat="45.4848390978579" lon="10.46628859298773"><ele>167.0</ele><time>2026-03-29T13:21:42Z</time></trkpt><trkpt lat="45.48486061556685" lon="10.466503155957898"><ele>167.66666666666666</ele><time>2026-03-29T13:21:43Z</time></trkpt><trkpt lat="45.4848912342578" lon="10.466717175675443"><ele>168.33333333333334</ele><time>2026-03-29T13:21:44Z</time></trkpt><trkpt lat="45.4849335974811" lon="10.466955426839219"><ele>169.0</ele><time>2026-03-29T13:21:45Z</time></trkpt><trkpt lat="45.4849717829689" lon="10.467152013619954"><ele>169.0</ele><time>2026-03-29T13:21:46Z</time></trkpt><trkpt lat="45.484995227691705" lon="10.467361074445986"><ele>169.0</ele><time>2026-03-29T13:21:47Z</time></trkpt><trkpt lat="45.48502219971577" lon="10.467590620571759"><ele>169.0</ele><time>2026-03-29T13:21:48Z</time></trkpt><trkpt lat="45.48503565825838" lon="10.46784632383305"><ele>169.33333333333334</ele><time>2026-03-29T13:21:49Z</time></trkpt><trkpt lat="45.48505499541766" lon="10.468102253858376"><ele>169.66666666666666</ele><time>2026-03-29T13:21:50Z</time></trkpt><trkpt lat="45.4850735371419" lon="10.468351020942068"><ele>170.0</ele><time>2026-03-29T13:21:51Z</time></trkpt><trkpt lat="45.48508181042598" lon="10.468567413152169"><ele>170.25</ele><time>2026-03-29T13:21:52Z</time></trkpt><trkpt lat="45.48509290114112" lon="10.468776289441909"><ele>170.5</ele><time>2026-03-29T13:21:53Z</time></trkpt><trkpt lat="45.485106305566724" lon="10.468987293033178"><ele>170.75</ele><time>2026-03-29T13:21:54Z</time></trkpt><trkpt lat="45.4851083889465" lon="10.469187934178493"><ele>171.0</ele><time>2026-03-29T13:21:55Z</time></trkpt><trkpt lat="45.48510125617214" lon="10.469374562721377"><ele>171.0</ele><time>2026-03-29T13:21:56Z</time></trkpt><trkpt lat="45.48509778470785" lon="10.469535402181954"><ele>171.0</ele><time>2026-03-29T13:21:57Z</time></trkpt><trkpt lat="45.48510099384766" lon="10.46970422217273"><ele>171.0</ele><time>2026-03-29T13:21:58Z</time></trkpt><trkpt lat="45.48511747775811" lon="10.469889423278934"><ele>171.0</ele><time>2026-03-29T13:21:59Z</time></trkpt><trkpt lat="45.48514435479786" lon="10.470078884616461"><ele>171.20000000000002</ele><time>2026-03-29T13:22:00Z</time></trkpt><trkpt lat="45.485173688750955" lon="10.470244822341032"><ele>171.4</ele><time>2026-03-29T13:22:01Z</time></trkpt><trkpt lat="45.48519947190262" lon="10.470409406394305"><ele>171.6</ele><time>2026-03-29T13:22:02Z</time></trkpt><trkpt lat="45.48522172047708" lon="10.470559134081181"><ele>171.8</ele><time>2026-03-29T13:22:03Z</time></trkpt><trkpt lat="45.485237765185055" lon="10.470683423210538"><ele>172.0</ele><time>2026-03-29T13:22:04Z</time></trkpt><trkpt lat="45.48525969203704" lon="10.470788047626058"><ele>172.6</ele><time>2026-03-29T13:22:05Z</time></trkpt><trkpt lat="45.48528288028041" lon="10.470893087133602"><ele>173.2</ele><time>2026-03-29T13:22:06Z</time></trkpt><trkpt lat="45.48529884513101" lon="10.471000575028768"><ele>173.8</ele><time>2026-03-29T13:22:07Z</time></trkpt><trkpt lat="45.48531767116188" lon="10.471138137835526"><ele>174.4</ele><time>2026-03-29T13:22:08Z</time></trkpt><trkpt lat="45.485349089401545" lon="10.471304501936967"><ele>175.0</ele><time>2026-03-29T13:22:09Z</time></trkpt><trkpt lat="45.48539101846922" lon="10.471485634181393"><ele>176.0</ele><time>2026-03-29T13:22:10Z</time></trkpt><trkpt lat="45.48544089697969" lon="10.471655399298996"><ele>177.0</ele><time>2026-03-29T13:22:11Z</time></trkpt><trkpt lat="45.48546292266747" lon="10.471808926391818"><ele>178.0</ele><time>2026-03-29T13:22:12Z</time></trkpt><trkpt lat="45.485490528594994" lon="10.471941893146496"><ele>179.0</ele><time>2026-03-29T13:22:13Z</time></trkpt><trkpt lat="45.48551711317773" lon="10.472072084431419"><ele>180.0</ele><time>2026-03-29T13:22:14Z</time></trkpt><trkpt lat="45.48554893463278" lon="10.472211630337673"><ele>180.5</ele><time>2026-03-29T13:22:15Z</time></trkpt><trkpt lat="45.48558942801942" lon="10.472308740374684"><ele>181.0</ele><time>2026-03-29T13:22:16Z</time></trkpt><trkpt lat="45.48561716882357" lon="10.472425414560897"><ele>181.5</ele><time>2026-03-29T13:22:18Z</time></trkpt><trkpt lat="45.48572722575147" lon="10.472363330302182"><ele>182.0</ele><time>2026-03-29T13:22:20Z</time></trkpt><trkpt lat="45.485796112821546" lon="10.472347392769997"><ele>182.5</ele><time>2026-03-29T13:22:21Z</time></trkpt><trkpt lat="45.4858885386788" lon="10.47237389188912"><ele>183.0</ele><time>2026-03-29T13:22:23Z</time></trkpt><trkpt lat="45.48592989098733" lon="10.472492935326198"><ele>183.0</ele><time>2026-03-29T13:22:24Z</time></trkpt><trkpt lat="45.486008418351474" lon="10.472599194602484"><ele>183.0</ele><time>2026-03-29T13:22:25Z</time></trkpt><trkpt lat="45.486107437243916" lon="10.472675417647155"><ele>183.0</ele><time>2026-03-29T13:22:26Z</time></trkpt><trkpt lat="45.48615971559354" lon="10.472769525180674"><ele>183.0</ele><time>2026-03-29T13:22:27Z</time></trkpt><trkpt lat="45.486203706563806" lon="10.47284254843434"><ele>183.0</ele><time>2026-03-29T13:22:29Z</time></trkpt><trkpt lat="45.48623831146936" lon="10.472973035215162"><ele>182.25</ele><time>2026-03-29T13:22:38Z</time></trkpt><trkpt lat="45.48643222216021" lon="10.472892479373998"><ele>181.5</ele><time>2026-03-29T13:22:40Z</time></trkpt><trkpt lat="45.486517347308755" lon="10.472782680331543"><ele>180.75</ele><time>2026-03-29T13:22:41Z</time></trkpt><trkpt lat="45.48661568160641" lon="10.472656437269931"><ele>180.0</ele><time>2026-03-29T13:22:42Z</time></trkpt><trkpt lat="45.48672020256102" lon="10.472505303717472"><ele>180.0</ele><time>2026-03-29T13:22:43Z</time></trkpt><trkpt lat="45.48684046085256" lon="10.472334283380857"><ele>180.0</ele><time>2026-03-29T13:22:44Z</time></trkpt><trkpt lat="45.486968887357634" lon="10.47215852585642"><ele>180.0</ele><time>2026-03-29T13:22:45Z</time></trkpt><trkpt lat="45.48709977802908" lon="10.471981471057406"><ele>179.0</ele><time>2026-03-29T13:22:46Z</time></trkpt><trkpt lat="45.48722398895697" lon="10.471817903910763"><ele>178.0</ele><time>2026-03-29T13:22:47Z</time></trkpt><trkpt lat="45.48733640943272" lon="10.471635064402566"><ele>177.0</ele><time>2026-03-29T13:22:48Z</time></trkpt><trkpt lat="45.48743371562878" lon="10.47143256275021"><ele>176.66666666666666</ele><time>2026-03-29T13:22:49Z</time></trkpt><trkpt lat="45.487523129121655" lon="10.47123349962567"><ele>176.33333333333331</ele><time>2026-03-29T13:22:50Z</time></trkpt><trkpt lat="45.487624965439196" lon="10.471065680454936"><ele>176.0</ele><time>2026-03-29T13:22:51Z</time></trkpt><trkpt lat="45.48770886574667" lon="10.470864928074453"><ele>176.0</ele><time>2026-03-29T13:22:52Z</time></trkpt><trkpt lat="45.487799596195934" lon="10.470688463331493"><ele>176.0</ele><time>2026-03-29T13:22:53Z</time></trkpt><trkpt lat="45.487887553729806" lon="10.470525740405796"><ele>176.0</ele><time>2026-03-29T13:22:54Z</time></trkpt><trkpt lat="45.487966813470216" lon="10.470385296547356"><ele>176.0</ele><time>2026-03-29T13:22:55Z</time></trkpt><trkpt lat="45.4880257936636" lon="10.470272172116507"><ele>176.0</ele><time>2026-03-29T13:22:56Z</time></trkpt><trkpt lat="45.48808320984945" lon="10.47019962940252"><ele>176.0</ele><time>2026-03-29T13:22:57Z</time></trkpt><trkpt lat="45.488066261785164" lon="10.47000454652128"><ele>176.0</ele><time>2026-03-29T13:22:59Z</time></trkpt><trkpt lat="45.48802492425039" lon="10.469857959162088"><ele>176.0</ele><time>2026-03-29T13:23:00Z</time></trkpt><trkpt lat="45.48802494036238" lon="10.469659084413804"><ele>175.33333333333331</ele><time>2026-03-29T13:23:01Z</time></trkpt><trkpt lat="45.488017076531406" lon="10.469432139779986"><ele>174.66666666666666</ele><time>2026-03-29T13:23:02Z</time></trkpt><trkpt lat="45.4880090099113" lon="10.469189582184708"><ele>174.0</ele><time>2026-03-29T13:23:03Z</time></trkpt><trkpt lat="45.48800274328382" lon="10.46893745034581"><ele>173.33333333333334</ele><time>2026-03-29T13:23:04Z</time></trkpt><trkpt lat="45.48798146624468" lon="10.46865899863114"><ele>172.66666666666669</ele><time>2026-03-29T13:23:05Z</time></trkpt><trkpt lat="45.48796699219955" lon="10.468367757895795"><ele>172.0</ele><time>2026-03-29T13:23:06Z</time></trkpt><trkpt lat="45.48795336556546" lon="10.468060451963574"><ele>172.0</ele><time>2026-03-29T13:23:07Z</time></trkpt><trkpt lat="45.48795472575722" lon="10.467765107698854"><ele>172.0</ele><time>2026-03-29T13:23:08Z</time></trkpt><trkpt lat="45.487923619745935" lon="10.467500695376982"><ele>172.0</ele><time>2026-03-29T13:23:09Z</time></trkpt><trkpt lat="45.487908167046385" lon="10.467235936823517"><ele>172.0</ele><time>2026-03-29T13:23:10Z</time></trkpt><trkpt lat="45.48789296937117" lon="10.466962761767043"><ele>172.0</ele><time>2026-03-29T13:23:11Z</time></trkpt><trkpt lat="45.487873982555875" lon="10.466680811610273"><ele>172.0</ele><time>2026-03-29T13:23:12Z</time></trkpt><trkpt lat="45.48786495196422" lon="10.466399949838518"><ele>171.33333333333334</ele><time>2026-03-29T13:23:13Z</time></trkpt><trkpt lat="45.48786634789125" lon="10.466098809481913"><ele>170.66666666666666</ele><time>2026-03-29T13:23:14Z</time></trkpt><trkpt lat="45.48789302893705" lon="10.465796362370854"><ele>170.0</ele><time>2026-03-29T13:23:15Z</time></trkpt><trkpt lat="45.4878965958774" lon="10.46549106209609"><ele>169.66666666666666</ele><time>2026-03-29T13:23:16Z</time></trkpt><trkpt lat="45.487904751318524" lon="10.46518704026639"><ele>169.33333333333334</ele><time>2026-03-29T13:23:17Z</time></trkpt><trkpt lat="45.487914519822375" lon="10.464895218528051"><ele>169.0</ele><time>2026-03-29T13:23:18Z</time></trkpt><trkpt lat="45.48792304679188" lon="10.46459534545805"><ele>168.33333333333334</ele><time>2026-03-29T13:23:19Z</time></trkpt><trkpt lat="45.487912461834696" lon="10.464274326409063"><ele>167.66666666666666</ele><time>2026-03-29T13:23:20Z</time></trkpt><trkpt lat="45.48787467592327" lon="10.463968271917574"><ele>167.0</ele><time>2026-03-29T13:23:21Z</time></trkpt><trkpt lat="45.48784544308795" lon="10.463671829248618"><ele>166.66666666666666</ele><time>2026-03-29T13:23:22Z</time></trkpt><trkpt lat="45.48783301234254" lon="10.463381989272476"><ele>166.33333333333334</ele><time>2026-03-29T13:23:23Z</time></trkpt><trkpt lat="45.487809102150386" lon="10.463122084611912"><ele>166.0</ele><time>2026-03-29T13:23:24Z</time></trkpt><trkpt lat="45.48778553548888" lon="10.462865914208024"><ele>165.66666666666669</ele><time>2026-03-29T13:23:25Z</time></trkpt><trkpt lat="45.48776290715664" lon="10.462624601255904"><ele>165.33333333333334</ele><time>2026-03-29T13:23:26Z</time></trkpt><trkpt lat="45.48772620899335" lon="10.46241574232731"><ele>165.0</ele><time>2026-03-29T13:23:27Z</time></trkpt><trkpt lat="45.4877078151167" lon="10.462204465994319"><ele>164.33333333333334</ele><time>2026-03-29T13:23:28Z</time></trkpt><trkpt lat="45.48768399219801" lon="10.461995505657702"><ele>163.66666666666669</ele><time>2026-03-29T13:23:29Z</time></trkpt><trkpt lat="45.48765464638074" lon="10.46178814183581"><ele>163.0</ele><time>2026-03-29T13:23:30Z</time></trkpt><trkpt lat="45.487646823990694" lon="10.461555645590433"><ele>163.0</ele><time>2026-03-29T13:23:31Z</time></trkpt><trkpt lat="45.48764067989196" lon="10.461315115521854"><ele>163.0</ele><time>2026-03-29T13:23:32Z</time></trkpt><trkpt lat="45.4876684182326" lon="10.461041038485469"><ele>163.0</ele><time>2026-03-29T13:23:33Z</time></trkpt><trkpt lat="45.48770268811625" lon="10.460755653081106"><ele>162.66666666666669</ele><time>2026-03-29T13:23:34Z</time></trkpt><trkpt lat="45.48773231817044" lon="10.460464956861237"><ele>162.33333333333334</ele><time>2026-03-29T13:23:35Z</time></trkpt><trkpt lat="45.48775870042682" lon="10.460162297502507"><ele>162.0</ele><time>2026-03-29T13:23:36Z</time></trkpt><trkpt lat="45.487766660824406" lon="10.459846616743075"><ele>161.66666666666666</ele><time>2026-03-29T13:23:37Z</time></trkpt><trkpt lat="45.487760998661614" lon="10.459536557706546"><ele>161.33333333333331</ele><time>2026-03-29T13:23:38Z</time></trkpt><trkpt lat="45.48774739704499" lon="10.459231085922154"><ele>161.0</ele><time>2026-03-29T13:23:39Z</time></trkpt><trkpt lat="45.487735558564346" lon="10.458949860368199"><ele>160.33333333333331</ele><time>2026-03-29T13:23:40Z</time></trkpt><trkpt lat="45.487735258012236" lon="10.458672437899867"><ele>159.66666666666666</ele><time>2026-03-29T13:23:41Z</time></trkpt><trkpt lat="45.48775276643899" lon="10.458378351454586"><ele>159.0</ele><time>2026-03-29T13:23:42Z</time></trkpt><trkpt lat="45.48778333273581" lon="10.458079147169807"><ele>159.0</ele><time>2026-03-29T13:23:43Z</time></trkpt><trkpt lat="45.487816104303185" lon="10.457768842706608"><ele>159.0</ele><time>2026-03-29T13:23:44Z</time></trkpt><trkpt lat="45.48784975217201" lon="10.457458316408363"><ele>159.0</ele><time>2026-03-29T13:23:45Z</time></trkpt><trkpt lat="45.48787224934968" lon="10.457131335585439"><ele>159.0</ele><time>2026-03-29T13:23:46Z</time></trkpt><trkpt lat="45.48788625247272" lon="10.456815444223492"><ele>159.0</ele><time>2026-03-29T13:23:47Z</time></trkpt><trkpt lat="45.48788812516515" lon="10.456487259991682"><ele>159.0</ele><time>2026-03-29T13:23:48Z</time></trkpt><trkpt lat="45.487879229733245" lon="10.456163597508224"><ele>159.0</ele><time>2026-03-29T13:23:49Z</time></trkpt><trkpt lat="45.48788361506598" lon="10.455841123492498"><ele>159.0</ele><time>2026-03-29T13:23:50Z</time></trkpt><trkpt lat="45.487909225715" lon="10.455520240647207"><ele>159.0</ele><time>2026-03-29T13:23:51Z</time></trkpt><trkpt lat="45.48792913262735" lon="10.455199048060624"><ele>159.5</ele><time>2026-03-29T13:23:52Z</time></trkpt><trkpt lat="45.48794956861402" lon="10.45486931907475"><ele>160.0</ele><time>2026-03-29T13:23:53Z</time></trkpt><trkpt lat="45.48797188424153" lon="10.454530812992095"><ele>160.0</ele><time>2026-03-29T13:23:54Z</time></trkpt><trkpt lat="45.4879954921284" lon="10.454186745588466"><ele>160.0</ele><time>2026-03-29T13:23:55Z</time></trkpt><trkpt lat="45.488021100836924" lon="10.453855523579156"><ele>159.5</ele><time>2026-03-29T13:23:56Z</time></trkpt><trkpt lat="45.488046228452994" lon="10.453523222490436"><ele>159.0</ele><time>2026-03-29T13:23:57Z</time></trkpt><trkpt lat="45.488068711676696" lon="10.453211487027948"><ele>158.66666666666666</ele><time>2026-03-29T13:23:58Z</time></trkpt><trkpt lat="45.48808913194503" lon="10.452928354958544"><ele>158.33333333333331</ele><time>2026-03-29T13:23:59Z</time></trkpt><trkpt lat="45.48811408137146" lon="10.4526687614514"><ele>158.0</ele><time>2026-03-29T13:24:00Z</time></trkpt><trkpt lat="45.488149874369505" lon="10.452403985840036"><ele>158.0</ele><time>2026-03-29T13:24:01Z</time></trkpt><trkpt lat="45.48819434277389" lon="10.452161550945572"><ele>158.0</ele><time>2026-03-29T13:24:02Z</time></trkpt><trkpt lat="45.48823903487848" lon="10.451934914218445"><ele>158.0</ele><time>2026-03-29T13:24:03Z</time></trkpt><trkpt lat="45.48827616057044" lon="10.451694655283173"><ele>157.66666666666666</ele><time>2026-03-29T13:24:04Z</time></trkpt><trkpt lat="45.48828942546048" lon="10.451422524743881"><ele>157.33333333333334</ele><time>2026-03-29T13:24:05Z</time></trkpt><trkpt lat="45.488296723456656" lon="10.451145976220959"><ele>157.0</ele><time>2026-03-29T13:24:06Z</time></trkpt><trkpt lat="45.48830443953374" lon="10.450848328060975"><ele>156.66666666666669</ele><time>2026-03-29T13:24:07Z</time></trkpt><trkpt lat="45.48831013093106" lon="10.450533748992843"><ele>156.33333333333334</ele><time>2026-03-29T13:24:08Z</time></trkpt><trkpt lat="45.48831864186286" lon="10.450213584534547"><ele>156.0</ele><time>2026-03-29T13:24:09Z</time></trkpt><trkpt lat="45.488331591999135" lon="10.449880787398454"><ele>155.66666666666666</ele><time>2026-03-29T13:24:10Z</time></trkpt><trkpt lat="45.48834448153454" lon="10.449582653464269"><ele>155.33333333333331</ele><time>2026-03-29T13:24:11Z</time></trkpt><trkpt lat="45.48835431119398" lon="10.449299098252245"><ele>155.0</ele><time>2026-03-29T13:24:12Z</time></trkpt><trkpt lat="45.488347064685904" lon="10.449022338851039"><ele>154.66666666666666</ele><time>2026-03-29T13:24:13Z</time></trkpt><trkpt lat="45.48831604603714" lon="10.448778600231378"><ele>154.33333333333334</ele><time>2026-03-29T13:24:14Z</time></trkpt><trkpt lat="45.48826222160388" lon="10.44854230926815"><ele>154.0</ele><time>2026-03-29T13:24:15Z</time></trkpt><trkpt lat="45.48824762848184" lon="10.448276671765711"><ele>154.0</ele><time>2026-03-29T13:24:16Z</time></trkpt><trkpt lat="45.48828308772485" lon="10.447991535117463"><ele>154.0</ele><time>2026-03-29T13:24:17Z</time></trkpt><trkpt lat="45.48829409022175" lon="10.44768760381506"><ele>154.0</ele><time>2026-03-29T13:24:18Z</time></trkpt><trkpt lat="45.48830247482651" lon="10.447385404479087"><ele>154.0</ele><time>2026-03-29T13:24:19Z</time></trkpt><trkpt lat="45.48831383277817" lon="10.447127814314534"><ele>154.0</ele><time>2026-03-29T13:24:20Z</time></trkpt><trkpt lat="45.488330198277104" lon="10.446890710757721"><ele>154.0</ele><time>2026-03-29T13:24:21Z</time></trkpt><trkpt lat="45.4883510927797" lon="10.446664184125359"><ele>154.0</ele><time>2026-03-29T13:24:22Z</time></trkpt><trkpt lat="45.48836083236803" lon="10.446421240327535"><ele>154.0</ele><time>2026-03-29T13:24:23Z</time></trkpt><trkpt lat="45.488388167962775" lon="10.446181920359946"><ele>154.0</ele><time>2026-03-29T13:24:24Z</time></trkpt><trkpt lat="45.4884324430326" lon="10.445962524074218"><ele>154.2</ele><time>2026-03-29T13:24:25Z</time></trkpt><trkpt lat="45.488457812631864" lon="10.445776299615353"><ele>154.4</ele><time>2026-03-29T13:24:26Z</time></trkpt><trkpt lat="45.4884823751751" lon="10.445648900300018"><ele>154.6</ele><time>2026-03-29T13:24:27Z</time></trkpt><trkpt lat="45.48850653203846" lon="10.445543772788644"><ele>154.8</ele><time>2026-03-29T13:24:29Z</time></trkpt><trkpt lat="45.488610589926495" lon="10.445548885090986"><ele>155.0</ele><time>2026-03-29T13:24:32Z</time></trkpt><trkpt lat="45.4887053223269" lon="10.445609208976208"><ele>155.66666666666666</ele><time>2026-03-29T13:24:33Z</time></trkpt><trkpt lat="45.48884796122873" lon="10.445686186012535"><ele>156.33333333333334</ele><time>2026-03-29T13:24:34Z</time></trkpt><trkpt lat="45.48901039968634" lon="10.445764414510663"><ele>157.0</ele><time>2026-03-29T13:24:35Z</time></trkpt><trkpt lat="45.48921168834336" lon="10.445855106738653"><ele>157.0</ele><time>2026-03-29T13:24:36Z</time></trkpt><trkpt lat="45.48943327599817" lon="10.44595456067457"><ele>157.0</ele><time>2026-03-29T13:24:37Z</time></trkpt><trkpt lat="45.489659516347245" lon="10.446057444599493"><ele>156.5</ele><time>2026-03-29T13:24:38Z</time></trkpt><trkpt lat="45.48989462461046" lon="10.446161088569484"><ele>156.0</ele><time>2026-03-29T13:24:39Z</time></trkpt><trkpt lat="45.49012144939244" lon="10.446261144475109"><ele>156.5</ele><time>2026-03-29T13:24:40Z</time></trkpt><trkpt lat="45.490350165848106" lon="10.446344411424723"><ele>157.0</ele><time>2026-03-29T13:24:41Z</time></trkpt><trkpt lat="45.49058526703101" lon="10.44640036649723"><ele>157.5</ele><time>2026-03-29T13:24:42Z</time></trkpt><trkpt lat="45.49081889271174" lon="10.44644436590326"><ele>158.0</ele><time>2026-03-29T13:24:43Z</time></trkpt><trkpt lat="45.49105035024089" lon="10.446484804603006"><ele>158.0</ele><time>2026-03-29T13:24:44Z</time></trkpt><trkpt lat="45.49128247197242" lon="10.446534151645148"><ele>158.0</ele><time>2026-03-29T13:24:45Z</time></trkpt><trkpt lat="45.491513841209944" lon="10.446594646719605"><ele>158.0</ele><time>2026-03-29T13:24:46Z</time></trkpt><trkpt lat="45.49174550818237" lon="10.446664519904257"><ele>158.0</ele><time>2026-03-29T13:24:47Z</time></trkpt><trkpt lat="45.491976062070954" lon="10.446747837353888"><ele>159.0</ele><time>2026-03-29T13:24:48Z</time></trkpt><trkpt lat="45.49220149448916" lon="10.446837900903684"><ele>160.0</ele><time>2026-03-29T13:24:49Z</time></trkpt><trkpt lat="45.492429352651364" lon="10.446937197409966"><ele>160.0</ele><time>2026-03-29T13:24:50Z</time></trkpt><trkpt lat="45.49265514084624" lon="10.447032042968765"><ele>160.0</ele><time>2026-03-29T13:24:51Z</time></trkpt><trkpt lat="45.4928832209664" lon="10.447124929361468"><ele>160.5</ele><time>2026-03-29T13:24:52Z</time></trkpt><trkpt lat="45.49311564537376" lon="10.447221119904915"><ele>161.0</ele><time>2026-03-29T13:24:53Z</time></trkpt><trkpt lat="45.4933465234374" lon="10.44731696662406"><ele>161.0</ele><time>2026-03-29T13:24:54Z</time></trkpt><trkpt lat="45.49357502111914" lon="10.447410356655608"><ele>161.0</ele><time>2026-03-29T13:24:55Z</time></trkpt><trkpt lat="45.493805363908635" lon="10.447505052668838"><ele>161.0</ele><time>2026-03-29T13:24:56Z</time></trkpt><trkpt lat="45.494021382726636" lon="10.447594336038215"><ele>161.0</ele><time>2026-03-29T13:24:57Z</time></trkpt><trkpt lat="45.49421724370897" lon="10.447672983568774"><ele>161.0</ele><time>2026-03-29T13:24:58Z</time></trkpt><trkpt lat="45.494406055557896" lon="10.447753783763236"><ele>161.66666666666666</ele><time>2026-03-29T13:24:59Z</time></trkpt><trkpt lat="45.494592779413615" lon="10.44783077026825"><ele>162.33333333333334</ele><time>2026-03-29T13:25:00Z</time></trkpt><trkpt lat="45.49476635947154" lon="10.44790037569492"><ele>163.0</ele><time>2026-03-29T13:25:01Z</time></trkpt><trkpt lat="45.49492564140307" lon="10.447964486353536"><ele>163.0</ele><time>2026-03-29T13:25:02Z</time></trkpt><trkpt lat="45.49507122825171" lon="10.448021333532639"><ele>163.0</ele><time>2026-03-29T13:25:03Z</time></trkpt><trkpt lat="45.495187371172456" lon="10.448070329479977"><ele>163.0</ele><time>2026-03-29T13:25:04Z</time></trkpt><trkpt lat="45.49526851152743" lon="10.448104880968671"><ele>163.0</ele><time>2026-03-29T13:25:05Z</time></trkpt><trkpt lat="45.49533496848916" lon="10.448145668055522"><ele>163.0</ele><time>2026-03-29T13:25:07Z</time></trkpt><trkpt lat="45.4953684940444" lon="10.447997250957169"><ele>163.0</ele><time>2026-03-29T13:25:08Z</time></trkpt><trkpt lat="45.4954096391747" lon="10.447790064093313"><ele>163.0</ele><time>2026-03-29T13:25:10Z</time></trkpt><trkpt lat="45.495435183724105" lon="10.447628582538174"><ele>163.0</ele><time>2026-03-29T13:25:11Z</time></trkpt><trkpt lat="45.49545681131867" lon="10.447447375151535"><ele>163.0</ele><time>2026-03-29T13:25:12Z</time></trkpt><trkpt lat="45.495508402192854" lon="10.447267224944294"><ele>163.0</ele><time>2026-03-29T13:25:13Z</time></trkpt><trkpt lat="45.49554301499167" lon="10.447131391286794"><ele>163.0</ele><time>2026-03-29T13:25:14Z</time></trkpt><trkpt lat="45.49557982363629" lon="10.447017339179379"><ele>163.0</ele><time>2026-03-29T13:25:15Z</time></trkpt><trkpt lat="45.49562004537265" lon="10.446923157654608"><ele>163.0</ele><time>2026-03-29T13:25:16Z</time></trkpt><trkpt lat="45.495685602244805" lon="10.4468350406904"><ele>163.0</ele><time>2026-03-29T13:25:18Z</time></trkpt><trkpt lat="45.49576934517608" lon="10.446822505818451"><ele>163.0</ele><time>2026-03-29T13:25:20Z</time></trkpt><trkpt lat="45.495836789722" lon="10.446789982577673"><ele>163.4</ele><time>2026-03-29T13:25:21Z</time></trkpt><trkpt lat="45.49593438036048" lon="10.44682266720828"><ele>163.8</ele><time>2026-03-29T13:25:23Z</time></trkpt><trkpt lat="45.496015786363536" lon="10.446705564244967"><ele>164.2</ele><time>2026-03-29T13:25:25Z</time></trkpt><trkpt lat="45.49607686423441" lon="10.446606871093293"><ele>164.6</ele><time>2026-03-29T13:25:26Z</time></trkpt><trkpt lat="45.496153948967844" lon="10.446481359673887"><ele>165.0</ele><time>2026-03-29T13:25:27Z</time></trkpt><trkpt lat="45.496240078031136" lon="10.446353982095868"><ele>164.5</ele><time>2026-03-29T13:25:28Z</time></trkpt><trkpt lat="45.49635064647775" lon="10.446246584185701"><ele>164.0</ele><time>2026-03-29T13:25:29Z</time></trkpt><trkpt lat="45.49644796151233" lon="10.44613490410665"><ele>163.5</ele><time>2026-03-29T13:25:30Z</time></trkpt><trkpt lat="45.49653239954433" lon="10.446035128750022"><ele>163.0</ele><time>2026-03-29T13:25:31Z</time></trkpt><trkpt lat="45.49662535387286" lon="10.445916846036356"><ele>163.0</ele><time>2026-03-29T13:25:32Z</time></trkpt><trkpt lat="45.49672152403206" lon="10.445737556969313"><ele>163.0</ele><time>2026-03-29T13:25:33Z</time></trkpt><trkpt lat="45.496799597378235" lon="10.4455635821668"><ele>163.0</ele><time>2026-03-29T13:25:34Z</time></trkpt><trkpt lat="45.49690668019743" lon="10.4454094867512"><ele>162.66666666666669</ele><time>2026-03-29T13:25:35Z</time></trkpt><trkpt lat="45.49701209323366" lon="10.445250153425013"><ele>162.33333333333334</ele><time>2026-03-29T13:25:36Z</time></trkpt><trkpt lat="45.49712136220209" lon="10.445056332140647"><ele>162.0</ele><time>2026-03-29T13:25:37Z</time></trkpt><trkpt lat="45.49723078030873" lon="10.444885975583171"><ele>161.75</ele><time>2026-03-29T13:25:38Z</time></trkpt><trkpt lat="45.4973568646122" lon="10.444709386049706"><ele>161.5</ele><time>2026-03-29T13:25:39Z</time></trkpt><trkpt lat="45.49744106764241" lon="10.444599547173919"><ele>161.25</ele><time>2026-03-29T13:25:40Z</time></trkpt><trkpt lat="45.49753114746815" lon="10.444509185425735"><ele>161.0</ele><time>2026-03-29T13:25:41Z</time></trkpt><trkpt lat="45.49767936329915" lon="10.444375541366528"><ele>161.0</ele><time>2026-03-29T13:25:42Z</time></trkpt><trkpt lat="45.4978238695179" lon="10.444257320350474"><ele>161.0</ele><time>2026-03-29T13:25:43Z</time></trkpt><trkpt lat="45.497957260673026" lon="10.44414750550752"><ele>161.0</ele><time>2026-03-29T13:25:44Z</time></trkpt><trkpt lat="45.49808724135802" lon="10.444040498340312"><ele>162.33333333333331</ele><time>2026-03-29T13:25:45Z</time></trkpt><trkpt lat="45.49821907111" lon="10.443920535660743"><ele>163.66666666666666</ele><time>2026-03-29T13:25:46Z</time></trkpt><trkpt lat="45.49835531388475" lon="10.443805606519165"><ele>165.0</ele><time>2026-03-29T13:25:47Z</time></trkpt><trkpt lat="45.4984870260046" lon="10.443691690297277"><ele>165.0</ele><time>2026-03-29T13:25:48Z</time></trkpt><trkpt lat="45.4986101408984" lon="10.443546991546473"><ele>165.0</ele><time>2026-03-29T13:25:49Z</time></trkpt><trkpt lat="45.498735187019676" lon="10.443384010148224"><ele>165.0</ele><time>2026-03-29T13:25:50Z</time></trkpt><trkpt lat="45.49885289318172" lon="10.443202780605594"><ele>165.33333333333334</ele><time>2026-03-29T13:25:51Z</time></trkpt><trkpt lat="45.49896642080307" lon="10.443026695726795"><ele>165.66666666666669</ele><time>2026-03-29T13:25:52Z</time></trkpt><trkpt lat="45.49907095299865" lon="10.442881778692144"><ele>166.0</ele><time>2026-03-29T13:25:53Z</time></trkpt><trkpt lat="45.499167723698584" lon="10.442744713868224"><ele>166.25</ele><time>2026-03-29T13:25:54Z</time></trkpt><trkpt lat="45.49925286653355" lon="10.442611015961933"><ele>166.5</ele><time>2026-03-29T13:25:55Z</time></trkpt><trkpt lat="45.49933366028032" lon="10.44249338415479"><ele>166.75</ele><time>2026-03-29T13:25:56Z</time></trkpt><trkpt lat="45.499416916587855" lon="10.442367881107756"><ele>167.0</ele><time>2026-03-29T13:25:57Z</time></trkpt><trkpt lat="45.49951350503824" lon="10.442226412321567"><ele>166.83333333333331</ele><time>2026-03-29T13:25:58Z</time></trkpt><trkpt lat="45.49959747740422" lon="10.442102487143277"><ele>166.66666666666666</ele><time>2026-03-29T13:25:59Z</time></trkpt><trkpt lat="45.49966329320222" lon="10.442005881773103"><ele>166.5</ele><time>2026-03-29T13:26:00Z</time></trkpt><trkpt lat="45.49972562428929" lon="10.44191703035523"><ele>166.33333333333334</ele><time>2026-03-29T13:26:01Z</time></trkpt><trkpt lat="45.49974251069835" lon="10.44182795788455"><ele>166.16666666666669</ele><time>2026-03-29T13:26:02Z</time></trkpt><trkpt lat="45.49981403448168" lon="10.44180332274142"><ele>166.0</ele><time>2026-03-29T13:26:03Z</time></trkpt><trkpt lat="45.499874014689176" lon="10.441769656740297"><ele>166.0</ele><time>2026-03-29T13:26:04Z</time></trkpt><trkpt lat="45.50007018277423" lon="10.441649196251575"><ele>166.0</ele><time>2026-03-29T13:26:06Z</time></trkpt><trkpt lat="45.50015254888665" lon="10.441524630856552"><ele>166.0</ele><time>2026-03-29T13:26:07Z</time></trkpt><trkpt lat="45.50022076054363" lon="10.44136729632964"><ele>165.8</ele><time>2026-03-29T13:26:08Z</time></trkpt><trkpt lat="45.50027635058967" lon="10.44118559122348"><ele>165.60000000000002</ele><time>2026-03-29T13:26:09Z</time></trkpt><trkpt lat="45.50033027626689" lon="10.441032122889446"><ele>165.4</ele><time>2026-03-29T13:26:10Z</time></trkpt><trkpt lat="45.500370559690744" lon="10.440935705452262"><ele>165.2</ele><time>2026-03-29T13:26:11Z</time></trkpt><trkpt lat="45.50044674332677" lon="10.440869081632846"><ele>165.0</ele><time>2026-03-29T13:26:13Z</time></trkpt><trkpt lat="45.50056704280831" lon="10.4410375297843"><ele>165.0</ele><time>2026-03-29T13:26:14Z</time></trkpt><trkpt lat="45.500703254592025" lon="10.441093352814704"><ele>165.0</ele><time>2026-03-29T13:26:15Z</time></trkpt><trkpt lat="45.50086893279531" lon="10.441097891025102"><ele>165.0</ele><time>2026-03-29T13:26:16Z</time></trkpt><trkpt lat="45.501035260311404" lon="10.44107682825032"><ele>165.0</ele><time>2026-03-29T13:26:17Z</time></trkpt><trkpt lat="45.50121753457232" lon="10.44107545020642"><ele>165.0</ele><time>2026-03-29T13:26:18Z</time></trkpt><trkpt lat="45.501404538634034" lon="10.44106682933817"><ele>165.0</ele><time>2026-03-29T13:26:19Z</time></trkpt><trkpt lat="45.50156585373798" lon="10.441057164664363"><ele>165.0</ele><time>2026-03-29T13:26:20Z</time></trkpt><trkpt lat="45.501704485085355" lon="10.44105026970532"><ele>165.0</ele><time>2026-03-29T13:26:21Z</time></trkpt><trkpt lat="45.50180368297366" lon="10.441044260431989"><ele>165.0</ele><time>2026-03-29T13:26:22Z</time></trkpt><trkpt lat="45.501860621976164" lon="10.441084220466184"><ele>165.0</ele><time>2026-03-29T13:26:23Z</time></trkpt><trkpt lat="45.50191798253312" lon="10.441219581439173"><ele>165.0</ele><time>2026-03-29T13:26:25Z</time></trkpt><trkpt lat="45.50190440053358" lon="10.44134656752365"><ele>165.0</ele><time>2026-03-29T13:26:26Z</time></trkpt><trkpt lat="45.50190864128825" lon="10.441554822867953"><ele>165.0</ele><time>2026-03-29T13:26:27Z</time></trkpt><trkpt lat="45.501940190008476" lon="10.44179262382453"><ele>165.0</ele><time>2026-03-29T13:26:28Z</time></trkpt><trkpt lat="45.50194159220451" lon="10.442040468377183"><ele>165.2</ele><time>2026-03-29T13:26:29Z</time></trkpt><trkpt lat="45.50194032123585" lon="10.442259797689038"><ele>165.4</ele><time>2026-03-29T13:26:30Z</time></trkpt><trkpt lat="45.501934635886066" lon="10.442429864618425"><ele>165.60000000000002</ele><time>2026-03-29T13:26:31Z</time></trkpt><trkpt lat="45.50193748239681" lon="10.442552483262293"><ele>165.8</ele><time>2026-03-29T13:26:32Z</time></trkpt><trkpt lat="45.50201016846164" lon="10.442611251848945"><ele>166.0</ele><time>2026-03-29T13:26:34Z</time></trkpt><trkpt lat="45.502111410272036" lon="10.442591143818937"><ele>166.20000000000002</ele><time>2026-03-29T13:26:37Z</time></trkpt><trkpt lat="45.50219879934041" lon="10.442573205455538"><ele>166.4</ele><time>2026-03-29T13:26:40Z</time></trkpt><trkpt lat="45.50226694930388" lon="10.442563846361313"><ele>166.6</ele><time>2026-03-29T13:26:41Z</time></trkpt><trkpt lat="45.50236687607075" lon="10.442551591801319"><ele>166.8</ele><time>2026-03-29T13:26:42Z</time></trkpt><trkpt lat="45.502491043542534" lon="10.442517961866173"><ele>167.0</ele><time>2026-03-29T13:26:43Z</time></trkpt><trkpt lat="45.502611307707475" lon="10.442522441630262"><ele>167.0</ele><time>2026-03-29T13:26:44Z</time></trkpt><trkpt lat="45.50270116901572" lon="10.442548811954335"><ele>167.0</ele><time>2026-03-29T13:26:45Z</time></trkpt><trkpt lat="45.50279287883592" lon="10.442536819983383"><ele>167.0</ele><time>2026-03-29T13:26:47Z</time></trkpt><trkpt lat="45.50279036355718" lon="10.442730729773537"><ele>167.0</ele><time>2026-03-29T13:26:50Z</time></trkpt><trkpt lat="45.502747441628564" lon="10.442882482205716"><ele>167.0</ele><time>2026-03-29T13:26:51Z</time></trkpt><trkpt lat="45.502694810482" lon="10.443024818105558"><ele>167.0</ele><time>2026-03-29T13:26:52Z</time></trkpt><trkpt lat="45.50263762668707" lon="10.44318204672599"><ele>167.0</ele><time>2026-03-29T13:26:53Z</time></trkpt><trkpt lat="45.502563359185665" lon="10.443400134042454"><ele>167.0</ele><time>2026-03-29T13:26:54Z</time></trkpt><trkpt lat="45.50246702174616" lon="10.443652153292676"><ele>167.0</ele><time>2026-03-29T13:26:55Z</time></trkpt><trkpt lat="45.502550766626456" lon="10.44369225871351"><ele>167.0</ele><time>2026-03-29T13:26:56Z</time></trkpt><trkpt lat="45.502485616934884" lon="10.443858530109996"><ele>167.0</ele><time>2026-03-29T13:26:57Z</time></trkpt><trkpt lat="45.50240488462191" lon="10.444038673121868"><ele>167.0</ele><time>2026-03-29T13:26:58Z</time></trkpt><trkpt lat="45.50233782700775" lon="10.444209528559696"><ele>167.0</ele><time>2026-03-29T13:26:59Z</time></trkpt><trkpt lat="45.50226297063738" lon="10.444364575963583"><ele>167.0</ele><time>2026-03-29T13:27:00Z</time></trkpt><trkpt lat="45.502194220157655" lon="10.444540794288393"><ele>167.0</ele><time>2026-03-29T13:27:01Z</time></trkpt><trkpt lat="45.50211871694053" lon="10.444692284152314"><ele>167.0</ele><time>2026-03-29T13:27:02Z</time></trkpt><trkpt lat="45.50204363343527" lon="10.444857172255901"><ele>167.0</ele><time>2026-03-29T13:27:03Z</time></trkpt><trkpt lat="45.50195514998886" lon="10.445045171613206"><ele>167.0</ele><time>2026-03-29T13:27:04Z</time></trkpt><trkpt lat="45.501875323751456" lon="10.445218683443125"><ele>167.0</ele><time>2026-03-29T13:27:05Z</time></trkpt><trkpt lat="45.501794394576905" lon="10.445397922470946"><ele>167.66666666666666</ele><time>2026-03-29T13:27:06Z</time></trkpt><trkpt lat="45.50171137052995" lon="10.445565062511102"><ele>168.33333333333334</ele><time>2026-03-29T13:27:07Z</time></trkpt><trkpt lat="45.501640409934005" lon="10.445720372745662"><ele>169.0</ele><time>2026-03-29T13:27:08Z</time></trkpt><trkpt lat="45.50149391059909" lon="10.445873190815426"><ele>169.0</ele><time>2026-03-29T13:27:09Z</time></trkpt><trkpt lat="45.50143159634039" lon="10.446017239703906"><ele>169.0</ele><time>2026-03-29T13:27:10Z</time></trkpt><trkpt lat="45.50137344710811" lon="10.44615561462875"><ele>169.0</ele><time>2026-03-29T13:27:11Z</time></trkpt><trkpt lat="45.50132365362294" lon="10.446293306986508"><ele>169.0</ele><time>2026-03-29T13:27:12Z</time></trkpt><trkpt lat="45.5012825701147" lon="10.446418635564063"><ele>169.0</ele><time>2026-03-29T13:27:13Z</time></trkpt><trkpt lat="45.501256056838834" lon="10.446540998785819"><ele>169.0</ele><time>2026-03-29T13:27:14Z</time></trkpt><trkpt lat="45.5012587645789" lon="10.446659449906688"><ele>169.0</ele><time>2026-03-29T13:27:15Z</time></trkpt><trkpt lat="45.501284104495106" lon="10.446803339393796"><ele>169.0</ele><time>2026-03-29T13:27:16Z</time></trkpt><trkpt lat="45.50131668693224" lon="10.446945105703776"><ele>169.0</ele><time>2026-03-29T13:27:17Z</time></trkpt><trkpt lat="45.50131168657015" lon="10.44705469851178"><ele>169.0</ele><time>2026-03-29T13:27:18Z</time></trkpt><trkpt lat="45.50126681839504" lon="10.447161666532597"><ele>168.75</ele><time>2026-03-29T13:27:19Z</time></trkpt><trkpt lat="45.50119387336471" lon="10.447280175961103"><ele>168.5</ele><time>2026-03-29T13:27:20Z</time></trkpt><trkpt lat="45.5011059984489" lon="10.447418619195627"><ele>168.25</ele><time>2026-03-29T13:27:21Z</time></trkpt><trkpt lat="45.50101476806641" lon="10.44757318847858"><ele>168.0</ele><time>2026-03-29T13:27:22Z</time></trkpt><trkpt lat="45.500923924917615" lon="10.44774944266697"><ele>168.0</ele><time>2026-03-29T13:27:23Z</time></trkpt><trkpt lat="45.50083193603519" lon="10.447945782752024"><ele>168.0</ele><time>2026-03-29T13:27:24Z</time></trkpt><trkpt lat="45.50075160385501" lon="10.44811988409904"><ele>168.0</ele><time>2026-03-29T13:27:25Z</time></trkpt><trkpt lat="45.500672507692684" lon="10.448306786801403"><ele>168.0</ele><time>2026-03-29T13:27:26Z</time></trkpt><trkpt lat="45.50059641069495" lon="10.448491013601338"><ele>168.0</ele><time>2026-03-29T13:27:27Z</time></trkpt><trkpt lat="45.50053258053228" lon="10.448656938711816"><ele>168.0</ele><time>2026-03-29T13:27:28Z</time></trkpt><trkpt lat="45.50047625985108" lon="10.448807120830814"><ele>168.0</ele><time>2026-03-29T13:27:29Z</time></trkpt><trkpt lat="45.50042464844689" lon="10.44894390745803"><ele>168.0</ele><time>2026-03-29T13:27:30Z</time></trkpt><trkpt lat="45.500380459048536" lon="10.449065516909751"><ele>168.0</ele><time>2026-03-29T13:27:31Z</time></trkpt><trkpt lat="45.50035384774017" lon="10.44915211349421"><ele>168.0</ele><time>2026-03-29T13:27:32Z</time></trkpt><trkpt lat="45.500349583366315" lon="10.449270593501174"><ele>168.0</ele><time>2026-03-29T13:27:34Z</time></trkpt><trkpt lat="45.50039793003559" lon="10.449358796072652"><ele>168.0</ele><time>2026-03-29T13:27:36Z</time></trkpt><trkpt lat="45.500453509392145" lon="10.449404686125527"><ele>168.0</ele><time>2026-03-29T13:27:37Z</time></trkpt><trkpt lat="45.50053287521138" lon="10.449474488686633"><ele>168.0</ele><time>2026-03-29T13:27:38Z</time></trkpt><trkpt lat="45.50062008132062" lon="10.449559682202809"><ele>168.0</ele><time>2026-03-29T13:27:39Z</time></trkpt><trkpt lat="45.500720707279626" lon="10.449660937186641"><ele>168.0</ele><time>2026-03-29T13:27:40Z</time></trkpt><trkpt lat="45.50080391296393" lon="10.449754687974725"><ele>168.0</ele><time>2026-03-29T13:27:41Z</time></trkpt><trkpt lat="45.500869189958465" lon="10.449791129212048"><ele>168.0</ele><time>2026-03-29T13:27:42Z</time></trkpt><trkpt lat="45.50094319596829" lon="10.449782779277731"><ele>168.0</ele><time>2026-03-29T13:27:44Z</time></trkpt><trkpt lat="45.50103093111707" lon="10.449629563862109"><ele>168.0</ele><time>2026-03-29T13:27:46Z</time></trkpt><trkpt lat="45.50106718100614" lon="10.449518827325168"><ele>168.0</ele><time>2026-03-29T13:27:47Z</time></trkpt><trkpt lat="45.50110234033245" lon="10.449396203876853"><ele>168.0</ele><time>2026-03-29T13:27:48Z</time></trkpt><trkpt lat="45.50114654774569" lon="10.449321602395521"><ele>168.0</ele><time>2026-03-29T13:27:49Z</time></trkpt><trkpt lat="45.50128596804778" lon="10.449316804880894"><ele>168.25</ele><time>2026-03-29T13:27:51Z</time></trkpt><trkpt lat="45.50137524541529" lon="10.44935451795462"><ele>168.5</ele><time>2026-03-29T13:27:52Z</time></trkpt><trkpt lat="45.501480754913985" lon="10.449419462204633"><ele>168.75</ele><time>2026-03-29T13:27:53Z</time></trkpt><trkpt lat="45.50160792013342" lon="10.449498980324838"><ele>169.0</ele><time>2026-03-29T13:27:54Z</time></trkpt><trkpt lat="45.501735059133985" lon="10.44956065459248"><ele>169.0</ele><time>2026-03-29T13:27:55Z</time></trkpt><trkpt lat="45.501872747784056" lon="10.449621519830215"><ele>169.0</ele><time>2026-03-29T13:27:56Z</time></trkpt><trkpt lat="45.502019760560835" lon="10.449690684887862"><ele>169.0</ele><time>2026-03-29T13:27:57Z</time></trkpt><trkpt lat="45.502169473021546" lon="10.44973768952754"><ele>169.25</ele><time>2026-03-29T13:27:58Z</time></trkpt><trkpt lat="45.50231519325101" lon="10.449781421364365"><ele>169.5</ele><time>2026-03-29T13:27:59Z</time></trkpt><trkpt lat="45.5024496143388" lon="10.449799298714938"><ele>169.75</ele><time>2026-03-29T13:28:00Z</time></trkpt><trkpt lat="45.502582539042635" lon="10.449809773010138"><ele>170.0</ele><time>2026-03-29T13:28:01Z</time></trkpt><trkpt lat="45.50272281556013" lon="10.449830729510499"><ele>170.0</ele><time>2026-03-29T13:28:02Z</time></trkpt><trkpt lat="45.50287458486079" lon="10.449852354252144"><ele>170.0</ele><time>2026-03-29T13:28:03Z</time></trkpt><trkpt lat="45.503015598612926" lon="10.449853627639245"><ele>170.0</ele><time>2026-03-29T13:28:04Z</time></trkpt><trkpt lat="45.503121197462555" lon="10.449843767230059"><ele>170.0</ele><time>2026-03-29T13:28:05Z</time></trkpt><trkpt lat="45.503227444377586" lon="10.449818294439872"><ele>170.0</ele><time>2026-03-29T13:28:06Z</time></trkpt><trkpt lat="45.50334219572053" lon="10.449756608526318"><ele>170.0</ele><time>2026-03-29T13:28:07Z</time></trkpt><trkpt lat="45.503469937779386" lon="10.449661390466087"><ele>170.0</ele><time>2026-03-29T13:28:08Z</time></trkpt><trkpt lat="45.50360546258648" lon="10.449558339072539"><ele>170.0</ele><time>2026-03-29T13:28:09Z</time></trkpt><trkpt lat="45.503749756245504" lon="10.449457795773945"><ele>170.33333333333331</ele><time>2026-03-29T13:28:10Z</time></trkpt><trkpt lat="45.503897346754144" lon="10.449360142172134"><ele>170.66666666666666</ele><time>2026-03-29T13:28:11Z</time></trkpt><trkpt lat="45.50405844603216" lon="10.449263156199573"><ele>171.0</ele><time>2026-03-29T13:28:12Z</time></trkpt><trkpt lat="45.50421216447112" lon="10.449173939086394"><ele>171.0</ele><time>2026-03-29T13:28:13Z</time></trkpt><trkpt lat="45.504361312633016" lon="10.449097545953485"><ele>171.0</ele><time>2026-03-29T13:28:14Z</time></trkpt><trkpt lat="45.50451620146259" lon="10.449026549422202"><ele>171.0</ele><time>2026-03-29T13:28:15Z</time></trkpt><trkpt lat="45.50467606595646" lon="10.448961301566301"><ele>171.66666666666666</ele><time>2026-03-29T13:28:16Z</time></trkpt><trkpt lat="45.504872284442705" lon="10.44889008458068"><ele>172.33333333333331</ele><time>2026-03-29T13:28:17Z</time></trkpt><trkpt lat="45.50502520401609" lon="10.448830485487461"><ele>173.0</ele><time>2026-03-29T13:28:18Z</time></trkpt><trkpt lat="45.505174341701164" lon="10.448769241362456"><ele>173.0</ele><time>2026-03-29T13:28:19Z</time></trkpt><trkpt lat="45.50532066469866" lon="10.448714996459993"><ele>173.0</ele><time>2026-03-29T13:28:20Z</time></trkpt><trkpt lat="45.505455608172404" lon="10.448670034941454"><ele>173.0</ele><time>2026-03-29T13:28:21Z</time></trkpt><trkpt lat="45.505572723317286" lon="10.448620380924782"><ele>173.0</ele><time>2026-03-29T13:28:22Z</time></trkpt><trkpt lat="45.50568615539579" lon="10.448573249708849"><ele>173.2</ele><time>2026-03-29T13:28:23Z</time></trkpt><trkpt lat="45.505792021162996" lon="10.448526162534202"><ele>173.4</ele><time>2026-03-29T13:28:24Z</time></trkpt><trkpt lat="45.50585168433243" lon="10.448491898895707"><ele>173.6</ele><time>2026-03-29T13:28:25Z</time></trkpt><trkpt lat="45.505949630656275" lon="10.4484182472552"><ele>173.79999999999998</ele><time>2026-03-29T13:28:36Z</time></trkpt><trkpt lat="45.50603841952819" lon="10.448363889269872"><ele>174.0</ele><time>2026-03-29T13:28:37Z</time></trkpt><trkpt lat="45.50613882417865" lon="10.44831055868093"><ele>174.66666666666666</ele><time>2026-03-29T13:28:38Z</time></trkpt><trkpt lat="45.50627340303701" lon="10.448220160756469"><ele>175.33333333333331</ele><time>2026-03-29T13:28:39Z</time></trkpt><trkpt lat="45.50640504819998" lon="10.448106366221083"><ele>176.0</ele><time>2026-03-29T13:28:40Z</time></trkpt><trkpt lat="45.50654766651541" lon="10.447977310593402"><ele>175.66666666666666</ele><time>2026-03-29T13:28:41Z</time></trkpt><trkpt lat="45.50671831115876" lon="10.447866604145197"><ele>175.33333333333334</ele><time>2026-03-29T13:28:42Z</time></trkpt><trkpt lat="45.50687549318086" lon="10.447693273854917"><ele>175.0</ele><time>2026-03-29T13:28:43Z</time></trkpt><trkpt lat="45.50703629113286" lon="10.447549191848918"><ele>174.66666666666669</ele><time>2026-03-29T13:28:44Z</time></trkpt><trkpt lat="45.507197521493396" lon="10.447390469909715"><ele>174.33333333333334</ele><time>2026-03-29T13:28:45Z</time></trkpt><trkpt lat="45.50736413364787" lon="10.44722121276241"><ele>174.0</ele><time>2026-03-29T13:28:46Z</time></trkpt><trkpt lat="45.50753486707451" lon="10.447042459748683"><ele>174.33333333333334</ele><time>2026-03-29T13:28:47Z</time></trkpt><trkpt lat="45.50770214657229" lon="10.446846232780167"><ele>174.66666666666669</ele><time>2026-03-29T13:28:48Z</time></trkpt><trkpt lat="45.50787107196477" lon="10.44664811183992"><ele>175.0</ele><time>2026-03-29T13:28:49Z</time></trkpt><trkpt lat="45.50804596873659" lon="10.446443799114592"><ele>175.0</ele><time>2026-03-29T13:28:50Z</time></trkpt><trkpt lat="45.50822130485866" lon="10.446241943669513"><ele>175.0</ele><time>2026-03-29T13:28:51Z</time></trkpt><trkpt lat="45.508393447802916" lon="10.446042828293079"><ele>175.0</ele><time>2026-03-29T13:28:52Z</time></trkpt><trkpt lat="45.50855261413921" lon="10.44586086916969"><ele>175.0</ele><time>2026-03-29T13:28:53Z</time></trkpt><trkpt lat="45.50870568819757" lon="10.44568270379015"><ele>175.0</ele><time>2026-03-29T13:28:54Z</time></trkpt><trkpt lat="45.50886242125751" lon="10.445499992207038"><ele>175.0</ele><time>2026-03-29T13:28:55Z</time></trkpt><trkpt lat="45.509019667857665" lon="10.445315626313466"><ele>175.66666666666669</ele><time>2026-03-29T13:28:56Z</time></trkpt><trkpt lat="45.50918559354747" lon="10.44515961734945"><ele>176.33333333333334</ele><time>2026-03-29T13:28:57Z</time></trkpt><trkpt lat="45.50931826564858" lon="10.444955643779952"><ele>177.0</ele><time>2026-03-29T13:28:58Z</time></trkpt><trkpt lat="45.50944204352346" lon="10.444748438103074"><ele>176.66666666666666</ele><time>2026-03-29T13:28:59Z</time></trkpt><trkpt lat="45.509549524243916" lon="10.444512279813829"><ele>176.33333333333331</ele><time>2026-03-29T13:29:00Z</time></trkpt><trkpt lat="45.509661730390086" lon="10.444261901421473"><ele>176.0</ele><time>2026-03-29T13:29:01Z</time></trkpt><trkpt lat="45.50977875410663" lon="10.44401063438325"><ele>176.0</ele><time>2026-03-29T13:29:02Z</time></trkpt><trkpt lat="45.509894886335594" lon="10.443771243419853"><ele>176.0</ele><time>2026-03-29T13:29:03Z</time></trkpt><trkpt lat="45.510010954468264" lon="10.443536246879843"><ele>176.0</ele><time>2026-03-29T13:29:04Z</time></trkpt><trkpt lat="45.510128846350064" lon="10.44329474692899"><ele>176.0</ele><time>2026-03-29T13:29:05Z</time></trkpt><trkpt lat="45.5102255075524" lon="10.443092102184753"><ele>176.0</ele><time>2026-03-29T13:29:06Z</time></trkpt><trkpt lat="45.51030012659508" lon="10.442941460587619"><ele>176.0</ele><time>2026-03-29T13:29:07Z</time></trkpt><trkpt lat="45.510358025732195" lon="10.442834074397453"><ele>176.0</ele><time>2026-03-29T13:29:08Z</time></trkpt><trkpt lat="45.51042009777143" lon="10.442762167973877"><ele>176.75</ele><time>2026-03-29T13:29:09Z</time></trkpt><trkpt lat="45.51051695713448" lon="10.442704914686539"><ele>177.5</ele><time>2026-03-29T13:29:10Z</time></trkpt><trkpt lat="45.51064457561268" lon="10.442671638454197"><ele>178.25</ele><time>2026-03-29T13:29:11Z</time></trkpt><trkpt lat="45.51079107225528" lon="10.442699837820275"><ele>179.0</ele><time>2026-03-29T13:29:12Z</time></trkpt><trkpt lat="45.510962332282524" lon="10.442694742635044"><ele>179.0</ele><time>2026-03-29T13:29:13Z</time></trkpt><trkpt lat="45.51111846074941" lon="10.442737028027478"><ele>179.0</ele><time>2026-03-29T13:29:14Z</time></trkpt><trkpt lat="45.511242794229865" lon="10.442777322469201"><ele>179.0</ele><time>2026-03-29T13:29:15Z</time></trkpt><trkpt lat="45.51132792232252" lon="10.442819588523617"><ele>179.0</ele><time>2026-03-29T13:29:16Z</time></trkpt><trkpt lat="45.51138043022511" lon="10.442885441553653"><ele>179.0</ele><time>2026-03-29T13:29:17Z</time></trkpt><trkpt lat="45.51139858593551" lon="10.44298203613379"><ele>178.6</ele><time>2026-03-29T13:29:19Z</time></trkpt><trkpt lat="45.51142311468533" lon="10.443149850436999"><ele>178.2</ele><time>2026-03-29T13:29:22Z</time></trkpt><trkpt lat="45.511455685656166" lon="10.443283670582728"><ele>177.79999999999998</ele><time>2026-03-29T13:29:23Z</time></trkpt><trkpt lat="45.51152857183066" lon="10.443374783477566"><ele>177.39999999999998</ele><time>2026-03-29T13:29:24Z</time></trkpt><trkpt lat="45.51161734195644" lon="10.443433843139719"><ele>177.0</ele><time>2026-03-29T13:29:25Z</time></trkpt><trkpt lat="45.51172348193883" lon="10.443395495058445"><ele>177.0</ele><time>2026-03-29T13:29:26Z</time></trkpt><trkpt lat="45.51181452346963" lon="10.443311063924602"><ele>177.0</ele><time>2026-03-29T13:29:27Z</time></trkpt><trkpt lat="45.51187766454254" lon="10.44317745302392"><ele>177.0</ele><time>2026-03-29T13:29:28Z</time></trkpt><trkpt lat="45.51189128761718" lon="10.442989238928178"><ele>177.0</ele><time>2026-03-29T13:29:29Z</time></trkpt><trkpt lat="45.511946215248535" lon="10.442771892228006"><ele>177.0</ele><time>2026-03-29T13:29:30Z</time></trkpt><trkpt lat="45.51197638929461" lon="10.442566185904811"><ele>177.0</ele><time>2026-03-29T13:29:31Z</time></trkpt><trkpt lat="45.51215891873332" lon="10.442426303147435"><ele>177.0</ele><time>2026-03-29T13:29:32Z</time></trkpt><trkpt lat="45.5123086678893" lon="10.442214399812778"><ele>177.5</ele><time>2026-03-29T13:29:33Z</time></trkpt><trkpt lat="45.51247566268291" lon="10.441952112018669"><ele>178.0</ele><time>2026-03-29T13:29:34Z</time></trkpt><trkpt lat="45.512662901659176" lon="10.441694711338155"><ele>178.0</ele><time>2026-03-29T13:29:35Z</time></trkpt><trkpt lat="45.512845022217185" lon="10.441419584601995"><ele>178.0</ele><time>2026-03-29T13:29:36Z</time></trkpt><trkpt lat="45.51303715415403" lon="10.441149462239515"><ele>178.5</ele><time>2026-03-29T13:29:37Z</time></trkpt><trkpt lat="45.51319634327277" lon="10.440839138206545"><ele>179.0</ele><time>2026-03-29T13:29:38Z</time></trkpt><trkpt lat="45.51335971293447" lon="10.440539367598245"><ele>178.5</ele><time>2026-03-29T13:29:39Z</time></trkpt><trkpt lat="45.51351500035661" lon="10.440221517189244"><ele>178.0</ele><time>2026-03-29T13:29:40Z</time></trkpt><trkpt lat="45.51366126346052" lon="10.4398955922709"><ele>179.0</ele><time>2026-03-29T13:29:41Z</time></trkpt><trkpt lat="45.51378798767716" lon="10.43956952694096"><ele>180.0</ele><time>2026-03-29T13:29:42Z</time></trkpt><trkpt lat="45.513909857467056" lon="10.439230880776895"><ele>180.0</ele><time>2026-03-29T13:29:43Z</time></trkpt><trkpt lat="45.51401813348492" lon="10.438886249575603"><ele>180.0</ele><time>2026-03-29T13:29:44Z</time></trkpt><trkpt lat="45.51411636212426" lon="10.438540549850758"><ele>180.0</ele><time>2026-03-29T13:29:45Z</time></trkpt><trkpt lat="45.5141988116925" lon="10.43821496166561"><ele>180.0</ele><time>2026-03-29T13:29:46Z</time></trkpt><trkpt lat="45.51428367797552" lon="10.43794848450397"><ele>180.0</ele><time>2026-03-29T13:29:47Z</time></trkpt><trkpt lat="45.51434285192473" lon="10.437721368088654"><ele>180.25</ele><time>2026-03-29T13:29:48Z</time></trkpt><trkpt lat="45.51438312412609" lon="10.43751686288351"><ele>180.5</ele><time>2026-03-29T13:29:49Z</time></trkpt><trkpt lat="45.51445056285854" lon="10.437338509078053"><ele>180.75</ele><time>2026-03-29T13:29:50Z</time></trkpt><trkpt lat="45.51454153150149" lon="10.437186819410439"><ele>181.0</ele><time>2026-03-29T13:29:51Z</time></trkpt><trkpt lat="45.51465238286148" lon="10.43705118061664"><ele>181.5</ele><time>2026-03-29T13:29:52Z</time></trkpt><trkpt lat="45.51474474679542" lon="10.436928225431213"><ele>182.0</ele><time>2026-03-29T13:29:53Z</time></trkpt><trkpt lat="45.514792899898154" lon="10.436789072783656"><ele>182.5</ele><time>2026-03-29T13:29:54Z</time></trkpt><trkpt lat="45.51478777574159" lon="10.436629522383704"><ele>183.0</ele><time>2026-03-29T13:29:55Z</time></trkpt><trkpt lat="45.5147480734826" lon="10.43645868788165"><ele>183.0</ele><time>2026-03-29T13:29:56Z</time></trkpt><trkpt lat="45.51468316392916" lon="10.436282822314958"><ele>183.0</ele><time>2026-03-29T13:29:57Z</time></trkpt><trkpt lat="45.514628188266464" lon="10.436077766259093"><ele>183.0</ele><time>2026-03-29T13:29:58Z</time></trkpt><trkpt lat="45.51462513334582" lon="10.435847107864394"><ele>183.0</ele><time>2026-03-29T13:29:59Z</time></trkpt><trkpt lat="45.514623644409696" lon="10.435596128334144"><ele>183.0</ele><time>2026-03-29T13:30:00Z</time></trkpt><trkpt lat="45.51461439712176" lon="10.435362589688694"><ele>183.0</ele><time>2026-03-29T13:30:01Z</time></trkpt><trkpt lat="45.514601800034164" lon="10.435110330381974"><ele>182.33333333333334</ele><time>2026-03-29T13:30:02Z</time></trkpt><trkpt lat="45.514588260820425" lon="10.43483920482452"><ele>181.66666666666669</ele><time>2026-03-29T13:30:03Z</time></trkpt><trkpt lat="45.51457540814607" lon="10.43457367297283"><ele>181.0</ele><time>2026-03-29T13:30:04Z</time></trkpt><trkpt lat="45.514562011622694" lon="10.434291394315487"><ele>181.0</ele><time>2026-03-29T13:30:05Z</time></trkpt><trkpt lat="45.51453214172136" lon="10.434008383679307"><ele>181.0</ele><time>2026-03-29T13:30:06Z</time></trkpt><trkpt lat="45.514533967930916" lon="10.433676529190903"><ele>181.0</ele><time>2026-03-29T13:30:07Z</time></trkpt><trkpt lat="45.51450260186251" lon="10.433315797970135"><ele>182.5</ele><time>2026-03-29T13:30:08Z</time></trkpt><trkpt lat="45.51448943907902" lon="10.432954895876556"><ele>184.0</ele><time>2026-03-29T13:30:09Z</time></trkpt><trkpt lat="45.51448023651724" lon="10.432633577534038"><ele>184.0</ele><time>2026-03-29T13:30:10Z</time></trkpt><trkpt lat="45.51447776829585" lon="10.432324639958813"><ele>184.0</ele><time>2026-03-29T13:30:11Z</time></trkpt><trkpt lat="45.51447898877518" lon="10.432021683446905"><ele>184.0</ele><time>2026-03-29T13:30:12Z</time></trkpt><trkpt lat="45.514483843732435" lon="10.431706070717606"><ele>183.66666666666669</ele><time>2026-03-29T13:30:13Z</time></trkpt><trkpt lat="45.5144908725088" lon="10.431388268657297"><ele>183.33333333333334</ele><time>2026-03-29T13:30:14Z</time></trkpt><trkpt lat="45.51451832397066" lon="10.431083101752888"><ele>183.0</ele><time>2026-03-29T13:30:15Z</time></trkpt><trkpt lat="45.51453698252455" lon="10.430794773103667"><ele>182.66666666666666</ele><time>2026-03-29T13:30:16Z</time></trkpt><trkpt lat="45.51455728278857" lon="10.430512524849377"><ele>182.33333333333331</ele><time>2026-03-29T13:30:17Z</time></trkpt><trkpt lat="45.51458130948729" lon="10.430220530052996"><ele>182.0</ele><time>2026-03-29T13:30:18Z</time></trkpt><trkpt lat="45.514605969068604" lon="10.429932755494175"><ele>182.66666666666666</ele><time>2026-03-29T13:30:19Z</time></trkpt><trkpt lat="45.51463243777076" lon="10.429639370589953"><ele>183.33333333333334</ele><time>2026-03-29T13:30:20Z</time></trkpt><trkpt lat="45.51464151752858" lon="10.429350195268379"><ele>184.0</ele><time>2026-03-29T13:30:21Z</time></trkpt><trkpt lat="45.51467351570301" lon="10.429054824192484"><ele>184.0</ele><time>2026-03-29T13:30:22Z</time></trkpt><trkpt lat="45.51469857619913" lon="10.428749343038236"><ele>184.0</ele><time>2026-03-29T13:30:23Z</time></trkpt><trkpt lat="45.514717820241245" lon="10.428439038365616"><ele>184.0</ele><time>2026-03-29T13:30:24Z</time></trkpt><trkpt lat="45.51475945278363" lon="10.428126253232461"><ele>184.0</ele><time>2026-03-29T13:30:25Z</time></trkpt><trkpt lat="45.51478672660412" lon="10.427810860946206"><ele>184.0</ele><time>2026-03-29T13:30:26Z</time></trkpt><trkpt lat="45.51481426515358" lon="10.42749132209068"><ele>184.0</ele><time>2026-03-29T13:30:27Z</time></trkpt><trkpt lat="45.51484218874182" lon="10.427163784294951"><ele>183.0</ele><time>2026-03-29T13:30:28Z</time></trkpt><trkpt lat="45.51487139317235" lon="10.426821222668192"><ele>182.0</ele><time>2026-03-29T13:30:29Z</time></trkpt><trkpt lat="45.51490019399997" lon="10.426483395055074"><ele>182.5</ele><time>2026-03-29T13:30:30Z</time></trkpt><trkpt lat="45.51493053706422" lon="10.426139101148982"><ele>183.0</ele><time>2026-03-29T13:30:31Z</time></trkpt><trkpt lat="45.51495876606052" lon="10.42580745298593"><ele>183.0</ele><time>2026-03-29T13:30:32Z</time></trkpt><trkpt lat="45.514985860486796" lon="10.425483066535197"><ele>183.0</ele><time>2026-03-29T13:30:33Z</time></trkpt><trkpt lat="45.5150116379636" lon="10.425174447368367"><ele>183.0</ele><time>2026-03-29T13:30:34Z</time></trkpt><trkpt lat="45.51503574164279" lon="10.424885867764525"><ele>182.0</ele><time>2026-03-29T13:30:35Z</time></trkpt><trkpt lat="45.51505989809643" lon="10.424601227954133"><ele>181.0</ele><time>2026-03-29T13:30:36Z</time></trkpt><trkpt lat="45.51508457294478" lon="10.424313658561552"><ele>180.0</ele><time>2026-03-29T13:30:37Z</time></trkpt><trkpt lat="45.51510691808398" lon="10.424053240453569"><ele>180.0</ele><time>2026-03-29T13:30:38Z</time></trkpt><trkpt lat="45.51510875557135" lon="10.42384301418178"><ele>180.0</ele><time>2026-03-29T13:30:39Z</time></trkpt><trkpt lat="45.51513934456942" lon="10.42367533043423"><ele>180.0</ele><time>2026-03-29T13:30:40Z</time></trkpt><trkpt lat="45.515135130141346" lon="10.42353039245815"><ele>180.0</ele><time>2026-03-29T13:30:41Z</time></trkpt><trkpt lat="45.51515595242161" lon="10.42342195470044"><ele>180.0</ele><time>2026-03-29T13:30:42Z</time></trkpt><trkpt lat="45.51519019388772" lon="10.423317156097847"><ele>180.2</ele><time>2026-03-29T13:30:43Z</time></trkpt><trkpt lat="45.51525915184688" lon="10.42322472429096"><ele>180.4</ele><time>2026-03-29T13:30:44Z</time></trkpt><trkpt lat="45.515306830897416" lon="10.423091803926471"><ele>180.60000000000002</ele><time>2026-03-29T13:30:45Z</time></trkpt><trkpt lat="45.515371705217945" lon="10.422959144865"><ele>180.8</ele><time>2026-03-29T13:30:46Z</time></trkpt><trkpt lat="45.51538803686235" lon="10.422819845037756"><ele>181.0</ele><time>2026-03-29T13:30:47Z</time></trkpt><trkpt lat="45.51536844331723" lon="10.422667678704878"><ele>181.5</ele><time>2026-03-29T13:30:48Z</time></trkpt><trkpt lat="45.515321001708706" lon="10.422519770729416"><ele>182.0</ele><time>2026-03-29T13:30:49Z</time></trkpt><trkpt lat="45.51526636346023" lon="10.422377504704055"><ele>182.5</ele><time>2026-03-29T13:30:50Z</time></trkpt><trkpt lat="45.51523033461056" lon="10.422220646448046"><ele>183.0</ele><time>2026-03-29T13:30:51Z</time></trkpt><trkpt lat="45.515243193462" lon="10.42205774504603"><ele>183.0</ele><time>2026-03-29T13:30:52Z</time></trkpt><trkpt lat="45.51525059716523" lon="10.421887119058047"><ele>183.0</ele><time>2026-03-29T13:30:53Z</time></trkpt><trkpt lat="45.515261024402484" lon="10.421667364322538"><ele>183.0</ele><time>2026-03-29T13:30:54Z</time></trkpt><trkpt lat="45.515274470988835" lon="10.421383975682447"><ele>183.0</ele><time>2026-03-29T13:30:55Z</time></trkpt><trkpt lat="45.5152893446528" lon="10.421070512145297"><ele>183.0</ele><time>2026-03-29T13:30:56Z</time></trkpt><trkpt lat="45.51530416045277" lon="10.420758267484237"><ele>183.0</ele><time>2026-03-29T13:30:57Z</time></trkpt><trkpt lat="45.51530956615679" lon="10.420426610891885"><ele>183.0</ele><time>2026-03-29T13:30:58Z</time></trkpt><trkpt lat="45.51533417921233" lon="10.420077647723424"><ele>183.0</ele><time>2026-03-29T13:30:59Z</time></trkpt><trkpt lat="45.51535228662197" lon="10.419719523300628"><ele>184.0</ele><time>2026-03-29T13:31:00Z</time></trkpt><trkpt lat="45.51536639023082" lon="10.419377667388584"><ele>185.0</ele><time>2026-03-29T13:31:01Z</time></trkpt><trkpt lat="45.515378752469765" lon="10.419052776937045"><ele>184.33333333333331</ele><time>2026-03-29T13:31:02Z</time></trkpt><trkpt lat="45.51537192809281" lon="10.41873404472955"><ele>183.66666666666666</ele><time>2026-03-29T13:31:03Z</time></trkpt><trkpt lat="45.515347153661175" lon="10.418426485713388"><ele>183.0</ele><time>2026-03-29T13:31:04Z</time></trkpt><trkpt lat="45.51529533149315" lon="10.418127476596306"><ele>182.0</ele><time>2026-03-29T13:31:05Z</time></trkpt><trkpt lat="45.51522222459011" lon="10.417826482623212"><ele>181.0</ele><time>2026-03-29T13:31:06Z</time></trkpt><trkpt lat="45.515125743236275" lon="10.41753139240663"><ele>181.0</ele><time>2026-03-29T13:31:07Z</time></trkpt><trkpt lat="45.51502032206303" lon="10.417262353499602"><ele>181.0</ele><time>2026-03-29T13:31:08Z</time></trkpt><trkpt lat="45.51490014895852" lon="10.417002370233396"><ele>181.0</ele><time>2026-03-29T13:31:09Z</time></trkpt><trkpt lat="45.51475880149456" lon="10.416771829362801"><ele>180.0</ele><time>2026-03-29T13:31:10Z</time></trkpt><trkpt lat="45.51460457740126" lon="10.41655931091784"><ele>179.0</ele><time>2026-03-29T13:31:11Z</time></trkpt><trkpt lat="45.51443322169468" lon="10.416370991339218"><ele>178.0</ele><time>2026-03-29T13:31:12Z</time></trkpt><trkpt lat="45.51425485536266" lon="10.416204085204829"><ele>178.0</ele><time>2026-03-29T13:31:13Z</time></trkpt><trkpt lat="45.51407616777896" lon="10.416068448537873"><ele>178.0</ele><time>2026-03-29T13:31:14Z</time></trkpt><trkpt lat="45.513896898818224" lon="10.41595614455873"><ele>178.0</ele><time>2026-03-29T13:31:15Z</time></trkpt><trkpt lat="45.51371533132244" lon="10.415852037343853"><ele>177.0</ele><time>2026-03-29T13:31:16Z</time></trkpt><trkpt lat="45.51354293118552" lon="10.415750527411317"><ele>176.0</ele><time>2026-03-29T13:31:17Z</time></trkpt><trkpt lat="45.51339058883849" lon="10.41564769282324"><ele>175.0</ele><time>2026-03-29T13:31:18Z</time></trkpt><trkpt lat="45.51325065622599" lon="10.415551253124898"><ele>176.0</ele><time>2026-03-29T13:31:19Z</time></trkpt><trkpt lat="45.513121969660226" lon="10.415476012514288"><ele>177.0</ele><time>2026-03-29T13:31:20Z</time></trkpt><trkpt lat="45.513018948266605" lon="10.41541664595999"><ele>178.0</ele><time>2026-03-29T13:31:21Z</time></trkpt><trkpt lat="45.51296151046482" lon="10.415376570056713"><ele>179.0</ele><time>2026-03-29T13:31:22Z</time></trkpt><trkpt lat="45.51295664374411" lon="10.415156007492262"><ele>179.0</ele><time>2026-03-29T13:31:25Z</time></trkpt><trkpt lat="45.51301578080509" lon="10.415057458146682"><ele>179.0</ele><time>2026-03-29T13:31:26Z</time></trkpt><trkpt lat="45.51307508744103" lon="10.414947558668725"><ele>179.0</ele><time>2026-03-29T13:31:27Z</time></trkpt><trkpt lat="45.51313841970794" lon="10.414844763525894"><ele>179.0</ele><time>2026-03-29T13:31:28Z</time></trkpt><trkpt lat="45.51323963780805" lon="10.414837051370451"><ele>179.0</ele><time>2026-03-29T13:31:29Z</time></trkpt><trkpt lat="45.513342044571466" lon="10.41481492461342"><ele>179.0</ele><time>2026-03-29T13:31:30Z</time></trkpt><trkpt lat="45.51344625766811" lon="10.414783630669115"><ele>179.0</ele><time>2026-03-29T13:31:31Z</time></trkpt><trkpt lat="45.51355082799265" lon="10.414763603052089"><ele>179.0</ele><time>2026-03-29T13:31:32Z</time></trkpt><trkpt lat="45.51364070960131" lon="10.414735452882274"><ele>179.0</ele><time>2026-03-29T13:31:33Z</time></trkpt><trkpt lat="45.51372872166693" lon="10.414699818711503"><ele>179.0</ele><time>2026-03-29T13:31:34Z</time></trkpt><trkpt lat="45.513808787019705" lon="10.414655820193268"><ele>180.39999999999998</ele><time>2026-03-29T13:31:35Z</time></trkpt><trkpt lat="45.513862661002165" lon="10.414603006020076"><ele>181.8</ele><time>2026-03-29T13:31:36Z</time></trkpt><trkpt lat="45.51393965266487" lon="10.414734078682937"><ele>183.2</ele><time>2026-03-29T13:31:37Z</time></trkpt><trkpt lat="45.514027598426054" lon="10.4147846873345"><ele>184.60000000000002</ele><time>2026-03-29T13:31:38Z</time></trkpt><trkpt lat="45.51413392930088" lon="10.414838141909534"><ele>186.0</ele><time>2026-03-29T13:31:39Z</time></trkpt><trkpt lat="45.51422324367581" lon="10.414878028563999"><ele>186.0</ele><time>2026-03-29T13:31:40Z</time></trkpt><trkpt lat="45.514322454881246" lon="10.414940082472212"><ele>186.0</ele><time>2026-03-29T13:31:41Z</time></trkpt><trkpt lat="45.51444080784319" lon="10.414996394492844"><ele>186.0</ele><time>2026-03-29T13:31:42Z</time></trkpt><trkpt lat="45.51453927090986" lon="10.415076891749772"><ele>186.0</ele><time>2026-03-29T13:31:43Z</time></trkpt><trkpt lat="45.51463294857874" lon="10.41515445630422"><ele>186.5</ele><time>2026-03-29T13:31:44Z</time></trkpt><trkpt lat="45.51472904824511" lon="10.415230030642482"><ele>187.0</ele><time>2026-03-29T13:31:45Z</time></trkpt><trkpt lat="45.51483487049626" lon="10.415269254276765"><ele>187.5</ele><time>2026-03-29T13:31:46Z</time></trkpt><trkpt lat="45.514956786562614" lon="10.415292982111104"><ele>188.0</ele><time>2026-03-29T13:31:47Z</time></trkpt><trkpt lat="45.515082985904634" lon="10.415310408935092"><ele>188.0</ele><time>2026-03-29T13:31:48Z</time></trkpt><trkpt lat="45.51519952200008" lon="10.415305386256728"><ele>188.0</ele><time>2026-03-29T13:31:49Z</time></trkpt><trkpt lat="45.5153198751311" lon="10.415289727665876"><ele>188.0</ele><time>2026-03-29T13:31:50Z</time></trkpt><trkpt lat="45.51544570735376" lon="10.4152791011914"><ele>188.0</ele><time>2026-03-29T13:31:51Z</time></trkpt><trkpt lat="45.51556979113653" lon="10.415255356776651"><ele>189.25</ele><time>2026-03-29T13:31:52Z</time></trkpt><trkpt lat="45.515692938627915" lon="10.415219924277224"><ele>190.5</ele><time>2026-03-29T13:31:53Z</time></trkpt><trkpt lat="45.515827692867546" lon="10.415164912950456"><ele>191.75</ele><time>2026-03-29T13:31:54Z</time></trkpt><trkpt lat="45.51597504643908" lon="10.41510134736633"><ele>193.0</ele><time>2026-03-29T13:31:55Z</time></trkpt><trkpt lat="45.51613008259231" lon="10.415025890449732"><ele>193.0</ele><time>2026-03-29T13:31:56Z</time></trkpt><trkpt lat="45.516291431462676" lon="10.414956554028732"><ele>193.0</ele><time>2026-03-29T13:31:57Z</time></trkpt><trkpt lat="45.51643571932412" lon="10.414900669552228"><ele>193.0</ele><time>2026-03-29T13:31:58Z</time></trkpt><trkpt lat="45.516576612045796" lon="10.414850931091326"><ele>193.0</ele><time>2026-03-29T13:31:59Z</time></trkpt><trkpt lat="45.516689081237416" lon="10.414809362846725"><ele>193.0</ele><time>2026-03-29T13:32:00Z</time></trkpt><trkpt lat="45.516792459252756" lon="10.414768988237988"><ele>193.0</ele><time>2026-03-29T13:32:01Z</time></trkpt><trkpt lat="45.516898619733425" lon="10.414721904094462"><ele>193.0</ele><time>2026-03-29T13:32:02Z</time></trkpt><trkpt lat="45.517000750909624" lon="10.414677807884223"><ele>193.0</ele><time>2026-03-29T13:32:03Z</time></trkpt><trkpt lat="45.51709304682525" lon="10.414657687981643"><ele>193.2</ele><time>2026-03-29T13:32:04Z</time></trkpt><trkpt lat="45.51716508878723" lon="10.414687373208722"><ele>193.4</ele><time>2026-03-29T13:32:05Z</time></trkpt><trkpt lat="45.517254046148274" lon="10.414695995282083"><ele>193.6</ele><time>2026-03-29T13:32:07Z</time></trkpt><trkpt lat="45.517265142595875" lon="10.41444810702146"><ele>193.79999999999998</ele><time>2026-03-29T13:32:09Z</time></trkpt><trkpt lat="45.517241828255614" lon="10.414322514028015"><ele>194.0</ele><time>2026-03-29T13:32:10Z</time></trkpt><trkpt lat="45.5172416526586" lon="10.414174338358677"><ele>194.50000000000003</ele><time>2026-03-29T13:32:11Z</time></trkpt><trkpt lat="45.5172299674896" lon="10.414037159733155"><ele>195.0</ele><time>2026-03-29T13:32:12Z</time></trkpt><trkpt lat="45.51722179425576" lon="10.41391659377833"><ele>195.5</ele><time>2026-03-29T13:32:13Z</time></trkpt><trkpt lat="45.517215684875076" lon="10.413813521570116"><ele>196.0</ele><time>2026-03-29T13:32:14Z</time></trkpt><trkpt lat="45.5172268928821" lon="10.413657589044432"><ele>196.50000000000003</ele><time>2026-03-29T13:32:16Z</time></trkpt><trkpt lat="45.517298507480845" lon="10.413642640397242"><ele>197.0</ele><time>2026-03-29T13:32:18Z</time></trkpt><trkpt lat="45.5174064313076" lon="10.413675539935529"><ele>197.0</ele><time>2026-03-29T13:32:20Z</time></trkpt><trkpt lat="45.5175006222118" lon="10.413675694261876"><ele>197.0</ele><time>2026-03-29T13:32:22Z</time></trkpt><trkpt lat="45.51757299234929" lon="10.41370632643782"><ele>197.0</ele><time>2026-03-29T13:32:25Z</time></trkpt><trkpt lat="45.517545664579075" lon="10.413934660038391"><ele>197.0</ele><time>2026-03-29T13:32:28Z</time></trkpt><trkpt lat="45.51757066725655" lon="10.414020735871132"><ele>197.0</ele><time>2026-03-29T13:32:30Z</time></trkpt><trkpt lat="45.517506926452924" lon="10.414051481460776"><ele>197.0</ele><time>2026-03-29T13:32:33Z</time></trkpt><trkpt lat="45.517499846582965" lon="10.413940071900875"><ele>197.0</ele><time>2026-03-29T13:32:58Z</time></trkpt><trkpt lat="45.51751767901775" lon="10.41384679098193"><ele>197.0</ele><time>2026-03-29T13:33:03Z</time></trkpt><trkpt lat="45.51753751471207" lon="10.413745960508638"><ele>197.0</ele><time>2026-03-29T13:33:09Z</time></trkpt><trkpt lat="45.51753961553268" lon="10.41364391698608"><ele>197.0</ele><time>2026-03-29T13:33:15Z</time></trkpt><trkpt lat="45.517570321263285" lon="10.413555743786814"><ele>197.0</ele><time>2026-03-29T13:33:22Z</time></trkpt><trkpt lat="45.5176182982323" lon="10.413489653677848"><ele>197.0</ele><time>2026-03-29T13:33:37Z</time></trkpt><trkpt lat="45.51767063123113" lon="10.413427849395742"><ele>197.0</ele><time>2026-03-29T13:33:44Z</time></trkpt></trkseg></trk></gpx>